<?xml version='1.0' encoding='UTF-8'?><gpx version="1.1" creator="JPX - https://github.com/jenetics/jpx" xmlns="http://www.topografix.com/GPX/1/1"><trk><trkseg><trkpt lat="44.9609609" lon="6.8848109"><ele>1992.0</ele><time>2026-04-03T08:32:02.863Z</time></trkpt><trkpt lat="44.9608887" lon="6.8848212"><ele>1991.9999999999998</ele><time>2026-04-03T08:32:09.87Z</time></trkpt><trkpt lat="44.9608143" lon="6.88483"><ele>1992.0</ele><time>2026-04-03T08:32:16.86Z</time></trkpt><trkpt lat="44.9607539" lon="6.8848678"><ele>1992.0</ele><time>2026-04-03T08:32:21.855Z</time></trkpt><trkpt lat="44.9606856" lon="6.8849047"><ele>1991.9999999999998</ele><time>2026-04-03T08:32:28.862Z</time></trkpt><trkpt lat="44.9606157" lon="6.8849485"><ele>1992.0</ele><time>2026-04-03T08:32:35.869Z</time></trkpt><trkpt lat="44.9605475" lon="6.8849692"><ele>1992.0</ele><time>2026-04-03T08:32:41.88Z</time></trkpt><trkpt lat="44.9604843" lon="6.8849639"><ele>1991.8333333333333</ele><time>2026-04-03T08:32:46.876Z</time></trkpt><trkpt lat="44.9604237" lon="6.8850116"><ele>1991.6666666666665</ele><time>2026-04-03T08:32:52.868Z</time></trkpt><trkpt lat="44.9603519" lon="6.8850307"><ele>1991.5</ele><time>2026-04-03T08:32:58.874Z</time></trkpt><trkpt lat="44.9604194" lon="6.8850916"><ele>1991.3333333333333</ele><time>2026-04-03T08:34:39.874Z</time></trkpt><trkpt lat="44.9604878" lon="6.8851831"><ele>1991.1666666666665</ele><time>2026-04-03T08:34:42.873Z</time></trkpt><trkpt lat="44.9605694" lon="6.8852639"><ele>1991.0</ele><time>2026-04-03T08:34:43.868Z</time></trkpt><trkpt lat="44.9606445" lon="6.8853072"><ele>1990.9999999999998</ele><time>2026-04-03T08:34:44.871Z</time></trkpt><trkpt lat="44.9606783" lon="6.8853831"><ele>1991.0</ele><time>2026-04-03T08:34:45.863Z</time></trkpt><trkpt lat="44.960699" lon="6.8854698"><ele>1991.0</ele><time>2026-04-03T08:34:47.867Z</time></trkpt><trkpt lat="44.9607541" lon="6.88555"><ele>1991.0</ele><time>2026-04-03T08:34:50.866Z</time></trkpt><trkpt lat="44.9608602" lon="6.8855629"><ele>1990.9999999999998</ele><time>2026-04-03T08:34:52.857Z</time></trkpt><trkpt lat="44.960925" lon="6.8856518"><ele>1991.0</ele><time>2026-04-03T08:34:54.87Z</time></trkpt><trkpt lat="44.9608938" lon="6.8857361"><ele>1988.4</ele><time>2026-04-03T08:34:57.87Z</time></trkpt><trkpt lat="44.9609312" lon="6.8858651"><ele>1985.8</ele><time>2026-04-03T08:35:00.861Z</time></trkpt><trkpt lat="44.9609632" lon="6.8860425"><ele>1983.2000000000003</ele><time>2026-04-03T08:35:02.859Z</time></trkpt><trkpt lat="44.9609386" lon="6.8861359"><ele>1980.6000000000001</ele><time>2026-04-03T08:35:03.865Z</time></trkpt><trkpt lat="44.9609389" lon="6.8862365"><ele>1978.0</ele><time>2026-04-03T08:35:04.87Z</time></trkpt><trkpt lat="44.9609667" lon="6.886344"><ele>1975.8000000000002</ele><time>2026-04-03T08:35:05.863Z</time></trkpt><trkpt lat="44.960951" lon="6.8864733"><ele>1973.6000000000001</ele><time>2026-04-03T08:35:06.871Z</time></trkpt><trkpt lat="44.9609233" lon="6.8865865"><ele>1971.3999999999999</ele><time>2026-04-03T08:35:07.875Z</time></trkpt><trkpt lat="44.9609126" lon="6.8866893"><ele>1969.1999999999998</ele><time>2026-04-03T08:35:08.869Z</time></trkpt><trkpt lat="44.9609468" lon="6.8868711"><ele>1967.0</ele><time>2026-04-03T08:35:10.87Z</time></trkpt><trkpt lat="44.9610008" lon="6.886971"><ele>1963.8</ele><time>2026-04-03T08:35:11.858Z</time></trkpt><trkpt lat="44.9610731" lon="6.8870951"><ele>1960.6</ele><time>2026-04-03T08:35:12.863Z</time></trkpt><trkpt lat="44.9611226" lon="6.8872648"><ele>1957.3999999999999</ele><time>2026-04-03T08:35:14.862Z</time></trkpt><trkpt lat="44.961177" lon="6.8873618"><ele>1954.1999999999998</ele><time>2026-04-03T08:35:15.865Z</time></trkpt><trkpt lat="44.9612837" lon="6.8874074"><ele>1951.0</ele><time>2026-04-03T08:35:16.863Z</time></trkpt><trkpt lat="44.9613374" lon="6.887527"><ele>1947.6</ele><time>2026-04-03T08:35:17.865Z</time></trkpt><trkpt lat="44.961388" lon="6.8876574"><ele>1944.1999999999998</ele><time>2026-04-03T08:35:18.863Z</time></trkpt><trkpt lat="44.9614648" lon="6.8877672"><ele>1940.8000000000002</ele><time>2026-04-03T08:35:19.864Z</time></trkpt><trkpt lat="44.9615404" lon="6.8878325"><ele>1937.4</ele><time>2026-04-03T08:35:20.861Z</time></trkpt><trkpt lat="44.9616184" lon="6.8879029"><ele>1934.0</ele><time>2026-04-03T08:35:21.863Z</time></trkpt><trkpt lat="44.9617049" lon="6.8879264"><ele>1931.6</ele><time>2026-04-03T08:35:22.87Z</time></trkpt><trkpt lat="44.9617874" lon="6.8879836"><ele>1929.2</ele><time>2026-04-03T08:35:23.86Z</time></trkpt><trkpt lat="44.9618995" lon="6.8880723"><ele>1926.7999999999997</ele><time>2026-04-03T08:35:24.864Z</time></trkpt><trkpt lat="44.9619979" lon="6.8881272"><ele>1924.3999999999999</ele><time>2026-04-03T08:35:25.862Z</time></trkpt><trkpt lat="44.9621055" lon="6.8881722"><ele>1922.0</ele><time>2026-04-03T08:35:26.864Z</time></trkpt><trkpt lat="44.9622011" lon="6.888252"><ele>1922.0</ele><time>2026-04-03T08:35:27.87Z</time></trkpt><trkpt lat="44.9622932" lon="6.8883291"><ele>1922.0</ele><time>2026-04-03T08:35:28.856Z</time></trkpt><trkpt lat="44.9624222" lon="6.8883616"><ele>1922.0</ele><time>2026-04-03T08:35:29.865Z</time></trkpt><trkpt lat="44.9625535" lon="6.8883971"><ele>1922.0</ele><time>2026-04-03T08:35:30.87Z</time></trkpt><trkpt lat="44.9626887" lon="6.8884598"><ele>1917.5</ele><time>2026-04-03T08:35:31.867Z</time></trkpt><trkpt lat="44.9628288" lon="6.8885158"><ele>1913.0</ele><time>2026-04-03T08:35:32.861Z</time></trkpt><trkpt lat="44.9629756" lon="6.8885633"><ele>1908.5</ele><time>2026-04-03T08:35:33.863Z</time></trkpt><trkpt lat="44.9631098" lon="6.8886243"><ele>1904.0</ele><time>2026-04-03T08:35:34.86Z</time></trkpt><trkpt lat="44.9632357" lon="6.8886705"><ele>1902.0</ele><time>2026-04-03T08:35:35.87Z</time></trkpt><trkpt lat="44.9633668" lon="6.8887187"><ele>1900.0</ele><time>2026-04-03T08:35:36.863Z</time></trkpt><trkpt lat="44.9634782" lon="6.8887959"><ele>1898.0</ele><time>2026-04-03T08:35:37.87Z</time></trkpt><trkpt lat="44.9635732" lon="6.8888282"><ele>1896.0</ele><time>2026-04-03T08:35:38.872Z</time></trkpt><trkpt lat="44.9636765" lon="6.8888558"><ele>1896.0</ele><time>2026-04-03T08:35:39.87Z</time></trkpt><trkpt lat="44.9637981" lon="6.8889168"><ele>1896.0</ele><time>2026-04-03T08:35:40.87Z</time></trkpt><trkpt lat="44.963916" lon="6.8889829"><ele>1896.0</ele><time>2026-04-03T08:35:41.852Z</time></trkpt><trkpt lat="44.9640382" lon="6.8890394"><ele>1896.0</ele><time>2026-04-03T08:35:42.858Z</time></trkpt><trkpt lat="44.9641609" lon="6.8890735"><ele>1893.5</ele><time>2026-04-03T08:35:43.866Z</time></trkpt><trkpt lat="44.9642827" lon="6.8890819"><ele>1891.0</ele><time>2026-04-03T08:35:44.861Z</time></trkpt><trkpt lat="44.9643946" lon="6.8891165"><ele>1888.5</ele><time>2026-04-03T08:35:45.863Z</time></trkpt><trkpt lat="44.9645029" lon="6.8891699"><ele>1886.0</ele><time>2026-04-03T08:35:46.857Z</time></trkpt><trkpt lat="44.9646117" lon="6.8891904"><ele>1886.0</ele><time>2026-04-03T08:35:47.864Z</time></trkpt><trkpt lat="44.9647226" lon="6.8892375"><ele>1886.0</ele><time>2026-04-03T08:35:48.874Z</time></trkpt><trkpt lat="44.964825" lon="6.8893093"><ele>1886.0</ele><time>2026-04-03T08:35:49.865Z</time></trkpt><trkpt lat="44.9649405" lon="6.8893416"><ele>1886.0</ele><time>2026-04-03T08:35:50.867Z</time></trkpt><trkpt lat="44.9650623" lon="6.889358"><ele>1882.0</ele><time>2026-04-03T08:35:51.856Z</time></trkpt><trkpt lat="44.9651865" lon="6.889402"><ele>1878.0</ele><time>2026-04-03T08:35:52.862Z</time></trkpt><trkpt lat="44.9653231" lon="6.8894483"><ele>1874.0</ele><time>2026-04-03T08:35:53.87Z</time></trkpt><trkpt lat="44.9654432" lon="6.8894914"><ele>1870.0</ele><time>2026-04-03T08:35:54.86Z</time></trkpt><trkpt lat="44.9655762" lon="6.8895051"><ele>1870.0</ele><time>2026-04-03T08:35:55.853Z</time></trkpt><trkpt lat="44.965656" lon="6.8895873"><ele>1870.0</ele><time>2026-04-03T08:35:56.868Z</time></trkpt><trkpt lat="44.9657564" lon="6.8896537"><ele>1870.0</ele><time>2026-04-03T08:35:57.871Z</time></trkpt><trkpt lat="44.9658712" lon="6.8896945"><ele>1870.0</ele><time>2026-04-03T08:35:58.864Z</time></trkpt><trkpt lat="44.965986" lon="6.8897586"><ele>1868.75</ele><time>2026-04-03T08:35:59.862Z</time></trkpt><trkpt lat="44.966101" lon="6.8898415"><ele>1867.5</ele><time>2026-04-03T08:36:00.865Z</time></trkpt><trkpt lat="44.9662211" lon="6.8899274"><ele>1866.25</ele><time>2026-04-03T08:36:01.87Z</time></trkpt><trkpt lat="44.966343" lon="6.8900133"><ele>1865.0</ele><time>2026-04-03T08:36:02.874Z</time></trkpt><trkpt lat="44.9664668" lon="6.8900907"><ele>1866.5</ele><time>2026-04-03T08:36:03.857Z</time></trkpt><trkpt lat="44.9665922" lon="6.8901448"><ele>1868.0</ele><time>2026-04-03T08:36:04.865Z</time></trkpt><trkpt lat="44.9667177" lon="6.8901843"><ele>1869.5</ele><time>2026-04-03T08:36:05.859Z</time></trkpt><trkpt lat="44.9668441" lon="6.8902254"><ele>1871.0</ele><time>2026-04-03T08:36:06.857Z</time></trkpt><trkpt lat="44.9669721" lon="6.8902717"><ele>1867.6</ele><time>2026-04-03T08:36:07.875Z</time></trkpt><trkpt lat="44.9670923" lon="6.8902948"><ele>1864.1999999999998</ele><time>2026-04-03T08:36:08.867Z</time></trkpt><trkpt lat="44.9671821" lon="6.8903507"><ele>1860.8000000000002</ele><time>2026-04-03T08:36:09.861Z</time></trkpt><trkpt lat="44.9672938" lon="6.8903722"><ele>1857.4</ele><time>2026-04-03T08:36:10.872Z</time></trkpt><trkpt lat="44.9674055" lon="6.8904012"><ele>1854.0</ele><time>2026-04-03T08:36:11.871Z</time></trkpt><trkpt lat="44.9675132" lon="6.8904333"><ele>1853.6</ele><time>2026-04-03T08:36:12.87Z</time></trkpt><trkpt lat="44.967619" lon="6.8904538"><ele>1853.2</ele><time>2026-04-03T08:36:13.87Z</time></trkpt><trkpt lat="44.9677246" lon="6.8904839"><ele>1852.7999999999997</ele><time>2026-04-03T08:36:14.873Z</time></trkpt><trkpt lat="44.967827" lon="6.8905289"><ele>1852.3999999999999</ele><time>2026-04-03T08:36:15.861Z</time></trkpt><trkpt lat="44.9679166" lon="6.890591"><ele>1852.0</ele><time>2026-04-03T08:36:16.864Z</time></trkpt><trkpt lat="44.9679972" lon="6.8906642"><ele>1852.0000000000002</ele><time>2026-04-03T08:36:17.861Z</time></trkpt><trkpt lat="44.9680593" lon="6.8907527"><ele>1852.0</ele><time>2026-04-03T08:36:18.859Z</time></trkpt><trkpt lat="44.9681137" lon="6.8908415"><ele>1852.0</ele><time>2026-04-03T08:36:19.87Z</time></trkpt><trkpt lat="44.9681647" lon="6.8909212"><ele>1852.0</ele><time>2026-04-03T08:36:20.862Z</time></trkpt><trkpt lat="44.968215" lon="6.8909959"><ele>1852.0000000000002</ele><time>2026-04-03T08:36:21.869Z</time></trkpt><trkpt lat="44.9682763" lon="6.8910546"><ele>1852.0</ele><time>2026-04-03T08:36:22.863Z</time></trkpt><trkpt lat="44.9683442" lon="6.8910888"><ele>1851.5714285714284</ele><time>2026-04-03T08:36:23.865Z</time></trkpt><trkpt lat="44.9684209" lon="6.8910695"><ele>1851.1428571428569</ele><time>2026-04-03T08:36:25.858Z</time></trkpt><trkpt lat="44.9684629" lon="6.8909795"><ele>1850.7142857142858</ele><time>2026-04-03T08:36:28.871Z</time></trkpt><trkpt lat="44.9685026" lon="6.8908676"><ele>1850.2857142857142</ele><time>2026-04-03T08:36:31.874Z</time></trkpt><trkpt lat="44.9685357" lon="6.8907765"><ele>1849.857142857143</ele><time>2026-04-03T08:36:34.862Z</time></trkpt><trkpt lat="44.9685769" lon="6.8906998"><ele>1849.4285714285716</ele><time>2026-04-03T08:36:38.862Z</time></trkpt><trkpt lat="44.9686042" lon="6.8906161"><ele>1849.0000000000002</ele><time>2026-04-03T08:36:42.859Z</time></trkpt><trkpt lat="44.9686259" lon="6.8905256"><ele>1849.0</ele><time>2026-04-03T08:36:49.856Z</time></trkpt><trkpt lat="44.968601" lon="6.8904411"><ele>1849.0</ele><time>2026-04-03T08:36:59.862Z</time></trkpt><trkpt lat="44.9685328" lon="6.8904724"><ele>1849.0</ele><time>2026-04-03T08:38:54.862Z</time></trkpt><trkpt lat="44.9684712" lon="6.89061"><ele>1849.0</ele><time>2026-04-03T08:38:56.869Z</time></trkpt><trkpt lat="44.968421" lon="6.8907404"><ele>1849.0</ele><time>2026-04-03T08:38:57.865Z</time></trkpt><trkpt lat="44.9683568" lon="6.890874"><ele>1850.6666666666667</ele><time>2026-04-03T08:38:59.861Z</time></trkpt><trkpt lat="44.9682999" lon="6.8909944"><ele>1852.3333333333335</ele><time>2026-04-03T08:39:01.862Z</time></trkpt><trkpt lat="44.9682521" lon="6.8911002"><ele>1854.0</ele><time>2026-04-03T08:39:03.864Z</time></trkpt><trkpt lat="44.9682028" lon="6.8912081"><ele>1855.6666666666665</ele><time>2026-04-03T08:39:05.872Z</time></trkpt><trkpt lat="44.9681561" lon="6.8913045"><ele>1857.3333333333333</ele><time>2026-04-03T08:39:07.855Z</time></trkpt><trkpt lat="44.9681133" lon="6.8914022"><ele>1859.0</ele><time>2026-04-03T08:39:09.87Z</time></trkpt><trkpt lat="44.9680691" lon="6.8915106"><ele>1858.9999999999998</ele><time>2026-04-03T08:39:11.867Z</time></trkpt><trkpt lat="44.9680231" lon="6.8916132"><ele>1859.0</ele><time>2026-04-03T08:39:13.869Z</time></trkpt><trkpt lat="44.9679781" lon="6.8917115"><ele>1859.0</ele><time>2026-04-03T08:39:15.862Z</time></trkpt><trkpt lat="44.9679386" lon="6.891804"><ele>1859.0</ele><time>2026-04-03T08:39:17.868Z</time></trkpt><trkpt lat="44.9678911" lon="6.8919142"><ele>1858.9999999999998</ele><time>2026-04-03T08:39:19.861Z</time></trkpt><trkpt lat="44.9678446" lon="6.8920177"><ele>1859.0</ele><time>2026-04-03T08:39:21.875Z</time></trkpt><trkpt lat="44.9677977" lon="6.8921191"><ele>1863.3333333333333</ele><time>2026-04-03T08:39:23.858Z</time></trkpt><trkpt lat="44.9677502" lon="6.8922187"><ele>1867.6666666666665</ele><time>2026-04-03T08:39:25.864Z</time></trkpt><trkpt lat="44.967704" lon="6.8923202"><ele>1872.0</ele><time>2026-04-03T08:39:27.853Z</time></trkpt><trkpt lat="44.9676555" lon="6.8924227"><ele>1876.3333333333335</ele><time>2026-04-03T08:39:29.864Z</time></trkpt><trkpt lat="44.9676205" lon="6.8925099"><ele>1880.6666666666667</ele><time>2026-04-03T08:39:31.875Z</time></trkpt><trkpt lat="44.9675737" lon="6.8926038"><ele>1885.0</ele><time>2026-04-03T08:39:33.854Z</time></trkpt><trkpt lat="44.9675308" lon="6.8927089"><ele>1891.8333333333335</ele><time>2026-04-03T08:39:35.858Z</time></trkpt><trkpt lat="44.9674925" lon="6.8927952"><ele>1898.6666666666667</ele><time>2026-04-03T08:39:37.874Z</time></trkpt><trkpt lat="44.9674478" lon="6.8928938"><ele>1905.5</ele><time>2026-04-03T08:39:39.858Z</time></trkpt><trkpt lat="44.9674016" lon="6.8929868"><ele>1912.3333333333335</ele><time>2026-04-03T08:39:41.869Z</time></trkpt><trkpt lat="44.9673438" lon="6.8930755"><ele>1919.1666666666667</ele><time>2026-04-03T08:39:43.861Z</time></trkpt><trkpt lat="44.9672944" lon="6.8931627"><ele>1926.0</ele><time>2026-04-03T08:39:45.853Z</time></trkpt><trkpt lat="44.9672593" lon="6.8932638"><ele>1926.0</ele><time>2026-04-03T08:39:47.864Z</time></trkpt><trkpt lat="44.9672403" lon="6.8933619"><ele>1926.0</ele><time>2026-04-03T08:39:49.858Z</time></trkpt><trkpt lat="44.967208" lon="6.8934484"><ele>1926.0</ele><time>2026-04-03T08:39:51.858Z</time></trkpt><trkpt lat="44.967144" lon="6.8935525"><ele>1926.0</ele><time>2026-04-03T08:39:53.872Z</time></trkpt><trkpt lat="44.9671026" lon="6.8936525"><ele>1926.0</ele><time>2026-04-03T08:39:55.865Z</time></trkpt><trkpt lat="44.967064" lon="6.8937373"><ele>1926.0</ele><time>2026-04-03T08:39:57.861Z</time></trkpt><trkpt lat="44.9670184" lon="6.8938421"><ele>1929.8333333333333</ele><time>2026-04-03T08:39:59.865Z</time></trkpt><trkpt lat="44.9669756" lon="6.8939386"><ele>1933.6666666666665</ele><time>2026-04-03T08:40:01.867Z</time></trkpt><trkpt lat="44.9669355" lon="6.894034"><ele>1937.5</ele><time>2026-04-03T08:40:03.863Z</time></trkpt><trkpt lat="44.9668971" lon="6.8941261"><ele>1941.3333333333333</ele><time>2026-04-03T08:40:05.865Z</time></trkpt><trkpt lat="44.9668597" lon="6.8942066"><ele>1945.1666666666665</ele><time>2026-04-03T08:40:07.866Z</time></trkpt><trkpt lat="44.9668219" lon="6.894285"><ele>1949.0</ele><time>2026-04-03T08:40:09.867Z</time></trkpt><trkpt lat="44.9667618" lon="6.8944035"><ele>1951.3333333333333</ele><time>2026-04-03T08:40:12.862Z</time></trkpt><trkpt lat="44.9667208" lon="6.8945055"><ele>1953.6666666666665</ele><time>2026-04-03T08:40:14.865Z</time></trkpt><trkpt lat="44.9666831" lon="6.8946053"><ele>1956.0</ele><time>2026-04-03T08:40:16.858Z</time></trkpt><trkpt lat="44.9666376" lon="6.8947168"><ele>1958.3333333333335</ele><time>2026-04-03T08:40:18.876Z</time></trkpt><trkpt lat="44.9665947" lon="6.8948212"><ele>1960.6666666666667</ele><time>2026-04-03T08:40:20.86Z</time></trkpt><trkpt lat="44.9665495" lon="6.894919"><ele>1963.0</ele><time>2026-04-03T08:40:22.871Z</time></trkpt><trkpt lat="44.9665038" lon="6.8950255"><ele>1970.8333333333335</ele><time>2026-04-03T08:40:24.865Z</time></trkpt><trkpt lat="44.9664593" lon="6.895127"><ele>1978.6666666666667</ele><time>2026-04-03T08:40:26.863Z</time></trkpt><trkpt lat="44.9664171" lon="6.8952221"><ele>1986.5</ele><time>2026-04-03T08:40:28.867Z</time></trkpt><trkpt lat="44.9663724" lon="6.8953211"><ele>1994.3333333333335</ele><time>2026-04-03T08:40:30.861Z</time></trkpt><trkpt lat="44.9663281" lon="6.8954209"><ele>2002.1666666666667</ele><time>2026-04-03T08:40:32.863Z</time></trkpt><trkpt lat="44.9662875" lon="6.8955134"><ele>2010.0</ele><time>2026-04-03T08:40:34.867Z</time></trkpt><trkpt lat="44.9662446" lon="6.8956127"><ele>2010.0</ele><time>2026-04-03T08:40:36.865Z</time></trkpt><trkpt lat="44.966201" lon="6.8957126"><ele>2010.0</ele><time>2026-04-03T08:40:38.865Z</time></trkpt><trkpt lat="44.9661598" lon="6.8958043"><ele>2010.0</ele><time>2026-04-03T08:40:40.861Z</time></trkpt><trkpt lat="44.9661147" lon="6.8959039"><ele>2010.0</ele><time>2026-04-03T08:40:42.868Z</time></trkpt><trkpt lat="44.9660691" lon="6.8960019"><ele>2010.0</ele><time>2026-04-03T08:40:44.86Z</time></trkpt><trkpt lat="44.966027" lon="6.8960917"><ele>2010.0</ele><time>2026-04-03T08:40:46.865Z</time></trkpt><trkpt lat="44.9659831" lon="6.8961881"><ele>2013.3333333333333</ele><time>2026-04-03T08:40:48.856Z</time></trkpt><trkpt lat="44.9659359" lon="6.8962911"><ele>2016.6666666666665</ele><time>2026-04-03T08:40:50.865Z</time></trkpt><trkpt lat="44.9658926" lon="6.8963865"><ele>2020.0</ele><time>2026-04-03T08:40:52.859Z</time></trkpt><trkpt lat="44.9658514" lon="6.8964807"><ele>2023.3333333333333</ele><time>2026-04-03T08:40:54.86Z</time></trkpt><trkpt lat="44.9658075" lon="6.8965773"><ele>2026.6666666666665</ele><time>2026-04-03T08:40:56.869Z</time></trkpt><trkpt lat="44.9657649" lon="6.8966712"><ele>2030.0</ele><time>2026-04-03T08:40:58.86Z</time></trkpt><trkpt lat="44.9657231" lon="6.8967632"><ele>2036.8333333333333</ele><time>2026-04-03T08:41:00.876Z</time></trkpt><trkpt lat="44.9656788" lon="6.89686"><ele>2043.6666666666665</ele><time>2026-04-03T08:41:02.867Z</time></trkpt><trkpt lat="44.9656325" lon="6.8969595"><ele>2050.5</ele><time>2026-04-03T08:41:04.862Z</time></trkpt><trkpt lat="44.965591" lon="6.8970495"><ele>2057.3333333333335</ele><time>2026-04-03T08:41:06.866Z</time></trkpt><trkpt lat="44.965543" lon="6.8971485"><ele>2064.166666666667</ele><time>2026-04-03T08:41:08.862Z</time></trkpt><trkpt lat="44.9654987" lon="6.8972467"><ele>2071.0</ele><time>2026-04-03T08:41:10.864Z</time></trkpt><trkpt lat="44.9654585" lon="6.8973393"><ele>2071.0</ele><time>2026-04-03T08:41:12.854Z</time></trkpt><trkpt lat="44.9654134" lon="6.8974411"><ele>2071.0</ele><time>2026-04-03T08:41:14.875Z</time></trkpt><trkpt lat="44.9653701" lon="6.897538"><ele>2071.0</ele><time>2026-04-03T08:41:16.861Z</time></trkpt><trkpt lat="44.9653279" lon="6.897631"><ele>2071.0</ele><time>2026-04-03T08:41:18.868Z</time></trkpt><trkpt lat="44.9652823" lon="6.8977298"><ele>2071.0</ele><time>2026-04-03T08:41:20.862Z</time></trkpt><trkpt lat="44.9652387" lon="6.8978271"><ele>2071.0</ele><time>2026-04-03T08:41:22.873Z</time></trkpt><trkpt lat="44.9651984" lon="6.8979193"><ele>2075.5</ele><time>2026-04-03T08:41:24.871Z</time></trkpt><trkpt lat="44.9651504" lon="6.8980167"><ele>2080.0</ele><time>2026-04-03T08:41:26.869Z</time></trkpt><trkpt lat="44.9651098" lon="6.8981084"><ele>2084.5</ele><time>2026-04-03T08:41:28.867Z</time></trkpt><trkpt lat="44.9650681" lon="6.8982011"><ele>2089.0</ele><time>2026-04-03T08:41:30.867Z</time></trkpt><trkpt lat="44.9650277" lon="6.8982959"><ele>2093.5</ele><time>2026-04-03T08:41:32.875Z</time></trkpt><trkpt lat="44.9649855" lon="6.8983908"><ele>2098.0</ele><time>2026-04-03T08:41:34.872Z</time></trkpt><trkpt lat="44.9649459" lon="6.8984836"><ele>2104.3333333333335</ele><time>2026-04-03T08:41:36.854Z</time></trkpt><trkpt lat="44.9649062" lon="6.8985751"><ele>2110.666666666667</ele><time>2026-04-03T08:41:38.865Z</time></trkpt><trkpt lat="44.9648658" lon="6.8986689"><ele>2117.0</ele><time>2026-04-03T08:41:40.859Z</time></trkpt><trkpt lat="44.9648242" lon="6.8987573"><ele>2123.3333333333335</ele><time>2026-04-03T08:41:42.869Z</time></trkpt><trkpt lat="44.9647771" lon="6.8988594"><ele>2129.6666666666665</ele><time>2026-04-03T08:41:44.865Z</time></trkpt><trkpt lat="44.9647323" lon="6.8989571"><ele>2136.0</ele><time>2026-04-03T08:41:46.862Z</time></trkpt><trkpt lat="44.9646857" lon="6.8990556"><ele>2136.0</ele><time>2026-04-03T08:41:48.853Z</time></trkpt><trkpt lat="44.964642" lon="6.8991513"><ele>2136.0</ele><time>2026-04-03T08:41:50.858Z</time></trkpt><trkpt lat="44.9645986" lon="6.8992481"><ele>2136.0</ele><time>2026-04-03T08:41:52.864Z</time></trkpt><trkpt lat="44.9645549" lon="6.8993471"><ele>2136.0</ele><time>2026-04-03T08:41:54.856Z</time></trkpt><trkpt lat="44.9645133" lon="6.8994406"><ele>2136.0</ele><time>2026-04-03T08:41:56.858Z</time></trkpt><trkpt lat="44.964471" lon="6.8995401"><ele>2136.0</ele><time>2026-04-03T08:41:58.864Z</time></trkpt><trkpt lat="44.9644278" lon="6.8996403"><ele>2136.5</ele><time>2026-04-03T08:42:00.864Z</time></trkpt><trkpt lat="44.9643827" lon="6.8997403"><ele>2137.0</ele><time>2026-04-03T08:42:02.86Z</time></trkpt><trkpt lat="44.9643304" lon="6.8998414"><ele>2137.5</ele><time>2026-04-03T08:42:04.869Z</time></trkpt><trkpt lat="44.9642844" lon="6.8999371"><ele>2138.0</ele><time>2026-04-03T08:42:06.854Z</time></trkpt><trkpt lat="44.9642389" lon="6.9000337"><ele>2138.5</ele><time>2026-04-03T08:42:08.855Z</time></trkpt><trkpt lat="44.964195" lon="6.9001366"><ele>2139.0</ele><time>2026-04-03T08:42:10.868Z</time></trkpt><trkpt lat="44.9641474" lon="6.9002368"><ele>2139.0</ele><time>2026-04-03T08:42:12.866Z</time></trkpt><trkpt lat="44.9641059" lon="6.9003342"><ele>2139.0</ele><time>2026-04-03T08:42:14.864Z</time></trkpt><trkpt lat="44.9640614" lon="6.9004327"><ele>2139.0</ele><time>2026-04-03T08:42:16.866Z</time></trkpt><trkpt lat="44.9640136" lon="6.900543"><ele>2139.0</ele><time>2026-04-03T08:42:18.865Z</time></trkpt><trkpt lat="44.9639665" lon="6.9006421"><ele>2139.0</ele><time>2026-04-03T08:42:20.87Z</time></trkpt><trkpt lat="44.96392" lon="6.90075"><ele>2139.0</ele><time>2026-04-03T08:42:22.862Z</time></trkpt><trkpt lat="44.9638714" lon="6.9008562"><ele>2138.8333333333335</ele><time>2026-04-03T08:42:24.867Z</time></trkpt><trkpt lat="44.9638267" lon="6.900954"><ele>2138.6666666666665</ele><time>2026-04-03T08:42:26.871Z</time></trkpt><trkpt lat="44.963783" lon="6.9010596"><ele>2138.5</ele><time>2026-04-03T08:42:28.863Z</time></trkpt><trkpt lat="44.9637363" lon="6.9011609"><ele>2138.333333333333</ele><time>2026-04-03T08:42:30.861Z</time></trkpt><trkpt lat="44.9636895" lon="6.9012613"><ele>2138.1666666666665</ele><time>2026-04-03T08:42:32.865Z</time></trkpt><trkpt lat="44.9636441" lon="6.9013635"><ele>2138.0</ele><time>2026-04-03T08:42:34.864Z</time></trkpt><trkpt lat="44.9635981" lon="6.901469"><ele>2138.0</ele><time>2026-04-03T08:42:36.862Z</time></trkpt><trkpt lat="44.963552" lon="6.9015747"><ele>2138.0</ele><time>2026-04-03T08:42:38.866Z</time></trkpt><trkpt lat="44.9635047" lon="6.9016784"><ele>2138.0</ele><time>2026-04-03T08:42:40.875Z</time></trkpt><trkpt lat="44.9634576" lon="6.9017831"><ele>2138.0</ele><time>2026-04-03T08:42:42.865Z</time></trkpt><trkpt lat="44.9634118" lon="6.9018865"><ele>2138.0</ele><time>2026-04-03T08:42:44.868Z</time></trkpt><trkpt lat="44.9633671" lon="6.9019886"><ele>2138.0</ele><time>2026-04-03T08:42:46.866Z</time></trkpt><trkpt lat="44.9633202" lon="6.9020914"><ele>2141.0</ele><time>2026-04-03T08:42:48.864Z</time></trkpt><trkpt lat="44.9632748" lon="6.9021915"><ele>2144.0</ele><time>2026-04-03T08:42:50.873Z</time></trkpt><trkpt lat="44.9632303" lon="6.9022898"><ele>2147.0</ele><time>2026-04-03T08:42:52.868Z</time></trkpt><trkpt lat="44.9631852" lon="6.902387"><ele>2150.0</ele><time>2026-04-03T08:42:54.864Z</time></trkpt><trkpt lat="44.9631392" lon="6.9024881"><ele>2153.0</ele><time>2026-04-03T08:42:56.858Z</time></trkpt><trkpt lat="44.9630945" lon="6.9025873"><ele>2156.0</ele><time>2026-04-03T08:42:58.867Z</time></trkpt><trkpt lat="44.9630482" lon="6.9026892"><ele>2158.1666666666665</ele><time>2026-04-03T08:43:00.868Z</time></trkpt><trkpt lat="44.9630023" lon="6.9027907"><ele>2160.333333333333</ele><time>2026-04-03T08:43:02.86Z</time></trkpt><trkpt lat="44.9629571" lon="6.9028904"><ele>2162.5</ele><time>2026-04-03T08:43:04.872Z</time></trkpt><trkpt lat="44.9629118" lon="6.9029909"><ele>2164.6666666666665</ele><time>2026-04-03T08:43:06.853Z</time></trkpt><trkpt lat="44.9628684" lon="6.9030873"><ele>2166.8333333333335</ele><time>2026-04-03T08:43:08.868Z</time></trkpt><trkpt lat="44.9628245" lon="6.9031822"><ele>2169.0</ele><time>2026-04-03T08:43:10.867Z</time></trkpt><trkpt lat="44.9627808" lon="6.903278"><ele>2169.0</ele><time>2026-04-03T08:43:12.864Z</time></trkpt><trkpt lat="44.9627368" lon="6.9033732"><ele>2169.0</ele><time>2026-04-03T08:43:14.858Z</time></trkpt><trkpt lat="44.9626943" lon="6.9034663"><ele>2169.0</ele><time>2026-04-03T08:43:16.865Z</time></trkpt><trkpt lat="44.962652" lon="6.9035626"><ele>2169.0</ele><time>2026-04-03T08:43:18.863Z</time></trkpt><trkpt lat="44.9626102" lon="6.9036588"><ele>2169.0</ele><time>2026-04-03T08:43:20.862Z</time></trkpt><trkpt lat="44.9625688" lon="6.9037526"><ele>2169.0</ele><time>2026-04-03T08:43:22.863Z</time></trkpt><trkpt lat="44.9625239" lon="6.9038577"><ele>2175.0</ele><time>2026-04-03T08:43:24.872Z</time></trkpt><trkpt lat="44.9624806" lon="6.9039573"><ele>2181.0</ele><time>2026-04-03T08:43:26.864Z</time></trkpt><trkpt lat="44.9624355" lon="6.9040587"><ele>2187.0</ele><time>2026-04-03T08:43:28.869Z</time></trkpt><trkpt lat="44.9623923" lon="6.9041537"><ele>2193.0</ele><time>2026-04-03T08:43:30.863Z</time></trkpt><trkpt lat="44.9623472" lon="6.9042505"><ele>2199.0</ele><time>2026-04-03T08:43:32.86Z</time></trkpt><trkpt lat="44.9623018" lon="6.9043478"><ele>2205.0</ele><time>2026-04-03T08:43:34.866Z</time></trkpt><trkpt lat="44.9622596" lon="6.9044417"><ele>2208.3333333333335</ele><time>2026-04-03T08:43:36.876Z</time></trkpt><trkpt lat="44.9622151" lon="6.9045396"><ele>2211.6666666666665</ele><time>2026-04-03T08:43:38.864Z</time></trkpt><trkpt lat="44.9621716" lon="6.9046368"><ele>2215.0</ele><time>2026-04-03T08:43:40.87Z</time></trkpt><trkpt lat="44.9621286" lon="6.9047291"><ele>2218.333333333333</ele><time>2026-04-03T08:43:42.859Z</time></trkpt><trkpt lat="44.9620858" lon="6.904825"><ele>2221.6666666666665</ele><time>2026-04-03T08:43:44.86Z</time></trkpt><trkpt lat="44.9620416" lon="6.9049195"><ele>2225.0</ele><time>2026-04-03T08:43:46.861Z</time></trkpt><trkpt lat="44.961998" lon="6.905014"><ele>2228.0</ele><time>2026-04-03T08:43:48.863Z</time></trkpt><trkpt lat="44.9619548" lon="6.9051091"><ele>2231.0</ele><time>2026-04-03T08:43:50.866Z</time></trkpt><trkpt lat="44.9619134" lon="6.9052037"><ele>2234.0</ele><time>2026-04-03T08:43:52.871Z</time></trkpt><trkpt lat="44.9618721" lon="6.9052975"><ele>2237.0</ele><time>2026-04-03T08:43:54.857Z</time></trkpt><trkpt lat="44.9618308" lon="6.9053897"><ele>2240.0</ele><time>2026-04-03T08:43:56.861Z</time></trkpt><trkpt lat="44.9617857" lon="6.9054911"><ele>2243.0</ele><time>2026-04-03T08:43:58.87Z</time></trkpt><trkpt lat="44.961743" lon="6.9055871"><ele>2243.0</ele><time>2026-04-03T08:44:00.866Z</time></trkpt><trkpt lat="44.9616989" lon="6.9056846"><ele>2243.0</ele><time>2026-04-03T08:44:02.865Z</time></trkpt><trkpt lat="44.9616557" lon="6.905782"><ele>2243.0</ele><time>2026-04-03T08:44:04.872Z</time></trkpt><trkpt lat="44.961612" lon="6.9058776"><ele>2243.0</ele><time>2026-04-03T08:44:06.861Z</time></trkpt><trkpt lat="44.9615667" lon="6.9059764"><ele>2243.0</ele><time>2026-04-03T08:44:08.871Z</time></trkpt><trkpt lat="44.9615208" lon="6.9060716"><ele>2243.0</ele><time>2026-04-03T08:44:10.872Z</time></trkpt><trkpt lat="44.9614756" lon="6.906172"><ele>2248.833333333333</ele><time>2026-04-03T08:44:12.862Z</time></trkpt><trkpt lat="44.9614335" lon="6.9062739"><ele>2254.6666666666665</ele><time>2026-04-03T08:44:14.865Z</time></trkpt><trkpt lat="44.961389" lon="6.9063773"><ele>2260.5</ele><time>2026-04-03T08:44:16.862Z</time></trkpt><trkpt lat="44.961345" lon="6.9064809"><ele>2266.3333333333335</ele><time>2026-04-03T08:44:18.863Z</time></trkpt><trkpt lat="44.9613017" lon="6.9065779"><ele>2272.166666666667</ele><time>2026-04-03T08:44:20.866Z</time></trkpt><trkpt lat="44.961259" lon="6.9066733"><ele>2278.0</ele><time>2026-04-03T08:44:22.866Z</time></trkpt><trkpt lat="44.9612155" lon="6.9067702"><ele>2280.5</ele><time>2026-04-03T08:44:24.872Z</time></trkpt><trkpt lat="44.9611726" lon="6.9068668"><ele>2283.0</ele><time>2026-04-03T08:44:26.863Z</time></trkpt><trkpt lat="44.9611304" lon="6.9069652"><ele>2285.5</ele><time>2026-04-03T08:44:28.859Z</time></trkpt><trkpt lat="44.9610869" lon="6.9070626"><ele>2288.0</ele><time>2026-04-03T08:44:30.86Z</time></trkpt><trkpt lat="44.9610427" lon="6.9071585"><ele>2290.5</ele><time>2026-04-03T08:44:32.86Z</time></trkpt><trkpt lat="44.9609993" lon="6.9072525"><ele>2293.0</ele><time>2026-04-03T08:44:34.862Z</time></trkpt><trkpt lat="44.9609573" lon="6.9073467"><ele>2293.0</ele><time>2026-04-03T08:44:36.863Z</time></trkpt><trkpt lat="44.9609121" lon="6.9074407"><ele>2293.0</ele><time>2026-04-03T08:44:38.872Z</time></trkpt><trkpt lat="44.9608701" lon="6.9075364"><ele>2293.0</ele><time>2026-04-03T08:44:40.859Z</time></trkpt><trkpt lat="44.9608273" lon="6.9076314"><ele>2293.0</ele><time>2026-04-03T08:44:42.861Z</time></trkpt><trkpt lat="44.9607827" lon="6.9077239"><ele>2293.0</ele><time>2026-04-03T08:44:44.861Z</time></trkpt><trkpt lat="44.9607395" lon="6.9078184"><ele>2293.0</ele><time>2026-04-03T08:44:46.871Z</time></trkpt><trkpt lat="44.9606967" lon="6.907914"><ele>2299.166666666667</ele><time>2026-04-03T08:44:48.865Z</time></trkpt><trkpt lat="44.9606549" lon="6.9080077"><ele>2305.3333333333335</ele><time>2026-04-03T08:44:50.854Z</time></trkpt><trkpt lat="44.9606131" lon="6.9081019"><ele>2311.5</ele><time>2026-04-03T08:44:52.868Z</time></trkpt><trkpt lat="44.9605705" lon="6.9082006"><ele>2317.6666666666665</ele><time>2026-04-03T08:44:54.873Z</time></trkpt><trkpt lat="44.9605225" lon="6.9083048"><ele>2323.833333333333</ele><time>2026-04-03T08:44:56.854Z</time></trkpt><trkpt lat="44.9604793" lon="6.9083993"><ele>2330.0</ele><time>2026-04-03T08:44:58.876Z</time></trkpt><trkpt lat="44.9604329" lon="6.9084969"><ele>2332.833333333333</ele><time>2026-04-03T08:45:00.867Z</time></trkpt><trkpt lat="44.9603861" lon="6.9085951"><ele>2335.6666666666665</ele><time>2026-04-03T08:45:02.86Z</time></trkpt><trkpt lat="44.9603418" lon="6.9086916"><ele>2338.5</ele><time>2026-04-03T08:45:04.877Z</time></trkpt><trkpt lat="44.960298" lon="6.9087914"><ele>2341.3333333333335</ele><time>2026-04-03T08:45:06.855Z</time></trkpt><trkpt lat="44.9602512" lon="6.9088865"><ele>2344.166666666667</ele><time>2026-04-03T08:45:08.864Z</time></trkpt><trkpt lat="44.9602063" lon="6.9089823"><ele>2347.0</ele><time>2026-04-03T08:45:10.86Z</time></trkpt><trkpt lat="44.9601645" lon="6.9090788"><ele>2347.0</ele><time>2026-04-03T08:45:12.871Z</time></trkpt><trkpt lat="44.9601219" lon="6.9091749"><ele>2347.0</ele><time>2026-04-03T08:45:14.875Z</time></trkpt><trkpt lat="44.9600762" lon="6.9092765"><ele>2347.0</ele><time>2026-04-03T08:45:16.868Z</time></trkpt><trkpt lat="44.9600316" lon="6.9093725"><ele>2347.0</ele><time>2026-04-03T08:45:18.868Z</time></trkpt><trkpt lat="44.9599885" lon="6.9094671"><ele>2347.0</ele><time>2026-04-03T08:45:20.866Z</time></trkpt><trkpt lat="44.9599458" lon="6.9095587"><ele>2347.0</ele><time>2026-04-03T08:45:22.872Z</time></trkpt><trkpt lat="44.9599007" lon="6.9096497"><ele>2355.166666666667</ele><time>2026-04-03T08:45:24.875Z</time></trkpt><trkpt lat="44.9598571" lon="6.9097439"><ele>2363.3333333333335</ele><time>2026-04-03T08:45:26.875Z</time></trkpt><trkpt lat="44.9598106" lon="6.9098444"><ele>2371.5</ele><time>2026-04-03T08:45:28.868Z</time></trkpt><trkpt lat="44.9597669" lon="6.9099458"><ele>2379.6666666666665</ele><time>2026-04-03T08:45:30.876Z</time></trkpt><trkpt lat="44.9597239" lon="6.9100438"><ele>2387.833333333333</ele><time>2026-04-03T08:45:32.862Z</time></trkpt><trkpt lat="44.9596816" lon="6.9101411"><ele>2396.0</ele><time>2026-04-03T08:45:34.854Z</time></trkpt><trkpt lat="44.9596379" lon="6.9102373"><ele>2400.0</ele><time>2026-04-03T08:45:36.867Z</time></trkpt><trkpt lat="44.9595923" lon="6.9103349"><ele>2404.0</ele><time>2026-04-03T08:45:38.873Z</time></trkpt><trkpt lat="44.9595475" lon="6.9104313"><ele>2408.0</ele><time>2026-04-03T08:45:40.868Z</time></trkpt><trkpt lat="44.9595048" lon="6.9105283"><ele>2412.0</ele><time>2026-04-03T08:45:42.864Z</time></trkpt><trkpt lat="44.9594603" lon="6.9106146"><ele>2416.0</ele><time>2026-04-03T08:45:44.875Z</time></trkpt><trkpt lat="44.9594155" lon="6.9107172"><ele>2420.0</ele><time>2026-04-03T08:45:47.866Z</time></trkpt><trkpt lat="44.9593783" lon="6.9108023"><ele>2420.0</ele><time>2026-04-03T08:45:50.865Z</time></trkpt><trkpt lat="44.9593367" lon="6.9108966"><ele>2420.0</ele><time>2026-04-03T08:45:53.873Z</time></trkpt><trkpt lat="44.9592892" lon="6.911007"><ele>2420.0</ele><time>2026-04-03T08:45:56.865Z</time></trkpt><trkpt lat="44.959255" lon="6.9110849"><ele>2420.0</ele><time>2026-04-03T08:45:58.87Z</time></trkpt><trkpt lat="44.9592175" lon="6.9111695"><ele>2420.0</ele><time>2026-04-03T08:46:00.867Z</time></trkpt><trkpt lat="44.9591769" lon="6.9112601"><ele>2420.0</ele><time>2026-04-03T08:46:02.866Z</time></trkpt><trkpt lat="44.959134" lon="6.9113556"><ele>2426.833333333333</ele><time>2026-04-03T08:46:04.869Z</time></trkpt><trkpt lat="44.9590914" lon="6.9114484"><ele>2433.6666666666665</ele><time>2026-04-03T08:46:06.859Z</time></trkpt><trkpt lat="44.9590475" lon="6.9115429"><ele>2440.5</ele><time>2026-04-03T08:46:08.872Z</time></trkpt><trkpt lat="44.9590024" lon="6.9116389"><ele>2447.3333333333335</ele><time>2026-04-03T08:46:10.861Z</time></trkpt><trkpt lat="44.9589598" lon="6.9117335"><ele>2454.166666666667</ele><time>2026-04-03T08:46:12.869Z</time></trkpt><trkpt lat="44.9589186" lon="6.9118281"><ele>2461.0</ele><time>2026-04-03T08:46:14.868Z</time></trkpt><trkpt lat="44.9588747" lon="6.9119265"><ele>2464.666666666667</ele><time>2026-04-03T08:46:16.866Z</time></trkpt><trkpt lat="44.9588312" lon="6.9120261"><ele>2468.3333333333335</ele><time>2026-04-03T08:46:18.86Z</time></trkpt><trkpt lat="44.9587891" lon="6.9121204"><ele>2472.0</ele><time>2026-04-03T08:46:20.864Z</time></trkpt><trkpt lat="44.9587468" lon="6.9122168"><ele>2475.6666666666665</ele><time>2026-04-03T08:46:22.875Z</time></trkpt><trkpt lat="44.9587023" lon="6.912315"><ele>2479.333333333333</ele><time>2026-04-03T08:46:24.87Z</time></trkpt><trkpt lat="44.9586593" lon="6.9124145"><ele>2483.0</ele><time>2026-04-03T08:46:26.861Z</time></trkpt><trkpt lat="44.9586185" lon="6.9125113"><ele>2486.6666666666665</ele><time>2026-04-03T08:46:28.861Z</time></trkpt><trkpt lat="44.9585774" lon="6.9126035"><ele>2490.333333333333</ele><time>2026-04-03T08:46:30.869Z</time></trkpt><trkpt lat="44.9585358" lon="6.9126948"><ele>2494.0</ele><time>2026-04-03T08:46:32.868Z</time></trkpt><trkpt lat="44.958494" lon="6.9127852"><ele>2497.6666666666665</ele><time>2026-04-03T08:46:34.862Z</time></trkpt><trkpt lat="44.9584538" lon="6.9128768"><ele>2501.3333333333335</ele><time>2026-04-03T08:46:36.861Z</time></trkpt><trkpt lat="44.9584121" lon="6.9129612"><ele>2505.0</ele><time>2026-04-03T08:46:39.872Z</time></trkpt><trkpt lat="44.9583714" lon="6.9130449"><ele>2507.9999999999995</ele><time>2026-04-03T08:47:11.872Z</time></trkpt><trkpt lat="44.9583332" lon="6.9131298"><ele>2511.0</ele><time>2026-04-03T08:47:16.87Z</time></trkpt><trkpt lat="44.9582934" lon="6.9132244"><ele>2514.0</ele><time>2026-04-03T08:47:20.868Z</time></trkpt><trkpt lat="44.9582571" lon="6.9133123"><ele>2517.0</ele><time>2026-04-03T08:47:23.869Z</time></trkpt><trkpt lat="44.958213" lon="6.9134127"><ele>2520.0</ele><time>2026-04-03T08:47:26.857Z</time></trkpt><trkpt lat="44.9581774" lon="6.9134882"><ele>2522.9999999999995</ele><time>2026-04-03T08:47:28.869Z</time></trkpt><trkpt lat="44.9581393" lon="6.9135724"><ele>2526.0</ele><time>2026-04-03T08:47:30.864Z</time></trkpt><trkpt lat="44.9580999" lon="6.9136596"><ele>2526.5714285714284</ele><time>2026-04-03T08:47:32.862Z</time></trkpt><trkpt lat="44.9580579" lon="6.9137519"><ele>2527.142857142857</ele><time>2026-04-03T08:47:34.872Z</time></trkpt><trkpt lat="44.9580173" lon="6.9138395"><ele>2527.7142857142853</ele><time>2026-04-03T08:47:40.862Z</time></trkpt><trkpt lat="44.9580748" lon="6.9138939"><ele>2528.285714285714</ele><time>2026-04-03T08:48:00.863Z</time></trkpt><trkpt lat="44.9581404" lon="6.9138752"><ele>2528.857142857143</ele><time>2026-04-03T08:48:06.855Z</time></trkpt><trkpt lat="44.9582121" lon="6.9138439"><ele>2529.428571428571</ele><time>2026-04-03T08:48:10.865Z</time></trkpt><trkpt lat="44.9582877" lon="6.9138162"><ele>2530.0</ele><time>2026-04-03T08:48:15.875Z</time></trkpt><trkpt lat="44.9583545" lon="6.9137932"><ele>2527.2</ele><time>2026-04-03T08:48:19.876Z</time></trkpt><trkpt lat="44.9584024" lon="6.9137257"><ele>2524.4</ele><time>2026-04-03T08:48:54.864Z</time></trkpt><trkpt lat="44.9584881" lon="6.9136716"><ele>2521.6</ele><time>2026-04-03T08:48:56.856Z</time></trkpt><trkpt lat="44.9585465" lon="6.9136177"><ele>2518.8</ele><time>2026-04-03T08:48:57.877Z</time></trkpt><trkpt lat="44.9586107" lon="6.9135794"><ele>2516.0</ele><time>2026-04-03T08:48:58.866Z</time></trkpt><trkpt lat="44.9587239" lon="6.9134244"><ele>2514.1666666666665</ele><time>2026-04-03T08:49:00.872Z</time></trkpt><trkpt lat="44.9587887" lon="6.9133925"><ele>2512.333333333333</ele><time>2026-04-03T08:49:01.856Z</time></trkpt><trkpt lat="44.9588492" lon="6.913343"><ele>2510.5</ele><time>2026-04-03T08:49:02.865Z</time></trkpt><trkpt lat="44.9589034" lon="6.9132519"><ele>2508.6666666666665</ele><time>2026-04-03T08:49:03.872Z</time></trkpt><trkpt lat="44.9589768" lon="6.9132156"><ele>2506.8333333333335</ele><time>2026-04-03T08:49:04.869Z</time></trkpt><trkpt lat="44.9590513" lon="6.9131522"><ele>2505.0</ele><time>2026-04-03T08:49:05.867Z</time></trkpt><trkpt lat="44.9591477" lon="6.9130717"><ele>2501.8333333333335</ele><time>2026-04-03T08:49:06.869Z</time></trkpt><trkpt lat="44.9592355" lon="6.9130503"><ele>2498.6666666666665</ele><time>2026-04-03T08:49:07.875Z</time></trkpt><trkpt lat="44.9593248" lon="6.9130383"><ele>2495.5</ele><time>2026-04-03T08:49:08.864Z</time></trkpt><trkpt lat="44.9593878" lon="6.9129893"><ele>2492.333333333333</ele><time>2026-04-03T08:49:09.875Z</time></trkpt><trkpt lat="44.9593902" lon="6.9128893"><ele>2489.1666666666665</ele><time>2026-04-03T08:49:10.853Z</time></trkpt><trkpt lat="44.959356" lon="6.9127329"><ele>2486.0</ele><time>2026-04-03T08:49:12.866Z</time></trkpt><trkpt lat="44.9592977" lon="6.9125748"><ele>2485.5</ele><time>2026-04-03T08:49:14.861Z</time></trkpt><trkpt lat="44.9592665" lon="6.9124932"><ele>2485.0</ele><time>2026-04-03T08:49:15.861Z</time></trkpt><trkpt lat="44.959234" lon="6.9124155"><ele>2484.5</ele><time>2026-04-03T08:49:16.862Z</time></trkpt><trkpt lat="44.9592" lon="6.9123318"><ele>2484.0</ele><time>2026-04-03T08:49:18.859Z</time></trkpt><trkpt lat="44.9591684" lon="6.9122332"><ele>2483.5</ele><time>2026-04-03T08:49:27.87Z</time></trkpt><trkpt lat="44.9591386" lon="6.9121285"><ele>2483.0</ele><time>2026-04-03T08:49:29.87Z</time></trkpt><trkpt lat="44.9592086" lon="6.9119877"><ele>2480.0</ele><time>2026-04-03T08:49:31.866Z</time></trkpt><trkpt lat="44.9593005" lon="6.9119376"><ele>2477.0</ele><time>2026-04-03T08:49:32.865Z</time></trkpt><trkpt lat="44.9593791" lon="6.9118711"><ele>2474.0</ele><time>2026-04-03T08:49:33.864Z</time></trkpt><trkpt lat="44.9594321" lon="6.9117803"><ele>2471.0</ele><time>2026-04-03T08:49:34.865Z</time></trkpt><trkpt lat="44.959332" lon="6.9116186"><ele>2468.0</ele><time>2026-04-03T08:49:35.874Z</time></trkpt><trkpt lat="44.9592899" lon="6.9115011"><ele>2465.6666666666665</ele><time>2026-04-03T08:49:36.866Z</time></trkpt><trkpt lat="44.959135" lon="6.9113408"><ele>2463.3333333333335</ele><time>2026-04-03T08:49:37.852Z</time></trkpt><trkpt lat="44.9590782" lon="6.911217"><ele>2461.0</ele><time>2026-04-03T08:49:38.868Z</time></trkpt><trkpt lat="44.9591662" lon="6.9110007"><ele>2455.0</ele><time>2026-04-03T08:49:39.857Z</time></trkpt><trkpt lat="44.9593894" lon="6.9109904"><ele>2449.0</ele><time>2026-04-03T08:49:40.865Z</time></trkpt><trkpt lat="44.9594824" lon="6.9108613"><ele>2443.0</ele><time>2026-04-03T08:49:41.866Z</time></trkpt><trkpt lat="44.9595853" lon="6.910755"><ele>2437.25</ele><time>2026-04-03T08:49:42.866Z</time></trkpt><trkpt lat="44.9596299" lon="6.9106729"><ele>2431.5</ele><time>2026-04-03T08:49:43.869Z</time></trkpt><trkpt lat="44.9596511" lon="6.910507"><ele>2425.75</ele><time>2026-04-03T08:49:44.859Z</time></trkpt><trkpt lat="44.9596168" lon="6.9103309"><ele>2420.0</ele><time>2026-04-03T08:49:45.852Z</time></trkpt><trkpt lat="44.9594606" lon="6.9103301"><ele>2420.0</ele><time>2026-04-03T08:49:46.857Z</time></trkpt><trkpt lat="44.9593904" lon="6.9102208"><ele>2420.0</ele><time>2026-04-03T08:49:48.863Z</time></trkpt><trkpt lat="44.9594126" lon="6.9101113"><ele>2420.0</ele><time>2026-04-03T08:49:50.871Z</time></trkpt><trkpt lat="44.959418" lon="6.9100172"><ele>2420.0</ele><time>2026-04-03T08:49:51.869Z</time></trkpt><trkpt lat="44.9594505" lon="6.9099233"><ele>2420.0</ele><time>2026-04-03T08:49:52.87Z</time></trkpt><trkpt lat="44.9594404" lon="6.9097812"><ele>2420.0</ele><time>2026-04-03T08:49:54.866Z</time></trkpt><trkpt lat="44.9593584" lon="6.9096785"><ele>2418.714285714286</ele><time>2026-04-03T08:49:56.866Z</time></trkpt><trkpt lat="44.9593018" lon="6.9096282"><ele>2417.4285714285716</ele><time>2026-04-03T08:49:57.868Z</time></trkpt><trkpt lat="44.9592447" lon="6.9095671"><ele>2416.142857142857</ele><time>2026-04-03T08:49:58.858Z</time></trkpt><trkpt lat="44.9591817" lon="6.9095043"><ele>2414.857142857143</ele><time>2026-04-03T08:49:59.862Z</time></trkpt><trkpt lat="44.9591231" lon="6.9094518"><ele>2413.571428571429</ele><time>2026-04-03T08:50:00.873Z</time></trkpt><trkpt lat="44.9591237" lon="6.9093547"><ele>2412.285714285714</ele><time>2026-04-03T08:50:02.857Z</time></trkpt><trkpt lat="44.9591624" lon="6.9092778"><ele>2411.0</ele><time>2026-04-03T08:50:55.854Z</time></trkpt><trkpt lat="44.9592505" lon="6.909137"><ele>2403.0</ele><time>2026-04-03T08:50:57.861Z</time></trkpt><trkpt lat="44.959331" lon="6.9090484"><ele>2395.0</ele><time>2026-04-03T08:50:58.856Z</time></trkpt><trkpt lat="44.9593913" lon="6.9089601"><ele>2387.0</ele><time>2026-04-03T08:50:59.863Z</time></trkpt><trkpt lat="44.9593913" lon="6.9087142"><ele>2379.0</ele><time>2026-04-03T08:51:01.873Z</time></trkpt><trkpt lat="44.959211" lon="6.9085579"><ele>2377.0</ele><time>2026-04-03T08:51:02.86Z</time></trkpt><trkpt lat="44.9591422" lon="6.9084158"><ele>2375.0</ele><time>2026-04-03T08:51:03.856Z</time></trkpt><trkpt lat="44.9591202" lon="6.9082369"><ele>2373.0</ele><time>2026-04-03T08:51:04.864Z</time></trkpt><trkpt lat="44.9591498" lon="6.9081089"><ele>2371.0</ele><time>2026-04-03T08:51:05.868Z</time></trkpt><trkpt lat="44.9592364" lon="6.9079319"><ele>2367.3333333333335</ele><time>2026-04-03T08:51:06.866Z</time></trkpt><trkpt lat="44.9593724" lon="6.9076604"><ele>2363.6666666666665</ele><time>2026-04-03T08:51:07.872Z</time></trkpt><trkpt lat="44.9593585" lon="6.9075177"><ele>2360.0</ele><time>2026-04-03T08:51:08.865Z</time></trkpt><trkpt lat="44.9592735" lon="6.9074001"><ele>2354.75</ele><time>2026-04-03T08:51:09.87Z</time></trkpt><trkpt lat="44.9592738" lon="6.9071968"><ele>2349.5</ele><time>2026-04-03T08:51:10.868Z</time></trkpt><trkpt lat="44.9593224" lon="6.9070397"><ele>2344.25</ele><time>2026-04-03T08:51:11.869Z</time></trkpt><trkpt lat="44.9594092" lon="6.9069044"><ele>2339.0</ele><time>2026-04-03T08:51:12.862Z</time></trkpt><trkpt lat="44.9594999" lon="6.9067973"><ele>2334.5</ele><time>2026-04-03T08:51:13.876Z</time></trkpt><trkpt lat="44.9595893" lon="6.9066616"><ele>2330.0</ele><time>2026-04-03T08:51:14.868Z</time></trkpt><trkpt lat="44.959596" lon="6.9064714"><ele>2325.5</ele><time>2026-04-03T08:51:16.856Z</time></trkpt><trkpt lat="44.9595234" lon="6.9063572"><ele>2321.0</ele><time>2026-04-03T08:51:17.866Z</time></trkpt><trkpt lat="44.9594538" lon="6.9061534"><ele>2321.0</ele><time>2026-04-03T08:51:18.871Z</time></trkpt><trkpt lat="44.9594043" lon="6.9059177"><ele>2321.0</ele><time>2026-04-03T08:51:19.86Z</time></trkpt><trkpt lat="44.959636" lon="6.9057434"><ele>2321.0</ele><time>2026-04-03T08:51:20.866Z</time></trkpt><trkpt lat="44.9597289" lon="6.9056009"><ele>2316.25</ele><time>2026-04-03T08:51:21.866Z</time></trkpt><trkpt lat="44.9597922" lon="6.9054974"><ele>2311.5</ele><time>2026-04-03T08:51:22.863Z</time></trkpt><trkpt lat="44.959802" lon="6.9053498"><ele>2306.75</ele><time>2026-04-03T08:51:23.868Z</time></trkpt><trkpt lat="44.9596917" lon="6.905126"><ele>2302.0</ele><time>2026-04-03T08:51:24.862Z</time></trkpt><trkpt lat="44.9597204" lon="6.9048587"><ele>2298.0</ele><time>2026-04-03T08:51:25.871Z</time></trkpt><trkpt lat="44.9597482" lon="6.9046556"><ele>2294.0</ele><time>2026-04-03T08:51:26.866Z</time></trkpt><trkpt lat="44.9598128" lon="6.9044536"><ele>2290.0</ele><time>2026-04-03T08:51:27.858Z</time></trkpt><trkpt lat="44.95986" lon="6.9042252"><ele>2284.0</ele><time>2026-04-03T08:51:28.867Z</time></trkpt><trkpt lat="44.959859" lon="6.9040302"><ele>2278.0</ele><time>2026-04-03T08:51:29.869Z</time></trkpt><trkpt lat="44.9597273" lon="6.9037427"><ele>2272.0</ele><time>2026-04-03T08:51:30.865Z</time></trkpt><trkpt lat="44.95976" lon="6.9035039"><ele>2266.3333333333335</ele><time>2026-04-03T08:51:31.868Z</time></trkpt><trkpt lat="44.9598268" lon="6.9032574"><ele>2260.6666666666665</ele><time>2026-04-03T08:51:32.869Z</time></trkpt><trkpt lat="44.9599208" lon="6.9030228"><ele>2255.0</ele><time>2026-04-03T08:51:33.867Z</time></trkpt><trkpt lat="44.9600068" lon="6.9027758"><ele>2249.333333333333</ele><time>2026-04-03T08:51:34.869Z</time></trkpt><trkpt lat="44.9600454" lon="6.9025276"><ele>2243.6666666666665</ele><time>2026-04-03T08:51:35.867Z</time></trkpt><trkpt lat="44.9600745" lon="6.9022332"><ele>2238.0</ele><time>2026-04-03T08:51:36.857Z</time></trkpt><trkpt lat="44.9601731" lon="6.9020126"><ele>2238.0</ele><time>2026-04-03T08:51:37.873Z</time></trkpt><trkpt lat="44.9602524" lon="6.9017877"><ele>2238.0</ele><time>2026-04-03T08:51:38.867Z</time></trkpt><trkpt lat="44.9603839" lon="6.901665"><ele>2238.0</ele><time>2026-04-03T08:51:39.864Z</time></trkpt><trkpt lat="44.9604818" lon="6.9015163"><ele>2234.25</ele><time>2026-04-03T08:51:40.864Z</time></trkpt><trkpt lat="44.9605655" lon="6.9013457"><ele>2230.5</ele><time>2026-04-03T08:51:41.864Z</time></trkpt><trkpt lat="44.9606079" lon="6.9011714"><ele>2226.75</ele><time>2026-04-03T08:51:42.87Z</time></trkpt><trkpt lat="44.9606765" lon="6.9010122"><ele>2223.0</ele><time>2026-04-03T08:51:43.873Z</time></trkpt><trkpt lat="44.9607726" lon="6.9009102"><ele>2223.4</ele><time>2026-04-03T08:51:44.857Z</time></trkpt><trkpt lat="44.9608553" lon="6.9007822"><ele>2223.8</ele><time>2026-04-03T08:51:45.864Z</time></trkpt><trkpt lat="44.9609086" lon="6.9006407"><ele>2224.2</ele><time>2026-04-03T08:51:46.863Z</time></trkpt><trkpt lat="44.9609763" lon="6.9005207"><ele>2224.6</ele><time>2026-04-03T08:51:47.864Z</time></trkpt><trkpt lat="44.9610429" lon="6.9004617"><ele>2225.0</ele><time>2026-04-03T08:51:48.864Z</time></trkpt><trkpt lat="44.9611414" lon="6.9004244"><ele>2225.0</ele><time>2026-04-03T08:51:50.868Z</time></trkpt><trkpt lat="44.9611207" lon="6.9003272"><ele>2225.0</ele><time>2026-04-03T08:52:20.863Z</time></trkpt><trkpt lat="44.9611196" lon="6.9001771"><ele>2225.0</ele><time>2026-04-03T08:52:22.865Z</time></trkpt><trkpt lat="44.96111" lon="6.9000766"><ele>2225.0</ele><time>2026-04-03T08:52:23.856Z</time></trkpt><trkpt lat="44.9611103" lon="6.8999555"><ele>2225.0</ele><time>2026-04-03T08:52:24.86Z</time></trkpt><trkpt lat="44.9611449" lon="6.8998244"><ele>2225.0</ele><time>2026-04-03T08:52:25.868Z</time></trkpt><trkpt lat="44.9611636" lon="6.8996846"><ele>2223.0</ele><time>2026-04-03T08:52:26.864Z</time></trkpt><trkpt lat="44.9611234" lon="6.8995448"><ele>2221.0</ele><time>2026-04-03T08:52:27.862Z</time></trkpt><trkpt lat="44.9610783" lon="6.8994144"><ele>2219.0</ele><time>2026-04-03T08:52:28.868Z</time></trkpt><trkpt lat="44.9610178" lon="6.8992876"><ele>2217.0</ele><time>2026-04-03T08:52:29.861Z</time></trkpt><trkpt lat="44.9609253" lon="6.8992032"><ele>2215.0</ele><time>2026-04-03T08:52:30.862Z</time></trkpt><trkpt lat="44.9608232" lon="6.8990516"><ele>2208.5</ele><time>2026-04-03T08:52:31.864Z</time></trkpt><trkpt lat="44.9607541" lon="6.8989351"><ele>2202.0</ele><time>2026-04-03T08:52:32.861Z</time></trkpt><trkpt lat="44.9607379" lon="6.8987787"><ele>2195.5</ele><time>2026-04-03T08:52:33.868Z</time></trkpt><trkpt lat="44.9607585" lon="6.8985985"><ele>2189.0</ele><time>2026-04-03T08:52:34.858Z</time></trkpt><trkpt lat="44.9609253" lon="6.8984118"><ele>2184.0</ele><time>2026-04-03T08:52:35.859Z</time></trkpt><trkpt lat="44.9610486" lon="6.898347"><ele>2179.0</ele><time>2026-04-03T08:52:36.86Z</time></trkpt><trkpt lat="44.9611919" lon="6.8982715"><ele>2174.0</ele><time>2026-04-03T08:52:37.858Z</time></trkpt><trkpt lat="44.9613067" lon="6.8981636"><ele>2169.0</ele><time>2026-04-03T08:52:38.87Z</time></trkpt><trkpt lat="44.9614152" lon="6.8980576"><ele>2169.0</ele><time>2026-04-03T08:52:39.861Z</time></trkpt><trkpt lat="44.9614857" lon="6.8979017"><ele>2169.0</ele><time>2026-04-03T08:52:40.853Z</time></trkpt><trkpt lat="44.9615921" lon="6.8977811"><ele>2169.0</ele><time>2026-04-03T08:52:41.868Z</time></trkpt><trkpt lat="44.9616982" lon="6.8976855"><ele>2169.0</ele><time>2026-04-03T08:52:42.871Z</time></trkpt><trkpt lat="44.9617994" lon="6.897578"><ele>2164.0</ele><time>2026-04-03T08:52:43.877Z</time></trkpt><trkpt lat="44.9619501" lon="6.8974285"><ele>2159.0</ele><time>2026-04-03T08:52:44.868Z</time></trkpt><trkpt lat="44.9620469" lon="6.8973634"><ele>2154.0</ele><time>2026-04-03T08:52:45.868Z</time></trkpt><trkpt lat="44.9620777" lon="6.8971885"><ele>2149.0</ele><time>2026-04-03T08:52:46.867Z</time></trkpt><trkpt lat="44.9622323" lon="6.8970663"><ele>2149.0</ele><time>2026-04-03T08:52:47.857Z</time></trkpt><trkpt lat="44.9623491" lon="6.8970355"><ele>2149.0</ele><time>2026-04-03T08:52:48.873Z</time></trkpt><trkpt lat="44.9624812" lon="6.8969172"><ele>2149.0</ele><time>2026-04-03T08:52:49.862Z</time></trkpt><trkpt lat="44.9625893" lon="6.8967787"><ele>2149.0</ele><time>2026-04-03T08:52:50.865Z</time></trkpt><trkpt lat="44.962675" lon="6.8966089"><ele>2141.0</ele><time>2026-04-03T08:52:51.858Z</time></trkpt><trkpt lat="44.9627855" lon="6.8965084"><ele>2133.0</ele><time>2026-04-03T08:52:52.873Z</time></trkpt><trkpt lat="44.9629142" lon="6.8964465"><ele>2125.0</ele><time>2026-04-03T08:52:53.859Z</time></trkpt><trkpt lat="44.9630544" lon="6.8964375"><ele>2117.0</ele><time>2026-04-03T08:52:54.865Z</time></trkpt><trkpt lat="44.9631577" lon="6.8963241"><ele>2117.0</ele><time>2026-04-03T08:52:55.869Z</time></trkpt><trkpt lat="44.9632613" lon="6.896204"><ele>2117.0</ele><time>2026-04-03T08:52:56.871Z</time></trkpt><trkpt lat="44.9633981" lon="6.8961081"><ele>2117.0</ele><time>2026-04-03T08:52:57.869Z</time></trkpt><trkpt lat="44.9635464" lon="6.8960852"><ele>2117.0</ele><time>2026-04-03T08:52:58.866Z</time></trkpt><trkpt lat="44.963689" lon="6.8960407"><ele>2112.7999999999997</ele><time>2026-04-03T08:52:59.864Z</time></trkpt><trkpt lat="44.9638179" lon="6.8960979"><ele>2108.6</ele><time>2026-04-03T08:53:00.864Z</time></trkpt><trkpt lat="44.9638641" lon="6.8962149"><ele>2104.3999999999996</ele><time>2026-04-03T08:53:01.865Z</time></trkpt><trkpt lat="44.9639467" lon="6.8962687"><ele>2100.2</ele><time>2026-04-03T08:53:02.862Z</time></trkpt><trkpt lat="44.964004" lon="6.8963103"><ele>2096.0</ele><time>2026-04-03T08:53:03.862Z</time></trkpt><trkpt lat="44.9640677" lon="6.8963779"><ele>2096.0</ele><time>2026-04-03T08:53:18.874Z</time></trkpt><trkpt lat="44.9641295" lon="6.8964313"><ele>2096.0</ele><time>2026-04-03T08:53:20.858Z</time></trkpt><trkpt lat="44.9642266" lon="6.8964705"><ele>2096.0</ele><time>2026-04-03T08:53:22.857Z</time></trkpt><trkpt lat="44.9643328" lon="6.8965754"><ele>2096.0</ele><time>2026-04-03T08:53:24.872Z</time></trkpt><trkpt lat="44.9643948" lon="6.8966361"><ele>2096.0</ele><time>2026-04-03T08:53:25.865Z</time></trkpt><trkpt lat="44.9644616" lon="6.8966826"><ele>2094.0</ele><time>2026-04-03T08:53:26.868Z</time></trkpt><trkpt lat="44.9645364" lon="6.8966969"><ele>2092.0</ele><time>2026-04-03T08:53:27.86Z</time></trkpt><trkpt lat="44.9646009" lon="6.8967766"><ele>2090.0</ele><time>2026-04-03T08:53:28.864Z</time></trkpt><trkpt lat="44.9646814" lon="6.8968152"><ele>2088.0</ele><time>2026-04-03T08:53:29.86Z</time></trkpt><trkpt lat="44.9647689" lon="6.8968307"><ele>2086.0</ele><time>2026-04-03T08:53:30.861Z</time></trkpt><trkpt lat="44.9649017" lon="6.8968962"><ele>2086.0</ele><time>2026-04-03T08:53:31.866Z</time></trkpt><trkpt lat="44.9650142" lon="6.8969389"><ele>2086.0</ele><time>2026-04-03T08:53:32.869Z</time></trkpt><trkpt lat="44.9651025" lon="6.8969357"><ele>2086.0</ele><time>2026-04-03T08:53:33.866Z</time></trkpt><trkpt lat="44.9652513" lon="6.8968434"><ele>2086.0</ele><time>2026-04-03T08:53:34.874Z</time></trkpt><trkpt lat="44.9654389" lon="6.8967442"><ele>2076.5</ele><time>2026-04-03T08:53:35.865Z</time></trkpt><trkpt lat="44.9655288" lon="6.8966188"><ele>2067.0</ele><time>2026-04-03T08:53:36.864Z</time></trkpt><trkpt lat="44.965659" lon="6.8965532"><ele>2057.5</ele><time>2026-04-03T08:53:37.864Z</time></trkpt><trkpt lat="44.9657602" lon="6.8964599"><ele>2048.0</ele><time>2026-04-03T08:53:38.871Z</time></trkpt><trkpt lat="44.9658112" lon="6.8962759"><ele>2048.0</ele><time>2026-04-03T08:53:39.867Z</time></trkpt><trkpt lat="44.9658219" lon="6.8961645"><ele>2048.0</ele><time>2026-04-03T08:53:40.867Z</time></trkpt><trkpt lat="44.9658659" lon="6.8960211"><ele>2048.0</ele><time>2026-04-03T08:53:41.866Z</time></trkpt><trkpt lat="44.9659917" lon="6.8959931"><ele>2048.0</ele><time>2026-04-03T08:53:42.857Z</time></trkpt><trkpt lat="44.9660837" lon="6.8959326"><ele>2048.0</ele><time>2026-04-03T08:53:43.873Z</time></trkpt><trkpt lat="44.966175" lon="6.8958578"><ele>2038.5</ele><time>2026-04-03T08:53:44.865Z</time></trkpt><trkpt lat="44.9662215" lon="6.8957697"><ele>2029.0</ele><time>2026-04-03T08:53:45.869Z</time></trkpt><trkpt lat="44.9662349" lon="6.8955915"><ele>2019.5</ele><time>2026-04-03T08:53:46.869Z</time></trkpt><trkpt lat="44.9663591" lon="6.8954493"><ele>2010.0</ele><time>2026-04-03T08:53:47.866Z</time></trkpt><trkpt lat="44.9664018" lon="6.895271"><ele>2010.0</ele><time>2026-04-03T08:53:48.864Z</time></trkpt><trkpt lat="44.9664732" lon="6.8951225"><ele>2010.0</ele><time>2026-04-03T08:53:49.855Z</time></trkpt><trkpt lat="44.9665486" lon="6.8949907"><ele>2010.0</ele><time>2026-04-03T08:53:50.86Z</time></trkpt><trkpt lat="44.9666462" lon="6.8949448"><ele>2010.0</ele><time>2026-04-03T08:53:51.857Z</time></trkpt><trkpt lat="44.9667254" lon="6.8948868"><ele>2010.0</ele><time>2026-04-03T08:53:52.864Z</time></trkpt><trkpt lat="44.9668002" lon="6.8948307"><ele>2002.1666666666667</ele><time>2026-04-03T08:53:53.863Z</time></trkpt><trkpt lat="44.9668305" lon="6.8947084"><ele>1994.3333333333335</ele><time>2026-04-03T08:54:18.869Z</time></trkpt><trkpt lat="44.966932" lon="6.8946516"><ele>1986.5</ele><time>2026-04-03T08:54:20.852Z</time></trkpt><trkpt lat="44.9669518" lon="6.8945517"><ele>1978.6666666666667</ele><time>2026-04-03T08:54:21.875Z</time></trkpt><trkpt lat="44.9669498" lon="6.8944621"><ele>1970.8333333333335</ele><time>2026-04-03T08:54:22.859Z</time></trkpt><trkpt lat="44.9669599" lon="6.8943582"><ele>1963.0</ele><time>2026-04-03T08:54:23.875Z</time></trkpt><trkpt lat="44.9670159" lon="6.8943057"><ele>1963.0000000000002</ele><time>2026-04-03T08:54:24.875Z</time></trkpt><trkpt lat="44.9670748" lon="6.8942741"><ele>1963.0</ele><time>2026-04-03T08:54:25.857Z</time></trkpt><trkpt lat="44.967108" lon="6.8941953"><ele>1963.0</ele><time>2026-04-03T08:54:26.86Z</time></trkpt><trkpt lat="44.9671459" lon="6.8940765"><ele>1963.0</ele><time>2026-04-03T08:54:28.87Z</time></trkpt><trkpt lat="44.967231" lon="6.8940579"><ele>1963.0000000000002</ele><time>2026-04-03T08:54:29.874Z</time></trkpt><trkpt lat="44.9672961" lon="6.8940162"><ele>1963.0</ele><time>2026-04-03T08:54:30.871Z</time></trkpt><trkpt lat="44.9673103" lon="6.8938916"><ele>1960.6666666666667</ele><time>2026-04-03T08:54:31.862Z</time></trkpt><trkpt lat="44.967373" lon="6.8938246"><ele>1958.3333333333335</ele><time>2026-04-03T08:54:32.869Z</time></trkpt><trkpt lat="44.9674161" lon="6.893749"><ele>1956.0</ele><time>2026-04-03T08:54:33.863Z</time></trkpt><trkpt lat="44.967457" lon="6.8936005"><ele>1953.6666666666665</ele><time>2026-04-03T08:54:35.86Z</time></trkpt><trkpt lat="44.9675133" lon="6.8935455"><ele>1951.3333333333333</ele><time>2026-04-03T08:54:36.86Z</time></trkpt><trkpt lat="44.9675633" lon="6.8934601"><ele>1949.0</ele><time>2026-04-03T08:54:37.868Z</time></trkpt><trkpt lat="44.9675898" lon="6.8933613"><ele>1940.4</ele><time>2026-04-03T08:54:38.86Z</time></trkpt><trkpt lat="44.9675896" lon="6.8932425"><ele>1931.8000000000002</ele><time>2026-04-03T08:54:39.873Z</time></trkpt><trkpt lat="44.9676651" lon="6.8932036"><ele>1923.1999999999998</ele><time>2026-04-03T08:54:40.872Z</time></trkpt><trkpt lat="44.9676881" lon="6.8931188"><ele>1914.6</ele><time>2026-04-03T08:54:41.872Z</time></trkpt><trkpt lat="44.9676631" lon="6.8929413"><ele>1906.0</ele><time>2026-04-03T08:54:43.861Z</time></trkpt><trkpt lat="44.9677205" lon="6.8927802"><ele>1906.0000000000002</ele><time>2026-04-03T08:54:45.871Z</time></trkpt><trkpt lat="44.9677169" lon="6.8926859"><ele>1906.0</ele><time>2026-04-03T08:54:46.87Z</time></trkpt><trkpt lat="44.9677187" lon="6.892581"><ele>1906.0</ele><time>2026-04-03T08:54:47.861Z</time></trkpt><trkpt lat="44.9677783" lon="6.892509"><ele>1906.0</ele><time>2026-04-03T08:54:48.867Z</time></trkpt><trkpt lat="44.96785" lon="6.8924383"><ele>1906.0000000000002</ele><time>2026-04-03T08:54:49.876Z</time></trkpt><trkpt lat="44.967903" lon="6.8923391"><ele>1906.0</ele><time>2026-04-03T08:54:50.871Z</time></trkpt><trkpt lat="44.9679136" lon="6.8922261"><ele>1900.75</ele><time>2026-04-03T08:54:51.867Z</time></trkpt><trkpt lat="44.9679202" lon="6.8921269"><ele>1895.5</ele><time>2026-04-03T08:54:52.86Z</time></trkpt><trkpt lat="44.9678632" lon="6.8919933"><ele>1890.25</ele><time>2026-04-03T08:54:53.866Z</time></trkpt><trkpt lat="44.9678304" lon="6.8918524"><ele>1885.0</ele><time>2026-04-03T08:54:54.872Z</time></trkpt><trkpt lat="44.96782" lon="6.8915756"><ele>1876.3333333333335</ele><time>2026-04-03T08:54:55.861Z</time></trkpt><trkpt lat="44.9677948" lon="6.891311"><ele>1867.6666666666665</ele><time>2026-04-03T08:54:56.86Z</time></trkpt><trkpt lat="44.9678163" lon="6.8910649"><ele>1859.0</ele><time>2026-04-03T08:54:57.865Z</time></trkpt><trkpt lat="44.9678766" lon="6.8908284"><ele>1859.0</ele><time>2026-04-03T08:54:58.86Z</time></trkpt><trkpt lat="44.9679977" lon="6.8906715"><ele>1859.0</ele><time>2026-04-03T08:54:59.871Z</time></trkpt><trkpt lat="44.9681326" lon="6.8908646"><ele>1859.0</ele><time>2026-04-03T08:55:00.861Z</time></trkpt><trkpt lat="44.9682992" lon="6.8909322"><ele>1857.0</ele><time>2026-04-03T08:55:01.867Z</time></trkpt><trkpt lat="44.9684277" lon="6.8910121"><ele>1855.0</ele><time>2026-04-03T08:55:02.855Z</time></trkpt><trkpt lat="44.9685341" lon="6.8910109"><ele>1853.0</ele><time>2026-04-03T08:55:03.874Z</time></trkpt><trkpt lat="44.9685256" lon="6.8908175"><ele>1851.0</ele><time>2026-04-03T08:55:06.874Z</time></trkpt><trkpt lat="44.9685606" lon="6.8907398"><ele>1849.0</ele><time>2026-04-03T08:55:08.865Z</time></trkpt><trkpt lat="44.9685826" lon="6.8906371"><ele>1849.0000000000002</ele><time>2026-04-03T08:55:11.869Z</time></trkpt><trkpt lat="44.968608" lon="6.8905451"><ele>1849.0</ele><time>2026-04-03T08:55:16.872Z</time></trkpt><trkpt lat="44.9685837" lon="6.89045"><ele>1849.0</ele><time>2026-04-03T08:55:52.868Z</time></trkpt><trkpt lat="44.9685197" lon="6.8904962"><ele>1849.0</ele><time>2026-04-03T08:56:08.867Z</time></trkpt><trkpt lat="44.9684706" lon="6.8905723"><ele>1849.0000000000002</ele><time>2026-04-03T08:56:19.852Z</time></trkpt><trkpt lat="44.9684289" lon="6.8906541"><ele>1849.0</ele><time>2026-04-03T08:56:21.866Z</time></trkpt><trkpt lat="44.9683877" lon="6.8907812"><ele>1849.5000000000002</ele><time>2026-04-03T08:56:23.874Z</time></trkpt><trkpt lat="44.9683447" lon="6.8909006"><ele>1850.0</ele><time>2026-04-03T08:56:25.861Z</time></trkpt><trkpt lat="44.9683066" lon="6.8909972"><ele>1850.5</ele><time>2026-04-03T08:56:27.865Z</time></trkpt><trkpt lat="44.9682591" lon="6.8910932"><ele>1851.0</ele><time>2026-04-03T08:56:29.865Z</time></trkpt><trkpt lat="44.9682137" lon="6.8911918"><ele>1851.5000000000002</ele><time>2026-04-03T08:56:31.871Z</time></trkpt><trkpt lat="44.9681712" lon="6.8912834"><ele>1852.0</ele><time>2026-04-03T08:56:33.858Z</time></trkpt><trkpt lat="44.968136" lon="6.8913875"><ele>1853.1666666666667</ele><time>2026-04-03T08:56:35.871Z</time></trkpt><trkpt lat="44.9680857" lon="6.8914869"><ele>1854.3333333333335</ele><time>2026-04-03T08:56:37.878Z</time></trkpt><trkpt lat="44.9680563" lon="6.891571"><ele>1855.5</ele><time>2026-04-03T08:56:39.866Z</time></trkpt><trkpt lat="44.9680133" lon="6.8916717"><ele>1856.6666666666665</ele><time>2026-04-03T08:56:41.863Z</time></trkpt><trkpt lat="44.9679691" lon="6.8917658"><ele>1857.8333333333333</ele><time>2026-04-03T08:56:43.867Z</time></trkpt><trkpt lat="44.9679248" lon="6.8918615"><ele>1859.0</ele><time>2026-04-03T08:56:45.858Z</time></trkpt><trkpt lat="44.9678808" lon="6.8919619"><ele>1863.3333333333333</ele><time>2026-04-03T08:56:47.866Z</time></trkpt><trkpt lat="44.9678319" lon="6.8920714"><ele>1867.6666666666665</ele><time>2026-04-03T08:56:49.857Z</time></trkpt><trkpt lat="44.9677868" lon="6.8921663"><ele>1872.0</ele><time>2026-04-03T08:56:51.862Z</time></trkpt><trkpt lat="44.9677395" lon="6.8922661"><ele>1876.3333333333335</ele><time>2026-04-03T08:56:53.857Z</time></trkpt><trkpt lat="44.9676894" lon="6.8923705"><ele>1880.6666666666667</ele><time>2026-04-03T08:56:55.871Z</time></trkpt><trkpt lat="44.9676462" lon="6.8924651"><ele>1885.0</ele><time>2026-04-03T08:56:57.859Z</time></trkpt><trkpt lat="44.9676023" lon="6.8925606"><ele>1888.5000000000002</ele><time>2026-04-03T08:56:59.865Z</time></trkpt><trkpt lat="44.9675557" lon="6.8926606"><ele>1892.0</ele><time>2026-04-03T08:57:01.873Z</time></trkpt><trkpt lat="44.9675154" lon="6.8927509"><ele>1895.5</ele><time>2026-04-03T08:57:03.87Z</time></trkpt><trkpt lat="44.9674757" lon="6.8928382"><ele>1899.0</ele><time>2026-04-03T08:57:05.865Z</time></trkpt><trkpt lat="44.9674323" lon="6.8929338"><ele>1902.5000000000002</ele><time>2026-04-03T08:57:07.864Z</time></trkpt><trkpt lat="44.9673908" lon="6.8930245"><ele>1906.0</ele><time>2026-04-03T08:57:09.868Z</time></trkpt><trkpt lat="44.9673524" lon="6.8931026"><ele>1909.3333333333335</ele><time>2026-04-03T08:57:11.867Z</time></trkpt><trkpt lat="44.9673098" lon="6.8931982"><ele>1912.6666666666667</ele><time>2026-04-03T08:57:13.868Z</time></trkpt><trkpt lat="44.9672711" lon="6.8932949"><ele>1916.0</ele><time>2026-04-03T08:57:15.871Z</time></trkpt><trkpt lat="44.9672335" lon="6.8933836"><ele>1919.3333333333335</ele><time>2026-04-03T08:57:17.874Z</time></trkpt><trkpt lat="44.967187" lon="6.8934854"><ele>1922.6666666666667</ele><time>2026-04-03T08:57:19.869Z</time></trkpt><trkpt lat="44.967145" lon="6.8935822"><ele>1926.0</ele><time>2026-04-03T08:57:21.867Z</time></trkpt><trkpt lat="44.9671027" lon="6.8936771"><ele>1929.8333333333333</ele><time>2026-04-03T08:57:23.87Z</time></trkpt><trkpt lat="44.9670574" lon="6.8937744"><ele>1933.6666666666665</ele><time>2026-04-03T08:57:25.859Z</time></trkpt><trkpt lat="44.9670123" lon="6.8938747"><ele>1937.5</ele><time>2026-04-03T08:57:27.863Z</time></trkpt><trkpt lat="44.9669707" lon="6.8939721"><ele>1941.3333333333333</ele><time>2026-04-03T08:57:29.862Z</time></trkpt><trkpt lat="44.9669276" lon="6.8940721"><ele>1945.1666666666665</ele><time>2026-04-03T08:57:31.863Z</time></trkpt><trkpt lat="44.9668838" lon="6.8941728"><ele>1949.0</ele><time>2026-04-03T08:57:33.872Z</time></trkpt><trkpt lat="44.9668417" lon="6.8942607"><ele>1951.3333333333333</ele><time>2026-04-03T08:57:35.868Z</time></trkpt><trkpt lat="44.9667958" lon="6.8943554"><ele>1953.6666666666665</ele><time>2026-04-03T08:57:37.867Z</time></trkpt><trkpt lat="44.9667516" lon="6.8944466"><ele>1956.0</ele><time>2026-04-03T08:57:39.868Z</time></trkpt><trkpt lat="44.9667124" lon="6.8945319"><ele>1958.3333333333335</ele><time>2026-04-03T08:57:41.861Z</time></trkpt><trkpt lat="44.9666723" lon="6.894626"><ele>1960.6666666666667</ele><time>2026-04-03T08:57:43.859Z</time></trkpt><trkpt lat="44.9666285" lon="6.8947329"><ele>1963.0</ele><time>2026-04-03T08:57:45.87Z</time></trkpt><trkpt lat="44.9665843" lon="6.8948283"><ele>1968.1666666666667</ele><time>2026-04-03T08:57:47.87Z</time></trkpt><trkpt lat="44.966541" lon="6.894926"><ele>1973.3333333333335</ele><time>2026-04-03T08:57:49.864Z</time></trkpt><trkpt lat="44.966494" lon="6.8950274"><ele>1978.5</ele><time>2026-04-03T08:57:51.867Z</time></trkpt><trkpt lat="44.9664499" lon="6.8951219"><ele>1983.6666666666665</ele><time>2026-04-03T08:57:53.868Z</time></trkpt><trkpt lat="44.9664068" lon="6.8952173"><ele>1988.8333333333333</ele><time>2026-04-03T08:57:55.873Z</time></trkpt><trkpt lat="44.9663607" lon="6.8953225"><ele>1994.0</ele><time>2026-04-03T08:57:57.867Z</time></trkpt><trkpt lat="44.9663194" lon="6.8954222"><ele>1996.6666666666665</ele><time>2026-04-03T08:57:59.861Z</time></trkpt><trkpt lat="44.9662795" lon="6.8955132"><ele>1999.3333333333333</ele><time>2026-04-03T08:58:01.863Z</time></trkpt><trkpt lat="44.9662352" lon="6.8956118"><ele>2002.0</ele><time>2026-04-03T08:58:03.863Z</time></trkpt><trkpt lat="44.9661903" lon="6.8957059"><ele>2004.6666666666665</ele><time>2026-04-03T08:58:05.857Z</time></trkpt><trkpt lat="44.966146" lon="6.895793"><ele>2007.3333333333333</ele><time>2026-04-03T08:58:07.875Z</time></trkpt><trkpt lat="44.9661032" lon="6.8958904"><ele>2010.0</ele><time>2026-04-03T08:58:09.856Z</time></trkpt><trkpt lat="44.9660596" lon="6.8959871"><ele>2013.3333333333333</ele><time>2026-04-03T08:58:11.861Z</time></trkpt><trkpt lat="44.9660203" lon="6.8960774"><ele>2016.6666666666665</ele><time>2026-04-03T08:58:13.86Z</time></trkpt><trkpt lat="44.9659804" lon="6.896168"><ele>2020.0</ele><time>2026-04-03T08:58:15.854Z</time></trkpt><trkpt lat="44.9659346" lon="6.8962677"><ele>2023.3333333333333</ele><time>2026-04-03T08:58:17.854Z</time></trkpt><trkpt lat="44.965892" lon="6.8963636"><ele>2026.6666666666665</ele><time>2026-04-03T08:58:19.866Z</time></trkpt><trkpt lat="44.9658477" lon="6.8964599"><ele>2030.0</ele><time>2026-04-03T08:58:21.874Z</time></trkpt><trkpt lat="44.9658015" lon="6.8965599"><ele>2032.9999999999998</ele><time>2026-04-03T08:58:23.863Z</time></trkpt><trkpt lat="44.9657582" lon="6.8966522"><ele>2036.0</ele><time>2026-04-03T08:58:25.865Z</time></trkpt><trkpt lat="44.9657137" lon="6.8967482"><ele>2039.0</ele><time>2026-04-03T08:58:27.869Z</time></trkpt><trkpt lat="44.9656688" lon="6.8968441"><ele>2042.0</ele><time>2026-04-03T08:58:29.861Z</time></trkpt><trkpt lat="44.9656234" lon="6.8969423"><ele>2044.9999999999998</ele><time>2026-04-03T08:58:31.856Z</time></trkpt><trkpt lat="44.9655768" lon="6.8970384"><ele>2048.0</ele><time>2026-04-03T08:58:33.855Z</time></trkpt><trkpt lat="44.9655315" lon="6.8971413"><ele>2051.833333333333</ele><time>2026-04-03T08:58:35.869Z</time></trkpt><trkpt lat="44.9654878" lon="6.8972392"><ele>2055.6666666666665</ele><time>2026-04-03T08:58:37.868Z</time></trkpt><trkpt lat="44.9654441" lon="6.8973364"><ele>2059.5</ele><time>2026-04-03T08:58:39.866Z</time></trkpt><trkpt lat="44.9653992" lon="6.8974369"><ele>2063.3333333333335</ele><time>2026-04-03T08:58:41.873Z</time></trkpt><trkpt lat="44.9653553" lon="6.8975315"><ele>2067.166666666667</ele><time>2026-04-03T08:58:43.865Z</time></trkpt><trkpt lat="44.9653143" lon="6.8976267"><ele>2071.0</ele><time>2026-04-03T08:58:45.866Z</time></trkpt><trkpt lat="44.9652687" lon="6.8977279"><ele>2074.8571428571427</ele><time>2026-04-03T08:58:47.863Z</time></trkpt><trkpt lat="44.9652265" lon="6.8978213"><ele>2078.714285714286</ele><time>2026-04-03T08:58:49.864Z</time></trkpt><trkpt lat="44.9651855" lon="6.8979123"><ele>2082.5714285714284</ele><time>2026-04-03T08:58:51.87Z</time></trkpt><trkpt lat="44.9651482" lon="6.897995"><ele>2086.4285714285716</ele><time>2026-04-03T08:58:53.864Z</time></trkpt><trkpt lat="44.9651132" lon="6.8980724"><ele>2090.285714285714</ele><time>2026-04-03T08:58:56.859Z</time></trkpt><trkpt lat="44.9650786" lon="6.8981522"><ele>2094.142857142857</ele><time>2026-04-03T08:58:59.868Z</time></trkpt><trkpt lat="44.9650385" lon="6.8982459"><ele>2098.0</ele><time>2026-04-03T08:59:03.869Z</time></trkpt><trkpt lat="44.9649979" lon="6.8983423"><ele>2103.4285714285716</ele><time>2026-04-03T08:59:07.875Z</time></trkpt><trkpt lat="44.9649585" lon="6.8984351"><ele>2108.857142857143</ele><time>2026-04-03T08:59:11.865Z</time></trkpt><trkpt lat="44.9649176" lon="6.8985145"><ele>2114.2857142857147</ele><time>2026-04-03T08:59:15.861Z</time></trkpt><trkpt lat="44.9648744" lon="6.8986101"><ele>2119.714285714286</ele><time>2026-04-03T08:59:19.87Z</time></trkpt><trkpt lat="44.9648419" lon="6.8986903"><ele>2125.1428571428573</ele><time>2026-04-03T08:59:23.873Z</time></trkpt><trkpt lat="44.9648065" lon="6.8987713"><ele>2130.571428571429</ele><time>2026-04-03T09:01:03.866Z</time></trkpt><trkpt lat="44.9647631" lon="6.8988642"><ele>2136.0</ele><time>2026-04-03T09:01:08.862Z</time></trkpt><trkpt lat="44.96472" lon="6.8989647"><ele>2136.0000000000005</ele><time>2026-04-03T09:01:12.86Z</time></trkpt><trkpt lat="44.9646753" lon="6.8990622"><ele>2136.0</ele><time>2026-04-03T09:01:15.86Z</time></trkpt><trkpt lat="44.9646296" lon="6.8991615"><ele>2136.0</ele><time>2026-04-03T09:01:18.869Z</time></trkpt><trkpt lat="44.964595" lon="6.8992402"><ele>2136.0</ele><time>2026-04-03T09:01:20.862Z</time></trkpt><trkpt lat="44.9645587" lon="6.8993221"><ele>2136.0</ele><time>2026-04-03T09:01:22.872Z</time></trkpt><trkpt lat="44.9645203" lon="6.8994082"><ele>2136.0000000000005</ele><time>2026-04-03T09:01:24.866Z</time></trkpt><trkpt lat="44.9644789" lon="6.8994992"><ele>2136.0</ele><time>2026-04-03T09:01:26.876Z</time></trkpt><trkpt lat="44.9644326" lon="6.8995981"><ele>2136.5</ele><time>2026-04-03T09:01:28.872Z</time></trkpt><trkpt lat="44.9643862" lon="6.899702"><ele>2137.0</ele><time>2026-04-03T09:01:30.866Z</time></trkpt><trkpt lat="44.9643388" lon="6.8997974"><ele>2137.5</ele><time>2026-04-03T09:01:32.867Z</time></trkpt><trkpt lat="44.9642936" lon="6.8998994"><ele>2138.0</ele><time>2026-04-03T09:01:34.866Z</time></trkpt><trkpt lat="44.9642474" lon="6.9000028"><ele>2138.5</ele><time>2026-04-03T09:01:36.87Z</time></trkpt><trkpt lat="44.9642009" lon="6.9001019"><ele>2139.0</ele><time>2026-04-03T09:01:38.862Z</time></trkpt><trkpt lat="44.9641539" lon="6.9002027"><ele>2139.0</ele><time>2026-04-03T09:01:40.863Z</time></trkpt><trkpt lat="44.9641091" lon="6.9003017"><ele>2139.0</ele><time>2026-04-03T09:01:42.856Z</time></trkpt><trkpt lat="44.9640618" lon="6.9004067"><ele>2139.0</ele><time>2026-04-03T09:01:44.869Z</time></trkpt><trkpt lat="44.9640167" lon="6.9005098"><ele>2139.0</ele><time>2026-04-03T09:01:46.868Z</time></trkpt><trkpt lat="44.9639731" lon="6.9006106"><ele>2139.0</ele><time>2026-04-03T09:01:48.87Z</time></trkpt><trkpt lat="44.9639266" lon="6.9007176"><ele>2139.0</ele><time>2026-04-03T09:01:50.864Z</time></trkpt><trkpt lat="44.9638787" lon="6.900824"><ele>2138.8333333333335</ele><time>2026-04-03T09:01:52.868Z</time></trkpt><trkpt lat="44.9638332" lon="6.9009257"><ele>2138.6666666666665</ele><time>2026-04-03T09:01:54.866Z</time></trkpt><trkpt lat="44.9637856" lon="6.9010288"><ele>2138.5</ele><time>2026-04-03T09:01:56.86Z</time></trkpt><trkpt lat="44.9637329" lon="6.9011366"><ele>2138.333333333333</ele><time>2026-04-03T09:01:58.856Z</time></trkpt><trkpt lat="44.9636886" lon="6.9012337"><ele>2138.1666666666665</ele><time>2026-04-03T09:02:00.868Z</time></trkpt><trkpt lat="44.9636449" lon="6.9013362"><ele>2138.0</ele><time>2026-04-03T09:02:02.857Z</time></trkpt><trkpt lat="44.9635961" lon="6.901443"><ele>2138.0</ele><time>2026-04-03T09:02:04.855Z</time></trkpt><trkpt lat="44.9635498" lon="6.9015466"><ele>2138.0</ele><time>2026-04-03T09:02:06.863Z</time></trkpt><trkpt lat="44.9635057" lon="6.9016475"><ele>2138.0</ele><time>2026-04-03T09:02:08.861Z</time></trkpt><trkpt lat="44.9634594" lon="6.9017492"><ele>2138.0</ele><time>2026-04-03T09:02:10.867Z</time></trkpt><trkpt lat="44.9634124" lon="6.9018531"><ele>2138.0</ele><time>2026-04-03T09:02:12.863Z</time></trkpt><trkpt lat="44.9633686" lon="6.9019576"><ele>2138.0</ele><time>2026-04-03T09:02:14.861Z</time></trkpt><trkpt lat="44.9633234" lon="6.9020616"><ele>2141.0</ele><time>2026-04-03T09:02:16.865Z</time></trkpt><trkpt lat="44.9632796" lon="6.9021677"><ele>2144.0</ele><time>2026-04-03T09:02:18.865Z</time></trkpt><trkpt lat="44.9632353" lon="6.9022684"><ele>2147.0</ele><time>2026-04-03T09:02:20.872Z</time></trkpt><trkpt lat="44.9631886" lon="6.9023684"><ele>2150.0</ele><time>2026-04-03T09:02:22.86Z</time></trkpt><trkpt lat="44.9631421" lon="6.9024684"><ele>2153.0</ele><time>2026-04-03T09:02:24.857Z</time></trkpt><trkpt lat="44.9630976" lon="6.9025647"><ele>2156.0</ele><time>2026-04-03T09:02:26.872Z</time></trkpt><trkpt lat="44.9630527" lon="6.9026648"><ele>2158.1666666666665</ele><time>2026-04-03T09:02:28.87Z</time></trkpt><trkpt lat="44.9630071" lon="6.9027671"><ele>2160.333333333333</ele><time>2026-04-03T09:02:30.859Z</time></trkpt><trkpt lat="44.9629613" lon="6.9028688"><ele>2162.5</ele><time>2026-04-03T09:02:32.858Z</time></trkpt><trkpt lat="44.9629151" lon="6.9029707"><ele>2164.6666666666665</ele><time>2026-04-03T09:02:34.866Z</time></trkpt><trkpt lat="44.9628707" lon="6.9030667"><ele>2166.8333333333335</ele><time>2026-04-03T09:02:36.864Z</time></trkpt><trkpt lat="44.962829" lon="6.9031582"><ele>2169.0</ele><time>2026-04-03T09:02:38.868Z</time></trkpt><trkpt lat="44.9627869" lon="6.9032547"><ele>2169.0</ele><time>2026-04-03T09:02:40.855Z</time></trkpt><trkpt lat="44.9627433" lon="6.9033531"><ele>2169.0</ele><time>2026-04-03T09:02:42.855Z</time></trkpt><trkpt lat="44.9627037" lon="6.9034475"><ele>2169.0</ele><time>2026-04-03T09:02:44.867Z</time></trkpt><trkpt lat="44.962663" lon="6.9035441"><ele>2169.0</ele><time>2026-04-03T09:02:46.872Z</time></trkpt><trkpt lat="44.9626207" lon="6.9036378"><ele>2169.0</ele><time>2026-04-03T09:02:48.871Z</time></trkpt><trkpt lat="44.96258" lon="6.9037311"><ele>2169.0</ele><time>2026-04-03T09:02:50.868Z</time></trkpt><trkpt lat="44.9625352" lon="6.9038361"><ele>2175.0</ele><time>2026-04-03T09:02:52.861Z</time></trkpt><trkpt lat="44.9624933" lon="6.9039338"><ele>2181.0</ele><time>2026-04-03T09:02:54.851Z</time></trkpt><trkpt lat="44.9624488" lon="6.9040301"><ele>2187.0</ele><time>2026-04-03T09:02:56.859Z</time></trkpt><trkpt lat="44.9624046" lon="6.9041257"><ele>2193.0</ele><time>2026-04-03T09:02:58.871Z</time></trkpt><trkpt lat="44.96236" lon="6.9042234"><ele>2199.0</ele><time>2026-04-03T09:03:00.869Z</time></trkpt><trkpt lat="44.9623166" lon="6.9043194"><ele>2205.0</ele><time>2026-04-03T09:03:02.866Z</time></trkpt><trkpt lat="44.9622754" lon="6.9044134"><ele>2208.3333333333335</ele><time>2026-04-03T09:03:04.863Z</time></trkpt><trkpt lat="44.9622339" lon="6.9045066"><ele>2211.6666666666665</ele><time>2026-04-03T09:03:06.856Z</time></trkpt><trkpt lat="44.9621916" lon="6.904602"><ele>2215.0</ele><time>2026-04-03T09:03:08.863Z</time></trkpt><trkpt lat="44.9621495" lon="6.9046926"><ele>2218.333333333333</ele><time>2026-04-03T09:03:10.862Z</time></trkpt><trkpt lat="44.9621078" lon="6.9047863"><ele>2221.6666666666665</ele><time>2026-04-03T09:03:12.864Z</time></trkpt><trkpt lat="44.9620635" lon="6.9048825"><ele>2225.0</ele><time>2026-04-03T09:03:14.862Z</time></trkpt><trkpt lat="44.9620163" lon="6.9049759"><ele>2225.0</ele><time>2026-04-03T09:03:16.867Z</time></trkpt><trkpt lat="44.9619707" lon="6.905069"><ele>2225.0</ele><time>2026-04-03T09:03:18.862Z</time></trkpt><trkpt lat="44.9619257" lon="6.9051624"><ele>2225.0</ele><time>2026-04-03T09:03:20.857Z</time></trkpt><trkpt lat="44.9618824" lon="6.9052537"><ele>2225.0</ele><time>2026-04-03T09:03:22.872Z</time></trkpt><trkpt lat="44.9618397" lon="6.9053446"><ele>2225.0</ele><time>2026-04-03T09:03:24.875Z</time></trkpt><trkpt lat="44.9617932" lon="6.9054426"><ele>2225.0</ele><time>2026-04-03T09:03:26.853Z</time></trkpt><trkpt lat="44.961749" lon="6.9055399"><ele>2228.0</ele><time>2026-04-03T09:03:28.865Z</time></trkpt><trkpt lat="44.9617049" lon="6.9056362"><ele>2231.0</ele><time>2026-04-03T09:03:30.856Z</time></trkpt><trkpt lat="44.9616628" lon="6.9057363"><ele>2234.0</ele><time>2026-04-03T09:03:32.858Z</time></trkpt><trkpt lat="44.961618" lon="6.9058382"><ele>2237.0</ele><time>2026-04-03T09:03:34.868Z</time></trkpt><trkpt lat="44.9615737" lon="6.9059351"><ele>2240.0</ele><time>2026-04-03T09:03:36.863Z</time></trkpt><trkpt lat="44.961531" lon="6.9060313"><ele>2243.0</ele><time>2026-04-03T09:03:38.859Z</time></trkpt><trkpt lat="44.9614876" lon="6.906124"><ele>2248.833333333333</ele><time>2026-04-03T09:03:40.871Z</time></trkpt><trkpt lat="44.9614418" lon="6.9062258"><ele>2254.6666666666665</ele><time>2026-04-03T09:03:42.858Z</time></trkpt><trkpt lat="44.961398" lon="6.9063224"><ele>2260.5</ele><time>2026-04-03T09:03:44.857Z</time></trkpt><trkpt lat="44.9613554" lon="6.9064218"><ele>2266.3333333333335</ele><time>2026-04-03T09:03:46.87Z</time></trkpt><trkpt lat="44.9613125" lon="6.9065209"><ele>2272.166666666667</ele><time>2026-04-03T09:03:48.863Z</time></trkpt><trkpt lat="44.9612685" lon="6.9066251"><ele>2278.0</ele><time>2026-04-03T09:03:50.861Z</time></trkpt><trkpt lat="44.9612245" lon="6.9067258"><ele>2280.5</ele><time>2026-04-03T09:03:52.862Z</time></trkpt><trkpt lat="44.9611816" lon="6.9068216"><ele>2283.0</ele><time>2026-04-03T09:03:54.865Z</time></trkpt><trkpt lat="44.9611389" lon="6.9069188"><ele>2285.5</ele><time>2026-04-03T09:03:56.875Z</time></trkpt><trkpt lat="44.9610955" lon="6.9070139"><ele>2288.0</ele><time>2026-04-03T09:03:58.859Z</time></trkpt><trkpt lat="44.9610548" lon="6.9071109"><ele>2290.5</ele><time>2026-04-03T09:04:00.86Z</time></trkpt><trkpt lat="44.9610151" lon="6.9072085"><ele>2293.0</ele><time>2026-04-03T09:04:02.875Z</time></trkpt><trkpt lat="44.9609723" lon="6.9073021"><ele>2293.0</ele><time>2026-04-03T09:04:04.865Z</time></trkpt><trkpt lat="44.9609276" lon="6.9074003"><ele>2293.0</ele><time>2026-04-03T09:04:06.864Z</time></trkpt><trkpt lat="44.9608835" lon="6.907497"><ele>2293.0</ele><time>2026-04-03T09:04:08.867Z</time></trkpt><trkpt lat="44.9608405" lon="6.9075925"><ele>2293.0</ele><time>2026-04-03T09:04:10.86Z</time></trkpt><trkpt lat="44.9607969" lon="6.9076859"><ele>2293.0</ele><time>2026-04-03T09:04:12.866Z</time></trkpt><trkpt lat="44.9607535" lon="6.9077788"><ele>2293.0</ele><time>2026-04-03T09:04:14.86Z</time></trkpt><trkpt lat="44.960711" lon="6.9078747"><ele>2299.166666666667</ele><time>2026-04-03T09:04:16.867Z</time></trkpt><trkpt lat="44.9606686" lon="6.9079719"><ele>2305.3333333333335</ele><time>2026-04-03T09:04:18.869Z</time></trkpt><trkpt lat="44.9606258" lon="6.9080685"><ele>2311.5</ele><time>2026-04-03T09:04:20.864Z</time></trkpt><trkpt lat="44.9605815" lon="6.9081702"><ele>2317.6666666666665</ele><time>2026-04-03T09:04:22.861Z</time></trkpt><trkpt lat="44.9605356" lon="6.9082764"><ele>2323.833333333333</ele><time>2026-04-03T09:04:24.864Z</time></trkpt><trkpt lat="44.960492" lon="6.9083759"><ele>2330.0</ele><time>2026-04-03T09:04:26.868Z</time></trkpt><trkpt lat="44.9604471" lon="6.9084733"><ele>2332.833333333333</ele><time>2026-04-03T09:04:28.864Z</time></trkpt><trkpt lat="44.9604034" lon="6.9085714"><ele>2335.6666666666665</ele><time>2026-04-03T09:04:30.854Z</time></trkpt><trkpt lat="44.9603596" lon="6.908669"><ele>2338.5</ele><time>2026-04-03T09:04:32.865Z</time></trkpt><trkpt lat="44.960316" lon="6.9087701"><ele>2341.3333333333335</ele><time>2026-04-03T09:04:34.865Z</time></trkpt><trkpt lat="44.9602732" lon="6.9088649"><ele>2344.166666666667</ele><time>2026-04-03T09:04:36.865Z</time></trkpt><trkpt lat="44.96023" lon="6.9089595"><ele>2347.0</ele><time>2026-04-03T09:04:38.868Z</time></trkpt><trkpt lat="44.9601874" lon="6.909055"><ele>2347.0</ele><time>2026-04-03T09:04:40.87Z</time></trkpt><trkpt lat="44.9601431" lon="6.9091496"><ele>2347.0</ele><time>2026-04-03T09:04:42.865Z</time></trkpt><trkpt lat="44.9601003" lon="6.9092433"><ele>2347.0</ele><time>2026-04-03T09:04:44.871Z</time></trkpt><trkpt lat="44.9600574" lon="6.9093379"><ele>2347.0</ele><time>2026-04-03T09:04:46.856Z</time></trkpt><trkpt lat="44.9600154" lon="6.9094333"><ele>2347.0</ele><time>2026-04-03T09:04:48.862Z</time></trkpt><trkpt lat="44.9599715" lon="6.9095252"><ele>2347.0</ele><time>2026-04-03T09:04:50.87Z</time></trkpt><trkpt lat="44.9599274" lon="6.9096151"><ele>2355.166666666667</ele><time>2026-04-03T09:04:52.862Z</time></trkpt><trkpt lat="44.9598851" lon="6.9097073"><ele>2363.3333333333335</ele><time>2026-04-03T09:04:54.86Z</time></trkpt><trkpt lat="44.9598407" lon="6.9098089"><ele>2371.5</ele><time>2026-04-03T09:04:56.866Z</time></trkpt><trkpt lat="44.959798" lon="6.9099051"><ele>2379.6666666666665</ele><time>2026-04-03T09:04:58.871Z</time></trkpt><trkpt lat="44.9597528" lon="6.9100053"><ele>2387.833333333333</ele><time>2026-04-03T09:05:00.864Z</time></trkpt><trkpt lat="44.9597104" lon="6.9101014"><ele>2396.0</ele><time>2026-04-03T09:05:02.858Z</time></trkpt><trkpt lat="44.9596683" lon="6.9101981"><ele>2400.0</ele><time>2026-04-03T09:05:04.87Z</time></trkpt><trkpt lat="44.9596255" lon="6.9102955"><ele>2404.0</ele><time>2026-04-03T09:05:06.862Z</time></trkpt><trkpt lat="44.9595834" lon="6.9103909"><ele>2408.0</ele><time>2026-04-03T09:05:08.872Z</time></trkpt><trkpt lat="44.9595415" lon="6.9104833"><ele>2412.0</ele><time>2026-04-03T09:05:10.863Z</time></trkpt><trkpt lat="44.9595" lon="6.9105781"><ele>2416.0</ele><time>2026-04-03T09:05:12.858Z</time></trkpt><trkpt lat="44.9594561" lon="6.9106716"><ele>2420.0</ele><time>2026-04-03T09:05:14.855Z</time></trkpt><trkpt lat="44.9594129" lon="6.910766"><ele>2420.0</ele><time>2026-04-03T09:05:16.865Z</time></trkpt><trkpt lat="44.9593701" lon="6.9108632"><ele>2420.0</ele><time>2026-04-03T09:05:18.856Z</time></trkpt><trkpt lat="44.9593301" lon="6.910959"><ele>2420.0</ele><time>2026-04-03T09:05:20.872Z</time></trkpt><trkpt lat="44.9592889" lon="6.9110507"><ele>2420.0</ele><time>2026-04-03T09:05:22.87Z</time></trkpt><trkpt lat="44.9592467" lon="6.9111414"><ele>2420.0</ele><time>2026-04-03T09:05:24.86Z</time></trkpt><trkpt lat="44.9592004" lon="6.9112389"><ele>2420.0</ele><time>2026-04-03T09:05:26.859Z</time></trkpt><trkpt lat="44.9591569" lon="6.9113331"><ele>2426.833333333333</ele><time>2026-04-03T09:05:28.868Z</time></trkpt><trkpt lat="44.9591143" lon="6.9114285"><ele>2433.6666666666665</ele><time>2026-04-03T09:05:30.867Z</time></trkpt><trkpt lat="44.9590705" lon="6.9115262"><ele>2440.5</ele><time>2026-04-03T09:05:32.862Z</time></trkpt><trkpt lat="44.9590273" lon="6.9116214"><ele>2447.3333333333335</ele><time>2026-04-03T09:05:34.869Z</time></trkpt><trkpt lat="44.9589848" lon="6.9117127"><ele>2454.166666666667</ele><time>2026-04-03T09:05:36.872Z</time></trkpt><trkpt lat="44.9589377" lon="6.9118155"><ele>2461.0</ele><time>2026-04-03T09:05:38.86Z</time></trkpt><trkpt lat="44.9588916" lon="6.9119163"><ele>2464.666666666667</ele><time>2026-04-03T09:05:40.866Z</time></trkpt><trkpt lat="44.9588454" lon="6.9120152"><ele>2468.3333333333335</ele><time>2026-04-03T09:05:42.859Z</time></trkpt><trkpt lat="44.9588023" lon="6.9121106"><ele>2472.0</ele><time>2026-04-03T09:05:44.871Z</time></trkpt><trkpt lat="44.9587595" lon="6.9122064"><ele>2475.6666666666665</ele><time>2026-04-03T09:05:46.861Z</time></trkpt><trkpt lat="44.9587184" lon="6.9123041"><ele>2479.333333333333</ele><time>2026-04-03T09:05:48.856Z</time></trkpt><trkpt lat="44.9586723" lon="6.9123974"><ele>2483.0</ele><time>2026-04-03T09:05:50.856Z</time></trkpt><trkpt lat="44.9586293" lon="6.9124921"><ele>2486.6666666666665</ele><time>2026-04-03T09:05:52.864Z</time></trkpt><trkpt lat="44.9585875" lon="6.9125861"><ele>2490.333333333333</ele><time>2026-04-03T09:05:54.856Z</time></trkpt><trkpt lat="44.9585452" lon="6.9126812"><ele>2494.0</ele><time>2026-04-03T09:05:56.86Z</time></trkpt><trkpt lat="44.958503" lon="6.9127757"><ele>2497.6666666666665</ele><time>2026-04-03T09:05:58.864Z</time></trkpt><trkpt lat="44.9584623" lon="6.9128691"><ele>2501.3333333333335</ele><time>2026-04-03T09:06:00.869Z</time></trkpt><trkpt lat="44.9584184" lon="6.9129689"><ele>2505.0</ele><time>2026-04-03T09:06:02.861Z</time></trkpt><trkpt lat="44.9583759" lon="6.9130647"><ele>2508.5</ele><time>2026-04-03T09:06:04.853Z</time></trkpt><trkpt lat="44.9583332" lon="6.9131589"><ele>2512.0</ele><time>2026-04-03T09:06:06.873Z</time></trkpt><trkpt lat="44.9582894" lon="6.9132542"><ele>2515.5</ele><time>2026-04-03T09:06:08.859Z</time></trkpt><trkpt lat="44.9582434" lon="6.9133512"><ele>2519.0</ele><time>2026-04-03T09:06:10.869Z</time></trkpt><trkpt lat="44.9581938" lon="6.9134533"><ele>2522.5</ele><time>2026-04-03T09:06:12.863Z</time></trkpt><trkpt lat="44.9581481" lon="6.9135634"><ele>2526.0</ele><time>2026-04-03T09:06:14.867Z</time></trkpt><trkpt lat="44.9581033" lon="6.9136744"><ele>2526.6666666666665</ele><time>2026-04-03T09:06:16.862Z</time></trkpt><trkpt lat="44.9580672" lon="6.9137516"><ele>2527.3333333333335</ele><time>2026-04-03T09:06:20.868Z</time></trkpt><trkpt lat="44.9580098" lon="6.9137946"><ele>2528.0</ele><time>2026-04-03T09:06:24.865Z</time></trkpt><trkpt lat="44.9579395" lon="6.9137572"><ele>2528.666666666667</ele><time>2026-04-03T09:06:28.871Z</time></trkpt><trkpt lat="44.9578869" lon="6.9136997"><ele>2529.3333333333335</ele><time>2026-04-03T09:06:47.861Z</time></trkpt><trkpt lat="44.9578034" lon="6.9136318"><ele>2530.0</ele><time>2026-04-03T09:07:44.866Z</time></trkpt><trkpt lat="44.9577024" lon="6.9135842"><ele>2530.0</ele><time>2026-04-03T09:07:46.867Z</time></trkpt><trkpt lat="44.957642" lon="6.9135475"><ele>2530.0</ele><time>2026-04-03T09:07:47.859Z</time></trkpt><trkpt lat="44.957568" lon="6.9135031"><ele>2530.0</ele><time>2026-04-03T09:07:48.863Z</time></trkpt><trkpt lat="44.9574869" lon="6.913468"><ele>2530.0</ele><time>2026-04-03T09:07:49.875Z</time></trkpt><trkpt lat="44.9574012" lon="6.9134458"><ele>2530.0</ele><time>2026-04-03T09:07:50.865Z</time></trkpt><trkpt lat="44.9573104" lon="6.9134396"><ele>2530.0</ele><time>2026-04-03T09:07:51.862Z</time></trkpt><trkpt lat="44.9572176" lon="6.9134367"><ele>2531.2</ele><time>2026-04-03T09:07:52.872Z</time></trkpt><trkpt lat="44.9571153" lon="6.9134966"><ele>2532.4</ele><time>2026-04-03T09:07:53.867Z</time></trkpt><trkpt lat="44.9570183" lon="6.9135669"><ele>2533.6</ele><time>2026-04-03T09:07:54.869Z</time></trkpt><trkpt lat="44.9569309" lon="6.9136528"><ele>2534.8</ele><time>2026-04-03T09:07:55.861Z</time></trkpt><trkpt lat="44.9568643" lon="6.9137498"><ele>2536.0</ele><time>2026-04-03T09:07:56.867Z</time></trkpt><trkpt lat="44.9568098" lon="6.9138321"><ele>2536.0</ele><time>2026-04-03T09:07:57.869Z</time></trkpt><trkpt lat="44.9567183" lon="6.9138391"><ele>2536.0</ele><time>2026-04-03T09:07:59.866Z</time></trkpt><trkpt lat="44.9566835" lon="6.9136973"><ele>2536.0</ele><time>2026-04-03T09:08:01.858Z</time></trkpt><trkpt lat="44.9566409" lon="6.913627"><ele>2536.0</ele><time>2026-04-03T09:08:02.866Z</time></trkpt><trkpt lat="44.956596" lon="6.9135294"><ele>2536.0</ele><time>2026-04-03T09:08:03.87Z</time></trkpt><trkpt lat="44.9565934" lon="6.9134191"><ele>2536.0</ele><time>2026-04-03T09:08:04.869Z</time></trkpt><trkpt lat="44.9566184" lon="6.9133164"><ele>2530.8</ele><time>2026-04-03T09:08:05.859Z</time></trkpt><trkpt lat="44.9566269" lon="6.9131879"><ele>2525.6</ele><time>2026-04-03T09:08:06.873Z</time></trkpt><trkpt lat="44.956602" lon="6.9130728"><ele>2520.4</ele><time>2026-04-03T09:08:07.863Z</time></trkpt><trkpt lat="44.9565362" lon="6.9129582"><ele>2515.2</ele><time>2026-04-03T09:08:08.865Z</time></trkpt><trkpt lat="44.9564543" lon="6.9128589"><ele>2510.0</ele><time>2026-04-03T09:08:09.863Z</time></trkpt><trkpt lat="44.9563578" lon="6.912778"><ele>2510.0</ele><time>2026-04-03T09:08:10.861Z</time></trkpt><trkpt lat="44.9562733" lon="6.9127241"><ele>2510.0</ele><time>2026-04-03T09:08:11.857Z</time></trkpt><trkpt lat="44.95619" lon="6.9127064"><ele>2510.0</ele><time>2026-04-03T09:08:12.865Z</time></trkpt><trkpt lat="44.9560669" lon="6.9127166"><ele>2510.0</ele><time>2026-04-03T09:08:14.866Z</time></trkpt><trkpt lat="44.9559461" lon="6.9126363"><ele>2510.0</ele><time>2026-04-03T09:08:16.874Z</time></trkpt><trkpt lat="44.955869" lon="6.9126134"><ele>2507.1666666666665</ele><time>2026-04-03T09:08:17.859Z</time></trkpt><trkpt lat="44.9557796" lon="6.9126183"><ele>2504.333333333333</ele><time>2026-04-03T09:08:18.855Z</time></trkpt><trkpt lat="44.9556981" lon="6.9126255"><ele>2501.5</ele><time>2026-04-03T09:08:19.872Z</time></trkpt><trkpt lat="44.9556073" lon="6.9126719"><ele>2498.6666666666665</ele><time>2026-04-03T09:08:20.868Z</time></trkpt><trkpt lat="44.9555239" lon="6.9127"><ele>2495.8333333333335</ele><time>2026-04-03T09:08:21.86Z</time></trkpt><trkpt lat="44.9554379" lon="6.9127143"><ele>2493.0</ele><time>2026-04-03T09:08:22.874Z</time></trkpt><trkpt lat="44.9553543" lon="6.9127015"><ele>2493.0</ele><time>2026-04-03T09:08:23.876Z</time></trkpt><trkpt lat="44.955278" lon="6.9126569"><ele>2493.0</ele><time>2026-04-03T09:08:24.877Z</time></trkpt><trkpt lat="44.9552165" lon="6.9125972"><ele>2493.0</ele><time>2026-04-03T09:08:25.869Z</time></trkpt><trkpt lat="44.9551588" lon="6.9125439"><ele>2493.0</ele><time>2026-04-03T09:08:26.871Z</time></trkpt><trkpt lat="44.9551022" lon="6.9124886"><ele>2493.0</ele><time>2026-04-03T09:08:27.851Z</time></trkpt><trkpt lat="44.9549911" lon="6.912416"><ele>2493.0</ele><time>2026-04-03T09:08:29.877Z</time></trkpt><trkpt lat="44.9549043" lon="6.9124354"><ele>2493.0</ele><time>2026-04-03T09:08:31.875Z</time></trkpt><trkpt lat="44.9550287" lon="6.9125416"><ele>2493.0</ele><time>2026-04-03T09:12:27.863Z</time></trkpt><trkpt lat="44.9550943" lon="6.9125688"><ele>2493.0</ele><time>2026-04-03T09:13:12.869Z</time></trkpt><trkpt lat="44.9550924" lon="6.9126609"><ele>2493.0</ele><time>2026-04-03T09:14:03.859Z</time></trkpt><trkpt lat="44.9550803" lon="6.9127486"><ele>2493.0</ele><time>2026-04-03T09:14:29.861Z</time></trkpt><trkpt lat="44.9550682" lon="6.9128476"><ele>2493.0</ele><time>2026-04-03T09:14:32.859Z</time></trkpt><trkpt lat="44.9550576" lon="6.9129458"><ele>2493.0000000000005</ele><time>2026-04-03T09:14:35.865Z</time></trkpt><trkpt lat="44.9550472" lon="6.9130469"><ele>2493.0</ele><time>2026-04-03T09:14:38.86Z</time></trkpt><trkpt lat="44.9550375" lon="6.9131372"><ele>2493.0</ele><time>2026-04-03T09:14:41.87Z</time></trkpt><trkpt lat="44.9550253" lon="6.9132397"><ele>2493.0</ele><time>2026-04-03T09:14:44.865Z</time></trkpt><trkpt lat="44.9550143" lon="6.9133455"><ele>2493.0</ele><time>2026-04-03T09:14:47.859Z</time></trkpt><trkpt lat="44.955006" lon="6.913451"><ele>2493.0000000000005</ele><time>2026-04-03T09:14:50.867Z</time></trkpt><trkpt lat="44.9549968" lon="6.9135492"><ele>2493.0</ele><time>2026-04-03T09:14:53.856Z</time></trkpt><trkpt lat="44.9549891" lon="6.913653"><ele>2495.0000000000005</ele><time>2026-04-03T09:14:56.86Z</time></trkpt><trkpt lat="44.9549718" lon="6.9137671"><ele>2497.0</ele><time>2026-04-03T09:14:59.869Z</time></trkpt><trkpt lat="44.9549593" lon="6.9138667"><ele>2499.0</ele><time>2026-04-03T09:15:02.863Z</time></trkpt><trkpt lat="44.9549515" lon="6.9139592"><ele>2501.0</ele><time>2026-04-03T09:15:05.867Z</time></trkpt><trkpt lat="44.9549414" lon="6.914052"><ele>2503.0</ele><time>2026-04-03T09:15:08.864Z</time></trkpt><trkpt lat="44.9549238" lon="6.9141554"><ele>2505.0000000000005</ele><time>2026-04-03T09:15:11.86Z</time></trkpt><trkpt lat="44.9549076" lon="6.9142592"><ele>2507.0</ele><time>2026-04-03T09:15:14.862Z</time></trkpt><trkpt lat="44.9548958" lon="6.9143523"><ele>2511.6666666666665</ele><time>2026-04-03T09:15:17.867Z</time></trkpt><trkpt lat="44.9548843" lon="6.9144413"><ele>2516.333333333333</ele><time>2026-04-03T09:15:20.872Z</time></trkpt><trkpt lat="44.9548746" lon="6.91453"><ele>2521.0</ele><time>2026-04-03T09:15:23.86Z</time></trkpt><trkpt lat="44.95486" lon="6.9146467"><ele>2525.6666666666665</ele><time>2026-04-03T09:15:27.872Z</time></trkpt><trkpt lat="44.9548478" lon="6.9147606"><ele>2530.3333333333335</ele><time>2026-04-03T09:15:30.869Z</time></trkpt><trkpt lat="44.9548392" lon="6.9148749"><ele>2535.0</ele><time>2026-04-03T09:15:33.853Z</time></trkpt><trkpt lat="44.9548317" lon="6.9149978"><ele>2539.8333333333335</ele><time>2026-04-03T09:15:36.856Z</time></trkpt><trkpt lat="44.9548237" lon="6.9151215"><ele>2544.6666666666665</ele><time>2026-04-03T09:15:39.871Z</time></trkpt><trkpt lat="44.9548155" lon="6.9152278"><ele>2549.5</ele><time>2026-04-03T09:15:42.876Z</time></trkpt><trkpt lat="44.9548119" lon="6.9153374"><ele>2554.333333333333</ele><time>2026-04-03T09:15:46.86Z</time></trkpt><trkpt lat="44.9547998" lon="6.9154489"><ele>2559.1666666666665</ele><time>2026-04-03T09:15:50.87Z</time></trkpt><trkpt lat="44.9547884" lon="6.9155657"><ele>2564.0</ele><time>2026-04-03T09:15:54.875Z</time></trkpt><trkpt lat="44.9547782" lon="6.9156761"><ele>2564.0</ele><time>2026-04-03T09:15:58.867Z</time></trkpt><trkpt lat="44.9547669" lon="6.9157845"><ele>2564.0</ele><time>2026-04-03T09:16:02.862Z</time></trkpt><trkpt lat="44.9547586" lon="6.9158737"><ele>2564.0</ele><time>2026-04-03T09:16:05.856Z</time></trkpt><trkpt lat="44.9547524" lon="6.9159756"><ele>2564.0</ele><time>2026-04-03T09:16:09.861Z</time></trkpt><trkpt lat="44.9547368" lon="6.9160692"><ele>2564.0</ele><time>2026-04-03T09:16:12.865Z</time></trkpt><trkpt lat="44.9547168" lon="6.9161635"><ele>2564.0</ele><time>2026-04-03T09:16:15.861Z</time></trkpt><trkpt lat="44.9546994" lon="6.91626"><ele>2564.0</ele><time>2026-04-03T09:16:18.862Z</time></trkpt><trkpt lat="44.9546871" lon="6.9163504"><ele>2568.4285714285716</ele><time>2026-04-03T09:16:21.863Z</time></trkpt><trkpt lat="44.9546721" lon="6.9164373"><ele>2572.8571428571427</ele><time>2026-04-03T09:16:24.863Z</time></trkpt><trkpt lat="44.9546611" lon="6.9165274"><ele>2577.285714285714</ele><time>2026-04-03T09:16:27.866Z</time></trkpt><trkpt lat="44.9546556" lon="6.916622"><ele>2581.714285714286</ele><time>2026-04-03T09:16:30.867Z</time></trkpt><trkpt lat="44.9546351" lon="6.9167247"><ele>2586.1428571428573</ele><time>2026-04-03T09:16:33.858Z</time></trkpt><trkpt lat="44.9545572" lon="6.916664"><ele>2590.5714285714284</ele><time>2026-04-03T09:16:38.858Z</time></trkpt><trkpt lat="44.9545007" lon="6.9166217"><ele>2595.0</ele><time>2026-04-03T09:16:47.861Z</time></trkpt><trkpt lat="44.9544704" lon="6.9165361"><ele>2595.0</ele><time>2026-04-03T09:17:11.876Z</time></trkpt><trkpt lat="44.9544017" lon="6.9164515"><ele>2595.0</ele><time>2026-04-03T09:17:13.867Z</time></trkpt><trkpt lat="44.9543196" lon="6.9164361"><ele>2595.0</ele><time>2026-04-03T09:17:15.867Z</time></trkpt><trkpt lat="44.9542995" lon="6.9163338"><ele>2595.0</ele><time>2026-04-03T09:17:53.862Z</time></trkpt><trkpt lat="44.9542431" lon="6.916259"><ele>2595.0</ele><time>2026-04-03T09:17:55.87Z</time></trkpt><trkpt lat="44.9542256" lon="6.9161021"><ele>2595.0</ele><time>2026-04-03T09:17:57.866Z</time></trkpt><trkpt lat="44.9541943" lon="6.915965"><ele>2589.2</ele><time>2026-04-03T09:17:59.869Z</time></trkpt><trkpt lat="44.9541512" lon="6.9158997"><ele>2583.4</ele><time>2026-04-03T09:18:00.872Z</time></trkpt><trkpt lat="44.9541023" lon="6.9157542"><ele>2577.6000000000004</ele><time>2026-04-03T09:18:02.872Z</time></trkpt><trkpt lat="44.9541558" lon="6.9156069"><ele>2571.8</ele><time>2026-04-03T09:18:03.862Z</time></trkpt><trkpt lat="44.9541377" lon="6.9154984"><ele>2566.0</ele><time>2026-04-03T09:18:04.865Z</time></trkpt><trkpt lat="44.9541305" lon="6.9153758"><ele>2566.0</ele><time>2026-04-03T09:18:05.861Z</time></trkpt><trkpt lat="44.9541667" lon="6.9152491"><ele>2566.0</ele><time>2026-04-03T09:18:06.876Z</time></trkpt><trkpt lat="44.9541975" lon="6.9151436"><ele>2566.0</ele><time>2026-04-03T09:18:07.866Z</time></trkpt><trkpt lat="44.9541776" lon="6.9150327"><ele>2566.0</ele><time>2026-04-03T09:18:08.855Z</time></trkpt><trkpt lat="44.9541282" lon="6.9149213"><ele>2566.0</ele><time>2026-04-03T09:18:09.871Z</time></trkpt><trkpt lat="44.9541132" lon="6.9147843"><ele>2561.666666666667</ele><time>2026-04-03T09:18:10.876Z</time></trkpt><trkpt lat="44.9541498" lon="6.9146545"><ele>2557.3333333333335</ele><time>2026-04-03T09:18:11.865Z</time></trkpt><trkpt lat="44.9541846" lon="6.9145267"><ele>2553.0</ele><time>2026-04-03T09:18:12.861Z</time></trkpt><trkpt lat="44.9542072" lon="6.914421"><ele>2548.6666666666665</ele><time>2026-04-03T09:18:13.866Z</time></trkpt><trkpt lat="44.9542278" lon="6.9143021"><ele>2544.333333333333</ele><time>2026-04-03T09:18:14.854Z</time></trkpt><trkpt lat="44.9542168" lon="6.9141949"><ele>2540.0</ele><time>2026-04-03T09:18:15.869Z</time></trkpt><trkpt lat="44.9542378" lon="6.9140707"><ele>2534.4</ele><time>2026-04-03T09:18:16.868Z</time></trkpt><trkpt lat="44.9542706" lon="6.9139568"><ele>2528.8</ele><time>2026-04-03T09:18:17.867Z</time></trkpt><trkpt lat="44.9542919" lon="6.913845"><ele>2523.2</ele><time>2026-04-03T09:18:18.867Z</time></trkpt><trkpt lat="44.9542884" lon="6.9136955"><ele>2517.6</ele><time>2026-04-03T09:18:20.861Z</time></trkpt><trkpt lat="44.9541646" lon="6.9136789"><ele>2512.0</ele><time>2026-04-03T09:18:21.873Z</time></trkpt><trkpt lat="44.9540678" lon="6.913673"><ele>2512.0</ele><time>2026-04-03T09:18:22.863Z</time></trkpt><trkpt lat="44.9539824" lon="6.9136915"><ele>2512.0</ele><time>2026-04-03T09:18:23.865Z</time></trkpt><trkpt lat="44.9537602" lon="6.9137192"><ele>2512.0</ele><time>2026-04-03T09:18:24.864Z</time></trkpt><trkpt lat="44.9537131" lon="6.9136479"><ele>2512.0</ele><time>2026-04-03T09:18:25.853Z</time></trkpt><trkpt lat="44.9537347" lon="6.9133495"><ele>2508.25</ele><time>2026-04-03T09:18:26.872Z</time></trkpt><trkpt lat="44.9536516" lon="6.9131749"><ele>2504.5</ele><time>2026-04-03T09:18:27.878Z</time></trkpt><trkpt lat="44.9535511" lon="6.9130724"><ele>2500.75</ele><time>2026-04-03T09:18:28.876Z</time></trkpt><trkpt lat="44.9534437" lon="6.9129832"><ele>2497.0</ele><time>2026-04-03T09:18:29.855Z</time></trkpt><trkpt lat="44.9533234" lon="6.913045"><ele>2491.666666666667</ele><time>2026-04-03T09:18:30.859Z</time></trkpt><trkpt lat="44.9531628" lon="6.9132056"><ele>2486.3333333333335</ele><time>2026-04-03T09:18:31.862Z</time></trkpt><trkpt lat="44.9530401" lon="6.9132363"><ele>2481.0</ele><time>2026-04-03T09:18:32.868Z</time></trkpt><trkpt lat="44.9529203" lon="6.9131122"><ele>2481.0</ele><time>2026-04-03T09:18:33.86Z</time></trkpt><trkpt lat="44.9528866" lon="6.9129398"><ele>2481.0</ele><time>2026-04-03T09:18:34.868Z</time></trkpt><trkpt lat="44.9528126" lon="6.9128717"><ele>2481.0</ele><time>2026-04-03T09:18:35.862Z</time></trkpt><trkpt lat="44.9527129" lon="6.9128572"><ele>2481.0</ele><time>2026-04-03T09:18:36.868Z</time></trkpt><trkpt lat="44.9526399" lon="6.9128363"><ele>2481.0</ele><time>2026-04-03T09:18:37.868Z</time></trkpt><trkpt lat="44.9525394" lon="6.9128589"><ele>2473.75</ele><time>2026-04-03T09:18:38.871Z</time></trkpt><trkpt lat="44.9524428" lon="6.9129153"><ele>2466.5</ele><time>2026-04-03T09:18:39.861Z</time></trkpt><trkpt lat="44.9523718" lon="6.912849"><ele>2459.25</ele><time>2026-04-03T09:18:40.863Z</time></trkpt><trkpt lat="44.9522797" lon="6.9127527"><ele>2452.0</ele><time>2026-04-03T09:18:41.855Z</time></trkpt><trkpt lat="44.9523592" lon="6.9125495"><ele>2449.7999999999997</ele><time>2026-04-03T09:18:42.86Z</time></trkpt><trkpt lat="44.9523034" lon="6.9124824"><ele>2447.6</ele><time>2026-04-03T09:18:43.859Z</time></trkpt><trkpt lat="44.9522415" lon="6.9124065"><ele>2445.3999999999996</ele><time>2026-04-03T09:18:44.869Z</time></trkpt><trkpt lat="44.9521412" lon="6.9124277"><ele>2443.2</ele><time>2026-04-03T09:18:45.873Z</time></trkpt><trkpt lat="44.9520132" lon="6.9125209"><ele>2441.0</ele><time>2026-04-03T09:18:46.856Z</time></trkpt><trkpt lat="44.9519191" lon="6.9125405"><ele>2441.0</ele><time>2026-04-03T09:18:47.87Z</time></trkpt><trkpt lat="44.9518573" lon="6.9124639"><ele>2441.0</ele><time>2026-04-03T09:18:48.867Z</time></trkpt><trkpt lat="44.9518337" lon="6.912369"><ele>2441.0</ele><time>2026-04-03T09:18:49.863Z</time></trkpt><trkpt lat="44.9518439" lon="6.9121636"><ele>2441.0</ele><time>2026-04-03T09:18:50.86Z</time></trkpt><trkpt lat="44.9517975" lon="6.9120355"><ele>2441.0</ele><time>2026-04-03T09:18:51.866Z</time></trkpt><trkpt lat="44.9517065" lon="6.9120788"><ele>2436.1666666666665</ele><time>2026-04-03T09:18:52.861Z</time></trkpt><trkpt lat="44.9516332" lon="6.9120735"><ele>2431.333333333333</ele><time>2026-04-03T09:18:53.873Z</time></trkpt><trkpt lat="44.9515522" lon="6.912063"><ele>2426.5</ele><time>2026-04-03T09:18:54.874Z</time></trkpt><trkpt lat="44.9514813" lon="6.9120753"><ele>2421.6666666666665</ele><time>2026-04-03T09:18:55.86Z</time></trkpt><trkpt lat="44.9514152" lon="6.9119575"><ele>2416.8333333333335</ele><time>2026-04-03T09:18:56.863Z</time></trkpt><trkpt lat="44.9513311" lon="6.9119302"><ele>2412.0</ele><time>2026-04-03T09:18:57.863Z</time></trkpt><trkpt lat="44.951262" lon="6.9119101"><ele>2412.0</ele><time>2026-04-03T09:18:58.861Z</time></trkpt><trkpt lat="44.9511911" lon="6.9118917"><ele>2412.0</ele><time>2026-04-03T09:18:59.856Z</time></trkpt><trkpt lat="44.9511416" lon="6.9118303"><ele>2412.0</ele><time>2026-04-03T09:19:00.863Z</time></trkpt><trkpt lat="44.9510875" lon="6.911781"><ele>2412.0</ele><time>2026-04-03T09:19:03.871Z</time></trkpt><trkpt lat="44.9510768" lon="6.9116665"><ele>2412.0</ele><time>2026-04-03T09:19:31.864Z</time></trkpt><trkpt lat="44.951089" lon="6.9114888"><ele>2412.0</ele><time>2026-04-03T09:19:33.874Z</time></trkpt><trkpt lat="44.9510323" lon="6.9113633"><ele>2409.1666666666665</ele><time>2026-04-03T09:19:35.867Z</time></trkpt><trkpt lat="44.9509584" lon="6.9113439"><ele>2406.3333333333335</ele><time>2026-04-03T09:19:36.864Z</time></trkpt><trkpt lat="44.9508922" lon="6.9113011"><ele>2403.5</ele><time>2026-04-03T09:19:37.868Z</time></trkpt><trkpt lat="44.950805" lon="6.9112775"><ele>2400.666666666667</ele><time>2026-04-03T09:19:38.866Z</time></trkpt><trkpt lat="44.9508615" lon="6.9111483"><ele>2397.8333333333335</ele><time>2026-04-03T09:19:40.865Z</time></trkpt><trkpt lat="44.9508602" lon="6.9110198"><ele>2395.0</ele><time>2026-04-03T09:19:41.866Z</time></trkpt><trkpt lat="44.9508284" lon="6.910892"><ele>2384.25</ele><time>2026-04-03T09:19:42.859Z</time></trkpt><trkpt lat="44.9507678" lon="6.9107513"><ele>2373.5</ele><time>2026-04-03T09:19:43.87Z</time></trkpt><trkpt lat="44.9506733" lon="6.9106291"><ele>2362.75</ele><time>2026-04-03T09:19:44.858Z</time></trkpt><trkpt lat="44.9506516" lon="6.9104658"><ele>2352.0</ele><time>2026-04-03T09:19:45.867Z</time></trkpt><trkpt lat="44.950678" lon="6.9102317"><ele>2345.75</ele><time>2026-04-03T09:19:46.865Z</time></trkpt><trkpt lat="44.950691" lon="6.9100426"><ele>2339.5</ele><time>2026-04-03T09:19:47.864Z</time></trkpt><trkpt lat="44.9505843" lon="6.9099731"><ele>2333.25</ele><time>2026-04-03T09:19:48.856Z</time></trkpt><trkpt lat="44.9504695" lon="6.9098608"><ele>2327.0</ele><time>2026-04-03T09:19:49.863Z</time></trkpt><trkpt lat="44.9503923" lon="6.9097432"><ele>2327.0</ele><time>2026-04-03T09:19:50.876Z</time></trkpt><trkpt lat="44.9503798" lon="6.9095754"><ele>2327.0</ele><time>2026-04-03T09:19:51.861Z</time></trkpt><trkpt lat="44.9504691" lon="6.9094771"><ele>2327.0</ele><time>2026-04-03T09:19:52.872Z</time></trkpt><trkpt lat="44.9505162" lon="6.9093411"><ele>2327.0</ele><time>2026-04-03T09:19:53.863Z</time></trkpt><trkpt lat="44.9504578" lon="6.909186"><ele>2323.2</ele><time>2026-04-03T09:19:54.856Z</time></trkpt><trkpt lat="44.9504098" lon="6.9091037"><ele>2319.3999999999996</ele><time>2026-04-03T09:19:55.861Z</time></trkpt><trkpt lat="44.9503304" lon="6.9090183"><ele>2315.6000000000004</ele><time>2026-04-03T09:19:56.866Z</time></trkpt><trkpt lat="44.9502762" lon="6.9089034"><ele>2311.8</ele><time>2026-04-03T09:19:57.858Z</time></trkpt><trkpt lat="44.9503509" lon="6.9087336"><ele>2308.0</ele><time>2026-04-03T09:19:58.863Z</time></trkpt><trkpt lat="44.95041" lon="6.9085629"><ele>2304.25</ele><time>2026-04-03T09:19:59.863Z</time></trkpt><trkpt lat="44.9504526" lon="6.9083765"><ele>2300.5</ele><time>2026-04-03T09:20:00.865Z</time></trkpt><trkpt lat="44.9504448" lon="6.9082115"><ele>2296.75</ele><time>2026-04-03T09:20:01.858Z</time></trkpt><trkpt lat="44.9502977" lon="6.9080846"><ele>2293.0</ele><time>2026-04-03T09:20:02.855Z</time></trkpt><trkpt lat="44.950199" lon="6.907951"><ele>2293.0</ele><time>2026-04-03T09:20:03.859Z</time></trkpt><trkpt lat="44.9501955" lon="6.9077717"><ele>2293.0</ele><time>2026-04-03T09:20:04.868Z</time></trkpt><trkpt lat="44.9502117" lon="6.9076206"><ele>2293.0</ele><time>2026-04-03T09:20:05.869Z</time></trkpt><trkpt lat="44.9502831" lon="6.9075053"><ele>2293.0</ele><time>2026-04-03T09:20:06.863Z</time></trkpt><trkpt lat="44.9503358" lon="6.9074125"><ele>2293.0</ele><time>2026-04-03T09:20:07.854Z</time></trkpt><trkpt lat="44.9502875" lon="6.9073389"><ele>2289.2000000000003</ele><time>2026-04-03T09:20:08.86Z</time></trkpt><trkpt lat="44.9502627" lon="6.907232"><ele>2285.4</ele><time>2026-04-03T09:20:09.865Z</time></trkpt><trkpt lat="44.9502" lon="6.9071525"><ele>2281.6000000000004</ele><time>2026-04-03T09:20:10.877Z</time></trkpt><trkpt lat="44.9501412" lon="6.9070391"><ele>2277.8</ele><time>2026-04-03T09:20:11.866Z</time></trkpt><trkpt lat="44.9501988" lon="6.906827"><ele>2274.0</ele><time>2026-04-03T09:20:12.872Z</time></trkpt><trkpt lat="44.9502271" lon="6.9067281"><ele>2268.8</ele><time>2026-04-03T09:20:13.855Z</time></trkpt><trkpt lat="44.9502678" lon="6.9065901"><ele>2263.6000000000004</ele><time>2026-04-03T09:20:14.873Z</time></trkpt><trkpt lat="44.9502957" lon="6.9064338"><ele>2258.4</ele><time>2026-04-03T09:20:15.868Z</time></trkpt><trkpt lat="44.950305" lon="6.9063421"><ele>2253.2000000000003</ele><time>2026-04-03T09:20:16.865Z</time></trkpt><trkpt lat="44.9502478" lon="6.9062578"><ele>2248.0</ele><time>2026-04-03T09:20:17.856Z</time></trkpt><trkpt lat="44.9501419" lon="6.9062765"><ele>2248.0</ele><time>2026-04-03T09:20:18.856Z</time></trkpt><trkpt lat="44.9500916" lon="6.9062132"><ele>2248.0</ele><time>2026-04-03T09:20:19.862Z</time></trkpt><trkpt lat="44.9500999" lon="6.90612"><ele>2248.0</ele><time>2026-04-03T09:20:56.869Z</time></trkpt><trkpt lat="44.9501569" lon="6.9060149"><ele>2248.0</ele><time>2026-04-03T09:20:58.857Z</time></trkpt><trkpt lat="44.9502238" lon="6.9059456"><ele>2248.0</ele><time>2026-04-03T09:20:59.865Z</time></trkpt><trkpt lat="44.9502702" lon="6.9058804"><ele>2248.0</ele><time>2026-04-03T09:21:00.859Z</time></trkpt><trkpt lat="44.9503124" lon="6.9057842"><ele>2243.2000000000003</ele><time>2026-04-03T09:21:01.872Z</time></trkpt><trkpt lat="44.9503432" lon="6.9056753"><ele>2238.4</ele><time>2026-04-03T09:21:02.852Z</time></trkpt><trkpt lat="44.9502106" lon="6.9055571"><ele>2233.6000000000004</ele><time>2026-04-03T09:21:03.871Z</time></trkpt><trkpt lat="44.9501629" lon="6.9054719"><ele>2228.8</ele><time>2026-04-03T09:21:04.862Z</time></trkpt><trkpt lat="44.9501523" lon="6.9053621"><ele>2224.0</ele><time>2026-04-03T09:21:05.865Z</time></trkpt><trkpt lat="44.9502502" lon="6.9052377"><ele>2219.0</ele><time>2026-04-03T09:21:06.865Z</time></trkpt><trkpt lat="44.9502743" lon="6.9050602"><ele>2214.0</ele><time>2026-04-03T09:21:07.867Z</time></trkpt><trkpt lat="44.9502795" lon="6.9049396"><ele>2209.0</ele><time>2026-04-03T09:21:08.868Z</time></trkpt><trkpt lat="44.9502726" lon="6.9048077"><ele>2204.0</ele><time>2026-04-03T09:21:09.869Z</time></trkpt><trkpt lat="44.9502303" lon="6.9046723"><ele>2199.0</ele><time>2026-04-03T09:21:10.86Z</time></trkpt><trkpt lat="44.9502482" lon="6.9044702"><ele>2199.0</ele><time>2026-04-03T09:21:11.873Z</time></trkpt><trkpt lat="44.9502561" lon="6.9043201"><ele>2199.0</ele><time>2026-04-03T09:21:12.855Z</time></trkpt><trkpt lat="44.9503385" lon="6.9042236"><ele>2199.0</ele><time>2026-04-03T09:21:13.865Z</time></trkpt><trkpt lat="44.9503905" lon="6.9041065"><ele>2199.0</ele><time>2026-04-03T09:21:14.866Z</time></trkpt><trkpt lat="44.9504214" lon="6.9039512"><ele>2199.0</ele><time>2026-04-03T09:21:15.867Z</time></trkpt><trkpt lat="44.9504035" lon="6.9038427"><ele>2191.75</ele><time>2026-04-03T09:21:16.874Z</time></trkpt><trkpt lat="44.9503521" lon="6.9037105"><ele>2184.5</ele><time>2026-04-03T09:21:17.863Z</time></trkpt><trkpt lat="44.9503555" lon="6.9035613"><ele>2177.25</ele><time>2026-04-03T09:21:18.861Z</time></trkpt><trkpt lat="44.9503704" lon="6.9033723"><ele>2170.0</ele><time>2026-04-03T09:21:19.862Z</time></trkpt><trkpt lat="44.9504857" lon="6.9033142"><ele>2164.8</ele><time>2026-04-03T09:21:20.868Z</time></trkpt><trkpt lat="44.950553" lon="6.9031776"><ele>2159.6</ele><time>2026-04-03T09:21:21.863Z</time></trkpt><trkpt lat="44.9506164" lon="6.9031228"><ele>2154.4</ele><time>2026-04-03T09:21:22.859Z</time></trkpt><trkpt lat="44.9506735" lon="6.9029997"><ele>2149.2</ele><time>2026-04-03T09:21:23.876Z</time></trkpt><trkpt lat="44.950714" lon="6.9028698"><ele>2144.0</ele><time>2026-04-03T09:21:24.865Z</time></trkpt><trkpt lat="44.950812" lon="6.9027087"><ele>2140.75</ele><time>2026-04-03T09:21:25.862Z</time></trkpt><trkpt lat="44.9508831" lon="6.9025476"><ele>2137.5</ele><time>2026-04-03T09:21:26.863Z</time></trkpt><trkpt lat="44.9509641" lon="6.9023934"><ele>2134.25</ele><time>2026-04-03T09:21:27.869Z</time></trkpt><trkpt lat="44.9510425" lon="6.9022333"><ele>2131.0</ele><time>2026-04-03T09:21:28.857Z</time></trkpt><trkpt lat="44.9510327" lon="6.9021323"><ele>2131.0</ele><time>2026-04-03T09:21:29.875Z</time></trkpt><trkpt lat="44.9510538" lon="6.9019544"><ele>2131.0</ele><time>2026-04-03T09:21:30.868Z</time></trkpt><trkpt lat="44.9511161" lon="6.9018056"><ele>2131.0</ele><time>2026-04-03T09:21:31.867Z</time></trkpt><trkpt lat="44.9512005" lon="6.9016451"><ele>2131.0</ele><time>2026-04-03T09:21:32.861Z</time></trkpt><trkpt lat="44.9512764" lon="6.9015115"><ele>2124.0</ele><time>2026-04-03T09:21:33.867Z</time></trkpt><trkpt lat="44.9512825" lon="6.9012994"><ele>2117.0</ele><time>2026-04-03T09:21:34.874Z</time></trkpt><trkpt lat="44.9513295" lon="6.9011148"><ele>2110.0</ele><time>2026-04-03T09:21:35.872Z</time></trkpt><trkpt lat="44.951389" lon="6.9009472"><ele>2103.0</ele><time>2026-04-03T09:21:36.863Z</time></trkpt><trkpt lat="44.9514922" lon="6.9007911"><ele>2099.5</ele><time>2026-04-03T09:21:37.874Z</time></trkpt><trkpt lat="44.9515642" lon="6.9006659"><ele>2096.0</ele><time>2026-04-03T09:21:38.867Z</time></trkpt><trkpt lat="44.9516366" lon="6.9005168"><ele>2092.5</ele><time>2026-04-03T09:21:39.862Z</time></trkpt><trkpt lat="44.9517409" lon="6.9003886"><ele>2089.0</ele><time>2026-04-03T09:21:40.863Z</time></trkpt><trkpt lat="44.951927" lon="6.9003538"><ele>2089.0</ele><time>2026-04-03T09:21:41.866Z</time></trkpt><trkpt lat="44.9520606" lon="6.900215"><ele>2089.0</ele><time>2026-04-03T09:21:42.856Z</time></trkpt><trkpt lat="44.9521415" lon="6.9000174"><ele>2089.0</ele><time>2026-04-03T09:21:43.858Z</time></trkpt><trkpt lat="44.9522088" lon="6.8998205"><ele>2081.3333333333335</ele><time>2026-04-03T09:21:44.863Z</time></trkpt><trkpt lat="44.9522386" lon="6.8995814"><ele>2073.6666666666665</ele><time>2026-04-03T09:21:45.871Z</time></trkpt><trkpt lat="44.9522928" lon="6.8993367"><ele>2066.0</ele><time>2026-04-03T09:21:46.867Z</time></trkpt><trkpt lat="44.9523688" lon="6.8991132"><ele>2065.333333333333</ele><time>2026-04-03T09:21:47.868Z</time></trkpt><trkpt lat="44.9524827" lon="6.8989199"><ele>2064.6666666666665</ele><time>2026-04-03T09:21:48.862Z</time></trkpt><trkpt lat="44.9525792" lon="6.898696"><ele>2064.0</ele><time>2026-04-03T09:21:49.872Z</time></trkpt><trkpt lat="44.9526717" lon="6.8985226"><ele>2059.75</ele><time>2026-04-03T09:21:50.854Z</time></trkpt><trkpt lat="44.9527258" lon="6.8983447"><ele>2055.5</ele><time>2026-04-03T09:21:51.862Z</time></trkpt><trkpt lat="44.9527941" lon="6.8982004"><ele>2051.25</ele><time>2026-04-03T09:21:52.863Z</time></trkpt><trkpt lat="44.9528614" lon="6.898009"><ele>2047.0</ele><time>2026-04-03T09:21:53.871Z</time></trkpt><trkpt lat="44.9529524" lon="6.8977987"><ele>2047.0</ele><time>2026-04-03T09:21:54.87Z</time></trkpt><trkpt lat="44.9530524" lon="6.8976195"><ele>2047.0</ele><time>2026-04-03T09:21:55.87Z</time></trkpt><trkpt lat="44.9531152" lon="6.8976035"><ele>2047.0</ele><time>2026-04-03T09:21:56.869Z</time></trkpt><trkpt lat="44.9532154" lon="6.8975046"><ele>2047.0</ele><time>2026-04-03T09:21:57.864Z</time></trkpt><trkpt lat="44.9533082" lon="6.8973449"><ele>2043.25</ele><time>2026-04-03T09:21:58.871Z</time></trkpt><trkpt lat="44.9534294" lon="6.8972779"><ele>2039.5</ele><time>2026-04-03T09:21:59.867Z</time></trkpt><trkpt lat="44.9535134" lon="6.8971802"><ele>2035.75</ele><time>2026-04-03T09:22:00.861Z</time></trkpt><trkpt lat="44.9536088" lon="6.8970897"><ele>2032.0</ele><time>2026-04-03T09:22:01.877Z</time></trkpt><trkpt lat="44.9537083" lon="6.8969438"><ele>2032.0</ele><time>2026-04-03T09:22:02.856Z</time></trkpt><trkpt lat="44.9537445" lon="6.8968024"><ele>2031.9999999999998</ele><time>2026-04-03T09:22:03.864Z</time></trkpt><trkpt lat="44.9538157" lon="6.8966732"><ele>2031.9999999999998</ele><time>2026-04-03T09:22:04.86Z</time></trkpt><trkpt lat="44.95389" lon="6.8965605"><ele>2032.0</ele><time>2026-04-03T09:22:05.858Z</time></trkpt><trkpt lat="44.9539602" lon="6.8964463"><ele>2032.0</ele><time>2026-04-03T09:22:06.865Z</time></trkpt><trkpt lat="44.9540276" lon="6.8963052"><ele>2029.0</ele><time>2026-04-03T09:22:07.875Z</time></trkpt><trkpt lat="44.9540949" lon="6.8961892"><ele>2025.9999999999998</ele><time>2026-04-03T09:22:08.862Z</time></trkpt><trkpt lat="44.954119" lon="6.896088"><ele>2022.9999999999998</ele><time>2026-04-03T09:22:09.861Z</time></trkpt><trkpt lat="44.9541985" lon="6.895945"><ele>2020.0</ele><time>2026-04-03T09:22:11.86Z</time></trkpt><trkpt lat="44.9542403" lon="6.8958715"><ele>2017.0</ele><time>2026-04-03T09:22:12.866Z</time></trkpt><trkpt lat="44.9543196" lon="6.8957648"><ele>2014.8</ele><time>2026-04-03T09:22:13.864Z</time></trkpt><trkpt lat="44.9543804" lon="6.8956378"><ele>2012.6</ele><time>2026-04-03T09:22:14.868Z</time></trkpt><trkpt lat="44.9544753" lon="6.895573"><ele>2010.3999999999999</ele><time>2026-04-03T09:22:15.86Z</time></trkpt><trkpt lat="44.9545659" lon="6.8954924"><ele>2008.1999999999998</ele><time>2026-04-03T09:22:16.863Z</time></trkpt><trkpt lat="44.9546609" lon="6.8954374"><ele>2006.0</ele><time>2026-04-03T09:22:17.865Z</time></trkpt><trkpt lat="44.9546988" lon="6.8953235"><ele>2005.9999999999998</ele><time>2026-04-03T09:22:18.872Z</time></trkpt><trkpt lat="44.9547578" lon="6.8952506"><ele>2006.0</ele><time>2026-04-03T09:22:19.858Z</time></trkpt><trkpt lat="44.9547996" lon="6.8951729"><ele>2006.0</ele><time>2026-04-03T09:22:21.873Z</time></trkpt><trkpt lat="44.9549357" lon="6.8951275"><ele>2006.0</ele><time>2026-04-03T09:22:35.863Z</time></trkpt><trkpt lat="44.9549856" lon="6.895072"><ele>2005.9999999999998</ele><time>2026-04-03T09:22:36.867Z</time></trkpt><trkpt lat="44.955042" lon="6.8950171"><ele>2006.0</ele><time>2026-04-03T09:22:37.862Z</time></trkpt><trkpt lat="44.9550993" lon="6.8949495"><ele>2006.0</ele><time>2026-04-03T09:22:38.871Z</time></trkpt><trkpt lat="44.9551731" lon="6.8948715"><ele>2006.0</ele><time>2026-04-03T09:22:39.862Z</time></trkpt><trkpt lat="44.9552405" lon="6.8947546"><ele>2006.0</ele><time>2026-04-03T09:22:40.862Z</time></trkpt><trkpt lat="44.955305" lon="6.894655"><ele>2006.0</ele><time>2026-04-03T09:22:41.852Z</time></trkpt><trkpt lat="44.9554016" lon="6.8945859"><ele>2006.0</ele><time>2026-04-03T09:22:42.863Z</time></trkpt><trkpt lat="44.9554871" lon="6.8944909"><ele>2006.0</ele><time>2026-04-03T09:22:43.872Z</time></trkpt><trkpt lat="44.9555891" lon="6.8944248"><ele>2006.0</ele><time>2026-04-03T09:22:44.856Z</time></trkpt><trkpt lat="44.9556888" lon="6.8943589"><ele>2006.0</ele><time>2026-04-03T09:22:45.854Z</time></trkpt><trkpt lat="44.9557678" lon="6.8942877"><ele>2006.0</ele><time>2026-04-03T09:22:46.863Z</time></trkpt><trkpt lat="44.9559081" lon="6.894259"><ele>2003.5</ele><time>2026-04-03T09:22:47.869Z</time></trkpt><trkpt lat="44.9560134" lon="6.8941981"><ele>2001.0</ele><time>2026-04-03T09:22:48.871Z</time></trkpt><trkpt lat="44.9561318" lon="6.8941154"><ele>1998.5</ele><time>2026-04-03T09:22:49.863Z</time></trkpt><trkpt lat="44.9562378" lon="6.8940154"><ele>1996.0</ele><time>2026-04-03T09:22:50.868Z</time></trkpt><trkpt lat="44.9563189" lon="6.8938886"><ele>1996.0</ele><time>2026-04-03T09:22:51.869Z</time></trkpt><trkpt lat="44.9563213" lon="6.8936942"><ele>1996.0</ele><time>2026-04-03T09:22:52.863Z</time></trkpt><trkpt lat="44.9563257" lon="6.893537"><ele>1996.0</ele><time>2026-04-03T09:22:53.859Z</time></trkpt><trkpt lat="44.9563441" lon="6.8933624"><ele>1996.0</ele><time>2026-04-03T09:22:54.866Z</time></trkpt><trkpt lat="44.9563839" lon="6.8932079"><ele>1994.0</ele><time>2026-04-03T09:22:55.867Z</time></trkpt><trkpt lat="44.9564545" lon="6.89306"><ele>1992.0</ele><time>2026-04-03T09:22:56.87Z</time></trkpt><trkpt lat="44.9565453" lon="6.8929327"><ele>1990.0</ele><time>2026-04-03T09:22:57.867Z</time></trkpt><trkpt lat="44.9566512" lon="6.8928633"><ele>1988.0</ele><time>2026-04-03T09:22:58.871Z</time></trkpt><trkpt lat="44.9567499" lon="6.892791"><ele>1988.0</ele><time>2026-04-03T09:22:59.872Z</time></trkpt><trkpt lat="44.9568798" lon="6.8927266"><ele>1988.0</ele><time>2026-04-03T09:23:00.852Z</time></trkpt><trkpt lat="44.9569609" lon="6.8926327"><ele>1988.0</ele><time>2026-04-03T09:23:01.857Z</time></trkpt><trkpt lat="44.9570616" lon="6.8925293"><ele>1988.0</ele><time>2026-04-03T09:23:02.874Z</time></trkpt><trkpt lat="44.9571428" lon="6.8923987"><ele>1982.75</ele><time>2026-04-03T09:23:03.867Z</time></trkpt><trkpt lat="44.9572417" lon="6.8922654"><ele>1977.5</ele><time>2026-04-03T09:23:04.86Z</time></trkpt><trkpt lat="44.9573456" lon="6.8921717"><ele>1972.25</ele><time>2026-04-03T09:23:05.867Z</time></trkpt><trkpt lat="44.9574509" lon="6.8920711"><ele>1967.0</ele><time>2026-04-03T09:23:06.868Z</time></trkpt><trkpt lat="44.9575911" lon="6.8919994"><ele>1966.25</ele><time>2026-04-03T09:23:07.871Z</time></trkpt><trkpt lat="44.9576784" lon="6.8918948"><ele>1965.5</ele><time>2026-04-03T09:23:08.861Z</time></trkpt><trkpt lat="44.9578028" lon="6.891804"><ele>1964.75</ele><time>2026-04-03T09:23:09.86Z</time></trkpt><trkpt lat="44.957924" lon="6.8917069"><ele>1964.0</ele><time>2026-04-03T09:23:10.865Z</time></trkpt><trkpt lat="44.958038" lon="6.8915893"><ele>1960.75</ele><time>2026-04-03T09:23:11.871Z</time></trkpt><trkpt lat="44.9581456" lon="6.8914975"><ele>1957.5</ele><time>2026-04-03T09:23:12.865Z</time></trkpt><trkpt lat="44.9582454" lon="6.8913698"><ele>1954.25</ele><time>2026-04-03T09:23:13.874Z</time></trkpt><trkpt lat="44.9583172" lon="6.8912787"><ele>1951.0</ele><time>2026-04-03T09:23:14.874Z</time></trkpt><trkpt lat="44.9584113" lon="6.8911841"><ele>1949.25</ele><time>2026-04-03T09:23:15.872Z</time></trkpt><trkpt lat="44.9585106" lon="6.8911351"><ele>1947.5</ele><time>2026-04-03T09:23:16.862Z</time></trkpt><trkpt lat="44.9586268" lon="6.8911162"><ele>1945.75</ele><time>2026-04-03T09:23:17.869Z</time></trkpt><trkpt lat="44.9588189" lon="6.8911081"><ele>1944.0</ele><time>2026-04-03T09:23:18.865Z</time></trkpt><trkpt lat="44.95895" lon="6.8910704"><ele>1944.0</ele><time>2026-04-03T09:23:19.866Z</time></trkpt><trkpt lat="44.9590592" lon="6.8910163"><ele>1944.0</ele><time>2026-04-03T09:23:20.86Z</time></trkpt><trkpt lat="44.959167" lon="6.8909582"><ele>1944.0</ele><time>2026-04-03T09:23:21.865Z</time></trkpt><trkpt lat="44.9592471" lon="6.8908762"><ele>1944.0</ele><time>2026-04-03T09:23:22.855Z</time></trkpt><trkpt lat="44.9593174" lon="6.8907991"><ele>1944.0</ele><time>2026-04-03T09:23:23.867Z</time></trkpt><trkpt lat="44.959397" lon="6.8907245"><ele>1942.0</ele><time>2026-04-03T09:23:24.873Z</time></trkpt><trkpt lat="44.9594738" lon="6.890635"><ele>1940.0</ele><time>2026-04-03T09:23:25.875Z</time></trkpt><trkpt lat="44.9595326" lon="6.8905578"><ele>1938.0</ele><time>2026-04-03T09:23:26.868Z</time></trkpt><trkpt lat="44.9595953" lon="6.8904781"><ele>1936.0</ele><time>2026-04-03T09:23:27.869Z</time></trkpt><trkpt lat="44.9596697" lon="6.8904532"><ele>1934.0</ele><time>2026-04-03T09:23:28.867Z</time></trkpt><trkpt lat="44.9597481" lon="6.8904073"><ele>1932.0</ele><time>2026-04-03T09:23:29.867Z</time></trkpt><trkpt lat="44.9598394" lon="6.8903695"><ele>1932.0</ele><time>2026-04-03T09:23:30.862Z</time></trkpt><trkpt lat="44.9599317" lon="6.8903366"><ele>1932.0</ele><time>2026-04-03T09:23:31.859Z</time></trkpt><trkpt lat="44.9600263" lon="6.8903233"><ele>1932.0</ele><time>2026-04-03T09:23:32.856Z</time></trkpt><trkpt lat="44.9601083" lon="6.8902897"><ele>1932.0</ele><time>2026-04-03T09:23:33.863Z</time></trkpt><trkpt lat="44.9601919" lon="6.8902435"><ele>1932.0</ele><time>2026-04-03T09:23:34.866Z</time></trkpt><trkpt lat="44.9602616" lon="6.8901959"><ele>1932.0</ele><time>2026-04-03T09:23:35.867Z</time></trkpt><trkpt lat="44.9603677" lon="6.8900971"><ele>1931.3999999999999</ele><time>2026-04-03T09:23:37.859Z</time></trkpt><trkpt lat="44.9604238" lon="6.890048"><ele>1930.7999999999997</ele><time>2026-04-03T09:23:38.87Z</time></trkpt><trkpt lat="44.9604778" lon="6.8899909"><ele>1930.2</ele><time>2026-04-03T09:23:39.873Z</time></trkpt><trkpt lat="44.9605639" lon="6.889854"><ele>1929.6</ele><time>2026-04-03T09:23:41.87Z</time></trkpt><trkpt lat="44.9606134" lon="6.8897142"><ele>1929.0</ele><time>2026-04-03T09:23:43.866Z</time></trkpt><trkpt lat="44.9606541" lon="6.8896022"><ele>1929.0</ele><time>2026-04-03T09:23:45.866Z</time></trkpt><trkpt lat="44.9607197" lon="6.8895347"><ele>1929.0</ele><time>2026-04-03T09:23:48.871Z</time></trkpt><trkpt lat="44.9607897" lon="6.8894874"><ele>1929.0</ele><time>2026-04-03T09:23:51.865Z</time></trkpt><trkpt lat="44.9608562" lon="6.8894601"><ele>1929.0</ele><time>2026-04-03T09:23:54.869Z</time></trkpt><trkpt lat="44.9610263" lon="6.8893546"><ele>1929.0</ele><time>2026-04-03T09:23:58.867Z</time></trkpt><trkpt lat="44.9611133" lon="6.8893018"><ele>1927.4</ele><time>2026-04-03T09:23:59.86Z</time></trkpt><trkpt lat="44.9611911" lon="6.8892482"><ele>1925.8000000000002</ele><time>2026-04-03T09:24:00.87Z</time></trkpt><trkpt lat="44.9612886" lon="6.8892305"><ele>1924.1999999999998</ele><time>2026-04-03T09:24:01.865Z</time></trkpt><trkpt lat="44.9613624" lon="6.8891941"><ele>1922.6</ele><time>2026-04-03T09:24:02.864Z</time></trkpt><trkpt lat="44.9614817" lon="6.8891503"><ele>1921.0</ele><time>2026-04-03T09:24:04.863Z</time></trkpt><trkpt lat="44.9615579" lon="6.8891412"><ele>1921.0000000000002</ele><time>2026-04-03T09:24:05.87Z</time></trkpt><trkpt lat="44.9616411" lon="6.8891273"><ele>1921.0</ele><time>2026-04-03T09:24:06.87Z</time></trkpt><trkpt lat="44.9617144" lon="6.8891216"><ele>1921.0</ele><time>2026-04-03T09:24:07.855Z</time></trkpt><trkpt lat="44.9617927" lon="6.8891159"><ele>1921.0</ele><time>2026-04-03T09:24:08.861Z</time></trkpt><trkpt lat="44.9618698" lon="6.8891055"><ele>1921.0000000000002</ele><time>2026-04-03T09:24:09.853Z</time></trkpt><trkpt lat="44.961953" lon="6.8890994"><ele>1921.0</ele><time>2026-04-03T09:24:10.855Z</time></trkpt><trkpt lat="44.9620343" lon="6.8891009"><ele>1919.6</ele><time>2026-04-03T09:24:11.868Z</time></trkpt><trkpt lat="44.9621227" lon="6.8891007"><ele>1918.1999999999998</ele><time>2026-04-03T09:24:12.867Z</time></trkpt><trkpt lat="44.9622103" lon="6.8891037"><ele>1916.8000000000002</ele><time>2026-04-03T09:24:13.871Z</time></trkpt><trkpt lat="44.9623071" lon="6.8890937"><ele>1915.4</ele><time>2026-04-03T09:24:14.859Z</time></trkpt><trkpt lat="44.9623997" lon="6.889092"><ele>1914.0</ele><time>2026-04-03T09:24:15.874Z</time></trkpt><trkpt lat="44.9624993" lon="6.8890906"><ele>1912.0</ele><time>2026-04-03T09:24:16.865Z</time></trkpt><trkpt lat="44.9626057" lon="6.8890924"><ele>1910.0</ele><time>2026-04-03T09:24:17.87Z</time></trkpt><trkpt lat="44.9627099" lon="6.8890964"><ele>1908.0</ele><time>2026-04-03T09:24:18.853Z</time></trkpt><trkpt lat="44.9628142" lon="6.8890975"><ele>1906.0</ele><time>2026-04-03T09:24:19.868Z</time></trkpt><trkpt lat="44.9629126" lon="6.8890921"><ele>1904.0</ele><time>2026-04-03T09:24:20.872Z</time></trkpt><trkpt lat="44.9630085" lon="6.8890814"><ele>1904.0</ele><time>2026-04-03T09:24:21.861Z</time></trkpt><trkpt lat="44.9631054" lon="6.8890757"><ele>1904.0</ele><time>2026-04-03T09:24:22.867Z</time></trkpt><trkpt lat="44.9631884" lon="6.889069"><ele>1904.0</ele><time>2026-04-03T09:24:23.861Z</time></trkpt><trkpt lat="44.9632784" lon="6.889066"><ele>1904.0</ele><time>2026-04-03T09:24:24.867Z</time></trkpt><trkpt lat="44.9633903" lon="6.8890721"><ele>1904.0</ele><time>2026-04-03T09:24:25.866Z</time></trkpt><trkpt lat="44.9634985" lon="6.8890821"><ele>1902.0</ele><time>2026-04-03T09:24:26.87Z</time></trkpt><trkpt lat="44.9636085" lon="6.8890778"><ele>1900.0</ele><time>2026-04-03T09:24:27.871Z</time></trkpt><trkpt lat="44.9637208" lon="6.8890843"><ele>1898.0</ele><time>2026-04-03T09:24:28.859Z</time></trkpt><trkpt lat="44.9638413" lon="6.8890794"><ele>1896.0</ele><time>2026-04-03T09:24:29.867Z</time></trkpt><trkpt lat="44.9639529" lon="6.8890785"><ele>1896.0</ele><time>2026-04-03T09:24:30.858Z</time></trkpt><trkpt lat="44.9640573" lon="6.8890734"><ele>1896.0</ele><time>2026-04-03T09:24:31.854Z</time></trkpt><trkpt lat="44.964179" lon="6.8891153"><ele>1896.0</ele><time>2026-04-03T09:24:32.867Z</time></trkpt><trkpt lat="44.9642875" lon="6.8891554"><ele>1896.0</ele><time>2026-04-03T09:24:33.857Z</time></trkpt><trkpt lat="44.9644022" lon="6.8891925"><ele>1894.0</ele><time>2026-04-03T09:24:34.864Z</time></trkpt><trkpt lat="44.9645182" lon="6.8892046"><ele>1892.0</ele><time>2026-04-03T09:24:35.865Z</time></trkpt><trkpt lat="44.9646104" lon="6.8892493"><ele>1890.0</ele><time>2026-04-03T09:24:36.873Z</time></trkpt><trkpt lat="44.9647265" lon="6.8893103"><ele>1888.0</ele><time>2026-04-03T09:24:37.864Z</time></trkpt><trkpt lat="44.9648259" lon="6.8893241"><ele>1886.0</ele><time>2026-04-03T09:24:38.857Z</time></trkpt><trkpt lat="44.9649357" lon="6.8893728"><ele>1882.8</ele><time>2026-04-03T09:24:39.855Z</time></trkpt><trkpt lat="44.9650516" lon="6.8894172"><ele>1879.6</ele><time>2026-04-03T09:24:40.864Z</time></trkpt><trkpt lat="44.9651499" lon="6.8894277"><ele>1876.4</ele><time>2026-04-03T09:24:41.864Z</time></trkpt><trkpt lat="44.9652639" lon="6.8894292"><ele>1873.2</ele><time>2026-04-03T09:24:42.865Z</time></trkpt><trkpt lat="44.9653612" lon="6.8894347"><ele>1870.0</ele><time>2026-04-03T09:24:43.865Z</time></trkpt><trkpt lat="44.9654955" lon="6.8894658"><ele>1870.0</ele><time>2026-04-03T09:24:44.871Z</time></trkpt><trkpt lat="44.9656216" lon="6.8895323"><ele>1870.0</ele><time>2026-04-03T09:24:45.856Z</time></trkpt><trkpt lat="44.9657537" lon="6.8895691"><ele>1870.0</ele><time>2026-04-03T09:24:46.861Z</time></trkpt><trkpt lat="44.9658921" lon="6.8896228"><ele>1870.0</ele><time>2026-04-03T09:24:47.877Z</time></trkpt><trkpt lat="44.9660335" lon="6.8896699"><ele>1869.0</ele><time>2026-04-03T09:24:48.865Z</time></trkpt><trkpt lat="44.9661525" lon="6.8896937"><ele>1868.0</ele><time>2026-04-03T09:24:49.865Z</time></trkpt><trkpt lat="44.9662327" lon="6.8897261"><ele>1867.0</ele><time>2026-04-03T09:24:50.872Z</time></trkpt><trkpt lat="44.9663557" lon="6.8897663"><ele>1866.0</ele><time>2026-04-03T09:24:51.859Z</time></trkpt><trkpt lat="44.9664646" lon="6.8898151"><ele>1865.0</ele><time>2026-04-03T09:24:52.866Z</time></trkpt><trkpt lat="44.9665968" lon="6.8898603"><ele>1863.75</ele><time>2026-04-03T09:24:53.868Z</time></trkpt><trkpt lat="44.9667119" lon="6.8898962"><ele>1862.5</ele><time>2026-04-03T09:24:54.864Z</time></trkpt><trkpt lat="44.9668213" lon="6.8899469"><ele>1861.25</ele><time>2026-04-03T09:24:55.862Z</time></trkpt><trkpt lat="44.9669442" lon="6.8899881"><ele>1860.0</ele><time>2026-04-03T09:24:56.865Z</time></trkpt><trkpt lat="44.9670528" lon="6.8900754"><ele>1858.5</ele><time>2026-04-03T09:24:57.865Z</time></trkpt><trkpt lat="44.967171" lon="6.8901314"><ele>1857.0</ele><time>2026-04-03T09:24:58.868Z</time></trkpt><trkpt lat="44.9672789" lon="6.8901857"><ele>1855.5</ele><time>2026-04-03T09:24:59.863Z</time></trkpt><trkpt lat="44.9673823" lon="6.8902774"><ele>1854.0</ele><time>2026-04-03T09:25:00.856Z</time></trkpt><trkpt lat="44.9674968" lon="6.8903413"><ele>1853.6</ele><time>2026-04-03T09:25:01.874Z</time></trkpt><trkpt lat="44.9675759" lon="6.890383"><ele>1853.2</ele><time>2026-04-03T09:25:02.866Z</time></trkpt><trkpt lat="44.9676848" lon="6.890417"><ele>1852.7999999999997</ele><time>2026-04-03T09:25:03.864Z</time></trkpt><trkpt lat="44.9677656" lon="6.8904302"><ele>1852.3999999999999</ele><time>2026-04-03T09:25:04.863Z</time></trkpt><trkpt lat="44.9678754" lon="6.8904328"><ele>1852.0</ele><time>2026-04-03T09:25:06.872Z</time></trkpt><trkpt lat="44.9679679" lon="6.8904283"><ele>1852.0</ele><time>2026-04-03T09:25:08.868Z</time></trkpt><trkpt lat="44.9680272" lon="6.8903977"><ele>1851.9999999999998</ele><time>2026-04-03T09:25:11.871Z</time></trkpt><trkpt lat="44.967993" lon="6.890317"><ele>1852.0</ele><time>2026-04-03T09:25:31.855Z</time></trkpt><trkpt lat="44.9679424" lon="6.8902623"><ele>1852.0</ele><time>2026-04-03T09:25:50.867Z</time></trkpt><trkpt lat="44.9678897" lon="6.8902031"><ele>1851.9999999999998</ele><time>2026-04-03T09:26:18.856Z</time></trkpt><trkpt lat="44.9678184" lon="6.890175"><ele>1852.0</ele><time>2026-04-03T09:26:31.868Z</time></trkpt><trkpt lat="44.9677262" lon="6.8901843"><ele>1852.0</ele><time>2026-04-03T09:26:34.868Z</time></trkpt><trkpt lat="44.9676633" lon="6.8901698"><ele>1852.0000000000002</ele><time>2026-04-03T09:26:36.866Z</time></trkpt><trkpt lat="44.9675919" lon="6.8901621"><ele>1852.0</ele><time>2026-04-03T09:26:38.873Z</time></trkpt><trkpt lat="44.9675277" lon="6.8901549"><ele>1852.0</ele><time>2026-04-03T09:26:40.873Z</time></trkpt><trkpt lat="44.9674423" lon="6.8901407"><ele>1852.0</ele><time>2026-04-03T09:26:43.862Z</time></trkpt><trkpt lat="44.9673776" lon="6.8901329"><ele>1852.0000000000002</ele><time>2026-04-03T09:26:45.874Z</time></trkpt><trkpt lat="44.9672828" lon="6.8901205"><ele>1852.0</ele><time>2026-04-03T09:26:48.862Z</time></trkpt><trkpt lat="44.9671904" lon="6.8901083"><ele>1852.3333333333335</ele><time>2026-04-03T09:26:51.86Z</time></trkpt><trkpt lat="44.967101" lon="6.8900942"><ele>1852.6666666666667</ele><time>2026-04-03T09:26:54.859Z</time></trkpt><trkpt lat="44.9670096" lon="6.8900773"><ele>1853.0</ele><time>2026-04-03T09:26:57.858Z</time></trkpt><trkpt lat="44.9669464" lon="6.8900667"><ele>1853.3333333333335</ele><time>2026-04-03T09:26:59.858Z</time></trkpt><trkpt lat="44.9668536" lon="6.8900492"><ele>1853.6666666666667</ele><time>2026-04-03T09:27:02.868Z</time></trkpt><trkpt lat="44.966765" lon="6.8900324"><ele>1854.0</ele><time>2026-04-03T09:27:05.866Z</time></trkpt><trkpt lat="44.9666744" lon="6.8900206"><ele>1856.2</ele><time>2026-04-03T09:27:08.871Z</time></trkpt><trkpt lat="44.9665838" lon="6.8900037"><ele>1858.4</ele><time>2026-04-03T09:27:11.866Z</time></trkpt><trkpt lat="44.9664942" lon="6.8899894"><ele>1860.6</ele><time>2026-04-03T09:27:14.867Z</time></trkpt><trkpt lat="44.9664023" lon="6.8899748"><ele>1862.8</ele><time>2026-04-03T09:27:17.878Z</time></trkpt><trkpt lat="44.9663122" lon="6.8899591"><ele>1865.0</ele><time>2026-04-03T09:27:20.874Z</time></trkpt><trkpt lat="44.9662214" lon="6.8899472"><ele>1865.0</ele><time>2026-04-03T09:27:23.872Z</time></trkpt><trkpt lat="44.9661304" lon="6.8899331"><ele>1865.0</ele><time>2026-04-03T09:27:26.867Z</time></trkpt><trkpt lat="44.966039" lon="6.8899207"><ele>1865.0</ele><time>2026-04-03T09:27:29.866Z</time></trkpt><trkpt lat="44.9659463" lon="6.8899087"><ele>1865.0</ele><time>2026-04-03T09:27:32.864Z</time></trkpt><trkpt lat="44.9658539" lon="6.8898952"><ele>1865.0</ele><time>2026-04-03T09:27:35.862Z</time></trkpt><trkpt lat="44.9657638" lon="6.8898922"><ele>1865.8333333333333</ele><time>2026-04-03T09:27:38.859Z</time></trkpt><trkpt lat="44.9656689" lon="6.8898888"><ele>1866.6666666666665</ele><time>2026-04-03T09:27:41.856Z</time></trkpt><trkpt lat="44.9656023" lon="6.8898674"><ele>1867.5</ele><time>2026-04-03T09:27:43.863Z</time></trkpt><trkpt lat="44.9655403" lon="6.8898506"><ele>1868.3333333333335</ele><time>2026-04-03T09:27:45.856Z</time></trkpt><trkpt lat="44.9654497" lon="6.8898315"><ele>1869.1666666666667</ele><time>2026-04-03T09:27:48.868Z</time></trkpt><trkpt lat="44.9653595" lon="6.8898162"><ele>1870.0</ele><time>2026-04-03T09:27:51.874Z</time></trkpt><trkpt lat="44.9652665" lon="6.8897941"><ele>1870.0000000000002</ele><time>2026-04-03T09:27:54.861Z</time></trkpt><trkpt lat="44.9652035" lon="6.8897817"><ele>1870.0</ele><time>2026-04-03T09:27:56.862Z</time></trkpt><trkpt lat="44.9651395" lon="6.8897701"><ele>1870.0</ele><time>2026-04-03T09:27:58.865Z</time></trkpt><trkpt lat="44.9650473" lon="6.8897462"><ele>1870.0</ele><time>2026-04-03T09:28:01.863Z</time></trkpt><trkpt lat="44.9649527" lon="6.889747"><ele>1870.0000000000002</ele><time>2026-04-03T09:28:04.868Z</time></trkpt><trkpt lat="44.9648588" lon="6.8897356"><ele>1870.0</ele><time>2026-04-03T09:28:07.86Z</time></trkpt><trkpt lat="44.9647651" lon="6.8897216"><ele>1871.6666666666667</ele><time>2026-04-03T09:28:10.862Z</time></trkpt><trkpt lat="44.9646728" lon="6.889704"><ele>1873.3333333333335</ele><time>2026-04-03T09:28:13.867Z</time></trkpt><trkpt lat="44.9645795" lon="6.889688"><ele>1875.0</ele><time>2026-04-03T09:28:16.871Z</time></trkpt><trkpt lat="44.9644863" lon="6.8896758"><ele>1876.6666666666665</ele><time>2026-04-03T09:28:19.873Z</time></trkpt><trkpt lat="44.9644228" lon="6.8896663"><ele>1878.3333333333333</ele><time>2026-04-03T09:28:21.867Z</time></trkpt><trkpt lat="44.9643299" lon="6.8896547"><ele>1880.0</ele><time>2026-04-03T09:28:24.856Z</time></trkpt><trkpt lat="44.9642388" lon="6.8896409"><ele>1881.3333333333333</ele><time>2026-04-03T09:28:27.865Z</time></trkpt><trkpt lat="44.9641473" lon="6.8896269"><ele>1882.6666666666665</ele><time>2026-04-03T09:28:30.86Z</time></trkpt><trkpt lat="44.964056" lon="6.889611"><ele>1884.0</ele><time>2026-04-03T09:28:33.865Z</time></trkpt><trkpt lat="44.9639934" lon="6.8896014"><ele>1885.3333333333335</ele><time>2026-04-03T09:28:35.868Z</time></trkpt><trkpt lat="44.9639023" lon="6.8895927"><ele>1886.6666666666667</ele><time>2026-04-03T09:28:38.869Z</time></trkpt><trkpt lat="44.9638091" lon="6.889581"><ele>1888.0</ele><time>2026-04-03T09:28:41.862Z</time></trkpt><trkpt lat="44.9637164" lon="6.8895692"><ele>1888.0000000000002</ele><time>2026-04-03T09:28:44.865Z</time></trkpt><trkpt lat="44.9636236" lon="6.8895571"><ele>1888.0</ele><time>2026-04-03T09:28:47.863Z</time></trkpt><trkpt lat="44.963561" lon="6.8895466"><ele>1888.0</ele><time>2026-04-03T09:28:49.864Z</time></trkpt><trkpt lat="44.9634678" lon="6.8895312"><ele>1888.0</ele><time>2026-04-03T09:28:52.865Z</time></trkpt><trkpt lat="44.963375" lon="6.8895201"><ele>1888.0000000000002</ele><time>2026-04-03T09:28:55.858Z</time></trkpt><trkpt lat="44.9632842" lon="6.8895054"><ele>1888.0</ele><time>2026-04-03T09:28:58.861Z</time></trkpt><trkpt lat="44.9631926" lon="6.8894912"><ele>1890.6000000000001</ele><time>2026-04-03T09:29:01.862Z</time></trkpt><trkpt lat="44.9631004" lon="6.8894802"><ele>1893.2000000000003</ele><time>2026-04-03T09:29:04.863Z</time></trkpt><trkpt lat="44.9630092" lon="6.8894654"><ele>1895.8</ele><time>2026-04-03T09:29:07.87Z</time></trkpt><trkpt lat="44.9629169" lon="6.8894511"><ele>1898.4</ele><time>2026-04-03T09:29:10.872Z</time></trkpt><trkpt lat="44.9628235" lon="6.8894389"><ele>1901.0</ele><time>2026-04-03T09:29:13.867Z</time></trkpt><trkpt lat="44.9627314" lon="6.8894278"><ele>1900.9999999999998</ele><time>2026-04-03T09:29:16.864Z</time></trkpt><trkpt lat="44.9626379" lon="6.8894142"><ele>1901.0</ele><time>2026-04-03T09:29:19.877Z</time></trkpt><trkpt lat="44.9625752" lon="6.8894036"><ele>1901.0</ele><time>2026-04-03T09:29:21.855Z</time></trkpt><trkpt lat="44.9624843" lon="6.8893904"><ele>1901.0</ele><time>2026-04-03T09:29:24.872Z</time></trkpt><trkpt lat="44.9623924" lon="6.8893785"><ele>1900.9999999999998</ele><time>2026-04-03T09:29:27.872Z</time></trkpt><trkpt lat="44.9622998" lon="6.889367"><ele>1901.0</ele><time>2026-04-03T09:29:30.864Z</time></trkpt><trkpt lat="44.9622093" lon="6.8893513"><ele>1901.9999999999998</ele><time>2026-04-03T09:29:33.862Z</time></trkpt><trkpt lat="44.9621177" lon="6.8893347"><ele>1903.0</ele><time>2026-04-03T09:29:36.867Z</time></trkpt><trkpt lat="44.9620263" lon="6.8893194"><ele>1904.0</ele><time>2026-04-03T09:29:39.863Z</time></trkpt><trkpt lat="44.961934" lon="6.889306"><ele>1905.0</ele><time>2026-04-03T09:29:42.867Z</time></trkpt><trkpt lat="44.9618712" lon="6.8892954"><ele>1905.9999999999998</ele><time>2026-04-03T09:29:44.875Z</time></trkpt><trkpt lat="44.9617795" lon="6.8892828"><ele>1907.0</ele><time>2026-04-03T09:29:47.87Z</time></trkpt><trkpt lat="44.9616858" lon="6.8892681"><ele>1909.3333333333333</ele><time>2026-04-03T09:29:50.868Z</time></trkpt><trkpt lat="44.9616231" lon="6.8892544"><ele>1911.6666666666665</ele><time>2026-04-03T09:29:52.864Z</time></trkpt><trkpt lat="44.9615338" lon="6.8892388"><ele>1914.0</ele><time>2026-04-03T09:29:55.873Z</time></trkpt><trkpt lat="44.961441" lon="6.8892252"><ele>1916.3333333333335</ele><time>2026-04-03T09:29:58.865Z</time></trkpt><trkpt lat="44.961349" lon="6.8892105"><ele>1918.6666666666667</ele><time>2026-04-03T09:30:01.872Z</time></trkpt><trkpt lat="44.9612579" lon="6.889194"><ele>1921.0</ele><time>2026-04-03T09:30:04.856Z</time></trkpt><trkpt lat="44.9611658" lon="6.8891766"><ele>1921.0</ele><time>2026-04-03T09:30:07.867Z</time></trkpt><trkpt lat="44.9610751" lon="6.8891633"><ele>1921.0</ele><time>2026-04-03T09:30:10.854Z</time></trkpt><trkpt lat="44.9609834" lon="6.8891541"><ele>1921.0</ele><time>2026-04-03T09:30:13.868Z</time></trkpt><trkpt lat="44.9608925" lon="6.8891421"><ele>1921.0</ele><time>2026-04-03T09:30:16.86Z</time></trkpt><trkpt lat="44.9608045" lon="6.8891291"><ele>1921.0</ele><time>2026-04-03T09:30:19.859Z</time></trkpt><trkpt lat="44.960714" lon="6.8891129"><ele>1923.1666666666667</ele><time>2026-04-03T09:30:22.866Z</time></trkpt><trkpt lat="44.9606262" lon="6.8890974"><ele>1925.3333333333335</ele><time>2026-04-03T09:30:25.865Z</time></trkpt><trkpt lat="44.9605347" lon="6.8890832"><ele>1927.5</ele><time>2026-04-03T09:30:28.858Z</time></trkpt><trkpt lat="44.9604461" lon="6.8890675"><ele>1929.6666666666665</ele><time>2026-04-03T09:30:31.856Z</time></trkpt><trkpt lat="44.960358" lon="6.8890493"><ele>1931.8333333333333</ele><time>2026-04-03T09:30:34.867Z</time></trkpt><trkpt lat="44.9602698" lon="6.8890328"><ele>1934.0</ele><time>2026-04-03T09:30:37.868Z</time></trkpt><trkpt lat="44.9601803" lon="6.8890177"><ele>1934.0</ele><time>2026-04-03T09:30:40.869Z</time></trkpt><trkpt lat="44.9600901" lon="6.8890023"><ele>1934.0</ele><time>2026-04-03T09:30:43.87Z</time></trkpt><trkpt lat="44.9600014" lon="6.8889866"><ele>1934.0</ele><time>2026-04-03T09:30:46.87Z</time></trkpt><trkpt lat="44.9599118" lon="6.888974"><ele>1934.0</ele><time>2026-04-03T09:30:49.865Z</time></trkpt><trkpt lat="44.9598204" lon="6.8889593"><ele>1934.0</ele><time>2026-04-03T09:30:52.856Z</time></trkpt><trkpt lat="44.9597335" lon="6.8889474"><ele>1937.3333333333333</ele><time>2026-04-03T09:30:55.867Z</time></trkpt><trkpt lat="44.9596458" lon="6.8889365"><ele>1940.6666666666665</ele><time>2026-04-03T09:30:58.876Z</time></trkpt><trkpt lat="44.9595584" lon="6.8889235"><ele>1944.0</ele><time>2026-04-03T09:31:01.869Z</time></trkpt><trkpt lat="44.9594723" lon="6.8889094"><ele>1947.3333333333335</ele><time>2026-04-03T09:31:04.864Z</time></trkpt><trkpt lat="44.9593849" lon="6.8888964"><ele>1950.6666666666667</ele><time>2026-04-03T09:31:07.869Z</time></trkpt><trkpt lat="44.959297" lon="6.8888809"><ele>1954.0</ele><time>2026-04-03T09:31:10.87Z</time></trkpt><trkpt lat="44.9592107" lon="6.8888637"><ele>1958.8333333333335</ele><time>2026-04-03T09:31:13.866Z</time></trkpt><trkpt lat="44.9591214" lon="6.8888494"><ele>1963.6666666666667</ele><time>2026-04-03T09:31:16.868Z</time></trkpt><trkpt lat="44.9590345" lon="6.8888351"><ele>1968.5</ele><time>2026-04-03T09:31:19.859Z</time></trkpt><trkpt lat="44.9589444" lon="6.8888258"><ele>1973.3333333333335</ele><time>2026-04-03T09:31:22.866Z</time></trkpt><trkpt lat="44.9588576" lon="6.888818"><ele>1978.1666666666667</ele><time>2026-04-03T09:31:25.856Z</time></trkpt><trkpt lat="44.9587737" lon="6.8888055"><ele>1983.0</ele><time>2026-04-03T09:31:28.856Z</time></trkpt><trkpt lat="44.9587024" lon="6.8887844"><ele>1983.0</ele><time>2026-04-03T09:31:31.862Z</time></trkpt><trkpt lat="44.9586392" lon="6.888771"><ele>1983.0</ele><time>2026-04-03T09:31:33.863Z</time></trkpt><trkpt lat="44.9585469" lon="6.8887592"><ele>1983.0</ele><time>2026-04-03T09:31:36.858Z</time></trkpt><trkpt lat="44.9584571" lon="6.8887474"><ele>1983.0</ele><time>2026-04-03T09:31:39.859Z</time></trkpt><trkpt lat="44.9583703" lon="6.8887357"><ele>1983.0</ele><time>2026-04-03T09:31:42.87Z</time></trkpt><trkpt lat="44.9582829" lon="6.8887234"><ele>1983.0</ele><time>2026-04-03T09:31:45.865Z</time></trkpt><trkpt lat="44.9581953" lon="6.8887091"><ele>1988.5</ele><time>2026-04-03T09:31:48.879Z</time></trkpt><trkpt lat="44.9581088" lon="6.8886947"><ele>1994.0</ele><time>2026-04-03T09:31:51.869Z</time></trkpt><trkpt lat="44.9580252" lon="6.8886812"><ele>1999.5</ele><time>2026-04-03T09:31:54.868Z</time></trkpt><trkpt lat="44.9579398" lon="6.8886673"><ele>2005.0</ele><time>2026-04-03T09:31:57.872Z</time></trkpt><trkpt lat="44.9578491" lon="6.8886496"><ele>2010.5</ele><time>2026-04-03T09:32:00.861Z</time></trkpt><trkpt lat="44.9577615" lon="6.8886389"><ele>2016.0</ele><time>2026-04-03T09:32:03.869Z</time></trkpt><trkpt lat="44.9576731" lon="6.8886247"><ele>2016.0</ele><time>2026-04-03T09:32:06.865Z</time></trkpt><trkpt lat="44.9575851" lon="6.8886096"><ele>2016.0</ele><time>2026-04-03T09:32:09.859Z</time></trkpt><trkpt lat="44.9574981" lon="6.8885976"><ele>2016.0</ele><time>2026-04-03T09:32:12.866Z</time></trkpt><trkpt lat="44.9574082" lon="6.8885855"><ele>2016.0</ele><time>2026-04-03T09:32:15.865Z</time></trkpt><trkpt lat="44.9573204" lon="6.8885721"><ele>2016.0</ele><time>2026-04-03T09:32:18.869Z</time></trkpt><trkpt lat="44.9572365" lon="6.8885543"><ele>2016.0</ele><time>2026-04-03T09:32:21.86Z</time></trkpt><trkpt lat="44.9571488" lon="6.8885447"><ele>2021.1999999999998</ele><time>2026-04-03T09:32:24.864Z</time></trkpt><trkpt lat="44.9570571" lon="6.8885344"><ele>2026.3999999999999</ele><time>2026-04-03T09:32:27.875Z</time></trkpt><trkpt lat="44.9569639" lon="6.8885256"><ele>2031.6</ele><time>2026-04-03T09:32:30.867Z</time></trkpt><trkpt lat="44.9568727" lon="6.8885139"><ele>2036.8</ele><time>2026-04-03T09:32:33.874Z</time></trkpt><trkpt lat="44.9567801" lon="6.8885033"><ele>2042.0</ele><time>2026-04-03T09:32:36.861Z</time></trkpt><trkpt lat="44.9566895" lon="6.8884892"><ele>2046.4999999999998</ele><time>2026-04-03T09:32:39.86Z</time></trkpt><trkpt lat="44.9566003" lon="6.8884771"><ele>2051.0</ele><time>2026-04-03T09:32:42.874Z</time></trkpt><trkpt lat="44.9565118" lon="6.8884644"><ele>2055.5</ele><time>2026-04-03T09:32:45.871Z</time></trkpt><trkpt lat="44.9564239" lon="6.8884459"><ele>2060.0</ele><time>2026-04-03T09:32:48.868Z</time></trkpt><trkpt lat="44.9563401" lon="6.8884266"><ele>2064.5</ele><time>2026-04-03T09:32:51.863Z</time></trkpt><trkpt lat="44.9562603" lon="6.888407"><ele>2069.0</ele><time>2026-04-03T09:32:55.875Z</time></trkpt><trkpt lat="44.9561808" lon="6.8883933"><ele>2069.6666666666665</ele><time>2026-04-03T09:32:59.86Z</time></trkpt><trkpt lat="44.9561089" lon="6.8883776"><ele>2070.333333333333</ele><time>2026-04-03T09:33:02.856Z</time></trkpt><trkpt lat="44.9560212" lon="6.88836"><ele>2071.0</ele><time>2026-04-03T09:33:05.861Z</time></trkpt><trkpt lat="44.9559578" lon="6.8883496"><ele>2071.6666666666665</ele><time>2026-04-03T09:33:07.87Z</time></trkpt><trkpt lat="44.9558686" lon="6.8883362"><ele>2072.3333333333335</ele><time>2026-04-03T09:33:10.87Z</time></trkpt><trkpt lat="44.9557767" lon="6.8883212"><ele>2073.0</ele><time>2026-04-03T09:33:13.864Z</time></trkpt><trkpt lat="44.9556838" lon="6.8883072"><ele>2076.2000000000003</ele><time>2026-04-03T09:33:16.857Z</time></trkpt><trkpt lat="44.9555915" lon="6.8882973"><ele>2079.4</ele><time>2026-04-03T09:33:19.864Z</time></trkpt><trkpt lat="44.9555005" lon="6.8882853"><ele>2082.6000000000004</ele><time>2026-04-03T09:33:22.871Z</time></trkpt><trkpt lat="44.9554106" lon="6.8882723"><ele>2085.8</ele><time>2026-04-03T09:33:25.856Z</time></trkpt><trkpt lat="44.9553216" lon="6.8882582"><ele>2089.0</ele><time>2026-04-03T09:33:28.865Z</time></trkpt><trkpt lat="44.955233" lon="6.8882431"><ele>2089.0</ele><time>2026-04-03T09:33:31.867Z</time></trkpt><trkpt lat="44.9551412" lon="6.888225"><ele>2089.0</ele><time>2026-04-03T09:33:34.874Z</time></trkpt><trkpt lat="44.9550481" lon="6.8882109"><ele>2089.0</ele><time>2026-04-03T09:33:37.859Z</time></trkpt><trkpt lat="44.9549559" lon="6.8881963"><ele>2089.0</ele><time>2026-04-03T09:33:40.862Z</time></trkpt><trkpt lat="44.9548645" lon="6.8881855"><ele>2089.0</ele><time>2026-04-03T09:33:43.874Z</time></trkpt><trkpt lat="44.9547736" lon="6.888175"><ele>2091.4285714285716</ele><time>2026-04-03T09:33:46.857Z</time></trkpt><trkpt lat="44.9546825" lon="6.8881577"><ele>2093.857142857143</ele><time>2026-04-03T09:33:49.875Z</time></trkpt><trkpt lat="44.9546167" lon="6.8881474"><ele>2096.285714285714</ele><time>2026-04-03T09:33:51.872Z</time></trkpt><trkpt lat="44.9545343" lon="6.8881407"><ele>2098.714285714286</ele><time>2026-04-03T09:33:54.867Z</time></trkpt><trkpt lat="44.954471" lon="6.8881383"><ele>2101.142857142857</ele><time>2026-04-03T09:33:57.865Z</time></trkpt><trkpt lat="44.9543933" lon="6.8881298"><ele>2103.5714285714284</ele><time>2026-04-03T09:34:01.865Z</time></trkpt><trkpt lat="44.9543879" lon="6.8882213"><ele>2106.0</ele><time>2026-04-03T09:34:10.852Z</time></trkpt><trkpt lat="44.9544274" lon="6.888292"><ele>2106.0</ele><time>2026-04-03T09:34:16.865Z</time></trkpt><trkpt lat="44.9545116" lon="6.8883363"><ele>2106.0</ele><time>2026-04-03T09:34:21.858Z</time></trkpt><trkpt lat="44.9546215" lon="6.8883816"><ele>2106.0</ele><time>2026-04-03T09:34:23.87Z</time></trkpt><trkpt lat="44.9547513" lon="6.8884039"><ele>2106.0</ele><time>2026-04-03T09:34:25.869Z</time></trkpt><trkpt lat="44.9548218" lon="6.8884464"><ele>2106.0</ele><time>2026-04-03T09:34:26.863Z</time></trkpt><trkpt lat="44.9548961" lon="6.8884506"><ele>2105.3333333333335</ele><time>2026-04-03T09:34:27.865Z</time></trkpt><trkpt lat="44.9549786" lon="6.8884428"><ele>2104.6666666666665</ele><time>2026-04-03T09:34:28.861Z</time></trkpt><trkpt lat="44.9550595" lon="6.8884641"><ele>2104.0</ele><time>2026-04-03T09:34:29.854Z</time></trkpt><trkpt lat="44.9551517" lon="6.8885079"><ele>2103.333333333333</ele><time>2026-04-03T09:34:30.866Z</time></trkpt><trkpt lat="44.955222" lon="6.8885932"><ele>2102.6666666666665</ele><time>2026-04-03T09:34:31.858Z</time></trkpt><trkpt lat="44.9552853" lon="6.8886868"><ele>2102.0</ele><time>2026-04-03T09:34:32.864Z</time></trkpt><trkpt lat="44.9553759" lon="6.8887276"><ele>2099.2</ele><time>2026-04-03T09:34:33.866Z</time></trkpt><trkpt lat="44.955459" lon="6.8887339"><ele>2096.3999999999996</ele><time>2026-04-03T09:34:34.856Z</time></trkpt><trkpt lat="44.9555407" lon="6.8887623"><ele>2093.6000000000004</ele><time>2026-04-03T09:34:35.868Z</time></trkpt><trkpt lat="44.9556322" lon="6.8887677"><ele>2090.8</ele><time>2026-04-03T09:34:36.865Z</time></trkpt><trkpt lat="44.9557204" lon="6.8886688"><ele>2088.0</ele><time>2026-04-03T09:34:37.854Z</time></trkpt><trkpt lat="44.9558097" lon="6.8886159"><ele>2084.2000000000003</ele><time>2026-04-03T09:34:38.862Z</time></trkpt><trkpt lat="44.9559118" lon="6.8886243"><ele>2080.4</ele><time>2026-04-03T09:34:39.863Z</time></trkpt><trkpt lat="44.9560231" lon="6.8886157"><ele>2076.6000000000004</ele><time>2026-04-03T09:34:40.866Z</time></trkpt><trkpt lat="44.9561223" lon="6.8885929"><ele>2072.8</ele><time>2026-04-03T09:34:41.865Z</time></trkpt><trkpt lat="44.9562198" lon="6.888541"><ele>2069.0</ele><time>2026-04-03T09:34:42.872Z</time></trkpt><trkpt lat="44.9563094" lon="6.8884798"><ele>2070.333333333333</ele><time>2026-04-03T09:34:43.861Z</time></trkpt><trkpt lat="44.9564006" lon="6.8884227"><ele>2071.6666666666665</ele><time>2026-04-03T09:34:44.869Z</time></trkpt><trkpt lat="44.9564901" lon="6.8881089"><ele>2073.0</ele><time>2026-04-03T09:34:45.873Z</time></trkpt><trkpt lat="44.956613" lon="6.8880052"><ele>2068.0</ele><time>2026-04-03T09:34:46.87Z</time></trkpt><trkpt lat="44.9567584" lon="6.8880234"><ele>2063.0</ele><time>2026-04-03T09:34:47.869Z</time></trkpt><trkpt lat="44.956853" lon="6.8879006"><ele>2058.0</ele><time>2026-04-03T09:34:48.872Z</time></trkpt><trkpt lat="44.9569302" lon="6.8877692"><ele>2053.0</ele><time>2026-04-03T09:34:49.862Z</time></trkpt><trkpt lat="44.9569876" lon="6.8876129"><ele>2052.75</ele><time>2026-04-03T09:34:50.863Z</time></trkpt><trkpt lat="44.9570716" lon="6.8874697"><ele>2052.5</ele><time>2026-04-03T09:34:51.856Z</time></trkpt><trkpt lat="44.957181" lon="6.8874008"><ele>2052.25</ele><time>2026-04-03T09:34:52.864Z</time></trkpt><trkpt lat="44.9572852" lon="6.8873015"><ele>2052.0</ele><time>2026-04-03T09:34:53.863Z</time></trkpt><trkpt lat="44.9573988" lon="6.8872014"><ele>2052.0</ele><time>2026-04-03T09:34:54.856Z</time></trkpt><trkpt lat="44.9575036" lon="6.8871033"><ele>2052.0</ele><time>2026-04-03T09:34:55.871Z</time></trkpt><trkpt lat="44.9575911" lon="6.8869988"><ele>2052.0</ele><time>2026-04-03T09:34:56.869Z</time></trkpt><trkpt lat="44.9577038" lon="6.8869487"><ele>2052.0</ele><time>2026-04-03T09:34:57.864Z</time></trkpt><trkpt lat="44.9578357" lon="6.8869293"><ele>2049.0</ele><time>2026-04-03T09:34:58.868Z</time></trkpt><trkpt lat="44.9579344" lon="6.886861"><ele>2046.0</ele><time>2026-04-03T09:34:59.86Z</time></trkpt><trkpt lat="44.9580569" lon="6.8868063"><ele>2043.0</ele><time>2026-04-03T09:35:00.867Z</time></trkpt><trkpt lat="44.9581596" lon="6.8866924"><ele>2040.0</ele><time>2026-04-03T09:35:01.852Z</time></trkpt><trkpt lat="44.9582548" lon="6.8865936"><ele>2040.0</ele><time>2026-04-03T09:35:02.867Z</time></trkpt><trkpt lat="44.9583541" lon="6.8865086"><ele>2040.0</ele><time>2026-04-03T09:35:03.856Z</time></trkpt><trkpt lat="44.9584503" lon="6.8864226"><ele>2040.0</ele><time>2026-04-03T09:35:04.871Z</time></trkpt><trkpt lat="44.9585386" lon="6.8863458"><ele>2040.0</ele><time>2026-04-03T09:35:05.863Z</time></trkpt><trkpt lat="44.9586189" lon="6.8862552"><ele>2040.0</ele><time>2026-04-03T09:35:06.865Z</time></trkpt><trkpt lat="44.9586922" lon="6.886146"><ele>2038.4</ele><time>2026-04-03T09:35:07.866Z</time></trkpt><trkpt lat="44.9587766" lon="6.8860647"><ele>2036.8</ele><time>2026-04-03T09:35:08.876Z</time></trkpt><trkpt lat="44.9588822" lon="6.8860181"><ele>2035.1999999999998</ele><time>2026-04-03T09:35:09.875Z</time></trkpt><trkpt lat="44.9589673" lon="6.8859433"><ele>2033.6</ele><time>2026-04-03T09:35:10.857Z</time></trkpt><trkpt lat="44.9590334" lon="6.8858201"><ele>2032.0</ele><time>2026-04-03T09:35:11.867Z</time></trkpt><trkpt lat="44.9591156" lon="6.885749"><ele>2032.0000000000002</ele><time>2026-04-03T09:35:12.877Z</time></trkpt><trkpt lat="44.9591966" lon="6.8856801"><ele>2032.0</ele><time>2026-04-03T09:35:13.868Z</time></trkpt><trkpt lat="44.9592717" lon="6.8856037"><ele>2032.0</ele><time>2026-04-03T09:35:14.854Z</time></trkpt><trkpt lat="44.9593377" lon="6.8855224"><ele>2032.0</ele><time>2026-04-03T09:35:15.857Z</time></trkpt><trkpt lat="44.9593926" lon="6.885436"><ele>2032.0000000000002</ele><time>2026-04-03T09:35:16.868Z</time></trkpt><trkpt lat="44.9594399" lon="6.8853553"><ele>2032.0</ele><time>2026-04-03T09:35:17.874Z</time></trkpt><trkpt lat="44.9594784" lon="6.8852695"><ele>2029.0000000000002</ele><time>2026-04-03T09:35:18.86Z</time></trkpt><trkpt lat="44.9595224" lon="6.8851905"><ele>2026.0</ele><time>2026-04-03T09:35:19.868Z</time></trkpt><trkpt lat="44.9595799" lon="6.8851475"><ele>2023.0</ele><time>2026-04-03T09:35:20.858Z</time></trkpt><trkpt lat="44.9596973" lon="6.8851757"><ele>2020.0</ele><time>2026-04-03T09:35:22.871Z</time></trkpt><trkpt lat="44.9597949" lon="6.8852265"><ele>2017.0000000000002</ele><time>2026-04-03T09:35:24.864Z</time></trkpt><trkpt lat="44.9598636" lon="6.8852175"><ele>2014.0</ele><time>2026-04-03T09:35:25.876Z</time></trkpt><trkpt lat="44.9599717" lon="6.8852848"><ele>2012.5000000000002</ele><time>2026-04-03T09:35:27.854Z</time></trkpt><trkpt lat="44.9600369" lon="6.8852992"><ele>2011.0</ele><time>2026-04-03T09:35:28.872Z</time></trkpt><trkpt lat="44.9601356" lon="6.8853759"><ele>2009.5</ele><time>2026-04-03T09:35:30.865Z</time></trkpt><trkpt lat="44.9602018" lon="6.8853557"><ele>2008.0</ele><time>2026-04-03T09:35:32.86Z</time></trkpt><trkpt lat="44.960158" lon="6.8852799"><ele>2006.5000000000002</ele><time>2026-04-03T09:36:17.865Z</time></trkpt><trkpt lat="44.960171" lon="6.885176"><ele>2005.0</ele><time>2026-04-03T09:36:22.867Z</time></trkpt><trkpt lat="44.9602077" lon="6.8850514"><ele>2005.0000000000002</ele><time>2026-04-03T09:36:25.867Z</time></trkpt><trkpt lat="44.9602642" lon="6.8850075"><ele>2005.0</ele><time>2026-04-03T09:36:30.867Z</time></trkpt><trkpt lat="44.9603441" lon="6.8850275"><ele>2005.0</ele><time>2026-04-03T09:36:32.869Z</time></trkpt><trkpt lat="44.9604035" lon="6.8850574"><ele>2005.0</ele><time>2026-04-03T09:42:08.862Z</time></trkpt><trkpt lat="44.9604927" lon="6.8851475"><ele>2005.0000000000002</ele><time>2026-04-03T09:42:10.869Z</time></trkpt><trkpt lat="44.9605749" lon="6.8852542"><ele>2005.0</ele><time>2026-04-03T09:42:12.865Z</time></trkpt><trkpt lat="44.9606632" lon="6.8853287"><ele>2003.0</ele><time>2026-04-03T09:42:14.859Z</time></trkpt><trkpt lat="44.9606704" lon="6.8854293"><ele>2001.0000000000002</ele><time>2026-04-03T09:42:16.857Z</time></trkpt><trkpt lat="44.96072" lon="6.88549"><ele>1999.0</ele><time>2026-04-03T09:42:25.857Z</time></trkpt><trkpt lat="44.9607891" lon="6.8855864"><ele>1997.0</ele><time>2026-04-03T09:42:27.878Z</time></trkpt><trkpt lat="44.9608393" lon="6.8856403"><ele>1995.0000000000002</ele><time>2026-04-03T09:42:28.868Z</time></trkpt><trkpt lat="44.9608926" lon="6.8857037"><ele>1993.0</ele><time>2026-04-03T09:42:29.869Z</time></trkpt><trkpt lat="44.9608745" lon="6.8857932"><ele>1991.0</ele><time>2026-04-03T09:42:30.864Z</time></trkpt><trkpt lat="44.9609413" lon="6.8859954"><ele>1988.6</ele><time>2026-04-03T09:42:32.874Z</time></trkpt><trkpt lat="44.9609478" lon="6.8860935"><ele>1986.1999999999998</ele><time>2026-04-03T09:42:33.864Z</time></trkpt><trkpt lat="44.9608754" lon="6.8862493"><ele>1983.8000000000002</ele><time>2026-04-03T09:42:34.866Z</time></trkpt><trkpt lat="44.9608465" lon="6.8863949"><ele>1981.4</ele><time>2026-04-03T09:42:35.87Z</time></trkpt><trkpt lat="44.9607972" lon="6.8865475"><ele>1979.0</ele><time>2026-04-03T09:42:36.871Z</time></trkpt><trkpt lat="44.9607561" lon="6.8866957"><ele>1975.5</ele><time>2026-04-03T09:42:37.867Z</time></trkpt><trkpt lat="44.9607405" lon="6.8868585"><ele>1972.0</ele><time>2026-04-03T09:42:38.875Z</time></trkpt><trkpt lat="44.9607212" lon="6.8870216"><ele>1968.5</ele><time>2026-04-03T09:42:39.862Z</time></trkpt><trkpt lat="44.9608389" lon="6.8870255"><ele>1965.0</ele><time>2026-04-03T09:42:40.856Z</time></trkpt><trkpt lat="44.9609227" lon="6.8871122"><ele>1960.3333333333335</ele><time>2026-04-03T09:42:41.864Z</time></trkpt><trkpt lat="44.9610098" lon="6.8872067"><ele>1955.6666666666667</ele><time>2026-04-03T09:42:42.866Z</time></trkpt><trkpt lat="44.9611689" lon="6.887431"><ele>1951.0</ele><time>2026-04-03T09:42:43.863Z</time></trkpt><trkpt lat="44.961247" lon="6.887602"><ele>1946.75</ele><time>2026-04-03T09:42:44.864Z</time></trkpt><trkpt lat="44.9612554" lon="6.8877913"><ele>1942.5</ele><time>2026-04-03T09:42:45.859Z</time></trkpt><trkpt lat="44.9613125" lon="6.8879938"><ele>1938.25</ele><time>2026-04-03T09:42:46.859Z</time></trkpt><trkpt lat="44.9613837" lon="6.8881801"><ele>1934.0</ele><time>2026-04-03T09:42:47.864Z</time></trkpt><trkpt lat="44.9615237" lon="6.8881655"><ele>1930.0</ele><time>2026-04-03T09:42:48.869Z</time></trkpt><trkpt lat="44.9617043" lon="6.8881649"><ele>1926.0</ele><time>2026-04-03T09:42:49.867Z</time></trkpt><trkpt lat="44.9618979" lon="6.8881167"><ele>1922.0</ele><time>2026-04-03T09:42:50.864Z</time></trkpt><trkpt lat="44.9620277" lon="6.8881843"><ele>1922.0</ele><time>2026-04-03T09:42:51.861Z</time></trkpt><trkpt lat="44.9621701" lon="6.8882365"><ele>1922.0</ele><time>2026-04-03T09:42:52.863Z</time></trkpt><trkpt lat="44.9623182" lon="6.8883263"><ele>1922.0</ele><time>2026-04-03T09:42:53.869Z</time></trkpt><trkpt lat="44.962468" lon="6.8885297"><ele>1916.0</ele><time>2026-04-03T09:42:54.86Z</time></trkpt><trkpt lat="44.9625803" lon="6.8886373"><ele>1910.0</ele><time>2026-04-03T09:42:55.871Z</time></trkpt><trkpt lat="44.9627282" lon="6.8887062"><ele>1904.0</ele><time>2026-04-03T09:42:56.877Z</time></trkpt><trkpt lat="44.962875" lon="6.8887979"><ele>1904.0</ele><time>2026-04-03T09:42:57.867Z</time></trkpt><trkpt lat="44.9629976" lon="6.888848"><ele>1904.0</ele><time>2026-04-03T09:42:58.864Z</time></trkpt><trkpt lat="44.963136" lon="6.8889008"><ele>1904.0</ele><time>2026-04-03T09:42:59.86Z</time></trkpt><trkpt lat="44.9632938" lon="6.8889872"><ele>1904.0</ele><time>2026-04-03T09:43:00.871Z</time></trkpt><trkpt lat="44.9634174" lon="6.8890022"><ele>1902.0</ele><time>2026-04-03T09:43:01.869Z</time></trkpt><trkpt lat="44.9635712" lon="6.889033"><ele>1900.0</ele><time>2026-04-03T09:43:02.872Z</time></trkpt><trkpt lat="44.9637108" lon="6.8890773"><ele>1898.0</ele><time>2026-04-03T09:43:03.862Z</time></trkpt><trkpt lat="44.9638047" lon="6.8891098"><ele>1896.0</ele><time>2026-04-03T09:43:04.872Z</time></trkpt><trkpt lat="44.9639411" lon="6.8891503"><ele>1896.0</ele><time>2026-04-03T09:43:05.861Z</time></trkpt><trkpt lat="44.9640223" lon="6.8891882"><ele>1896.0</ele><time>2026-04-03T09:43:06.855Z</time></trkpt><trkpt lat="44.9641421" lon="6.8892244"><ele>1896.0</ele><time>2026-04-03T09:43:07.865Z</time></trkpt><trkpt lat="44.9642752" lon="6.8892777"><ele>1896.0</ele><time>2026-04-03T09:43:08.86Z</time></trkpt><trkpt lat="44.9644046" lon="6.8892836"><ele>1892.0</ele><time>2026-04-03T09:43:09.867Z</time></trkpt><trkpt lat="44.9645218" lon="6.8893473"><ele>1888.0</ele><time>2026-04-03T09:43:10.861Z</time></trkpt><trkpt lat="44.9646439" lon="6.8893851"><ele>1884.0</ele><time>2026-04-03T09:43:11.861Z</time></trkpt><trkpt lat="44.9647443" lon="6.8894147"><ele>1880.0</ele><time>2026-04-03T09:43:12.866Z</time></trkpt><trkpt lat="44.9648587" lon="6.889453"><ele>1880.0</ele><time>2026-04-03T09:43:13.875Z</time></trkpt><trkpt lat="44.9649892" lon="6.8894835"><ele>1880.0</ele><time>2026-04-03T09:43:14.869Z</time></trkpt><trkpt lat="44.9651198" lon="6.8895292"><ele>1880.0</ele><time>2026-04-03T09:43:15.865Z</time></trkpt><trkpt lat="44.9652289" lon="6.8895533"><ele>1880.0</ele><time>2026-04-03T09:43:16.867Z</time></trkpt><trkpt lat="44.9653675" lon="6.8895511"><ele>1877.5</ele><time>2026-04-03T09:43:17.865Z</time></trkpt><trkpt lat="44.9655169" lon="6.8895765"><ele>1875.0</ele><time>2026-04-03T09:43:18.875Z</time></trkpt><trkpt lat="44.9656562" lon="6.8895877"><ele>1872.5</ele><time>2026-04-03T09:43:19.868Z</time></trkpt><trkpt lat="44.9657422" lon="6.8896121"><ele>1870.0</ele><time>2026-04-03T09:43:20.857Z</time></trkpt><trkpt lat="44.9658253" lon="6.8896562"><ele>1868.75</ele><time>2026-04-03T09:43:21.866Z</time></trkpt><trkpt lat="44.965943" lon="6.8896971"><ele>1867.5</ele><time>2026-04-03T09:43:22.86Z</time></trkpt><trkpt lat="44.966069" lon="6.8897491"><ele>1866.25</ele><time>2026-04-03T09:43:23.878Z</time></trkpt><trkpt lat="44.9661959" lon="6.8898244"><ele>1865.0</ele><time>2026-04-03T09:43:24.864Z</time></trkpt><trkpt lat="44.966329" lon="6.8899"><ele>1865.0</ele><time>2026-04-03T09:43:25.863Z</time></trkpt><trkpt lat="44.9664674" lon="6.8899776"><ele>1865.0</ele><time>2026-04-03T09:43:26.868Z</time></trkpt><trkpt lat="44.9665655" lon="6.8900553"><ele>1865.0</ele><time>2026-04-03T09:43:27.873Z</time></trkpt><trkpt lat="44.9666597" lon="6.8901256"><ele>1865.0</ele><time>2026-04-03T09:43:28.873Z</time></trkpt><trkpt lat="44.9667753" lon="6.8901883"><ele>1862.25</ele><time>2026-04-03T09:43:29.856Z</time></trkpt><trkpt lat="44.9668975" lon="6.8901992"><ele>1859.5</ele><time>2026-04-03T09:43:30.863Z</time></trkpt><trkpt lat="44.9670212" lon="6.890216"><ele>1856.75</ele><time>2026-04-03T09:43:31.869Z</time></trkpt><trkpt lat="44.9671463" lon="6.8902583"><ele>1854.0</ele><time>2026-04-03T09:43:32.866Z</time></trkpt><trkpt lat="44.9672729" lon="6.8903053"><ele>1854.0</ele><time>2026-04-03T09:43:33.855Z</time></trkpt><trkpt lat="44.9674051" lon="6.8903289"><ele>1854.0</ele><time>2026-04-03T09:43:34.868Z</time></trkpt><trkpt lat="44.9675401" lon="6.8903518"><ele>1854.0</ele><time>2026-04-03T09:43:35.86Z</time></trkpt><trkpt lat="44.9676581" lon="6.8903944"><ele>1854.0</ele><time>2026-04-03T09:43:36.859Z</time></trkpt><trkpt lat="44.967751" lon="6.8904925"><ele>1853.6666666666667</ele><time>2026-04-03T09:43:38.867Z</time></trkpt><trkpt lat="44.9678358" lon="6.8905344"><ele>1853.3333333333335</ele><time>2026-04-03T09:43:39.858Z</time></trkpt><trkpt lat="44.967927" lon="6.8905667"><ele>1853.0</ele><time>2026-04-03T09:43:40.875Z</time></trkpt><trkpt lat="44.9680103" lon="6.8905779"><ele>1852.6666666666667</ele><time>2026-04-03T09:43:41.866Z</time></trkpt><trkpt lat="44.9680908" lon="6.8905388"><ele>1852.3333333333335</ele><time>2026-04-03T09:43:42.874Z</time></trkpt><trkpt lat="44.9680789" lon="6.8904442"><ele>1852.0</ele><time>2026-04-03T09:43:44.858Z</time></trkpt><trkpt lat="44.968032" lon="6.890381"><ele>1852.0</ele><time>2026-04-03T09:43:47.862Z</time></trkpt><trkpt lat="44.9679846" lon="6.89032"><ele>1851.9999999999998</ele><time>2026-04-03T09:45:12.874Z</time></trkpt><trkpt lat="44.9679355" lon="6.890261"><ele>1852.0</ele><time>2026-04-03T09:46:04.861Z</time></trkpt><trkpt lat="44.9678724" lon="6.8902124"><ele>1852.0</ele><time>2026-04-03T09:46:45.859Z</time></trkpt><trkpt lat="44.9678106" lon="6.8901815"><ele>1851.9999999999998</ele><time>2026-04-03T09:46:59.868Z</time></trkpt><trkpt lat="44.9677479" lon="6.8901698"><ele>1852.0</ele><time>2026-04-03T09:47:02.867Z</time></trkpt><trkpt lat="44.9676745" lon="6.8901572"><ele>1852.0</ele><time>2026-04-03T09:47:05.864Z</time></trkpt><trkpt lat="44.9676054" lon="6.8901445"><ele>1852.0000000000002</ele><time>2026-04-03T09:47:08.866Z</time></trkpt><trkpt lat="44.9675403" lon="6.8901219"><ele>1852.0</ele><time>2026-04-03T09:47:11.865Z</time></trkpt><trkpt lat="44.9674706" lon="6.890112"><ele>1852.0</ele><time>2026-04-03T09:47:14.864Z</time></trkpt><trkpt lat="44.9673958" lon="6.8901086"><ele>1852.0</ele><time>2026-04-03T09:47:17.858Z</time></trkpt><trkpt lat="44.9673219" lon="6.890103"><ele>1852.0000000000002</ele><time>2026-04-03T09:47:20.862Z</time></trkpt><trkpt lat="44.9672345" lon="6.8900977"><ele>1852.0</ele><time>2026-04-03T09:47:23.86Z</time></trkpt><trkpt lat="44.9671406" lon="6.8900896"><ele>1853.3333333333335</ele><time>2026-04-03T09:47:26.861Z</time></trkpt><trkpt lat="44.9670619" lon="6.8900829"><ele>1854.6666666666667</ele><time>2026-04-03T09:47:29.871Z</time></trkpt><trkpt lat="44.9669986" lon="6.8900786"><ele>1856.0</ele><time>2026-04-03T09:47:32.859Z</time></trkpt><trkpt lat="44.9669277" lon="6.8900734"><ele>1857.3333333333335</ele><time>2026-04-03T09:47:35.872Z</time></trkpt><trkpt lat="44.9668448" lon="6.8900639"><ele>1858.6666666666667</ele><time>2026-04-03T09:47:38.871Z</time></trkpt><trkpt lat="44.9667535" lon="6.8900497"><ele>1860.0</ele><time>2026-04-03T09:47:41.871Z</time></trkpt><trkpt lat="44.9666901" lon="6.8900386"><ele>1861.0</ele><time>2026-04-03T09:47:43.873Z</time></trkpt><trkpt lat="44.9665959" lon="6.8900237"><ele>1862.0</ele><time>2026-04-03T09:47:46.867Z</time></trkpt><trkpt lat="44.9665039" lon="6.8900115"><ele>1863.0</ele><time>2026-04-03T09:47:49.869Z</time></trkpt><trkpt lat="44.9664103" lon="6.8899973"><ele>1864.0</ele><time>2026-04-03T09:47:52.861Z</time></trkpt><trkpt lat="44.9663162" lon="6.8899821"><ele>1865.0</ele><time>2026-04-03T09:47:55.872Z</time></trkpt><trkpt lat="44.9662229" lon="6.8899693"><ele>1865.0</ele><time>2026-04-03T09:47:58.869Z</time></trkpt><trkpt lat="44.9661304" lon="6.8899561"><ele>1865.0</ele><time>2026-04-03T09:48:01.87Z</time></trkpt><trkpt lat="44.9660374" lon="6.8899441"><ele>1865.0</ele><time>2026-04-03T09:48:04.873Z</time></trkpt><trkpt lat="44.9659455" lon="6.8899279"><ele>1865.0</ele><time>2026-04-03T09:48:07.864Z</time></trkpt><trkpt lat="44.9658562" lon="6.889909"><ele>1865.0</ele><time>2026-04-03T09:48:10.863Z</time></trkpt><trkpt lat="44.9657646" lon="6.8898936"><ele>1866.0</ele><time>2026-04-03T09:48:13.858Z</time></trkpt><trkpt lat="44.9656727" lon="6.889878"><ele>1867.0</ele><time>2026-04-03T09:48:16.868Z</time></trkpt><trkpt lat="44.9655805" lon="6.8898622"><ele>1868.0</ele><time>2026-04-03T09:48:19.865Z</time></trkpt><trkpt lat="44.9654877" lon="6.8898469"><ele>1869.0</ele><time>2026-04-03T09:48:22.865Z</time></trkpt><trkpt lat="44.965394" lon="6.8898339"><ele>1870.0</ele><time>2026-04-03T09:48:25.865Z</time></trkpt><trkpt lat="44.9653018" lon="6.8898172"><ele>1870.0000000000002</ele><time>2026-04-03T09:48:28.856Z</time></trkpt><trkpt lat="44.9652092" lon="6.8898022"><ele>1870.0</ele><time>2026-04-03T09:48:31.859Z</time></trkpt><trkpt lat="44.9651154" lon="6.8897893"><ele>1870.0</ele><time>2026-04-03T09:48:34.868Z</time></trkpt><trkpt lat="44.9650222" lon="6.8897789"><ele>1870.0</ele><time>2026-04-03T09:48:37.867Z</time></trkpt><trkpt lat="44.9649296" lon="6.8897644"><ele>1870.0000000000002</ele><time>2026-04-03T09:48:40.865Z</time></trkpt><trkpt lat="44.9648665" lon="6.8897554"><ele>1870.0</ele><time>2026-04-03T09:48:42.861Z</time></trkpt><trkpt lat="44.9647737" lon="6.8897418"><ele>1872.0</ele><time>2026-04-03T09:48:45.857Z</time></trkpt><trkpt lat="44.9646819" lon="6.8897252"><ele>1874.0</ele><time>2026-04-03T09:48:48.867Z</time></trkpt><trkpt lat="44.9645894" lon="6.8897086"><ele>1876.0</ele><time>2026-04-03T09:48:51.864Z</time></trkpt><trkpt lat="44.9644984" lon="6.8896921"><ele>1878.0</ele><time>2026-04-03T09:48:54.878Z</time></trkpt><trkpt lat="44.9644064" lon="6.8896785"><ele>1880.0</ele><time>2026-04-03T09:48:57.875Z</time></trkpt><trkpt lat="44.9643154" lon="6.8896645"><ele>1879.9999999999998</ele><time>2026-04-03T09:49:00.858Z</time></trkpt><trkpt lat="44.964226" lon="6.8896511"><ele>1880.0</ele><time>2026-04-03T09:49:03.863Z</time></trkpt><trkpt lat="44.9641631" lon="6.889643"><ele>1880.0</ele><time>2026-04-03T09:49:05.867Z</time></trkpt><trkpt lat="44.964073" lon="6.8896288"><ele>1880.0</ele><time>2026-04-03T09:49:08.866Z</time></trkpt><trkpt lat="44.9639801" lon="6.8896121"><ele>1879.9999999999998</ele><time>2026-04-03T09:49:11.856Z</time></trkpt><trkpt lat="44.9639174" lon="6.8896009"><ele>1880.0</ele><time>2026-04-03T09:49:13.866Z</time></trkpt><trkpt lat="44.9638258" lon="6.8895866"><ele>1881.6</ele><time>2026-04-03T09:49:16.868Z</time></trkpt><trkpt lat="44.9637325" lon="6.8895744"><ele>1883.2</ele><time>2026-04-03T09:49:19.863Z</time></trkpt><trkpt lat="44.9636414" lon="6.8895617"><ele>1884.8000000000002</ele><time>2026-04-03T09:49:22.875Z</time></trkpt><trkpt lat="44.9635517" lon="6.8895477"><ele>1886.4</ele><time>2026-04-03T09:49:25.867Z</time></trkpt><trkpt lat="44.9634606" lon="6.8895318"><ele>1888.0</ele><time>2026-04-03T09:49:28.874Z</time></trkpt><trkpt lat="44.9633719" lon="6.8895147"><ele>1890.1666666666667</ele><time>2026-04-03T09:49:31.874Z</time></trkpt><trkpt lat="44.9633083" lon="6.8895116"><ele>1892.3333333333335</ele><time>2026-04-03T09:50:03.867Z</time></trkpt><trkpt lat="44.9632424" lon="6.889504"><ele>1894.5</ele><time>2026-04-03T09:50:08.862Z</time></trkpt><trkpt lat="44.9631668" lon="6.8894952"><ele>1896.6666666666665</ele><time>2026-04-03T09:50:12.871Z</time></trkpt><trkpt lat="44.9630978" lon="6.8894835"><ele>1898.8333333333333</ele><time>2026-04-03T09:50:15.862Z</time></trkpt><trkpt lat="44.9630165" lon="6.8894733"><ele>1901.0</ele><time>2026-04-03T09:50:18.869Z</time></trkpt><trkpt lat="44.9629234" lon="6.8894618"><ele>1900.9999999999998</ele><time>2026-04-03T09:50:21.863Z</time></trkpt><trkpt lat="44.9628604" lon="6.8894553"><ele>1901.0</ele><time>2026-04-03T09:50:23.869Z</time></trkpt><trkpt lat="44.9627691" lon="6.8894404"><ele>1901.0</ele><time>2026-04-03T09:50:26.859Z</time></trkpt><trkpt lat="44.9626772" lon="6.8894242"><ele>1901.0</ele><time>2026-04-03T09:50:29.863Z</time></trkpt><trkpt lat="44.9626143" lon="6.8894127"><ele>1900.9999999999998</ele><time>2026-04-03T09:50:31.861Z</time></trkpt><trkpt lat="44.9625233" lon="6.8893976"><ele>1901.0</ele><time>2026-04-03T09:50:34.86Z</time></trkpt><trkpt lat="44.9624305" lon="6.8893838"><ele>1902.1999999999998</ele><time>2026-04-03T09:50:37.864Z</time></trkpt><trkpt lat="44.9623387" lon="6.8893674"><ele>1903.3999999999999</ele><time>2026-04-03T09:50:40.869Z</time></trkpt><trkpt lat="44.962248" lon="6.8893517"><ele>1904.6</ele><time>2026-04-03T09:50:43.868Z</time></trkpt><trkpt lat="44.9621557" lon="6.8893372"><ele>1905.8</ele><time>2026-04-03T09:50:46.867Z</time></trkpt><trkpt lat="44.962064" lon="6.8893213"><ele>1907.0</ele><time>2026-04-03T09:50:49.869Z</time></trkpt><trkpt lat="44.9619771" lon="6.8893047"><ele>1906.9999999999998</ele><time>2026-04-03T09:50:52.866Z</time></trkpt><trkpt lat="44.9619132" lon="6.889296"><ele>1907.0</ele><time>2026-04-03T09:50:54.861Z</time></trkpt><trkpt lat="44.9618207" lon="6.8892797"><ele>1907.0</ele><time>2026-04-03T09:50:57.86Z</time></trkpt><trkpt lat="44.9617275" lon="6.8892641"><ele>1907.0</ele><time>2026-04-03T09:51:00.866Z</time></trkpt><trkpt lat="44.9616644" lon="6.8892541"><ele>1906.9999999999998</ele><time>2026-04-03T09:51:02.864Z</time></trkpt><trkpt lat="44.961573" lon="6.8892379"><ele>1907.0</ele><time>2026-04-03T09:51:05.869Z</time></trkpt><trkpt lat="44.9614813" lon="6.8892238"><ele>1909.8</ele><time>2026-04-03T09:51:08.857Z</time></trkpt><trkpt lat="44.9613885" lon="6.8892113"><ele>1912.6</ele><time>2026-04-03T09:51:11.859Z</time></trkpt><trkpt lat="44.9612972" lon="6.8891969"><ele>1915.3999999999999</ele><time>2026-04-03T09:51:14.863Z</time></trkpt><trkpt lat="44.9612067" lon="6.8891812"><ele>1918.1999999999998</ele><time>2026-04-03T09:51:17.862Z</time></trkpt><trkpt lat="44.9611164" lon="6.889165"><ele>1921.0</ele><time>2026-04-03T09:51:20.875Z</time></trkpt><trkpt lat="44.9610263" lon="6.8891471"><ele>1921.0</ele><time>2026-04-03T09:51:23.866Z</time></trkpt><trkpt lat="44.9609341" lon="6.8891324"><ele>1921.0</ele><time>2026-04-03T09:51:26.859Z</time></trkpt><trkpt lat="44.9608409" lon="6.889118"><ele>1921.0</ele><time>2026-04-03T09:51:29.863Z</time></trkpt><trkpt lat="44.9607505" lon="6.8891004"><ele>1921.0</ele><time>2026-04-03T09:51:32.871Z</time></trkpt><trkpt lat="44.960659" lon="6.8890855"><ele>1921.0</ele><time>2026-04-03T09:51:35.869Z</time></trkpt><trkpt lat="44.9605698" lon="6.8890707"><ele>1923.1666666666667</ele><time>2026-04-03T09:51:38.868Z</time></trkpt><trkpt lat="44.9604776" lon="6.8890577"><ele>1925.3333333333335</ele><time>2026-04-03T09:51:41.862Z</time></trkpt><trkpt lat="44.9603856" lon="6.889045"><ele>1927.5</ele><time>2026-04-03T09:51:44.863Z</time></trkpt><trkpt lat="44.9602953" lon="6.8890331"><ele>1929.6666666666665</ele><time>2026-04-03T09:51:47.862Z</time></trkpt><trkpt lat="44.9602128" lon="6.8890184"><ele>1931.8333333333333</ele><time>2026-04-03T09:51:50.865Z</time></trkpt><trkpt lat="44.960135" lon="6.8890011"><ele>1934.0</ele><time>2026-04-03T09:51:54.87Z</time></trkpt><trkpt lat="44.9600559" lon="6.8889872"><ele>1937.3333333333333</ele><time>2026-04-03T09:51:58.862Z</time></trkpt><trkpt lat="44.9599736" lon="6.888975"><ele>1940.6666666666665</ele><time>2026-04-03T09:52:02.857Z</time></trkpt><trkpt lat="44.9599067" lon="6.888966"><ele>1944.0</ele><time>2026-04-03T09:52:05.87Z</time></trkpt><trkpt lat="44.9598342" lon="6.8889474"><ele>1947.3333333333335</ele><time>2026-04-03T09:52:08.867Z</time></trkpt><trkpt lat="44.9597541" lon="6.8889322"><ele>1950.6666666666667</ele><time>2026-04-03T09:52:11.86Z</time></trkpt><trkpt lat="44.9596699" lon="6.8889193"><ele>1954.0</ele><time>2026-04-03T09:52:14.859Z</time></trkpt><trkpt lat="44.959581" lon="6.8889018"><ele>1954.0000000000002</ele><time>2026-04-03T09:52:17.864Z</time></trkpt><trkpt lat="44.9594945" lon="6.8888844"><ele>1954.0</ele><time>2026-04-03T09:52:20.855Z</time></trkpt><trkpt lat="44.9594055" lon="6.8888709"><ele>1954.0</ele><time>2026-04-03T09:52:23.866Z</time></trkpt><trkpt lat="44.9593181" lon="6.8888562"><ele>1954.0</ele><time>2026-04-03T09:52:26.857Z</time></trkpt><trkpt lat="44.9592325" lon="6.8888371"><ele>1954.0000000000002</ele><time>2026-04-03T09:52:29.861Z</time></trkpt><trkpt lat="44.9591471" lon="6.8888257"><ele>1954.0</ele><time>2026-04-03T09:52:32.858Z</time></trkpt><trkpt lat="44.9590751" lon="6.888816"><ele>1958.8333333333335</ele><time>2026-04-03T09:52:35.857Z</time></trkpt><trkpt lat="44.9589994" lon="6.8888014"><ele>1963.6666666666667</ele><time>2026-04-03T09:52:39.867Z</time></trkpt><trkpt lat="44.9589222" lon="6.8887845"><ele>1968.5</ele><time>2026-04-03T09:52:42.862Z</time></trkpt><trkpt lat="44.9588343" lon="6.8887794"><ele>1973.3333333333335</ele><time>2026-04-03T09:52:45.871Z</time></trkpt><trkpt lat="44.9587522" lon="6.8887683"><ele>1978.1666666666667</ele><time>2026-04-03T09:52:48.866Z</time></trkpt><trkpt lat="44.9586624" lon="6.8887565"><ele>1983.0</ele><time>2026-04-03T09:52:51.859Z</time></trkpt><trkpt lat="44.9585767" lon="6.8887463"><ele>1983.0</ele><time>2026-04-03T09:52:54.867Z</time></trkpt><trkpt lat="44.9584866" lon="6.8887373"><ele>1983.0</ele><time>2026-04-03T09:52:57.874Z</time></trkpt><trkpt lat="44.9583995" lon="6.8887239"><ele>1983.0</ele><time>2026-04-03T09:53:00.869Z</time></trkpt><trkpt lat="44.9583117" lon="6.8887109"><ele>1983.0</ele><time>2026-04-03T09:53:03.865Z</time></trkpt><trkpt lat="44.9582211" lon="6.8886979"><ele>1983.0</ele><time>2026-04-03T09:53:06.86Z</time></trkpt><trkpt lat="44.9581326" lon="6.888685"><ele>1983.0</ele><time>2026-04-03T09:53:09.86Z</time></trkpt><trkpt lat="44.9580453" lon="6.8886706"><ele>1988.5</ele><time>2026-04-03T09:53:12.863Z</time></trkpt><trkpt lat="44.9579597" lon="6.8886564"><ele>1994.0</ele><time>2026-04-03T09:53:15.857Z</time></trkpt><trkpt lat="44.9578743" lon="6.8886431"><ele>1999.5</ele><time>2026-04-03T09:53:18.867Z</time></trkpt><trkpt lat="44.9577847" lon="6.8886312"><ele>2005.0</ele><time>2026-04-03T09:53:21.86Z</time></trkpt><trkpt lat="44.9576957" lon="6.8886179"><ele>2010.5</ele><time>2026-04-03T09:53:24.871Z</time></trkpt><trkpt lat="44.9576057" lon="6.8886059"><ele>2016.0</ele><time>2026-04-03T09:53:27.862Z</time></trkpt><trkpt lat="44.957517" lon="6.8885937"><ele>2020.3333333333333</ele><time>2026-04-03T09:53:30.857Z</time></trkpt><trkpt lat="44.9574276" lon="6.8885808"><ele>2024.6666666666665</ele><time>2026-04-03T09:53:33.87Z</time></trkpt><trkpt lat="44.9573412" lon="6.8885662"><ele>2029.0</ele><time>2026-04-03T09:53:36.87Z</time></trkpt><trkpt lat="44.9572548" lon="6.8885557"><ele>2033.3333333333333</ele><time>2026-04-03T09:53:39.859Z</time></trkpt><trkpt lat="44.9571678" lon="6.8885434"><ele>2037.6666666666665</ele><time>2026-04-03T09:53:42.871Z</time></trkpt><trkpt lat="44.9571045" lon="6.8885355"><ele>2042.0</ele><time>2026-04-03T09:53:44.871Z</time></trkpt><trkpt lat="44.9570131" lon="6.8885227"><ele>2041.9999999999998</ele><time>2026-04-03T09:53:47.871Z</time></trkpt><trkpt lat="44.9569209" lon="6.8885086"><ele>2042.0</ele><time>2026-04-03T09:53:50.866Z</time></trkpt><trkpt lat="44.9568309" lon="6.8884959"><ele>2042.0</ele><time>2026-04-03T09:53:53.869Z</time></trkpt><trkpt lat="44.9567582" lon="6.8884861"><ele>2042.0</ele><time>2026-04-03T09:53:56.857Z</time></trkpt><trkpt lat="44.9566866" lon="6.8884822"><ele>2041.9999999999998</ele><time>2026-04-03T09:54:47.876Z</time></trkpt><trkpt lat="44.9566192" lon="6.8884752"><ele>2042.0</ele><time>2026-04-03T09:54:51.864Z</time></trkpt><trkpt lat="44.9565344" lon="6.8884634"><ele>2046.4999999999998</ele><time>2026-04-03T09:54:55.866Z</time></trkpt><trkpt lat="44.9564524" lon="6.8884506"><ele>2051.0</ele><time>2026-04-03T09:54:58.859Z</time></trkpt><trkpt lat="44.9563611" lon="6.8884362"><ele>2055.5</ele><time>2026-04-03T09:55:01.863Z</time></trkpt><trkpt lat="44.9562705" lon="6.888423"><ele>2060.0</ele><time>2026-04-03T09:55:04.868Z</time></trkpt><trkpt lat="44.9561812" lon="6.8884113"><ele>2064.5</ele><time>2026-04-03T09:55:07.869Z</time></trkpt><trkpt lat="44.9560936" lon="6.8883991"><ele>2069.0</ele><time>2026-04-03T09:55:10.877Z</time></trkpt><trkpt lat="44.9560018" lon="6.8883865"><ele>2069.8</ele><time>2026-04-03T09:55:13.868Z</time></trkpt><trkpt lat="44.9559117" lon="6.8883712"><ele>2070.6000000000004</ele><time>2026-04-03T09:55:16.863Z</time></trkpt><trkpt lat="44.9558209" lon="6.8883566"><ele>2071.4</ele><time>2026-04-03T09:55:19.863Z</time></trkpt><trkpt lat="44.9557299" lon="6.8883406"><ele>2072.2000000000003</ele><time>2026-04-03T09:55:22.873Z</time></trkpt><trkpt lat="44.9556412" lon="6.888326"><ele>2073.0</ele><time>2026-04-03T09:55:25.873Z</time></trkpt><trkpt lat="44.9555496" lon="6.88831"><ele>2075.6666666666665</ele><time>2026-04-03T09:55:28.868Z</time></trkpt><trkpt lat="44.9554593" lon="6.8882965"><ele>2078.3333333333335</ele><time>2026-04-03T09:55:31.865Z</time></trkpt><trkpt lat="44.9553681" lon="6.8882807"><ele>2081.0</ele><time>2026-04-03T09:55:34.871Z</time></trkpt><trkpt lat="44.955278" lon="6.8882667"><ele>2083.666666666667</ele><time>2026-04-03T09:55:37.858Z</time></trkpt><trkpt lat="44.9552006" lon="6.8882429"><ele>2086.3333333333335</ele><time>2026-04-03T09:55:40.864Z</time></trkpt><trkpt lat="44.9551104" lon="6.8882222"><ele>2089.0</ele><time>2026-04-03T09:55:43.877Z</time></trkpt><trkpt lat="44.9550201" lon="6.8881998"><ele>2092.4</ele><time>2026-04-03T09:55:46.867Z</time></trkpt><trkpt lat="44.9549283" lon="6.8881881"><ele>2095.8</ele><time>2026-04-03T09:55:49.869Z</time></trkpt><trkpt lat="44.954836" lon="6.888174"><ele>2099.2</ele><time>2026-04-03T09:55:52.866Z</time></trkpt><trkpt lat="44.9547437" lon="6.8881589"><ele>2102.6</ele><time>2026-04-03T09:55:55.875Z</time></trkpt><trkpt lat="44.9546521" lon="6.8881444"><ele>2106.0</ele><time>2026-04-03T09:55:58.859Z</time></trkpt><trkpt lat="44.9545599" lon="6.8881335"><ele>2105.9999999999995</ele><time>2026-04-03T09:56:01.859Z</time></trkpt><trkpt lat="44.9544806" lon="6.8881161"><ele>2106.0</ele><time>2026-04-03T09:56:04.868Z</time></trkpt><trkpt lat="44.9544179" lon="6.8881061"><ele>2106.0</ele><time>2026-04-03T09:56:08.871Z</time></trkpt><trkpt lat="44.9543479" lon="6.8881391"><ele>2106.0</ele><time>2026-04-03T09:56:13.86Z</time></trkpt><trkpt lat="44.95437" lon="6.8882255"><ele>2106.0</ele><time>2026-04-03T09:56:20.865Z</time></trkpt><trkpt lat="44.9543997" lon="6.8883056"><ele>2105.9999999999995</ele><time>2026-04-03T09:56:25.862Z</time></trkpt><trkpt lat="44.9544808" lon="6.8882938"><ele>2106.0</ele><time>2026-04-03T09:56:33.873Z</time></trkpt><trkpt lat="44.9545774" lon="6.888308"><ele>2106.0</ele><time>2026-04-03T09:56:36.866Z</time></trkpt><trkpt lat="44.9546734" lon="6.8883333"><ele>2106.0</ele><time>2026-04-03T09:56:38.862Z</time></trkpt><trkpt lat="44.9547398" lon="6.8883629"><ele>2106.0</ele><time>2026-04-03T09:56:39.866Z</time></trkpt><trkpt lat="44.9548031" lon="6.8883614"><ele>2106.0</ele><time>2026-04-03T09:56:40.869Z</time></trkpt><trkpt lat="44.9548782" lon="6.8883729"><ele>2106.0</ele><time>2026-04-03T09:56:41.873Z</time></trkpt><trkpt lat="44.9549691" lon="6.8884065"><ele>2106.0</ele><time>2026-04-03T09:56:42.87Z</time></trkpt><trkpt lat="44.9550906" lon="6.8883929"><ele>2102.6</ele><time>2026-04-03T09:56:44.876Z</time></trkpt><trkpt lat="44.9551857" lon="6.8884439"><ele>2099.2</ele><time>2026-04-03T09:56:45.859Z</time></trkpt><trkpt lat="44.9552605" lon="6.8884315"><ele>2095.8</ele><time>2026-04-03T09:56:46.861Z</time></trkpt><trkpt lat="44.9553312" lon="6.8883859"><ele>2092.4</ele><time>2026-04-03T09:56:47.862Z</time></trkpt><trkpt lat="44.9554043" lon="6.8883499"><ele>2089.0</ele><time>2026-04-03T09:56:48.869Z</time></trkpt><trkpt lat="44.9554458" lon="6.8881683"><ele>2089.0</ele><time>2026-04-03T09:56:49.87Z</time></trkpt><trkpt lat="44.9554437" lon="6.8880287"><ele>2089.0</ele><time>2026-04-03T09:56:50.865Z</time></trkpt><trkpt lat="44.9554537" lon="6.8878911"><ele>2089.0</ele><time>2026-04-03T09:56:51.864Z</time></trkpt><trkpt lat="44.9554442" lon="6.8877391"><ele>2089.0</ele><time>2026-04-03T09:56:52.857Z</time></trkpt><trkpt lat="44.9554528" lon="6.8875834"><ele>2089.0</ele><time>2026-04-03T09:56:53.855Z</time></trkpt><trkpt lat="44.9554752" lon="6.8874312"><ele>2086.75</ele><time>2026-04-03T09:56:54.864Z</time></trkpt><trkpt lat="44.9555147" lon="6.8872693"><ele>2084.5</ele><time>2026-04-03T09:56:55.863Z</time></trkpt><trkpt lat="44.9555217" lon="6.8870963"><ele>2082.25</ele><time>2026-04-03T09:56:56.873Z</time></trkpt><trkpt lat="44.9555026" lon="6.8869491"><ele>2080.0</ele><time>2026-04-03T09:56:57.871Z</time></trkpt><trkpt lat="44.9554887" lon="6.88678"><ele>2077.4</ele><time>2026-04-03T09:56:58.877Z</time></trkpt><trkpt lat="44.9554924" lon="6.8866444"><ele>2074.8</ele><time>2026-04-03T09:56:59.866Z</time></trkpt><trkpt lat="44.9554945" lon="6.8864828"><ele>2072.2</ele><time>2026-04-03T09:57:00.875Z</time></trkpt><trkpt lat="44.9555016" lon="6.8863867"><ele>2069.6</ele><time>2026-04-03T09:57:01.865Z</time></trkpt><trkpt lat="44.9555271" lon="6.8862592"><ele>2067.0</ele><time>2026-04-03T09:57:02.859Z</time></trkpt><trkpt lat="44.955554" lon="6.8861184"><ele>2067.0</ele><time>2026-04-03T09:57:03.877Z</time></trkpt><trkpt lat="44.9555845" lon="6.8859863"><ele>2067.0</ele><time>2026-04-03T09:57:04.873Z</time></trkpt><trkpt lat="44.9556607" lon="6.8857917"><ele>2067.0</ele><time>2026-04-03T09:57:05.869Z</time></trkpt><trkpt lat="44.9557254" lon="6.8856083"><ele>2067.0</ele><time>2026-04-03T09:57:06.86Z</time></trkpt><trkpt lat="44.9558393" lon="6.8854793"><ele>2060.6666666666665</ele><time>2026-04-03T09:57:07.874Z</time></trkpt><trkpt lat="44.9559532" lon="6.8853157"><ele>2054.333333333333</ele><time>2026-04-03T09:57:08.865Z</time></trkpt><trkpt lat="44.9560449" lon="6.8851508"><ele>2048.0</ele><time>2026-04-03T09:57:09.868Z</time></trkpt><trkpt lat="44.9561357" lon="6.8849842"><ele>2045.0</ele><time>2026-04-03T09:57:10.868Z</time></trkpt><trkpt lat="44.9562372" lon="6.8848151"><ele>2042.0</ele><time>2026-04-03T09:57:11.856Z</time></trkpt><trkpt lat="44.9563212" lon="6.8846379"><ele>2039.0</ele><time>2026-04-03T09:57:12.861Z</time></trkpt><trkpt lat="44.9564094" lon="6.8844648"><ele>2039.0</ele><time>2026-04-03T09:57:13.866Z</time></trkpt><trkpt lat="44.9564953" lon="6.8842896"><ele>2039.0</ele><time>2026-04-03T09:57:14.865Z</time></trkpt><trkpt lat="44.9565768" lon="6.8841163"><ele>2039.0</ele><time>2026-04-03T09:57:15.866Z</time></trkpt><trkpt lat="44.9566543" lon="6.8839336"><ele>2039.0</ele><time>2026-04-03T09:57:16.864Z</time></trkpt><trkpt lat="44.9567177" lon="6.8837403"><ele>2038.5</ele><time>2026-04-03T09:57:17.854Z</time></trkpt><trkpt lat="44.9567561" lon="6.8835509"><ele>2038.0</ele><time>2026-04-03T09:57:18.862Z</time></trkpt><trkpt lat="44.9567707" lon="6.8833662"><ele>2037.5</ele><time>2026-04-03T09:57:19.869Z</time></trkpt><trkpt lat="44.9567658" lon="6.8831895"><ele>2037.0</ele><time>2026-04-03T09:57:20.873Z</time></trkpt><trkpt lat="44.9567347" lon="6.8830238"><ele>2035.0</ele><time>2026-04-03T09:57:21.874Z</time></trkpt><trkpt lat="44.9566879" lon="6.8828679"><ele>2033.0</ele><time>2026-04-03T09:57:22.878Z</time></trkpt><trkpt lat="44.9566227" lon="6.8827382"><ele>2031.0</ele><time>2026-04-03T09:57:23.877Z</time></trkpt><trkpt lat="44.9565439" lon="6.882619"><ele>2029.0</ele><time>2026-04-03T09:57:24.869Z</time></trkpt><trkpt lat="44.9564663" lon="6.8825068"><ele>2028.6666666666667</ele><time>2026-04-03T09:57:25.865Z</time></trkpt><trkpt lat="44.9563912" lon="6.8824056"><ele>2028.3333333333335</ele><time>2026-04-03T09:57:26.858Z</time></trkpt><trkpt lat="44.956325" lon="6.8823096"><ele>2028.0</ele><time>2026-04-03T09:57:27.869Z</time></trkpt><trkpt lat="44.9562581" lon="6.8822216"><ele>2027.6666666666665</ele><time>2026-04-03T09:57:28.868Z</time></trkpt><trkpt lat="44.9562014" lon="6.882148"><ele>2027.3333333333333</ele><time>2026-04-03T09:57:29.865Z</time></trkpt><trkpt lat="44.9561414" lon="6.8820748"><ele>2027.0</ele><time>2026-04-03T09:57:30.868Z</time></trkpt><trkpt lat="44.9560889" lon="6.882009"><ele>2026.9999999999998</ele><time>2026-04-03T09:57:31.853Z</time></trkpt><trkpt lat="44.9560427" lon="6.8819401"><ele>2027.0</ele><time>2026-04-03T09:57:32.856Z</time></trkpt><trkpt lat="44.9559665" lon="6.8818307"><ele>2027.0</ele><time>2026-04-03T09:57:34.862Z</time></trkpt><trkpt lat="44.9558972" lon="6.881736"><ele>2027.0</ele><time>2026-04-03T09:57:36.862Z</time></trkpt><trkpt lat="44.9558325" lon="6.8816442"><ele>2026.9999999999998</ele><time>2026-04-03T09:57:38.865Z</time></trkpt><trkpt lat="44.9557731" lon="6.8815632"><ele>2027.0</ele><time>2026-04-03T09:57:40.875Z</time></trkpt><trkpt lat="44.9557154" lon="6.8814752"><ele>2026.8333333333333</ele><time>2026-04-03T09:57:42.859Z</time></trkpt><trkpt lat="44.9556683" lon="6.8813839"><ele>2026.6666666666665</ele><time>2026-04-03T09:57:44.863Z</time></trkpt><trkpt lat="44.9556242" lon="6.8813051"><ele>2026.5</ele><time>2026-04-03T09:57:46.854Z</time></trkpt><trkpt lat="44.9555809" lon="6.8812301"><ele>2026.3333333333335</ele><time>2026-04-03T09:57:48.87Z</time></trkpt><trkpt lat="44.9555283" lon="6.881128"><ele>2026.1666666666667</ele><time>2026-04-03T09:57:51.864Z</time></trkpt><trkpt lat="44.9554975" lon="6.8810336"><ele>2026.0</ele><time>2026-04-03T09:57:54.873Z</time></trkpt><trkpt lat="44.9554638" lon="6.8809443"><ele>2026.0000000000002</ele><time>2026-04-03T09:57:57.87Z</time></trkpt><trkpt lat="44.9554291" lon="6.8808619"><ele>2026.0</ele><time>2026-04-03T09:58:00.866Z</time></trkpt><trkpt lat="44.9553842" lon="6.8807837"><ele>2026.0</ele><time>2026-04-03T09:58:03.871Z</time></trkpt><trkpt lat="44.9553349" lon="6.8806916"><ele>2026.0</ele><time>2026-04-03T09:58:06.869Z</time></trkpt><trkpt lat="44.9552974" lon="6.8806073"><ele>2026.0000000000002</ele><time>2026-04-03T09:58:08.862Z</time></trkpt><trkpt lat="44.9552593" lon="6.880513"><ele>2026.0</ele><time>2026-04-03T09:58:10.861Z</time></trkpt><trkpt lat="44.9552143" lon="6.8804067"><ele>2026.0000000000002</ele><time>2026-04-03T09:58:12.873Z</time></trkpt><trkpt lat="44.9551599" lon="6.8803076"><ele>2026.0</ele><time>2026-04-03T09:58:14.858Z</time></trkpt><trkpt lat="44.9551109" lon="6.8802154"><ele>2026.0</ele><time>2026-04-03T09:58:16.864Z</time></trkpt><trkpt lat="44.9550724" lon="6.8801048"><ele>2026.0</ele><time>2026-04-03T09:58:18.858Z</time></trkpt><trkpt lat="44.955039" lon="6.8799951"><ele>2026.0000000000002</ele><time>2026-04-03T09:58:20.858Z</time></trkpt><trkpt lat="44.9549959" lon="6.8798858"><ele>2026.0</ele><time>2026-04-03T09:58:22.86Z</time></trkpt><trkpt lat="44.9549533" lon="6.8797716"><ele>2024.6</ele><time>2026-04-03T09:58:24.86Z</time></trkpt><trkpt lat="44.9549092" lon="6.8796533"><ele>2023.1999999999998</ele><time>2026-04-03T09:58:26.864Z</time></trkpt><trkpt lat="44.9548574" lon="6.8795295"><ele>2021.8000000000002</ele><time>2026-04-03T09:58:28.872Z</time></trkpt><trkpt lat="44.9548035" lon="6.8793899"><ele>2020.4</ele><time>2026-04-03T09:58:30.868Z</time></trkpt><trkpt lat="44.9547479" lon="6.8792398"><ele>2019.0</ele><time>2026-04-03T09:58:32.859Z</time></trkpt><trkpt lat="44.9547141" lon="6.8791602"><ele>2018.8333333333333</ele><time>2026-04-03T09:58:33.874Z</time></trkpt><trkpt lat="44.9546814" lon="6.879084"><ele>2018.6666666666665</ele><time>2026-04-03T09:58:34.861Z</time></trkpt><trkpt lat="44.9546225" lon="6.8789414"><ele>2018.5</ele><time>2026-04-03T09:58:36.869Z</time></trkpt><trkpt lat="44.95458" lon="6.8788275"><ele>2018.3333333333333</ele><time>2026-04-03T09:58:38.864Z</time></trkpt><trkpt lat="44.9545347" lon="6.8787199"><ele>2018.1666666666665</ele><time>2026-04-03T09:58:40.865Z</time></trkpt><trkpt lat="44.9545015" lon="6.8786182"><ele>2018.0</ele><time>2026-04-03T09:58:43.866Z</time></trkpt><trkpt lat="44.9544666" lon="6.8785294"><ele>2018.0</ele><time>2026-04-03T09:58:46.872Z</time></trkpt><trkpt lat="44.9544339" lon="6.878435"><ele>2018.0</ele><time>2026-04-03T09:58:49.862Z</time></trkpt><trkpt lat="44.9543957" lon="6.878322"><ele>2018.0</ele><time>2026-04-03T09:58:52.865Z</time></trkpt><trkpt lat="44.9543615" lon="6.8782209"><ele>2018.0</ele><time>2026-04-03T09:58:55.855Z</time></trkpt><trkpt lat="44.9543337" lon="6.8781245"><ele>2018.0</ele><time>2026-04-03T09:58:58.865Z</time></trkpt><trkpt lat="44.9543062" lon="6.8780399"><ele>2018.0</ele><time>2026-04-03T09:59:02.878Z</time></trkpt><trkpt lat="44.9542805" lon="6.8779585"><ele>2018.0</ele><time>2026-04-03T09:59:07.866Z</time></trkpt><trkpt lat="44.9542431" lon="6.8778629"><ele>2017.4</ele><time>2026-04-03T09:59:11.859Z</time></trkpt><trkpt lat="44.9541951" lon="6.8777357"><ele>2016.8000000000002</ele><time>2026-04-03T09:59:14.862Z</time></trkpt><trkpt lat="44.9541673" lon="6.8776133"><ele>2016.2</ele><time>2026-04-03T09:59:16.865Z</time></trkpt><trkpt lat="44.9541325" lon="6.8774957"><ele>2015.6</ele><time>2026-04-03T09:59:18.866Z</time></trkpt><trkpt lat="44.9540857" lon="6.8773803"><ele>2015.0</ele><time>2026-04-03T09:59:20.855Z</time></trkpt><trkpt lat="44.954037" lon="6.8772478"><ele>2013.6</ele><time>2026-04-03T09:59:22.86Z</time></trkpt><trkpt lat="44.9539948" lon="6.877112"><ele>2012.2</ele><time>2026-04-03T09:59:24.862Z</time></trkpt><trkpt lat="44.9539569" lon="6.8769694"><ele>2010.8000000000002</ele><time>2026-04-03T09:59:26.864Z</time></trkpt><trkpt lat="44.9539279" lon="6.8768891"><ele>2009.4</ele><time>2026-04-03T09:59:27.859Z</time></trkpt><trkpt lat="44.953904" lon="6.8768041"><ele>2008.0</ele><time>2026-04-03T09:59:28.855Z</time></trkpt><trkpt lat="44.9538526" lon="6.876643"><ele>2006.6000000000001</ele><time>2026-04-03T09:59:30.866Z</time></trkpt><trkpt lat="44.9538077" lon="6.8764878"><ele>2005.2000000000003</ele><time>2026-04-03T09:59:32.872Z</time></trkpt><trkpt lat="44.953757" lon="6.8763178"><ele>2003.8</ele><time>2026-04-03T09:59:34.868Z</time></trkpt><trkpt lat="44.9537339" lon="6.876231"><ele>2002.4</ele><time>2026-04-03T09:59:35.859Z</time></trkpt><trkpt lat="44.9536885" lon="6.8760853"><ele>2001.0</ele><time>2026-04-03T09:59:37.861Z</time></trkpt><trkpt lat="44.9536462" lon="6.8759526"><ele>2000.0</ele><time>2026-04-03T09:59:39.867Z</time></trkpt><trkpt lat="44.9535925" lon="6.8758108"><ele>1999.0</ele><time>2026-04-03T09:59:41.868Z</time></trkpt><trkpt lat="44.953538" lon="6.8756753"><ele>1998.0</ele><time>2026-04-03T09:59:43.863Z</time></trkpt><trkpt lat="44.9535061" lon="6.8755918"><ele>1997.0</ele><time>2026-04-03T09:59:45.869Z</time></trkpt><trkpt lat="44.9534649" lon="6.8754761"><ele>1996.0</ele><time>2026-04-03T09:59:47.864Z</time></trkpt><trkpt lat="44.9534314" lon="6.8753718"><ele>1996.0</ele><time>2026-04-03T09:59:48.876Z</time></trkpt><trkpt lat="44.9534432" lon="6.8751259"><ele>1996.0</ele><time>2026-04-03T09:59:50.874Z</time></trkpt><trkpt lat="44.9534594" lon="6.8749275"><ele>1996.0</ele><time>2026-04-03T09:59:51.859Z</time></trkpt><trkpt lat="44.9535163" lon="6.8748693"><ele>1996.0</ele><time>2026-04-03T09:59:52.862Z</time></trkpt><trkpt lat="44.9534894" lon="6.8747524"><ele>1994.4</ele><time>2026-04-03T09:59:53.854Z</time></trkpt><trkpt lat="44.9535624" lon="6.8745405"><ele>1992.8</ele><time>2026-04-03T09:59:55.873Z</time></trkpt><trkpt lat="44.9536253" lon="6.87448"><ele>1991.2000000000003</ele><time>2026-04-03T09:59:57.867Z</time></trkpt><trkpt lat="44.9537163" lon="6.8744026"><ele>1989.6000000000001</ele><time>2026-04-03T09:59:59.859Z</time></trkpt><trkpt lat="44.9537583" lon="6.8743276"><ele>1988.0</ele><time>2026-04-03T10:03:11.872Z</time></trkpt><trkpt lat="44.9538153" lon="6.8742716"><ele>1988.1666666666665</ele><time>2026-04-03T10:03:24.863Z</time></trkpt><trkpt lat="44.9538526" lon="6.8741938"><ele>1988.3333333333333</ele><time>2026-04-03T10:04:59.856Z</time></trkpt><trkpt lat="44.9539047" lon="6.8741215"><ele>1988.5</ele><time>2026-04-03T10:05:14.861Z</time></trkpt><trkpt lat="44.9539861" lon="6.8740394"><ele>1988.6666666666665</ele><time>2026-04-03T10:05:19.858Z</time></trkpt><trkpt lat="44.9540634" lon="6.8739603"><ele>1988.8333333333333</ele><time>2026-04-03T10:05:21.869Z</time></trkpt><trkpt lat="44.9541305" lon="6.8738873"><ele>1989.0</ele><time>2026-04-03T10:05:23.859Z</time></trkpt><trkpt lat="44.9542066" lon="6.8738127"><ele>1989.0</ele><time>2026-04-03T10:05:25.86Z</time></trkpt><trkpt lat="44.9542848" lon="6.8737544"><ele>1989.0</ele><time>2026-04-03T10:05:27.863Z</time></trkpt><trkpt lat="44.9543579" lon="6.8736809"><ele>1989.0</ele><time>2026-04-03T10:05:29.863Z</time></trkpt><trkpt lat="44.9544289" lon="6.8736067"><ele>1989.0</ele><time>2026-04-03T10:05:31.87Z</time></trkpt><trkpt lat="44.9545009" lon="6.8735325"><ele>1989.0</ele><time>2026-04-03T10:05:33.864Z</time></trkpt><trkpt lat="44.9545732" lon="6.873458"><ele>1989.0</ele><time>2026-04-03T10:05:35.871Z</time></trkpt><trkpt lat="44.9546479" lon="6.8734051"><ele>1989.0</ele><time>2026-04-03T10:05:37.87Z</time></trkpt><trkpt lat="44.9547216" lon="6.8733366"><ele>1989.0</ele><time>2026-04-03T10:05:39.864Z</time></trkpt><trkpt lat="44.954794" lon="6.8732626"><ele>1989.0</ele><time>2026-04-03T10:05:41.864Z</time></trkpt><trkpt lat="44.9548674" lon="6.8731876"><ele>1989.0</ele><time>2026-04-03T10:05:43.861Z</time></trkpt><trkpt lat="44.9549418" lon="6.8731173"><ele>1989.0</ele><time>2026-04-03T10:05:45.868Z</time></trkpt><trkpt lat="44.9550162" lon="6.8730451"><ele>1989.0</ele><time>2026-04-03T10:05:47.855Z</time></trkpt><trkpt lat="44.9550918" lon="6.8729727"><ele>1989.0</ele><time>2026-04-03T10:05:49.871Z</time></trkpt><trkpt lat="44.9551657" lon="6.8728986"><ele>1989.0</ele><time>2026-04-03T10:05:51.853Z</time></trkpt><trkpt lat="44.9552387" lon="6.8728274"><ele>1989.0</ele><time>2026-04-03T10:05:53.869Z</time></trkpt><trkpt lat="44.9553151" lon="6.8727542"><ele>1989.0</ele><time>2026-04-03T10:05:55.866Z</time></trkpt><trkpt lat="44.9553873" lon="6.872683"><ele>1989.0</ele><time>2026-04-03T10:05:57.868Z</time></trkpt><trkpt lat="44.9554628" lon="6.8726094"><ele>1989.5</ele><time>2026-04-03T10:05:59.862Z</time></trkpt><trkpt lat="44.9555358" lon="6.8725341"><ele>1990.0</ele><time>2026-04-03T10:06:01.869Z</time></trkpt><trkpt lat="44.9556039" lon="6.872467"><ele>1990.5</ele><time>2026-04-03T10:06:03.857Z</time></trkpt><trkpt lat="44.9556772" lon="6.8723977"><ele>1991.0</ele><time>2026-04-03T10:06:05.866Z</time></trkpt><trkpt lat="44.9557525" lon="6.8723245"><ele>1991.5</ele><time>2026-04-03T10:06:07.855Z</time></trkpt><trkpt lat="44.955822" lon="6.872247"><ele>1992.0</ele><time>2026-04-03T10:06:09.877Z</time></trkpt><trkpt lat="44.9558946" lon="6.8721703"><ele>1994.8333333333333</ele><time>2026-04-03T10:06:11.856Z</time></trkpt><trkpt lat="44.9559655" lon="6.8720959"><ele>1997.6666666666665</ele><time>2026-04-03T10:06:13.867Z</time></trkpt><trkpt lat="44.9560385" lon="6.8720242"><ele>2000.5</ele><time>2026-04-03T10:06:15.865Z</time></trkpt><trkpt lat="44.9561093" lon="6.8719518"><ele>2003.3333333333333</ele><time>2026-04-03T10:06:17.867Z</time></trkpt><trkpt lat="44.9561831" lon="6.8718811"><ele>2006.1666666666665</ele><time>2026-04-03T10:06:19.869Z</time></trkpt><trkpt lat="44.9562553" lon="6.8718097"><ele>2009.0</ele><time>2026-04-03T10:06:21.87Z</time></trkpt><trkpt lat="44.9563273" lon="6.8717382"><ele>2011.1666666666665</ele><time>2026-04-03T10:06:23.866Z</time></trkpt><trkpt lat="44.9564" lon="6.8716662"><ele>2013.3333333333333</ele><time>2026-04-03T10:06:25.868Z</time></trkpt><trkpt lat="44.9564706" lon="6.8715931"><ele>2015.5</ele><time>2026-04-03T10:06:27.864Z</time></trkpt><trkpt lat="44.9565407" lon="6.871522"><ele>2017.6666666666665</ele><time>2026-04-03T10:06:29.858Z</time></trkpt><trkpt lat="44.9566108" lon="6.8714529"><ele>2019.8333333333333</ele><time>2026-04-03T10:06:31.86Z</time></trkpt><trkpt lat="44.9566805" lon="6.8713836"><ele>2022.0</ele><time>2026-04-03T10:06:33.866Z</time></trkpt><trkpt lat="44.9567497" lon="6.8713133"><ele>2025.5</ele><time>2026-04-03T10:06:35.862Z</time></trkpt><trkpt lat="44.9568191" lon="6.8712422"><ele>2029.0</ele><time>2026-04-03T10:06:37.863Z</time></trkpt><trkpt lat="44.9568893" lon="6.8711698"><ele>2032.5</ele><time>2026-04-03T10:06:39.869Z</time></trkpt><trkpt lat="44.9569579" lon="6.8710965"><ele>2036.0</ele><time>2026-04-03T10:06:41.868Z</time></trkpt><trkpt lat="44.9570279" lon="6.8710263"><ele>2039.5</ele><time>2026-04-03T10:06:43.866Z</time></trkpt><trkpt lat="44.9570972" lon="6.8709515"><ele>2043.0</ele><time>2026-04-03T10:06:45.87Z</time></trkpt><trkpt lat="44.9571689" lon="6.8708841"><ele>2045.3333333333333</ele><time>2026-04-03T10:06:47.864Z</time></trkpt><trkpt lat="44.9572415" lon="6.8708177"><ele>2047.6666666666665</ele><time>2026-04-03T10:06:49.857Z</time></trkpt><trkpt lat="44.9573119" lon="6.8707479"><ele>2050.0</ele><time>2026-04-03T10:06:51.864Z</time></trkpt><trkpt lat="44.9573839" lon="6.8706802"><ele>2052.333333333333</ele><time>2026-04-03T10:06:53.86Z</time></trkpt><trkpt lat="44.9574536" lon="6.8706126"><ele>2054.6666666666665</ele><time>2026-04-03T10:06:55.862Z</time></trkpt><trkpt lat="44.9575241" lon="6.8705435"><ele>2057.0</ele><time>2026-04-03T10:06:57.861Z</time></trkpt><trkpt lat="44.9575947" lon="6.8704745"><ele>2059.6666666666665</ele><time>2026-04-03T10:06:59.87Z</time></trkpt><trkpt lat="44.9576643" lon="6.8704051"><ele>2062.333333333333</ele><time>2026-04-03T10:07:01.865Z</time></trkpt><trkpt lat="44.9577337" lon="6.8703359"><ele>2065.0</ele><time>2026-04-03T10:07:03.865Z</time></trkpt><trkpt lat="44.9578034" lon="6.870267"><ele>2067.6666666666665</ele><time>2026-04-03T10:07:05.861Z</time></trkpt><trkpt lat="44.957873" lon="6.8701975"><ele>2070.3333333333335</ele><time>2026-04-03T10:07:07.86Z</time></trkpt><trkpt lat="44.9579416" lon="6.8701282"><ele>2073.0</ele><time>2026-04-03T10:07:09.875Z</time></trkpt><trkpt lat="44.9580152" lon="6.8700566"><ele>2077.3333333333335</ele><time>2026-04-03T10:07:11.864Z</time></trkpt><trkpt lat="44.9580844" lon="6.8699899"><ele>2081.6666666666665</ele><time>2026-04-03T10:07:13.861Z</time></trkpt><trkpt lat="44.9581541" lon="6.8699182"><ele>2086.0</ele><time>2026-04-03T10:07:15.858Z</time></trkpt><trkpt lat="44.9582238" lon="6.8698471"><ele>2090.333333333333</ele><time>2026-04-03T10:07:17.859Z</time></trkpt><trkpt lat="44.9582948" lon="6.869779"><ele>2094.6666666666665</ele><time>2026-04-03T10:07:19.868Z</time></trkpt><trkpt lat="44.9583654" lon="6.8697102"><ele>2099.0</ele><time>2026-04-03T10:07:21.86Z</time></trkpt><trkpt lat="44.9584349" lon="6.8696401"><ele>2103.5</ele><time>2026-04-03T10:07:23.867Z</time></trkpt><trkpt lat="44.9585046" lon="6.8695714"><ele>2108.0</ele><time>2026-04-03T10:07:25.877Z</time></trkpt><trkpt lat="44.9585741" lon="6.8695018"><ele>2112.5</ele><time>2026-04-03T10:07:27.859Z</time></trkpt><trkpt lat="44.9586445" lon="6.8694329"><ele>2117.0</ele><time>2026-04-03T10:07:29.875Z</time></trkpt><trkpt lat="44.9587154" lon="6.8693646"><ele>2121.5</ele><time>2026-04-03T10:07:31.857Z</time></trkpt><trkpt lat="44.958785" lon="6.8692985"><ele>2126.0</ele><time>2026-04-03T10:07:33.87Z</time></trkpt><trkpt lat="44.958854" lon="6.8692302"><ele>2127.833333333333</ele><time>2026-04-03T10:07:35.869Z</time></trkpt><trkpt lat="44.9589242" lon="6.8691599"><ele>2129.6666666666665</ele><time>2026-04-03T10:07:37.871Z</time></trkpt><trkpt lat="44.958994" lon="6.8690928"><ele>2131.5</ele><time>2026-04-03T10:07:39.868Z</time></trkpt><trkpt lat="44.9590619" lon="6.8690263"><ele>2133.3333333333335</ele><time>2026-04-03T10:07:41.863Z</time></trkpt><trkpt lat="44.95913" lon="6.8689593"><ele>2135.166666666667</ele><time>2026-04-03T10:07:43.87Z</time></trkpt><trkpt lat="44.9592081" lon="6.8688894"><ele>2137.0</ele><time>2026-04-03T10:07:45.861Z</time></trkpt><trkpt lat="44.9592782" lon="6.8688177"><ele>2141.166666666667</ele><time>2026-04-03T10:07:47.869Z</time></trkpt><trkpt lat="44.9593503" lon="6.8687499"><ele>2145.3333333333335</ele><time>2026-04-03T10:07:49.873Z</time></trkpt><trkpt lat="44.9594221" lon="6.8686774"><ele>2149.5</ele><time>2026-04-03T10:07:51.864Z</time></trkpt><trkpt lat="44.9594947" lon="6.8686011"><ele>2153.6666666666665</ele><time>2026-04-03T10:07:53.86Z</time></trkpt><trkpt lat="44.9595666" lon="6.8685279"><ele>2157.833333333333</ele><time>2026-04-03T10:07:55.855Z</time></trkpt><trkpt lat="44.9596377" lon="6.8684539"><ele>2162.0</ele><time>2026-04-03T10:07:57.873Z</time></trkpt><trkpt lat="44.9597109" lon="6.8683834"><ele>2162.333333333333</ele><time>2026-04-03T10:07:59.861Z</time></trkpt><trkpt lat="44.9597804" lon="6.8683104"><ele>2162.6666666666665</ele><time>2026-04-03T10:08:01.862Z</time></trkpt><trkpt lat="44.9598537" lon="6.8682412"><ele>2163.0</ele><time>2026-04-03T10:08:03.872Z</time></trkpt><trkpt lat="44.9599243" lon="6.86817"><ele>2163.3333333333335</ele><time>2026-04-03T10:08:05.863Z</time></trkpt><trkpt lat="44.9599965" lon="6.868099"><ele>2163.666666666667</ele><time>2026-04-03T10:08:07.868Z</time></trkpt><trkpt lat="44.9600671" lon="6.868026"><ele>2164.0</ele><time>2026-04-03T10:08:09.868Z</time></trkpt><trkpt lat="44.9601375" lon="6.8679575"><ele>2165.666666666667</ele><time>2026-04-03T10:08:11.863Z</time></trkpt><trkpt lat="44.9602069" lon="6.867887"><ele>2167.3333333333335</ele><time>2026-04-03T10:08:13.858Z</time></trkpt><trkpt lat="44.9602808" lon="6.8678122"><ele>2169.0</ele><time>2026-04-03T10:08:15.871Z</time></trkpt><trkpt lat="44.9603521" lon="6.8677497"><ele>2170.6666666666665</ele><time>2026-04-03T10:08:17.872Z</time></trkpt><trkpt lat="44.9604262" lon="6.8676778"><ele>2172.333333333333</ele><time>2026-04-03T10:08:19.873Z</time></trkpt><trkpt lat="44.9604978" lon="6.8676025"><ele>2174.0</ele><time>2026-04-03T10:08:21.875Z</time></trkpt><trkpt lat="44.9605711" lon="6.8675283"><ele>2174.0</ele><time>2026-04-03T10:08:23.867Z</time></trkpt><trkpt lat="44.9606436" lon="6.8674553"><ele>2174.0</ele><time>2026-04-03T10:08:25.866Z</time></trkpt><trkpt lat="44.9607176" lon="6.8673851"><ele>2174.0</ele><time>2026-04-03T10:08:27.87Z</time></trkpt><trkpt lat="44.9607908" lon="6.8673135"><ele>2174.0</ele><time>2026-04-03T10:08:29.875Z</time></trkpt><trkpt lat="44.9608626" lon="6.8672411"><ele>2174.0</ele><time>2026-04-03T10:08:31.86Z</time></trkpt><trkpt lat="44.9609356" lon="6.8671703"><ele>2174.0</ele><time>2026-04-03T10:08:33.87Z</time></trkpt><trkpt lat="44.9610104" lon="6.8670989"><ele>2174.833333333333</ele><time>2026-04-03T10:08:35.865Z</time></trkpt><trkpt lat="44.9610831" lon="6.8670289"><ele>2175.6666666666665</ele><time>2026-04-03T10:08:37.864Z</time></trkpt><trkpt lat="44.9611578" lon="6.8669569"><ele>2176.5</ele><time>2026-04-03T10:08:39.872Z</time></trkpt><trkpt lat="44.9612313" lon="6.8668872"><ele>2177.3333333333335</ele><time>2026-04-03T10:08:41.857Z</time></trkpt><trkpt lat="44.9613044" lon="6.8668155"><ele>2178.166666666667</ele><time>2026-04-03T10:08:43.868Z</time></trkpt><trkpt lat="44.9613771" lon="6.8667426"><ele>2179.0</ele><time>2026-04-03T10:08:45.862Z</time></trkpt><trkpt lat="44.9614497" lon="6.86667"><ele>2179.0</ele><time>2026-04-03T10:08:47.852Z</time></trkpt><trkpt lat="44.9615242" lon="6.8666013"><ele>2179.0</ele><time>2026-04-03T10:08:49.866Z</time></trkpt><trkpt lat="44.9615941" lon="6.8665315"><ele>2179.0</ele><time>2026-04-03T10:08:51.871Z</time></trkpt><trkpt lat="44.9616683" lon="6.8664593"><ele>2179.0</ele><time>2026-04-03T10:08:53.858Z</time></trkpt><trkpt lat="44.9617426" lon="6.8663853"><ele>2179.0</ele><time>2026-04-03T10:08:55.867Z</time></trkpt><trkpt lat="44.9618159" lon="6.8663149"><ele>2179.0</ele><time>2026-04-03T10:08:57.855Z</time></trkpt><trkpt lat="44.9618903" lon="6.8662404"><ele>2182.5</ele><time>2026-04-03T10:08:59.867Z</time></trkpt><trkpt lat="44.961961" lon="6.8661678"><ele>2186.0</ele><time>2026-04-03T10:09:01.863Z</time></trkpt><trkpt lat="44.9620331" lon="6.8660967"><ele>2189.5</ele><time>2026-04-03T10:09:03.861Z</time></trkpt><trkpt lat="44.9621064" lon="6.8660232"><ele>2193.0</ele><time>2026-04-03T10:09:05.856Z</time></trkpt><trkpt lat="44.9621797" lon="6.8659523"><ele>2196.5</ele><time>2026-04-03T10:09:07.866Z</time></trkpt><trkpt lat="44.9622526" lon="6.8658796"><ele>2200.0</ele><time>2026-04-03T10:09:09.864Z</time></trkpt><trkpt lat="44.9623256" lon="6.8658097"><ele>2200.0</ele><time>2026-04-03T10:09:11.866Z</time></trkpt><trkpt lat="44.9623991" lon="6.8657392"><ele>2200.0</ele><time>2026-04-03T10:09:13.868Z</time></trkpt><trkpt lat="44.9624734" lon="6.8656667"><ele>2200.0</ele><time>2026-04-03T10:09:15.865Z</time></trkpt><trkpt lat="44.962545" lon="6.8655994"><ele>2200.0</ele><time>2026-04-03T10:09:17.862Z</time></trkpt><trkpt lat="44.9626165" lon="6.8655331"><ele>2200.0</ele><time>2026-04-03T10:09:19.874Z</time></trkpt><trkpt lat="44.9626872" lon="6.8654606"><ele>2200.0</ele><time>2026-04-03T10:09:21.874Z</time></trkpt><trkpt lat="44.96276" lon="6.8653937"><ele>2202.5</ele><time>2026-04-03T10:09:23.875Z</time></trkpt><trkpt lat="44.9628322" lon="6.8653265"><ele>2205.0</ele><time>2026-04-03T10:09:25.868Z</time></trkpt><trkpt lat="44.9629053" lon="6.865259"><ele>2207.5</ele><time>2026-04-03T10:09:27.866Z</time></trkpt><trkpt lat="44.9629778" lon="6.8651902"><ele>2210.0</ele><time>2026-04-03T10:09:29.861Z</time></trkpt><trkpt lat="44.9630488" lon="6.8651204"><ele>2212.5</ele><time>2026-04-03T10:09:31.859Z</time></trkpt><trkpt lat="44.9631203" lon="6.8650505"><ele>2215.0</ele><time>2026-04-03T10:09:33.876Z</time></trkpt><trkpt lat="44.963192" lon="6.8649816"><ele>2215.0</ele><time>2026-04-03T10:09:35.868Z</time></trkpt><trkpt lat="44.9632634" lon="6.8649125"><ele>2215.0</ele><time>2026-04-03T10:09:37.858Z</time></trkpt><trkpt lat="44.9633343" lon="6.8648429"><ele>2215.0</ele><time>2026-04-03T10:09:39.864Z</time></trkpt><trkpt lat="44.963404" lon="6.8647742"><ele>2215.0</ele><time>2026-04-03T10:09:41.872Z</time></trkpt><trkpt lat="44.9634735" lon="6.8647068"><ele>2215.0</ele><time>2026-04-03T10:09:43.866Z</time></trkpt><trkpt lat="44.9635436" lon="6.86464"><ele>2215.0</ele><time>2026-04-03T10:09:45.867Z</time></trkpt><trkpt lat="44.9636144" lon="6.8645714"><ele>2219.8333333333335</ele><time>2026-04-03T10:09:47.864Z</time></trkpt><trkpt lat="44.9636811" lon="6.864501"><ele>2224.666666666667</ele><time>2026-04-03T10:09:49.869Z</time></trkpt><trkpt lat="44.9637479" lon="6.8644314"><ele>2229.5</ele><time>2026-04-03T10:09:51.86Z</time></trkpt><trkpt lat="44.9638202" lon="6.8643573"><ele>2234.3333333333335</ele><time>2026-04-03T10:09:53.866Z</time></trkpt><trkpt lat="44.9638912" lon="6.8642865"><ele>2239.1666666666665</ele><time>2026-04-03T10:09:55.86Z</time></trkpt><trkpt lat="44.9639636" lon="6.8642146"><ele>2244.0</ele><time>2026-04-03T10:09:57.862Z</time></trkpt><trkpt lat="44.9640361" lon="6.8641437"><ele>2244.0</ele><time>2026-04-03T10:09:59.864Z</time></trkpt><trkpt lat="44.9641075" lon="6.8640723"><ele>2244.0</ele><time>2026-04-03T10:10:01.873Z</time></trkpt><trkpt lat="44.9641773" lon="6.8639999"><ele>2244.0</ele><time>2026-04-03T10:10:03.863Z</time></trkpt><trkpt lat="44.9642485" lon="6.8639303"><ele>2244.0</ele><time>2026-04-03T10:10:05.869Z</time></trkpt><trkpt lat="44.9643198" lon="6.8638577"><ele>2244.0</ele><time>2026-04-03T10:10:07.858Z</time></trkpt><trkpt lat="44.9643905" lon="6.863787"><ele>2244.0</ele><time>2026-04-03T10:10:09.871Z</time></trkpt><trkpt lat="44.9644601" lon="6.8637146"><ele>2249.1666666666665</ele><time>2026-04-03T10:10:11.877Z</time></trkpt><trkpt lat="44.9645335" lon="6.8636441"><ele>2254.3333333333335</ele><time>2026-04-03T10:10:13.864Z</time></trkpt><trkpt lat="44.9646047" lon="6.8635713"><ele>2259.5</ele><time>2026-04-03T10:10:15.865Z</time></trkpt><trkpt lat="44.9646752" lon="6.8635007"><ele>2264.666666666667</ele><time>2026-04-03T10:10:17.872Z</time></trkpt><trkpt lat="44.9647474" lon="6.8634314"><ele>2269.8333333333335</ele><time>2026-04-03T10:10:19.875Z</time></trkpt><trkpt lat="44.964821" lon="6.8633616"><ele>2275.0</ele><time>2026-04-03T10:10:21.865Z</time></trkpt><trkpt lat="44.9648932" lon="6.8632907"><ele>2275.0</ele><time>2026-04-03T10:10:23.86Z</time></trkpt><trkpt lat="44.9649698" lon="6.8632159"><ele>2275.0</ele><time>2026-04-03T10:10:25.865Z</time></trkpt><trkpt lat="44.9650478" lon="6.8631408"><ele>2275.0</ele><time>2026-04-03T10:10:27.861Z</time></trkpt><trkpt lat="44.9651221" lon="6.8630672"><ele>2275.0</ele><time>2026-04-03T10:10:29.866Z</time></trkpt><trkpt lat="44.9651975" lon="6.862992"><ele>2275.0</ele><time>2026-04-03T10:10:31.855Z</time></trkpt><trkpt lat="44.9652661" lon="6.8629193"><ele>2279.666666666667</ele><time>2026-04-03T10:10:33.869Z</time></trkpt><trkpt lat="44.9653139" lon="6.8628485"><ele>2284.3333333333335</ele><time>2026-04-03T10:10:38.867Z</time></trkpt><trkpt lat="44.9653477" lon="6.8627726"><ele>2289.0</ele><time>2026-04-03T10:10:59.864Z</time></trkpt><trkpt lat="44.9654316" lon="6.8627323"><ele>2293.6666666666665</ele><time>2026-04-03T10:11:42.873Z</time></trkpt><trkpt lat="44.9655008" lon="6.862709"><ele>2298.333333333333</ele><time>2026-04-03T10:11:46.866Z</time></trkpt><trkpt lat="44.9655933" lon="6.8627"><ele>2303.0</ele><time>2026-04-03T10:11:48.87Z</time></trkpt><trkpt lat="44.9656831" lon="6.8626912"><ele>2303.0</ele><time>2026-04-03T10:11:50.865Z</time></trkpt><trkpt lat="44.96577" lon="6.8626912"><ele>2303.0</ele><time>2026-04-03T10:11:52.866Z</time></trkpt><trkpt lat="44.9658574" lon="6.8626771"><ele>2303.0</ele><time>2026-04-03T10:11:54.863Z</time></trkpt><trkpt lat="44.9659134" lon="6.8626211"><ele>2303.0</ele><time>2026-04-03T10:11:56.865Z</time></trkpt><trkpt lat="44.9659704" lon="6.8625781"><ele>2303.0</ele><time>2026-04-03T10:11:58.863Z</time></trkpt><trkpt lat="44.9660306" lon="6.8625467"><ele>2303.0</ele><time>2026-04-03T10:12:00.873Z</time></trkpt><trkpt lat="44.9660925" lon="6.8625151"><ele>2303.0</ele><time>2026-04-03T10:12:02.868Z</time></trkpt><trkpt lat="44.966155" lon="6.8624942"><ele>2309.4</ele><time>2026-04-03T10:12:04.861Z</time></trkpt><trkpt lat="44.9662183" lon="6.8624838"><ele>2315.8</ele><time>2026-04-03T10:12:06.877Z</time></trkpt><trkpt lat="44.9664245" lon="6.862537"><ele>2322.2</ele><time>2026-04-03T10:12:08.871Z</time></trkpt><trkpt lat="44.9665039" lon="6.8624839"><ele>2328.6</ele><time>2026-04-03T10:12:12.876Z</time></trkpt><trkpt lat="44.9665714" lon="6.8624773"><ele>2335.0</ele><time>2026-04-03T10:12:13.86Z</time></trkpt><trkpt lat="44.9666799" lon="6.862464"><ele>2341.3333333333335</ele><time>2026-04-03T10:12:15.863Z</time></trkpt><trkpt lat="44.9667777" lon="6.8624495"><ele>2347.666666666667</ele><time>2026-04-03T10:12:17.867Z</time></trkpt><trkpt lat="44.9668666" lon="6.8624349"><ele>2354.0</ele><time>2026-04-03T10:12:19.868Z</time></trkpt><trkpt lat="44.9669591" lon="6.8624139"><ele>2360.3333333333335</ele><time>2026-04-03T10:12:21.857Z</time></trkpt><trkpt lat="44.9670405" lon="6.8623922"><ele>2366.6666666666665</ele><time>2026-04-03T10:12:23.862Z</time></trkpt><trkpt lat="44.9671225" lon="6.8623726"><ele>2373.0</ele><time>2026-04-03T10:12:25.861Z</time></trkpt><trkpt lat="44.9672046" lon="6.8623451"><ele>2373.0</ele><time>2026-04-03T10:12:27.873Z</time></trkpt><trkpt lat="44.9672835" lon="6.862317"><ele>2373.0</ele><time>2026-04-03T10:12:29.864Z</time></trkpt><trkpt lat="44.9673533" lon="6.8623031"><ele>2373.0</ele><time>2026-04-03T10:13:10.859Z</time></trkpt><trkpt lat="44.9674277" lon="6.8622822"><ele>2373.0</ele><time>2026-04-03T10:13:16.868Z</time></trkpt><trkpt lat="44.9675012" lon="6.8622604"><ele>2373.0</ele><time>2026-04-03T10:13:20.865Z</time></trkpt><trkpt lat="44.9675707" lon="6.8622414"><ele>2373.0</ele><time>2026-04-03T10:13:23.858Z</time></trkpt><trkpt lat="44.967649" lon="6.8622226"><ele>2378.6666666666665</ele><time>2026-04-03T10:13:26.868Z</time></trkpt><trkpt lat="44.9677369" lon="6.8621958"><ele>2384.3333333333335</ele><time>2026-04-03T10:13:29.866Z</time></trkpt><trkpt lat="44.9678008" lon="6.8621751"><ele>2390.0</ele><time>2026-04-03T10:13:31.858Z</time></trkpt><trkpt lat="44.9678702" lon="6.8621569"><ele>2395.666666666667</ele><time>2026-04-03T10:13:33.853Z</time></trkpt><trkpt lat="44.9679447" lon="6.8621362"><ele>2401.3333333333335</ele><time>2026-04-03T10:13:35.867Z</time></trkpt><trkpt lat="44.9680237" lon="6.862115"><ele>2407.0</ele><time>2026-04-03T10:13:37.87Z</time></trkpt><trkpt lat="44.9681037" lon="6.8620908"><ele>2407.0</ele><time>2026-04-03T10:13:39.854Z</time></trkpt><trkpt lat="44.9681834" lon="6.86207"><ele>2407.0</ele><time>2026-04-03T10:13:41.86Z</time></trkpt><trkpt lat="44.9682622" lon="6.8620476"><ele>2407.0</ele><time>2026-04-03T10:13:43.863Z</time></trkpt><trkpt lat="44.9683418" lon="6.8620256"><ele>2407.0</ele><time>2026-04-03T10:13:45.864Z</time></trkpt><trkpt lat="44.9684201" lon="6.8620038"><ele>2407.0</ele><time>2026-04-03T10:13:47.871Z</time></trkpt><trkpt lat="44.9685046" lon="6.8619815"><ele>2407.0</ele><time>2026-04-03T10:13:49.863Z</time></trkpt><trkpt lat="44.9685886" lon="6.8619587"><ele>2413.5</ele><time>2026-04-03T10:13:51.864Z</time></trkpt><trkpt lat="44.9686744" lon="6.8619354"><ele>2420.0</ele><time>2026-04-03T10:13:53.874Z</time></trkpt><trkpt lat="44.9687585" lon="6.861912"><ele>2426.5</ele><time>2026-04-03T10:13:55.871Z</time></trkpt><trkpt lat="44.9688422" lon="6.8618881"><ele>2433.0</ele><time>2026-04-03T10:13:57.873Z</time></trkpt><trkpt lat="44.9689241" lon="6.8618642"><ele>2439.5</ele><time>2026-04-03T10:13:59.863Z</time></trkpt><trkpt lat="44.9690047" lon="6.8618395"><ele>2446.0</ele><time>2026-04-03T10:14:01.876Z</time></trkpt><trkpt lat="44.9690859" lon="6.8618156"><ele>2446.0</ele><time>2026-04-03T10:14:03.875Z</time></trkpt><trkpt lat="44.9691659" lon="6.8617935"><ele>2446.0</ele><time>2026-04-03T10:14:05.864Z</time></trkpt><trkpt lat="44.9692451" lon="6.8617721"><ele>2446.0</ele><time>2026-04-03T10:14:07.863Z</time></trkpt><trkpt lat="44.9693273" lon="6.86175"><ele>2446.0</ele><time>2026-04-03T10:14:09.867Z</time></trkpt><trkpt lat="44.9694089" lon="6.8617372"><ele>2446.0</ele><time>2026-04-03T10:14:11.861Z</time></trkpt><trkpt lat="44.9694899" lon="6.8617215"><ele>2446.0</ele><time>2026-04-03T10:14:13.859Z</time></trkpt><trkpt lat="44.9695698" lon="6.8617046"><ele>2451.166666666667</ele><time>2026-04-03T10:14:15.869Z</time></trkpt><trkpt lat="44.96965" lon="6.861684"><ele>2456.3333333333335</ele><time>2026-04-03T10:14:17.858Z</time></trkpt><trkpt lat="44.9697304" lon="6.8616634"><ele>2461.5</ele><time>2026-04-03T10:14:19.868Z</time></trkpt><trkpt lat="44.9698116" lon="6.8616427"><ele>2466.6666666666665</ele><time>2026-04-03T10:14:21.863Z</time></trkpt><trkpt lat="44.9698918" lon="6.86162"><ele>2471.833333333333</ele><time>2026-04-03T10:14:23.867Z</time></trkpt><trkpt lat="44.9699719" lon="6.8615974"><ele>2477.0</ele><time>2026-04-03T10:14:25.872Z</time></trkpt><trkpt lat="44.9700522" lon="6.8615751"><ele>2481.1666666666665</ele><time>2026-04-03T10:14:27.867Z</time></trkpt><trkpt lat="44.9701324" lon="6.8615565"><ele>2485.333333333333</ele><time>2026-04-03T10:14:29.858Z</time></trkpt><trkpt lat="44.9702248" lon="6.8615378"><ele>2489.5</ele><time>2026-04-03T10:14:31.87Z</time></trkpt><trkpt lat="44.9703081" lon="6.8615124"><ele>2493.6666666666665</ele><time>2026-04-03T10:14:33.87Z</time></trkpt><trkpt lat="44.970394" lon="6.8614858"><ele>2497.8333333333335</ele><time>2026-04-03T10:14:35.857Z</time></trkpt><trkpt lat="44.9704792" lon="6.861459"><ele>2502.0</ele><time>2026-04-03T10:14:37.858Z</time></trkpt><trkpt lat="44.9705634" lon="6.8614385"><ele>2502.0</ele><time>2026-04-03T10:14:39.86Z</time></trkpt><trkpt lat="44.970649" lon="6.8614218"><ele>2502.0</ele><time>2026-04-03T10:14:41.873Z</time></trkpt><trkpt lat="44.9707359" lon="6.8613976"><ele>2502.0</ele><time>2026-04-03T10:14:43.86Z</time></trkpt><trkpt lat="44.9708196" lon="6.8613684"><ele>2502.0</ele><time>2026-04-03T10:14:45.86Z</time></trkpt><trkpt lat="44.9709086" lon="6.8613449"><ele>2502.0</ele><time>2026-04-03T10:14:47.864Z</time></trkpt><trkpt lat="44.9709934" lon="6.861318"><ele>2502.0</ele><time>2026-04-03T10:14:49.866Z</time></trkpt><trkpt lat="44.9710775" lon="6.8612915"><ele>2506.6666666666665</ele><time>2026-04-03T10:14:51.859Z</time></trkpt><trkpt lat="44.9711619" lon="6.8612677"><ele>2511.3333333333335</ele><time>2026-04-03T10:14:53.862Z</time></trkpt><trkpt lat="44.9712471" lon="6.8612463"><ele>2516.0</ele><time>2026-04-03T10:14:55.86Z</time></trkpt><trkpt lat="44.971331" lon="6.8612262"><ele>2520.666666666667</ele><time>2026-04-03T10:14:57.862Z</time></trkpt><trkpt lat="44.9714143" lon="6.8612051"><ele>2525.3333333333335</ele><time>2026-04-03T10:14:59.856Z</time></trkpt><trkpt lat="44.9714977" lon="6.8611843"><ele>2530.0</ele><time>2026-04-03T10:15:01.855Z</time></trkpt><trkpt lat="44.9715827" lon="6.8611625"><ele>2530.0</ele><time>2026-04-03T10:15:03.867Z</time></trkpt><trkpt lat="44.9716669" lon="6.8611409"><ele>2530.0</ele><time>2026-04-03T10:15:05.871Z</time></trkpt><trkpt lat="44.9717475" lon="6.8611143"><ele>2530.0</ele><time>2026-04-03T10:15:07.871Z</time></trkpt><trkpt lat="44.9718313" lon="6.8610964"><ele>2530.0</ele><time>2026-04-03T10:15:09.864Z</time></trkpt><trkpt lat="44.9719141" lon="6.8610758"><ele>2530.0</ele><time>2026-04-03T10:15:11.858Z</time></trkpt><trkpt lat="44.971996" lon="6.8610533"><ele>2530.0</ele><time>2026-04-03T10:15:13.858Z</time></trkpt><trkpt lat="44.9720786" lon="6.8610284"><ele>2533.0</ele><time>2026-04-03T10:15:15.864Z</time></trkpt><trkpt lat="44.9721603" lon="6.8610049"><ele>2536.0</ele><time>2026-04-03T10:15:17.863Z</time></trkpt><trkpt lat="44.9722412" lon="6.8609807"><ele>2539.0</ele><time>2026-04-03T10:15:19.866Z</time></trkpt><trkpt lat="44.9723317" lon="6.8609593"><ele>2542.0</ele><time>2026-04-03T10:15:21.854Z</time></trkpt><trkpt lat="44.972416" lon="6.8609382"><ele>2545.0</ele><time>2026-04-03T10:15:23.872Z</time></trkpt><trkpt lat="44.9725039" lon="6.8609149"><ele>2548.0</ele><time>2026-04-03T10:15:25.861Z</time></trkpt><trkpt lat="44.9725902" lon="6.8608891"><ele>2552.666666666667</ele><time>2026-04-03T10:15:27.877Z</time></trkpt><trkpt lat="44.9726757" lon="6.8608671"><ele>2557.3333333333335</ele><time>2026-04-03T10:15:29.873Z</time></trkpt><trkpt lat="44.9727601" lon="6.8608458"><ele>2562.0</ele><time>2026-04-03T10:15:31.864Z</time></trkpt><trkpt lat="44.9728458" lon="6.8608261"><ele>2566.6666666666665</ele><time>2026-04-03T10:15:33.863Z</time></trkpt><trkpt lat="44.9729327" lon="6.860803"><ele>2571.333333333333</ele><time>2026-04-03T10:15:35.868Z</time></trkpt><trkpt lat="44.9730168" lon="6.8607806"><ele>2576.0</ele><time>2026-04-03T10:15:37.866Z</time></trkpt><trkpt lat="44.9730999" lon="6.8607576"><ele>2576.0</ele><time>2026-04-03T10:15:39.859Z</time></trkpt><trkpt lat="44.9731863" lon="6.8607379"><ele>2576.0</ele><time>2026-04-03T10:15:41.863Z</time></trkpt><trkpt lat="44.9732693" lon="6.8607139"><ele>2576.0</ele><time>2026-04-03T10:15:43.865Z</time></trkpt><trkpt lat="44.9733548" lon="6.8606877"><ele>2576.0</ele><time>2026-04-03T10:15:45.86Z</time></trkpt><trkpt lat="44.9734408" lon="6.8606672"><ele>2576.0</ele><time>2026-04-03T10:15:47.859Z</time></trkpt><trkpt lat="44.9735255" lon="6.8606365"><ele>2576.0</ele><time>2026-04-03T10:15:49.858Z</time></trkpt><trkpt lat="44.9736122" lon="6.8606069"><ele>2580.0</ele><time>2026-04-03T10:15:51.873Z</time></trkpt><trkpt lat="44.9736994" lon="6.8605762"><ele>2584.0</ele><time>2026-04-03T10:15:53.857Z</time></trkpt><trkpt lat="44.9737842" lon="6.8605554"><ele>2588.0</ele><time>2026-04-03T10:15:55.864Z</time></trkpt><trkpt lat="44.9738678" lon="6.8605331"><ele>2592.0</ele><time>2026-04-03T10:15:57.86Z</time></trkpt><trkpt lat="44.9739525" lon="6.8605179"><ele>2596.0</ele><time>2026-04-03T10:15:59.864Z</time></trkpt><trkpt lat="44.9740398" lon="6.8604931"><ele>2600.0</ele><time>2026-04-03T10:16:01.859Z</time></trkpt><trkpt lat="44.974128" lon="6.8604552"><ele>2605.0</ele><time>2026-04-03T10:16:03.864Z</time></trkpt><trkpt lat="44.9742186" lon="6.8604352"><ele>2610.0</ele><time>2026-04-03T10:16:05.861Z</time></trkpt><trkpt lat="44.9743045" lon="6.8604087"><ele>2615.0</ele><time>2026-04-03T10:16:07.867Z</time></trkpt><trkpt lat="44.9743908" lon="6.8603827"><ele>2620.0</ele><time>2026-04-03T10:16:09.861Z</time></trkpt><trkpt lat="44.9744768" lon="6.8603556"><ele>2625.0</ele><time>2026-04-03T10:16:11.862Z</time></trkpt><trkpt lat="44.9745631" lon="6.8603318"><ele>2630.0</ele><time>2026-04-03T10:16:13.863Z</time></trkpt><trkpt lat="44.9746485" lon="6.8603088"><ele>2630.0</ele><time>2026-04-03T10:16:15.867Z</time></trkpt><trkpt lat="44.9747344" lon="6.8602856"><ele>2630.0</ele><time>2026-04-03T10:16:17.873Z</time></trkpt><trkpt lat="44.9748188" lon="6.8602606"><ele>2630.0</ele><time>2026-04-03T10:16:19.868Z</time></trkpt><trkpt lat="44.9749034" lon="6.860236"><ele>2630.0</ele><time>2026-04-03T10:16:21.875Z</time></trkpt><trkpt lat="44.9749874" lon="6.8602117"><ele>2630.0</ele><time>2026-04-03T10:16:23.861Z</time></trkpt><trkpt lat="44.9750706" lon="6.8601858"><ele>2630.0</ele><time>2026-04-03T10:16:25.86Z</time></trkpt><trkpt lat="44.9751547" lon="6.860162"><ele>2635.333333333333</ele><time>2026-04-03T10:16:27.871Z</time></trkpt><trkpt lat="44.9752382" lon="6.8601385"><ele>2640.6666666666665</ele><time>2026-04-03T10:16:29.869Z</time></trkpt><trkpt lat="44.9753213" lon="6.8601165"><ele>2646.0</ele><time>2026-04-03T10:16:31.87Z</time></trkpt><trkpt lat="44.9754038" lon="6.860094"><ele>2651.3333333333335</ele><time>2026-04-03T10:16:33.87Z</time></trkpt><trkpt lat="44.9754879" lon="6.8600715"><ele>2656.666666666667</ele><time>2026-04-03T10:16:35.855Z</time></trkpt><trkpt lat="44.9755727" lon="6.8600501"><ele>2662.0</ele><time>2026-04-03T10:16:37.871Z</time></trkpt><trkpt lat="44.9756577" lon="6.8600278"><ele>2662.0</ele><time>2026-04-03T10:16:39.857Z</time></trkpt><trkpt lat="44.9757429" lon="6.8600058"><ele>2662.0</ele><time>2026-04-03T10:16:41.864Z</time></trkpt><trkpt lat="44.9758285" lon="6.8599845"><ele>2662.0</ele><time>2026-04-03T10:16:43.875Z</time></trkpt><trkpt lat="44.975914" lon="6.859963"><ele>2662.0</ele><time>2026-04-03T10:16:45.874Z</time></trkpt><trkpt lat="44.9759988" lon="6.8599414"><ele>2662.0</ele><time>2026-04-03T10:16:47.866Z</time></trkpt><trkpt lat="44.9760844" lon="6.8599187"><ele>2662.0</ele><time>2026-04-03T10:16:49.862Z</time></trkpt><trkpt lat="44.9761741" lon="6.8599033"><ele>2665.5</ele><time>2026-04-03T10:16:51.865Z</time></trkpt><trkpt lat="44.9762584" lon="6.8598878"><ele>2669.0</ele><time>2026-04-03T10:16:53.861Z</time></trkpt><trkpt lat="44.9763486" lon="6.8598611"><ele>2672.5</ele><time>2026-04-03T10:16:55.861Z</time></trkpt><trkpt lat="44.9764349" lon="6.8598371"><ele>2676.0</ele><time>2026-04-03T10:16:57.865Z</time></trkpt><trkpt lat="44.9764965" lon="6.8598107"><ele>2679.5</ele><time>2026-04-03T10:17:01.867Z</time></trkpt><trkpt lat="44.9765604" lon="6.8597923"><ele>2683.0</ele><time>2026-04-03T10:17:17.872Z</time></trkpt><trkpt lat="44.976631" lon="6.8598134"><ele>2683.0</ele><time>2026-04-03T10:17:30.862Z</time></trkpt><trkpt lat="44.9766685" lon="6.8597414"><ele>2683.0</ele><time>2026-04-03T10:18:13.874Z</time></trkpt><trkpt lat="44.9767193" lon="6.8596884"><ele>2683.0</ele><time>2026-04-03T10:18:20.859Z</time></trkpt><trkpt lat="44.9767648" lon="6.8596209"><ele>2683.0</ele><time>2026-04-03T10:18:50.863Z</time></trkpt><trkpt lat="44.9766966" lon="6.8596896"><ele>2683.0</ele><time>2026-04-03T10:24:24.861Z</time></trkpt><trkpt lat="44.9766555" lon="6.8595929"><ele>2683.0</ele><time>2026-04-03T10:24:28.861Z</time></trkpt><trkpt lat="44.9766239" lon="6.8594544"><ele>2683.0</ele><time>2026-04-03T10:24:30.851Z</time></trkpt><trkpt lat="44.9765835" lon="6.8593794"><ele>2683.0</ele><time>2026-04-03T10:24:31.864Z</time></trkpt><trkpt lat="44.9765424" lon="6.8592854"><ele>2683.0</ele><time>2026-04-03T10:24:32.86Z</time></trkpt><trkpt lat="44.9765133" lon="6.8591732"><ele>2683.0</ele><time>2026-04-03T10:24:33.862Z</time></trkpt><trkpt lat="44.9765017" lon="6.8590676"><ele>2683.0</ele><time>2026-04-03T10:24:34.867Z</time></trkpt><trkpt lat="44.9765" lon="6.8589769"><ele>2683.0</ele><time>2026-04-03T10:24:35.865Z</time></trkpt><trkpt lat="44.976523" lon="6.8588589"><ele>2681.1428571428573</ele><time>2026-04-03T10:24:37.858Z</time></trkpt><trkpt lat="44.9765862" lon="6.8588782"><ele>2679.285714285714</ele><time>2026-04-03T10:24:40.866Z</time></trkpt><trkpt lat="44.9766391" lon="6.8589448"><ele>2677.4285714285716</ele><time>2026-04-03T10:24:43.859Z</time></trkpt><trkpt lat="44.9766923" lon="6.8590063"><ele>2675.5714285714284</ele><time>2026-04-03T10:24:55.868Z</time></trkpt><trkpt lat="44.9767424" lon="6.8590814"><ele>2673.714285714286</ele><time>2026-04-03T10:25:46.856Z</time></trkpt><trkpt lat="44.9767878" lon="6.8591433"><ele>2671.8571428571427</ele><time>2026-04-03T10:25:52.862Z</time></trkpt><trkpt lat="44.9768451" lon="6.8592035"><ele>2670.0</ele><time>2026-04-03T10:25:56.861Z</time></trkpt><trkpt lat="44.9769167" lon="6.8592919"><ele>2665.8</ele><time>2026-04-03T10:25:59.855Z</time></trkpt><trkpt lat="44.9770132" lon="6.8593546"><ele>2661.6</ele><time>2026-04-03T10:26:01.873Z</time></trkpt><trkpt lat="44.9770782" lon="6.859454"><ele>2657.3999999999996</ele><time>2026-04-03T10:26:03.867Z</time></trkpt><trkpt lat="44.9771651" lon="6.8595697"><ele>2653.2</ele><time>2026-04-03T10:26:05.861Z</time></trkpt><trkpt lat="44.9772063" lon="6.859643"><ele>2649.0</ele><time>2026-04-03T10:26:06.864Z</time></trkpt><trkpt lat="44.9772535" lon="6.8597231"><ele>2649.0</ele><time>2026-04-03T10:26:07.862Z</time></trkpt><trkpt lat="44.9773287" lon="6.8597821"><ele>2649.0</ele><time>2026-04-03T10:26:08.868Z</time></trkpt><trkpt lat="44.9773962" lon="6.8598495"><ele>2649.0</ele><time>2026-04-03T10:26:09.856Z</time></trkpt><trkpt lat="44.9774647" lon="6.8599225"><ele>2649.0</ele><time>2026-04-03T10:26:10.87Z</time></trkpt><trkpt lat="44.9775523" lon="6.8599814"><ele>2649.0</ele><time>2026-04-03T10:26:11.871Z</time></trkpt><trkpt lat="44.9776354" lon="6.8600672"><ele>2646.3999999999996</ele><time>2026-04-03T10:26:12.855Z</time></trkpt><trkpt lat="44.9777229" lon="6.8601566"><ele>2643.8</ele><time>2026-04-03T10:26:13.867Z</time></trkpt><trkpt lat="44.977825" lon="6.8601993"><ele>2641.2</ele><time>2026-04-03T10:26:14.859Z</time></trkpt><trkpt lat="44.9778992" lon="6.8602943"><ele>2638.6000000000004</ele><time>2026-04-03T10:26:15.861Z</time></trkpt><trkpt lat="44.977988" lon="6.8603791"><ele>2636.0</ele><time>2026-04-03T10:26:16.855Z</time></trkpt><trkpt lat="44.9780754" lon="6.8604335"><ele>2636.0</ele><time>2026-04-03T10:26:17.871Z</time></trkpt><trkpt lat="44.9781987" lon="6.8604896"><ele>2636.0</ele><time>2026-04-03T10:26:18.865Z</time></trkpt><trkpt lat="44.9782922" lon="6.8605323"><ele>2636.0</ele><time>2026-04-03T10:26:19.873Z</time></trkpt><trkpt lat="44.9783866" lon="6.860576"><ele>2636.0</ele><time>2026-04-03T10:26:20.857Z</time></trkpt><trkpt lat="44.9784804" lon="6.8605937"><ele>2636.0</ele><time>2026-04-03T10:26:21.857Z</time></trkpt><trkpt lat="44.9785574" lon="6.8605893"><ele>2630.6666666666665</ele><time>2026-04-03T10:26:22.873Z</time></trkpt><trkpt lat="44.978636" lon="6.8606351"><ele>2625.333333333333</ele><time>2026-04-03T10:26:23.867Z</time></trkpt><trkpt lat="44.9787138" lon="6.8606448"><ele>2620.0</ele><time>2026-04-03T10:26:24.856Z</time></trkpt><trkpt lat="44.9787806" lon="6.8606478"><ele>2614.6666666666665</ele><time>2026-04-03T10:26:25.871Z</time></trkpt><trkpt lat="44.9788588" lon="6.8606323"><ele>2609.3333333333335</ele><time>2026-04-03T10:26:26.862Z</time></trkpt><trkpt lat="44.978931" lon="6.8606587"><ele>2604.0</ele><time>2026-04-03T10:26:27.868Z</time></trkpt><trkpt lat="44.9790054" lon="6.8606941"><ele>2604.0</ele><time>2026-04-03T10:26:28.865Z</time></trkpt><trkpt lat="44.9790694" lon="6.8607313"><ele>2604.0</ele><time>2026-04-03T10:26:29.859Z</time></trkpt><trkpt lat="44.9791576" lon="6.8607856"><ele>2604.0</ele><time>2026-04-03T10:26:31.861Z</time></trkpt><trkpt lat="44.9791963" lon="6.8608587"><ele>2604.0</ele><time>2026-04-03T10:26:41.857Z</time></trkpt><trkpt lat="44.979242" lon="6.8609558"><ele>2604.0</ele><time>2026-04-03T10:26:44.862Z</time></trkpt><trkpt lat="44.9792987" lon="6.8610548"><ele>2604.0</ele><time>2026-04-03T10:26:46.868Z</time></trkpt><trkpt lat="44.9793854" lon="6.8611913"><ele>2599.8571428571427</ele><time>2026-04-03T10:26:48.87Z</time></trkpt><trkpt lat="44.9794397" lon="6.8612681"><ele>2595.714285714286</ele><time>2026-04-03T10:26:49.865Z</time></trkpt><trkpt lat="44.9794886" lon="6.8613308"><ele>2591.5714285714284</ele><time>2026-04-03T10:26:50.863Z</time></trkpt><trkpt lat="44.9795388" lon="6.8614153"><ele>2587.4285714285716</ele><time>2026-04-03T10:26:52.865Z</time></trkpt><trkpt lat="44.9795684" lon="6.8615062"><ele>2583.285714285714</ele><time>2026-04-03T10:27:13.866Z</time></trkpt><trkpt lat="44.9795252" lon="6.8615868"><ele>2579.142857142857</ele><time>2026-04-03T10:27:17.86Z</time></trkpt><trkpt lat="44.9795805" lon="6.8616662"><ele>2575.0</ele><time>2026-04-03T10:27:27.859Z</time></trkpt><trkpt lat="44.9796353" lon="6.8617887"><ele>2574.8</ele><time>2026-04-03T10:27:29.857Z</time></trkpt><trkpt lat="44.9797205" lon="6.8618798"><ele>2574.6</ele><time>2026-04-03T10:27:31.861Z</time></trkpt><trkpt lat="44.9798036" lon="6.861937"><ele>2574.3999999999996</ele><time>2026-04-03T10:27:32.859Z</time></trkpt><trkpt lat="44.9798573" lon="6.8620343"><ele>2574.2</ele><time>2026-04-03T10:27:33.859Z</time></trkpt><trkpt lat="44.9799225" lon="6.8621115"><ele>2574.0</ele><time>2026-04-03T10:27:34.857Z</time></trkpt><trkpt lat="44.980004" lon="6.8621594"><ele>2568.3999999999996</ele><time>2026-04-03T10:27:35.872Z</time></trkpt><trkpt lat="44.9801152" lon="6.86223"><ele>2562.7999999999997</ele><time>2026-04-03T10:27:36.869Z</time></trkpt><trkpt lat="44.9801993" lon="6.8623337"><ele>2557.2</ele><time>2026-04-03T10:27:37.865Z</time></trkpt><trkpt lat="44.9802888" lon="6.8623852"><ele>2551.6</ele><time>2026-04-03T10:27:38.863Z</time></trkpt><trkpt lat="44.980395" lon="6.8624205"><ele>2546.0</ele><time>2026-04-03T10:27:39.858Z</time></trkpt><trkpt lat="44.9804888" lon="6.8625172"><ele>2544.4</ele><time>2026-04-03T10:27:40.864Z</time></trkpt><trkpt lat="44.9805607" lon="6.8626189"><ele>2542.8</ele><time>2026-04-03T10:27:41.872Z</time></trkpt><trkpt lat="44.980647" lon="6.8627068"><ele>2541.2000000000003</ele><time>2026-04-03T10:27:42.861Z</time></trkpt><trkpt lat="44.980723" lon="6.8627339"><ele>2539.6</ele><time>2026-04-03T10:27:43.858Z</time></trkpt><trkpt lat="44.9808065" lon="6.8628242"><ele>2538.0</ele><time>2026-04-03T10:27:44.863Z</time></trkpt><trkpt lat="44.9808859" lon="6.8629173"><ele>2534.25</ele><time>2026-04-03T10:27:45.862Z</time></trkpt><trkpt lat="44.9809814" lon="6.8629935"><ele>2530.5</ele><time>2026-04-03T10:27:46.863Z</time></trkpt><trkpt lat="44.9810726" lon="6.8630842"><ele>2526.75</ele><time>2026-04-03T10:27:47.867Z</time></trkpt><trkpt lat="44.9811568" lon="6.8632126"><ele>2523.0</ele><time>2026-04-03T10:27:48.868Z</time></trkpt><trkpt lat="44.9812478" lon="6.8633317"><ele>2523.0</ele><time>2026-04-03T10:27:49.874Z</time></trkpt><trkpt lat="44.9813556" lon="6.8634469"><ele>2523.0</ele><time>2026-04-03T10:27:50.863Z</time></trkpt><trkpt lat="44.9814967" lon="6.8635289"><ele>2523.0</ele><time>2026-04-03T10:27:51.852Z</time></trkpt><trkpt lat="44.9816183" lon="6.8636082"><ele>2523.0</ele><time>2026-04-03T10:27:52.861Z</time></trkpt><trkpt lat="44.9817301" lon="6.8636861"><ele>2521.5</ele><time>2026-04-03T10:27:53.866Z</time></trkpt><trkpt lat="44.9818365" lon="6.8637798"><ele>2520.0</ele><time>2026-04-03T10:27:54.868Z</time></trkpt><trkpt lat="44.9819392" lon="6.8638853"><ele>2518.5</ele><time>2026-04-03T10:27:55.866Z</time></trkpt><trkpt lat="44.9820394" lon="6.8639962"><ele>2517.0</ele><time>2026-04-03T10:27:56.872Z</time></trkpt><trkpt lat="44.982137" lon="6.8641256"><ele>2517.0</ele><time>2026-04-03T10:27:57.861Z</time></trkpt><trkpt lat="44.9822351" lon="6.8642557"><ele>2517.0</ele><time>2026-04-03T10:27:58.863Z</time></trkpt><trkpt lat="44.9823048" lon="6.8644075"><ele>2517.0</ele><time>2026-04-03T10:27:59.862Z</time></trkpt><trkpt lat="44.9824035" lon="6.8645054"><ele>2517.0</ele><time>2026-04-03T10:28:00.864Z</time></trkpt><trkpt lat="44.9824964" lon="6.8646027"><ele>2513.0</ele><time>2026-04-03T10:28:01.863Z</time></trkpt><trkpt lat="44.9826115" lon="6.864685"><ele>2509.0</ele><time>2026-04-03T10:28:02.862Z</time></trkpt><trkpt lat="44.9827242" lon="6.8647738"><ele>2505.0</ele><time>2026-04-03T10:28:03.86Z</time></trkpt><trkpt lat="44.9828302" lon="6.8648554"><ele>2501.0</ele><time>2026-04-03T10:28:04.854Z</time></trkpt><trkpt lat="44.982924" lon="6.8649416"><ele>2501.0</ele><time>2026-04-03T10:28:05.867Z</time></trkpt><trkpt lat="44.9829932" lon="6.865032"><ele>2501.0</ele><time>2026-04-03T10:28:06.859Z</time></trkpt><trkpt lat="44.9830608" lon="6.8651153"><ele>2501.0</ele><time>2026-04-03T10:28:07.86Z</time></trkpt><trkpt lat="44.9831265" lon="6.8651895"><ele>2501.0</ele><time>2026-04-03T10:28:08.871Z</time></trkpt><trkpt lat="44.983199" lon="6.8652716"><ele>2501.0</ele><time>2026-04-03T10:28:09.87Z</time></trkpt><trkpt lat="44.9832655" lon="6.8653593"><ele>2499.8</ele><time>2026-04-03T10:28:10.866Z</time></trkpt><trkpt lat="44.9833358" lon="6.8654505"><ele>2498.6</ele><time>2026-04-03T10:28:11.864Z</time></trkpt><trkpt lat="44.9834142" lon="6.8655415"><ele>2497.4</ele><time>2026-04-03T10:28:12.876Z</time></trkpt><trkpt lat="44.9834882" lon="6.8656289"><ele>2496.2</ele><time>2026-04-03T10:28:13.867Z</time></trkpt><trkpt lat="44.983557" lon="6.8657248"><ele>2495.0</ele><time>2026-04-03T10:28:14.858Z</time></trkpt><trkpt lat="44.9836149" lon="6.8658386"><ele>2494.0</ele><time>2026-04-03T10:28:15.871Z</time></trkpt><trkpt lat="44.9836665" lon="6.8659655"><ele>2493.0</ele><time>2026-04-03T10:28:16.871Z</time></trkpt><trkpt lat="44.9837243" lon="6.8660825"><ele>2492.0</ele><time>2026-04-03T10:28:17.857Z</time></trkpt><trkpt lat="44.9837794" lon="6.8662028"><ele>2491.0</ele><time>2026-04-03T10:28:18.855Z</time></trkpt><trkpt lat="44.9838282" lon="6.8663153"><ele>2490.0</ele><time>2026-04-03T10:28:19.864Z</time></trkpt><trkpt lat="44.9838707" lon="6.8664274"><ele>2490.0</ele><time>2026-04-03T10:28:20.864Z</time></trkpt><trkpt lat="44.9839084" lon="6.8665434"><ele>2490.0</ele><time>2026-04-03T10:28:21.866Z</time></trkpt><trkpt lat="44.9839443" lon="6.8666607"><ele>2490.0</ele><time>2026-04-03T10:28:22.87Z</time></trkpt><trkpt lat="44.9839772" lon="6.8667647"><ele>2490.0</ele><time>2026-04-03T10:28:23.855Z</time></trkpt><trkpt lat="44.9840084" lon="6.8668764"><ele>2490.0</ele><time>2026-04-03T10:28:24.874Z</time></trkpt><trkpt lat="44.9840441" lon="6.8669894"><ele>2490.0</ele><time>2026-04-03T10:28:25.865Z</time></trkpt><trkpt lat="44.9840831" lon="6.8671004"><ele>2489.4</ele><time>2026-04-03T10:28:26.868Z</time></trkpt><trkpt lat="44.9841233" lon="6.8672225"><ele>2488.8</ele><time>2026-04-03T10:28:27.86Z</time></trkpt><trkpt lat="44.9841622" lon="6.8673427"><ele>2488.2</ele><time>2026-04-03T10:28:28.86Z</time></trkpt><trkpt lat="44.9842054" lon="6.867463"><ele>2487.6</ele><time>2026-04-03T10:28:29.866Z</time></trkpt><trkpt lat="44.9842634" lon="6.8675856"><ele>2487.0</ele><time>2026-04-03T10:28:30.858Z</time></trkpt><trkpt lat="44.9843288" lon="6.8676885"><ele>2485.2</ele><time>2026-04-03T10:28:31.856Z</time></trkpt><trkpt lat="44.9844108" lon="6.867791"><ele>2483.3999999999996</ele><time>2026-04-03T10:28:32.857Z</time></trkpt><trkpt lat="44.9844865" lon="6.8678987"><ele>2481.6000000000004</ele><time>2026-04-03T10:28:33.869Z</time></trkpt><trkpt lat="44.9845649" lon="6.8680046"><ele>2479.8</ele><time>2026-04-03T10:28:34.859Z</time></trkpt><trkpt lat="44.9846473" lon="6.8681047"><ele>2478.0</ele><time>2026-04-03T10:28:35.863Z</time></trkpt><trkpt lat="44.9847359" lon="6.8682041"><ele>2478.0</ele><time>2026-04-03T10:28:36.864Z</time></trkpt><trkpt lat="44.9848265" lon="6.8682957"><ele>2478.0</ele><time>2026-04-03T10:28:37.859Z</time></trkpt><trkpt lat="44.9849258" lon="6.8683792"><ele>2478.0</ele><time>2026-04-03T10:28:38.871Z</time></trkpt><trkpt lat="44.9850287" lon="6.8684578"><ele>2478.0</ele><time>2026-04-03T10:28:39.865Z</time></trkpt><trkpt lat="44.9851303" lon="6.8685524"><ele>2476.0</ele><time>2026-04-03T10:28:40.87Z</time></trkpt><trkpt lat="44.9852484" lon="6.868636"><ele>2474.0</ele><time>2026-04-03T10:28:41.871Z</time></trkpt><trkpt lat="44.9853581" lon="6.8687302"><ele>2472.0</ele><time>2026-04-03T10:28:42.856Z</time></trkpt><trkpt lat="44.9854365" lon="6.8688241"><ele>2470.0</ele><time>2026-04-03T10:28:43.87Z</time></trkpt><trkpt lat="44.9855006" lon="6.8689116"><ele>2470.0</ele><time>2026-04-03T10:28:44.862Z</time></trkpt><trkpt lat="44.985537" lon="6.8690105"><ele>2470.0</ele><time>2026-04-03T10:28:45.867Z</time></trkpt><trkpt lat="44.9855987" lon="6.869114"><ele>2470.0</ele><time>2026-04-03T10:28:46.864Z</time></trkpt><trkpt lat="44.9856265" lon="6.8692369"><ele>2470.0</ele><time>2026-04-03T10:28:47.863Z</time></trkpt><trkpt lat="44.9856726" lon="6.8693384"><ele>2470.0</ele><time>2026-04-03T10:28:48.866Z</time></trkpt><trkpt lat="44.985726" lon="6.8694205"><ele>2470.0</ele><time>2026-04-03T10:28:49.875Z</time></trkpt><trkpt lat="44.9857926" lon="6.8694145"><ele>2467.6</ele><time>2026-04-03T10:28:50.868Z</time></trkpt><trkpt lat="44.9858911" lon="6.8693168"><ele>2465.2</ele><time>2026-04-03T10:28:52.858Z</time></trkpt><trkpt lat="44.9859625" lon="6.8691875"><ele>2462.8</ele><time>2026-04-03T10:28:54.867Z</time></trkpt><trkpt lat="44.986019" lon="6.8690801"><ele>2460.4</ele><time>2026-04-03T10:28:56.863Z</time></trkpt><trkpt lat="44.9860622" lon="6.868994"><ele>2458.0</ele><time>2026-04-03T10:28:58.859Z</time></trkpt><trkpt lat="44.9861156" lon="6.8689138"><ele>2458.0</ele><time>2026-04-03T10:29:01.855Z</time></trkpt><trkpt lat="44.9861555" lon="6.8688185"><ele>2458.0</ele><time>2026-04-03T10:29:04.866Z</time></trkpt><trkpt lat="44.9861807" lon="6.868723"><ele>2458.0</ele><time>2026-04-03T10:29:07.874Z</time></trkpt><trkpt lat="44.9862256" lon="6.8686307"><ele>2458.0</ele><time>2026-04-03T10:29:10.872Z</time></trkpt><trkpt lat="44.9862484" lon="6.8685174"><ele>2458.0</ele><time>2026-04-03T10:29:12.859Z</time></trkpt><trkpt lat="44.9862145" lon="6.8684209"><ele>2458.0</ele><time>2026-04-03T10:29:15.864Z</time></trkpt><trkpt lat="44.9862031" lon="6.8682816"><ele>2457.666666666667</ele><time>2026-04-03T10:29:37.865Z</time></trkpt><trkpt lat="44.9862115" lon="6.8681922"><ele>2457.3333333333335</ele><time>2026-04-03T10:29:38.876Z</time></trkpt><trkpt lat="44.9861846" lon="6.8680913"><ele>2457.0</ele><time>2026-04-03T10:29:39.856Z</time></trkpt><trkpt lat="44.9861758" lon="6.8679701"><ele>2456.6666666666665</ele><time>2026-04-03T10:29:40.857Z</time></trkpt><trkpt lat="44.9861854" lon="6.8678678"><ele>2456.333333333333</ele><time>2026-04-03T10:29:41.853Z</time></trkpt><trkpt lat="44.9862048" lon="6.8677554"><ele>2456.0</ele><time>2026-04-03T10:29:42.857Z</time></trkpt><trkpt lat="44.9862689" lon="6.8677003"><ele>2452.2</ele><time>2026-04-03T10:29:43.859Z</time></trkpt><trkpt lat="44.9862678" lon="6.8675123"><ele>2448.3999999999996</ele><time>2026-04-03T10:29:44.874Z</time></trkpt><trkpt lat="44.986299" lon="6.8673614"><ele>2444.6</ele><time>2026-04-03T10:29:45.872Z</time></trkpt><trkpt lat="44.9863585" lon="6.8672284"><ele>2440.7999999999997</ele><time>2026-04-03T10:29:46.855Z</time></trkpt><trkpt lat="44.9864188" lon="6.8671922"><ele>2437.0</ele><time>2026-04-03T10:29:47.866Z</time></trkpt><trkpt lat="44.9865047" lon="6.8672012"><ele>2437.0</ele><time>2026-04-03T10:29:48.859Z</time></trkpt><trkpt lat="44.9865944" lon="6.8671229"><ele>2437.0</ele><time>2026-04-03T10:29:49.869Z</time></trkpt><trkpt lat="44.9866973" lon="6.8670085"><ele>2437.0</ele><time>2026-04-03T10:29:50.862Z</time></trkpt><trkpt lat="44.9867512" lon="6.8668129"><ele>2437.0</ele><time>2026-04-03T10:29:51.862Z</time></trkpt><trkpt lat="44.986789" lon="6.8666478"><ele>2427.5</ele><time>2026-04-03T10:29:52.868Z</time></trkpt><trkpt lat="44.9869399" lon="6.8666734"><ele>2418.0</ele><time>2026-04-03T10:29:53.859Z</time></trkpt><trkpt lat="44.9870456" lon="6.8665904"><ele>2408.5</ele><time>2026-04-03T10:29:54.872Z</time></trkpt><trkpt lat="44.9871742" lon="6.8665138"><ele>2399.0</ele><time>2026-04-03T10:29:55.86Z</time></trkpt><trkpt lat="44.9872881" lon="6.8664865"><ele>2399.0</ele><time>2026-04-03T10:29:56.871Z</time></trkpt><trkpt lat="44.9873994" lon="6.8663777"><ele>2399.0</ele><time>2026-04-03T10:29:57.864Z</time></trkpt><trkpt lat="44.9874962" lon="6.8662802"><ele>2399.0</ele><time>2026-04-03T10:29:58.862Z</time></trkpt><trkpt lat="44.9875466" lon="6.8661876"><ele>2399.0</ele><time>2026-04-03T10:29:59.863Z</time></trkpt><trkpt lat="44.9875507" lon="6.8657818"><ele>2391.5</ele><time>2026-04-03T10:30:00.863Z</time></trkpt><trkpt lat="44.9876895" lon="6.8657059"><ele>2384.0</ele><time>2026-04-03T10:30:01.854Z</time></trkpt><trkpt lat="44.9877993" lon="6.8655408"><ele>2376.5</ele><time>2026-04-03T10:30:02.863Z</time></trkpt><trkpt lat="44.9878569" lon="6.8656646"><ele>2369.0</ele><time>2026-04-03T10:30:03.872Z</time></trkpt><trkpt lat="44.9879592" lon="6.8655475"><ele>2369.0</ele><time>2026-04-03T10:30:04.864Z</time></trkpt><trkpt lat="44.9880332" lon="6.8654283"><ele>2369.0</ele><time>2026-04-03T10:30:05.866Z</time></trkpt><trkpt lat="44.9879356" lon="6.8651634"><ele>2369.0</ele><time>2026-04-03T10:30:06.871Z</time></trkpt><trkpt lat="44.9880009" lon="6.8650118"><ele>2369.0</ele><time>2026-04-03T10:30:07.868Z</time></trkpt><trkpt lat="44.988059" lon="6.8648455"><ele>2364.75</ele><time>2026-04-03T10:30:08.87Z</time></trkpt><trkpt lat="44.9881468" lon="6.8647482"><ele>2360.5</ele><time>2026-04-03T10:30:09.875Z</time></trkpt><trkpt lat="44.9882125" lon="6.8646812"><ele>2356.25</ele><time>2026-04-03T10:30:10.861Z</time></trkpt><trkpt lat="44.9883441" lon="6.8648045"><ele>2352.0</ele><time>2026-04-03T10:30:11.866Z</time></trkpt><trkpt lat="44.9885029" lon="6.8648379"><ele>2350.0</ele><time>2026-04-03T10:30:12.863Z</time></trkpt><trkpt lat="44.9885933" lon="6.8648269"><ele>2348.0</ele><time>2026-04-03T10:30:13.866Z</time></trkpt><trkpt lat="44.9887096" lon="6.8647712"><ele>2346.0</ele><time>2026-04-03T10:30:14.875Z</time></trkpt><trkpt lat="44.9887778" lon="6.8647038"><ele>2344.0</ele><time>2026-04-03T10:30:15.861Z</time></trkpt><trkpt lat="44.9888632" lon="6.8643841"><ele>2344.0</ele><time>2026-04-03T10:30:16.869Z</time></trkpt><trkpt lat="44.9889573" lon="6.8642856"><ele>2344.0</ele><time>2026-04-03T10:30:17.863Z</time></trkpt><trkpt lat="44.989001" lon="6.8641072"><ele>2344.0</ele><time>2026-04-03T10:30:18.865Z</time></trkpt><trkpt lat="44.9890359" lon="6.8639786"><ele>2344.0</ele><time>2026-04-03T10:30:19.866Z</time></trkpt><trkpt lat="44.9890535" lon="6.863823"><ele>2341.25</ele><time>2026-04-03T10:30:20.862Z</time></trkpt><trkpt lat="44.9890189" lon="6.863626"><ele>2338.5</ele><time>2026-04-03T10:30:21.855Z</time></trkpt><trkpt lat="44.9890834" lon="6.8634724"><ele>2335.75</ele><time>2026-04-03T10:30:22.865Z</time></trkpt><trkpt lat="44.9891265" lon="6.8633101"><ele>2333.0</ele><time>2026-04-03T10:30:23.856Z</time></trkpt><trkpt lat="44.9891567" lon="6.8631664"><ele>2330.0</ele><time>2026-04-03T10:30:24.873Z</time></trkpt><trkpt lat="44.9890943" lon="6.8629908"><ele>2327.0</ele><time>2026-04-03T10:30:25.867Z</time></trkpt><trkpt lat="44.989109" lon="6.8628268"><ele>2324.0</ele><time>2026-04-03T10:30:26.867Z</time></trkpt><trkpt lat="44.9891396" lon="6.8627311"><ele>2321.0</ele><time>2026-04-03T10:30:27.859Z</time></trkpt><trkpt lat="44.9891809" lon="6.8626086"><ele>2318.0</ele><time>2026-04-03T10:30:29.866Z</time></trkpt><trkpt lat="44.9892528" lon="6.8625767"><ele>2314.6</ele><time>2026-04-03T10:30:31.858Z</time></trkpt><trkpt lat="44.98936" lon="6.8625803"><ele>2311.2000000000003</ele><time>2026-04-03T10:30:33.865Z</time></trkpt><trkpt lat="44.9894368" lon="6.8625937"><ele>2307.8</ele><time>2026-04-03T10:30:34.862Z</time></trkpt><trkpt lat="44.9895209" lon="6.8626216"><ele>2304.4</ele><time>2026-04-03T10:30:35.866Z</time></trkpt><trkpt lat="44.9896158" lon="6.8626673"><ele>2301.0</ele><time>2026-04-03T10:30:36.865Z</time></trkpt><trkpt lat="44.9897087" lon="6.8627204"><ele>2301.0</ele><time>2026-04-03T10:30:37.86Z</time></trkpt><trkpt lat="44.9898078" lon="6.8627374"><ele>2301.0</ele><time>2026-04-03T10:30:38.864Z</time></trkpt><trkpt lat="44.9899046" lon="6.8627462"><ele>2301.0</ele><time>2026-04-03T10:30:39.871Z</time></trkpt><trkpt lat="44.9900209" lon="6.8627048"><ele>2301.0</ele><time>2026-04-03T10:30:40.873Z</time></trkpt><trkpt lat="44.9901328" lon="6.8626654"><ele>2301.0</ele><time>2026-04-03T10:30:41.857Z</time></trkpt><trkpt lat="44.9902077" lon="6.8626012"><ele>2295.0</ele><time>2026-04-03T10:30:42.866Z</time></trkpt><trkpt lat="44.9902688" lon="6.862464"><ele>2289.0</ele><time>2026-04-03T10:30:43.868Z</time></trkpt><trkpt lat="44.9903446" lon="6.8622694"><ele>2283.0</ele><time>2026-04-03T10:30:44.858Z</time></trkpt><trkpt lat="44.9903151" lon="6.8619623"><ele>2283.0</ele><time>2026-04-03T10:30:45.875Z</time></trkpt><trkpt lat="44.9903" lon="6.8617916"><ele>2283.0</ele><time>2026-04-03T10:30:46.86Z</time></trkpt><trkpt lat="44.9902179" lon="6.8616922"><ele>2283.0</ele><time>2026-04-03T10:30:47.857Z</time></trkpt><trkpt lat="44.9902149" lon="6.8615328"><ele>2283.0</ele><time>2026-04-03T10:30:48.871Z</time></trkpt><trkpt lat="44.9902165" lon="6.8613777"><ele>2279.0</ele><time>2026-04-03T10:30:49.862Z</time></trkpt><trkpt lat="44.9902205" lon="6.8612266"><ele>2275.0</ele><time>2026-04-03T10:30:50.862Z</time></trkpt><trkpt lat="44.9902651" lon="6.8610302"><ele>2271.0</ele><time>2026-04-03T10:30:51.863Z</time></trkpt><trkpt lat="44.9902784" lon="6.8608145"><ele>2267.0</ele><time>2026-04-03T10:30:52.856Z</time></trkpt><trkpt lat="44.9903292" lon="6.8606408"><ele>2262.75</ele><time>2026-04-03T10:30:53.866Z</time></trkpt><trkpt lat="44.9903984" lon="6.8604759"><ele>2258.5</ele><time>2026-04-03T10:30:54.865Z</time></trkpt><trkpt lat="44.9904623" lon="6.8603251"><ele>2254.25</ele><time>2026-04-03T10:30:55.867Z</time></trkpt><trkpt lat="44.9905413" lon="6.8601755"><ele>2250.0</ele><time>2026-04-03T10:30:56.865Z</time></trkpt><trkpt lat="44.9906226" lon="6.8600271"><ele>2245.6666666666665</ele><time>2026-04-03T10:30:57.857Z</time></trkpt><trkpt lat="44.990792" lon="6.8598691"><ele>2241.333333333333</ele><time>2026-04-03T10:30:58.865Z</time></trkpt><trkpt lat="44.9909254" lon="6.8598968"><ele>2237.0</ele><time>2026-04-03T10:30:59.87Z</time></trkpt><trkpt lat="44.9910522" lon="6.8598043"><ele>2235.0</ele><time>2026-04-03T10:31:00.862Z</time></trkpt><trkpt lat="44.9911957" lon="6.8598316"><ele>2233.0</ele><time>2026-04-03T10:31:01.868Z</time></trkpt><trkpt lat="44.9913232" lon="6.8599336"><ele>2231.0</ele><time>2026-04-03T10:31:02.852Z</time></trkpt><trkpt lat="44.9914622" lon="6.8599966"><ele>2229.0</ele><time>2026-04-03T10:31:03.866Z</time></trkpt><trkpt lat="44.9916121" lon="6.8599837"><ele>2228.6666666666665</ele><time>2026-04-03T10:31:04.87Z</time></trkpt><trkpt lat="44.9917667" lon="6.8599451"><ele>2228.333333333333</ele><time>2026-04-03T10:31:05.859Z</time></trkpt><trkpt lat="44.9919142" lon="6.859892"><ele>2228.0</ele><time>2026-04-03T10:31:06.867Z</time></trkpt><trkpt lat="44.9919103" lon="6.8596593"><ele>2228.0</ele><time>2026-04-03T10:31:07.87Z</time></trkpt><trkpt lat="44.992024" lon="6.8596265"><ele>2228.0</ele><time>2026-04-03T10:31:08.868Z</time></trkpt><trkpt lat="44.9921153" lon="6.859516"><ele>2228.0</ele><time>2026-04-03T10:31:09.864Z</time></trkpt><trkpt lat="44.992165" lon="6.8593372"><ele>2228.0</ele><time>2026-04-03T10:31:10.864Z</time></trkpt><trkpt lat="44.9922364" lon="6.8591941"><ele>2225.5</ele><time>2026-04-03T10:31:11.872Z</time></trkpt><trkpt lat="44.992326" lon="6.8590993"><ele>2223.0</ele><time>2026-04-03T10:31:12.861Z</time></trkpt><trkpt lat="44.9924246" lon="6.8590167"><ele>2220.5</ele><time>2026-04-03T10:31:13.87Z</time></trkpt><trkpt lat="44.9925118" lon="6.8589002"><ele>2218.0</ele><time>2026-04-03T10:31:14.851Z</time></trkpt><trkpt lat="44.992563" lon="6.8587543"><ele>2218.0</ele><time>2026-04-03T10:31:15.857Z</time></trkpt><trkpt lat="44.9925832" lon="6.8586171"><ele>2218.0</ele><time>2026-04-03T10:31:16.865Z</time></trkpt><trkpt lat="44.9926325" lon="6.8584824"><ele>2218.0</ele><time>2026-04-03T10:31:17.854Z</time></trkpt><trkpt lat="44.992706" lon="6.8583784"><ele>2218.0</ele><time>2026-04-03T10:31:18.859Z</time></trkpt><trkpt lat="44.9927791" lon="6.8582533"><ele>2218.0</ele><time>2026-04-03T10:31:19.867Z</time></trkpt><trkpt lat="44.9928148" lon="6.8581137"><ele>2215.4</ele><time>2026-04-03T10:31:20.874Z</time></trkpt><trkpt lat="44.9928267" lon="6.85799"><ele>2212.8</ele><time>2026-04-03T10:31:21.863Z</time></trkpt><trkpt lat="44.9928174" lon="6.8578546"><ele>2210.2</ele><time>2026-04-03T10:31:22.857Z</time></trkpt><trkpt lat="44.9927844" lon="6.8577172"><ele>2207.6</ele><time>2026-04-03T10:31:23.862Z</time></trkpt><trkpt lat="44.9927151" lon="6.8576094"><ele>2205.0</ele><time>2026-04-03T10:31:24.864Z</time></trkpt><trkpt lat="44.9926182" lon="6.8575524"><ele>2198.75</ele><time>2026-04-03T10:31:25.875Z</time></trkpt><trkpt lat="44.992502" lon="6.8575407"><ele>2192.5</ele><time>2026-04-03T10:31:26.86Z</time></trkpt><trkpt lat="44.9924035" lon="6.8575303"><ele>2186.25</ele><time>2026-04-03T10:31:27.867Z</time></trkpt><trkpt lat="44.9922597" lon="6.8575101"><ele>2180.0</ele><time>2026-04-03T10:31:28.863Z</time></trkpt><trkpt lat="44.992126" lon="6.857479"><ele>2180.0</ele><time>2026-04-03T10:31:29.859Z</time></trkpt><trkpt lat="44.9920064" lon="6.8573844"><ele>2180.0</ele><time>2026-04-03T10:31:30.87Z</time></trkpt><trkpt lat="44.9918893" lon="6.857269"><ele>2180.0</ele><time>2026-04-03T10:31:31.852Z</time></trkpt><trkpt lat="44.9918135" lon="6.8571116"><ele>2180.0</ele><time>2026-04-03T10:31:32.854Z</time></trkpt><trkpt lat="44.9917336" lon="6.8569528"><ele>2179.4</ele><time>2026-04-03T10:31:33.855Z</time></trkpt><trkpt lat="44.9916417" lon="6.8568294"><ele>2178.8</ele><time>2026-04-03T10:31:34.872Z</time></trkpt><trkpt lat="44.9915421" lon="6.8567635"><ele>2178.2</ele><time>2026-04-03T10:31:35.859Z</time></trkpt><trkpt lat="44.9914594" lon="6.8567553"><ele>2177.6</ele><time>2026-04-03T10:31:36.857Z</time></trkpt><trkpt lat="44.9913902" lon="6.8567463"><ele>2177.0</ele><time>2026-04-03T10:31:37.875Z</time></trkpt><trkpt lat="44.9913532" lon="6.8568501"><ele>2177.0</ele><time>2026-04-03T10:31:39.859Z</time></trkpt><trkpt lat="44.9914158" lon="6.8568756"><ele>2177.0</ele><time>2026-04-03T10:31:46.864Z</time></trkpt><trkpt lat="44.9914774" lon="6.8568291"><ele>2177.0</ele><time>2026-04-03T10:31:50.86Z</time></trkpt><trkpt lat="44.9915421" lon="6.8568525"><ele>2177.0</ele><time>2026-04-03T10:32:13.868Z</time></trkpt><trkpt lat="44.99157" lon="6.8569411"><ele>2177.0</ele><time>2026-04-03T10:32:20.871Z</time></trkpt><trkpt lat="44.9916056" lon="6.8570244"><ele>2177.0</ele><time>2026-04-03T10:32:25.866Z</time></trkpt><trkpt lat="44.9916394" lon="6.8571083"><ele>2177.0</ele><time>2026-04-03T10:32:33.853Z</time></trkpt><trkpt lat="44.9916742" lon="6.8572043"><ele>2177.4285714285716</ele><time>2026-04-03T10:32:37.862Z</time></trkpt><trkpt lat="44.9916934" lon="6.8572989"><ele>2177.857142857143</ele><time>2026-04-03T10:32:41.874Z</time></trkpt><trkpt lat="44.9917208" lon="6.8573896"><ele>2178.285714285714</ele><time>2026-04-03T10:32:45.858Z</time></trkpt><trkpt lat="44.9917505" lon="6.8574795"><ele>2178.714285714286</ele><time>2026-04-03T10:32:49.868Z</time></trkpt><trkpt lat="44.9917867" lon="6.8575656"><ele>2179.1428571428573</ele><time>2026-04-03T10:32:53.853Z</time></trkpt><trkpt lat="44.9918172" lon="6.8576466"><ele>2179.5714285714284</ele><time>2026-04-03T10:32:56.867Z</time></trkpt><trkpt lat="44.9918575" lon="6.8577376"><ele>2180.0</ele><time>2026-04-03T10:33:01.859Z</time></trkpt><trkpt lat="44.9918821" lon="6.857826"><ele>2183.0</ele><time>2026-04-03T10:33:05.867Z</time></trkpt><trkpt lat="44.9919103" lon="6.8579174"><ele>2186.0</ele><time>2026-04-03T10:33:09.874Z</time></trkpt><trkpt lat="44.9919354" lon="6.8580079"><ele>2189.0</ele><time>2026-04-03T10:33:13.853Z</time></trkpt><trkpt lat="44.9919673" lon="6.8580915"><ele>2192.0</ele><time>2026-04-03T10:33:17.856Z</time></trkpt><trkpt lat="44.9920055" lon="6.8581884"><ele>2195.0</ele><time>2026-04-03T10:33:21.857Z</time></trkpt><trkpt lat="44.9920371" lon="6.8582765"><ele>2198.0</ele><time>2026-04-03T10:33:25.876Z</time></trkpt><trkpt lat="44.9920672" lon="6.8583649"><ele>2201.0</ele><time>2026-04-03T10:33:29.858Z</time></trkpt><trkpt lat="44.9920986" lon="6.8584516"><ele>2203.4285714285716</ele><time>2026-04-03T10:33:33.864Z</time></trkpt><trkpt lat="44.9921297" lon="6.8585368"><ele>2205.857142857143</ele><time>2026-04-03T10:33:37.866Z</time></trkpt><trkpt lat="44.9921605" lon="6.8586207"><ele>2208.285714285714</ele><time>2026-04-03T10:33:41.867Z</time></trkpt><trkpt lat="44.9921915" lon="6.8587055"><ele>2210.714285714286</ele><time>2026-04-03T10:33:45.863Z</time></trkpt><trkpt lat="44.9922238" lon="6.8587894"><ele>2213.142857142857</ele><time>2026-04-03T10:33:49.872Z</time></trkpt><trkpt lat="44.9922528" lon="6.8588735"><ele>2215.5714285714284</ele><time>2026-04-03T10:33:53.864Z</time></trkpt><trkpt lat="44.9922745" lon="6.8589681"><ele>2218.0</ele><time>2026-04-03T10:33:57.859Z</time></trkpt><trkpt lat="44.9923041" lon="6.8590605"><ele>2217.9999999999995</ele><time>2026-04-03T10:34:01.868Z</time></trkpt><trkpt lat="44.9923362" lon="6.8591509"><ele>2218.0</ele><time>2026-04-03T10:34:05.87Z</time></trkpt><trkpt lat="44.9923705" lon="6.8592448"><ele>2218.0</ele><time>2026-04-03T10:34:09.869Z</time></trkpt><trkpt lat="44.9924034" lon="6.8593374"><ele>2218.0</ele><time>2026-04-03T10:34:13.863Z</time></trkpt><trkpt lat="44.9924355" lon="6.8594251"><ele>2218.0</ele><time>2026-04-03T10:34:17.869Z</time></trkpt><trkpt lat="44.9924739" lon="6.8595192"><ele>2217.9999999999995</ele><time>2026-04-03T10:34:21.865Z</time></trkpt><trkpt lat="44.9925005" lon="6.8596224"><ele>2218.0</ele><time>2026-04-03T10:34:26.862Z</time></trkpt><trkpt lat="44.9925275" lon="6.8597045"><ele>2219.9999999999995</ele><time>2026-04-03T10:34:30.873Z</time></trkpt><trkpt lat="44.992557" lon="6.8597935"><ele>2222.0</ele><time>2026-04-03T10:34:34.869Z</time></trkpt><trkpt lat="44.9925859" lon="6.8598826"><ele>2224.0</ele><time>2026-04-03T10:34:38.874Z</time></trkpt><trkpt lat="44.9926151" lon="6.8599715"><ele>2226.0</ele><time>2026-04-03T10:34:42.872Z</time></trkpt><trkpt lat="44.9926436" lon="6.8600594"><ele>2228.0</ele><time>2026-04-03T10:34:46.854Z</time></trkpt><trkpt lat="44.9926748" lon="6.8601541"><ele>2229.9999999999995</ele><time>2026-04-03T10:34:50.865Z</time></trkpt><trkpt lat="44.9927007" lon="6.860242"><ele>2232.0</ele><time>2026-04-03T10:34:54.861Z</time></trkpt><trkpt lat="44.992728" lon="6.860329"><ele>2233.7142857142853</ele><time>2026-04-03T10:34:58.86Z</time></trkpt><trkpt lat="44.9927556" lon="6.8604153"><ele>2235.4285714285716</ele><time>2026-04-03T10:35:02.861Z</time></trkpt><trkpt lat="44.9927808" lon="6.8605059"><ele>2237.142857142857</ele><time>2026-04-03T10:35:06.865Z</time></trkpt><trkpt lat="44.9928061" lon="6.8605967"><ele>2238.8571428571427</ele><time>2026-04-03T10:35:10.871Z</time></trkpt><trkpt lat="44.9928349" lon="6.8606888"><ele>2240.5714285714284</ele><time>2026-04-03T10:35:14.871Z</time></trkpt><trkpt lat="44.9928618" lon="6.8607803"><ele>2242.285714285714</ele><time>2026-04-03T10:35:18.854Z</time></trkpt><trkpt lat="44.9928913" lon="6.8608716"><ele>2244.0</ele><time>2026-04-03T10:35:22.853Z</time></trkpt><trkpt lat="44.9929223" lon="6.860962"><ele>2247.8571428571427</ele><time>2026-04-03T10:35:26.867Z</time></trkpt><trkpt lat="44.9929521" lon="6.8610564"><ele>2251.7142857142853</ele><time>2026-04-03T10:35:30.867Z</time></trkpt><trkpt lat="44.9929813" lon="6.8611476"><ele>2255.5714285714284</ele><time>2026-04-03T10:35:34.871Z</time></trkpt><trkpt lat="44.9930085" lon="6.8612365"><ele>2259.4285714285716</ele><time>2026-04-03T10:35:38.863Z</time></trkpt><trkpt lat="44.9930384" lon="6.8613247"><ele>2263.2857142857147</ele><time>2026-04-03T10:35:42.866Z</time></trkpt><trkpt lat="44.9930673" lon="6.8614142"><ele>2267.1428571428573</ele><time>2026-04-03T10:35:46.869Z</time></trkpt><trkpt lat="44.9931045" lon="6.8615031"><ele>2271.0</ele><time>2026-04-03T10:35:50.869Z</time></trkpt><trkpt lat="44.9931344" lon="6.8615893"><ele>2271.0</ele><time>2026-04-03T10:35:54.863Z</time></trkpt><trkpt lat="44.9931614" lon="6.8616774"><ele>2271.0</ele><time>2026-04-03T10:35:58.864Z</time></trkpt><trkpt lat="44.9931897" lon="6.8617648"><ele>2271.0</ele><time>2026-04-03T10:36:02.865Z</time></trkpt><trkpt lat="44.9932188" lon="6.8618546"><ele>2271.0</ele><time>2026-04-03T10:36:06.862Z</time></trkpt><trkpt lat="44.9932453" lon="6.8619426"><ele>2271.0</ele><time>2026-04-03T10:36:10.867Z</time></trkpt><trkpt lat="44.9932766" lon="6.8620317"><ele>2271.0</ele><time>2026-04-03T10:36:14.868Z</time></trkpt><trkpt lat="44.9933081" lon="6.8621231"><ele>2271.0</ele><time>2026-04-03T10:36:18.86Z</time></trkpt><trkpt lat="44.9933384" lon="6.8622163"><ele>2273.5714285714284</ele><time>2026-04-03T10:36:22.863Z</time></trkpt><trkpt lat="44.9933695" lon="6.862312"><ele>2276.1428571428573</ele><time>2026-04-03T10:36:26.863Z</time></trkpt><trkpt lat="44.9934008" lon="6.8624096"><ele>2278.714285714286</ele><time>2026-04-03T10:36:30.854Z</time></trkpt><trkpt lat="44.993435" lon="6.8625029"><ele>2281.285714285714</ele><time>2026-04-03T10:36:34.862Z</time></trkpt><trkpt lat="44.9934649" lon="6.8625954"><ele>2283.857142857143</ele><time>2026-04-03T10:36:38.866Z</time></trkpt><trkpt lat="44.9934954" lon="6.8626871"><ele>2286.4285714285716</ele><time>2026-04-03T10:36:42.853Z</time></trkpt><trkpt lat="44.9935251" lon="6.8627774"><ele>2289.0</ele><time>2026-04-03T10:36:46.874Z</time></trkpt><trkpt lat="44.9935612" lon="6.8628698"><ele>2291.5714285714284</ele><time>2026-04-03T10:36:50.858Z</time></trkpt><trkpt lat="44.9935957" lon="6.8629602"><ele>2294.142857142857</ele><time>2026-04-03T10:36:54.855Z</time></trkpt><trkpt lat="44.9936278" lon="6.86305"><ele>2296.714285714286</ele><time>2026-04-03T10:36:58.869Z</time></trkpt><trkpt lat="44.9936592" lon="6.8631405"><ele>2299.285714285714</ele><time>2026-04-03T10:37:02.867Z</time></trkpt><trkpt lat="44.9936895" lon="6.8632292"><ele>2301.8571428571427</ele><time>2026-04-03T10:37:06.862Z</time></trkpt><trkpt lat="44.9937208" lon="6.8633228"><ele>2304.4285714285716</ele><time>2026-04-03T10:37:10.862Z</time></trkpt><trkpt lat="44.9937545" lon="6.8634157"><ele>2307.0</ele><time>2026-04-03T10:37:14.865Z</time></trkpt><trkpt lat="44.9937834" lon="6.8635081"><ele>2309.142857142857</ele><time>2026-04-03T10:37:18.876Z</time></trkpt><trkpt lat="44.9938182" lon="6.8635957"><ele>2311.285714285714</ele><time>2026-04-03T10:37:22.866Z</time></trkpt><trkpt lat="44.9938539" lon="6.8636857"><ele>2313.4285714285716</ele><time>2026-04-03T10:37:26.861Z</time></trkpt><trkpt lat="44.9938866" lon="6.8637737"><ele>2315.5714285714284</ele><time>2026-04-03T10:37:30.865Z</time></trkpt><trkpt lat="44.9939178" lon="6.8638601"><ele>2317.714285714286</ele><time>2026-04-03T10:37:34.861Z</time></trkpt><trkpt lat="44.9939462" lon="6.8639479"><ele>2319.8571428571427</ele><time>2026-04-03T10:37:38.867Z</time></trkpt><trkpt lat="44.9939795" lon="6.8640348"><ele>2322.0</ele><time>2026-04-03T10:37:42.862Z</time></trkpt><trkpt lat="44.9940104" lon="6.8641248"><ele>2322.0</ele><time>2026-04-03T10:37:46.862Z</time></trkpt><trkpt lat="44.994042" lon="6.8642123"><ele>2322.0</ele><time>2026-04-03T10:37:50.852Z</time></trkpt><trkpt lat="44.9940744" lon="6.8642981"><ele>2322.0</ele><time>2026-04-03T10:37:54.861Z</time></trkpt><trkpt lat="44.9941065" lon="6.8643854"><ele>2322.0</ele><time>2026-04-03T10:37:58.865Z</time></trkpt><trkpt lat="44.9941358" lon="6.8644716"><ele>2322.0</ele><time>2026-04-03T10:38:02.859Z</time></trkpt><trkpt lat="44.9941651" lon="6.8645576"><ele>2322.0</ele><time>2026-04-03T10:38:06.857Z</time></trkpt><trkpt lat="44.9941958" lon="6.8646454"><ele>2322.0</ele><time>2026-04-03T10:38:10.855Z</time></trkpt><trkpt lat="44.994226" lon="6.86473"><ele>2326.0</ele><time>2026-04-03T10:38:14.855Z</time></trkpt><trkpt lat="44.9942548" lon="6.8648145"><ele>2330.0</ele><time>2026-04-03T10:38:18.875Z</time></trkpt><trkpt lat="44.9942858" lon="6.8649009"><ele>2334.0</ele><time>2026-04-03T10:38:22.863Z</time></trkpt><trkpt lat="44.9943172" lon="6.8649875"><ele>2338.0</ele><time>2026-04-03T10:38:26.868Z</time></trkpt><trkpt lat="44.9943466" lon="6.8650713"><ele>2342.0</ele><time>2026-04-03T10:38:30.862Z</time></trkpt><trkpt lat="44.9943751" lon="6.8651547"><ele>2346.0</ele><time>2026-04-03T10:38:34.873Z</time></trkpt><trkpt lat="44.9944074" lon="6.8652411"><ele>2350.0</ele><time>2026-04-03T10:38:38.862Z</time></trkpt><trkpt lat="44.9944392" lon="6.865327"><ele>2352.714285714286</ele><time>2026-04-03T10:38:42.867Z</time></trkpt><trkpt lat="44.9944695" lon="6.8654124"><ele>2355.4285714285716</ele><time>2026-04-03T10:38:46.866Z</time></trkpt><trkpt lat="44.9944993" lon="6.8655002"><ele>2358.1428571428573</ele><time>2026-04-03T10:38:50.867Z</time></trkpt><trkpt lat="44.9945301" lon="6.8655864"><ele>2360.857142857143</ele><time>2026-04-03T10:38:54.867Z</time></trkpt><trkpt lat="44.9945593" lon="6.8656718"><ele>2363.571428571429</ele><time>2026-04-03T10:38:58.867Z</time></trkpt><trkpt lat="44.9946062" lon="6.865763"><ele>2366.285714285714</ele><time>2026-04-03T10:39:02.865Z</time></trkpt><trkpt lat="44.994652" lon="6.8658637"><ele>2369.0</ele><time>2026-04-03T10:39:06.872Z</time></trkpt><trkpt lat="44.9946857" lon="6.8659433"><ele>2373.0</ele><time>2026-04-03T10:39:09.87Z</time></trkpt><trkpt lat="44.9947209" lon="6.8660468"><ele>2377.0</ele><time>2026-04-03T10:39:13.871Z</time></trkpt><trkpt lat="44.9947526" lon="6.8661401"><ele>2381.0</ele><time>2026-04-03T10:39:17.863Z</time></trkpt><trkpt lat="44.9947918" lon="6.8662359"><ele>2385.0</ele><time>2026-04-03T10:39:21.86Z</time></trkpt><trkpt lat="44.994833" lon="6.8663307"><ele>2389.0</ele><time>2026-04-03T10:39:25.86Z</time></trkpt><trkpt lat="44.9948679" lon="6.8664127"><ele>2393.0</ele><time>2026-04-03T10:39:29.869Z</time></trkpt><trkpt lat="44.9949014" lon="6.8665063"><ele>2392.9999999999995</ele><time>2026-04-03T10:39:33.873Z</time></trkpt><trkpt lat="44.9949366" lon="6.8665993"><ele>2393.0</ele><time>2026-04-03T10:39:37.866Z</time></trkpt><trkpt lat="44.9949691" lon="6.8666873"><ele>2393.0</ele><time>2026-04-03T10:39:41.854Z</time></trkpt><trkpt lat="44.9949997" lon="6.8667733"><ele>2393.0</ele><time>2026-04-03T10:39:45.858Z</time></trkpt><trkpt lat="44.9950308" lon="6.8668597"><ele>2393.0</ele><time>2026-04-03T10:39:49.87Z</time></trkpt><trkpt lat="44.9950595" lon="6.8669467"><ele>2392.9999999999995</ele><time>2026-04-03T10:39:53.863Z</time></trkpt><trkpt lat="44.9950903" lon="6.8670311"><ele>2393.0</ele><time>2026-04-03T10:39:57.856Z</time></trkpt><trkpt lat="44.9951208" lon="6.8671251"><ele>2393.0</ele><time>2026-04-03T10:40:03.867Z</time></trkpt><trkpt lat="44.9951574" lon="6.8672556"><ele>2393.0</ele><time>2026-04-03T10:40:08.862Z</time></trkpt><trkpt lat="44.9952129" lon="6.8673209"><ele>2393.0</ele><time>2026-04-03T10:40:10.858Z</time></trkpt><trkpt lat="44.9952763" lon="6.8673325"><ele>2393.0</ele><time>2026-04-03T10:40:12.858Z</time></trkpt><trkpt lat="44.995347" lon="6.8673569"><ele>2393.0</ele><time>2026-04-03T10:40:15.861Z</time></trkpt><trkpt lat="44.9954109" lon="6.8673984"><ele>2393.0</ele><time>2026-04-03T10:40:18.859Z</time></trkpt><trkpt lat="44.995463" lon="6.8674759"><ele>2393.0</ele><time>2026-04-03T10:40:21.858Z</time></trkpt><trkpt lat="44.9954865" lon="6.8676031"><ele>2393.0</ele><time>2026-04-03T10:40:23.865Z</time></trkpt><trkpt lat="44.9954711" lon="6.867748"><ele>2393.0</ele><time>2026-04-03T10:40:25.86Z</time></trkpt><trkpt lat="44.9954718" lon="6.8678462"><ele>2393.0</ele><time>2026-04-03T10:40:27.863Z</time></trkpt><trkpt lat="44.9954789" lon="6.86798"><ele>2393.0</ele><time>2026-04-03T10:40:30.86Z</time></trkpt><trkpt lat="44.9954724" lon="6.868111"><ele>2393.0</ele><time>2026-04-03T10:40:33.858Z</time></trkpt><trkpt lat="44.9954653" lon="6.8682191"><ele>2393.0</ele><time>2026-04-03T10:40:35.864Z</time></trkpt><trkpt lat="44.9954573" lon="6.8683706"><ele>2393.0</ele><time>2026-04-03T10:40:37.871Z</time></trkpt><trkpt lat="44.9954596" lon="6.8685448"><ele>2393.0</ele><time>2026-04-03T10:40:39.86Z</time></trkpt><trkpt lat="44.9954704" lon="6.8686376"><ele>2393.0</ele><time>2026-04-03T10:40:40.864Z</time></trkpt><trkpt lat="44.9954769" lon="6.868735"><ele>2393.0</ele><time>2026-04-03T10:40:41.851Z</time></trkpt><trkpt lat="44.9955075" lon="6.8689034"><ele>2393.0</ele><time>2026-04-03T10:40:43.868Z</time></trkpt><trkpt lat="44.995548" lon="6.8690607"><ele>2393.0</ele><time>2026-04-03T10:40:45.862Z</time></trkpt><trkpt lat="44.9955782" lon="6.869182"><ele>2393.0</ele><time>2026-04-03T10:40:47.861Z</time></trkpt><trkpt lat="44.9956214" lon="6.8693018"><ele>2393.0</ele><time>2026-04-03T10:40:49.868Z</time></trkpt><trkpt lat="44.9956911" lon="6.8694219"><ele>2393.0</ele><time>2026-04-03T10:40:51.87Z</time></trkpt><trkpt lat="44.995772" lon="6.8695642"><ele>2393.6666666666665</ele><time>2026-04-03T10:40:53.873Z</time></trkpt><trkpt lat="44.9958069" lon="6.8696511"><ele>2394.333333333333</ele><time>2026-04-03T10:40:54.863Z</time></trkpt><trkpt lat="44.9958415" lon="6.8697415"><ele>2395.0</ele><time>2026-04-03T10:40:55.856Z</time></trkpt><trkpt lat="44.9958835" lon="6.8698232"><ele>2395.6666666666665</ele><time>2026-04-03T10:40:56.858Z</time></trkpt><trkpt lat="44.9959635" lon="6.8698803"><ele>2396.3333333333335</ele><time>2026-04-03T10:40:57.857Z</time></trkpt><trkpt lat="44.9960125" lon="6.8699733"><ele>2397.0</ele><time>2026-04-03T10:40:58.866Z</time></trkpt><trkpt lat="44.9960362" lon="6.8700853"><ele>2391.6</ele><time>2026-04-03T10:40:59.855Z</time></trkpt><trkpt lat="44.9961107" lon="6.8701623"><ele>2386.2</ele><time>2026-04-03T10:41:00.855Z</time></trkpt><trkpt lat="44.9961755" lon="6.8702056"><ele>2380.8</ele><time>2026-04-03T10:41:01.863Z</time></trkpt><trkpt lat="44.9962636" lon="6.8701963"><ele>2375.4</ele><time>2026-04-03T10:41:02.867Z</time></trkpt><trkpt lat="44.9964051" lon="6.870158"><ele>2370.0</ele><time>2026-04-03T10:41:03.872Z</time></trkpt><trkpt lat="44.996499" lon="6.8701477"><ele>2370.0</ele><time>2026-04-03T10:41:04.874Z</time></trkpt><trkpt lat="44.9966278" lon="6.8703049"><ele>2370.0</ele><time>2026-04-03T10:41:05.855Z</time></trkpt><trkpt lat="44.9966576" lon="6.8704713"><ele>2370.0</ele><time>2026-04-03T10:41:06.876Z</time></trkpt><trkpt lat="44.99676" lon="6.8706077"><ele>2370.0</ele><time>2026-04-03T10:41:07.866Z</time></trkpt><trkpt lat="44.9968523" lon="6.8707523"><ele>2367.25</ele><time>2026-04-03T10:41:08.866Z</time></trkpt><trkpt lat="44.9969934" lon="6.8707868"><ele>2364.5</ele><time>2026-04-03T10:41:09.868Z</time></trkpt><trkpt lat="44.9971099" lon="6.8709011"><ele>2361.75</ele><time>2026-04-03T10:41:10.86Z</time></trkpt><trkpt lat="44.9972138" lon="6.870979"><ele>2359.0</ele><time>2026-04-03T10:41:11.863Z</time></trkpt><trkpt lat="44.9973573" lon="6.8710125"><ele>2359.0</ele><time>2026-04-03T10:41:12.875Z</time></trkpt><trkpt lat="44.9974745" lon="6.8710382"><ele>2359.0</ele><time>2026-04-03T10:41:13.854Z</time></trkpt><trkpt lat="44.9975384" lon="6.8711312"><ele>2359.0</ele><time>2026-04-03T10:41:14.865Z</time></trkpt><trkpt lat="44.9976419" lon="6.8712192"><ele>2359.0</ele><time>2026-04-03T10:41:15.868Z</time></trkpt><trkpt lat="44.9977622" lon="6.8712678"><ele>2352.25</ele><time>2026-04-03T10:41:16.857Z</time></trkpt><trkpt lat="44.9978689" lon="6.8713268"><ele>2345.5</ele><time>2026-04-03T10:41:17.859Z</time></trkpt><trkpt lat="44.9979883" lon="6.8714411"><ele>2338.75</ele><time>2026-04-03T10:41:18.859Z</time></trkpt><trkpt lat="44.9981073" lon="6.8715375"><ele>2332.0</ele><time>2026-04-03T10:41:19.866Z</time></trkpt><trkpt lat="44.9982359" lon="6.8716065"><ele>2326.666666666667</ele><time>2026-04-03T10:41:20.861Z</time></trkpt><trkpt lat="44.9983804" lon="6.8716451"><ele>2321.3333333333335</ele><time>2026-04-03T10:41:21.859Z</time></trkpt><trkpt lat="44.9985135" lon="6.8716714"><ele>2316.0</ele><time>2026-04-03T10:41:22.867Z</time></trkpt><trkpt lat="44.9986593" lon="6.8717961"><ele>2316.0</ele><time>2026-04-03T10:41:23.865Z</time></trkpt><trkpt lat="44.998806" lon="6.8719306"><ele>2316.0</ele><time>2026-04-03T10:41:24.867Z</time></trkpt><trkpt lat="44.9989201" lon="6.8720712"><ele>2316.0</ele><time>2026-04-03T10:41:25.858Z</time></trkpt><trkpt lat="44.9990195" lon="6.8720957"><ele>2316.0</ele><time>2026-04-03T10:41:26.862Z</time></trkpt><trkpt lat="44.9991339" lon="6.8721706"><ele>2313.75</ele><time>2026-04-03T10:41:27.859Z</time></trkpt><trkpt lat="44.9992422" lon="6.8722557"><ele>2311.5</ele><time>2026-04-03T10:41:28.859Z</time></trkpt><trkpt lat="44.9993414" lon="6.8723389"><ele>2309.25</ele><time>2026-04-03T10:41:29.869Z</time></trkpt><trkpt lat="44.9994691" lon="6.8724019"><ele>2307.0</ele><time>2026-04-03T10:41:30.871Z</time></trkpt><trkpt lat="44.9995573" lon="6.8725279"><ele>2306.25</ele><time>2026-04-03T10:41:31.871Z</time></trkpt><trkpt lat="44.9996679" lon="6.87262"><ele>2305.5</ele><time>2026-04-03T10:41:32.862Z</time></trkpt><trkpt lat="44.9997839" lon="6.8726922"><ele>2304.75</ele><time>2026-04-03T10:41:33.865Z</time></trkpt><trkpt lat="44.9998854" lon="6.8727842"><ele>2304.0</ele><time>2026-04-03T10:41:34.858Z</time></trkpt><trkpt lat="44.9999856" lon="6.8728765"><ele>2304.0</ele><time>2026-04-03T10:41:35.86Z</time></trkpt><trkpt lat="45.0000929" lon="6.8729727"><ele>2304.0</ele><time>2026-04-03T10:41:36.863Z</time></trkpt><trkpt lat="45.0002029" lon="6.8730555"><ele>2304.0</ele><time>2026-04-03T10:41:37.874Z</time></trkpt><trkpt lat="45.0003135" lon="6.8731323"><ele>2304.0</ele><time>2026-04-03T10:41:38.863Z</time></trkpt><trkpt lat="45.0004045" lon="6.8732336"><ele>2304.0</ele><time>2026-04-03T10:41:39.859Z</time></trkpt><trkpt lat="45.0004958" lon="6.8733148"><ele>2304.0</ele><time>2026-04-03T10:41:40.855Z</time></trkpt><trkpt lat="45.00059" lon="6.87337"><ele>2304.0</ele><time>2026-04-03T10:41:41.868Z</time></trkpt><trkpt lat="45.0006733" lon="6.8734481"><ele>2304.0</ele><time>2026-04-03T10:41:42.871Z</time></trkpt><trkpt lat="45.0007594" lon="6.8735311"><ele>2304.0</ele><time>2026-04-03T10:41:43.86Z</time></trkpt><trkpt lat="45.0008528" lon="6.8735994"><ele>2301.8</ele><time>2026-04-03T10:41:44.863Z</time></trkpt><trkpt lat="45.0009501" lon="6.8736719"><ele>2299.6000000000004</ele><time>2026-04-03T10:41:45.86Z</time></trkpt><trkpt lat="45.0010457" lon="6.8737468"><ele>2297.4</ele><time>2026-04-03T10:41:46.856Z</time></trkpt><trkpt lat="45.0011399" lon="6.8738189"><ele>2295.2000000000003</ele><time>2026-04-03T10:41:47.875Z</time></trkpt><trkpt lat="45.0012329" lon="6.8738897"><ele>2293.0</ele><time>2026-04-03T10:41:48.862Z</time></trkpt><trkpt lat="45.0013252" lon="6.8739647"><ele>2293.0</ele><time>2026-04-03T10:41:49.863Z</time></trkpt><trkpt lat="45.001422" lon="6.8740299"><ele>2293.0</ele><time>2026-04-03T10:41:50.869Z</time></trkpt><trkpt lat="45.0015093" lon="6.874099"><ele>2293.0</ele><time>2026-04-03T10:41:51.866Z</time></trkpt><trkpt lat="45.0016102" lon="6.8741629"><ele>2293.0</ele><time>2026-04-03T10:41:52.864Z</time></trkpt><trkpt lat="45.0017177" lon="6.8742352"><ele>2293.0</ele><time>2026-04-03T10:41:53.867Z</time></trkpt><trkpt lat="45.0018255" lon="6.8743112"><ele>2289.75</ele><time>2026-04-03T10:41:54.875Z</time></trkpt><trkpt lat="45.0019353" lon="6.8743912"><ele>2286.5</ele><time>2026-04-03T10:41:55.863Z</time></trkpt><trkpt lat="45.0020504" lon="6.8744699"><ele>2283.25</ele><time>2026-04-03T10:41:56.854Z</time></trkpt><trkpt lat="45.0021661" lon="6.8745457"><ele>2280.0</ele><time>2026-04-03T10:41:57.865Z</time></trkpt><trkpt lat="45.0022758" lon="6.8746253"><ele>2280.0</ele><time>2026-04-03T10:41:58.86Z</time></trkpt><trkpt lat="45.0023827" lon="6.8746999"><ele>2280.0</ele><time>2026-04-03T10:41:59.861Z</time></trkpt><trkpt lat="45.0024828" lon="6.8747804"><ele>2280.0</ele><time>2026-04-03T10:42:00.858Z</time></trkpt><trkpt lat="45.0025779" lon="6.8748554"><ele>2280.0</ele><time>2026-04-03T10:42:01.863Z</time></trkpt><trkpt lat="45.0026634" lon="6.8749409"><ele>2280.0</ele><time>2026-04-03T10:42:02.866Z</time></trkpt><trkpt lat="45.0027203" lon="6.8750369"><ele>2279.6666666666665</ele><time>2026-04-03T10:42:03.857Z</time></trkpt><trkpt lat="45.002769" lon="6.8751323"><ele>2279.3333333333335</ele><time>2026-04-03T10:42:04.866Z</time></trkpt><trkpt lat="45.0028045" lon="6.8752281"><ele>2279.0</ele><time>2026-04-03T10:42:05.868Z</time></trkpt><trkpt lat="45.0028445" lon="6.8753536"><ele>2278.666666666667</ele><time>2026-04-03T10:42:07.862Z</time></trkpt><trkpt lat="45.0029073" lon="6.8754326"><ele>2278.3333333333335</ele><time>2026-04-03T10:42:09.861Z</time></trkpt><trkpt lat="45.0029594" lon="6.8755145"><ele>2278.0</ele><time>2026-04-03T10:42:11.855Z</time></trkpt><trkpt lat="45.003001" lon="6.8756276"><ele>2278.0</ele><time>2026-04-03T10:42:13.859Z</time></trkpt><trkpt lat="45.0030105" lon="6.8757308"><ele>2278.0</ele><time>2026-04-03T10:42:15.856Z</time></trkpt><trkpt lat="45.0030966" lon="6.8758056"><ele>2278.0</ele><time>2026-04-03T10:42:46.865Z</time></trkpt><trkpt lat="45.0032076" lon="6.8758763"><ele>2278.0</ele><time>2026-04-03T10:42:48.864Z</time></trkpt><trkpt lat="45.0032703" lon="6.8759452"><ele>2278.0</ele><time>2026-04-03T10:42:49.863Z</time></trkpt><trkpt lat="45.0033654" lon="6.8759949"><ele>2271.0</ele><time>2026-04-03T10:42:50.868Z</time></trkpt><trkpt lat="45.0034533" lon="6.8760542"><ele>2264.0</ele><time>2026-04-03T10:42:51.855Z</time></trkpt><trkpt lat="45.0035582" lon="6.8761763"><ele>2257.0</ele><time>2026-04-03T10:42:52.862Z</time></trkpt><trkpt lat="45.0036708" lon="6.8762653"><ele>2250.0</ele><time>2026-04-03T10:42:53.86Z</time></trkpt><trkpt lat="45.0038175" lon="6.8762197"><ele>2250.0</ele><time>2026-04-03T10:42:54.854Z</time></trkpt><trkpt lat="45.0039298" lon="6.8762286"><ele>2250.0</ele><time>2026-04-03T10:42:55.863Z</time></trkpt><trkpt lat="45.0040568" lon="6.8763252"><ele>2250.0</ele><time>2026-04-03T10:42:56.853Z</time></trkpt><trkpt lat="45.0041854" lon="6.8764109"><ele>2250.0</ele><time>2026-04-03T10:42:57.87Z</time></trkpt><trkpt lat="45.0043198" lon="6.8764205"><ele>2246.25</ele><time>2026-04-03T10:42:58.863Z</time></trkpt><trkpt lat="45.0044458" lon="6.876415"><ele>2242.5</ele><time>2026-04-03T10:42:59.86Z</time></trkpt><trkpt lat="45.0045554" lon="6.876507"><ele>2238.75</ele><time>2026-04-03T10:43:00.869Z</time></trkpt><trkpt lat="45.0046765" lon="6.876572"><ele>2235.0</ele><time>2026-04-03T10:43:01.865Z</time></trkpt><trkpt lat="45.0047919" lon="6.876656"><ele>2235.0</ele><time>2026-04-03T10:43:02.858Z</time></trkpt><trkpt lat="45.004845" lon="6.8767398"><ele>2235.0</ele><time>2026-04-03T10:43:03.865Z</time></trkpt><trkpt lat="45.0049187" lon="6.876826"><ele>2235.0</ele><time>2026-04-03T10:43:04.857Z</time></trkpt><trkpt lat="45.0049797" lon="6.876907"><ele>2235.0</ele><time>2026-04-03T10:43:05.868Z</time></trkpt><trkpt lat="45.0050811" lon="6.8769457"><ele>2235.0</ele><time>2026-04-03T10:43:06.865Z</time></trkpt><trkpt lat="45.0051401" lon="6.8770494"><ele>2231.0</ele><time>2026-04-03T10:43:07.857Z</time></trkpt><trkpt lat="45.0052106" lon="6.8771442"><ele>2227.0</ele><time>2026-04-03T10:43:08.861Z</time></trkpt><trkpt lat="45.0053063" lon="6.8771821"><ele>2223.0</ele><time>2026-04-03T10:43:09.865Z</time></trkpt><trkpt lat="45.0054481" lon="6.8771473"><ele>2219.0</ele><time>2026-04-03T10:43:11.869Z</time></trkpt><trkpt lat="45.005545" lon="6.8771555"><ele>2215.0</ele><time>2026-04-03T10:43:12.862Z</time></trkpt><trkpt lat="45.0056784" lon="6.877263"><ele>2215.0</ele><time>2026-04-03T10:43:13.865Z</time></trkpt><trkpt lat="45.0057892" lon="6.8773532"><ele>2215.0</ele><time>2026-04-03T10:43:14.865Z</time></trkpt><trkpt lat="45.0059123" lon="6.8773769"><ele>2215.0</ele><time>2026-04-03T10:43:15.866Z</time></trkpt><trkpt lat="45.0060926" lon="6.8774325"><ele>2215.0</ele><time>2026-04-03T10:43:16.867Z</time></trkpt><trkpt lat="45.0062502" lon="6.8775284"><ele>2206.75</ele><time>2026-04-03T10:43:17.859Z</time></trkpt><trkpt lat="45.0063633" lon="6.8776918"><ele>2198.5</ele><time>2026-04-03T10:43:18.856Z</time></trkpt><trkpt lat="45.0064918" lon="6.8777584"><ele>2190.25</ele><time>2026-04-03T10:43:19.858Z</time></trkpt><trkpt lat="45.0066273" lon="6.8777406"><ele>2182.0</ele><time>2026-04-03T10:43:20.86Z</time></trkpt><trkpt lat="45.0067483" lon="6.8777815"><ele>2176.25</ele><time>2026-04-03T10:43:21.873Z</time></trkpt><trkpt lat="45.0068717" lon="6.8778599"><ele>2170.5</ele><time>2026-04-03T10:43:22.857Z</time></trkpt><trkpt lat="45.0069851" lon="6.8779364"><ele>2164.75</ele><time>2026-04-03T10:43:23.867Z</time></trkpt><trkpt lat="45.0070923" lon="6.8780393"><ele>2159.0</ele><time>2026-04-03T10:43:24.871Z</time></trkpt><trkpt lat="45.0072004" lon="6.8781606"><ele>2159.0</ele><time>2026-04-03T10:43:25.86Z</time></trkpt><trkpt lat="45.0073479" lon="6.8782061"><ele>2159.0</ele><time>2026-04-03T10:43:26.863Z</time></trkpt><trkpt lat="45.0074953" lon="6.8782099"><ele>2159.0</ele><time>2026-04-03T10:43:27.856Z</time></trkpt><trkpt lat="45.0076353" lon="6.8781526"><ele>2159.0</ele><time>2026-04-03T10:43:28.868Z</time></trkpt><trkpt lat="45.007772" lon="6.8781178"><ele>2148.333333333333</ele><time>2026-04-03T10:43:29.866Z</time></trkpt><trkpt lat="45.0079369" lon="6.8782025"><ele>2137.6666666666665</ele><time>2026-04-03T10:43:30.863Z</time></trkpt><trkpt lat="45.0080842" lon="6.8781648"><ele>2127.0</ele><time>2026-04-03T10:43:31.873Z</time></trkpt><trkpt lat="45.00822" lon="6.8781501"><ele>2120.0</ele><time>2026-04-03T10:43:32.862Z</time></trkpt><trkpt lat="45.0083638" lon="6.8780297"><ele>2113.0</ele><time>2026-04-03T10:43:33.861Z</time></trkpt><trkpt lat="45.0085229" lon="6.8780302"><ele>2106.0</ele><time>2026-04-03T10:43:34.866Z</time></trkpt><trkpt lat="45.0086914" lon="6.878"><ele>2106.0</ele><time>2026-04-03T10:43:35.867Z</time></trkpt><trkpt lat="45.0088335" lon="6.8779281"><ele>2106.0</ele><time>2026-04-03T10:43:36.865Z</time></trkpt><trkpt lat="45.0089868" lon="6.8778583"><ele>2106.0</ele><time>2026-04-03T10:43:37.87Z</time></trkpt><trkpt lat="45.0091371" lon="6.8778673"><ele>2103.6</ele><time>2026-04-03T10:43:38.856Z</time></trkpt><trkpt lat="45.009264" lon="6.8778658"><ele>2101.2</ele><time>2026-04-03T10:43:39.865Z</time></trkpt><trkpt lat="45.0093751" lon="6.8778106"><ele>2098.8</ele><time>2026-04-03T10:43:40.87Z</time></trkpt><trkpt lat="45.0094031" lon="6.8777171"><ele>2096.4</ele><time>2026-04-03T10:43:41.851Z</time></trkpt><trkpt lat="45.0094869" lon="6.8776339"><ele>2094.0</ele><time>2026-04-03T10:43:42.863Z</time></trkpt><trkpt lat="45.0095813" lon="6.8774969"><ele>2092.6666666666665</ele><time>2026-04-03T10:43:43.87Z</time></trkpt><trkpt lat="45.0096999" lon="6.8773426"><ele>2091.333333333333</ele><time>2026-04-03T10:43:44.859Z</time></trkpt><trkpt lat="45.009763" lon="6.8771482"><ele>2090.0</ele><time>2026-04-03T10:43:45.865Z</time></trkpt><trkpt lat="45.0098457" lon="6.8769846"><ele>2090.0</ele><time>2026-04-03T10:43:46.863Z</time></trkpt><trkpt lat="45.0099758" lon="6.8769452"><ele>2090.0</ele><time>2026-04-03T10:43:47.869Z</time></trkpt><trkpt lat="45.0101332" lon="6.8769281"><ele>2090.0</ele><time>2026-04-03T10:43:48.868Z</time></trkpt><trkpt lat="45.0102557" lon="6.8767706"><ele>2081.6666666666665</ele><time>2026-04-03T10:43:49.864Z</time></trkpt><trkpt lat="45.0103565" lon="6.8766015"><ele>2073.3333333333335</ele><time>2026-04-03T10:43:50.856Z</time></trkpt><trkpt lat="45.0104484" lon="6.8764364"><ele>2065.0</ele><time>2026-04-03T10:43:51.852Z</time></trkpt><trkpt lat="45.01061" lon="6.8763595"><ele>2065.0</ele><time>2026-04-03T10:43:52.862Z</time></trkpt><trkpt lat="45.0107866" lon="6.8763012"><ele>2065.0</ele><time>2026-04-03T10:43:53.871Z</time></trkpt><trkpt lat="45.010922" lon="6.8761846"><ele>2065.0</ele><time>2026-04-03T10:43:54.864Z</time></trkpt><trkpt lat="45.0110127" lon="6.8760575"><ele>2059.2</ele><time>2026-04-03T10:43:55.867Z</time></trkpt><trkpt lat="45.0111" lon="6.8759159"><ele>2053.4</ele><time>2026-04-03T10:43:56.864Z</time></trkpt><trkpt lat="45.0112002" lon="6.8758755"><ele>2047.6</ele><time>2026-04-03T10:43:57.864Z</time></trkpt><trkpt lat="45.0113108" lon="6.8758587"><ele>2041.8</ele><time>2026-04-03T10:43:58.871Z</time></trkpt><trkpt lat="45.0113777" lon="6.8758921"><ele>2036.0</ele><time>2026-04-03T10:44:34.868Z</time></trkpt><trkpt lat="45.0115048" lon="6.8758813"><ele>2036.0</ele><time>2026-04-03T10:44:36.871Z</time></trkpt><trkpt lat="45.0115698" lon="6.8758901"><ele>2036.0</ele><time>2026-04-03T10:44:37.859Z</time></trkpt><trkpt lat="45.0116869" lon="6.8758163"><ele>2036.0</ele><time>2026-04-03T10:44:38.853Z</time></trkpt><trkpt lat="45.01178" lon="6.8757722"><ele>2036.0</ele><time>2026-04-03T10:44:39.854Z</time></trkpt><trkpt lat="45.0118842" lon="6.8756787"><ele>2036.0</ele><time>2026-04-03T10:44:40.869Z</time></trkpt><trkpt lat="45.0119922" lon="6.8756267"><ele>2032.0</ele><time>2026-04-03T10:44:41.859Z</time></trkpt><trkpt lat="45.0121279" lon="6.8757301"><ele>2028.0</ele><time>2026-04-03T10:44:42.871Z</time></trkpt><trkpt lat="45.0122847" lon="6.8757487"><ele>2024.0</ele><time>2026-04-03T10:44:43.86Z</time></trkpt><trkpt lat="45.0124157" lon="6.8757025"><ele>2020.0</ele><time>2026-04-03T10:44:44.872Z</time></trkpt><trkpt lat="45.0125084" lon="6.875606"><ele>2017.25</ele><time>2026-04-03T10:44:45.867Z</time></trkpt><trkpt lat="45.0126264" lon="6.8755273"><ele>2014.5</ele><time>2026-04-03T10:44:46.861Z</time></trkpt><trkpt lat="45.0127698" lon="6.8755089"><ele>2011.75</ele><time>2026-04-03T10:44:47.858Z</time></trkpt><trkpt lat="45.0129009" lon="6.8755813"><ele>2009.0</ele><time>2026-04-03T10:44:48.871Z</time></trkpt><trkpt lat="45.0130234" lon="6.8755722"><ele>2009.0</ele><time>2026-04-03T10:44:49.862Z</time></trkpt><trkpt lat="45.0131611" lon="6.8755569"><ele>2009.0</ele><time>2026-04-03T10:44:50.875Z</time></trkpt><trkpt lat="45.0132993" lon="6.8754929"><ele>2009.0</ele><time>2026-04-03T10:44:51.862Z</time></trkpt><trkpt lat="45.0134134" lon="6.8754233"><ele>2009.0</ele><time>2026-04-03T10:44:52.863Z</time></trkpt><trkpt lat="45.0135393" lon="6.8754012"><ele>2005.8000000000002</ele><time>2026-04-03T10:44:53.869Z</time></trkpt><trkpt lat="45.0136293" lon="6.8754051"><ele>2002.6000000000001</ele><time>2026-04-03T10:44:54.866Z</time></trkpt><trkpt lat="45.0137196" lon="6.8753452"><ele>1999.4</ele><time>2026-04-03T10:44:55.852Z</time></trkpt><trkpt lat="45.0138149" lon="6.8753007"><ele>1996.2</ele><time>2026-04-03T10:44:56.86Z</time></trkpt><trkpt lat="45.0139483" lon="6.8753993"><ele>1993.0</ele><time>2026-04-03T10:44:57.857Z</time></trkpt><trkpt lat="45.0140743" lon="6.8754553"><ele>1986.75</ele><time>2026-04-03T10:44:58.861Z</time></trkpt><trkpt lat="45.0142005" lon="6.8754258"><ele>1980.5</ele><time>2026-04-03T10:44:59.867Z</time></trkpt><trkpt lat="45.0143146" lon="6.875423"><ele>1974.25</ele><time>2026-04-03T10:45:00.867Z</time></trkpt><trkpt lat="45.0144219" lon="6.8753407"><ele>1968.0</ele><time>2026-04-03T10:45:01.868Z</time></trkpt><trkpt lat="45.0145384" lon="6.8752675"><ele>1968.0</ele><time>2026-04-03T10:45:02.865Z</time></trkpt><trkpt lat="45.0147048" lon="6.8752877"><ele>1968.0</ele><time>2026-04-03T10:45:03.867Z</time></trkpt><trkpt lat="45.0148305" lon="6.8751914"><ele>1968.0</ele><time>2026-04-03T10:45:04.864Z</time></trkpt><trkpt lat="45.0149504" lon="6.875107"><ele>1968.0</ele><time>2026-04-03T10:45:05.87Z</time></trkpt><trkpt lat="45.0150714" lon="6.8749775"><ele>1960.0</ele><time>2026-04-03T10:45:06.856Z</time></trkpt><trkpt lat="45.0151083" lon="6.8747972"><ele>1952.0</ele><time>2026-04-03T10:45:07.869Z</time></trkpt><trkpt lat="45.0151219" lon="6.8746153"><ele>1944.0</ele><time>2026-04-03T10:45:08.872Z</time></trkpt><trkpt lat="45.0151665" lon="6.8744551"><ele>1936.0</ele><time>2026-04-03T10:45:09.867Z</time></trkpt><trkpt lat="45.0152013" lon="6.8743735"><ele>1934.0</ele><time>2026-04-03T10:45:10.864Z</time></trkpt><trkpt lat="45.015202" lon="6.8742552"><ele>1932.0</ele><time>2026-04-03T10:45:11.873Z</time></trkpt><trkpt lat="45.0151723" lon="6.8741184"><ele>1930.0</ele><time>2026-04-03T10:45:12.861Z</time></trkpt><trkpt lat="45.015161" lon="6.8739642"><ele>1928.0</ele><time>2026-04-03T10:45:13.863Z</time></trkpt><trkpt lat="45.0151838" lon="6.8738205"><ele>1926.0</ele><time>2026-04-03T10:45:14.869Z</time></trkpt><trkpt lat="45.0152412" lon="6.8736002"><ele>1921.25</ele><time>2026-04-03T10:45:15.858Z</time></trkpt><trkpt lat="45.0152694" lon="6.8734328"><ele>1916.5</ele><time>2026-04-03T10:45:16.86Z</time></trkpt><trkpt lat="45.015263" lon="6.8732758"><ele>1911.75</ele><time>2026-04-03T10:45:17.856Z</time></trkpt><trkpt lat="45.0152821" lon="6.8731574"><ele>1907.0</ele><time>2026-04-03T10:45:18.852Z</time></trkpt><trkpt lat="45.0154185" lon="6.8730383"><ele>1907.0</ele><time>2026-04-03T10:45:19.856Z</time></trkpt><trkpt lat="45.0154832" lon="6.8728823"><ele>1907.0</ele><time>2026-04-03T10:45:20.871Z</time></trkpt><trkpt lat="45.0155681" lon="6.8727369"><ele>1907.0</ele><time>2026-04-03T10:45:21.852Z</time></trkpt><trkpt lat="45.0156615" lon="6.8725947"><ele>1907.0</ele><time>2026-04-03T10:45:22.862Z</time></trkpt><trkpt lat="45.0157917" lon="6.8724976"><ele>1898.6666666666665</ele><time>2026-04-03T10:45:23.858Z</time></trkpt><trkpt lat="45.0158896" lon="6.8723488"><ele>1890.3333333333335</ele><time>2026-04-03T10:45:24.87Z</time></trkpt><trkpt lat="45.0160145" lon="6.8722577"><ele>1882.0</ele><time>2026-04-03T10:45:25.868Z</time></trkpt><trkpt lat="45.0161883" lon="6.8722682"><ele>1882.0</ele><time>2026-04-03T10:45:26.868Z</time></trkpt><trkpt lat="45.0163448" lon="6.8723502"><ele>1882.0</ele><time>2026-04-03T10:45:27.873Z</time></trkpt><trkpt lat="45.0164901" lon="6.8723104"><ele>1882.0</ele><time>2026-04-03T10:45:28.868Z</time></trkpt><trkpt lat="45.0166334" lon="6.8722383"><ele>1873.0</ele><time>2026-04-03T10:45:29.859Z</time></trkpt><trkpt lat="45.0168052" lon="6.8722771"><ele>1864.0</ele><time>2026-04-03T10:45:30.858Z</time></trkpt><trkpt lat="45.0169617" lon="6.8722419"><ele>1855.0</ele><time>2026-04-03T10:45:31.864Z</time></trkpt><trkpt lat="45.0171315" lon="6.8721339"><ele>1855.0</ele><time>2026-04-03T10:45:32.862Z</time></trkpt><trkpt lat="45.0172566" lon="6.8720323"><ele>1855.0</ele><time>2026-04-03T10:45:33.855Z</time></trkpt><trkpt lat="45.0173039" lon="6.8717375"><ele>1855.0</ele><time>2026-04-03T10:45:34.86Z</time></trkpt><trkpt lat="45.017427" lon="6.8716035"><ele>1847.5</ele><time>2026-04-03T10:45:35.865Z</time></trkpt><trkpt lat="45.0175399" lon="6.8714371"><ele>1840.0</ele><time>2026-04-03T10:45:36.871Z</time></trkpt><trkpt lat="45.0176172" lon="6.8713345"><ele>1832.5</ele><time>2026-04-03T10:45:37.864Z</time></trkpt><trkpt lat="45.0176764" lon="6.8712061"><ele>1825.0</ele><time>2026-04-03T10:45:38.858Z</time></trkpt><trkpt lat="45.0177438" lon="6.8710639"><ele>1825.0</ele><time>2026-04-03T10:45:39.874Z</time></trkpt><trkpt lat="45.0178271" lon="6.8709591"><ele>1825.0</ele><time>2026-04-03T10:45:40.869Z</time></trkpt><trkpt lat="45.0178977" lon="6.8709058"><ele>1825.0</ele><time>2026-04-03T10:45:41.87Z</time></trkpt><trkpt lat="45.017978" lon="6.8707559"><ele>1825.0</ele><time>2026-04-03T10:45:42.856Z</time></trkpt><trkpt lat="45.0180954" lon="6.8706723"><ele>1824.0</ele><time>2026-04-03T10:45:43.865Z</time></trkpt><trkpt lat="45.0182177" lon="6.8706846"><ele>1823.0</ele><time>2026-04-03T10:45:44.865Z</time></trkpt><trkpt lat="45.0182999" lon="6.8706063"><ele>1822.0</ele><time>2026-04-03T10:45:45.853Z</time></trkpt><trkpt lat="45.0183797" lon="6.8704903"><ele>1821.0</ele><time>2026-04-03T10:45:46.858Z</time></trkpt><trkpt lat="45.0184739" lon="6.87036"><ele>1815.0</ele><time>2026-04-03T10:45:47.855Z</time></trkpt><trkpt lat="45.0185892" lon="6.8702553"><ele>1809.0</ele><time>2026-04-03T10:45:48.863Z</time></trkpt><trkpt lat="45.0187136" lon="6.8701619"><ele>1803.0</ele><time>2026-04-03T10:45:49.859Z</time></trkpt><trkpt lat="45.0188796" lon="6.8701678"><ele>1797.0</ele><time>2026-04-03T10:45:50.87Z</time></trkpt><trkpt lat="45.0190193" lon="6.8700897"><ele>1790.75</ele><time>2026-04-03T10:45:51.855Z</time></trkpt><trkpt lat="45.0191547" lon="6.8700064"><ele>1784.5</ele><time>2026-04-03T10:45:52.869Z</time></trkpt><trkpt lat="45.0192531" lon="6.8698814"><ele>1778.25</ele><time>2026-04-03T10:45:53.87Z</time></trkpt><trkpt lat="45.0193438" lon="6.8697495"><ele>1772.0</ele><time>2026-04-03T10:45:54.862Z</time></trkpt><trkpt lat="45.0194219" lon="6.869565"><ele>1772.0</ele><time>2026-04-03T10:45:55.868Z</time></trkpt><trkpt lat="45.0195203" lon="6.8694258"><ele>1772.0</ele><time>2026-04-03T10:45:56.855Z</time></trkpt><trkpt lat="45.0196308" lon="6.8692812"><ele>1772.0</ele><time>2026-04-03T10:45:57.855Z</time></trkpt><trkpt lat="45.0197653" lon="6.8691719"><ele>1772.0</ele><time>2026-04-03T10:45:58.867Z</time></trkpt><trkpt lat="45.0199198" lon="6.8691082"><ele>1766.25</ele><time>2026-04-03T10:45:59.859Z</time></trkpt><trkpt lat="45.0200246" lon="6.8690117"><ele>1760.5</ele><time>2026-04-03T10:46:00.864Z</time></trkpt><trkpt lat="45.0201251" lon="6.8689015"><ele>1754.75</ele><time>2026-04-03T10:46:01.863Z</time></trkpt><trkpt lat="45.0202305" lon="6.8688941"><ele>1749.0</ele><time>2026-04-03T10:46:02.868Z</time></trkpt><trkpt lat="45.0203356" lon="6.8688961"><ele>1749.0</ele><time>2026-04-03T10:46:03.858Z</time></trkpt><trkpt lat="45.0204476" lon="6.8688969"><ele>1749.0</ele><time>2026-04-03T10:46:04.868Z</time></trkpt><trkpt lat="45.0205503" lon="6.868868"><ele>1749.0</ele><time>2026-04-03T10:46:05.86Z</time></trkpt><trkpt lat="45.0206576" lon="6.868839"><ele>1749.0</ele><time>2026-04-03T10:46:06.865Z</time></trkpt><trkpt lat="45.0207333" lon="6.8688597"><ele>1749.0</ele><time>2026-04-03T10:46:07.863Z</time></trkpt><trkpt lat="45.0208032" lon="6.8688968"><ele>1745.8000000000002</ele><time>2026-04-03T10:46:08.872Z</time></trkpt><trkpt lat="45.0208919" lon="6.8689097"><ele>1742.6000000000001</ele><time>2026-04-03T10:46:09.867Z</time></trkpt><trkpt lat="45.0210241" lon="6.8689441"><ele>1739.4</ele><time>2026-04-03T10:46:11.862Z</time></trkpt><trkpt lat="45.0211211" lon="6.8689583"><ele>1736.2</ele><time>2026-04-03T10:46:12.866Z</time></trkpt><trkpt lat="45.0212309" lon="6.8689515"><ele>1733.0</ele><time>2026-04-03T10:46:13.863Z</time></trkpt><trkpt lat="45.0213098" lon="6.8689224"><ele>1732.9999999999998</ele><time>2026-04-03T10:46:14.869Z</time></trkpt><trkpt lat="45.0213986" lon="6.8689009"><ele>1733.0</ele><time>2026-04-03T10:46:15.86Z</time></trkpt><trkpt lat="45.0214862" lon="6.8688687"><ele>1733.0</ele><time>2026-04-03T10:46:17.862Z</time></trkpt><trkpt lat="45.021561" lon="6.8688496"><ele>1733.0</ele><time>2026-04-03T10:46:19.86Z</time></trkpt><trkpt lat="45.0215258" lon="6.8687726"><ele>1732.9999999999998</ele><time>2026-04-03T10:46:32.868Z</time></trkpt><trkpt lat="45.0214618" lon="6.8687317"><ele>1733.0</ele><time>2026-04-03T10:47:32.863Z</time></trkpt><trkpt lat="45.0213603" lon="6.8687575"><ele>1733.0</ele><time>2026-04-03T10:47:35.875Z</time></trkpt><trkpt lat="45.0212529" lon="6.8687781"><ele>1733.0000000000002</ele><time>2026-04-03T10:47:37.865Z</time></trkpt><trkpt lat="45.0211623" lon="6.8688083"><ele>1733.0000000000002</ele><time>2026-04-03T10:47:39.864Z</time></trkpt><trkpt lat="45.0210759" lon="6.868837"><ele>1733.0</ele><time>2026-04-03T10:47:41.874Z</time></trkpt><trkpt lat="45.020994" lon="6.8688643"><ele>1733.0</ele><time>2026-04-03T10:47:43.86Z</time></trkpt><trkpt lat="45.0209178" lon="6.8688875"><ele>1732.9999999999998</ele><time>2026-04-03T10:47:45.864Z</time></trkpt><trkpt lat="45.0208407" lon="6.8689127"><ele>1733.0</ele><time>2026-04-03T10:47:47.865Z</time></trkpt><trkpt lat="45.020766" lon="6.8689425"><ele>1733.0</ele><time>2026-04-03T10:47:49.855Z</time></trkpt><trkpt lat="45.0206908" lon="6.8689697"><ele>1733.0</ele><time>2026-04-03T10:47:51.86Z</time></trkpt><trkpt lat="45.0206166" lon="6.8689982"><ele>1732.9999999999998</ele><time>2026-04-03T10:47:53.858Z</time></trkpt><trkpt lat="45.0205344" lon="6.8690295"><ele>1733.0</ele><time>2026-04-03T10:47:55.864Z</time></trkpt><trkpt lat="45.0204567" lon="6.8690569"><ele>1735.6666666666665</ele><time>2026-04-03T10:47:57.866Z</time></trkpt><trkpt lat="45.0203786" lon="6.8690837"><ele>1738.3333333333333</ele><time>2026-04-03T10:47:59.869Z</time></trkpt><trkpt lat="45.0203038" lon="6.8691074"><ele>1741.0</ele><time>2026-04-03T10:48:01.868Z</time></trkpt><trkpt lat="45.0202285" lon="6.8691348"><ele>1743.6666666666665</ele><time>2026-04-03T10:48:03.855Z</time></trkpt><trkpt lat="45.0201532" lon="6.8691592"><ele>1746.3333333333333</ele><time>2026-04-03T10:48:05.861Z</time></trkpt><trkpt lat="45.0200777" lon="6.8691851"><ele>1749.0</ele><time>2026-04-03T10:48:07.863Z</time></trkpt><trkpt lat="45.0200024" lon="6.8692109"><ele>1751.8333333333333</ele><time>2026-04-03T10:48:09.861Z</time></trkpt><trkpt lat="45.019927" lon="6.8692378"><ele>1754.6666666666665</ele><time>2026-04-03T10:48:11.858Z</time></trkpt><trkpt lat="45.0198504" lon="6.8692657"><ele>1757.5</ele><time>2026-04-03T10:48:13.86Z</time></trkpt><trkpt lat="45.0197789" lon="6.8692925"><ele>1760.3333333333333</ele><time>2026-04-03T10:48:15.869Z</time></trkpt><trkpt lat="45.0197055" lon="6.8693189"><ele>1763.1666666666665</ele><time>2026-04-03T10:48:17.869Z</time></trkpt><trkpt lat="45.0196314" lon="6.8693442"><ele>1766.0</ele><time>2026-04-03T10:48:19.869Z</time></trkpt><trkpt lat="45.0195581" lon="6.8693673"><ele>1766.9999999999998</ele><time>2026-04-03T10:48:21.869Z</time></trkpt><trkpt lat="45.0194826" lon="6.8693951"><ele>1768.0</ele><time>2026-04-03T10:48:23.867Z</time></trkpt><trkpt lat="45.0194061" lon="6.869422"><ele>1769.0</ele><time>2026-04-03T10:48:25.863Z</time></trkpt><trkpt lat="45.01933" lon="6.8694494"><ele>1770.0</ele><time>2026-04-03T10:48:27.871Z</time></trkpt><trkpt lat="45.0192559" lon="6.869476"><ele>1770.9999999999998</ele><time>2026-04-03T10:48:29.86Z</time></trkpt><trkpt lat="45.0191839" lon="6.8695013"><ele>1772.0</ele><time>2026-04-03T10:48:31.863Z</time></trkpt><trkpt lat="45.0191117" lon="6.8695275"><ele>1776.1666666666665</ele><time>2026-04-03T10:48:33.854Z</time></trkpt><trkpt lat="45.0190374" lon="6.8695518"><ele>1780.3333333333333</ele><time>2026-04-03T10:48:35.86Z</time></trkpt><trkpt lat="45.0189611" lon="6.8695753"><ele>1784.5</ele><time>2026-04-03T10:48:37.866Z</time></trkpt><trkpt lat="45.018887" lon="6.8695997"><ele>1788.6666666666665</ele><time>2026-04-03T10:48:39.868Z</time></trkpt><trkpt lat="45.0188134" lon="6.8696256"><ele>1792.8333333333333</ele><time>2026-04-03T10:48:41.865Z</time></trkpt><trkpt lat="45.0187392" lon="6.8696506"><ele>1797.0</ele><time>2026-04-03T10:48:43.864Z</time></trkpt><trkpt lat="45.0186648" lon="6.8696761"><ele>1797.0</ele><time>2026-04-03T10:48:45.869Z</time></trkpt><trkpt lat="45.0185882" lon="6.869701"><ele>1797.0</ele><time>2026-04-03T10:48:47.863Z</time></trkpt><trkpt lat="45.018513" lon="6.8697258"><ele>1797.0</ele><time>2026-04-03T10:48:49.854Z</time></trkpt><trkpt lat="45.0184401" lon="6.8697511"><ele>1797.0</ele><time>2026-04-03T10:48:51.868Z</time></trkpt><trkpt lat="45.018366" lon="6.8697759"><ele>1797.0</ele><time>2026-04-03T10:48:53.867Z</time></trkpt><trkpt lat="45.0182928" lon="6.8698016"><ele>1797.0</ele><time>2026-04-03T10:48:55.866Z</time></trkpt><trkpt lat="45.018219" lon="6.8698254"><ele>1800.8333333333333</ele><time>2026-04-03T10:48:57.867Z</time></trkpt><trkpt lat="45.0181463" lon="6.8698513"><ele>1804.6666666666665</ele><time>2026-04-03T10:48:59.856Z</time></trkpt><trkpt lat="45.0180714" lon="6.8698777"><ele>1808.5</ele><time>2026-04-03T10:49:01.862Z</time></trkpt><trkpt lat="45.0179986" lon="6.869903"><ele>1812.3333333333333</ele><time>2026-04-03T10:49:03.854Z</time></trkpt><trkpt lat="45.0179241" lon="6.8699281"><ele>1816.1666666666665</ele><time>2026-04-03T10:49:05.855Z</time></trkpt><trkpt lat="45.0178533" lon="6.8699528"><ele>1820.0</ele><time>2026-04-03T10:49:07.874Z</time></trkpt><trkpt lat="45.0177824" lon="6.8699771"><ele>1819.9999999999998</ele><time>2026-04-03T10:49:09.866Z</time></trkpt><trkpt lat="45.0177091" lon="6.8700054"><ele>1820.0</ele><time>2026-04-03T10:49:11.869Z</time></trkpt><trkpt lat="45.0176364" lon="6.8700397"><ele>1820.0</ele><time>2026-04-03T10:49:13.865Z</time></trkpt><trkpt lat="45.0175631" lon="6.8700712"><ele>1820.0</ele><time>2026-04-03T10:49:15.868Z</time></trkpt><trkpt lat="45.0174883" lon="6.8700997"><ele>1819.9999999999998</ele><time>2026-04-03T10:49:17.87Z</time></trkpt><trkpt lat="45.017415" lon="6.8701254"><ele>1820.0</ele><time>2026-04-03T10:49:19.868Z</time></trkpt><trkpt lat="45.0173411" lon="6.8701486"><ele>1824.142857142857</ele><time>2026-04-03T10:49:21.858Z</time></trkpt><trkpt lat="45.0172676" lon="6.8701684"><ele>1828.2857142857142</ele><time>2026-04-03T10:49:23.863Z</time></trkpt><trkpt lat="45.0171945" lon="6.8701913"><ele>1832.4285714285716</ele><time>2026-04-03T10:49:25.858Z</time></trkpt><trkpt lat="45.0171208" lon="6.8702152"><ele>1836.5714285714287</ele><time>2026-04-03T10:49:27.871Z</time></trkpt><trkpt lat="45.0170481" lon="6.8702384"><ele>1840.7142857142858</ele><time>2026-04-03T10:49:29.87Z</time></trkpt><trkpt lat="45.016976" lon="6.8702618"><ele>1844.8571428571431</ele><time>2026-04-03T10:49:31.856Z</time></trkpt><trkpt lat="45.0169046" lon="6.8702864"><ele>1849.0000000000002</ele><time>2026-04-03T10:49:33.869Z</time></trkpt><trkpt lat="45.0168337" lon="6.8703104"><ele>1849.0000000000002</ele><time>2026-04-03T10:49:35.863Z</time></trkpt><trkpt lat="45.0167615" lon="6.8703332"><ele>1849.0</ele><time>2026-04-03T10:49:37.856Z</time></trkpt><trkpt lat="45.016692" lon="6.8703557"><ele>1849.0000000000002</ele><time>2026-04-03T10:49:39.862Z</time></trkpt><trkpt lat="45.0166169" lon="6.8703835"><ele>1849.0000000000002</ele><time>2026-04-03T10:49:41.864Z</time></trkpt><trkpt lat="45.016544" lon="6.8704085"><ele>1849.0</ele><time>2026-04-03T10:49:43.86Z</time></trkpt><trkpt lat="45.0164693" lon="6.8704299"><ele>1849.0000000000002</ele><time>2026-04-03T10:49:45.876Z</time></trkpt><trkpt lat="45.0163983" lon="6.8704524"><ele>1849.0000000000002</ele><time>2026-04-03T10:49:47.863Z</time></trkpt><trkpt lat="45.0163263" lon="6.8704831"><ele>1854.2857142857147</ele><time>2026-04-03T10:49:49.859Z</time></trkpt><trkpt lat="45.0162564" lon="6.8705161"><ele>1859.5714285714287</ele><time>2026-04-03T10:49:51.862Z</time></trkpt><trkpt lat="45.0161869" lon="6.8705485"><ele>1864.8571428571431</ele><time>2026-04-03T10:49:53.865Z</time></trkpt><trkpt lat="45.0161187" lon="6.8705776"><ele>1870.1428571428573</ele><time>2026-04-03T10:49:55.872Z</time></trkpt><trkpt lat="45.01605" lon="6.8706091"><ele>1875.4285714285716</ele><time>2026-04-03T10:49:57.854Z</time></trkpt><trkpt lat="45.0159828" lon="6.8706348"><ele>1880.7142857142858</ele><time>2026-04-03T10:49:59.852Z</time></trkpt><trkpt lat="45.0159038" lon="6.870663"><ele>1886.0</ele><time>2026-04-03T10:50:01.87Z</time></trkpt><trkpt lat="45.0158286" lon="6.8706868"><ele>1889.6666666666665</ele><time>2026-04-03T10:50:03.862Z</time></trkpt><trkpt lat="45.0157532" lon="6.8707114"><ele>1893.3333333333333</ele><time>2026-04-03T10:50:05.87Z</time></trkpt><trkpt lat="45.0156789" lon="6.8707363"><ele>1897.0</ele><time>2026-04-03T10:50:07.872Z</time></trkpt><trkpt lat="45.0156044" lon="6.8707616"><ele>1900.6666666666665</ele><time>2026-04-03T10:50:09.868Z</time></trkpt><trkpt lat="45.0155309" lon="6.8707863"><ele>1904.3333333333333</ele><time>2026-04-03T10:50:11.86Z</time></trkpt><trkpt lat="45.0154552" lon="6.870814"><ele>1908.0</ele><time>2026-04-03T10:50:13.855Z</time></trkpt><trkpt lat="45.0153825" lon="6.870839"><ele>1908.0</ele><time>2026-04-03T10:50:15.853Z</time></trkpt><trkpt lat="45.0153103" lon="6.870864"><ele>1908.0</ele><time>2026-04-03T10:50:17.864Z</time></trkpt><trkpt lat="45.0152364" lon="6.8708865"><ele>1908.0</ele><time>2026-04-03T10:50:19.865Z</time></trkpt><trkpt lat="45.0151613" lon="6.8709129"><ele>1908.0</ele><time>2026-04-03T10:50:21.872Z</time></trkpt><trkpt lat="45.0150851" lon="6.8709415"><ele>1908.0</ele><time>2026-04-03T10:50:23.872Z</time></trkpt><trkpt lat="45.015013" lon="6.8709704"><ele>1908.0</ele><time>2026-04-03T10:50:25.852Z</time></trkpt><trkpt lat="45.0149409" lon="6.8709897"><ele>1909.8571428571427</ele><time>2026-04-03T10:50:27.863Z</time></trkpt><trkpt lat="45.0148695" lon="6.8710179"><ele>1911.7142857142856</ele><time>2026-04-03T10:50:29.862Z</time></trkpt><trkpt lat="45.0147972" lon="6.8710441"><ele>1913.5714285714284</ele><time>2026-04-03T10:50:31.861Z</time></trkpt><trkpt lat="45.0147245" lon="6.8710703"><ele>1915.4285714285716</ele><time>2026-04-03T10:50:33.858Z</time></trkpt><trkpt lat="45.0146542" lon="6.871101"><ele>1917.2857142857144</ele><time>2026-04-03T10:50:35.862Z</time></trkpt><trkpt lat="45.0145817" lon="6.8711294"><ele>1919.1428571428573</ele><time>2026-04-03T10:50:37.865Z</time></trkpt><trkpt lat="45.0145108" lon="6.8711535"><ele>1921.0</ele><time>2026-04-03T10:50:39.866Z</time></trkpt><trkpt lat="45.0144373" lon="6.8711791"><ele>1921.0000000000002</ele><time>2026-04-03T10:50:41.859Z</time></trkpt><trkpt lat="45.0143632" lon="6.8712042"><ele>1921.0</ele><time>2026-04-03T10:50:43.868Z</time></trkpt><trkpt lat="45.0142918" lon="6.8712299"><ele>1921.0</ele><time>2026-04-03T10:50:45.855Z</time></trkpt><trkpt lat="45.0142169" lon="6.8712556"><ele>1921.0</ele><time>2026-04-03T10:50:47.857Z</time></trkpt><trkpt lat="45.0141448" lon="6.8712812"><ele>1921.0000000000002</ele><time>2026-04-03T10:50:49.87Z</time></trkpt><trkpt lat="45.0140711" lon="6.8713083"><ele>1921.0</ele><time>2026-04-03T10:50:51.864Z</time></trkpt><trkpt lat="45.0139947" lon="6.8713378"><ele>1925.6666666666667</ele><time>2026-04-03T10:50:53.873Z</time></trkpt><trkpt lat="45.0139199" lon="6.871364"><ele>1930.3333333333335</ele><time>2026-04-03T10:50:55.857Z</time></trkpt><trkpt lat="45.0138441" lon="6.8713913"><ele>1935.0</ele><time>2026-04-03T10:50:57.866Z</time></trkpt><trkpt lat="45.0137719" lon="6.8714165"><ele>1939.6666666666665</ele><time>2026-04-03T10:50:59.865Z</time></trkpt><trkpt lat="45.0136983" lon="6.8714407"><ele>1944.3333333333333</ele><time>2026-04-03T10:51:01.856Z</time></trkpt><trkpt lat="45.0136226" lon="6.8714663"><ele>1949.0</ele><time>2026-04-03T10:51:03.86Z</time></trkpt><trkpt lat="45.0135497" lon="6.8714921"><ele>1948.9999999999998</ele><time>2026-04-03T10:51:05.868Z</time></trkpt><trkpt lat="45.0134769" lon="6.8715156"><ele>1949.0</ele><time>2026-04-03T10:51:07.871Z</time></trkpt><trkpt lat="45.0134028" lon="6.8715417"><ele>1949.0</ele><time>2026-04-03T10:51:09.852Z</time></trkpt><trkpt lat="45.013326" lon="6.8715679"><ele>1949.0</ele><time>2026-04-03T10:51:11.86Z</time></trkpt><trkpt lat="45.0132525" lon="6.8715949"><ele>1948.9999999999998</ele><time>2026-04-03T10:51:13.869Z</time></trkpt><trkpt lat="45.0131789" lon="6.8716242"><ele>1949.0</ele><time>2026-04-03T10:51:15.852Z</time></trkpt><trkpt lat="45.0131035" lon="6.8716526"><ele>1952.1666666666665</ele><time>2026-04-03T10:51:17.862Z</time></trkpt><trkpt lat="45.0130296" lon="6.8716811"><ele>1955.3333333333333</ele><time>2026-04-03T10:51:19.858Z</time></trkpt><trkpt lat="45.0129653" lon="6.8717063"><ele>1958.5</ele><time>2026-04-03T10:51:21.867Z</time></trkpt><trkpt lat="45.0128977" lon="6.8717302"><ele>1961.6666666666665</ele><time>2026-04-03T10:51:23.865Z</time></trkpt><trkpt lat="45.01282" lon="6.8717539"><ele>1964.8333333333333</ele><time>2026-04-03T10:51:25.863Z</time></trkpt><trkpt lat="45.0127432" lon="6.8717817"><ele>1968.0</ele><time>2026-04-03T10:51:27.86Z</time></trkpt><trkpt lat="45.0126671" lon="6.8718083"><ele>1968.3333333333333</ele><time>2026-04-03T10:51:29.856Z</time></trkpt><trkpt lat="45.0125922" lon="6.8718317"><ele>1968.6666666666665</ele><time>2026-04-03T10:51:31.86Z</time></trkpt><trkpt lat="45.0125195" lon="6.8718525"><ele>1969.0</ele><time>2026-04-03T10:51:33.864Z</time></trkpt><trkpt lat="45.0124463" lon="6.8718751"><ele>1969.3333333333333</ele><time>2026-04-03T10:51:35.87Z</time></trkpt><trkpt lat="45.0123722" lon="6.8719016"><ele>1969.6666666666665</ele><time>2026-04-03T10:51:37.863Z</time></trkpt><trkpt lat="45.0122968" lon="6.8719285"><ele>1970.0</ele><time>2026-04-03T10:51:39.863Z</time></trkpt><trkpt lat="45.01222" lon="6.8719588"><ele>1971.4999999999998</ele><time>2026-04-03T10:51:41.873Z</time></trkpt><trkpt lat="45.0121442" lon="6.8719868"><ele>1973.0</ele><time>2026-04-03T10:51:43.872Z</time></trkpt><trkpt lat="45.0120676" lon="6.8720143"><ele>1974.5</ele><time>2026-04-03T10:51:45.86Z</time></trkpt><trkpt lat="45.0119877" lon="6.8720438"><ele>1976.0</ele><time>2026-04-03T10:51:47.86Z</time></trkpt><trkpt lat="45.011914" lon="6.872069"><ele>1977.4999999999998</ele><time>2026-04-03T10:51:49.86Z</time></trkpt><trkpt lat="45.0118386" lon="6.872096"><ele>1979.0</ele><time>2026-04-03T10:51:51.859Z</time></trkpt><trkpt lat="45.0117613" lon="6.8721256"><ele>1978.9999999999998</ele><time>2026-04-03T10:51:53.871Z</time></trkpt><trkpt lat="45.0116867" lon="6.8721523"><ele>1979.0</ele><time>2026-04-03T10:51:55.856Z</time></trkpt><trkpt lat="45.0116118" lon="6.8721784"><ele>1979.0</ele><time>2026-04-03T10:51:57.856Z</time></trkpt><trkpt lat="45.011539" lon="6.8722056"><ele>1979.0</ele><time>2026-04-03T10:51:59.872Z</time></trkpt><trkpt lat="45.0114631" lon="6.872233"><ele>1978.9999999999998</ele><time>2026-04-03T10:52:01.854Z</time></trkpt><trkpt lat="45.011385" lon="6.8722624"><ele>1979.0</ele><time>2026-04-03T10:52:03.862Z</time></trkpt><trkpt lat="45.0113073" lon="6.872292"><ele>1980.4999999999998</ele><time>2026-04-03T10:52:05.853Z</time></trkpt><trkpt lat="45.0112308" lon="6.8723191"><ele>1982.0</ele><time>2026-04-03T10:52:07.867Z</time></trkpt><trkpt lat="45.0111534" lon="6.8723468"><ele>1983.5</ele><time>2026-04-03T10:52:09.875Z</time></trkpt><trkpt lat="45.0110764" lon="6.872374"><ele>1985.0</ele><time>2026-04-03T10:52:11.858Z</time></trkpt><trkpt lat="45.0109983" lon="6.8724077"><ele>1986.4999999999998</ele><time>2026-04-03T10:52:13.867Z</time></trkpt><trkpt lat="45.0109219" lon="6.8724377"><ele>1988.0</ele><time>2026-04-03T10:52:15.865Z</time></trkpt><trkpt lat="45.0108449" lon="6.8724652"><ele>1993.142857142857</ele><time>2026-04-03T10:52:17.87Z</time></trkpt><trkpt lat="45.0107694" lon="6.8724921"><ele>1998.2857142857142</ele><time>2026-04-03T10:52:19.864Z</time></trkpt><trkpt lat="45.0106937" lon="6.8725202"><ele>2003.4285714285716</ele><time>2026-04-03T10:52:21.853Z</time></trkpt><trkpt lat="45.0106246" lon="6.8725443"><ele>2008.5714285714287</ele><time>2026-04-03T10:52:23.865Z</time></trkpt><trkpt lat="45.0105597" lon="6.8725677"><ele>2013.7142857142858</ele><time>2026-04-03T10:52:25.864Z</time></trkpt><trkpt lat="45.0104893" lon="6.8725905"><ele>2018.8571428571431</ele><time>2026-04-03T10:52:27.867Z</time></trkpt><trkpt lat="45.0104192" lon="6.8726138"><ele>2024.0000000000002</ele><time>2026-04-03T10:52:29.865Z</time></trkpt><trkpt lat="45.0103499" lon="6.8726416"><ele>2024.0000000000002</ele><time>2026-04-03T10:52:31.856Z</time></trkpt><trkpt lat="45.0102792" lon="6.8726684"><ele>2024.0</ele><time>2026-04-03T10:52:33.864Z</time></trkpt><trkpt lat="45.0102106" lon="6.8726945"><ele>2024.0000000000002</ele><time>2026-04-03T10:52:35.869Z</time></trkpt><trkpt lat="45.0101435" lon="6.8727218"><ele>2024.0000000000002</ele><time>2026-04-03T10:52:37.867Z</time></trkpt><trkpt lat="45.0100766" lon="6.8727447"><ele>2024.0</ele><time>2026-04-03T10:52:39.864Z</time></trkpt><trkpt lat="45.0100117" lon="6.8727646"><ele>2024.0000000000002</ele><time>2026-04-03T10:52:41.859Z</time></trkpt><trkpt lat="45.0099446" lon="6.8727877"><ele>2024.0000000000002</ele><time>2026-04-03T10:52:43.871Z</time></trkpt><trkpt lat="45.009879" lon="6.8728114"><ele>2029.714285714286</ele><time>2026-04-03T10:52:45.864Z</time></trkpt><trkpt lat="45.0098136" lon="6.8728306"><ele>2035.4285714285716</ele><time>2026-04-03T10:52:47.868Z</time></trkpt><trkpt lat="45.0097422" lon="6.8728543"><ele>2041.142857142857</ele><time>2026-04-03T10:52:49.876Z</time></trkpt><trkpt lat="45.0096681" lon="6.8728814"><ele>2046.857142857143</ele><time>2026-04-03T10:52:51.857Z</time></trkpt><trkpt lat="45.0095956" lon="6.8729095"><ele>2052.5714285714284</ele><time>2026-04-03T10:52:53.865Z</time></trkpt><trkpt lat="45.0095281" lon="6.8729373"><ele>2058.285714285714</ele><time>2026-04-03T10:52:55.861Z</time></trkpt><trkpt lat="45.0094568" lon="6.8729656"><ele>2064.0</ele><time>2026-04-03T10:52:57.859Z</time></trkpt><trkpt lat="45.0093901" lon="6.8729931"><ele>2063.9999999999995</ele><time>2026-04-03T10:52:59.864Z</time></trkpt><trkpt lat="45.0093235" lon="6.8730174"><ele>2064.0</ele><time>2026-04-03T10:53:01.853Z</time></trkpt><trkpt lat="45.0092587" lon="6.8730381"><ele>2064.0</ele><time>2026-04-03T10:53:03.86Z</time></trkpt><trkpt lat="45.0091937" lon="6.8730585"><ele>2064.0</ele><time>2026-04-03T10:53:05.858Z</time></trkpt><trkpt lat="45.009127" lon="6.87308"><ele>2064.0</ele><time>2026-04-03T10:53:07.856Z</time></trkpt><trkpt lat="45.0090625" lon="6.8731035"><ele>2063.9999999999995</ele><time>2026-04-03T10:53:09.862Z</time></trkpt><trkpt lat="45.0089961" lon="6.8731288"><ele>2064.0</ele><time>2026-04-03T10:53:11.872Z</time></trkpt><trkpt lat="45.0089302" lon="6.8731476"><ele>2070.142857142857</ele><time>2026-04-03T10:53:13.858Z</time></trkpt><trkpt lat="45.008867" lon="6.8731664"><ele>2076.285714285714</ele><time>2026-04-03T10:53:15.861Z</time></trkpt><trkpt lat="45.0088003" lon="6.8731851"><ele>2082.4285714285716</ele><time>2026-04-03T10:53:17.871Z</time></trkpt><trkpt lat="45.0087386" lon="6.8732045"><ele>2088.5714285714284</ele><time>2026-04-03T10:53:19.862Z</time></trkpt><trkpt lat="45.0086683" lon="6.873227"><ele>2094.714285714286</ele><time>2026-04-03T10:53:21.858Z</time></trkpt><trkpt lat="45.0086052" lon="6.8732461"><ele>2100.8571428571427</ele><time>2026-04-03T10:53:23.873Z</time></trkpt><trkpt lat="45.0085381" lon="6.8732687"><ele>2107.0</ele><time>2026-04-03T10:53:25.874Z</time></trkpt><trkpt lat="45.0084731" lon="6.8732843"><ele>2107.0</ele><time>2026-04-03T10:53:27.872Z</time></trkpt><trkpt lat="45.0084057" lon="6.8733014"><ele>2107.0</ele><time>2026-04-03T10:53:29.867Z</time></trkpt><trkpt lat="45.0083257" lon="6.8733253"><ele>2107.0</ele><time>2026-04-03T10:53:31.86Z</time></trkpt><trkpt lat="45.0082491" lon="6.8733529"><ele>2107.0</ele><time>2026-04-03T10:53:33.867Z</time></trkpt><trkpt lat="45.0081722" lon="6.8733797"><ele>2107.0</ele><time>2026-04-03T10:53:35.864Z</time></trkpt><trkpt lat="45.0080952" lon="6.8734064"><ele>2107.0</ele><time>2026-04-03T10:53:37.858Z</time></trkpt><trkpt lat="45.0080199" lon="6.8734309"><ele>2110.666666666667</ele><time>2026-04-03T10:53:39.871Z</time></trkpt><trkpt lat="45.0079446" lon="6.8734576"><ele>2114.3333333333335</ele><time>2026-04-03T10:53:41.859Z</time></trkpt><trkpt lat="45.0078731" lon="6.8734834"><ele>2118.0</ele><time>2026-04-03T10:53:43.864Z</time></trkpt><trkpt lat="45.0077952" lon="6.8735114"><ele>2121.6666666666665</ele><time>2026-04-03T10:53:45.866Z</time></trkpt><trkpt lat="45.0077187" lon="6.873538"><ele>2125.333333333333</ele><time>2026-04-03T10:53:47.861Z</time></trkpt><trkpt lat="45.0076432" lon="6.8735658"><ele>2129.0</ele><time>2026-04-03T10:53:49.864Z</time></trkpt><trkpt lat="45.0075657" lon="6.8735936"><ele>2131.833333333333</ele><time>2026-04-03T10:53:51.86Z</time></trkpt><trkpt lat="45.0074908" lon="6.8736209"><ele>2134.6666666666665</ele><time>2026-04-03T10:53:53.87Z</time></trkpt><trkpt lat="45.0074163" lon="6.8736491"><ele>2137.5</ele><time>2026-04-03T10:53:55.858Z</time></trkpt><trkpt lat="45.007344" lon="6.8736757"><ele>2140.3333333333335</ele><time>2026-04-03T10:53:57.86Z</time></trkpt><trkpt lat="45.0072735" lon="6.8737007"><ele>2143.166666666667</ele><time>2026-04-03T10:53:59.867Z</time></trkpt><trkpt lat="45.0071983" lon="6.8737245"><ele>2146.0</ele><time>2026-04-03T10:54:01.854Z</time></trkpt><trkpt lat="45.0071217" lon="6.8737529"><ele>2146.0</ele><time>2026-04-03T10:54:03.86Z</time></trkpt><trkpt lat="45.0070458" lon="6.873778"><ele>2146.0</ele><time>2026-04-03T10:54:05.871Z</time></trkpt><trkpt lat="45.0069696" lon="6.8738063"><ele>2146.0</ele><time>2026-04-03T10:54:07.86Z</time></trkpt><trkpt lat="45.0068953" lon="6.8738326"><ele>2146.0</ele><time>2026-04-03T10:54:09.86Z</time></trkpt><trkpt lat="45.0068196" lon="6.8738575"><ele>2146.0</ele><time>2026-04-03T10:54:11.859Z</time></trkpt><trkpt lat="45.0067437" lon="6.8738803"><ele>2146.0</ele><time>2026-04-03T10:54:13.855Z</time></trkpt><trkpt lat="45.006671" lon="6.8739031"><ele>2150.4285714285716</ele><time>2026-04-03T10:54:15.866Z</time></trkpt><trkpt lat="45.0065972" lon="6.8739275"><ele>2154.8571428571427</ele><time>2026-04-03T10:54:17.863Z</time></trkpt><trkpt lat="45.0065227" lon="6.8739531"><ele>2159.285714285714</ele><time>2026-04-03T10:54:19.864Z</time></trkpt><trkpt lat="45.0064475" lon="6.873978"><ele>2163.714285714286</ele><time>2026-04-03T10:54:21.869Z</time></trkpt><trkpt lat="45.0063761" lon="6.8740018"><ele>2168.142857142857</ele><time>2026-04-03T10:54:23.866Z</time></trkpt><trkpt lat="45.006307" lon="6.8740279"><ele>2172.5714285714284</ele><time>2026-04-03T10:54:25.868Z</time></trkpt><trkpt lat="45.006238" lon="6.8740519"><ele>2177.0</ele><time>2026-04-03T10:54:27.865Z</time></trkpt><trkpt lat="45.0061678" lon="6.8740755"><ele>2177.0</ele><time>2026-04-03T10:54:29.863Z</time></trkpt><trkpt lat="45.0061" lon="6.8741011"><ele>2177.0</ele><time>2026-04-03T10:54:31.858Z</time></trkpt><trkpt lat="45.0060332" lon="6.8741261"><ele>2177.0</ele><time>2026-04-03T10:54:33.865Z</time></trkpt><trkpt lat="45.0059635" lon="6.8741535"><ele>2177.0</ele><time>2026-04-03T10:54:35.862Z</time></trkpt><trkpt lat="45.0058964" lon="6.8741782"><ele>2177.0</ele><time>2026-04-03T10:54:37.855Z</time></trkpt><trkpt lat="45.0058282" lon="6.874206"><ele>2177.0</ele><time>2026-04-03T10:54:39.867Z</time></trkpt><trkpt lat="45.005765" lon="6.8742294"><ele>2177.0</ele><time>2026-04-03T10:54:41.864Z</time></trkpt><trkpt lat="45.0056959" lon="6.8742555"><ele>2182.714285714286</ele><time>2026-04-03T10:54:43.857Z</time></trkpt><trkpt lat="45.0056233" lon="6.8742799"><ele>2188.4285714285716</ele><time>2026-04-03T10:54:45.862Z</time></trkpt><trkpt lat="45.0055511" lon="6.8743061"><ele>2194.142857142857</ele><time>2026-04-03T10:54:47.859Z</time></trkpt><trkpt lat="45.0054776" lon="6.8743321"><ele>2199.857142857143</ele><time>2026-04-03T10:54:49.861Z</time></trkpt><trkpt lat="45.0054073" lon="6.8743568"><ele>2205.5714285714284</ele><time>2026-04-03T10:54:51.855Z</time></trkpt><trkpt lat="45.0053377" lon="6.8743783"><ele>2211.285714285714</ele><time>2026-04-03T10:54:53.872Z</time></trkpt><trkpt lat="45.0052691" lon="6.8743998"><ele>2217.0</ele><time>2026-04-03T10:54:55.861Z</time></trkpt><trkpt lat="45.0052018" lon="6.8744237"><ele>2217.0</ele><time>2026-04-03T10:54:57.858Z</time></trkpt><trkpt lat="45.0051344" lon="6.8744469"><ele>2217.0</ele><time>2026-04-03T10:54:59.862Z</time></trkpt><trkpt lat="45.0050678" lon="6.8744697"><ele>2217.0</ele><time>2026-04-03T10:55:01.858Z</time></trkpt><trkpt lat="45.0050009" lon="6.8744946"><ele>2217.0</ele><time>2026-04-03T10:55:03.858Z</time></trkpt><trkpt lat="45.0049369" lon="6.8745159"><ele>2217.0</ele><time>2026-04-03T10:55:05.858Z</time></trkpt><trkpt lat="45.0048644" lon="6.8745389"><ele>2217.0</ele><time>2026-04-03T10:55:07.87Z</time></trkpt><trkpt lat="45.0047914" lon="6.8745642"><ele>2217.0</ele><time>2026-04-03T10:55:09.867Z</time></trkpt><trkpt lat="45.0047179" lon="6.8745866"><ele>2220.714285714286</ele><time>2026-04-03T10:55:11.872Z</time></trkpt><trkpt lat="45.0046477" lon="6.8746103"><ele>2224.4285714285716</ele><time>2026-04-03T10:55:13.87Z</time></trkpt><trkpt lat="45.004577" lon="6.8746345"><ele>2228.1428571428573</ele><time>2026-04-03T10:55:15.873Z</time></trkpt><trkpt lat="45.0045066" lon="6.8746613"><ele>2231.857142857143</ele><time>2026-04-03T10:55:17.855Z</time></trkpt><trkpt lat="45.0044373" lon="6.8746859"><ele>2235.571428571429</ele><time>2026-04-03T10:55:19.861Z</time></trkpt><trkpt lat="45.0043692" lon="6.8747079"><ele>2239.285714285714</ele><time>2026-04-03T10:55:21.865Z</time></trkpt><trkpt lat="45.0042981" lon="6.8747321"><ele>2243.0</ele><time>2026-04-03T10:55:23.864Z</time></trkpt><trkpt lat="45.0042265" lon="6.8747571"><ele>2245.714285714286</ele><time>2026-04-03T10:55:25.857Z</time></trkpt><trkpt lat="45.0041557" lon="6.8747821"><ele>2248.4285714285716</ele><time>2026-04-03T10:55:27.863Z</time></trkpt><trkpt lat="45.0040864" lon="6.8748036"><ele>2251.1428571428573</ele><time>2026-04-03T10:55:29.858Z</time></trkpt><trkpt lat="45.0040167" lon="6.8748277"><ele>2253.857142857143</ele><time>2026-04-03T10:55:31.857Z</time></trkpt><trkpt lat="45.0039441" lon="6.8748507"><ele>2256.5714285714284</ele><time>2026-04-03T10:55:33.864Z</time></trkpt><trkpt lat="45.0038714" lon="6.8748709"><ele>2259.2857142857147</ele><time>2026-04-03T10:55:35.861Z</time></trkpt><trkpt lat="45.0038016" lon="6.8749005"><ele>2262.0</ele><time>2026-04-03T10:55:37.863Z</time></trkpt><trkpt lat="45.0037293" lon="6.8749287"><ele>2262.0000000000005</ele><time>2026-04-03T10:55:39.872Z</time></trkpt><trkpt lat="45.0036556" lon="6.874958"><ele>2262.0</ele><time>2026-04-03T10:55:41.867Z</time></trkpt><trkpt lat="45.0035793" lon="6.8749831"><ele>2262.0</ele><time>2026-04-03T10:55:43.866Z</time></trkpt><trkpt lat="45.0035074" lon="6.8750074"><ele>2262.0</ele><time>2026-04-03T10:55:45.853Z</time></trkpt><trkpt lat="45.0034332" lon="6.8750313"><ele>2262.0</ele><time>2026-04-03T10:55:47.856Z</time></trkpt><trkpt lat="45.0033657" lon="6.8750537"><ele>2262.0000000000005</ele><time>2026-04-03T10:55:50.864Z</time></trkpt><trkpt lat="45.0032915" lon="6.8750615"><ele>2262.0</ele><time>2026-04-03T10:55:55.869Z</time></trkpt><trkpt lat="45.0032161" lon="6.8750448"><ele>2264.2</ele><time>2026-04-03T10:55:57.863Z</time></trkpt><trkpt lat="45.003158" lon="6.8749796"><ele>2266.3999999999996</ele><time>2026-04-03T10:56:00.854Z</time></trkpt><trkpt lat="45.0031319" lon="6.8748533"><ele>2268.6000000000004</ele><time>2026-04-03T10:56:03.868Z</time></trkpt><trkpt lat="45.0030957" lon="6.8746723"><ele>2270.8</ele><time>2026-04-03T10:56:05.868Z</time></trkpt><trkpt lat="45.0030887" lon="6.8745623"><ele>2273.0</ele><time>2026-04-03T10:56:06.853Z</time></trkpt><trkpt lat="45.0030868" lon="6.8744525"><ele>2273.0</ele><time>2026-04-03T10:56:07.866Z</time></trkpt><trkpt lat="45.0031252" lon="6.8743462"><ele>2273.0</ele><time>2026-04-03T10:56:08.869Z</time></trkpt><trkpt lat="45.0031491" lon="6.874241"><ele>2273.0</ele><time>2026-04-03T10:56:09.871Z</time></trkpt><trkpt lat="45.0032087" lon="6.8741461"><ele>2273.0</ele><time>2026-04-03T10:56:10.864Z</time></trkpt><trkpt lat="45.0032213" lon="6.8740394"><ele>2273.0</ele><time>2026-04-03T10:56:11.869Z</time></trkpt><trkpt lat="45.0032732" lon="6.8739515"><ele>2273.0</ele><time>2026-04-03T10:56:12.859Z</time></trkpt><trkpt lat="45.0033091" lon="6.8738497"><ele>2270.333333333333</ele><time>2026-04-03T10:56:13.872Z</time></trkpt><trkpt lat="45.0033544" lon="6.8737474"><ele>2267.6666666666665</ele><time>2026-04-03T10:56:14.866Z</time></trkpt><trkpt lat="45.0034286" lon="6.8736862"><ele>2265.0</ele><time>2026-04-03T10:56:15.859Z</time></trkpt><trkpt lat="45.0034964" lon="6.8736472"><ele>2262.3333333333335</ele><time>2026-04-03T10:56:16.866Z</time></trkpt><trkpt lat="45.0035882" lon="6.8736971"><ele>2259.666666666667</ele><time>2026-04-03T10:56:17.873Z</time></trkpt><trkpt lat="45.0036706" lon="6.8737199"><ele>2257.0</ele><time>2026-04-03T10:56:18.862Z</time></trkpt><trkpt lat="45.0037542" lon="6.873785"><ele>2257.0</ele><time>2026-04-03T10:56:19.868Z</time></trkpt><trkpt lat="45.003808" lon="6.8738728"><ele>2257.0</ele><time>2026-04-03T10:56:20.863Z</time></trkpt><trkpt lat="45.0039029" lon="6.8739725"><ele>2257.0</ele><time>2026-04-03T10:56:21.862Z</time></trkpt><trkpt lat="45.004018" lon="6.8740285"><ele>2257.0</ele><time>2026-04-03T10:56:22.857Z</time></trkpt><trkpt lat="45.0041132" lon="6.8740838"><ele>2257.0</ele><time>2026-04-03T10:56:23.861Z</time></trkpt><trkpt lat="45.0041913" lon="6.8741861"><ele>2254.2</ele><time>2026-04-03T10:56:24.873Z</time></trkpt><trkpt lat="45.0042402" lon="6.8743122"><ele>2251.3999999999996</ele><time>2026-04-03T10:56:25.859Z</time></trkpt><trkpt lat="45.0042802" lon="6.8744378"><ele>2248.6000000000004</ele><time>2026-04-03T10:56:26.872Z</time></trkpt><trkpt lat="45.0042994" lon="6.874573"><ele>2245.8</ele><time>2026-04-03T10:56:27.864Z</time></trkpt><trkpt lat="45.0043745" lon="6.8746731"><ele>2243.0</ele><time>2026-04-03T10:56:28.864Z</time></trkpt><trkpt lat="45.0044369" lon="6.8747669"><ele>2243.0</ele><time>2026-04-03T10:56:29.867Z</time></trkpt><trkpt lat="45.0046076" lon="6.8746452"><ele>2243.0</ele><time>2026-04-03T10:56:31.864Z</time></trkpt><trkpt lat="45.0047165" lon="6.8746337"><ele>2243.0</ele><time>2026-04-03T10:56:32.861Z</time></trkpt><trkpt lat="45.0048333" lon="6.8745852"><ele>2243.0</ele><time>2026-04-03T10:56:33.858Z</time></trkpt><trkpt lat="45.0049368" lon="6.8744989"><ele>2243.0</ele><time>2026-04-03T10:56:34.866Z</time></trkpt><trkpt lat="45.0049888" lon="6.8743936"><ele>2243.0</ele><time>2026-04-03T10:56:35.864Z</time></trkpt><trkpt lat="45.005001" lon="6.8741826"><ele>2243.0</ele><time>2026-04-03T10:56:36.865Z</time></trkpt><trkpt lat="45.004972" lon="6.8739714"><ele>2243.0</ele><time>2026-04-03T10:56:37.853Z</time></trkpt><trkpt lat="45.0049695" lon="6.8738047"><ele>2243.0</ele><time>2026-04-03T10:56:38.869Z</time></trkpt><trkpt lat="45.0049865" lon="6.8736384"><ele>2243.0</ele><time>2026-04-03T10:56:39.858Z</time></trkpt><trkpt lat="45.0050309" lon="6.8734736"><ele>2243.0</ele><time>2026-04-03T10:56:40.868Z</time></trkpt><trkpt lat="45.0051218" lon="6.873287"><ele>2243.0</ele><time>2026-04-03T10:56:41.865Z</time></trkpt><trkpt lat="45.0051362" lon="6.8730818"><ele>2235.75</ele><time>2026-04-03T10:56:42.87Z</time></trkpt><trkpt lat="45.0051517" lon="6.8728747"><ele>2228.5</ele><time>2026-04-03T10:56:43.871Z</time></trkpt><trkpt lat="45.0051575" lon="6.8726732"><ele>2221.25</ele><time>2026-04-03T10:56:44.87Z</time></trkpt><trkpt lat="45.0051648" lon="6.8724799"><ele>2214.0</ele><time>2026-04-03T10:56:45.87Z</time></trkpt><trkpt lat="45.0050556" lon="6.8723324"><ele>2215.5</ele><time>2026-04-03T10:56:46.859Z</time></trkpt><trkpt lat="45.0049919" lon="6.8721557"><ele>2217.0</ele><time>2026-04-03T10:56:47.863Z</time></trkpt><trkpt lat="45.0049585" lon="6.8719565"><ele>2218.5</ele><time>2026-04-03T10:56:48.862Z</time></trkpt><trkpt lat="45.0049355" lon="6.8717892"><ele>2220.0</ele><time>2026-04-03T10:56:49.872Z</time></trkpt><trkpt lat="45.004949" lon="6.8716181"><ele>2220.0</ele><time>2026-04-03T10:56:50.851Z</time></trkpt><trkpt lat="45.0049885" lon="6.8714615"><ele>2220.0</ele><time>2026-04-03T10:56:51.865Z</time></trkpt><trkpt lat="45.0050073" lon="6.8712797"><ele>2220.0</ele><time>2026-04-03T10:56:52.859Z</time></trkpt><trkpt lat="45.0050251" lon="6.8711297"><ele>2220.0</ele><time>2026-04-03T10:56:53.871Z</time></trkpt><trkpt lat="45.0050516" lon="6.871014"><ele>2220.0</ele><time>2026-04-03T10:56:54.868Z</time></trkpt><trkpt lat="45.0050871" lon="6.8709107"><ele>2218.0</ele><time>2026-04-03T10:56:55.86Z</time></trkpt><trkpt lat="45.0050608" lon="6.8708038"><ele>2216.0</ele><time>2026-04-03T10:56:56.864Z</time></trkpt><trkpt lat="45.0050042" lon="6.870717"><ele>2214.0</ele><time>2026-04-03T10:56:58.86Z</time></trkpt><trkpt lat="45.0049702" lon="6.8706256"><ele>2212.0</ele><time>2026-04-03T10:56:59.87Z</time></trkpt><trkpt lat="45.0049646" lon="6.8704884"><ele>2210.0</ele><time>2026-04-03T10:57:00.856Z</time></trkpt><trkpt lat="45.0049762" lon="6.8703739"><ele>2208.0</ele><time>2026-04-03T10:57:01.873Z</time></trkpt><trkpt lat="45.0050527" lon="6.8702106"><ele>2199.4</ele><time>2026-04-03T10:57:02.871Z</time></trkpt><trkpt lat="45.005087" lon="6.8700748"><ele>2190.8</ele><time>2026-04-03T10:57:03.859Z</time></trkpt><trkpt lat="45.0051014" lon="6.8699544"><ele>2182.2</ele><time>2026-04-03T10:57:04.856Z</time></trkpt><trkpt lat="45.0051267" lon="6.8698184"><ele>2173.6</ele><time>2026-04-03T10:57:05.865Z</time></trkpt><trkpt lat="45.005182" lon="6.8696923"><ele>2165.0</ele><time>2026-04-03T10:57:06.866Z</time></trkpt><trkpt lat="45.0052303" lon="6.8695515"><ele>2165.0</ele><time>2026-04-03T10:57:07.862Z</time></trkpt><trkpt lat="45.0053158" lon="6.8693847"><ele>2165.0</ele><time>2026-04-03T10:57:08.857Z</time></trkpt><trkpt lat="45.0053642" lon="6.8692493"><ele>2165.0</ele><time>2026-04-03T10:57:09.869Z</time></trkpt><trkpt lat="45.0054297" lon="6.869166"><ele>2165.0</ele><time>2026-04-03T10:57:10.866Z</time></trkpt><trkpt lat="45.0054797" lon="6.8690305"><ele>2165.0</ele><time>2026-04-03T10:57:11.863Z</time></trkpt><trkpt lat="45.0055453" lon="6.8689347"><ele>2163.333333333333</ele><time>2026-04-03T10:57:12.856Z</time></trkpt><trkpt lat="45.0055933" lon="6.8688294"><ele>2161.6666666666665</ele><time>2026-04-03T10:57:13.866Z</time></trkpt><trkpt lat="45.0056439" lon="6.8687021"><ele>2160.0</ele><time>2026-04-03T10:57:15.865Z</time></trkpt><trkpt lat="45.0057243" lon="6.8686274"><ele>2158.3333333333335</ele><time>2026-04-03T10:57:33.86Z</time></trkpt><trkpt lat="45.0058082" lon="6.8685998"><ele>2156.666666666667</ele><time>2026-04-03T10:57:36.862Z</time></trkpt><trkpt lat="45.0058729" lon="6.8686061"><ele>2155.0</ele><time>2026-04-03T10:57:38.868Z</time></trkpt><trkpt lat="45.0059388" lon="6.8686304"><ele>2154.6</ele><time>2026-04-03T10:57:43.859Z</time></trkpt><trkpt lat="45.0060283" lon="6.8685826"><ele>2154.2</ele><time>2026-04-03T10:57:46.866Z</time></trkpt><trkpt lat="45.0061533" lon="6.8685305"><ele>2153.8</ele><time>2026-04-03T10:57:48.859Z</time></trkpt><trkpt lat="45.0062353" lon="6.8685131"><ele>2153.4</ele><time>2026-04-03T10:57:49.865Z</time></trkpt><trkpt lat="45.0063265" lon="6.8685379"><ele>2153.0</ele><time>2026-04-03T10:57:50.86Z</time></trkpt><trkpt lat="45.0064201" lon="6.8685831"><ele>2153.0</ele><time>2026-04-03T10:57:51.869Z</time></trkpt><trkpt lat="45.0065308" lon="6.8685726"><ele>2153.0</ele><time>2026-04-03T10:57:52.859Z</time></trkpt><trkpt lat="45.0066197" lon="6.8685607"><ele>2153.0</ele><time>2026-04-03T10:57:53.861Z</time></trkpt><trkpt lat="45.0067192" lon="6.8685438"><ele>2153.0</ele><time>2026-04-03T10:57:54.868Z</time></trkpt><trkpt lat="45.006842" lon="6.8685379"><ele>2153.0</ele><time>2026-04-03T10:57:55.861Z</time></trkpt><trkpt lat="45.0069364" lon="6.8685232"><ele>2149.2000000000003</ele><time>2026-04-03T10:57:56.863Z</time></trkpt><trkpt lat="45.0070118" lon="6.8684936"><ele>2145.4</ele><time>2026-04-03T10:57:57.857Z</time></trkpt><trkpt lat="45.0071196" lon="6.8684381"><ele>2141.6000000000004</ele><time>2026-04-03T10:57:58.851Z</time></trkpt><trkpt lat="45.0072015" lon="6.8683918"><ele>2137.8</ele><time>2026-04-03T10:57:59.864Z</time></trkpt><trkpt lat="45.0073013" lon="6.868309"><ele>2134.0</ele><time>2026-04-03T10:58:00.87Z</time></trkpt><trkpt lat="45.0073985" lon="6.8681163"><ele>2133.4</ele><time>2026-04-03T10:58:01.86Z</time></trkpt><trkpt lat="45.0074815" lon="6.868088"><ele>2132.8</ele><time>2026-04-03T10:58:02.874Z</time></trkpt><trkpt lat="45.007584" lon="6.8679826"><ele>2132.2</ele><time>2026-04-03T10:58:03.864Z</time></trkpt><trkpt lat="45.0076329" lon="6.867884"><ele>2131.6</ele><time>2026-04-03T10:58:04.86Z</time></trkpt><trkpt lat="45.0077615" lon="6.8677747"><ele>2131.0</ele><time>2026-04-03T10:58:05.861Z</time></trkpt><trkpt lat="45.0078734" lon="6.867665"><ele>2125.5</ele><time>2026-04-03T10:58:06.873Z</time></trkpt><trkpt lat="45.0079926" lon="6.8676835"><ele>2120.0</ele><time>2026-04-03T10:58:07.857Z</time></trkpt><trkpt lat="45.0081322" lon="6.8678765"><ele>2114.5</ele><time>2026-04-03T10:58:08.858Z</time></trkpt><trkpt lat="45.0082656" lon="6.8678809"><ele>2109.0</ele><time>2026-04-03T10:58:09.873Z</time></trkpt><trkpt lat="45.0083266" lon="6.8678476"><ele>2104.0</ele><time>2026-04-03T10:58:10.869Z</time></trkpt><trkpt lat="45.0084242" lon="6.8677728"><ele>2099.0</ele><time>2026-04-03T10:58:11.866Z</time></trkpt><trkpt lat="45.0085273" lon="6.8677378"><ele>2094.0</ele><time>2026-04-03T10:58:12.864Z</time></trkpt><trkpt lat="45.0086332" lon="6.8676189"><ele>2089.0</ele><time>2026-04-03T10:58:13.866Z</time></trkpt><trkpt lat="45.0087369" lon="6.8676014"><ele>2088.3333333333335</ele><time>2026-04-03T10:58:14.87Z</time></trkpt><trkpt lat="45.0088717" lon="6.8676968"><ele>2087.6666666666665</ele><time>2026-04-03T10:58:16.866Z</time></trkpt><trkpt lat="45.0090462" lon="6.8678266"><ele>2087.0</ele><time>2026-04-03T10:58:17.861Z</time></trkpt><trkpt lat="45.0091545" lon="6.8678881"><ele>2080.25</ele><time>2026-04-03T10:58:18.865Z</time></trkpt><trkpt lat="45.0092825" lon="6.8678406"><ele>2073.5</ele><time>2026-04-03T10:58:19.863Z</time></trkpt><trkpt lat="45.0093886" lon="6.8678295"><ele>2066.75</ele><time>2026-04-03T10:58:20.867Z</time></trkpt><trkpt lat="45.0095323" lon="6.8678427"><ele>2060.0</ele><time>2026-04-03T10:58:21.859Z</time></trkpt><trkpt lat="45.0096551" lon="6.8678578"><ele>2060.0</ele><time>2026-04-03T10:58:22.857Z</time></trkpt><trkpt lat="45.0098098" lon="6.8679419"><ele>2060.0</ele><time>2026-04-03T10:58:23.871Z</time></trkpt><trkpt lat="45.0099528" lon="6.8680824"><ele>2060.0</ele><time>2026-04-03T10:58:24.857Z</time></trkpt><trkpt lat="45.0101072" lon="6.8681779"><ele>2049.333333333333</ele><time>2026-04-03T10:58:25.859Z</time></trkpt><trkpt lat="45.0102672" lon="6.8682153"><ele>2038.6666666666665</ele><time>2026-04-03T10:58:26.854Z</time></trkpt><trkpt lat="45.0104493" lon="6.8682012"><ele>2028.0</ele><time>2026-04-03T10:58:28.856Z</time></trkpt><trkpt lat="45.0104455" lon="6.8684173"><ele>2028.0</ele><time>2026-04-03T10:58:29.868Z</time></trkpt><trkpt lat="45.0105478" lon="6.8684542"><ele>2028.0</ele><time>2026-04-03T10:58:30.868Z</time></trkpt><trkpt lat="45.0106599" lon="6.8684673"><ele>2028.0</ele><time>2026-04-03T10:58:31.853Z</time></trkpt><trkpt lat="45.0108098" lon="6.8683988"><ele>2028.0</ele><time>2026-04-03T10:58:32.872Z</time></trkpt><trkpt lat="45.0109589" lon="6.8684012"><ele>2020.75</ele><time>2026-04-03T10:58:33.871Z</time></trkpt><trkpt lat="45.0111131" lon="6.8684196"><ele>2013.5</ele><time>2026-04-03T10:58:34.862Z</time></trkpt><trkpt lat="45.0112476" lon="6.868513"><ele>2006.25</ele><time>2026-04-03T10:58:35.859Z</time></trkpt><trkpt lat="45.0113603" lon="6.8686061"><ele>1999.0</ele><time>2026-04-03T10:58:36.862Z</time></trkpt><trkpt lat="45.0114684" lon="6.8687681"><ele>1998.25</ele><time>2026-04-03T10:58:37.864Z</time></trkpt><trkpt lat="45.0115874" lon="6.8688463"><ele>1997.5</ele><time>2026-04-03T10:58:38.853Z</time></trkpt><trkpt lat="45.0117168" lon="6.8688031"><ele>1996.75</ele><time>2026-04-03T10:58:39.864Z</time></trkpt><trkpt lat="45.0118168" lon="6.8687243"><ele>1996.0</ele><time>2026-04-03T10:58:40.873Z</time></trkpt><trkpt lat="45.0119361" lon="6.8687349"><ele>1992.25</ele><time>2026-04-03T10:58:41.867Z</time></trkpt><trkpt lat="45.0120599" lon="6.8687638"><ele>1988.5</ele><time>2026-04-03T10:58:42.865Z</time></trkpt><trkpt lat="45.0121006" lon="6.8689286"><ele>1984.75</ele><time>2026-04-03T10:58:43.852Z</time></trkpt><trkpt lat="45.0121792" lon="6.8690374"><ele>1981.0</ele><time>2026-04-03T10:58:44.857Z</time></trkpt><trkpt lat="45.012299" lon="6.8691492"><ele>1981.0</ele><time>2026-04-03T10:58:45.871Z</time></trkpt><trkpt lat="45.0124016" lon="6.8692734"><ele>1981.0</ele><time>2026-04-03T10:58:46.86Z</time></trkpt><trkpt lat="45.0125028" lon="6.8693611"><ele>1981.0</ele><time>2026-04-03T10:58:47.869Z</time></trkpt><trkpt lat="45.0126019" lon="6.869352"><ele>1981.0</ele><time>2026-04-03T10:58:48.869Z</time></trkpt><trkpt lat="45.0127708" lon="6.8693213"><ele>1974.25</ele><time>2026-04-03T10:58:49.864Z</time></trkpt><trkpt lat="45.0128817" lon="6.8694221"><ele>1967.5</ele><time>2026-04-03T10:58:50.86Z</time></trkpt><trkpt lat="45.0130011" lon="6.8695054"><ele>1960.75</ele><time>2026-04-03T10:58:51.857Z</time></trkpt><trkpt lat="45.0130822" lon="6.8696685"><ele>1954.0</ele><time>2026-04-03T10:58:52.87Z</time></trkpt><trkpt lat="45.0131865" lon="6.8697536"><ele>1954.0</ele><time>2026-04-03T10:58:53.86Z</time></trkpt><trkpt lat="45.0132819" lon="6.8698812"><ele>1954.0</ele><time>2026-04-03T10:58:54.861Z</time></trkpt><trkpt lat="45.0134023" lon="6.8698373"><ele>1954.0</ele><time>2026-04-03T10:58:55.876Z</time></trkpt><trkpt lat="45.0135215" lon="6.8698788"><ele>1954.0</ele><time>2026-04-03T10:58:56.852Z</time></trkpt><trkpt lat="45.0136156" lon="6.8700399"><ele>1950.0</ele><time>2026-04-03T10:58:57.861Z</time></trkpt><trkpt lat="45.0137362" lon="6.8701069"><ele>1946.0</ele><time>2026-04-03T10:58:58.866Z</time></trkpt><trkpt lat="45.0138418" lon="6.8701671"><ele>1942.0</ele><time>2026-04-03T10:58:59.858Z</time></trkpt><trkpt lat="45.0139592" lon="6.8702224"><ele>1938.0</ele><time>2026-04-03T10:59:00.867Z</time></trkpt><trkpt lat="45.0140317" lon="6.870118"><ele>1938.0</ele><time>2026-04-03T10:59:01.867Z</time></trkpt><trkpt lat="45.0141123" lon="6.870116"><ele>1938.0</ele><time>2026-04-03T10:59:02.864Z</time></trkpt><trkpt lat="45.014206" lon="6.8700815"><ele>1938.0</ele><time>2026-04-03T10:59:03.862Z</time></trkpt><trkpt lat="45.0141302" lon="6.870074"><ele>1938.0</ele><time>2026-04-03T10:59:14.872Z</time></trkpt><trkpt lat="45.0140679" lon="6.870106"><ele>1938.0</ele><time>2026-04-03T10:59:19.866Z</time></trkpt><trkpt lat="45.0140905" lon="6.8700104"><ele>1938.0</ele><time>2026-04-03T10:59:36.869Z</time></trkpt><trkpt lat="45.0141681" lon="6.870031"><ele>1935.1666666666667</ele><time>2026-04-03T10:59:39.866Z</time></trkpt><trkpt lat="45.0142157" lon="6.8699524"><ele>1932.3333333333335</ele><time>2026-04-03T11:00:03.872Z</time></trkpt><trkpt lat="45.0142679" lon="6.8699022"><ele>1929.5</ele><time>2026-04-03T11:00:05.857Z</time></trkpt><trkpt lat="45.0143731" lon="6.8698541"><ele>1926.6666666666667</ele><time>2026-04-03T11:00:07.866Z</time></trkpt><trkpt lat="45.0144364" lon="6.8698096"><ele>1923.8333333333335</ele><time>2026-04-03T11:00:08.861Z</time></trkpt><trkpt lat="45.0145051" lon="6.8697465"><ele>1921.0</ele><time>2026-04-03T11:00:09.858Z</time></trkpt><trkpt lat="45.014576" lon="6.8696689"><ele>1921.0</ele><time>2026-04-03T11:00:10.865Z</time></trkpt><trkpt lat="45.0147519" lon="6.8696153"><ele>1921.0</ele><time>2026-04-03T11:00:12.865Z</time></trkpt><trkpt lat="45.014838" lon="6.869586"><ele>1921.0</ele><time>2026-04-03T11:00:13.864Z</time></trkpt><trkpt lat="45.0149391" lon="6.8695513"><ele>1921.0</ele><time>2026-04-03T11:00:14.855Z</time></trkpt><trkpt lat="45.0150436" lon="6.8694783"><ele>1918.6</ele><time>2026-04-03T11:00:15.862Z</time></trkpt><trkpt lat="45.0150674" lon="6.8693721"><ele>1916.1999999999998</ele><time>2026-04-03T11:00:16.856Z</time></trkpt><trkpt lat="45.0151538" lon="6.8692752"><ele>1913.8000000000002</ele><time>2026-04-03T11:00:17.859Z</time></trkpt><trkpt lat="45.0152504" lon="6.8691467"><ele>1911.4</ele><time>2026-04-03T11:00:18.865Z</time></trkpt><trkpt lat="45.0153639" lon="6.8691401"><ele>1909.0</ele><time>2026-04-03T11:00:19.86Z</time></trkpt><trkpt lat="45.015476" lon="6.869104"><ele>1907.75</ele><time>2026-04-03T11:00:20.871Z</time></trkpt><trkpt lat="45.0155583" lon="6.8690049"><ele>1906.5</ele><time>2026-04-03T11:00:21.861Z</time></trkpt><trkpt lat="45.0156535" lon="6.8689237"><ele>1905.25</ele><time>2026-04-03T11:00:22.869Z</time></trkpt><trkpt lat="45.0157574" lon="6.8688116"><ele>1904.0</ele><time>2026-04-03T11:00:23.864Z</time></trkpt><trkpt lat="45.0158507" lon="6.8687044"><ele>1900.25</ele><time>2026-04-03T11:00:24.854Z</time></trkpt><trkpt lat="45.015981" lon="6.8686868"><ele>1896.5</ele><time>2026-04-03T11:00:25.859Z</time></trkpt><trkpt lat="45.0161073" lon="6.8688128"><ele>1892.75</ele><time>2026-04-03T11:00:26.867Z</time></trkpt><trkpt lat="45.0162142" lon="6.8687716"><ele>1889.0</ele><time>2026-04-03T11:00:27.863Z</time></trkpt><trkpt lat="45.0163637" lon="6.8687241"><ele>1889.0</ele><time>2026-04-03T11:00:28.861Z</time></trkpt><trkpt lat="45.0164978" lon="6.8687665"><ele>1889.0</ele><time>2026-04-03T11:00:29.855Z</time></trkpt><trkpt lat="45.0166339" lon="6.8688364"><ele>1889.0</ele><time>2026-04-03T11:00:30.858Z</time></trkpt><trkpt lat="45.0167772" lon="6.8689203"><ele>1889.0</ele><time>2026-04-03T11:00:31.863Z</time></trkpt><trkpt lat="45.0169104" lon="6.8689995"><ele>1881.5</ele><time>2026-04-03T11:00:32.871Z</time></trkpt><trkpt lat="45.0169745" lon="6.8692278"><ele>1874.0</ele><time>2026-04-03T11:00:33.865Z</time></trkpt><trkpt lat="45.0170698" lon="6.8692993"><ele>1866.5</ele><time>2026-04-03T11:00:34.863Z</time></trkpt><trkpt lat="45.017151" lon="6.8694632"><ele>1859.0</ele><time>2026-04-03T11:00:35.863Z</time></trkpt><trkpt lat="45.0172506" lon="6.8696239"><ele>1858.6666666666665</ele><time>2026-04-03T11:00:36.855Z</time></trkpt><trkpt lat="45.0174224" lon="6.8697331"><ele>1858.3333333333335</ele><time>2026-04-03T11:00:37.867Z</time></trkpt><trkpt lat="45.0175349" lon="6.8698474"><ele>1858.0</ele><time>2026-04-03T11:00:38.856Z</time></trkpt><trkpt lat="45.0176594" lon="6.8699125"><ele>1845.3333333333335</ele><time>2026-04-03T11:00:39.865Z</time></trkpt><trkpt lat="45.0178413" lon="6.8697611"><ele>1832.6666666666665</ele><time>2026-04-03T11:00:40.872Z</time></trkpt><trkpt lat="45.0180036" lon="6.8697793"><ele>1820.0</ele><time>2026-04-03T11:00:41.863Z</time></trkpt><trkpt lat="45.0180692" lon="6.8699094"><ele>1820.0</ele><time>2026-04-03T11:00:42.856Z</time></trkpt><trkpt lat="45.0182317" lon="6.8699432"><ele>1820.0</ele><time>2026-04-03T11:00:43.86Z</time></trkpt><trkpt lat="45.0183674" lon="6.8699455"><ele>1820.0</ele><time>2026-04-03T11:00:44.855Z</time></trkpt><trkpt lat="45.0185184" lon="6.8699087"><ele>1812.3333333333333</ele><time>2026-04-03T11:00:45.857Z</time></trkpt><trkpt lat="45.0186454" lon="6.8699258"><ele>1804.6666666666665</ele><time>2026-04-03T11:00:46.857Z</time></trkpt><trkpt lat="45.0188487" lon="6.8700084"><ele>1797.0</ele><time>2026-04-03T11:00:47.858Z</time></trkpt><trkpt lat="45.0190096" lon="6.8700326"><ele>1790.75</ele><time>2026-04-03T11:00:48.863Z</time></trkpt><trkpt lat="45.0191802" lon="6.8699698"><ele>1784.5</ele><time>2026-04-03T11:00:49.863Z</time></trkpt><trkpt lat="45.0192409" lon="6.8699146"><ele>1778.25</ele><time>2026-04-03T11:00:50.862Z</time></trkpt><trkpt lat="45.0193273" lon="6.8698273"><ele>1772.0</ele><time>2026-04-03T11:00:51.861Z</time></trkpt><trkpt lat="45.01942" lon="6.8697389"><ele>1772.0</ele><time>2026-04-03T11:00:52.855Z</time></trkpt><trkpt lat="45.0195048" lon="6.8696427"><ele>1771.9999999999998</ele><time>2026-04-03T11:00:53.86Z</time></trkpt><trkpt lat="45.019604" lon="6.8695355"><ele>1771.9999999999998</ele><time>2026-04-03T11:00:54.874Z</time></trkpt><trkpt lat="45.0196535" lon="6.8694378"><ele>1772.0</ele><time>2026-04-03T11:00:55.854Z</time></trkpt><trkpt lat="45.0197514" lon="6.8693403"><ele>1772.0</ele><time>2026-04-03T11:00:56.864Z</time></trkpt><trkpt lat="45.0198187" lon="6.8692518"><ele>1770.8</ele><time>2026-04-03T11:00:57.868Z</time></trkpt><trkpt lat="45.0198931" lon="6.8691587"><ele>1769.6</ele><time>2026-04-03T11:00:58.871Z</time></trkpt><trkpt lat="45.0200046" lon="6.8691143"><ele>1768.3999999999999</ele><time>2026-04-03T11:00:59.866Z</time></trkpt><trkpt lat="45.0200971" lon="6.8690513"><ele>1767.1999999999998</ele><time>2026-04-03T11:01:00.864Z</time></trkpt><trkpt lat="45.0201933" lon="6.8689875"><ele>1766.0</ele><time>2026-04-03T11:01:01.866Z</time></trkpt><trkpt lat="45.020249" lon="6.8688571"><ele>1762.6</ele><time>2026-04-03T11:01:02.873Z</time></trkpt><trkpt lat="45.0203477" lon="6.8688181"><ele>1759.1999999999998</ele><time>2026-04-03T11:01:03.861Z</time></trkpt><trkpt lat="45.0204413" lon="6.8688183"><ele>1755.8000000000002</ele><time>2026-04-03T11:01:04.866Z</time></trkpt><trkpt lat="45.0205366" lon="6.8688273"><ele>1752.4</ele><time>2026-04-03T11:01:05.862Z</time></trkpt><trkpt lat="45.0206423" lon="6.8688499"><ele>1749.0</ele><time>2026-04-03T11:01:06.866Z</time></trkpt><trkpt lat="45.0207435" lon="6.8688279"><ele>1745.8000000000002</ele><time>2026-04-03T11:01:07.858Z</time></trkpt><trkpt lat="45.0208229" lon="6.8687817"><ele>1742.6000000000001</ele><time>2026-04-03T11:01:08.861Z</time></trkpt><trkpt lat="45.0208961" lon="6.8688361"><ele>1739.4</ele><time>2026-04-03T11:01:09.868Z</time></trkpt><trkpt lat="45.0209617" lon="6.8689092"><ele>1736.2</ele><time>2026-04-03T11:01:10.869Z</time></trkpt><trkpt lat="45.0210401" lon="6.8689669"><ele>1733.0</ele><time>2026-04-03T11:01:11.86Z</time></trkpt><trkpt lat="45.0211561" lon="6.8689602"><ele>1733.0</ele><time>2026-04-03T11:01:12.87Z</time></trkpt><trkpt lat="45.0212517" lon="6.8689432"><ele>1733.0000000000002</ele><time>2026-04-03T11:01:13.863Z</time></trkpt><trkpt lat="45.021376" lon="6.8688921"><ele>1733.0000000000002</ele><time>2026-04-03T11:01:15.867Z</time></trkpt><trkpt lat="45.0214812" lon="6.8688343"><ele>1733.0</ele><time>2026-04-03T11:01:17.865Z</time></trkpt><trkpt lat="45.02154" lon="6.8687921"><ele>1733.0</ele><time>2026-04-03T11:01:19.857Z</time></trkpt><trkpt lat="45.0215192" lon="6.8687059"><ele>1732.9999999999998</ele><time>2026-04-03T11:01:36.872Z</time></trkpt><trkpt lat="45.0214512" lon="6.8686896"><ele>1733.0</ele><time>2026-04-03T11:02:16.868Z</time></trkpt><trkpt lat="45.0213814" lon="6.8687159"><ele>1733.0</ele><time>2026-04-03T11:02:17.872Z</time></trkpt><trkpt lat="45.0213134" lon="6.8687479"><ele>1733.0</ele><time>2026-04-03T11:02:18.853Z</time></trkpt><trkpt lat="45.0212535" lon="6.8687799"><ele>1732.9999999999998</ele><time>2026-04-03T11:02:19.863Z</time></trkpt><trkpt lat="45.021149" lon="6.8688216"><ele>1733.0</ele><time>2026-04-03T11:02:21.87Z</time></trkpt><trkpt lat="45.0210552" lon="6.8688573"><ele>1732.9999999999998</ele><time>2026-04-03T11:02:23.86Z</time></trkpt><trkpt lat="45.0209755" lon="6.8688834"><ele>1733.0</ele><time>2026-04-03T11:02:25.857Z</time></trkpt><trkpt lat="45.0208921" lon="6.868904"><ele>1733.0</ele><time>2026-04-03T11:02:27.863Z</time></trkpt><trkpt lat="45.0208213" lon="6.8689171"><ele>1733.0</ele><time>2026-04-03T11:02:29.861Z</time></trkpt><trkpt lat="45.0207529" lon="6.8689513"><ele>1732.9999999999998</ele><time>2026-04-03T11:02:31.874Z</time></trkpt><trkpt lat="45.0206826" lon="6.8689829"><ele>1733.0</ele><time>2026-04-03T11:02:33.874Z</time></trkpt><trkpt lat="45.0206177" lon="6.8690073"><ele>1735.6666666666665</ele><time>2026-04-03T11:02:35.859Z</time></trkpt><trkpt lat="45.0205386" lon="6.8690401"><ele>1738.3333333333333</ele><time>2026-04-03T11:02:37.867Z</time></trkpt><trkpt lat="45.0204604" lon="6.8690636"><ele>1741.0</ele><time>2026-04-03T11:02:39.862Z</time></trkpt><trkpt lat="45.0203819" lon="6.8690904"><ele>1743.6666666666665</ele><time>2026-04-03T11:02:41.869Z</time></trkpt><trkpt lat="45.020306" lon="6.8691161"><ele>1746.3333333333333</ele><time>2026-04-03T11:02:43.859Z</time></trkpt><trkpt lat="45.0202289" lon="6.8691527"><ele>1749.0</ele><time>2026-04-03T11:02:45.862Z</time></trkpt><trkpt lat="45.020157" lon="6.8691882"><ele>1749.0</ele><time>2026-04-03T11:02:47.864Z</time></trkpt><trkpt lat="45.0200825" lon="6.8692212"><ele>1749.0</ele><time>2026-04-03T11:02:49.858Z</time></trkpt><trkpt lat="45.0200058" lon="6.8692495"><ele>1749.0</ele><time>2026-04-03T11:02:51.858Z</time></trkpt><trkpt lat="45.01993" lon="6.8692652"><ele>1749.0</ele><time>2026-04-03T11:02:53.865Z</time></trkpt><trkpt lat="45.0198516" lon="6.8692877"><ele>1749.0</ele><time>2026-04-03T11:02:55.857Z</time></trkpt><trkpt lat="45.0197776" lon="6.8693094"><ele>1749.0</ele><time>2026-04-03T11:02:57.862Z</time></trkpt><trkpt lat="45.0197029" lon="6.869338"><ele>1752.8333333333333</ele><time>2026-04-03T11:02:59.86Z</time></trkpt><trkpt lat="45.0196311" lon="6.8693661"><ele>1756.6666666666665</ele><time>2026-04-03T11:03:01.865Z</time></trkpt><trkpt lat="45.0195634" lon="6.8694027"><ele>1760.5</ele><time>2026-04-03T11:03:03.866Z</time></trkpt><trkpt lat="45.0194841" lon="6.869418"><ele>1764.3333333333333</ele><time>2026-04-03T11:03:05.857Z</time></trkpt><trkpt lat="45.0194082" lon="6.8694335"><ele>1768.1666666666665</ele><time>2026-04-03T11:03:07.856Z</time></trkpt><trkpt lat="45.0193329" lon="6.8694561"><ele>1772.0</ele><time>2026-04-03T11:03:09.862Z</time></trkpt><trkpt lat="45.0192571" lon="6.8694804"><ele>1771.9999999999998</ele><time>2026-04-03T11:03:11.857Z</time></trkpt><trkpt lat="45.0191824" lon="6.8695078"><ele>1772.0</ele><time>2026-04-03T11:03:13.863Z</time></trkpt><trkpt lat="45.019103" lon="6.8695272"><ele>1772.0</ele><time>2026-04-03T11:03:15.864Z</time></trkpt><trkpt lat="45.0190314" lon="6.869554"><ele>1772.0</ele><time>2026-04-03T11:03:17.863Z</time></trkpt><trkpt lat="45.0189418" lon="6.8695861"><ele>1771.9999999999998</ele><time>2026-04-03T11:03:19.871Z</time></trkpt><trkpt lat="45.0188586" lon="6.8695982"><ele>1772.0</ele><time>2026-04-03T11:03:21.859Z</time></trkpt><trkpt lat="45.0187899" lon="6.8696337"><ele>1775.5714285714287</ele><time>2026-04-03T11:03:23.869Z</time></trkpt><trkpt lat="45.0187217" lon="6.8696581"><ele>1779.1428571428573</ele><time>2026-04-03T11:03:25.853Z</time></trkpt><trkpt lat="45.0186504" lon="6.869686"><ele>1782.7142857142858</ele><time>2026-04-03T11:03:27.866Z</time></trkpt><trkpt lat="45.0185816" lon="6.8697177"><ele>1786.2857142857142</ele><time>2026-04-03T11:03:29.858Z</time></trkpt><trkpt lat="45.0185117" lon="6.8697504"><ele>1789.857142857143</ele><time>2026-04-03T11:03:31.87Z</time></trkpt><trkpt lat="45.0184396" lon="6.8697736"><ele>1793.4285714285713</ele><time>2026-04-03T11:03:33.862Z</time></trkpt><trkpt lat="45.0183648" lon="6.8697969"><ele>1797.0</ele><time>2026-04-03T11:03:35.853Z</time></trkpt><trkpt lat="45.0182896" lon="6.8698221"><ele>1800.8333333333333</ele><time>2026-04-03T11:03:37.863Z</time></trkpt><trkpt lat="45.0182129" lon="6.8698472"><ele>1804.6666666666665</ele><time>2026-04-03T11:03:39.868Z</time></trkpt><trkpt lat="45.0181377" lon="6.869871"><ele>1808.5</ele><time>2026-04-03T11:03:41.863Z</time></trkpt><trkpt lat="45.018065" lon="6.8698966"><ele>1812.3333333333333</ele><time>2026-04-03T11:03:43.863Z</time></trkpt><trkpt lat="45.0179922" lon="6.8699221"><ele>1816.1666666666665</ele><time>2026-04-03T11:03:45.855Z</time></trkpt><trkpt lat="45.0179177" lon="6.8699465"><ele>1820.0</ele><time>2026-04-03T11:03:47.863Z</time></trkpt><trkpt lat="45.0178457" lon="6.8699689"><ele>1820.0</ele><time>2026-04-03T11:03:49.856Z</time></trkpt><trkpt lat="45.017774" lon="6.8699911"><ele>1820.0</ele><time>2026-04-03T11:03:51.865Z</time></trkpt><trkpt lat="45.0177012" lon="6.870016"><ele>1820.0</ele><time>2026-04-03T11:03:53.861Z</time></trkpt><trkpt lat="45.0176297" lon="6.87004"><ele>1820.0</ele><time>2026-04-03T11:03:55.865Z</time></trkpt><trkpt lat="45.0175591" lon="6.8700635"><ele>1820.0</ele><time>2026-04-03T11:03:57.859Z</time></trkpt><trkpt lat="45.0174837" lon="6.8700887"><ele>1820.0</ele><time>2026-04-03T11:03:59.859Z</time></trkpt><trkpt lat="45.0174104" lon="6.8701147"><ele>1820.0</ele><time>2026-04-03T11:04:01.858Z</time></trkpt><trkpt lat="45.017336" lon="6.8701404"><ele>1824.8333333333333</ele><time>2026-04-03T11:04:03.855Z</time></trkpt><trkpt lat="45.0172643" lon="6.8701646"><ele>1829.6666666666665</ele><time>2026-04-03T11:04:05.873Z</time></trkpt><trkpt lat="45.0171905" lon="6.870191"><ele>1834.5</ele><time>2026-04-03T11:04:07.857Z</time></trkpt><trkpt lat="45.0171177" lon="6.8702172"><ele>1839.3333333333335</ele><time>2026-04-03T11:04:09.858Z</time></trkpt><trkpt lat="45.0170439" lon="6.8702432"><ele>1844.1666666666667</ele><time>2026-04-03T11:04:11.864Z</time></trkpt><trkpt lat="45.0169702" lon="6.8702699"><ele>1849.0</ele><time>2026-04-03T11:04:13.863Z</time></trkpt><trkpt lat="45.0168975" lon="6.8702946"><ele>1849.0000000000002</ele><time>2026-04-03T11:04:15.851Z</time></trkpt><trkpt lat="45.0168257" lon="6.8703207"><ele>1849.0</ele><time>2026-04-03T11:04:17.871Z</time></trkpt><trkpt lat="45.0167547" lon="6.8703447"><ele>1849.0000000000002</ele><time>2026-04-03T11:04:19.862Z</time></trkpt><trkpt lat="45.0166847" lon="6.8703688"><ele>1849.0000000000002</ele><time>2026-04-03T11:04:21.858Z</time></trkpt><trkpt lat="45.0166094" lon="6.8703946"><ele>1849.0</ele><time>2026-04-03T11:04:23.857Z</time></trkpt><trkpt lat="45.0165373" lon="6.8704185"><ele>1849.0000000000002</ele><time>2026-04-03T11:04:25.864Z</time></trkpt><trkpt lat="45.016465" lon="6.8704446"><ele>1849.0000000000002</ele><time>2026-04-03T11:04:27.86Z</time></trkpt><trkpt lat="45.0163925" lon="6.870471"><ele>1854.2857142857147</ele><time>2026-04-03T11:04:29.855Z</time></trkpt><trkpt lat="45.0163206" lon="6.8704941"><ele>1859.5714285714287</ele><time>2026-04-03T11:04:31.861Z</time></trkpt><trkpt lat="45.0162491" lon="6.8705189"><ele>1864.8571428571431</ele><time>2026-04-03T11:04:33.864Z</time></trkpt><trkpt lat="45.0161773" lon="6.8705446"><ele>1870.1428571428573</ele><time>2026-04-03T11:04:35.87Z</time></trkpt><trkpt lat="45.0161056" lon="6.8705699"><ele>1875.4285714285716</ele><time>2026-04-03T11:04:37.864Z</time></trkpt><trkpt lat="45.0160351" lon="6.8705944"><ele>1880.7142857142858</ele><time>2026-04-03T11:04:39.866Z</time></trkpt><trkpt lat="45.0159659" lon="6.8706174"><ele>1886.0</ele><time>2026-04-03T11:04:41.861Z</time></trkpt><trkpt lat="45.0158903" lon="6.8706443"><ele>1889.6666666666665</ele><time>2026-04-03T11:04:43.87Z</time></trkpt><trkpt lat="45.0158179" lon="6.8706712"><ele>1893.3333333333333</ele><time>2026-04-03T11:04:45.855Z</time></trkpt><trkpt lat="45.0157445" lon="6.8706981"><ele>1897.0</ele><time>2026-04-03T11:04:47.869Z</time></trkpt><trkpt lat="45.015671" lon="6.8707274"><ele>1900.6666666666665</ele><time>2026-04-03T11:04:49.858Z</time></trkpt><trkpt lat="45.0155989" lon="6.8707539"><ele>1904.3333333333333</ele><time>2026-04-03T11:04:51.863Z</time></trkpt><trkpt lat="45.0155272" lon="6.8707788"><ele>1908.0</ele><time>2026-04-03T11:04:53.854Z</time></trkpt><trkpt lat="45.0154544" lon="6.8708022"><ele>1908.0</ele><time>2026-04-03T11:04:55.863Z</time></trkpt><trkpt lat="45.015383" lon="6.8708303"><ele>1908.0</ele><time>2026-04-03T11:04:57.865Z</time></trkpt><trkpt lat="45.0153098" lon="6.870856"><ele>1908.0</ele><time>2026-04-03T11:04:59.864Z</time></trkpt><trkpt lat="45.0152316" lon="6.8708841"><ele>1908.0</ele><time>2026-04-03T11:05:01.864Z</time></trkpt><trkpt lat="45.0151627" lon="6.8709076"><ele>1908.0</ele><time>2026-04-03T11:05:03.864Z</time></trkpt><trkpt lat="45.0150872" lon="6.8709335"><ele>1908.0</ele><time>2026-04-03T11:05:06.861Z</time></trkpt><trkpt lat="45.0150131" lon="6.8709616"><ele>1909.8571428571427</ele><time>2026-04-03T11:05:10.863Z</time></trkpt><trkpt lat="45.0149358" lon="6.870989"><ele>1911.7142857142856</ele><time>2026-04-03T11:05:14.868Z</time></trkpt><trkpt lat="45.0148633" lon="6.8710172"><ele>1913.5714285714284</ele><time>2026-04-03T11:05:18.873Z</time></trkpt><trkpt lat="45.0147907" lon="6.8710414"><ele>1915.4285714285716</ele><time>2026-04-03T11:05:22.867Z</time></trkpt><trkpt lat="45.014729" lon="6.871063"><ele>1917.2857142857144</ele><time>2026-04-03T11:05:25.869Z</time></trkpt><trkpt lat="45.0146622" lon="6.8710864"><ele>1919.1428571428573</ele><time>2026-04-03T11:05:28.868Z</time></trkpt><trkpt lat="45.0145825" lon="6.8711152"><ele>1921.0</ele><time>2026-04-03T11:05:31.866Z</time></trkpt><trkpt lat="45.0144991" lon="6.8711439"><ele>1921.0</ele><time>2026-04-03T11:05:34.861Z</time></trkpt><trkpt lat="45.0144377" lon="6.871164"><ele>1921.0000000000002</ele><time>2026-04-03T11:05:36.863Z</time></trkpt><trkpt lat="45.0143686" lon="6.8711887"><ele>1921.0</ele><time>2026-04-03T11:05:38.852Z</time></trkpt><trkpt lat="45.0142924" lon="6.8712161"><ele>1921.0</ele><time>2026-04-03T11:05:40.855Z</time></trkpt><trkpt lat="45.0142177" lon="6.871242"><ele>1921.0000000000002</ele><time>2026-04-03T11:05:42.858Z</time></trkpt><trkpt lat="45.0141446" lon="6.8712673"><ele>1921.0</ele><time>2026-04-03T11:05:44.873Z</time></trkpt><trkpt lat="45.0140721" lon="6.8712935"><ele>1921.0</ele><time>2026-04-03T11:05:46.87Z</time></trkpt><trkpt lat="45.0139981" lon="6.8713177"><ele>1925.6666666666667</ele><time>2026-04-03T11:05:48.861Z</time></trkpt><trkpt lat="45.0139235" lon="6.8713422"><ele>1930.3333333333335</ele><time>2026-04-03T11:05:50.854Z</time></trkpt><trkpt lat="45.0138509" lon="6.8713674"><ele>1935.0</ele><time>2026-04-03T11:05:52.863Z</time></trkpt><trkpt lat="45.0137783" lon="6.8713943"><ele>1939.6666666666665</ele><time>2026-04-03T11:05:54.869Z</time></trkpt><trkpt lat="45.0137017" lon="6.8714227"><ele>1944.3333333333333</ele><time>2026-04-03T11:05:56.859Z</time></trkpt><trkpt lat="45.0136274" lon="6.8714497"><ele>1949.0</ele><time>2026-04-03T11:05:58.858Z</time></trkpt><trkpt lat="45.0135527" lon="6.8714778"><ele>1948.9999999999998</ele><time>2026-04-03T11:06:00.858Z</time></trkpt><trkpt lat="45.0134774" lon="6.8715042"><ele>1949.0</ele><time>2026-04-03T11:06:02.861Z</time></trkpt><trkpt lat="45.0134023" lon="6.8715307"><ele>1949.0</ele><time>2026-04-03T11:06:04.866Z</time></trkpt><trkpt lat="45.0133265" lon="6.8715566"><ele>1949.0</ele><time>2026-04-03T11:06:06.857Z</time></trkpt><trkpt lat="45.0132535" lon="6.8715836"><ele>1948.9999999999998</ele><time>2026-04-03T11:06:08.872Z</time></trkpt><trkpt lat="45.0131797" lon="6.8716105"><ele>1949.0</ele><time>2026-04-03T11:06:10.867Z</time></trkpt><trkpt lat="45.0131047" lon="6.8716359"><ele>1952.1666666666665</ele><time>2026-04-03T11:06:12.87Z</time></trkpt><trkpt lat="45.0130298" lon="6.8716607"><ele>1955.3333333333333</ele><time>2026-04-03T11:06:14.868Z</time></trkpt><trkpt lat="45.012956" lon="6.871685"><ele>1958.5</ele><time>2026-04-03T11:06:16.862Z</time></trkpt><trkpt lat="45.0128816" lon="6.8717099"><ele>1961.6666666666665</ele><time>2026-04-03T11:06:18.861Z</time></trkpt><trkpt lat="45.0128056" lon="6.871734"><ele>1964.8333333333333</ele><time>2026-04-03T11:06:20.859Z</time></trkpt><trkpt lat="45.0127313" lon="6.8717579"><ele>1968.0</ele><time>2026-04-03T11:06:22.854Z</time></trkpt><trkpt lat="45.0126559" lon="6.8717839"><ele>1968.3333333333333</ele><time>2026-04-03T11:06:24.874Z</time></trkpt><trkpt lat="45.0125812" lon="6.8718101"><ele>1968.6666666666665</ele><time>2026-04-03T11:06:26.854Z</time></trkpt><trkpt lat="45.0125067" lon="6.8718372"><ele>1969.0</ele><time>2026-04-03T11:06:28.86Z</time></trkpt><trkpt lat="45.0124332" lon="6.8718644"><ele>1969.3333333333333</ele><time>2026-04-03T11:06:30.869Z</time></trkpt><trkpt lat="45.0123589" lon="6.8718931"><ele>1969.6666666666665</ele><time>2026-04-03T11:06:32.869Z</time></trkpt><trkpt lat="45.0122851" lon="6.8719204"><ele>1970.0</ele><time>2026-04-03T11:06:34.852Z</time></trkpt><trkpt lat="45.0122121" lon="6.871946"><ele>1971.4999999999998</ele><time>2026-04-03T11:06:36.863Z</time></trkpt><trkpt lat="45.0121392" lon="6.8719723"><ele>1973.0</ele><time>2026-04-03T11:06:38.87Z</time></trkpt><trkpt lat="45.0120644" lon="6.8719992"><ele>1974.5</ele><time>2026-04-03T11:06:40.866Z</time></trkpt><trkpt lat="45.0119892" lon="6.8720242"><ele>1976.0</ele><time>2026-04-03T11:06:42.856Z</time></trkpt><trkpt lat="45.0119132" lon="6.8720494"><ele>1977.4999999999998</ele><time>2026-04-03T11:06:44.86Z</time></trkpt><trkpt lat="45.0118368" lon="6.8720747"><ele>1979.0</ele><time>2026-04-03T11:06:46.862Z</time></trkpt><trkpt lat="45.0117603" lon="6.8721004"><ele>1978.9999999999998</ele><time>2026-04-03T11:06:48.857Z</time></trkpt><trkpt lat="45.0116844" lon="6.872126"><ele>1979.0</ele><time>2026-04-03T11:06:50.866Z</time></trkpt><trkpt lat="45.0116087" lon="6.8721544"><ele>1979.0</ele><time>2026-04-03T11:06:52.858Z</time></trkpt><trkpt lat="45.0115339" lon="6.8721808"><ele>1979.0</ele><time>2026-04-03T11:06:54.865Z</time></trkpt><trkpt lat="45.0114576" lon="6.8722068"><ele>1978.9999999999998</ele><time>2026-04-03T11:06:56.864Z</time></trkpt><trkpt lat="45.011382" lon="6.8722338"><ele>1979.0</ele><time>2026-04-03T11:06:58.863Z</time></trkpt><trkpt lat="45.0113052" lon="6.8722617"><ele>1980.4999999999998</ele><time>2026-04-03T11:07:00.867Z</time></trkpt><trkpt lat="45.0112297" lon="6.8722896"><ele>1982.0</ele><time>2026-04-03T11:07:02.853Z</time></trkpt><trkpt lat="45.011155" lon="6.8723152"><ele>1983.5</ele><time>2026-04-03T11:07:04.866Z</time></trkpt><trkpt lat="45.0110797" lon="6.8723407"><ele>1985.0</ele><time>2026-04-03T11:07:06.862Z</time></trkpt><trkpt lat="45.0110034" lon="6.8723673"><ele>1986.4999999999998</ele><time>2026-04-03T11:07:08.861Z</time></trkpt><trkpt lat="45.0109281" lon="6.8723941"><ele>1988.0</ele><time>2026-04-03T11:07:10.868Z</time></trkpt><trkpt lat="45.0108506" lon="6.8724217"><ele>1993.142857142857</ele><time>2026-04-03T11:07:12.862Z</time></trkpt><trkpt lat="45.010774" lon="6.8724494"><ele>1998.2857142857142</ele><time>2026-04-03T11:07:14.858Z</time></trkpt><trkpt lat="45.0107014" lon="6.872477"><ele>2003.4285714285716</ele><time>2026-04-03T11:07:16.863Z</time></trkpt><trkpt lat="45.0106371" lon="6.8724912"><ele>2008.5714285714287</ele><time>2026-04-03T11:07:18.87Z</time></trkpt><trkpt lat="45.0105751" lon="6.8725071"><ele>2013.7142857142858</ele><time>2026-04-03T11:07:20.86Z</time></trkpt><trkpt lat="45.0105009" lon="6.8725371"><ele>2018.8571428571431</ele><time>2026-04-03T11:07:22.872Z</time></trkpt><trkpt lat="45.0104339" lon="6.8725635"><ele>2024.0000000000002</ele><time>2026-04-03T11:07:24.863Z</time></trkpt><trkpt lat="45.0103633" lon="6.8725899"><ele>2024.0000000000002</ele><time>2026-04-03T11:07:26.86Z</time></trkpt><trkpt lat="45.0102983" lon="6.8726161"><ele>2024.0</ele><time>2026-04-03T11:07:28.859Z</time></trkpt><trkpt lat="45.0102327" lon="6.8726394"><ele>2024.0000000000002</ele><time>2026-04-03T11:07:30.857Z</time></trkpt><trkpt lat="45.0101644" lon="6.8726648"><ele>2024.0000000000002</ele><time>2026-04-03T11:07:32.864Z</time></trkpt><trkpt lat="45.0100966" lon="6.8726862"><ele>2024.0</ele><time>2026-04-03T11:07:34.861Z</time></trkpt><trkpt lat="45.0100296" lon="6.8727083"><ele>2024.0000000000002</ele><time>2026-04-03T11:07:36.857Z</time></trkpt><trkpt lat="45.0099661" lon="6.872727"><ele>2024.0000000000002</ele><time>2026-04-03T11:07:38.869Z</time></trkpt><trkpt lat="45.009902" lon="6.8727456"><ele>2029.714285714286</ele><time>2026-04-03T11:07:40.864Z</time></trkpt><trkpt lat="45.0098385" lon="6.8727669"><ele>2035.4285714285716</ele><time>2026-04-03T11:07:42.87Z</time></trkpt><trkpt lat="45.009763" lon="6.8727954"><ele>2041.142857142857</ele><time>2026-04-03T11:07:44.862Z</time></trkpt><trkpt lat="45.0096937" lon="6.8728217"><ele>2046.857142857143</ele><time>2026-04-03T11:07:46.858Z</time></trkpt><trkpt lat="45.0096216" lon="6.8728492"><ele>2052.5714285714284</ele><time>2026-04-03T11:07:48.858Z</time></trkpt><trkpt lat="45.0095505" lon="6.8728713"><ele>2058.285714285714</ele><time>2026-04-03T11:07:50.869Z</time></trkpt><trkpt lat="45.0094834" lon="6.872892"><ele>2064.0</ele><time>2026-04-03T11:07:52.854Z</time></trkpt><trkpt lat="45.0094169" lon="6.8729152"><ele>2063.9999999999995</ele><time>2026-04-03T11:07:54.85Z</time></trkpt><trkpt lat="45.0093475" lon="6.8729409"><ele>2064.0</ele><time>2026-04-03T11:07:56.856Z</time></trkpt><trkpt lat="45.009279" lon="6.8729675"><ele>2064.0</ele><time>2026-04-03T11:07:58.87Z</time></trkpt><trkpt lat="45.009211" lon="6.8729942"><ele>2064.0</ele><time>2026-04-03T11:08:00.868Z</time></trkpt><trkpt lat="45.0091441" lon="6.873022"><ele>2064.0</ele><time>2026-04-03T11:08:02.855Z</time></trkpt><trkpt lat="45.0090785" lon="6.8730465"><ele>2063.9999999999995</ele><time>2026-04-03T11:08:04.86Z</time></trkpt><trkpt lat="45.0090126" lon="6.8730704"><ele>2064.0</ele><time>2026-04-03T11:08:06.868Z</time></trkpt><trkpt lat="45.008946" lon="6.8730969"><ele>2070.142857142857</ele><time>2026-04-03T11:08:08.863Z</time></trkpt><trkpt lat="45.0088829" lon="6.8731203"><ele>2076.285714285714</ele><time>2026-04-03T11:08:10.854Z</time></trkpt><trkpt lat="45.0088138" lon="6.8731435"><ele>2082.4285714285716</ele><time>2026-04-03T11:08:12.869Z</time></trkpt><trkpt lat="45.0087434" lon="6.8731672"><ele>2088.5714285714284</ele><time>2026-04-03T11:08:14.864Z</time></trkpt><trkpt lat="45.0086699" lon="6.873195"><ele>2094.714285714286</ele><time>2026-04-03T11:08:16.864Z</time></trkpt><trkpt lat="45.0086011" lon="6.8732228"><ele>2100.8571428571427</ele><time>2026-04-03T11:08:18.855Z</time></trkpt><trkpt lat="45.0085302" lon="6.8732511"><ele>2107.0</ele><time>2026-04-03T11:08:20.854Z</time></trkpt><trkpt lat="45.0084632" lon="6.8732764"><ele>2107.0</ele><time>2026-04-03T11:08:22.856Z</time></trkpt><trkpt lat="45.0083932" lon="6.873303"><ele>2107.0</ele><time>2026-04-03T11:08:24.858Z</time></trkpt><trkpt lat="45.0083166" lon="6.8733329"><ele>2107.0</ele><time>2026-04-03T11:08:26.865Z</time></trkpt><trkpt lat="45.0082447" lon="6.8733611"><ele>2107.0</ele><time>2026-04-03T11:08:28.859Z</time></trkpt><trkpt lat="45.0081728" lon="6.8733869"><ele>2107.0</ele><time>2026-04-03T11:08:30.854Z</time></trkpt><trkpt lat="45.0081013" lon="6.8734095"><ele>2107.0</ele><time>2026-04-03T11:08:32.855Z</time></trkpt><trkpt lat="45.0080292" lon="6.8734311"><ele>2107.0</ele><time>2026-04-03T11:08:34.863Z</time></trkpt><trkpt lat="45.0079568" lon="6.8734555"><ele>2110.666666666667</ele><time>2026-04-03T11:08:36.871Z</time></trkpt><trkpt lat="45.0078863" lon="6.87348"><ele>2114.3333333333335</ele><time>2026-04-03T11:08:38.866Z</time></trkpt><trkpt lat="45.0078087" lon="6.8735076"><ele>2118.0</ele><time>2026-04-03T11:08:40.861Z</time></trkpt><trkpt lat="45.0077327" lon="6.8735341"><ele>2121.6666666666665</ele><time>2026-04-03T11:08:42.867Z</time></trkpt><trkpt lat="45.0076563" lon="6.8735596"><ele>2125.333333333333</ele><time>2026-04-03T11:08:44.867Z</time></trkpt><trkpt lat="45.0075808" lon="6.8735863"><ele>2129.0</ele><time>2026-04-03T11:08:46.859Z</time></trkpt><trkpt lat="45.0075068" lon="6.8736101"><ele>2131.833333333333</ele><time>2026-04-03T11:08:48.858Z</time></trkpt><trkpt lat="45.0074318" lon="6.8736344"><ele>2134.6666666666665</ele><time>2026-04-03T11:08:50.872Z</time></trkpt><trkpt lat="45.0073566" lon="6.8736632"><ele>2137.5</ele><time>2026-04-03T11:08:52.867Z</time></trkpt><trkpt lat="45.0072823" lon="6.8736896"><ele>2140.3333333333335</ele><time>2026-04-03T11:08:54.854Z</time></trkpt><trkpt lat="45.0072078" lon="6.8737178"><ele>2143.166666666667</ele><time>2026-04-03T11:08:56.859Z</time></trkpt><trkpt lat="45.0071312" lon="6.8737466"><ele>2146.0</ele><time>2026-04-03T11:08:58.855Z</time></trkpt><trkpt lat="45.0070564" lon="6.873775"><ele>2146.0</ele><time>2026-04-03T11:09:00.864Z</time></trkpt><trkpt lat="45.0069809" lon="6.8738001"><ele>2146.0</ele><time>2026-04-03T11:09:02.865Z</time></trkpt><trkpt lat="45.0069066" lon="6.8738212"><ele>2146.0</ele><time>2026-04-03T11:09:04.861Z</time></trkpt><trkpt lat="45.0068314" lon="6.8738444"><ele>2146.0</ele><time>2026-04-03T11:09:06.871Z</time></trkpt><trkpt lat="45.0067573" lon="6.8738688"><ele>2146.0</ele><time>2026-04-03T11:09:08.858Z</time></trkpt><trkpt lat="45.0066821" lon="6.8738928"><ele>2146.0</ele><time>2026-04-03T11:09:10.862Z</time></trkpt><trkpt lat="45.0066079" lon="6.8739166"><ele>2150.4285714285716</ele><time>2026-04-03T11:09:12.86Z</time></trkpt><trkpt lat="45.0065345" lon="6.8739451"><ele>2154.8571428571427</ele><time>2026-04-03T11:09:14.861Z</time></trkpt><trkpt lat="45.0064609" lon="6.873974"><ele>2159.285714285714</ele><time>2026-04-03T11:09:16.859Z</time></trkpt><trkpt lat="45.0063861" lon="6.8740041"><ele>2163.714285714286</ele><time>2026-04-03T11:09:18.86Z</time></trkpt><trkpt lat="45.0063149" lon="6.8740322"><ele>2168.142857142857</ele><time>2026-04-03T11:09:20.867Z</time></trkpt><trkpt lat="45.0062447" lon="6.8740574"><ele>2172.5714285714284</ele><time>2026-04-03T11:09:22.858Z</time></trkpt><trkpt lat="45.0061751" lon="6.8740831"><ele>2177.0</ele><time>2026-04-03T11:09:24.861Z</time></trkpt><trkpt lat="45.0061062" lon="6.8741095"><ele>2177.0</ele><time>2026-04-03T11:09:26.862Z</time></trkpt><trkpt lat="45.0060389" lon="6.8741328"><ele>2177.0</ele><time>2026-04-03T11:09:28.86Z</time></trkpt><trkpt lat="45.0059704" lon="6.8741544"><ele>2177.0</ele><time>2026-04-03T11:09:30.866Z</time></trkpt><trkpt lat="45.0059039" lon="6.8741746"><ele>2177.0</ele><time>2026-04-03T11:09:32.865Z</time></trkpt><trkpt lat="45.0058366" lon="6.8741982"><ele>2177.0</ele><time>2026-04-03T11:09:34.863Z</time></trkpt><trkpt lat="45.005769" lon="6.8742224"><ele>2177.0</ele><time>2026-04-03T11:09:36.853Z</time></trkpt><trkpt lat="45.005698" lon="6.8742491"><ele>2177.0</ele><time>2026-04-03T11:09:38.861Z</time></trkpt><trkpt lat="45.0056265" lon="6.8742747"><ele>2182.714285714286</ele><time>2026-04-03T11:09:40.852Z</time></trkpt><trkpt lat="45.0055589" lon="6.8742963"><ele>2188.4285714285716</ele><time>2026-04-03T11:09:42.872Z</time></trkpt><trkpt lat="45.0054892" lon="6.8743184"><ele>2194.142857142857</ele><time>2026-04-03T11:09:44.86Z</time></trkpt><trkpt lat="45.0054204" lon="6.8743405"><ele>2199.857142857143</ele><time>2026-04-03T11:09:46.863Z</time></trkpt><trkpt lat="45.005351" lon="6.8743657"><ele>2205.5714285714284</ele><time>2026-04-03T11:09:48.87Z</time></trkpt><trkpt lat="45.0052823" lon="6.8743911"><ele>2211.285714285714</ele><time>2026-04-03T11:09:50.868Z</time></trkpt><trkpt lat="45.0052141" lon="6.8744174"><ele>2217.0</ele><time>2026-04-03T11:09:52.862Z</time></trkpt><trkpt lat="45.0051464" lon="6.8744423"><ele>2217.0</ele><time>2026-04-03T11:09:54.868Z</time></trkpt><trkpt lat="45.0050791" lon="6.874462"><ele>2217.0</ele><time>2026-04-03T11:09:56.868Z</time></trkpt><trkpt lat="45.0050118" lon="6.8744828"><ele>2217.0</ele><time>2026-04-03T11:09:58.86Z</time></trkpt><trkpt lat="45.0049444" lon="6.8745059"><ele>2217.0</ele><time>2026-04-03T11:10:00.865Z</time></trkpt><trkpt lat="45.0048697" lon="6.874529"><ele>2217.0</ele><time>2026-04-03T11:10:02.869Z</time></trkpt><trkpt lat="45.0047967" lon="6.8745525"><ele>2217.0</ele><time>2026-04-03T11:10:04.867Z</time></trkpt><trkpt lat="45.0047225" lon="6.8745792"><ele>2217.0</ele><time>2026-04-03T11:10:06.866Z</time></trkpt><trkpt lat="45.004651" lon="6.874606"><ele>2220.714285714286</ele><time>2026-04-03T11:10:08.865Z</time></trkpt><trkpt lat="45.004579" lon="6.8746329"><ele>2224.4285714285716</ele><time>2026-04-03T11:10:10.873Z</time></trkpt><trkpt lat="45.0045063" lon="6.8746601"><ele>2228.1428571428573</ele><time>2026-04-03T11:10:12.871Z</time></trkpt><trkpt lat="45.0044349" lon="6.8746872"><ele>2231.857142857143</ele><time>2026-04-03T11:10:14.851Z</time></trkpt><trkpt lat="45.0043625" lon="6.8747124"><ele>2235.571428571429</ele><time>2026-04-03T11:10:16.868Z</time></trkpt><trkpt lat="45.0042917" lon="6.8747363"><ele>2239.285714285714</ele><time>2026-04-03T11:10:18.859Z</time></trkpt><trkpt lat="45.0042209" lon="6.8747597"><ele>2243.0</ele><time>2026-04-03T11:10:20.873Z</time></trkpt><trkpt lat="45.004151" lon="6.8747827"><ele>2245.714285714286</ele><time>2026-04-03T11:10:22.862Z</time></trkpt><trkpt lat="45.0040815" lon="6.8748047"><ele>2248.4285714285716</ele><time>2026-04-03T11:10:24.854Z</time></trkpt><trkpt lat="45.0040122" lon="6.8748287"><ele>2251.1428571428573</ele><time>2026-04-03T11:10:26.862Z</time></trkpt><trkpt lat="45.0039433" lon="6.8748536"><ele>2253.857142857143</ele><time>2026-04-03T11:10:28.871Z</time></trkpt><trkpt lat="45.0038741" lon="6.8748781"><ele>2256.5714285714284</ele><time>2026-04-03T11:10:30.861Z</time></trkpt><trkpt lat="45.0038058" lon="6.8749021"><ele>2259.2857142857147</ele><time>2026-04-03T11:10:32.867Z</time></trkpt><trkpt lat="45.0037335" lon="6.874926"><ele>2262.0</ele><time>2026-04-03T11:10:34.87Z</time></trkpt><trkpt lat="45.0036592" lon="6.8749543"><ele>2262.0</ele><time>2026-04-03T11:10:36.855Z</time></trkpt><trkpt lat="45.0035822" lon="6.8749813"><ele>2262.0</ele><time>2026-04-03T11:10:38.867Z</time></trkpt><trkpt lat="45.0035044" lon="6.875006"><ele>2262.0</ele><time>2026-04-03T11:10:40.865Z</time></trkpt><trkpt lat="45.0034291" lon="6.8750338"><ele>2262.0</ele><time>2026-04-03T11:10:42.865Z</time></trkpt><trkpt lat="45.0033634" lon="6.8750533"><ele>2262.0</ele><time>2026-04-03T11:10:46.867Z</time></trkpt><trkpt lat="45.003263" lon="6.8751346"><ele>2262.0</ele><time>2026-04-03T11:10:51.871Z</time></trkpt><trkpt lat="45.0032035" lon="6.8752221"><ele>2264.6666666666665</ele><time>2026-04-03T11:10:54.861Z</time></trkpt><trkpt lat="45.0031665" lon="6.8752972"><ele>2267.3333333333335</ele><time>2026-04-03T11:10:57.864Z</time></trkpt><trkpt lat="45.0031296" lon="6.8753755"><ele>2270.0</ele><time>2026-04-03T11:11:03.861Z</time></trkpt><trkpt lat="45.003083" lon="6.8754534"><ele>2272.666666666667</ele><time>2026-04-03T11:11:12.863Z</time></trkpt><trkpt lat="45.0030559" lon="6.8755506"><ele>2275.3333333333335</ele><time>2026-04-03T11:11:16.861Z</time></trkpt><trkpt lat="45.0030631" lon="6.8756796"><ele>2278.0</ele><time>2026-04-03T11:11:19.854Z</time></trkpt><trkpt lat="45.0031228" lon="6.8758016"><ele>2278.0</ele><time>2026-04-03T11:11:21.867Z</time></trkpt><trkpt lat="45.0031813" lon="6.8758767"><ele>2278.0</ele><time>2026-04-03T11:11:22.863Z</time></trkpt><trkpt lat="45.0032329" lon="6.8759335"><ele>2278.0</ele><time>2026-04-03T11:11:23.867Z</time></trkpt><trkpt lat="45.0032957" lon="6.8760062"><ele>2278.0</ele><time>2026-04-03T11:11:24.857Z</time></trkpt><trkpt lat="45.0033127" lon="6.876149"><ele>2278.0</ele><time>2026-04-03T11:11:25.869Z</time></trkpt><trkpt lat="45.0033623" lon="6.8762505"><ele>2278.0</ele><time>2026-04-03T11:11:26.862Z</time></trkpt><trkpt lat="45.0034275" lon="6.8763099"><ele>2271.0</ele><time>2026-04-03T11:11:27.865Z</time></trkpt><trkpt lat="45.0035214" lon="6.8763508"><ele>2264.0</ele><time>2026-04-03T11:11:28.86Z</time></trkpt><trkpt lat="45.0036761" lon="6.8763934"><ele>2257.0</ele><time>2026-04-03T11:11:29.867Z</time></trkpt><trkpt lat="45.0037678" lon="6.8765063"><ele>2250.0</ele><time>2026-04-03T11:11:30.863Z</time></trkpt><trkpt lat="45.0038856" lon="6.8766351"><ele>2250.0</ele><time>2026-04-03T11:11:31.864Z</time></trkpt><trkpt lat="45.0039887" lon="6.8767531"><ele>2250.0</ele><time>2026-04-03T11:11:32.86Z</time></trkpt><trkpt lat="45.0040511" lon="6.8768871"><ele>2250.0</ele><time>2026-04-03T11:11:33.863Z</time></trkpt><trkpt lat="45.0041268" lon="6.8770309"><ele>2250.0</ele><time>2026-04-03T11:11:34.866Z</time></trkpt><trkpt lat="45.0041938" lon="6.8771932"><ele>2245.5</ele><time>2026-04-03T11:11:35.874Z</time></trkpt><trkpt lat="45.0042499" lon="6.8773576"><ele>2241.0</ele><time>2026-04-03T11:11:36.859Z</time></trkpt><trkpt lat="45.0043085" lon="6.8775309"><ele>2236.5</ele><time>2026-04-03T11:11:37.873Z</time></trkpt><trkpt lat="45.0043317" lon="6.8777113"><ele>2232.0</ele><time>2026-04-03T11:11:38.854Z</time></trkpt><trkpt lat="45.0043101" lon="6.877858"><ele>2229.0</ele><time>2026-04-03T11:11:39.865Z</time></trkpt><trkpt lat="45.0043508" lon="6.8779908"><ele>2226.0</ele><time>2026-04-03T11:11:40.862Z</time></trkpt><trkpt lat="45.0043699" lon="6.8781533"><ele>2223.0</ele><time>2026-04-03T11:11:41.851Z</time></trkpt><trkpt lat="45.0043369" lon="6.8783626"><ele>2220.0</ele><time>2026-04-03T11:11:42.856Z</time></trkpt><trkpt lat="45.0044219" lon="6.8785094"><ele>2217.25</ele><time>2026-04-03T11:11:43.859Z</time></trkpt><trkpt lat="45.0044861" lon="6.8786742"><ele>2214.5</ele><time>2026-04-03T11:11:44.861Z</time></trkpt><trkpt lat="45.0046134" lon="6.8787685"><ele>2211.75</ele><time>2026-04-03T11:11:45.853Z</time></trkpt><trkpt lat="45.004678" lon="6.8789393"><ele>2209.0</ele><time>2026-04-03T11:11:46.866Z</time></trkpt><trkpt lat="45.0047643" lon="6.8790424"><ele>2209.0</ele><time>2026-04-03T11:11:47.858Z</time></trkpt><trkpt lat="45.0048748" lon="6.8791597"><ele>2209.0</ele><time>2026-04-03T11:11:48.866Z</time></trkpt><trkpt lat="45.0049571" lon="6.8792372"><ele>2209.0</ele><time>2026-04-03T11:11:49.863Z</time></trkpt><trkpt lat="45.005127" lon="6.8792833"><ele>2209.0</ele><time>2026-04-03T11:11:50.87Z</time></trkpt><trkpt lat="45.0052328" lon="6.8793951"><ele>2205.25</ele><time>2026-04-03T11:11:51.86Z</time></trkpt><trkpt lat="45.0053482" lon="6.8794546"><ele>2201.5</ele><time>2026-04-03T11:11:52.862Z</time></trkpt><trkpt lat="45.005465" lon="6.8794692"><ele>2197.75</ele><time>2026-04-03T11:11:53.86Z</time></trkpt><trkpt lat="45.0056167" lon="6.8794716"><ele>2194.0</ele><time>2026-04-03T11:11:54.867Z</time></trkpt><trkpt lat="45.0057359" lon="6.8794864"><ele>2189.25</ele><time>2026-04-03T11:11:55.863Z</time></trkpt><trkpt lat="45.0058462" lon="6.8794001"><ele>2184.5</ele><time>2026-04-03T11:11:56.852Z</time></trkpt><trkpt lat="45.0059534" lon="6.8793801"><ele>2179.75</ele><time>2026-04-03T11:11:57.869Z</time></trkpt><trkpt lat="45.0060682" lon="6.8793295"><ele>2175.0</ele><time>2026-04-03T11:11:58.862Z</time></trkpt><trkpt lat="45.0061731" lon="6.8793057"><ele>2175.0</ele><time>2026-04-03T11:11:59.865Z</time></trkpt><trkpt lat="45.0062815" lon="6.8792686"><ele>2175.0</ele><time>2026-04-03T11:12:00.851Z</time></trkpt><trkpt lat="45.0063787" lon="6.8791365"><ele>2175.0</ele><time>2026-04-03T11:12:01.856Z</time></trkpt><trkpt lat="45.0065076" lon="6.8791864"><ele>2175.0</ele><time>2026-04-03T11:12:02.858Z</time></trkpt><trkpt lat="45.0065731" lon="6.8792134"><ele>2175.0</ele><time>2026-04-03T11:12:03.861Z</time></trkpt><trkpt lat="45.0066631" lon="6.8792489"><ele>2169.5</ele><time>2026-04-03T11:12:04.859Z</time></trkpt><trkpt lat="45.0067357" lon="6.8794592"><ele>2164.0</ele><time>2026-04-03T11:12:05.856Z</time></trkpt><trkpt lat="45.0068263" lon="6.8795396"><ele>2158.5</ele><time>2026-04-03T11:12:06.867Z</time></trkpt><trkpt lat="45.0069456" lon="6.8794964"><ele>2153.0</ele><time>2026-04-03T11:12:07.86Z</time></trkpt><trkpt lat="45.0070565" lon="6.8795613"><ele>2153.0</ele><time>2026-04-03T11:12:08.863Z</time></trkpt><trkpt lat="45.0071869" lon="6.8796104"><ele>2153.0</ele><time>2026-04-03T11:12:09.872Z</time></trkpt><trkpt lat="45.0073068" lon="6.8796894"><ele>2153.0</ele><time>2026-04-03T11:12:10.848Z</time></trkpt><trkpt lat="45.0074239" lon="6.8797716"><ele>2153.0</ele><time>2026-04-03T11:12:11.866Z</time></trkpt><trkpt lat="45.0075111" lon="6.8800335"><ele>2139.6666666666665</ele><time>2026-04-03T11:12:12.856Z</time></trkpt><trkpt lat="45.0076626" lon="6.8802286"><ele>2126.3333333333335</ele><time>2026-04-03T11:12:13.871Z</time></trkpt><trkpt lat="45.0078259" lon="6.8803748"><ele>2113.0</ele><time>2026-04-03T11:12:14.859Z</time></trkpt><trkpt lat="45.0080392" lon="6.8805212"><ele>2113.0</ele><time>2026-04-03T11:12:15.853Z</time></trkpt><trkpt lat="45.0081437" lon="6.8806942"><ele>2113.0</ele><time>2026-04-03T11:12:16.86Z</time></trkpt><trkpt lat="45.0081833" lon="6.8809046"><ele>2113.0</ele><time>2026-04-03T11:12:17.861Z</time></trkpt><trkpt lat="45.0082398" lon="6.8811178"><ele>2112.25</ele><time>2026-04-03T11:12:18.872Z</time></trkpt><trkpt lat="45.0083244" lon="6.8813074"><ele>2111.5</ele><time>2026-04-03T11:12:19.862Z</time></trkpt><trkpt lat="45.0083836" lon="6.8815106"><ele>2110.75</ele><time>2026-04-03T11:12:20.864Z</time></trkpt><trkpt lat="45.0084112" lon="6.8816743"><ele>2110.0</ele><time>2026-04-03T11:12:21.867Z</time></trkpt><trkpt lat="45.0085272" lon="6.8816587"><ele>2108.8</ele><time>2026-04-03T11:12:22.858Z</time></trkpt><trkpt lat="45.0086213" lon="6.8817309"><ele>2107.6</ele><time>2026-04-03T11:12:23.86Z</time></trkpt><trkpt lat="45.0086974" lon="6.8818241"><ele>2106.4</ele><time>2026-04-03T11:12:24.864Z</time></trkpt><trkpt lat="45.0087794" lon="6.8819226"><ele>2105.2</ele><time>2026-04-03T11:12:25.861Z</time></trkpt><trkpt lat="45.0088553" lon="6.8820186"><ele>2104.0</ele><time>2026-04-03T11:12:26.854Z</time></trkpt><trkpt lat="45.0089397" lon="6.8821263"><ele>2104.0</ele><time>2026-04-03T11:12:27.874Z</time></trkpt><trkpt lat="45.0090251" lon="6.8822423"><ele>2104.0</ele><time>2026-04-03T11:12:28.855Z</time></trkpt><trkpt lat="45.0091163" lon="6.8823608"><ele>2104.0</ele><time>2026-04-03T11:12:29.858Z</time></trkpt><trkpt lat="45.0092023" lon="6.8824877"><ele>2104.0</ele><time>2026-04-03T11:12:30.859Z</time></trkpt><trkpt lat="45.0092956" lon="6.8826136"><ele>2099.5</ele><time>2026-04-03T11:12:31.86Z</time></trkpt><trkpt lat="45.0093925" lon="6.8827378"><ele>2095.0</ele><time>2026-04-03T11:12:32.858Z</time></trkpt><trkpt lat="45.0094966" lon="6.882855"><ele>2090.5</ele><time>2026-04-03T11:12:33.87Z</time></trkpt><trkpt lat="45.0095929" lon="6.8829632"><ele>2086.0</ele><time>2026-04-03T11:12:34.87Z</time></trkpt><trkpt lat="45.009687" lon="6.883059"><ele>2086.0</ele><time>2026-04-03T11:12:35.863Z</time></trkpt><trkpt lat="45.0097823" lon="6.8831448"><ele>2086.0</ele><time>2026-04-03T11:12:36.851Z</time></trkpt><trkpt lat="45.0098739" lon="6.8832181"><ele>2086.0</ele><time>2026-04-03T11:12:37.865Z</time></trkpt><trkpt lat="45.0099656" lon="6.8832795"><ele>2086.0</ele><time>2026-04-03T11:12:38.858Z</time></trkpt><trkpt lat="45.0100554" lon="6.8833238"><ele>2086.0</ele><time>2026-04-03T11:12:39.864Z</time></trkpt><trkpt lat="45.010142" lon="6.8833391"><ele>2084.3333333333335</ele><time>2026-04-03T11:12:40.87Z</time></trkpt><trkpt lat="45.0102245" lon="6.8833383"><ele>2082.666666666667</ele><time>2026-04-03T11:12:41.857Z</time></trkpt><trkpt lat="45.0102989" lon="6.8833507"><ele>2081.0</ele><time>2026-04-03T11:12:42.865Z</time></trkpt><trkpt lat="45.0103683" lon="6.8833746"><ele>2079.3333333333335</ele><time>2026-04-03T11:12:43.862Z</time></trkpt><trkpt lat="45.0104736" lon="6.8834187"><ele>2077.6666666666665</ele><time>2026-04-03T11:12:45.85Z</time></trkpt><trkpt lat="45.0105402" lon="6.8833866"><ele>2076.0</ele><time>2026-04-03T11:12:47.857Z</time></trkpt><trkpt lat="45.0105854" lon="6.8833071"><ele>2076.0</ele><time>2026-04-03T11:12:51.863Z</time></trkpt><trkpt lat="45.0106471" lon="6.8833404"><ele>2076.0</ele><time>2026-04-03T11:13:06.86Z</time></trkpt><trkpt lat="45.0106995" lon="6.8833924"><ele>2076.0</ele><time>2026-04-03T11:13:20.874Z</time></trkpt><trkpt lat="45.0107355" lon="6.8834807"><ele>2076.0</ele><time>2026-04-03T11:13:31.867Z</time></trkpt><trkpt lat="45.0107531" lon="6.883586"><ele>2076.0</ele><time>2026-04-03T11:13:35.866Z</time></trkpt><trkpt lat="45.0107731" lon="6.8836846"><ele>2076.0</ele><time>2026-04-03T11:13:39.863Z</time></trkpt><trkpt lat="45.0107974" lon="6.8837917"><ele>2076.0</ele><time>2026-04-03T11:13:44.863Z</time></trkpt><trkpt lat="45.010817" lon="6.8838918"><ele>2076.0</ele><time>2026-04-03T11:13:48.859Z</time></trkpt><trkpt lat="45.0108351" lon="6.8839884"><ele>2076.0</ele><time>2026-04-03T11:13:52.874Z</time></trkpt><trkpt lat="45.0108544" lon="6.8840865"><ele>2076.0</ele><time>2026-04-03T11:13:56.865Z</time></trkpt><trkpt lat="45.0108739" lon="6.8841843"><ele>2076.0</ele><time>2026-04-03T11:14:00.861Z</time></trkpt><trkpt lat="45.0108901" lon="6.8842804"><ele>2076.0</ele><time>2026-04-03T11:14:04.858Z</time></trkpt><trkpt lat="45.0109055" lon="6.8843799"><ele>2076.0</ele><time>2026-04-03T11:14:08.861Z</time></trkpt><trkpt lat="45.0109224" lon="6.8844738"><ele>2076.0</ele><time>2026-04-03T11:14:12.867Z</time></trkpt><trkpt lat="45.0109474" lon="6.8845667"><ele>2076.4285714285716</ele><time>2026-04-03T11:14:16.865Z</time></trkpt><trkpt lat="45.0109862" lon="6.884666"><ele>2076.8571428571427</ele><time>2026-04-03T11:14:20.867Z</time></trkpt><trkpt lat="45.0110091" lon="6.8847765"><ele>2077.285714285714</ele><time>2026-04-03T11:14:24.869Z</time></trkpt><trkpt lat="45.0110221" lon="6.8848737"><ele>2077.714285714286</ele><time>2026-04-03T11:14:28.871Z</time></trkpt><trkpt lat="45.0110395" lon="6.8849736"><ele>2078.142857142857</ele><time>2026-04-03T11:14:32.849Z</time></trkpt><trkpt lat="45.0110578" lon="6.8850698"><ele>2078.5714285714284</ele><time>2026-04-03T11:14:36.858Z</time></trkpt><trkpt lat="45.0110761" lon="6.885163"><ele>2079.0</ele><time>2026-04-03T11:14:40.862Z</time></trkpt><trkpt lat="45.0110943" lon="6.8852572"><ele>2080.8571428571427</ele><time>2026-04-03T11:14:44.85Z</time></trkpt><trkpt lat="45.0111085" lon="6.8853513"><ele>2082.714285714286</ele><time>2026-04-03T11:14:48.866Z</time></trkpt><trkpt lat="45.011119" lon="6.885444"><ele>2084.5714285714284</ele><time>2026-04-03T11:14:52.868Z</time></trkpt><trkpt lat="45.0111384" lon="6.8855328"><ele>2086.4285714285716</ele><time>2026-04-03T11:14:56.86Z</time></trkpt><trkpt lat="45.011158" lon="6.8856279"><ele>2088.285714285714</ele><time>2026-04-03T11:15:00.859Z</time></trkpt><trkpt lat="45.0111749" lon="6.8857278"><ele>2090.142857142857</ele><time>2026-04-03T11:15:04.851Z</time></trkpt><trkpt lat="45.0111926" lon="6.8858266"><ele>2092.0</ele><time>2026-04-03T11:15:08.858Z</time></trkpt><trkpt lat="45.0112089" lon="6.8859268"><ele>2093.8571428571427</ele><time>2026-04-03T11:15:12.856Z</time></trkpt><trkpt lat="45.0112258" lon="6.8860251"><ele>2095.714285714286</ele><time>2026-04-03T11:15:16.862Z</time></trkpt><trkpt lat="45.0112449" lon="6.8861212"><ele>2097.5714285714284</ele><time>2026-04-03T11:15:20.865Z</time></trkpt><trkpt lat="45.0112645" lon="6.8862192"><ele>2099.4285714285716</ele><time>2026-04-03T11:15:24.87Z</time></trkpt><trkpt lat="45.0112862" lon="6.8863113"><ele>2101.285714285714</ele><time>2026-04-03T11:15:28.868Z</time></trkpt><trkpt lat="45.0112995" lon="6.8864055"><ele>2103.142857142857</ele><time>2026-04-03T11:15:32.858Z</time></trkpt><trkpt lat="45.0113158" lon="6.886502"><ele>2105.0</ele><time>2026-04-03T11:15:36.867Z</time></trkpt><trkpt lat="45.0113261" lon="6.8865987"><ele>2105.0</ele><time>2026-04-03T11:15:40.857Z</time></trkpt><trkpt lat="45.0113392" lon="6.8866901"><ele>2105.0</ele><time>2026-04-03T11:15:44.862Z</time></trkpt><trkpt lat="45.0113546" lon="6.8867811"><ele>2105.0</ele><time>2026-04-03T11:15:48.863Z</time></trkpt><trkpt lat="45.0113721" lon="6.88687"><ele>2105.0</ele><time>2026-04-03T11:15:52.857Z</time></trkpt><trkpt lat="45.0113882" lon="6.8869584"><ele>2105.0</ele><time>2026-04-03T11:15:56.868Z</time></trkpt><trkpt lat="45.0114069" lon="6.8870476"><ele>2105.0</ele><time>2026-04-03T11:16:00.854Z</time></trkpt><trkpt lat="45.0114379" lon="6.8871424"><ele>2105.0</ele><time>2026-04-03T11:16:04.858Z</time></trkpt><trkpt lat="45.0114686" lon="6.8872457"><ele>2107.714285714286</ele><time>2026-04-03T11:16:09.864Z</time></trkpt><trkpt lat="45.0114898" lon="6.887342"><ele>2110.4285714285716</ele><time>2026-04-03T11:16:13.862Z</time></trkpt><trkpt lat="45.0115064" lon="6.8874368"><ele>2113.1428571428573</ele><time>2026-04-03T11:16:17.868Z</time></trkpt><trkpt lat="45.0115249" lon="6.8875302"><ele>2115.857142857143</ele><time>2026-04-03T11:16:21.871Z</time></trkpt><trkpt lat="45.0115424" lon="6.8876245"><ele>2118.571428571429</ele><time>2026-04-03T11:16:25.855Z</time></trkpt><trkpt lat="45.0115598" lon="6.8877208"><ele>2121.285714285714</ele><time>2026-04-03T11:16:29.859Z</time></trkpt><trkpt lat="45.0115825" lon="6.8878193"><ele>2124.0</ele><time>2026-04-03T11:16:33.857Z</time></trkpt><trkpt lat="45.0116146" lon="6.8879143"><ele>2127.1428571428573</ele><time>2026-04-03T11:16:37.872Z</time></trkpt><trkpt lat="45.0116387" lon="6.8880086"><ele>2130.2857142857147</ele><time>2026-04-03T11:16:41.859Z</time></trkpt><trkpt lat="45.0116586" lon="6.888102"><ele>2133.4285714285716</ele><time>2026-04-03T11:16:45.863Z</time></trkpt><trkpt lat="45.0116748" lon="6.888196"><ele>2136.5714285714284</ele><time>2026-04-03T11:16:49.87Z</time></trkpt><trkpt lat="45.0116928" lon="6.8882898"><ele>2139.7142857142853</ele><time>2026-04-03T11:16:53.864Z</time></trkpt><trkpt lat="45.0117119" lon="6.888381"><ele>2142.8571428571427</ele><time>2026-04-03T11:16:57.863Z</time></trkpt><trkpt lat="45.011733" lon="6.8884723"><ele>2146.0</ele><time>2026-04-03T11:17:01.853Z</time></trkpt><trkpt lat="45.011749" lon="6.8885643"><ele>2151.0</ele><time>2026-04-03T11:17:05.86Z</time></trkpt><trkpt lat="45.0117643" lon="6.8886537"><ele>2156.0</ele><time>2026-04-03T11:17:09.859Z</time></trkpt><trkpt lat="45.0117866" lon="6.8887566"><ele>2161.0</ele><time>2026-04-03T11:17:14.863Z</time></trkpt><trkpt lat="45.0118087" lon="6.8888601"><ele>2166.0</ele><time>2026-04-03T11:17:19.871Z</time></trkpt><trkpt lat="45.0118297" lon="6.8889636"><ele>2171.0</ele><time>2026-04-03T11:17:24.865Z</time></trkpt><trkpt lat="45.0118543" lon="6.889064"><ele>2176.0</ele><time>2026-04-03T11:17:29.857Z</time></trkpt><trkpt lat="45.0118724" lon="6.8891598"><ele>2181.0</ele><time>2026-04-03T11:17:34.856Z</time></trkpt><trkpt lat="45.011893" lon="6.8892575"><ele>2185.8571428571427</ele><time>2026-04-03T11:17:39.864Z</time></trkpt><trkpt lat="45.0119104" lon="6.8893548"><ele>2190.7142857142853</ele><time>2026-04-03T11:17:44.871Z</time></trkpt><trkpt lat="45.0119255" lon="6.8894558"><ele>2195.5714285714284</ele><time>2026-04-03T11:17:49.867Z</time></trkpt><trkpt lat="45.0119443" lon="6.8895447"><ele>2200.4285714285716</ele><time>2026-04-03T11:17:53.868Z</time></trkpt><trkpt lat="45.0119675" lon="6.8896506"><ele>2205.2857142857147</ele><time>2026-04-03T11:17:58.871Z</time></trkpt><trkpt lat="45.0119861" lon="6.8897518"><ele>2210.1428571428573</ele><time>2026-04-03T11:18:03.862Z</time></trkpt><trkpt lat="45.0120023" lon="6.8898411"><ele>2215.0</ele><time>2026-04-03T11:18:07.867Z</time></trkpt><trkpt lat="45.0120217" lon="6.8899423"><ele>2215.0</ele><time>2026-04-03T11:18:12.865Z</time></trkpt><trkpt lat="45.0120366" lon="6.8900298"><ele>2215.0</ele><time>2026-04-03T11:18:16.864Z</time></trkpt><trkpt lat="45.0120542" lon="6.8901315"><ele>2215.0</ele><time>2026-04-03T11:18:21.865Z</time></trkpt><trkpt lat="45.0120725" lon="6.890228"><ele>2215.0</ele><time>2026-04-03T11:18:26.86Z</time></trkpt><trkpt lat="45.0120884" lon="6.8903208"><ele>2215.0</ele><time>2026-04-03T11:18:31.863Z</time></trkpt><trkpt lat="45.0121117" lon="6.8904233"><ele>2215.0</ele><time>2026-04-03T11:18:36.858Z</time></trkpt><trkpt lat="45.0121312" lon="6.8905283"><ele>2215.0</ele><time>2026-04-03T11:18:41.863Z</time></trkpt><trkpt lat="45.012149" lon="6.8906343"><ele>2220.857142857143</ele><time>2026-04-03T11:18:46.867Z</time></trkpt><trkpt lat="45.0121661" lon="6.8907365"><ele>2226.714285714286</ele><time>2026-04-03T11:18:51.866Z</time></trkpt><trkpt lat="45.0121846" lon="6.8908383"><ele>2232.5714285714284</ele><time>2026-04-03T11:18:56.862Z</time></trkpt><trkpt lat="45.0121993" lon="6.8909451"><ele>2238.4285714285716</ele><time>2026-04-03T11:19:01.87Z</time></trkpt><trkpt lat="45.012219" lon="6.8910447"><ele>2244.285714285714</ele><time>2026-04-03T11:19:06.861Z</time></trkpt><trkpt lat="45.0122361" lon="6.8911502"><ele>2250.1428571428573</ele><time>2026-04-03T11:19:11.867Z</time></trkpt><trkpt lat="45.0122511" lon="6.891242"><ele>2256.0</ele><time>2026-04-03T11:19:15.853Z</time></trkpt><trkpt lat="45.0122724" lon="6.8913268"><ele>2261.714285714286</ele><time>2026-04-03T11:19:19.857Z</time></trkpt><trkpt lat="45.0122966" lon="6.8914316"><ele>2267.4285714285716</ele><time>2026-04-03T11:19:24.861Z</time></trkpt><trkpt lat="45.0123158" lon="6.8915359"><ele>2273.142857142857</ele><time>2026-04-03T11:19:29.852Z</time></trkpt><trkpt lat="45.0123331" lon="6.8916354"><ele>2278.857142857143</ele><time>2026-04-03T11:19:34.872Z</time></trkpt><trkpt lat="45.0123498" lon="6.8917305"><ele>2284.5714285714284</ele><time>2026-04-03T11:19:38.855Z</time></trkpt><trkpt lat="45.0123672" lon="6.891824"><ele>2290.285714285714</ele><time>2026-04-03T11:19:42.863Z</time></trkpt><trkpt lat="45.0123846" lon="6.8919152"><ele>2296.0</ele><time>2026-04-03T11:19:46.864Z</time></trkpt><trkpt lat="45.0124068" lon="6.8920153"><ele>2300.1428571428573</ele><time>2026-04-03T11:19:51.861Z</time></trkpt><trkpt lat="45.0124264" lon="6.8921001"><ele>2304.285714285714</ele><time>2026-04-03T11:19:55.858Z</time></trkpt><trkpt lat="45.0124445" lon="6.8921915"><ele>2308.4285714285716</ele><time>2026-04-03T11:19:59.855Z</time></trkpt><trkpt lat="45.0124625" lon="6.8922831"><ele>2312.5714285714284</ele><time>2026-04-03T11:20:03.869Z</time></trkpt><trkpt lat="45.0124878" lon="6.8923777"><ele>2316.714285714286</ele><time>2026-04-03T11:20:07.859Z</time></trkpt><trkpt lat="45.0125079" lon="6.8924686"><ele>2320.857142857143</ele><time>2026-04-03T11:20:11.853Z</time></trkpt><trkpt lat="45.0125298" lon="6.8925548"><ele>2325.0</ele><time>2026-04-03T11:20:15.859Z</time></trkpt><trkpt lat="45.0125526" lon="6.8926524"><ele>2328.0000000000005</ele><time>2026-04-03T11:20:19.854Z</time></trkpt><trkpt lat="45.01257" lon="6.8927452"><ele>2331.0</ele><time>2026-04-03T11:20:23.869Z</time></trkpt><trkpt lat="45.0125862" lon="6.8928393"><ele>2334.0</ele><time>2026-04-03T11:20:27.852Z</time></trkpt><trkpt lat="45.0126005" lon="6.8929331"><ele>2337.0</ele><time>2026-04-03T11:20:31.869Z</time></trkpt><trkpt lat="45.0126145" lon="6.8930275"><ele>2340.0</ele><time>2026-04-03T11:20:35.866Z</time></trkpt><trkpt lat="45.012629" lon="6.8931223"><ele>2343.0000000000005</ele><time>2026-04-03T11:20:39.874Z</time></trkpt><trkpt lat="45.0126448" lon="6.8932186"><ele>2346.0</ele><time>2026-04-03T11:20:43.853Z</time></trkpt><trkpt lat="45.0126596" lon="6.8933115"><ele>2346.0000000000005</ele><time>2026-04-03T11:20:47.865Z</time></trkpt><trkpt lat="45.0126746" lon="6.8934058"><ele>2346.0</ele><time>2026-04-03T11:20:51.863Z</time></trkpt><trkpt lat="45.0126905" lon="6.893498"><ele>2346.0</ele><time>2026-04-03T11:20:55.864Z</time></trkpt><trkpt lat="45.0127094" lon="6.8935905"><ele>2346.0</ele><time>2026-04-03T11:20:59.857Z</time></trkpt><trkpt lat="45.0127355" lon="6.8936844"><ele>2346.0</ele><time>2026-04-03T11:21:03.864Z</time></trkpt><trkpt lat="45.0127565" lon="6.8937762"><ele>2346.0000000000005</ele><time>2026-04-03T11:21:07.861Z</time></trkpt><trkpt lat="45.0127774" lon="6.8938687"><ele>2346.0</ele><time>2026-04-03T11:21:11.858Z</time></trkpt><trkpt lat="45.0127983" lon="6.8939568"><ele>2349.0000000000005</ele><time>2026-04-03T11:21:15.864Z</time></trkpt><trkpt lat="45.0128229" lon="6.8940448"><ele>2352.0</ele><time>2026-04-03T11:21:19.863Z</time></trkpt><trkpt lat="45.0128454" lon="6.8941362"><ele>2355.0</ele><time>2026-04-03T11:21:23.867Z</time></trkpt><trkpt lat="45.0128619" lon="6.894229"><ele>2358.0</ele><time>2026-04-03T11:21:27.864Z</time></trkpt><trkpt lat="45.0128789" lon="6.8943185"><ele>2361.0</ele><time>2026-04-03T11:21:31.866Z</time></trkpt><trkpt lat="45.0128965" lon="6.8944056"><ele>2364.0000000000005</ele><time>2026-04-03T11:21:35.865Z</time></trkpt><trkpt lat="45.012914" lon="6.8944939"><ele>2367.0</ele><time>2026-04-03T11:21:39.861Z</time></trkpt><trkpt lat="45.012932" lon="6.894583"><ele>2370.4285714285716</ele><time>2026-04-03T11:21:43.859Z</time></trkpt><trkpt lat="45.0129469" lon="6.8946727"><ele>2373.857142857143</ele><time>2026-04-03T11:21:47.853Z</time></trkpt><trkpt lat="45.0129644" lon="6.8947685"><ele>2377.2857142857147</ele><time>2026-04-03T11:21:51.856Z</time></trkpt><trkpt lat="45.0129851" lon="6.8948617"><ele>2380.714285714286</ele><time>2026-04-03T11:21:55.868Z</time></trkpt><trkpt lat="45.0130037" lon="6.8949541"><ele>2384.142857142857</ele><time>2026-04-03T11:21:59.867Z</time></trkpt><trkpt lat="45.0130249" lon="6.8950427"><ele>2387.571428571429</ele><time>2026-04-03T11:22:03.859Z</time></trkpt><trkpt lat="45.0130433" lon="6.8951369"><ele>2391.0</ele><time>2026-04-03T11:22:07.862Z</time></trkpt><trkpt lat="45.0130599" lon="6.8952341"><ele>2393.285714285714</ele><time>2026-04-03T11:22:11.864Z</time></trkpt><trkpt lat="45.0130783" lon="6.8953302"><ele>2395.5714285714284</ele><time>2026-04-03T11:22:15.858Z</time></trkpt><trkpt lat="45.013094" lon="6.8954268"><ele>2397.8571428571427</ele><time>2026-04-03T11:22:19.858Z</time></trkpt><trkpt lat="45.0131116" lon="6.8955219"><ele>2400.142857142857</ele><time>2026-04-03T11:22:23.858Z</time></trkpt><trkpt lat="45.0131302" lon="6.8956169"><ele>2402.4285714285716</ele><time>2026-04-03T11:22:27.866Z</time></trkpt><trkpt lat="45.0131486" lon="6.8957162"><ele>2404.7142857142853</ele><time>2026-04-03T11:22:31.863Z</time></trkpt><trkpt lat="45.0131717" lon="6.895818"><ele>2407.0</ele><time>2026-04-03T11:22:35.866Z</time></trkpt><trkpt lat="45.0132" lon="6.8959264"><ele>2405.7142857142853</ele><time>2026-04-03T11:22:39.856Z</time></trkpt><trkpt lat="45.0132196" lon="6.8960274"><ele>2404.4285714285716</ele><time>2026-04-03T11:22:43.852Z</time></trkpt><trkpt lat="45.0132378" lon="6.8961299"><ele>2403.142857142857</ele><time>2026-04-03T11:22:47.858Z</time></trkpt><trkpt lat="45.0132571" lon="6.8962268"><ele>2401.8571428571427</ele><time>2026-04-03T11:22:51.869Z</time></trkpt><trkpt lat="45.0132735" lon="6.8963142"><ele>2400.5714285714284</ele><time>2026-04-03T11:22:55.871Z</time></trkpt><trkpt lat="45.0132918" lon="6.8964063"><ele>2399.285714285714</ele><time>2026-04-03T11:22:59.861Z</time></trkpt><trkpt lat="45.0133099" lon="6.896499"><ele>2398.0</ele><time>2026-04-03T11:23:03.872Z</time></trkpt><trkpt lat="45.0133281" lon="6.8965932"><ele>2398.0</ele><time>2026-04-03T11:23:07.865Z</time></trkpt><trkpt lat="45.0133464" lon="6.8966872"><ele>2398.0</ele><time>2026-04-03T11:23:11.859Z</time></trkpt><trkpt lat="45.0133631" lon="6.8967834"><ele>2398.0</ele><time>2026-04-03T11:23:15.863Z</time></trkpt><trkpt lat="45.0133815" lon="6.8968796"><ele>2398.0</ele><time>2026-04-03T11:23:19.857Z</time></trkpt><trkpt lat="45.0133993" lon="6.8969731"><ele>2398.0</ele><time>2026-04-03T11:23:23.861Z</time></trkpt><trkpt lat="45.0134163" lon="6.897066"><ele>2398.0</ele><time>2026-04-03T11:23:27.852Z</time></trkpt><trkpt lat="45.0134354" lon="6.8971637"><ele>2398.0</ele><time>2026-04-03T11:23:31.858Z</time></trkpt><trkpt lat="45.0134519" lon="6.8972627"><ele>2401.0</ele><time>2026-04-03T11:23:35.854Z</time></trkpt><trkpt lat="45.0134695" lon="6.8973548"><ele>2404.0</ele><time>2026-04-03T11:23:39.856Z</time></trkpt><trkpt lat="45.0134885" lon="6.8974428"><ele>2407.0</ele><time>2026-04-03T11:23:43.857Z</time></trkpt><trkpt lat="45.0135074" lon="6.8975349"><ele>2410.0</ele><time>2026-04-03T11:23:47.861Z</time></trkpt><trkpt lat="45.0135268" lon="6.897625"><ele>2413.0</ele><time>2026-04-03T11:23:51.86Z</time></trkpt><trkpt lat="45.0135477" lon="6.8977294"><ele>2416.0</ele><time>2026-04-03T11:23:55.862Z</time></trkpt><trkpt lat="45.0135747" lon="6.8978319"><ele>2419.0</ele><time>2026-04-03T11:23:59.874Z</time></trkpt><trkpt lat="45.0135929" lon="6.8979278"><ele>2422.285714285714</ele><time>2026-04-03T11:24:03.872Z</time></trkpt><trkpt lat="45.0136093" lon="6.8980219"><ele>2425.5714285714284</ele><time>2026-04-03T11:24:07.862Z</time></trkpt><trkpt lat="45.013626" lon="6.8981151"><ele>2428.8571428571427</ele><time>2026-04-03T11:24:11.862Z</time></trkpt><trkpt lat="45.0136432" lon="6.8982078"><ele>2432.142857142857</ele><time>2026-04-03T11:24:15.858Z</time></trkpt><trkpt lat="45.0136606" lon="6.8983003"><ele>2435.4285714285716</ele><time>2026-04-03T11:24:19.865Z</time></trkpt><trkpt lat="45.0136795" lon="6.8983946"><ele>2438.7142857142853</ele><time>2026-04-03T11:24:23.858Z</time></trkpt><trkpt lat="45.0136977" lon="6.8984866"><ele>2442.0</ele><time>2026-04-03T11:24:27.869Z</time></trkpt><trkpt lat="45.0137165" lon="6.8985782"><ele>2443.9999999999995</ele><time>2026-04-03T11:24:31.868Z</time></trkpt><trkpt lat="45.0137385" lon="6.8986702"><ele>2446.0</ele><time>2026-04-03T11:24:35.862Z</time></trkpt><trkpt lat="45.013756" lon="6.8987622"><ele>2448.0</ele><time>2026-04-03T11:24:39.861Z</time></trkpt><trkpt lat="45.0137739" lon="6.8988525"><ele>2450.0</ele><time>2026-04-03T11:24:43.852Z</time></trkpt><trkpt lat="45.0137905" lon="6.8989444"><ele>2452.0</ele><time>2026-04-03T11:24:47.864Z</time></trkpt><trkpt lat="45.0138085" lon="6.8990384"><ele>2453.9999999999995</ele><time>2026-04-03T11:24:51.858Z</time></trkpt><trkpt lat="45.0138268" lon="6.8991293"><ele>2456.0</ele><time>2026-04-03T11:24:55.864Z</time></trkpt><trkpt lat="45.0138458" lon="6.899224"><ele>2457.142857142857</ele><time>2026-04-03T11:24:59.867Z</time></trkpt><trkpt lat="45.0138628" lon="6.8993174"><ele>2458.285714285714</ele><time>2026-04-03T11:25:03.865Z</time></trkpt><trkpt lat="45.0138795" lon="6.8994085"><ele>2459.4285714285716</ele><time>2026-04-03T11:25:07.87Z</time></trkpt><trkpt lat="45.0138976" lon="6.8995032"><ele>2460.5714285714284</ele><time>2026-04-03T11:25:11.864Z</time></trkpt><trkpt lat="45.013915" lon="6.8995944"><ele>2461.714285714286</ele><time>2026-04-03T11:25:15.856Z</time></trkpt><trkpt lat="45.0139432" lon="6.8996794"><ele>2462.8571428571427</ele><time>2026-04-03T11:25:18.86Z</time></trkpt><trkpt lat="45.013964" lon="6.8997827"><ele>2464.0</ele><time>2026-04-03T11:25:22.861Z</time></trkpt><trkpt lat="45.0139818" lon="6.8998801"><ele>2464.0</ele><time>2026-04-03T11:25:26.871Z</time></trkpt><trkpt lat="45.0139938" lon="6.8999995"><ele>2464.0</ele><time>2026-04-03T11:25:29.859Z</time></trkpt><trkpt lat="45.0140069" lon="6.9001228"><ele>2464.0</ele><time>2026-04-03T11:25:32.866Z</time></trkpt><trkpt lat="45.0140046" lon="6.9002216"><ele>2464.0</ele><time>2026-04-03T11:25:38.853Z</time></trkpt><trkpt lat="45.0139699" lon="6.9001217"><ele>2464.0</ele><time>2026-04-03T11:26:56.859Z</time></trkpt><trkpt lat="45.0139295" lon="6.9000384"><ele>2464.0</ele><time>2026-04-03T11:26:59.865Z</time></trkpt><trkpt lat="45.0139023" lon="6.8999442"><ele>2464.0</ele><time>2026-04-03T11:27:03.865Z</time></trkpt><trkpt lat="45.013863" lon="6.8998466"><ele>2464.0</ele><time>2026-04-03T11:27:06.859Z</time></trkpt><trkpt lat="45.0138266" lon="6.8997274"><ele>2464.0</ele><time>2026-04-03T11:27:09.863Z</time></trkpt><trkpt lat="45.0137818" lon="6.8996334"><ele>2464.0</ele><time>2026-04-03T11:27:11.853Z</time></trkpt><trkpt lat="45.0137161" lon="6.8994778"><ele>2464.0</ele><time>2026-04-03T11:27:13.865Z</time></trkpt><trkpt lat="45.0137113" lon="6.8993597"><ele>2462.666666666667</ele><time>2026-04-03T11:27:14.86Z</time></trkpt><trkpt lat="45.0136845" lon="6.8992451"><ele>2461.3333333333335</ele><time>2026-04-03T11:27:15.852Z</time></trkpt><trkpt lat="45.0136269" lon="6.8991355"><ele>2460.0</ele><time>2026-04-03T11:27:16.862Z</time></trkpt><trkpt lat="45.0135857" lon="6.8990225"><ele>2458.6666666666665</ele><time>2026-04-03T11:27:17.874Z</time></trkpt><trkpt lat="45.0135799" lon="6.8989026"><ele>2457.333333333333</ele><time>2026-04-03T11:27:18.858Z</time></trkpt><trkpt lat="45.0135634" lon="6.8987915"><ele>2456.0</ele><time>2026-04-03T11:27:19.853Z</time></trkpt><trkpt lat="45.0135101" lon="6.8987112"><ele>2456.0</ele><time>2026-04-03T11:27:20.858Z</time></trkpt><trkpt lat="45.0134437" lon="6.8986532"><ele>2456.0</ele><time>2026-04-03T11:27:21.863Z</time></trkpt><trkpt lat="45.0133971" lon="6.8985446"><ele>2456.0</ele><time>2026-04-03T11:27:22.852Z</time></trkpt><trkpt lat="45.0133799" lon="6.8983992"><ele>2456.0</ele><time>2026-04-03T11:27:23.866Z</time></trkpt><trkpt lat="45.0133435" lon="6.8982675"><ele>2456.0</ele><time>2026-04-03T11:27:24.869Z</time></trkpt><trkpt lat="45.0132445" lon="6.8981748"><ele>2453.75</ele><time>2026-04-03T11:27:25.867Z</time></trkpt><trkpt lat="45.0131325" lon="6.8981004"><ele>2451.5</ele><time>2026-04-03T11:27:26.857Z</time></trkpt><trkpt lat="45.0130663" lon="6.8979846"><ele>2449.25</ele><time>2026-04-03T11:27:27.862Z</time></trkpt><trkpt lat="45.0129997" lon="6.8978605"><ele>2447.0</ele><time>2026-04-03T11:27:28.865Z</time></trkpt><trkpt lat="45.0129527" lon="6.8976814"><ele>2443.0</ele><time>2026-04-03T11:27:29.864Z</time></trkpt><trkpt lat="45.012817" lon="6.8975469"><ele>2439.0</ele><time>2026-04-03T11:27:30.866Z</time></trkpt><trkpt lat="45.0127356" lon="6.8974345"><ele>2435.0</ele><time>2026-04-03T11:27:31.857Z</time></trkpt><trkpt lat="45.0126775" lon="6.8972722"><ele>2431.0</ele><time>2026-04-03T11:27:32.862Z</time></trkpt><trkpt lat="45.0126271" lon="6.897115"><ele>2431.0</ele><time>2026-04-03T11:27:33.866Z</time></trkpt><trkpt lat="45.0125549" lon="6.8969784"><ele>2431.0</ele><time>2026-04-03T11:27:34.849Z</time></trkpt><trkpt lat="45.0125423" lon="6.8968142"><ele>2431.0</ele><time>2026-04-03T11:27:35.867Z</time></trkpt><trkpt lat="45.0125597" lon="6.8966716"><ele>2431.0</ele><time>2026-04-03T11:27:36.87Z</time></trkpt><trkpt lat="45.0125358" lon="6.8965321"><ele>2431.0</ele><time>2026-04-03T11:27:37.863Z</time></trkpt><trkpt lat="45.0125361" lon="6.8964096"><ele>2429.166666666667</ele><time>2026-04-03T11:27:38.868Z</time></trkpt><trkpt lat="45.0125742" lon="6.8962949"><ele>2427.3333333333335</ele><time>2026-04-03T11:27:39.863Z</time></trkpt><trkpt lat="45.0126201" lon="6.8962112"><ele>2425.5</ele><time>2026-04-03T11:27:40.864Z</time></trkpt><trkpt lat="45.0126862" lon="6.8961162"><ele>2423.6666666666665</ele><time>2026-04-03T11:27:41.861Z</time></trkpt><trkpt lat="45.0127434" lon="6.8960157"><ele>2421.833333333333</ele><time>2026-04-03T11:27:42.861Z</time></trkpt><trkpt lat="45.0127794" lon="6.8959388"><ele>2420.0</ele><time>2026-04-03T11:27:43.865Z</time></trkpt><trkpt lat="45.0127124" lon="6.8956149"><ele>2416.75</ele><time>2026-04-03T11:27:45.858Z</time></trkpt><trkpt lat="45.0128306" lon="6.8955607"><ele>2413.5</ele><time>2026-04-03T11:27:46.867Z</time></trkpt><trkpt lat="45.0129159" lon="6.8954645"><ele>2410.25</ele><time>2026-04-03T11:27:47.861Z</time></trkpt><trkpt lat="45.012951" lon="6.8953373"><ele>2407.0</ele><time>2026-04-03T11:27:48.867Z</time></trkpt><trkpt lat="45.0129841" lon="6.8951711"><ele>2403.7999999999997</ele><time>2026-04-03T11:27:49.855Z</time></trkpt><trkpt lat="45.0130571" lon="6.8950527"><ele>2400.6</ele><time>2026-04-03T11:27:50.86Z</time></trkpt><trkpt lat="45.013169" lon="6.8949986"><ele>2397.3999999999996</ele><time>2026-04-03T11:27:51.859Z</time></trkpt><trkpt lat="45.0132362" lon="6.89493"><ele>2394.2</ele><time>2026-04-03T11:27:52.854Z</time></trkpt><trkpt lat="45.0133581" lon="6.8949753"><ele>2391.0</ele><time>2026-04-03T11:27:53.861Z</time></trkpt><trkpt lat="45.0135142" lon="6.8949824"><ele>2388.0</ele><time>2026-04-03T11:27:54.865Z</time></trkpt><trkpt lat="45.0136751" lon="6.8950564"><ele>2385.0</ele><time>2026-04-03T11:27:55.858Z</time></trkpt><trkpt lat="45.013779" lon="6.8951949"><ele>2382.0</ele><time>2026-04-03T11:27:56.86Z</time></trkpt><trkpt lat="45.0139019" lon="6.8953105"><ele>2382.0</ele><time>2026-04-03T11:27:57.86Z</time></trkpt><trkpt lat="45.0140526" lon="6.8953485"><ele>2382.0</ele><time>2026-04-03T11:27:58.862Z</time></trkpt><trkpt lat="45.0141941" lon="6.895379"><ele>2382.0</ele><time>2026-04-03T11:27:59.861Z</time></trkpt><trkpt lat="45.0143001" lon="6.8954792"><ele>2382.0</ele><time>2026-04-03T11:28:00.866Z</time></trkpt><trkpt lat="45.0144284" lon="6.8955262"><ele>2376.0</ele><time>2026-04-03T11:28:01.852Z</time></trkpt><trkpt lat="45.0145496" lon="6.8955832"><ele>2370.0</ele><time>2026-04-03T11:28:02.862Z</time></trkpt><trkpt lat="45.0146571" lon="6.8955861"><ele>2364.0</ele><time>2026-04-03T11:28:03.859Z</time></trkpt><trkpt lat="45.0147364" lon="6.8955095"><ele>2358.0</ele><time>2026-04-03T11:28:04.872Z</time></trkpt><trkpt lat="45.0148288" lon="6.8953967"><ele>2358.0</ele><time>2026-04-03T11:28:05.866Z</time></trkpt><trkpt lat="45.0148766" lon="6.8951709"><ele>2358.0</ele><time>2026-04-03T11:28:06.855Z</time></trkpt><trkpt lat="45.0149629" lon="6.8949349"><ele>2358.0</ele><time>2026-04-03T11:28:07.853Z</time></trkpt><trkpt lat="45.0149773" lon="6.8944818"><ele>2349.5</ele><time>2026-04-03T11:28:08.869Z</time></trkpt><trkpt lat="45.0150187" lon="6.8943519"><ele>2341.0</ele><time>2026-04-03T11:28:09.864Z</time></trkpt><trkpt lat="45.0150176" lon="6.8941725"><ele>2332.5</ele><time>2026-04-03T11:28:10.869Z</time></trkpt><trkpt lat="45.0150997" lon="6.8940443"><ele>2324.0</ele><time>2026-04-03T11:28:11.854Z</time></trkpt><trkpt lat="45.0151976" lon="6.8939103"><ele>2321.0</ele><time>2026-04-03T11:28:12.848Z</time></trkpt><trkpt lat="45.0152695" lon="6.8937349"><ele>2318.0</ele><time>2026-04-03T11:28:13.868Z</time></trkpt><trkpt lat="45.0153196" lon="6.8936726"><ele>2315.0</ele><time>2026-04-03T11:28:14.872Z</time></trkpt><trkpt lat="45.0154514" lon="6.8936628"><ele>2312.0</ele><time>2026-04-03T11:28:15.87Z</time></trkpt><trkpt lat="45.0155097" lon="6.89357"><ele>2309.0</ele><time>2026-04-03T11:28:16.868Z</time></trkpt><trkpt lat="45.015611" lon="6.8934841"><ele>2305.25</ele><time>2026-04-03T11:28:17.862Z</time></trkpt><trkpt lat="45.0157302" lon="6.893413"><ele>2301.5</ele><time>2026-04-03T11:28:18.856Z</time></trkpt><trkpt lat="45.0158494" lon="6.8933513"><ele>2297.75</ele><time>2026-04-03T11:28:19.858Z</time></trkpt><trkpt lat="45.0159895" lon="6.8933264"><ele>2294.0</ele><time>2026-04-03T11:28:20.861Z</time></trkpt><trkpt lat="45.0161012" lon="6.8932622"><ele>2290.25</ele><time>2026-04-03T11:28:21.859Z</time></trkpt><trkpt lat="45.0161745" lon="6.8931564"><ele>2286.5</ele><time>2026-04-03T11:28:22.863Z</time></trkpt><trkpt lat="45.0162861" lon="6.8929922"><ele>2282.75</ele><time>2026-04-03T11:28:23.854Z</time></trkpt><trkpt lat="45.0163867" lon="6.8929156"><ele>2279.0</ele><time>2026-04-03T11:28:24.855Z</time></trkpt><trkpt lat="45.0165111" lon="6.8928507"><ele>2271.6666666666665</ele><time>2026-04-03T11:28:25.867Z</time></trkpt><trkpt lat="45.016662" lon="6.8927991"><ele>2264.3333333333335</ele><time>2026-04-03T11:28:26.873Z</time></trkpt><trkpt lat="45.0167594" lon="6.8926393"><ele>2257.0</ele><time>2026-04-03T11:28:27.851Z</time></trkpt><trkpt lat="45.0168914" lon="6.8925259"><ele>2250.0</ele><time>2026-04-03T11:28:28.87Z</time></trkpt><trkpt lat="45.0170341" lon="6.892422"><ele>2243.0</ele><time>2026-04-03T11:28:29.871Z</time></trkpt><trkpt lat="45.0171759" lon="6.892321"><ele>2236.0</ele><time>2026-04-03T11:28:30.856Z</time></trkpt><trkpt lat="45.0173336" lon="6.8922372"><ele>2236.0</ele><time>2026-04-03T11:28:31.853Z</time></trkpt><trkpt lat="45.0174461" lon="6.8920703"><ele>2236.0</ele><time>2026-04-03T11:28:32.864Z</time></trkpt><trkpt lat="45.0175674" lon="6.8919668"><ele>2236.0</ele><time>2026-04-03T11:28:33.868Z</time></trkpt><trkpt lat="45.0177132" lon="6.8919281"><ele>2231.75</ele><time>2026-04-03T11:28:34.859Z</time></trkpt><trkpt lat="45.0178106" lon="6.8919001"><ele>2227.5</ele><time>2026-04-03T11:28:35.865Z</time></trkpt><trkpt lat="45.0179486" lon="6.891819"><ele>2223.25</ele><time>2026-04-03T11:28:36.856Z</time></trkpt><trkpt lat="45.0180683" lon="6.8917248"><ele>2219.0</ele><time>2026-04-03T11:28:37.862Z</time></trkpt><trkpt lat="45.0182075" lon="6.891568"><ele>2209.0</ele><time>2026-04-03T11:28:38.865Z</time></trkpt><trkpt lat="45.0183511" lon="6.8914426"><ele>2199.0</ele><time>2026-04-03T11:28:39.853Z</time></trkpt><trkpt lat="45.0184964" lon="6.89135"><ele>2189.0</ele><time>2026-04-03T11:28:40.859Z</time></trkpt><trkpt lat="45.0186743" lon="6.8913678"><ele>2189.0</ele><time>2026-04-03T11:28:41.858Z</time></trkpt><trkpt lat="45.0188143" lon="6.8913767"><ele>2189.0</ele><time>2026-04-03T11:28:42.863Z</time></trkpt><trkpt lat="45.0189311" lon="6.891445"><ele>2189.0</ele><time>2026-04-03T11:28:43.858Z</time></trkpt><trkpt lat="45.0190305" lon="6.8915304"><ele>2189.0</ele><time>2026-04-03T11:28:44.862Z</time></trkpt><trkpt lat="45.0191065" lon="6.8916307"><ele>2190.6666666666665</ele><time>2026-04-03T11:28:45.861Z</time></trkpt><trkpt lat="45.0191626" lon="6.8917256"><ele>2192.333333333333</ele><time>2026-04-03T11:28:46.862Z</time></trkpt><trkpt lat="45.0192022" lon="6.8918153"><ele>2194.0</ele><time>2026-04-03T11:28:47.871Z</time></trkpt><trkpt lat="45.019238" lon="6.891901"><ele>2195.6666666666665</ele><time>2026-04-03T11:28:48.859Z</time></trkpt><trkpt lat="45.0192996" lon="6.8919973"><ele>2197.3333333333335</ele><time>2026-04-03T11:28:50.867Z</time></trkpt><trkpt lat="45.0193586" lon="6.8920454"><ele>2199.0</ele><time>2026-04-03T11:29:05.855Z</time></trkpt><trkpt lat="45.0194092" lon="6.8921087"><ele>2199.0000000000005</ele><time>2026-04-03T11:29:20.87Z</time></trkpt><trkpt lat="45.0193769" lon="6.8922224"><ele>2199.0</ele><time>2026-04-03T11:29:29.854Z</time></trkpt><trkpt lat="45.0193429" lon="6.8923155"><ele>2199.0</ele><time>2026-04-03T11:29:32.854Z</time></trkpt><trkpt lat="45.0193136" lon="6.8924063"><ele>2199.0</ele><time>2026-04-03T11:29:35.864Z</time></trkpt><trkpt lat="45.0192858" lon="6.8924949"><ele>2199.0</ele><time>2026-04-03T11:29:38.863Z</time></trkpt><trkpt lat="45.019266" lon="6.8925913"><ele>2199.0000000000005</ele><time>2026-04-03T11:29:41.867Z</time></trkpt><trkpt lat="45.0192441" lon="6.8926816"><ele>2199.0</ele><time>2026-04-03T11:29:44.865Z</time></trkpt><trkpt lat="45.0192168" lon="6.8927659"><ele>2202.3333333333335</ele><time>2026-04-03T11:29:47.862Z</time></trkpt><trkpt lat="45.0191886" lon="6.8928708"><ele>2205.6666666666665</ele><time>2026-04-03T11:29:50.856Z</time></trkpt><trkpt lat="45.0191539" lon="6.8929734"><ele>2209.0</ele><time>2026-04-03T11:29:53.858Z</time></trkpt><trkpt lat="45.0191263" lon="6.8930738"><ele>2212.333333333333</ele><time>2026-04-03T11:29:56.861Z</time></trkpt><trkpt lat="45.0190983" lon="6.8931697"><ele>2215.6666666666665</ele><time>2026-04-03T11:29:59.866Z</time></trkpt><trkpt lat="45.0190715" lon="6.8932642"><ele>2219.0</ele><time>2026-04-03T11:30:02.869Z</time></trkpt><trkpt lat="45.0190436" lon="6.8933582"><ele>2223.0</ele><time>2026-04-03T11:30:05.858Z</time></trkpt><trkpt lat="45.0190141" lon="6.8934533"><ele>2227.0</ele><time>2026-04-03T11:30:08.862Z</time></trkpt><trkpt lat="45.0189865" lon="6.8935505"><ele>2231.0</ele><time>2026-04-03T11:30:11.854Z</time></trkpt><trkpt lat="45.0189584" lon="6.8936524"><ele>2235.0</ele><time>2026-04-03T11:30:14.857Z</time></trkpt><trkpt lat="45.0189334" lon="6.8937442"><ele>2239.0</ele><time>2026-04-03T11:30:17.861Z</time></trkpt><trkpt lat="45.0189044" lon="6.8938392"><ele>2243.0</ele><time>2026-04-03T11:30:20.87Z</time></trkpt><trkpt lat="45.0188783" lon="6.8939441"><ele>2247.0</ele><time>2026-04-03T11:30:23.859Z</time></trkpt><trkpt lat="45.018852" lon="6.8940521"><ele>2247.0</ele><time>2026-04-03T11:30:26.853Z</time></trkpt><trkpt lat="45.0188234" lon="6.894162"><ele>2247.0</ele><time>2026-04-03T11:30:29.854Z</time></trkpt><trkpt lat="45.018794" lon="6.894268"><ele>2247.0</ele><time>2026-04-03T11:30:32.86Z</time></trkpt><trkpt lat="45.018758" lon="6.8943774"><ele>2247.0</ele><time>2026-04-03T11:30:35.862Z</time></trkpt><trkpt lat="45.0187303" lon="6.8944913"><ele>2247.0</ele><time>2026-04-03T11:30:38.86Z</time></trkpt><trkpt lat="45.0187058" lon="6.8945934"><ele>2247.0</ele><time>2026-04-03T11:30:41.86Z</time></trkpt><trkpt lat="45.0186812" lon="6.8946916"><ele>2249.1428571428573</ele><time>2026-04-03T11:30:44.869Z</time></trkpt><trkpt lat="45.0186601" lon="6.8947861"><ele>2251.285714285714</ele><time>2026-04-03T11:30:47.86Z</time></trkpt><trkpt lat="45.0186377" lon="6.8948761"><ele>2253.4285714285716</ele><time>2026-04-03T11:30:50.866Z</time></trkpt><trkpt lat="45.0186149" lon="6.8949682"><ele>2255.5714285714284</ele><time>2026-04-03T11:30:53.859Z</time></trkpt><trkpt lat="45.0185926" lon="6.8950591"><ele>2257.714285714286</ele><time>2026-04-03T11:30:56.856Z</time></trkpt><trkpt lat="45.0185655" lon="6.8951554"><ele>2259.857142857143</ele><time>2026-04-03T11:30:59.862Z</time></trkpt><trkpt lat="45.0185405" lon="6.8952589"><ele>2262.0</ele><time>2026-04-03T11:31:02.858Z</time></trkpt><trkpt lat="45.0185082" lon="6.8953663"><ele>2265.0</ele><time>2026-04-03T11:31:05.861Z</time></trkpt><trkpt lat="45.0184753" lon="6.8954688"><ele>2268.0</ele><time>2026-04-03T11:31:08.857Z</time></trkpt><trkpt lat="45.0184446" lon="6.8955727"><ele>2271.0</ele><time>2026-04-03T11:31:11.867Z</time></trkpt><trkpt lat="45.0184118" lon="6.8956753"><ele>2274.0</ele><time>2026-04-03T11:31:14.863Z</time></trkpt><trkpt lat="45.0183804" lon="6.8957776"><ele>2277.0</ele><time>2026-04-03T11:31:17.861Z</time></trkpt><trkpt lat="45.0183499" lon="6.895876"><ele>2280.0</ele><time>2026-04-03T11:31:20.865Z</time></trkpt><trkpt lat="45.0183193" lon="6.895974"><ele>2287.8333333333335</ele><time>2026-04-03T11:31:23.857Z</time></trkpt><trkpt lat="45.0182882" lon="6.8960783"><ele>2295.6666666666665</ele><time>2026-04-03T11:31:26.857Z</time></trkpt><trkpt lat="45.0182549" lon="6.8961813"><ele>2303.5</ele><time>2026-04-03T11:31:29.871Z</time></trkpt><trkpt lat="45.0182251" lon="6.8962861"><ele>2311.333333333333</ele><time>2026-04-03T11:31:32.858Z</time></trkpt><trkpt lat="45.0181946" lon="6.8963866"><ele>2319.1666666666665</ele><time>2026-04-03T11:31:35.854Z</time></trkpt><trkpt lat="45.0181638" lon="6.8964833"><ele>2327.0</ele><time>2026-04-03T11:31:38.861Z</time></trkpt><trkpt lat="45.018135" lon="6.8965738"><ele>2327.0</ele><time>2026-04-03T11:31:41.873Z</time></trkpt><trkpt lat="45.0181045" lon="6.8966549"><ele>2327.0</ele><time>2026-04-03T11:32:01.862Z</time></trkpt><trkpt lat="45.0180785" lon="6.8967468"><ele>2327.0</ele><time>2026-04-03T11:32:07.861Z</time></trkpt><trkpt lat="45.0180505" lon="6.8968432"><ele>2327.0</ele><time>2026-04-03T11:32:11.86Z</time></trkpt><trkpt lat="45.018025" lon="6.8969266"><ele>2327.0</ele><time>2026-04-03T11:32:14.855Z</time></trkpt><trkpt lat="45.0179952" lon="6.8970287"><ele>2327.0</ele><time>2026-04-03T11:32:18.87Z</time></trkpt><trkpt lat="45.0179643" lon="6.8971358"><ele>2327.0</ele><time>2026-04-03T11:32:22.862Z</time></trkpt><trkpt lat="45.0179291" lon="6.8972437"><ele>2330.0</ele><time>2026-04-03T11:32:26.86Z</time></trkpt><trkpt lat="45.0178972" lon="6.8973524"><ele>2333.0</ele><time>2026-04-03T11:32:30.868Z</time></trkpt><trkpt lat="45.0178639" lon="6.8974576"><ele>2336.0</ele><time>2026-04-03T11:32:34.862Z</time></trkpt><trkpt lat="45.0178322" lon="6.8975667"><ele>2339.0</ele><time>2026-04-03T11:32:38.857Z</time></trkpt><trkpt lat="45.0178005" lon="6.8976749"><ele>2342.0</ele><time>2026-04-03T11:32:42.856Z</time></trkpt><trkpt lat="45.0177752" lon="6.8977574"><ele>2345.0</ele><time>2026-04-03T11:32:45.859Z</time></trkpt><trkpt lat="45.0177431" lon="6.897866"><ele>2348.6666666666665</ele><time>2026-04-03T11:32:49.861Z</time></trkpt><trkpt lat="45.0177191" lon="6.897949"><ele>2352.333333333333</ele><time>2026-04-03T11:32:52.852Z</time></trkpt><trkpt lat="45.0176834" lon="6.8980607"><ele>2356.0</ele><time>2026-04-03T11:32:56.861Z</time></trkpt><trkpt lat="45.0176514" lon="6.8981652"><ele>2359.6666666666665</ele><time>2026-04-03T11:32:59.855Z</time></trkpt><trkpt lat="45.0176237" lon="6.8982685"><ele>2363.3333333333335</ele><time>2026-04-03T11:33:02.854Z</time></trkpt><trkpt lat="45.0175937" lon="6.8983647"><ele>2367.0</ele><time>2026-04-03T11:33:05.856Z</time></trkpt><trkpt lat="45.0175657" lon="6.8984622"><ele>2370.5</ele><time>2026-04-03T11:33:08.861Z</time></trkpt><trkpt lat="45.0175362" lon="6.8985619"><ele>2374.0</ele><time>2026-04-03T11:33:11.867Z</time></trkpt><trkpt lat="45.0175022" lon="6.8986701"><ele>2377.5</ele><time>2026-04-03T11:33:14.863Z</time></trkpt><trkpt lat="45.017472" lon="6.8987814"><ele>2381.0</ele><time>2026-04-03T11:33:17.862Z</time></trkpt><trkpt lat="45.0174393" lon="6.8988832"><ele>2384.5</ele><time>2026-04-03T11:33:20.87Z</time></trkpt><trkpt lat="45.0174089" lon="6.898981"><ele>2388.0</ele><time>2026-04-03T11:33:23.872Z</time></trkpt><trkpt lat="45.017382" lon="6.899076"><ele>2389.714285714286</ele><time>2026-04-03T11:33:26.868Z</time></trkpt><trkpt lat="45.0173575" lon="6.8991691"><ele>2391.4285714285716</ele><time>2026-04-03T11:33:29.867Z</time></trkpt><trkpt lat="45.0173309" lon="6.8992606"><ele>2393.142857142857</ele><time>2026-04-03T11:33:32.859Z</time></trkpt><trkpt lat="45.0173016" lon="6.8993565"><ele>2394.857142857143</ele><time>2026-04-03T11:33:35.857Z</time></trkpt><trkpt lat="45.0172725" lon="6.8994547"><ele>2396.5714285714284</ele><time>2026-04-03T11:33:38.872Z</time></trkpt><trkpt lat="45.0172449" lon="6.8995523"><ele>2398.285714285714</ele><time>2026-04-03T11:33:41.871Z</time></trkpt><trkpt lat="45.0172155" lon="6.8996594"><ele>2400.0</ele><time>2026-04-03T11:33:44.859Z</time></trkpt><trkpt lat="45.0171824" lon="6.8997608"><ele>2404.6666666666665</ele><time>2026-04-03T11:33:47.863Z</time></trkpt><trkpt lat="45.017151" lon="6.8998706"><ele>2409.3333333333335</ele><time>2026-04-03T11:33:50.861Z</time></trkpt><trkpt lat="45.0171205" lon="6.8999815"><ele>2414.0</ele><time>2026-04-03T11:33:53.865Z</time></trkpt><trkpt lat="45.0170885" lon="6.9000906"><ele>2418.666666666667</ele><time>2026-04-03T11:33:56.862Z</time></trkpt><trkpt lat="45.0170607" lon="6.9001938"><ele>2423.3333333333335</ele><time>2026-04-03T11:33:59.863Z</time></trkpt><trkpt lat="45.0170334" lon="6.9002905"><ele>2428.0</ele><time>2026-04-03T11:34:02.862Z</time></trkpt><trkpt lat="45.0170068" lon="6.900377"><ele>2431.142857142857</ele><time>2026-04-03T11:34:05.868Z</time></trkpt><trkpt lat="45.0169796" lon="6.9004664"><ele>2434.285714285714</ele><time>2026-04-03T11:34:08.865Z</time></trkpt><trkpt lat="45.0169386" lon="6.9005421"><ele>2437.4285714285716</ele><time>2026-04-03T11:34:11.87Z</time></trkpt><trkpt lat="45.0169074" lon="6.9006296"><ele>2440.5714285714284</ele><time>2026-04-03T11:34:14.85Z</time></trkpt><trkpt lat="45.0168858" lon="6.9007351"><ele>2443.714285714286</ele><time>2026-04-03T11:34:17.857Z</time></trkpt><trkpt lat="45.016866" lon="6.9008444"><ele>2446.8571428571427</ele><time>2026-04-03T11:34:20.865Z</time></trkpt><trkpt lat="45.0168438" lon="6.9009503"><ele>2450.0</ele><time>2026-04-03T11:34:23.862Z</time></trkpt><trkpt lat="45.0168169" lon="6.901052"><ele>2452.285714285714</ele><time>2026-04-03T11:34:26.87Z</time></trkpt><trkpt lat="45.0167888" lon="6.9011494"><ele>2454.5714285714284</ele><time>2026-04-03T11:34:29.857Z</time></trkpt><trkpt lat="45.0167796" lon="6.9012445"><ele>2456.857142857143</ele><time>2026-04-03T11:34:33.853Z</time></trkpt><trkpt lat="45.0168321" lon="6.9013053"><ele>2459.142857142857</ele><time>2026-04-03T11:34:47.865Z</time></trkpt><trkpt lat="45.0168716" lon="6.9013818"><ele>2461.4285714285716</ele><time>2026-04-03T11:34:51.855Z</time></trkpt><trkpt lat="45.016924" lon="6.9014644"><ele>2463.714285714286</ele><time>2026-04-03T11:34:54.855Z</time></trkpt><trkpt lat="45.0169868" lon="6.9014994"><ele>2466.0</ele><time>2026-04-03T11:35:25.848Z</time></trkpt><trkpt lat="45.0170706" lon="6.9015175"><ele>2466.0</ele><time>2026-04-03T11:35:29.867Z</time></trkpt><trkpt lat="45.0171448" lon="6.9015209"><ele>2466.0</ele><time>2026-04-03T11:35:32.866Z</time></trkpt><trkpt lat="45.0172165" lon="6.9015107"><ele>2466.0</ele><time>2026-04-03T11:35:35.863Z</time></trkpt><trkpt lat="45.0172921" lon="6.9015152"><ele>2466.0</ele><time>2026-04-03T11:35:38.859Z</time></trkpt><trkpt lat="45.0173503" lon="6.9014777"><ele>2466.0</ele><time>2026-04-03T11:35:40.861Z</time></trkpt><trkpt lat="45.0174127" lon="6.9014564"><ele>2466.0</ele><time>2026-04-03T11:35:42.859Z</time></trkpt><trkpt lat="45.017493" lon="6.9014623"><ele>2466.0</ele><time>2026-04-03T11:35:44.864Z</time></trkpt><trkpt lat="45.0175993" lon="6.9014067"><ele>2464.285714285714</ele><time>2026-04-03T11:35:46.866Z</time></trkpt><trkpt lat="45.0176564" lon="6.9013666"><ele>2462.5714285714284</ele><time>2026-04-03T11:35:47.868Z</time></trkpt><trkpt lat="45.0177229" lon="6.9013531"><ele>2460.857142857143</ele><time>2026-04-03T11:35:48.857Z</time></trkpt><trkpt lat="45.0177863" lon="6.9013318"><ele>2459.142857142857</ele><time>2026-04-03T11:35:49.867Z</time></trkpt><trkpt lat="45.0178549" lon="6.9012978"><ele>2457.428571428571</ele><time>2026-04-03T11:35:50.858Z</time></trkpt><trkpt lat="45.0179285" lon="6.9012405"><ele>2455.714285714286</ele><time>2026-04-03T11:35:51.865Z</time></trkpt><trkpt lat="45.0179922" lon="6.9012551"><ele>2454.0</ele><time>2026-04-03T11:35:52.866Z</time></trkpt><trkpt lat="45.018068" lon="6.9012504"><ele>2454.0</ele><time>2026-04-03T11:35:53.865Z</time></trkpt><trkpt lat="45.0181579" lon="6.9012295"><ele>2454.0</ele><time>2026-04-03T11:35:54.866Z</time></trkpt><trkpt lat="45.0181962" lon="6.9010739"><ele>2454.0</ele><time>2026-04-03T11:35:55.862Z</time></trkpt><trkpt lat="45.018266" lon="6.9010081"><ele>2454.0</ele><time>2026-04-03T11:35:56.861Z</time></trkpt><trkpt lat="45.0183434" lon="6.9010746"><ele>2454.0</ele><time>2026-04-03T11:35:57.857Z</time></trkpt><trkpt lat="45.018416" lon="6.901068"><ele>2451.6</ele><time>2026-04-03T11:35:58.856Z</time></trkpt><trkpt lat="45.0184795" lon="6.9010453"><ele>2449.2</ele><time>2026-04-03T11:35:59.858Z</time></trkpt><trkpt lat="45.018563" lon="6.9009812"><ele>2446.7999999999997</ele><time>2026-04-03T11:36:01.862Z</time></trkpt><trkpt lat="45.0186124" lon="6.9009178"><ele>2444.4</ele><time>2026-04-03T11:36:02.86Z</time></trkpt><trkpt lat="45.0187248" lon="6.900843"><ele>2442.0</ele><time>2026-04-03T11:36:04.858Z</time></trkpt><trkpt lat="45.0188315" lon="6.9008504"><ele>2439.6666666666665</ele><time>2026-04-03T11:36:05.869Z</time></trkpt><trkpt lat="45.0189094" lon="6.9008994"><ele>2437.3333333333335</ele><time>2026-04-03T11:36:06.856Z</time></trkpt><trkpt lat="45.0189791" lon="6.9008986"><ele>2435.0</ele><time>2026-04-03T11:36:07.863Z</time></trkpt><trkpt lat="45.0190508" lon="6.9009064"><ele>2432.666666666667</ele><time>2026-04-03T11:36:08.857Z</time></trkpt><trkpt lat="45.0191025" lon="6.9008097"><ele>2430.3333333333335</ele><time>2026-04-03T11:36:09.853Z</time></trkpt><trkpt lat="45.0191489" lon="6.9007358"><ele>2428.0</ele><time>2026-04-03T11:36:10.859Z</time></trkpt><trkpt lat="45.0192067" lon="6.9006246"><ele>2420.0</ele><time>2026-04-03T11:36:11.859Z</time></trkpt><trkpt lat="45.0193286" lon="6.9005991"><ele>2412.0</ele><time>2026-04-03T11:36:12.856Z</time></trkpt><trkpt lat="45.0193886" lon="6.9004653"><ele>2404.0</ele><time>2026-04-03T11:36:13.862Z</time></trkpt><trkpt lat="45.0194591" lon="6.9003398"><ele>2396.0</ele><time>2026-04-03T11:36:14.851Z</time></trkpt><trkpt lat="45.0195581" lon="6.9001786"><ele>2392.0</ele><time>2026-04-03T11:36:15.858Z</time></trkpt><trkpt lat="45.0196812" lon="6.9000747"><ele>2388.0</ele><time>2026-04-03T11:36:16.865Z</time></trkpt><trkpt lat="45.0198568" lon="6.8999967"><ele>2384.0</ele><time>2026-04-03T11:36:17.853Z</time></trkpt><trkpt lat="45.0199863" lon="6.8998965"><ele>2377.2</ele><time>2026-04-03T11:36:18.848Z</time></trkpt><trkpt lat="45.0200676" lon="6.8997714"><ele>2370.4</ele><time>2026-04-03T11:36:19.866Z</time></trkpt><trkpt lat="45.0201186" lon="6.8996651"><ele>2363.6</ele><time>2026-04-03T11:36:20.864Z</time></trkpt><trkpt lat="45.0201403" lon="6.8994935"><ele>2356.8</ele><time>2026-04-03T11:36:21.859Z</time></trkpt><trkpt lat="45.0202043" lon="6.8993609"><ele>2350.0</ele><time>2026-04-03T11:36:22.863Z</time></trkpt><trkpt lat="45.020274" lon="6.8992196"><ele>2344.3333333333335</ele><time>2026-04-03T11:36:23.858Z</time></trkpt><trkpt lat="45.0204068" lon="6.8990772"><ele>2338.6666666666665</ele><time>2026-04-03T11:36:24.854Z</time></trkpt><trkpt lat="45.0205091" lon="6.89888"><ele>2333.0</ele><time>2026-04-03T11:36:25.868Z</time></trkpt><trkpt lat="45.0205844" lon="6.8987045"><ele>2333.0</ele><time>2026-04-03T11:36:26.862Z</time></trkpt><trkpt lat="45.0206027" lon="6.8984961"><ele>2333.0</ele><time>2026-04-03T11:36:27.872Z</time></trkpt><trkpt lat="45.0206351" lon="6.8982961"><ele>2333.0</ele><time>2026-04-03T11:36:28.86Z</time></trkpt><trkpt lat="45.0206216" lon="6.8980974"><ele>2333.0</ele><time>2026-04-03T11:36:29.858Z</time></trkpt><trkpt lat="45.0206038" lon="6.8978985"><ele>2329.75</ele><time>2026-04-03T11:36:30.867Z</time></trkpt><trkpt lat="45.0206321" lon="6.8976766"><ele>2326.5</ele><time>2026-04-03T11:36:31.859Z</time></trkpt><trkpt lat="45.020619" lon="6.8974955"><ele>2323.25</ele><time>2026-04-03T11:36:32.861Z</time></trkpt><trkpt lat="45.020591" lon="6.8973119"><ele>2320.0</ele><time>2026-04-03T11:36:33.858Z</time></trkpt><trkpt lat="45.0205702" lon="6.8971259"><ele>2316.75</ele><time>2026-04-03T11:36:34.864Z</time></trkpt><trkpt lat="45.0205439" lon="6.8969415"><ele>2313.5</ele><time>2026-04-03T11:36:35.856Z</time></trkpt><trkpt lat="45.0204753" lon="6.8968007"><ele>2310.25</ele><time>2026-04-03T11:36:36.855Z</time></trkpt><trkpt lat="45.0203814" lon="6.896629"><ele>2307.0</ele><time>2026-04-03T11:36:37.869Z</time></trkpt><trkpt lat="45.0203322" lon="6.896485"><ele>2302.5</ele><time>2026-04-03T11:36:38.853Z</time></trkpt><trkpt lat="45.0202224" lon="6.8962993"><ele>2298.0</ele><time>2026-04-03T11:36:40.861Z</time></trkpt><trkpt lat="45.0201233" lon="6.8961576"><ele>2293.5</ele><time>2026-04-03T11:36:41.864Z</time></trkpt><trkpt lat="45.020035" lon="6.8960259"><ele>2289.0</ele><time>2026-04-03T11:36:42.855Z</time></trkpt><trkpt lat="45.0199418" lon="6.8959144"><ele>2285.5</ele><time>2026-04-03T11:36:43.873Z</time></trkpt><trkpt lat="45.0198613" lon="6.895802"><ele>2282.0</ele><time>2026-04-03T11:36:44.864Z</time></trkpt><trkpt lat="45.0198399" lon="6.8956003"><ele>2278.5</ele><time>2026-04-03T11:36:45.851Z</time></trkpt><trkpt lat="45.01984" lon="6.8953461"><ele>2275.0</ele><time>2026-04-03T11:36:46.857Z</time></trkpt><trkpt lat="45.019894" lon="6.8950762"><ele>2271.8</ele><time>2026-04-03T11:36:47.866Z</time></trkpt><trkpt lat="45.01985" lon="6.8948829"><ele>2268.6</ele><time>2026-04-03T11:36:48.852Z</time></trkpt><trkpt lat="45.019789" lon="6.8948324"><ele>2265.4</ele><time>2026-04-03T11:36:49.858Z</time></trkpt><trkpt lat="45.0197175" lon="6.8947388"><ele>2262.2</ele><time>2026-04-03T11:36:50.854Z</time></trkpt><trkpt lat="45.0196419" lon="6.8946234"><ele>2259.0</ele><time>2026-04-03T11:36:51.86Z</time></trkpt><trkpt lat="45.0196087" lon="6.8944668"><ele>2259.0</ele><time>2026-04-03T11:36:52.858Z</time></trkpt><trkpt lat="45.0195427" lon="6.8943148"><ele>2259.0</ele><time>2026-04-03T11:36:53.869Z</time></trkpt><trkpt lat="45.0195118" lon="6.8940878"><ele>2259.0</ele><time>2026-04-03T11:36:54.866Z</time></trkpt><trkpt lat="45.0195066" lon="6.8939406"><ele>2259.0</ele><time>2026-04-03T11:36:55.857Z</time></trkpt><trkpt lat="45.0194798" lon="6.8937272"><ele>2252.3333333333335</ele><time>2026-04-03T11:36:56.865Z</time></trkpt><trkpt lat="45.019501" lon="6.8934388"><ele>2245.666666666667</ele><time>2026-04-03T11:36:57.872Z</time></trkpt><trkpt lat="45.0195004" lon="6.893305"><ele>2239.0</ele><time>2026-04-03T11:36:58.867Z</time></trkpt><trkpt lat="45.0194839" lon="6.8930905"><ele>2234.0</ele><time>2026-04-03T11:36:59.851Z</time></trkpt><trkpt lat="45.0194375" lon="6.892953"><ele>2229.0</ele><time>2026-04-03T11:37:00.868Z</time></trkpt><trkpt lat="45.019433" lon="6.8928415"><ele>2224.0</ele><time>2026-04-03T11:37:01.861Z</time></trkpt><trkpt lat="45.0194643" lon="6.8925807"><ele>2219.0</ele><time>2026-04-03T11:37:03.852Z</time></trkpt><trkpt lat="45.0195432" lon="6.8924534"><ele>2215.0</ele><time>2026-04-03T11:37:04.87Z</time></trkpt><trkpt lat="45.0195595" lon="6.8922677"><ele>2211.0</ele><time>2026-04-03T11:37:05.861Z</time></trkpt><trkpt lat="45.0195794" lon="6.892167"><ele>2207.0</ele><time>2026-04-03T11:37:06.85Z</time></trkpt><trkpt lat="45.0195414" lon="6.8920395"><ele>2203.0</ele><time>2026-04-03T11:37:07.861Z</time></trkpt><trkpt lat="45.0195118" lon="6.8918916"><ele>2199.0</ele><time>2026-04-03T11:37:08.864Z</time></trkpt><trkpt lat="45.0194541" lon="6.8918463"><ele>2199.0</ele><time>2026-04-03T11:37:09.861Z</time></trkpt><trkpt lat="45.019318" lon="6.8918796"><ele>2199.0</ele><time>2026-04-03T11:37:11.862Z</time></trkpt><trkpt lat="45.019254" lon="6.8919541"><ele>2199.0</ele><time>2026-04-03T11:37:12.866Z</time></trkpt><trkpt lat="45.0193226" lon="6.891982"><ele>2199.0</ele><time>2026-04-03T11:37:41.856Z</time></trkpt><trkpt lat="45.0193437" lon="6.8920665"><ele>2199.0</ele><time>2026-04-03T11:37:52.864Z</time></trkpt><trkpt lat="45.0194057" lon="6.8920843"><ele>2199.0</ele><time>2026-04-03T11:38:00.866Z</time></trkpt><trkpt lat="45.0193981" lon="6.8921815"><ele>2199.0</ele><time>2026-04-03T11:38:15.852Z</time></trkpt><trkpt lat="45.0193676" lon="6.8923057"><ele>2199.0</ele><time>2026-04-03T11:38:18.86Z</time></trkpt><trkpt lat="45.0193345" lon="6.89242"><ele>2199.0</ele><time>2026-04-03T11:38:21.858Z</time></trkpt><trkpt lat="45.0192961" lon="6.8925097"><ele>2199.0</ele><time>2026-04-03T11:38:24.873Z</time></trkpt><trkpt lat="45.0192589" lon="6.8926145"><ele>2199.0</ele><time>2026-04-03T11:38:27.858Z</time></trkpt><trkpt lat="45.019228" lon="6.8927108"><ele>2199.0</ele><time>2026-04-03T11:38:30.863Z</time></trkpt><trkpt lat="45.0191935" lon="6.8928029"><ele>2202.3333333333335</ele><time>2026-04-03T11:38:33.856Z</time></trkpt><trkpt lat="45.0191655" lon="6.8929093"><ele>2205.6666666666665</ele><time>2026-04-03T11:38:36.864Z</time></trkpt><trkpt lat="45.019134" lon="6.8930154"><ele>2209.0</ele><time>2026-04-03T11:38:39.872Z</time></trkpt><trkpt lat="45.0191017" lon="6.893123"><ele>2212.333333333333</ele><time>2026-04-03T11:38:42.868Z</time></trkpt><trkpt lat="45.0190767" lon="6.8932221"><ele>2215.6666666666665</ele><time>2026-04-03T11:38:45.87Z</time></trkpt><trkpt lat="45.0190488" lon="6.8933198"><ele>2219.0</ele><time>2026-04-03T11:38:48.861Z</time></trkpt><trkpt lat="45.019024" lon="6.8934175"><ele>2223.6666666666665</ele><time>2026-04-03T11:38:51.859Z</time></trkpt><trkpt lat="45.0189991" lon="6.8935131"><ele>2228.333333333333</ele><time>2026-04-03T11:38:54.856Z</time></trkpt><trkpt lat="45.0189655" lon="6.8936354"><ele>2233.0</ele><time>2026-04-03T11:38:57.859Z</time></trkpt><trkpt lat="45.0189385" lon="6.8937429"><ele>2237.6666666666665</ele><time>2026-04-03T11:39:00.865Z</time></trkpt><trkpt lat="45.0189136" lon="6.8938346"><ele>2242.3333333333335</ele><time>2026-04-03T11:39:03.855Z</time></trkpt><trkpt lat="45.0188856" lon="6.8939466"><ele>2247.0</ele><time>2026-04-03T11:39:07.864Z</time></trkpt><trkpt lat="45.0188627" lon="6.8940372"><ele>2247.0</ele><time>2026-04-03T11:39:10.861Z</time></trkpt><trkpt lat="45.0188391" lon="6.8941249"><ele>2247.0</ele><time>2026-04-03T11:39:13.858Z</time></trkpt><trkpt lat="45.0188153" lon="6.8942163"><ele>2247.0</ele><time>2026-04-03T11:39:16.856Z</time></trkpt><trkpt lat="45.018791" lon="6.8943083"><ele>2247.0</ele><time>2026-04-03T11:39:19.858Z</time></trkpt><trkpt lat="45.0187588" lon="6.8944165"><ele>2247.0</ele><time>2026-04-03T11:39:23.861Z</time></trkpt><trkpt lat="45.0187344" lon="6.8945126"><ele>2247.0</ele><time>2026-04-03T11:39:26.863Z</time></trkpt><trkpt lat="45.0187128" lon="6.8946007"><ele>2247.0</ele><time>2026-04-03T11:39:29.856Z</time></trkpt><trkpt lat="45.0186912" lon="6.8946863"><ele>2249.1428571428573</ele><time>2026-04-03T11:39:32.866Z</time></trkpt><trkpt lat="45.0186606" lon="6.8947881"><ele>2251.285714285714</ele><time>2026-04-03T11:39:36.861Z</time></trkpt><trkpt lat="45.0186314" lon="6.8948889"><ele>2253.4285714285716</ele><time>2026-04-03T11:39:40.866Z</time></trkpt><trkpt lat="45.018605" lon="6.8949757"><ele>2255.5714285714284</ele><time>2026-04-03T11:39:44.854Z</time></trkpt><trkpt lat="45.0185805" lon="6.8950743"><ele>2257.714285714286</ele><time>2026-04-03T11:39:48.861Z</time></trkpt><trkpt lat="45.0185499" lon="6.8951817"><ele>2259.857142857143</ele><time>2026-04-03T11:39:52.858Z</time></trkpt><trkpt lat="45.0185249" lon="6.8952714"><ele>2262.0</ele><time>2026-04-03T11:39:55.867Z</time></trkpt><trkpt lat="45.0184965" lon="6.89536"><ele>2264.571428571429</ele><time>2026-04-03T11:39:58.858Z</time></trkpt><trkpt lat="45.0184716" lon="6.8954471"><ele>2267.1428571428573</ele><time>2026-04-03T11:40:01.87Z</time></trkpt><trkpt lat="45.0184454" lon="6.8955337"><ele>2269.714285714286</ele><time>2026-04-03T11:40:04.868Z</time></trkpt><trkpt lat="45.0184116" lon="6.8956402"><ele>2272.2857142857147</ele><time>2026-04-03T11:40:08.865Z</time></trkpt><trkpt lat="45.0183868" lon="6.8957261"><ele>2274.857142857143</ele><time>2026-04-03T11:40:11.86Z</time></trkpt><trkpt lat="45.0183584" lon="6.8958242"><ele>2277.4285714285716</ele><time>2026-04-03T11:40:14.857Z</time></trkpt><trkpt lat="45.0183265" lon="6.8959272"><ele>2280.0</ele><time>2026-04-03T11:40:17.873Z</time></trkpt><trkpt lat="45.0182947" lon="6.8960359"><ele>2287.8333333333335</ele><time>2026-04-03T11:40:20.849Z</time></trkpt><trkpt lat="45.0182656" lon="6.8961299"><ele>2295.6666666666665</ele><time>2026-04-03T11:40:23.865Z</time></trkpt><trkpt lat="45.0182375" lon="6.8962431"><ele>2303.5</ele><time>2026-04-03T11:40:26.862Z</time></trkpt><trkpt lat="45.0182089" lon="6.8963396"><ele>2311.333333333333</ele><time>2026-04-03T11:40:29.851Z</time></trkpt><trkpt lat="45.0181769" lon="6.8964366"><ele>2319.1666666666665</ele><time>2026-04-03T11:40:32.869Z</time></trkpt><trkpt lat="45.0181484" lon="6.896524"><ele>2327.0</ele><time>2026-04-03T11:40:35.853Z</time></trkpt><trkpt lat="45.0181159" lon="6.8966211"><ele>2327.0</ele><time>2026-04-03T11:40:38.855Z</time></trkpt><trkpt lat="45.0180879" lon="6.8967179"><ele>2327.0</ele><time>2026-04-03T11:40:41.862Z</time></trkpt><trkpt lat="45.0180582" lon="6.8968048"><ele>2327.0</ele><time>2026-04-03T11:40:44.864Z</time></trkpt><trkpt lat="45.0180273" lon="6.8968956"><ele>2327.0</ele><time>2026-04-03T11:40:47.864Z</time></trkpt><trkpt lat="45.0180023" lon="6.8969888"><ele>2327.0</ele><time>2026-04-03T11:40:50.873Z</time></trkpt><trkpt lat="45.0179763" lon="6.8970822"><ele>2327.0</ele><time>2026-04-03T11:40:53.861Z</time></trkpt><trkpt lat="45.0179485" lon="6.8971767"><ele>2327.0</ele><time>2026-04-03T11:40:56.851Z</time></trkpt><trkpt lat="45.0179209" lon="6.8972739"><ele>2329.5714285714284</ele><time>2026-04-03T11:40:59.863Z</time></trkpt><trkpt lat="45.0178946" lon="6.8973749"><ele>2332.1428571428573</ele><time>2026-04-03T11:41:02.865Z</time></trkpt><trkpt lat="45.0178677" lon="6.8974628"><ele>2334.714285714286</ele><time>2026-04-03T11:41:05.858Z</time></trkpt><trkpt lat="45.0178376" lon="6.8975626"><ele>2337.285714285714</ele><time>2026-04-03T11:41:08.856Z</time></trkpt><trkpt lat="45.017807" lon="6.8976548"><ele>2339.857142857143</ele><time>2026-04-03T11:41:11.859Z</time></trkpt><trkpt lat="45.0177729" lon="6.8977486"><ele>2342.4285714285716</ele><time>2026-04-03T11:41:14.867Z</time></trkpt><trkpt lat="45.0177432" lon="6.8978455"><ele>2345.0</ele><time>2026-04-03T11:41:17.859Z</time></trkpt><trkpt lat="45.0177149" lon="6.8979465"><ele>2348.6666666666665</ele><time>2026-04-03T11:41:20.861Z</time></trkpt><trkpt lat="45.0176889" lon="6.8980491"><ele>2352.333333333333</ele><time>2026-04-03T11:41:23.863Z</time></trkpt><trkpt lat="45.0176583" lon="6.8981619"><ele>2356.0</ele><time>2026-04-03T11:41:26.858Z</time></trkpt><trkpt lat="45.0176306" lon="6.8982689"><ele>2359.6666666666665</ele><time>2026-04-03T11:41:29.862Z</time></trkpt><trkpt lat="45.0176025" lon="6.8983634"><ele>2363.3333333333335</ele><time>2026-04-03T11:41:32.864Z</time></trkpt><trkpt lat="45.0175737" lon="6.8984632"><ele>2367.0</ele><time>2026-04-03T11:41:35.863Z</time></trkpt><trkpt lat="45.0175422" lon="6.8985675"><ele>2370.5</ele><time>2026-04-03T11:41:38.866Z</time></trkpt><trkpt lat="45.0175079" lon="6.8986769"><ele>2374.0</ele><time>2026-04-03T11:41:41.859Z</time></trkpt><trkpt lat="45.017474" lon="6.8987801"><ele>2377.5</ele><time>2026-04-03T11:41:44.87Z</time></trkpt><trkpt lat="45.0174471" lon="6.8988628"><ele>2381.0</ele><time>2026-04-03T11:41:47.858Z</time></trkpt><trkpt lat="45.0174239" lon="6.8989538"><ele>2384.5</ele><time>2026-04-03T11:41:50.866Z</time></trkpt><trkpt lat="45.0173922" lon="6.8990381"><ele>2388.0</ele><time>2026-04-03T11:41:53.862Z</time></trkpt><trkpt lat="45.0173636" lon="6.8991559"><ele>2394.6666666666665</ele><time>2026-04-03T11:41:56.858Z</time></trkpt><trkpt lat="45.0173338" lon="6.8992524"><ele>2401.3333333333335</ele><time>2026-04-03T11:42:00.85Z</time></trkpt><trkpt lat="45.0173023" lon="6.8993491"><ele>2408.0</ele><time>2026-04-03T11:42:03.863Z</time></trkpt><trkpt lat="45.0172718" lon="6.899446"><ele>2414.666666666667</ele><time>2026-04-03T11:42:06.855Z</time></trkpt><trkpt lat="45.0172445" lon="6.8995416"><ele>2421.3333333333335</ele><time>2026-04-03T11:42:09.859Z</time></trkpt><trkpt lat="45.0172151" lon="6.8996446"><ele>2428.0</ele><time>2026-04-03T11:42:12.868Z</time></trkpt><trkpt lat="45.0171847" lon="6.8997513"><ele>2428.0</ele><time>2026-04-03T11:42:15.866Z</time></trkpt><trkpt lat="45.0171558" lon="6.8998633"><ele>2428.0</ele><time>2026-04-03T11:42:18.854Z</time></trkpt><trkpt lat="45.017125" lon="6.8999767"><ele>2428.0</ele><time>2026-04-03T11:42:21.86Z</time></trkpt><trkpt lat="45.0170948" lon="6.9000802"><ele>2428.0</ele><time>2026-04-03T11:42:24.853Z</time></trkpt><trkpt lat="45.017063" lon="6.9001758"><ele>2428.0</ele><time>2026-04-03T11:42:27.862Z</time></trkpt><trkpt lat="45.0170311" lon="6.9002645"><ele>2428.0</ele><time>2026-04-03T11:42:30.851Z</time></trkpt><trkpt lat="45.0170043" lon="6.900362"><ele>2431.666666666667</ele><time>2026-04-03T11:42:33.855Z</time></trkpt><trkpt lat="45.0169774" lon="6.9004586"><ele>2435.3333333333335</ele><time>2026-04-03T11:42:36.86Z</time></trkpt><trkpt lat="45.0169494" lon="6.9005593"><ele>2439.0</ele><time>2026-04-03T11:42:39.853Z</time></trkpt><trkpt lat="45.0169177" lon="6.9006552"><ele>2442.6666666666665</ele><time>2026-04-03T11:42:42.86Z</time></trkpt><trkpt lat="45.0168889" lon="6.9007553"><ele>2446.333333333333</ele><time>2026-04-03T11:42:45.856Z</time></trkpt><trkpt lat="45.0168599" lon="6.9008644"><ele>2450.0</ele><time>2026-04-03T11:42:48.866Z</time></trkpt><trkpt lat="45.0168274" lon="6.9009604"><ele>2452.285714285714</ele><time>2026-04-03T11:42:51.86Z</time></trkpt><trkpt lat="45.0167971" lon="6.9010578"><ele>2454.5714285714284</ele><time>2026-04-03T11:42:54.863Z</time></trkpt><trkpt lat="45.0167752" lon="6.9011504"><ele>2456.857142857143</ele><time>2026-04-03T11:42:57.864Z</time></trkpt><trkpt lat="45.0167087" lon="6.9011697"><ele>2459.142857142857</ele><time>2026-04-03T11:43:01.853Z</time></trkpt><trkpt lat="45.0166543" lon="6.9011245"><ele>2461.4285714285716</ele><time>2026-04-03T11:43:05.856Z</time></trkpt><trkpt lat="45.0165979" lon="6.9010785"><ele>2463.714285714286</ele><time>2026-04-03T11:44:18.863Z</time></trkpt><trkpt lat="45.016514" lon="6.9010455"><ele>2466.0</ele><time>2026-04-03T11:44:26.856Z</time></trkpt><trkpt lat="45.0164504" lon="6.9010087"><ele>2465.0</ele><time>2026-04-03T11:44:28.861Z</time></trkpt><trkpt lat="45.0163834" lon="6.9009675"><ele>2464.0</ele><time>2026-04-03T11:44:30.865Z</time></trkpt><trkpt lat="45.0163147" lon="6.9009207"><ele>2463.0</ele><time>2026-04-03T11:44:32.857Z</time></trkpt><trkpt lat="45.016251" lon="6.9008768"><ele>2462.0</ele><time>2026-04-03T11:44:34.859Z</time></trkpt><trkpt lat="45.0161893" lon="6.9008199"><ele>2461.0</ele><time>2026-04-03T11:44:36.869Z</time></trkpt><trkpt lat="45.0161282" lon="6.9007594"><ele>2460.0</ele><time>2026-04-03T11:44:38.861Z</time></trkpt><trkpt lat="45.0160605" lon="6.9006946"><ele>2460.0</ele><time>2026-04-03T11:44:41.857Z</time></trkpt><trkpt lat="45.0160093" lon="6.9006356"><ele>2460.0</ele><time>2026-04-03T11:45:02.869Z</time></trkpt><trkpt lat="45.0159428" lon="6.9006135"><ele>2460.0</ele><time>2026-04-03T11:45:05.864Z</time></trkpt><trkpt lat="45.0158606" lon="6.9005721"><ele>2460.0</ele><time>2026-04-03T11:45:07.855Z</time></trkpt><trkpt lat="45.0157663" lon="6.9005286"><ele>2460.0</ele><time>2026-04-03T11:45:09.854Z</time></trkpt><trkpt lat="45.0156771" lon="6.900488"><ele>2460.0</ele><time>2026-04-03T11:45:11.861Z</time></trkpt><trkpt lat="45.015585" lon="6.9004453"><ele>2461.0</ele><time>2026-04-03T11:45:13.858Z</time></trkpt><trkpt lat="45.0154785" lon="6.9004048"><ele>2462.0</ele><time>2026-04-03T11:45:15.867Z</time></trkpt><trkpt lat="45.0153605" lon="6.9003648"><ele>2463.0</ele><time>2026-04-03T11:45:17.853Z</time></trkpt><trkpt lat="45.0152577" lon="6.9003071"><ele>2464.0</ele><time>2026-04-03T11:45:19.854Z</time></trkpt><trkpt lat="45.0151861" lon="6.9002288"><ele>2465.0</ele><time>2026-04-03T11:45:21.862Z</time></trkpt><trkpt lat="45.0151361" lon="6.900135"><ele>2465.0</ele><time>2026-04-03T11:45:23.86Z</time></trkpt><trkpt lat="45.0150925" lon="6.9000328"><ele>2465.0</ele><time>2026-04-03T11:45:25.866Z</time></trkpt><trkpt lat="45.0150575" lon="6.8999317"><ele>2465.0</ele><time>2026-04-03T11:45:27.868Z</time></trkpt><trkpt lat="45.0150242" lon="6.8998402"><ele>2465.0</ele><time>2026-04-03T11:45:29.867Z</time></trkpt><trkpt lat="45.0149895" lon="6.8997534"><ele>2465.0</ele><time>2026-04-03T11:45:31.861Z</time></trkpt><trkpt lat="45.0149608" lon="6.8996721"><ele>2465.0</ele><time>2026-04-03T11:45:33.853Z</time></trkpt><trkpt lat="45.0149097" lon="6.8995614"><ele>2465.0</ele><time>2026-04-03T11:45:36.857Z</time></trkpt><trkpt lat="45.0148612" lon="6.8994716"><ele>2465.0</ele><time>2026-04-03T11:45:38.858Z</time></trkpt><trkpt lat="45.0147836" lon="6.8993895"><ele>2465.0</ele><time>2026-04-03T11:45:40.871Z</time></trkpt><trkpt lat="45.0147047" lon="6.8993045"><ele>2465.0</ele><time>2026-04-03T11:45:42.866Z</time></trkpt><trkpt lat="45.0146232" lon="6.8992054"><ele>2465.0</ele><time>2026-04-03T11:45:44.866Z</time></trkpt><trkpt lat="45.0145325" lon="6.8990992"><ele>2462.5</ele><time>2026-04-03T11:45:46.866Z</time></trkpt><trkpt lat="45.014463" lon="6.8990107"><ele>2460.0</ele><time>2026-04-03T11:45:48.861Z</time></trkpt><trkpt lat="45.0144576" lon="6.8989203"><ele>2457.5</ele><time>2026-04-03T11:45:50.861Z</time></trkpt><trkpt lat="45.0145461" lon="6.8988547"><ele>2455.0</ele><time>2026-04-03T11:46:22.856Z</time></trkpt><trkpt lat="45.0145853" lon="6.8987827"><ele>2452.5</ele><time>2026-04-03T11:46:23.862Z</time></trkpt><trkpt lat="45.0145854" lon="6.8986901"><ele>2450.0</ele><time>2026-04-03T11:46:24.865Z</time></trkpt><trkpt lat="45.0145908" lon="6.8985993"><ele>2450.0</ele><time>2026-04-03T11:46:25.852Z</time></trkpt><trkpt lat="45.0145286" lon="6.8984868"><ele>2450.0</ele><time>2026-04-03T11:46:26.862Z</time></trkpt><trkpt lat="45.0145613" lon="6.8983631"><ele>2450.0</ele><time>2026-04-03T11:46:27.866Z</time></trkpt><trkpt lat="45.0146414" lon="6.8983179"><ele>2450.0</ele><time>2026-04-03T11:46:28.863Z</time></trkpt><trkpt lat="45.0147001" lon="6.8982473"><ele>2450.0</ele><time>2026-04-03T11:46:29.858Z</time></trkpt><trkpt lat="45.0147586" lon="6.8982099"><ele>2450.0</ele><time>2026-04-03T11:46:30.852Z</time></trkpt><trkpt lat="45.0148634" lon="6.8981812"><ele>2446.0</ele><time>2026-04-03T11:46:31.851Z</time></trkpt><trkpt lat="45.014945" lon="6.8981193"><ele>2442.0</ele><time>2026-04-03T11:46:32.858Z</time></trkpt><trkpt lat="45.0150097" lon="6.8980474"><ele>2438.0</ele><time>2026-04-03T11:46:33.86Z</time></trkpt><trkpt lat="45.0150172" lon="6.8978525"><ele>2434.0</ele><time>2026-04-03T11:46:34.851Z</time></trkpt><trkpt lat="45.0151277" lon="6.897799"><ele>2430.0</ele><time>2026-04-03T11:46:35.862Z</time></trkpt><trkpt lat="45.0152129" lon="6.8977274"><ele>2426.8</ele><time>2026-04-03T11:46:36.854Z</time></trkpt><trkpt lat="45.0153312" lon="6.8977237"><ele>2423.6</ele><time>2026-04-03T11:46:37.858Z</time></trkpt><trkpt lat="45.0154215" lon="6.8976799"><ele>2420.4</ele><time>2026-04-03T11:46:38.865Z</time></trkpt><trkpt lat="45.0155243" lon="6.8976135"><ele>2417.2</ele><time>2026-04-03T11:46:39.861Z</time></trkpt><trkpt lat="45.0156283" lon="6.8975423"><ele>2414.0</ele><time>2026-04-03T11:46:40.851Z</time></trkpt><trkpt lat="45.0155773" lon="6.8972751"><ele>2408.25</ele><time>2026-04-03T11:46:41.864Z</time></trkpt><trkpt lat="45.015647" lon="6.8971313"><ele>2402.5</ele><time>2026-04-03T11:46:42.867Z</time></trkpt><trkpt lat="45.0157038" lon="6.8969953"><ele>2396.75</ele><time>2026-04-03T11:46:43.867Z</time></trkpt><trkpt lat="45.0157716" lon="6.8969717"><ele>2391.0</ele><time>2026-04-03T11:46:44.864Z</time></trkpt><trkpt lat="45.0159364" lon="6.8971224"><ele>2388.5</ele><time>2026-04-03T11:46:45.851Z</time></trkpt><trkpt lat="45.0159921" lon="6.89702"><ele>2386.0</ele><time>2026-04-03T11:46:46.871Z</time></trkpt><trkpt lat="45.0160408" lon="6.8969449"><ele>2383.5</ele><time>2026-04-03T11:46:47.87Z</time></trkpt><trkpt lat="45.0160845" lon="6.8968433"><ele>2381.0</ele><time>2026-04-03T11:46:48.859Z</time></trkpt><trkpt lat="45.016107" lon="6.8966969"><ele>2378.5</ele><time>2026-04-03T11:46:49.854Z</time></trkpt><trkpt lat="45.0161596" lon="6.8966057"><ele>2376.0</ele><time>2026-04-03T11:46:50.863Z</time></trkpt><trkpt lat="45.0163653" lon="6.8966141"><ele>2369.5</ele><time>2026-04-03T11:46:52.852Z</time></trkpt><trkpt lat="45.0164892" lon="6.8965787"><ele>2363.0</ele><time>2026-04-03T11:46:53.864Z</time></trkpt><trkpt lat="45.0165953" lon="6.8965312"><ele>2356.5</ele><time>2026-04-03T11:46:54.857Z</time></trkpt><trkpt lat="45.0166853" lon="6.8964609"><ele>2350.0</ele><time>2026-04-03T11:46:55.866Z</time></trkpt><trkpt lat="45.0166111" lon="6.8962307"><ele>2350.0</ele><time>2026-04-03T11:46:57.863Z</time></trkpt><trkpt lat="45.0166183" lon="6.8961233"><ele>2350.0</ele><time>2026-04-03T11:46:58.861Z</time></trkpt><trkpt lat="45.0166318" lon="6.8959246"><ele>2350.0</ele><time>2026-04-03T11:46:59.86Z</time></trkpt><trkpt lat="45.0166202" lon="6.895764"><ele>2350.0</ele><time>2026-04-03T11:47:00.861Z</time></trkpt><trkpt lat="45.0165292" lon="6.895601"><ele>2345.25</ele><time>2026-04-03T11:47:01.862Z</time></trkpt><trkpt lat="45.0164702" lon="6.8955007"><ele>2340.5</ele><time>2026-04-03T11:47:02.862Z</time></trkpt><trkpt lat="45.0164104" lon="6.8953597"><ele>2335.75</ele><time>2026-04-03T11:47:03.859Z</time></trkpt><trkpt lat="45.0163815" lon="6.8951829"><ele>2331.0</ele><time>2026-04-03T11:47:04.859Z</time></trkpt><trkpt lat="45.0166247" lon="6.8951103"><ele>2321.5</ele><time>2026-04-03T11:47:05.853Z</time></trkpt><trkpt lat="45.0167072" lon="6.895031"><ele>2312.0</ele><time>2026-04-03T11:47:06.866Z</time></trkpt><trkpt lat="45.0168165" lon="6.8949406"><ele>2302.5</ele><time>2026-04-03T11:47:07.862Z</time></trkpt><trkpt lat="45.0169737" lon="6.8949364"><ele>2293.0</ele><time>2026-04-03T11:47:08.863Z</time></trkpt><trkpt lat="45.0170815" lon="6.8947747"><ele>2293.0</ele><time>2026-04-03T11:47:09.853Z</time></trkpt><trkpt lat="45.0172238" lon="6.8946522"><ele>2293.0</ele><time>2026-04-03T11:47:10.853Z</time></trkpt><trkpt lat="45.0173531" lon="6.8944916"><ele>2293.0</ele><time>2026-04-03T11:47:11.864Z</time></trkpt><trkpt lat="45.0175005" lon="6.8944601"><ele>2288.666666666667</ele><time>2026-04-03T11:47:12.852Z</time></trkpt><trkpt lat="45.0176453" lon="6.8944149"><ele>2284.3333333333335</ele><time>2026-04-03T11:47:13.856Z</time></trkpt><trkpt lat="45.0178017" lon="6.8943762"><ele>2280.0</ele><time>2026-04-03T11:47:14.86Z</time></trkpt><trkpt lat="45.0179646" lon="6.8943434"><ele>2280.0</ele><time>2026-04-03T11:47:15.852Z</time></trkpt><trkpt lat="45.018112" lon="6.8942733"><ele>2280.0</ele><time>2026-04-03T11:47:16.852Z</time></trkpt><trkpt lat="45.0181266" lon="6.8941845"><ele>2280.0</ele><time>2026-04-03T11:47:17.858Z</time></trkpt><trkpt lat="45.0182268" lon="6.8940471"><ele>2280.0</ele><time>2026-04-03T11:47:18.866Z</time></trkpt><trkpt lat="45.0182453" lon="6.8938747"><ele>2271.75</ele><time>2026-04-03T11:47:19.857Z</time></trkpt><trkpt lat="45.0183182" lon="6.8937444"><ele>2263.5</ele><time>2026-04-03T11:47:20.868Z</time></trkpt><trkpt lat="45.0183564" lon="6.8935812"><ele>2255.25</ele><time>2026-04-03T11:47:21.864Z</time></trkpt><trkpt lat="45.0184203" lon="6.8934373"><ele>2247.0</ele><time>2026-04-03T11:47:22.858Z</time></trkpt><trkpt lat="45.0184467" lon="6.8932879"><ele>2242.75</ele><time>2026-04-03T11:47:23.859Z</time></trkpt><trkpt lat="45.0184332" lon="6.8931025"><ele>2238.5</ele><time>2026-04-03T11:47:24.854Z</time></trkpt><trkpt lat="45.0184882" lon="6.8929525"><ele>2234.25</ele><time>2026-04-03T11:47:25.853Z</time></trkpt><trkpt lat="45.0185658" lon="6.8928454"><ele>2230.0</ele><time>2026-04-03T11:47:26.86Z</time></trkpt><trkpt lat="45.0186539" lon="6.8927715"><ele>2230.0</ele><time>2026-04-03T11:47:27.86Z</time></trkpt><trkpt lat="45.0187394" lon="6.8926856"><ele>2230.0</ele><time>2026-04-03T11:47:28.869Z</time></trkpt><trkpt lat="45.0187919" lon="6.8925648"><ele>2230.0</ele><time>2026-04-03T11:47:29.864Z</time></trkpt><trkpt lat="45.0188089" lon="6.8924318"><ele>2230.0</ele><time>2026-04-03T11:47:30.869Z</time></trkpt><trkpt lat="45.0188026" lon="6.8923098"><ele>2230.0</ele><time>2026-04-03T11:47:31.851Z</time></trkpt><trkpt lat="45.0187831" lon="6.8921914"><ele>2225.6</ele><time>2026-04-03T11:47:32.86Z</time></trkpt><trkpt lat="45.0188156" lon="6.8920558"><ele>2221.2</ele><time>2026-04-03T11:47:33.87Z</time></trkpt><trkpt lat="45.0188933" lon="6.8919833"><ele>2216.8</ele><time>2026-04-03T11:47:34.864Z</time></trkpt><trkpt lat="45.0189865" lon="6.8919128"><ele>2212.4</ele><time>2026-04-03T11:47:35.859Z</time></trkpt><trkpt lat="45.0190725" lon="6.891833"><ele>2208.0</ele><time>2026-04-03T11:47:36.867Z</time></trkpt><trkpt lat="45.01914" lon="6.8918015"><ele>2206.5</ele><time>2026-04-03T11:47:37.853Z</time></trkpt><trkpt lat="45.0192398" lon="6.8918066"><ele>2205.0</ele><time>2026-04-03T11:47:38.864Z</time></trkpt><trkpt lat="45.0193357" lon="6.8918451"><ele>2203.5</ele><time>2026-04-03T11:47:39.858Z</time></trkpt><trkpt lat="45.0192355" lon="6.891909"><ele>2202.0</ele><time>2026-04-03T11:47:40.868Z</time></trkpt><trkpt lat="45.0192914" lon="6.8919566"><ele>2200.5</ele><time>2026-04-03T11:47:42.862Z</time></trkpt><trkpt lat="45.019331" lon="6.8920263"><ele>2199.0</ele><time>2026-04-03T11:47:55.865Z</time></trkpt><trkpt lat="45.0193842" lon="6.892074"><ele>2199.0</ele><time>2026-04-03T11:48:15.852Z</time></trkpt><trkpt lat="45.0193983" lon="6.8921706"><ele>2199.0</ele><time>2026-04-03T11:48:32.861Z</time></trkpt><trkpt lat="45.0193566" lon="6.8922723"><ele>2199.0</ele><time>2026-04-03T11:48:35.865Z</time></trkpt><trkpt lat="45.019327" lon="6.8923746"><ele>2199.0</ele><time>2026-04-03T11:48:38.859Z</time></trkpt><trkpt lat="45.0192975" lon="6.8924766"><ele>2199.0</ele><time>2026-04-03T11:48:41.864Z</time></trkpt><trkpt lat="45.0192691" lon="6.8925825"><ele>2199.0</ele><time>2026-04-03T11:48:44.86Z</time></trkpt><trkpt lat="45.0192416" lon="6.892677"><ele>2202.3333333333335</ele><time>2026-04-03T11:48:47.861Z</time></trkpt><trkpt lat="45.0192195" lon="6.8927712"><ele>2205.6666666666665</ele><time>2026-04-03T11:48:50.849Z</time></trkpt><trkpt lat="45.0191927" lon="6.8928767"><ele>2209.0</ele><time>2026-04-03T11:48:53.861Z</time></trkpt><trkpt lat="45.0191643" lon="6.8929853"><ele>2212.333333333333</ele><time>2026-04-03T11:48:56.863Z</time></trkpt><trkpt lat="45.0191396" lon="6.8931025"><ele>2215.6666666666665</ele><time>2026-04-03T11:48:59.865Z</time></trkpt><trkpt lat="45.0191104" lon="6.8932018"><ele>2219.0</ele><time>2026-04-03T11:49:02.856Z</time></trkpt><trkpt lat="45.0190811" lon="6.8932951"><ele>2220.833333333333</ele><time>2026-04-03T11:49:05.858Z</time></trkpt><trkpt lat="45.0190526" lon="6.8933921"><ele>2222.6666666666665</ele><time>2026-04-03T11:49:08.87Z</time></trkpt><trkpt lat="45.0190245" lon="6.8934901"><ele>2224.5</ele><time>2026-04-03T11:49:11.852Z</time></trkpt><trkpt lat="45.018994" lon="6.8935919"><ele>2226.3333333333335</ele><time>2026-04-03T11:49:14.867Z</time></trkpt><trkpt lat="45.0189651" lon="6.8936961"><ele>2228.166666666667</ele><time>2026-04-03T11:49:17.86Z</time></trkpt><trkpt lat="45.01894" lon="6.8937841"><ele>2230.0</ele><time>2026-04-03T11:49:20.855Z</time></trkpt><trkpt lat="45.0189117" lon="6.8938857"><ele>2232.8333333333335</ele><time>2026-04-03T11:49:23.858Z</time></trkpt><trkpt lat="45.0188831" lon="6.8939919"><ele>2235.666666666667</ele><time>2026-04-03T11:49:26.872Z</time></trkpt><trkpt lat="45.0188512" lon="6.8941014"><ele>2238.5</ele><time>2026-04-03T11:49:29.869Z</time></trkpt><trkpt lat="45.0188249" lon="6.8942117"><ele>2241.3333333333335</ele><time>2026-04-03T11:49:32.85Z</time></trkpt><trkpt lat="45.0187952" lon="6.8943191"><ele>2244.1666666666665</ele><time>2026-04-03T11:49:35.851Z</time></trkpt><trkpt lat="45.0187627" lon="6.8944381"><ele>2247.0</ele><time>2026-04-03T11:49:38.868Z</time></trkpt><trkpt lat="45.018729" lon="6.8945518"><ele>2249.1428571428573</ele><time>2026-04-03T11:49:41.857Z</time></trkpt><trkpt lat="45.0186999" lon="6.894648"><ele>2251.285714285714</ele><time>2026-04-03T11:49:44.858Z</time></trkpt><trkpt lat="45.0186756" lon="6.8947488"><ele>2253.4285714285716</ele><time>2026-04-03T11:49:47.873Z</time></trkpt><trkpt lat="45.0186495" lon="6.8948461"><ele>2255.5714285714284</ele><time>2026-04-03T11:49:50.865Z</time></trkpt><trkpt lat="45.0186231" lon="6.8949426"><ele>2257.714285714286</ele><time>2026-04-03T11:49:53.857Z</time></trkpt><trkpt lat="45.0185975" lon="6.8950392"><ele>2259.857142857143</ele><time>2026-04-03T11:49:56.862Z</time></trkpt><trkpt lat="45.0185665" lon="6.8951321"><ele>2262.0</ele><time>2026-04-03T11:49:59.866Z</time></trkpt><trkpt lat="45.0185366" lon="6.8952358"><ele>2265.0</ele><time>2026-04-03T11:50:02.867Z</time></trkpt><trkpt lat="45.0185064" lon="6.8953445"><ele>2268.0</ele><time>2026-04-03T11:50:05.869Z</time></trkpt><trkpt lat="45.0184756" lon="6.8954505"><ele>2271.0</ele><time>2026-04-03T11:50:08.867Z</time></trkpt><trkpt lat="45.0184436" lon="6.8955512"><ele>2274.0</ele><time>2026-04-03T11:50:11.86Z</time></trkpt><trkpt lat="45.0184108" lon="6.8956551"><ele>2277.0</ele><time>2026-04-03T11:50:14.872Z</time></trkpt><trkpt lat="45.0183814" lon="6.8957614"><ele>2280.0</ele><time>2026-04-03T11:50:17.85Z</time></trkpt><trkpt lat="45.0183506" lon="6.8958657"><ele>2287.8333333333335</ele><time>2026-04-03T11:50:20.857Z</time></trkpt><trkpt lat="45.0183172" lon="6.8959733"><ele>2295.6666666666665</ele><time>2026-04-03T11:50:23.862Z</time></trkpt><trkpt lat="45.0182875" lon="6.8960752"><ele>2303.5</ele><time>2026-04-03T11:50:26.862Z</time></trkpt><trkpt lat="45.0182549" lon="6.8961845"><ele>2311.333333333333</ele><time>2026-04-03T11:50:29.851Z</time></trkpt><trkpt lat="45.0182261" lon="6.8962883"><ele>2319.1666666666665</ele><time>2026-04-03T11:50:32.862Z</time></trkpt><trkpt lat="45.0181957" lon="6.8963943"><ele>2327.0</ele><time>2026-04-03T11:50:35.866Z</time></trkpt><trkpt lat="45.0181676" lon="6.8964889"><ele>2327.0</ele><time>2026-04-03T11:50:38.855Z</time></trkpt><trkpt lat="45.0181392" lon="6.8965801"><ele>2327.0</ele><time>2026-04-03T11:50:41.847Z</time></trkpt><trkpt lat="45.018115" lon="6.8966711"><ele>2327.0</ele><time>2026-04-03T11:50:44.869Z</time></trkpt><trkpt lat="45.0180889" lon="6.8967661"><ele>2327.0</ele><time>2026-04-03T11:50:47.869Z</time></trkpt><trkpt lat="45.0180631" lon="6.8968659"><ele>2327.0</ele><time>2026-04-03T11:50:50.852Z</time></trkpt><trkpt lat="45.0180359" lon="6.8969658"><ele>2327.0</ele><time>2026-04-03T11:50:53.863Z</time></trkpt><trkpt lat="45.0180136" lon="6.8970546"><ele>2327.0</ele><time>2026-04-03T11:50:56.862Z</time></trkpt><trkpt lat="45.0179877" lon="6.8971505"><ele>2329.5714285714284</ele><time>2026-04-03T11:50:59.86Z</time></trkpt><trkpt lat="45.0179578" lon="6.8972466"><ele>2332.1428571428573</ele><time>2026-04-03T11:51:02.851Z</time></trkpt><trkpt lat="45.0179273" lon="6.8973392"><ele>2334.714285714286</ele><time>2026-04-03T11:51:05.856Z</time></trkpt><trkpt lat="45.0178982" lon="6.8974263"><ele>2337.285714285714</ele><time>2026-04-03T11:51:08.865Z</time></trkpt><trkpt lat="45.0178695" lon="6.897516"><ele>2339.857142857143</ele><time>2026-04-03T11:51:11.861Z</time></trkpt><trkpt lat="45.01784" lon="6.8976201"><ele>2342.4285714285716</ele><time>2026-04-03T11:51:14.866Z</time></trkpt><trkpt lat="45.0178099" lon="6.8977199"><ele>2345.0</ele><time>2026-04-03T11:51:17.87Z</time></trkpt><trkpt lat="45.0177791" lon="6.8978184"><ele>2348.6666666666665</ele><time>2026-04-03T11:51:20.871Z</time></trkpt><trkpt lat="45.0177499" lon="6.8979149"><ele>2352.333333333333</ele><time>2026-04-03T11:51:23.869Z</time></trkpt><trkpt lat="45.0177205" lon="6.8980133"><ele>2356.0</ele><time>2026-04-03T11:51:26.86Z</time></trkpt><trkpt lat="45.0176896" lon="6.8981158"><ele>2359.6666666666665</ele><time>2026-04-03T11:51:29.861Z</time></trkpt><trkpt lat="45.0176591" lon="6.8982176"><ele>2363.3333333333335</ele><time>2026-04-03T11:51:32.851Z</time></trkpt><trkpt lat="45.0176328" lon="6.8983194"><ele>2367.0</ele><time>2026-04-03T11:51:35.864Z</time></trkpt><trkpt lat="45.0176054" lon="6.8984169"><ele>2370.5</ele><time>2026-04-03T11:51:38.864Z</time></trkpt><trkpt lat="45.0175746" lon="6.8985138"><ele>2374.0</ele><time>2026-04-03T11:51:41.859Z</time></trkpt><trkpt lat="45.0175435" lon="6.8986155"><ele>2377.5</ele><time>2026-04-03T11:51:44.861Z</time></trkpt><trkpt lat="45.0175091" lon="6.8987234"><ele>2381.0</ele><time>2026-04-03T11:51:47.857Z</time></trkpt><trkpt lat="45.0174781" lon="6.8988274"><ele>2384.5</ele><time>2026-04-03T11:51:50.855Z</time></trkpt><trkpt lat="45.0174498" lon="6.8989265"><ele>2388.0</ele><time>2026-04-03T11:51:53.85Z</time></trkpt><trkpt lat="45.0174246" lon="6.8990197"><ele>2389.714285714286</ele><time>2026-04-03T11:51:56.853Z</time></trkpt><trkpt lat="45.0173993" lon="6.8991191"><ele>2391.4285714285716</ele><time>2026-04-03T11:51:59.851Z</time></trkpt><trkpt lat="45.0173729" lon="6.8992159"><ele>2393.142857142857</ele><time>2026-04-03T11:52:02.862Z</time></trkpt><trkpt lat="45.0173464" lon="6.8993128"><ele>2394.857142857143</ele><time>2026-04-03T11:52:05.862Z</time></trkpt><trkpt lat="45.0173179" lon="6.8994111"><ele>2396.5714285714284</ele><time>2026-04-03T11:52:08.86Z</time></trkpt><trkpt lat="45.0172887" lon="6.8995028"><ele>2398.285714285714</ele><time>2026-04-03T11:52:11.859Z</time></trkpt><trkpt lat="45.0172601" lon="6.899603"><ele>2400.0</ele><time>2026-04-03T11:52:14.86Z</time></trkpt><trkpt lat="45.0172305" lon="6.89971"><ele>2404.6666666666665</ele><time>2026-04-03T11:52:17.85Z</time></trkpt><trkpt lat="45.0172014" lon="6.8998168"><ele>2409.3333333333335</ele><time>2026-04-03T11:52:20.866Z</time></trkpt><trkpt lat="45.0171691" lon="6.8999253"><ele>2414.0</ele><time>2026-04-03T11:52:23.863Z</time></trkpt><trkpt lat="45.0171388" lon="6.9000302"><ele>2418.666666666667</ele><time>2026-04-03T11:52:26.86Z</time></trkpt><trkpt lat="45.0171076" lon="6.9001365"><ele>2423.3333333333335</ele><time>2026-04-03T11:52:29.854Z</time></trkpt><trkpt lat="45.0170762" lon="6.9002375"><ele>2428.0</ele><time>2026-04-03T11:52:32.856Z</time></trkpt><trkpt lat="45.0170483" lon="6.9003284"><ele>2431.142857142857</ele><time>2026-04-03T11:52:35.857Z</time></trkpt><trkpt lat="45.0170236" lon="6.9004158"><ele>2434.285714285714</ele><time>2026-04-03T11:52:38.867Z</time></trkpt><trkpt lat="45.0169957" lon="6.9005066"><ele>2437.4285714285716</ele><time>2026-04-03T11:52:41.86Z</time></trkpt><trkpt lat="45.0169672" lon="6.9006065"><ele>2440.5714285714284</ele><time>2026-04-03T11:52:44.858Z</time></trkpt><trkpt lat="45.0169385" lon="6.9007026"><ele>2443.714285714286</ele><time>2026-04-03T11:52:47.865Z</time></trkpt><trkpt lat="45.0169131" lon="6.9008009"><ele>2446.8571428571427</ele><time>2026-04-03T11:52:50.856Z</time></trkpt><trkpt lat="45.0168847" lon="6.9009055"><ele>2450.0</ele><time>2026-04-03T11:52:53.854Z</time></trkpt><trkpt lat="45.0168539" lon="6.9010062"><ele>2452.285714285714</ele><time>2026-04-03T11:52:56.849Z</time></trkpt><trkpt lat="45.0168269" lon="6.9011027"><ele>2454.5714285714284</ele><time>2026-04-03T11:52:59.858Z</time></trkpt><trkpt lat="45.0167917" lon="6.9012007"><ele>2456.857142857143</ele><time>2026-04-03T11:53:02.853Z</time></trkpt><trkpt lat="45.0167289" lon="6.9011855"><ele>2459.142857142857</ele><time>2026-04-03T11:53:06.853Z</time></trkpt><trkpt lat="45.0166676" lon="6.9011396"><ele>2461.4285714285716</ele><time>2026-04-03T11:55:24.868Z</time></trkpt><trkpt lat="45.0165922" lon="6.9011092"><ele>2463.714285714286</ele><time>2026-04-03T11:55:30.857Z</time></trkpt><trkpt lat="45.0165363" lon="6.9010678"><ele>2466.0</ele><time>2026-04-03T11:55:33.865Z</time></trkpt><trkpt lat="45.0164513" lon="6.9010318"><ele>2465.1428571428573</ele><time>2026-04-03T11:55:36.856Z</time></trkpt><trkpt lat="45.0163856" lon="6.9010095"><ele>2464.285714285714</ele><time>2026-04-03T11:55:39.854Z</time></trkpt><trkpt lat="45.0163191" lon="6.9009851"><ele>2463.4285714285716</ele><time>2026-04-03T11:55:42.865Z</time></trkpt><trkpt lat="45.0162454" lon="6.9009168"><ele>2462.5714285714284</ele><time>2026-04-03T11:55:45.848Z</time></trkpt><trkpt lat="45.0161908" lon="6.9008651"><ele>2461.714285714286</ele><time>2026-04-03T11:55:47.854Z</time></trkpt><trkpt lat="45.0161295" lon="6.9008102"><ele>2460.8571428571427</ele><time>2026-04-03T11:55:49.862Z</time></trkpt><trkpt lat="45.0160765" lon="6.9007603"><ele>2460.0</ele><time>2026-04-03T11:55:51.855Z</time></trkpt><trkpt lat="45.0160187" lon="6.9007121"><ele>2460.0</ele><time>2026-04-03T11:55:53.864Z</time></trkpt><trkpt lat="45.015945" lon="6.9006609"><ele>2460.0</ele><time>2026-04-03T11:55:55.848Z</time></trkpt><trkpt lat="45.0158453" lon="6.9006027"><ele>2460.0</ele><time>2026-04-03T11:55:57.862Z</time></trkpt><trkpt lat="45.0157401" lon="6.9005513"><ele>2460.0</ele><time>2026-04-03T11:55:59.863Z</time></trkpt><trkpt lat="45.0156428" lon="6.9005025"><ele>2460.0</ele><time>2026-04-03T11:56:01.862Z</time></trkpt><trkpt lat="45.0155407" lon="6.9004546"><ele>2461.0</ele><time>2026-04-03T11:56:03.865Z</time></trkpt><trkpt lat="45.0154285" lon="6.9004011"><ele>2462.0</ele><time>2026-04-03T11:56:05.854Z</time></trkpt><trkpt lat="45.0153145" lon="6.9003448"><ele>2463.0</ele><time>2026-04-03T11:56:07.862Z</time></trkpt><trkpt lat="45.0152202" lon="6.900272"><ele>2464.0</ele><time>2026-04-03T11:56:09.863Z</time></trkpt><trkpt lat="45.0151522" lon="6.9001912"><ele>2465.0</ele><time>2026-04-03T11:56:11.857Z</time></trkpt><trkpt lat="45.0150983" lon="6.9000984"><ele>2465.0</ele><time>2026-04-03T11:56:13.862Z</time></trkpt><trkpt lat="45.0150539" lon="6.9000052"><ele>2465.0</ele><time>2026-04-03T11:56:15.855Z</time></trkpt><trkpt lat="45.0150215" lon="6.899906"><ele>2465.0</ele><time>2026-04-03T11:56:17.864Z</time></trkpt><trkpt lat="45.0149843" lon="6.8998165"><ele>2465.0</ele><time>2026-04-03T11:56:19.846Z</time></trkpt><trkpt lat="45.014954" lon="6.8997358"><ele>2465.0</ele><time>2026-04-03T11:56:21.857Z</time></trkpt><trkpt lat="45.0149107" lon="6.8996265"><ele>2465.0</ele><time>2026-04-03T11:56:24.862Z</time></trkpt><trkpt lat="45.014869" lon="6.8995399"><ele>2465.0</ele><time>2026-04-03T11:56:26.857Z</time></trkpt><trkpt lat="45.0147979" lon="6.899442"><ele>2465.0</ele><time>2026-04-03T11:56:28.848Z</time></trkpt><trkpt lat="45.0147164" lon="6.899352"><ele>2465.0</ele><time>2026-04-03T11:56:30.855Z</time></trkpt><trkpt lat="45.0146298" lon="6.8992587"><ele>2465.0</ele><time>2026-04-03T11:56:32.864Z</time></trkpt><trkpt lat="45.0145371" lon="6.8991496"><ele>2465.0</ele><time>2026-04-03T11:56:34.856Z</time></trkpt><trkpt lat="45.0144606" lon="6.8990324"><ele>2462.0</ele><time>2026-04-03T11:56:36.857Z</time></trkpt><trkpt lat="45.0144021" lon="6.898912"><ele>2459.0</ele><time>2026-04-03T11:56:38.858Z</time></trkpt><trkpt lat="45.0143459" lon="6.8987877"><ele>2456.0</ele><time>2026-04-03T11:56:40.867Z</time></trkpt><trkpt lat="45.014287" lon="6.8986585"><ele>2453.0</ele><time>2026-04-03T11:56:42.857Z</time></trkpt><trkpt lat="45.0142337" lon="6.8985386"><ele>2450.0</ele><time>2026-04-03T11:56:44.872Z</time></trkpt><trkpt lat="45.0141827" lon="6.8984465"><ele>2448.6666666666665</ele><time>2026-04-03T11:56:59.865Z</time></trkpt><trkpt lat="45.0141421" lon="6.8983708"><ele>2447.333333333333</ele><time>2026-04-03T11:57:02.857Z</time></trkpt><trkpt lat="45.0140651" lon="6.8982936"><ele>2446.0</ele><time>2026-04-03T11:57:05.858Z</time></trkpt><trkpt lat="45.0139972" lon="6.898235"><ele>2444.6666666666665</ele><time>2026-04-03T11:57:07.85Z</time></trkpt><trkpt lat="45.0139183" lon="6.8981962"><ele>2443.3333333333335</ele><time>2026-04-03T11:57:09.872Z</time></trkpt><trkpt lat="45.0138409" lon="6.898169"><ele>2442.0</ele><time>2026-04-03T11:57:11.851Z</time></trkpt><trkpt lat="45.0137616" lon="6.8981177"><ele>2442.0</ele><time>2026-04-03T11:57:13.853Z</time></trkpt><trkpt lat="45.0136916" lon="6.8980548"><ele>2442.0</ele><time>2026-04-03T11:57:15.855Z</time></trkpt><trkpt lat="45.0136308" lon="6.8979901"><ele>2442.0</ele><time>2026-04-03T11:57:17.854Z</time></trkpt><trkpt lat="45.0135638" lon="6.8979159"><ele>2442.0</ele><time>2026-04-03T11:57:19.857Z</time></trkpt><trkpt lat="45.0134869" lon="6.8978429"><ele>2442.0</ele><time>2026-04-03T11:57:21.86Z</time></trkpt><trkpt lat="45.0133992" lon="6.8977738"><ele>2442.0</ele><time>2026-04-03T11:57:23.867Z</time></trkpt><trkpt lat="45.013303" lon="6.8976986"><ele>2442.7142857142853</ele><time>2026-04-03T11:57:25.853Z</time></trkpt><trkpt lat="45.0132018" lon="6.8976134"><ele>2443.4285714285716</ele><time>2026-04-03T11:57:27.859Z</time></trkpt><trkpt lat="45.0131452" lon="6.8975638"><ele>2444.142857142857</ele><time>2026-04-03T11:57:28.854Z</time></trkpt><trkpt lat="45.0130906" lon="6.8975116"><ele>2444.8571428571427</ele><time>2026-04-03T11:57:29.859Z</time></trkpt><trkpt lat="45.0130354" lon="6.8974566"><ele>2445.5714285714284</ele><time>2026-04-03T11:57:30.867Z</time></trkpt><trkpt lat="45.012982" lon="6.8974075"><ele>2446.285714285714</ele><time>2026-04-03T11:57:31.854Z</time></trkpt><trkpt lat="45.0129282" lon="6.8973579"><ele>2447.0</ele><time>2026-04-03T11:57:32.855Z</time></trkpt><trkpt lat="45.0128209" lon="6.8972545"><ele>2444.714285714286</ele><time>2026-04-03T11:57:34.87Z</time></trkpt><trkpt lat="45.0127653" lon="6.8971962"><ele>2442.428571428571</ele><time>2026-04-03T11:57:35.858Z</time></trkpt><trkpt lat="45.0127094" lon="6.8971285"><ele>2440.142857142857</ele><time>2026-04-03T11:57:36.855Z</time></trkpt><trkpt lat="45.0126537" lon="6.8970563"><ele>2437.857142857143</ele><time>2026-04-03T11:57:37.862Z</time></trkpt><trkpt lat="45.0125981" lon="6.896976"><ele>2435.5714285714284</ele><time>2026-04-03T11:57:38.855Z</time></trkpt><trkpt lat="45.0125473" lon="6.8968938"><ele>2433.285714285714</ele><time>2026-04-03T11:57:39.864Z</time></trkpt><trkpt lat="45.0125028" lon="6.8968101"><ele>2431.0</ele><time>2026-04-03T11:57:40.851Z</time></trkpt><trkpt lat="45.012441" lon="6.8966819"><ele>2430.1428571428573</ele><time>2026-04-03T11:57:42.853Z</time></trkpt><trkpt lat="45.0124029" lon="6.8965791"><ele>2429.285714285714</ele><time>2026-04-03T11:57:44.853Z</time></trkpt><trkpt lat="45.0123708" lon="6.8964797"><ele>2428.4285714285716</ele><time>2026-04-03T11:57:46.86Z</time></trkpt><trkpt lat="45.0123532" lon="6.8963846"><ele>2427.5714285714284</ele><time>2026-04-03T11:57:48.855Z</time></trkpt><trkpt lat="45.0123336" lon="6.8962931"><ele>2426.714285714286</ele><time>2026-04-03T11:57:50.86Z</time></trkpt><trkpt lat="45.0123137" lon="6.896204"><ele>2425.8571428571427</ele><time>2026-04-03T11:57:52.863Z</time></trkpt><trkpt lat="45.0122913" lon="6.8961087"><ele>2425.0</ele><time>2026-04-03T11:57:54.866Z</time></trkpt><trkpt lat="45.0122717" lon="6.8959903"><ele>2422.8333333333335</ele><time>2026-04-03T11:57:56.863Z</time></trkpt><trkpt lat="45.0122441" lon="6.8958364"><ele>2420.666666666667</ele><time>2026-04-03T11:57:58.847Z</time></trkpt><trkpt lat="45.0122007" lon="6.895744"><ele>2418.5</ele><time>2026-04-03T11:58:00.867Z</time></trkpt><trkpt lat="45.0121545" lon="6.8956482"><ele>2416.3333333333335</ele><time>2026-04-03T11:58:03.863Z</time></trkpt><trkpt lat="45.012091" lon="6.8955763"><ele>2414.1666666666665</ele><time>2026-04-03T11:58:54.852Z</time></trkpt><trkpt lat="45.0120439" lon="6.8954988"><ele>2412.0</ele><time>2026-04-03T11:58:56.854Z</time></trkpt><trkpt lat="45.0120418" lon="6.895398"><ele>2412.0</ele><time>2026-04-03T11:58:58.862Z</time></trkpt><trkpt lat="45.0119805" lon="6.8953322"><ele>2412.0</ele><time>2026-04-03T11:59:01.861Z</time></trkpt><trkpt lat="45.0119511" lon="6.8952295"><ele>2412.0</ele><time>2026-04-03T11:59:03.854Z</time></trkpt><trkpt lat="45.0118993" lon="6.8950946"><ele>2412.0</ele><time>2026-04-03T11:59:04.864Z</time></trkpt><trkpt lat="45.0117959" lon="6.894967"><ele>2412.0</ele><time>2026-04-03T11:59:06.855Z</time></trkpt><trkpt lat="45.0117953" lon="6.8948683"><ele>2409.0</ele><time>2026-04-03T11:59:07.859Z</time></trkpt><trkpt lat="45.0117532" lon="6.8947641"><ele>2406.0</ele><time>2026-04-03T11:59:08.852Z</time></trkpt><trkpt lat="45.0116878" lon="6.8947019"><ele>2403.0</ele><time>2026-04-03T11:59:09.854Z</time></trkpt><trkpt lat="45.0116413" lon="6.8945966"><ele>2400.0</ele><time>2026-04-03T11:59:10.869Z</time></trkpt><trkpt lat="45.0116377" lon="6.8944895"><ele>2397.0</ele><time>2026-04-03T11:59:11.86Z</time></trkpt><trkpt lat="45.0116231" lon="6.8943861"><ele>2394.0</ele><time>2026-04-03T11:59:12.865Z</time></trkpt><trkpt lat="45.0115694" lon="6.8943157"><ele>2388.1666666666665</ele><time>2026-04-03T11:59:13.86Z</time></trkpt><trkpt lat="45.0115121" lon="6.8942492"><ele>2382.3333333333335</ele><time>2026-04-03T11:59:14.856Z</time></trkpt><trkpt lat="45.0114969" lon="6.8941371"><ele>2376.5</ele><time>2026-04-03T11:59:15.85Z</time></trkpt><trkpt lat="45.0115009" lon="6.8940258"><ele>2370.666666666667</ele><time>2026-04-03T11:59:16.861Z</time></trkpt><trkpt lat="45.01147" lon="6.8939061"><ele>2364.8333333333335</ele><time>2026-04-03T11:59:17.865Z</time></trkpt><trkpt lat="45.011407" lon="6.893839"><ele>2359.0</ele><time>2026-04-03T11:59:18.851Z</time></trkpt><trkpt lat="45.0113436" lon="6.8937086"><ele>2359.0</ele><time>2026-04-03T11:59:19.857Z</time></trkpt><trkpt lat="45.0113475" lon="6.8935811"><ele>2359.0</ele><time>2026-04-03T11:59:20.855Z</time></trkpt><trkpt lat="45.0113709" lon="6.893465"><ele>2359.0</ele><time>2026-04-03T11:59:21.852Z</time></trkpt><trkpt lat="45.0113712" lon="6.8933491"><ele>2359.0</ele><time>2026-04-03T11:59:22.855Z</time></trkpt><trkpt lat="45.0113286" lon="6.8932703"><ele>2359.0</ele><time>2026-04-03T11:59:23.853Z</time></trkpt><trkpt lat="45.0112395" lon="6.8932451"><ele>2359.0</ele><time>2026-04-03T11:59:25.858Z</time></trkpt><trkpt lat="45.0111713" lon="6.8930765"><ele>2354.2</ele><time>2026-04-03T11:59:27.861Z</time></trkpt><trkpt lat="45.0111357" lon="6.8929944"><ele>2349.4</ele><time>2026-04-03T11:59:28.851Z</time></trkpt><trkpt lat="45.0110914" lon="6.8929295"><ele>2344.6</ele><time>2026-04-03T11:59:29.869Z</time></trkpt><trkpt lat="45.0108794" lon="6.89294"><ele>2339.8</ele><time>2026-04-03T11:59:31.857Z</time></trkpt><trkpt lat="45.0108174" lon="6.8929829"><ele>2335.0</ele><time>2026-04-03T11:59:32.852Z</time></trkpt><trkpt lat="45.010739" lon="6.8930366"><ele>2328.0</ele><time>2026-04-03T11:59:33.85Z</time></trkpt><trkpt lat="45.0106249" lon="6.8929683"><ele>2321.0</ele><time>2026-04-03T11:59:35.869Z</time></trkpt><trkpt lat="45.0105201" lon="6.8930594"><ele>2314.0</ele><time>2026-04-03T11:59:37.869Z</time></trkpt><trkpt lat="45.0103895" lon="6.8931109"><ele>2307.0</ele><time>2026-04-03T11:59:39.859Z</time></trkpt><trkpt lat="45.0102651" lon="6.8931616"><ele>2307.0</ele><time>2026-04-03T11:59:40.852Z</time></trkpt><trkpt lat="45.0101806" lon="6.8931573"><ele>2307.0</ele><time>2026-04-03T11:59:41.859Z</time></trkpt><trkpt lat="45.0100251" lon="6.893044"><ele>2307.0</ele><time>2026-04-03T11:59:42.853Z</time></trkpt><trkpt lat="45.0098987" lon="6.8930108"><ele>2307.0</ele><time>2026-04-03T11:59:43.865Z</time></trkpt><trkpt lat="45.0097786" lon="6.8930302"><ele>2304.7999999999997</ele><time>2026-04-03T11:59:44.856Z</time></trkpt><trkpt lat="45.0096754" lon="6.8929775"><ele>2302.6</ele><time>2026-04-03T11:59:45.857Z</time></trkpt><trkpt lat="45.0095774" lon="6.8929477"><ele>2300.3999999999996</ele><time>2026-04-03T11:59:46.85Z</time></trkpt><trkpt lat="45.0094599" lon="6.8928613"><ele>2298.2</ele><time>2026-04-03T11:59:47.868Z</time></trkpt><trkpt lat="45.0093556" lon="6.8928452"><ele>2296.0</ele><time>2026-04-03T11:59:48.867Z</time></trkpt><trkpt lat="45.0092749" lon="6.8928523"><ele>2296.0</ele><time>2026-04-03T11:59:49.848Z</time></trkpt><trkpt lat="45.0091679" lon="6.8928404"><ele>2296.0</ele><time>2026-04-03T11:59:50.868Z</time></trkpt><trkpt lat="45.0090638" lon="6.8927566"><ele>2296.0</ele><time>2026-04-03T11:59:51.858Z</time></trkpt><trkpt lat="45.0089901" lon="6.8926468"><ele>2296.0</ele><time>2026-04-03T11:59:52.856Z</time></trkpt><trkpt lat="45.0089028" lon="6.8926"><ele>2296.0</ele><time>2026-04-03T11:59:53.856Z</time></trkpt><trkpt lat="45.0088145" lon="6.8925653"><ele>2288.0</ele><time>2026-04-03T11:59:54.865Z</time></trkpt><trkpt lat="45.0087561" lon="6.8924898"><ele>2280.0</ele><time>2026-04-03T11:59:55.861Z</time></trkpt><trkpt lat="45.0086843" lon="6.8924145"><ele>2272.0</ele><time>2026-04-03T11:59:56.856Z</time></trkpt><trkpt lat="45.0086447" lon="6.8923172"><ele>2264.0</ele><time>2026-04-03T11:59:57.859Z</time></trkpt><trkpt lat="45.0086148" lon="6.8921589"><ele>2256.0</ele><time>2026-04-03T11:59:58.866Z</time></trkpt><trkpt lat="45.0086128" lon="6.8919787"><ele>2256.0</ele><time>2026-04-03T11:59:59.861Z</time></trkpt><trkpt lat="45.0086106" lon="6.8918056"><ele>2256.0</ele><time>2026-04-03T12:00:00.853Z</time></trkpt><trkpt lat="45.0085961" lon="6.8916332"><ele>2256.0</ele><time>2026-04-03T12:00:01.856Z</time></trkpt><trkpt lat="45.00856" lon="6.8914651"><ele>2256.0</ele><time>2026-04-03T12:00:02.858Z</time></trkpt><trkpt lat="45.0084785" lon="6.8914187"><ele>2253.6</ele><time>2026-04-03T12:00:03.86Z</time></trkpt><trkpt lat="45.0083594" lon="6.8913088"><ele>2251.2</ele><time>2026-04-03T12:00:04.853Z</time></trkpt><trkpt lat="45.0082767" lon="6.891269"><ele>2248.8</ele><time>2026-04-03T12:00:05.858Z</time></trkpt><trkpt lat="45.0081934" lon="6.8912397"><ele>2246.4</ele><time>2026-04-03T12:00:06.848Z</time></trkpt><trkpt lat="45.0080947" lon="6.8912139"><ele>2244.0</ele><time>2026-04-03T12:00:07.851Z</time></trkpt><trkpt lat="45.0079878" lon="6.8911752"><ele>2244.0</ele><time>2026-04-03T12:00:08.866Z</time></trkpt><trkpt lat="45.0078775" lon="6.8911293"><ele>2244.0</ele><time>2026-04-03T12:00:09.86Z</time></trkpt><trkpt lat="45.0077698" lon="6.8910654"><ele>2244.0</ele><time>2026-04-03T12:00:10.867Z</time></trkpt><trkpt lat="45.0076806" lon="6.8909764"><ele>2244.0</ele><time>2026-04-03T12:00:11.862Z</time></trkpt><trkpt lat="45.0076351" lon="6.8908582"><ele>2244.0</ele><time>2026-04-03T12:00:12.861Z</time></trkpt><trkpt lat="45.0075919" lon="6.8907431"><ele>2245.5</ele><time>2026-04-03T12:00:13.86Z</time></trkpt><trkpt lat="45.0075602" lon="6.890631"><ele>2247.0</ele><time>2026-04-03T12:00:14.864Z</time></trkpt><trkpt lat="45.0075162" lon="6.8905277"><ele>2248.5</ele><time>2026-04-03T12:00:15.863Z</time></trkpt><trkpt lat="45.0074632" lon="6.8904449"><ele>2250.0</ele><time>2026-04-03T12:00:16.852Z</time></trkpt><trkpt lat="45.0073772" lon="6.8903811"><ele>2251.5</ele><time>2026-04-03T12:00:18.855Z</time></trkpt><trkpt lat="45.0073227" lon="6.8903333"><ele>2253.0</ele><time>2026-04-03T12:00:51.869Z</time></trkpt><trkpt lat="45.0072564" lon="6.8903246"><ele>2253.0</ele><time>2026-04-03T12:01:16.856Z</time></trkpt><trkpt lat="45.0073205" lon="6.8903224"><ele>2253.0</ele><time>2026-04-03T12:01:48.86Z</time></trkpt><trkpt lat="45.0073991" lon="6.8902867"><ele>2253.0</ele><time>2026-04-03T12:03:00.857Z</time></trkpt><trkpt lat="45.0074079" lon="6.8901854"><ele>2253.0</ele><time>2026-04-03T12:03:02.856Z</time></trkpt><trkpt lat="45.0074581" lon="6.8900538"><ele>2253.0</ele><time>2026-04-03T12:03:04.859Z</time></trkpt><trkpt lat="45.0075193" lon="6.8899044"><ele>2253.0</ele><time>2026-04-03T12:03:06.858Z</time></trkpt><trkpt lat="45.0075414" lon="6.889801"><ele>2246.3333333333335</ele><time>2026-04-03T12:03:07.858Z</time></trkpt><trkpt lat="45.0076018" lon="6.8897528"><ele>2239.6666666666665</ele><time>2026-04-03T12:03:08.861Z</time></trkpt><trkpt lat="45.0077222" lon="6.8897645"><ele>2233.0</ele><time>2026-04-03T12:03:10.853Z</time></trkpt><trkpt lat="45.007784" lon="6.8897146"><ele>2226.333333333333</ele><time>2026-04-03T12:03:11.869Z</time></trkpt><trkpt lat="45.007829" lon="6.8895937"><ele>2219.6666666666665</ele><time>2026-04-03T12:03:12.864Z</time></trkpt><trkpt lat="45.0079011" lon="6.8895233"><ele>2213.0</ele><time>2026-04-03T12:03:13.85Z</time></trkpt><trkpt lat="45.0080006" lon="6.8895057"><ele>2213.0</ele><time>2026-04-03T12:03:14.85Z</time></trkpt><trkpt lat="45.008071" lon="6.8894536"><ele>2213.0</ele><time>2026-04-03T12:03:15.856Z</time></trkpt><trkpt lat="45.0080779" lon="6.8893147"><ele>2213.0</ele><time>2026-04-03T12:03:16.851Z</time></trkpt><trkpt lat="45.0080806" lon="6.889222"><ele>2213.0</ele><time>2026-04-03T12:03:17.857Z</time></trkpt><trkpt lat="45.0081234" lon="6.8891118"><ele>2213.0</ele><time>2026-04-03T12:03:18.852Z</time></trkpt><trkpt lat="45.0081883" lon="6.8890563"><ele>2213.0</ele><time>2026-04-03T12:03:19.862Z</time></trkpt><trkpt lat="45.0082848" lon="6.8890071"><ele>2209.5</ele><time>2026-04-03T12:03:20.863Z</time></trkpt><trkpt lat="45.0083306" lon="6.8888918"><ele>2206.0</ele><time>2026-04-03T12:03:21.859Z</time></trkpt><trkpt lat="45.0083352" lon="6.8887841"><ele>2202.5</ele><time>2026-04-03T12:03:22.868Z</time></trkpt><trkpt lat="45.0083715" lon="6.8886723"><ele>2199.0</ele><time>2026-04-03T12:03:23.864Z</time></trkpt><trkpt lat="45.0084533" lon="6.8886089"><ele>2195.5</ele><time>2026-04-03T12:03:24.866Z</time></trkpt><trkpt lat="45.0085325" lon="6.8885713"><ele>2192.0</ele><time>2026-04-03T12:03:25.852Z</time></trkpt><trkpt lat="45.0085972" lon="6.8885016"><ele>2187.5</ele><time>2026-04-03T12:03:26.854Z</time></trkpt><trkpt lat="45.0086585" lon="6.8883962"><ele>2183.0</ele><time>2026-04-03T12:03:27.852Z</time></trkpt><trkpt lat="45.0086418" lon="6.8881382"><ele>2178.5</ele><time>2026-04-03T12:03:28.871Z</time></trkpt><trkpt lat="45.0086868" lon="6.8879928"><ele>2174.0</ele><time>2026-04-03T12:03:29.858Z</time></trkpt><trkpt lat="45.0087232" lon="6.8878366"><ele>2174.0</ele><time>2026-04-03T12:03:30.856Z</time></trkpt><trkpt lat="45.0087743" lon="6.8877554"><ele>2174.0</ele><time>2026-04-03T12:03:31.848Z</time></trkpt><trkpt lat="45.008787" lon="6.8876433"><ele>2174.0</ele><time>2026-04-03T12:03:32.853Z</time></trkpt><trkpt lat="45.0088132" lon="6.8875071"><ele>2174.0</ele><time>2026-04-03T12:03:33.868Z</time></trkpt><trkpt lat="45.0088388" lon="6.8873696"><ele>2174.0</ele><time>2026-04-03T12:03:34.853Z</time></trkpt><trkpt lat="45.0088885" lon="6.8872576"><ele>2170.0</ele><time>2026-04-03T12:03:35.853Z</time></trkpt><trkpt lat="45.0090329" lon="6.8872732"><ele>2166.0</ele><time>2026-04-03T12:03:36.858Z</time></trkpt><trkpt lat="45.0090834" lon="6.8871246"><ele>2162.0</ele><time>2026-04-03T12:03:37.848Z</time></trkpt><trkpt lat="45.0091593" lon="6.8870039"><ele>2158.0</ele><time>2026-04-03T12:03:38.87Z</time></trkpt><trkpt lat="45.0092238" lon="6.8868818"><ele>2155.25</ele><time>2026-04-03T12:03:39.859Z</time></trkpt><trkpt lat="45.009309" lon="6.8867739"><ele>2152.5</ele><time>2026-04-03T12:03:40.858Z</time></trkpt><trkpt lat="45.0094148" lon="6.8867"><ele>2149.75</ele><time>2026-04-03T12:03:41.859Z</time></trkpt><trkpt lat="45.0094986" lon="6.8865002"><ele>2147.0</ele><time>2026-04-03T12:03:42.85Z</time></trkpt><trkpt lat="45.0096222" lon="6.8864063"><ele>2142.25</ele><time>2026-04-03T12:03:43.855Z</time></trkpt><trkpt lat="45.0097355" lon="6.8863216"><ele>2137.5</ele><time>2026-04-03T12:03:44.861Z</time></trkpt><trkpt lat="45.0098639" lon="6.8862345"><ele>2132.75</ele><time>2026-04-03T12:03:45.854Z</time></trkpt><trkpt lat="45.0099726" lon="6.8861341"><ele>2128.0</ele><time>2026-04-03T12:03:47.856Z</time></trkpt><trkpt lat="45.0100646" lon="6.8860587"><ele>2125.5</ele><time>2026-04-03T12:03:48.866Z</time></trkpt><trkpt lat="45.0101754" lon="6.8859864"><ele>2123.0</ele><time>2026-04-03T12:03:49.857Z</time></trkpt><trkpt lat="45.0102785" lon="6.8858961"><ele>2120.5</ele><time>2026-04-03T12:03:50.867Z</time></trkpt><trkpt lat="45.0104514" lon="6.8858541"><ele>2118.0</ele><time>2026-04-03T12:03:51.852Z</time></trkpt><trkpt lat="45.0105879" lon="6.8857619"><ele>2111.6666666666665</ele><time>2026-04-03T12:03:52.852Z</time></trkpt><trkpt lat="45.0107625" lon="6.8856344"><ele>2105.333333333333</ele><time>2026-04-03T12:03:53.866Z</time></trkpt><trkpt lat="45.0109167" lon="6.8857394"><ele>2099.0</ele><time>2026-04-03T12:03:54.855Z</time></trkpt><trkpt lat="45.0110801" lon="6.8857525"><ele>2097.25</ele><time>2026-04-03T12:03:55.865Z</time></trkpt><trkpt lat="45.0112017" lon="6.8856385"><ele>2095.5</ele><time>2026-04-03T12:03:56.865Z</time></trkpt><trkpt lat="45.0113241" lon="6.8855179"><ele>2093.75</ele><time>2026-04-03T12:03:57.851Z</time></trkpt><trkpt lat="45.0113294" lon="6.8853258"><ele>2092.0</ele><time>2026-04-03T12:03:58.855Z</time></trkpt><trkpt lat="45.0113799" lon="6.8851694"><ele>2089.4</ele><time>2026-04-03T12:03:59.868Z</time></trkpt><trkpt lat="45.0113929" lon="6.8850619"><ele>2086.7999999999997</ele><time>2026-04-03T12:04:00.858Z</time></trkpt><trkpt lat="45.011294" lon="6.8849424"><ele>2084.2</ele><time>2026-04-03T12:04:02.868Z</time></trkpt><trkpt lat="45.0112017" lon="6.8848579"><ele>2081.6</ele><time>2026-04-03T12:04:03.865Z</time></trkpt><trkpt lat="45.0111766" lon="6.8847761"><ele>2079.0</ele><time>2026-04-03T12:04:04.864Z</time></trkpt><trkpt lat="45.0111208" lon="6.8846391"><ele>2079.0</ele><time>2026-04-03T12:04:06.865Z</time></trkpt><trkpt lat="45.0110878" lon="6.8844998"><ele>2079.0</ele><time>2026-04-03T12:04:08.858Z</time></trkpt><trkpt lat="45.0110568" lon="6.8843547"><ele>2079.0</ele><time>2026-04-03T12:04:10.861Z</time></trkpt><trkpt lat="45.0110199" lon="6.8841992"><ele>2079.0</ele><time>2026-04-03T12:04:12.864Z</time></trkpt><trkpt lat="45.0109821" lon="6.8840625"><ele>2079.0</ele><time>2026-04-03T12:04:14.863Z</time></trkpt><trkpt lat="45.0109671" lon="6.8839368"><ele>2078.4</ele><time>2026-04-03T12:04:16.86Z</time></trkpt><trkpt lat="45.0109963" lon="6.8838163"><ele>2077.8</ele><time>2026-04-03T12:04:18.858Z</time></trkpt><trkpt lat="45.0110493" lon="6.8836923"><ele>2077.2</ele><time>2026-04-03T12:04:20.871Z</time></trkpt><trkpt lat="45.0111025" lon="6.8835527"><ele>2076.6</ele><time>2026-04-03T12:04:22.86Z</time></trkpt><trkpt lat="45.0111763" lon="6.8834046"><ele>2076.0</ele><time>2026-04-03T12:04:24.852Z</time></trkpt><trkpt lat="45.0112206" lon="6.883332"><ele>2075.8333333333335</ele><time>2026-04-03T12:04:25.853Z</time></trkpt><trkpt lat="45.0112655" lon="6.8832598"><ele>2075.6666666666665</ele><time>2026-04-03T12:04:26.849Z</time></trkpt><trkpt lat="45.0113156" lon="6.8831821"><ele>2075.5</ele><time>2026-04-03T12:04:27.853Z</time></trkpt><trkpt lat="45.0113668" lon="6.8830944"><ele>2075.333333333333</ele><time>2026-04-03T12:04:28.859Z</time></trkpt><trkpt lat="45.0114078" lon="6.8829885"><ele>2075.1666666666665</ele><time>2026-04-03T12:04:29.857Z</time></trkpt><trkpt lat="45.0114356" lon="6.8828707"><ele>2075.0</ele><time>2026-04-03T12:04:30.862Z</time></trkpt><trkpt lat="45.0114582" lon="6.8827566"><ele>2075.0</ele><time>2026-04-03T12:04:31.85Z</time></trkpt><trkpt lat="45.0114927" lon="6.8826522"><ele>2075.0</ele><time>2026-04-03T12:04:32.851Z</time></trkpt><trkpt lat="45.0115342" lon="6.8825566"><ele>2075.0</ele><time>2026-04-03T12:04:33.857Z</time></trkpt><trkpt lat="45.0115801" lon="6.8824649"><ele>2075.0</ele><time>2026-04-03T12:04:34.851Z</time></trkpt><trkpt lat="45.01163" lon="6.8823665"><ele>2075.0</ele><time>2026-04-03T12:04:35.854Z</time></trkpt><trkpt lat="45.0116862" lon="6.8822715"><ele>2075.0</ele><time>2026-04-03T12:04:36.866Z</time></trkpt><trkpt lat="45.0117473" lon="6.8821909"><ele>2073.714285714286</ele><time>2026-04-03T12:04:37.852Z</time></trkpt><trkpt lat="45.0118075" lon="6.8821247"><ele>2072.4285714285716</ele><time>2026-04-03T12:04:38.86Z</time></trkpt><trkpt lat="45.0118674" lon="6.8820652"><ele>2071.1428571428573</ele><time>2026-04-03T12:04:39.852Z</time></trkpt><trkpt lat="45.0119308" lon="6.8820086"><ele>2069.857142857143</ele><time>2026-04-03T12:04:40.863Z</time></trkpt><trkpt lat="45.0119916" lon="6.8819564"><ele>2068.5714285714284</ele><time>2026-04-03T12:04:41.852Z</time></trkpt><trkpt lat="45.0120507" lon="6.8819082"><ele>2067.2857142857147</ele><time>2026-04-03T12:04:42.857Z</time></trkpt><trkpt lat="45.0121078" lon="6.8818653"><ele>2066.0</ele><time>2026-04-03T12:04:43.87Z</time></trkpt><trkpt lat="45.0122146" lon="6.8817848"><ele>2063.6</ele><time>2026-04-03T12:04:45.856Z</time></trkpt><trkpt lat="45.0123329" lon="6.8816987"><ele>2061.2</ele><time>2026-04-03T12:04:47.868Z</time></trkpt><trkpt lat="45.012417" lon="6.88162"><ele>2058.8</ele><time>2026-04-03T12:04:49.857Z</time></trkpt><trkpt lat="45.0124502" lon="6.8815349"><ele>2056.4</ele><time>2026-04-03T12:08:23.863Z</time></trkpt><trkpt lat="45.012534" lon="6.8815031"><ele>2054.0</ele><time>2026-04-03T12:08:26.855Z</time></trkpt><trkpt lat="45.0126585" lon="6.8814585"><ele>2053.2</ele><time>2026-04-03T12:08:28.858Z</time></trkpt><trkpt lat="45.0127387" lon="6.881409"><ele>2052.4</ele><time>2026-04-03T12:08:29.85Z</time></trkpt><trkpt lat="45.0128037" lon="6.881373"><ele>2051.6</ele><time>2026-04-03T12:08:30.857Z</time></trkpt><trkpt lat="45.0128676" lon="6.8813466"><ele>2050.8</ele><time>2026-04-03T12:08:31.864Z</time></trkpt><trkpt lat="45.0129666" lon="6.8813077"><ele>2050.0</ele><time>2026-04-03T12:08:32.848Z</time></trkpt><trkpt lat="45.0130462" lon="6.8811303"><ele>2050.0</ele><time>2026-04-03T12:08:33.858Z</time></trkpt><trkpt lat="45.0131274" lon="6.8810221"><ele>2050.0</ele><time>2026-04-03T12:08:34.857Z</time></trkpt><trkpt lat="45.0132423" lon="6.8810275"><ele>2050.0</ele><time>2026-04-03T12:08:35.85Z</time></trkpt><trkpt lat="45.0133798" lon="6.8810499"><ele>2050.0</ele><time>2026-04-03T12:08:36.854Z</time></trkpt><trkpt lat="45.0134436" lon="6.8810315"><ele>2050.0</ele><time>2026-04-03T12:08:37.858Z</time></trkpt><trkpt lat="45.0135418" lon="6.8809593"><ele>2047.4</ele><time>2026-04-03T12:08:38.855Z</time></trkpt><trkpt lat="45.0136225" lon="6.8809073"><ele>2044.8</ele><time>2026-04-03T12:08:39.861Z</time></trkpt><trkpt lat="45.0137146" lon="6.8808661"><ele>2042.1999999999998</ele><time>2026-04-03T12:08:40.857Z</time></trkpt><trkpt lat="45.013826" lon="6.8809899"><ele>2039.6</ele><time>2026-04-03T12:08:41.864Z</time></trkpt><trkpt lat="45.0139239" lon="6.8810132"><ele>2037.0</ele><time>2026-04-03T12:08:42.858Z</time></trkpt><trkpt lat="45.0140039" lon="6.8809864"><ele>2037.0</ele><time>2026-04-03T12:08:43.847Z</time></trkpt><trkpt lat="45.0140681" lon="6.8809462"><ele>2036.9999999999998</ele><time>2026-04-03T12:08:44.857Z</time></trkpt><trkpt lat="45.0141167" lon="6.8808311"><ele>2036.9999999999998</ele><time>2026-04-03T12:08:45.86Z</time></trkpt><trkpt lat="45.0142097" lon="6.8807682"><ele>2037.0</ele><time>2026-04-03T12:08:46.865Z</time></trkpt><trkpt lat="45.0143621" lon="6.8807966"><ele>2037.0</ele><time>2026-04-03T12:08:47.855Z</time></trkpt><trkpt lat="45.0144918" lon="6.8807523"><ele>2029.25</ele><time>2026-04-03T12:08:48.861Z</time></trkpt><trkpt lat="45.0145845" lon="6.8806984"><ele>2021.5</ele><time>2026-04-03T12:08:49.87Z</time></trkpt><trkpt lat="45.0147121" lon="6.8806304"><ele>2013.75</ele><time>2026-04-03T12:08:50.851Z</time></trkpt><trkpt lat="45.0147701" lon="6.8804278"><ele>2006.0</ele><time>2026-04-03T12:08:51.867Z</time></trkpt><trkpt lat="45.0148637" lon="6.880224"><ele>2003.0</ele><time>2026-04-03T12:08:52.853Z</time></trkpt><trkpt lat="45.0149786" lon="6.8800652"><ele>2000.0</ele><time>2026-04-03T12:08:53.864Z</time></trkpt><trkpt lat="45.015056" lon="6.8799228"><ele>1997.0</ele><time>2026-04-03T12:08:54.863Z</time></trkpt><trkpt lat="45.0151311" lon="6.8797313"><ele>1994.0</ele><time>2026-04-03T12:08:55.863Z</time></trkpt><trkpt lat="45.0151888" lon="6.8795489"><ele>1988.25</ele><time>2026-04-03T12:08:56.858Z</time></trkpt><trkpt lat="45.0152598" lon="6.8793544"><ele>1982.5</ele><time>2026-04-03T12:08:57.861Z</time></trkpt><trkpt lat="45.0153425" lon="6.8792008"><ele>1976.75</ele><time>2026-04-03T12:08:58.86Z</time></trkpt><trkpt lat="45.0154615" lon="6.8790606"><ele>1971.0</ele><time>2026-04-03T12:08:59.859Z</time></trkpt><trkpt lat="45.0155529" lon="6.8790102"><ele>1968.5</ele><time>2026-04-03T12:09:00.849Z</time></trkpt><trkpt lat="45.0156278" lon="6.8788516"><ele>1966.0</ele><time>2026-04-03T12:09:01.863Z</time></trkpt><trkpt lat="45.0157441" lon="6.8787123"><ele>1963.5</ele><time>2026-04-03T12:09:02.859Z</time></trkpt><trkpt lat="45.0158398" lon="6.8786154"><ele>1961.0</ele><time>2026-04-03T12:09:03.853Z</time></trkpt><trkpt lat="45.0159673" lon="6.8784922"><ele>1957.75</ele><time>2026-04-03T12:09:04.858Z</time></trkpt><trkpt lat="45.0160224" lon="6.878336"><ele>1954.5</ele><time>2026-04-03T12:09:05.86Z</time></trkpt><trkpt lat="45.016152" lon="6.8782429"><ele>1951.25</ele><time>2026-04-03T12:09:06.851Z</time></trkpt><trkpt lat="45.0162895" lon="6.8781775"><ele>1948.0</ele><time>2026-04-03T12:09:07.851Z</time></trkpt><trkpt lat="45.016369" lon="6.8781471"><ele>1948.0000000000002</ele><time>2026-04-03T12:09:08.852Z</time></trkpt><trkpt lat="45.016433" lon="6.8780659"><ele>1948.0</ele><time>2026-04-03T12:09:09.861Z</time></trkpt><trkpt lat="45.0164975" lon="6.8780017"><ele>1948.0</ele><time>2026-04-03T12:09:10.859Z</time></trkpt><trkpt lat="45.0165564" lon="6.8779356"><ele>1948.0</ele><time>2026-04-03T12:09:11.861Z</time></trkpt><trkpt lat="45.0166177" lon="6.8779064"><ele>1948.0000000000002</ele><time>2026-04-03T12:09:12.867Z</time></trkpt><trkpt lat="45.0167001" lon="6.8778084"><ele>1948.0</ele><time>2026-04-03T12:09:14.858Z</time></trkpt><trkpt lat="45.0167358" lon="6.8776372"><ele>1946.3333333333335</ele><time>2026-04-03T12:09:16.853Z</time></trkpt><trkpt lat="45.0168077" lon="6.8776071"><ele>1944.6666666666667</ele><time>2026-04-03T12:09:17.867Z</time></trkpt><trkpt lat="45.0168789" lon="6.8775954"><ele>1943.0</ele><time>2026-04-03T12:09:18.857Z</time></trkpt><trkpt lat="45.0169429" lon="6.8775604"><ele>1941.3333333333335</ele><time>2026-04-03T12:09:19.854Z</time></trkpt><trkpt lat="45.0170227" lon="6.877533"><ele>1939.6666666666667</ele><time>2026-04-03T12:09:20.849Z</time></trkpt><trkpt lat="45.0171314" lon="6.8774435"><ele>1938.0</ele><time>2026-04-03T12:09:22.86Z</time></trkpt><trkpt lat="45.0171715" lon="6.8773666"><ele>1936.0</ele><time>2026-04-03T12:09:23.859Z</time></trkpt><trkpt lat="45.0172054" lon="6.8772692"><ele>1934.0000000000002</ele><time>2026-04-03T12:09:24.86Z</time></trkpt><trkpt lat="45.0172628" lon="6.8771618"><ele>1932.0000000000002</ele><time>2026-04-03T12:09:25.852Z</time></trkpt><trkpt lat="45.0173203" lon="6.8770596"><ele>1930.0</ele><time>2026-04-03T12:09:26.847Z</time></trkpt><trkpt lat="45.0174141" lon="6.8769874"><ele>1928.0</ele><time>2026-04-03T12:09:27.851Z</time></trkpt><trkpt lat="45.0174996" lon="6.8769247"><ele>1923.0</ele><time>2026-04-03T12:09:28.858Z</time></trkpt><trkpt lat="45.017594" lon="6.8768673"><ele>1918.0</ele><time>2026-04-03T12:09:29.849Z</time></trkpt><trkpt lat="45.0176849" lon="6.8767754"><ele>1913.0</ele><time>2026-04-03T12:09:30.862Z</time></trkpt><trkpt lat="45.017781" lon="6.8766603"><ele>1908.0</ele><time>2026-04-03T12:09:31.859Z</time></trkpt><trkpt lat="45.0178635" lon="6.8765494"><ele>1904.0</ele><time>2026-04-03T12:09:32.861Z</time></trkpt><trkpt lat="45.0178904" lon="6.8763857"><ele>1900.0</ele><time>2026-04-03T12:09:33.862Z</time></trkpt><trkpt lat="45.0178739" lon="6.8761223"><ele>1896.0</ele><time>2026-04-03T12:09:34.859Z</time></trkpt><trkpt lat="45.0179065" lon="6.8758609"><ele>1891.0</ele><time>2026-04-03T12:09:35.856Z</time></trkpt><trkpt lat="45.0179082" lon="6.875607"><ele>1886.0</ele><time>2026-04-03T12:09:36.853Z</time></trkpt><trkpt lat="45.0179185" lon="6.8753667"><ele>1881.0</ele><time>2026-04-03T12:09:37.859Z</time></trkpt><trkpt lat="45.0178761" lon="6.8751688"><ele>1876.25</ele><time>2026-04-03T12:09:38.861Z</time></trkpt><trkpt lat="45.0178601" lon="6.8749563"><ele>1871.5</ele><time>2026-04-03T12:09:39.863Z</time></trkpt><trkpt lat="45.0179084" lon="6.8747976"><ele>1866.75</ele><time>2026-04-03T12:09:40.865Z</time></trkpt><trkpt lat="45.017916" lon="6.8746029"><ele>1862.0</ele><time>2026-04-03T12:09:41.858Z</time></trkpt><trkpt lat="45.0178936" lon="6.8745012"><ele>1861.9999999999998</ele><time>2026-04-03T12:09:42.853Z</time></trkpt><trkpt lat="45.0178658" lon="6.8744161"><ele>1862.0</ele><time>2026-04-03T12:09:43.869Z</time></trkpt><trkpt lat="45.0178472" lon="6.874284"><ele>1862.0</ele><time>2026-04-03T12:09:44.863Z</time></trkpt><trkpt lat="45.0178188" lon="6.8741626"><ele>1862.0</ele><time>2026-04-03T12:09:45.859Z</time></trkpt><trkpt lat="45.0177962" lon="6.8740437"><ele>1861.9999999999998</ele><time>2026-04-03T12:09:46.861Z</time></trkpt><trkpt lat="45.0177713" lon="6.8739087"><ele>1862.0</ele><time>2026-04-03T12:09:47.861Z</time></trkpt><trkpt lat="45.0177457" lon="6.8737689"><ele>1859.3999999999999</ele><time>2026-04-03T12:09:48.861Z</time></trkpt><trkpt lat="45.0177295" lon="6.8736238"><ele>1856.7999999999997</ele><time>2026-04-03T12:09:49.858Z</time></trkpt><trkpt lat="45.0177132" lon="6.8734648"><ele>1854.2</ele><time>2026-04-03T12:09:50.854Z</time></trkpt><trkpt lat="45.0176963" lon="6.8733117"><ele>1851.6</ele><time>2026-04-03T12:09:51.859Z</time></trkpt><trkpt lat="45.017677" lon="6.8731722"><ele>1849.0</ele><time>2026-04-03T12:09:52.85Z</time></trkpt><trkpt lat="45.0176704" lon="6.8730242"><ele>1846.8000000000002</ele><time>2026-04-03T12:09:53.858Z</time></trkpt><trkpt lat="45.0176874" lon="6.8728905"><ele>1844.6000000000001</ele><time>2026-04-03T12:09:54.862Z</time></trkpt><trkpt lat="45.0177292" lon="6.8727742"><ele>1842.4</ele><time>2026-04-03T12:09:55.857Z</time></trkpt><trkpt lat="45.017785" lon="6.8726757"><ele>1840.2</ele><time>2026-04-03T12:09:56.863Z</time></trkpt><trkpt lat="45.0178653" lon="6.8726065"><ele>1838.0</ele><time>2026-04-03T12:09:57.854Z</time></trkpt><trkpt lat="45.0179247" lon="6.8725144"><ele>1836.6666666666665</ele><time>2026-04-03T12:09:58.853Z</time></trkpt><trkpt lat="45.0179686" lon="6.8724227"><ele>1835.3333333333333</ele><time>2026-04-03T12:09:59.854Z</time></trkpt><trkpt lat="45.0180221" lon="6.8723238"><ele>1834.0</ele><time>2026-04-03T12:10:00.863Z</time></trkpt><trkpt lat="45.0180799" lon="6.8722579"><ele>1832.6666666666665</ele><time>2026-04-03T12:10:01.86Z</time></trkpt><trkpt lat="45.0181561" lon="6.8722043"><ele>1831.3333333333333</ele><time>2026-04-03T12:10:02.861Z</time></trkpt><trkpt lat="45.0182127" lon="6.8721253"><ele>1830.0</ele><time>2026-04-03T12:10:03.854Z</time></trkpt><trkpt lat="45.0182746" lon="6.8720308"><ele>1829.0</ele><time>2026-04-03T12:10:04.853Z</time></trkpt><trkpt lat="45.0183595" lon="6.8720111"><ele>1828.0</ele><time>2026-04-03T12:10:05.858Z</time></trkpt><trkpt lat="45.0184369" lon="6.8720058"><ele>1827.0</ele><time>2026-04-03T12:10:06.864Z</time></trkpt><trkpt lat="45.01854" lon="6.8719165"><ele>1826.0</ele><time>2026-04-03T12:10:08.86Z</time></trkpt><trkpt lat="45.0185967" lon="6.8718555"><ele>1825.0</ele><time>2026-04-03T12:10:09.847Z</time></trkpt><trkpt lat="45.0186427" lon="6.8717771"><ele>1824.0</ele><time>2026-04-03T12:10:10.853Z</time></trkpt><trkpt lat="45.0186827" lon="6.8715839"><ele>1821.4</ele><time>2026-04-03T12:10:12.857Z</time></trkpt><trkpt lat="45.0187211" lon="6.871459"><ele>1818.8000000000002</ele><time>2026-04-03T12:10:13.86Z</time></trkpt><trkpt lat="45.0187598" lon="6.8713458"><ele>1816.1999999999998</ele><time>2026-04-03T12:10:14.863Z</time></trkpt><trkpt lat="45.0187892" lon="6.8712354"><ele>1813.6</ele><time>2026-04-03T12:10:15.858Z</time></trkpt><trkpt lat="45.0187934" lon="6.8710969"><ele>1811.0</ele><time>2026-04-03T12:10:16.859Z</time></trkpt><trkpt lat="45.018818" lon="6.8709644"><ele>1807.25</ele><time>2026-04-03T12:10:17.846Z</time></trkpt><trkpt lat="45.0188514" lon="6.8708008"><ele>1803.5</ele><time>2026-04-03T12:10:18.858Z</time></trkpt><trkpt lat="45.0189294" lon="6.8706238"><ele>1799.75</ele><time>2026-04-03T12:10:19.866Z</time></trkpt><trkpt lat="45.0189789" lon="6.8704673"><ele>1796.0</ele><time>2026-04-03T12:10:20.862Z</time></trkpt><trkpt lat="45.0190061" lon="6.8703352"><ele>1796.0</ele><time>2026-04-03T12:10:21.854Z</time></trkpt><trkpt lat="45.0190274" lon="6.870142"><ele>1796.0</ele><time>2026-04-03T12:10:22.853Z</time></trkpt><trkpt lat="45.0190834" lon="6.869963"><ele>1796.0</ele><time>2026-04-03T12:10:23.86Z</time></trkpt><trkpt lat="45.019189" lon="6.8699959"><ele>1796.0</ele><time>2026-04-03T12:10:24.86Z</time></trkpt><trkpt lat="45.0192522" lon="6.8698832"><ele>1791.1999999999998</ele><time>2026-04-03T12:10:25.866Z</time></trkpt><trkpt lat="45.0192843" lon="6.8697657"><ele>1786.3999999999999</ele><time>2026-04-03T12:10:26.848Z</time></trkpt><trkpt lat="45.0193279" lon="6.8696518"><ele>1781.6</ele><time>2026-04-03T12:10:27.867Z</time></trkpt><trkpt lat="45.0194098" lon="6.8695939"><ele>1776.8</ele><time>2026-04-03T12:10:28.861Z</time></trkpt><trkpt lat="45.0194848" lon="6.8695252"><ele>1772.0</ele><time>2026-04-03T12:10:29.855Z</time></trkpt><trkpt lat="45.0195402" lon="6.8694218"><ele>1771.9999999999998</ele><time>2026-04-03T12:10:30.867Z</time></trkpt><trkpt lat="45.0196007" lon="6.8693451"><ele>1772.0</ele><time>2026-04-03T12:10:31.862Z</time></trkpt><trkpt lat="45.0196642" lon="6.8693599"><ele>1772.0</ele><time>2026-04-03T12:10:32.863Z</time></trkpt><trkpt lat="45.0197299" lon="6.8693088"><ele>1772.0</ele><time>2026-04-03T12:10:33.857Z</time></trkpt><trkpt lat="45.0198054" lon="6.8692386"><ele>1771.9999999999998</ele><time>2026-04-03T12:10:34.85Z</time></trkpt><trkpt lat="45.0198874" lon="6.869172"><ele>1772.0</ele><time>2026-04-03T12:10:35.85Z</time></trkpt><trkpt lat="45.0199729" lon="6.8691329"><ele>1767.3999999999999</ele><time>2026-04-03T12:10:36.856Z</time></trkpt><trkpt lat="45.0200523" lon="6.8690707"><ele>1762.7999999999997</ele><time>2026-04-03T12:10:37.856Z</time></trkpt><trkpt lat="45.02014" lon="6.8690376"><ele>1758.2</ele><time>2026-04-03T12:10:38.857Z</time></trkpt><trkpt lat="45.0202301" lon="6.8690525"><ele>1753.6</ele><time>2026-04-03T12:10:39.856Z</time></trkpt><trkpt lat="45.0203133" lon="6.8690437"><ele>1749.0</ele><time>2026-04-03T12:10:40.858Z</time></trkpt><trkpt lat="45.0204037" lon="6.8689648"><ele>1749.0</ele><time>2026-04-03T12:10:41.858Z</time></trkpt><trkpt lat="45.0204922" lon="6.8689054"><ele>1749.0</ele><time>2026-04-03T12:10:42.856Z</time></trkpt><trkpt lat="45.0205725" lon="6.8688476"><ele>1749.0</ele><time>2026-04-03T12:10:43.851Z</time></trkpt><trkpt lat="45.020667" lon="6.868871"><ele>1749.0</ele><time>2026-04-03T12:10:44.86Z</time></trkpt><trkpt lat="45.0207536" lon="6.8688812"><ele>1749.0</ele><time>2026-04-03T12:10:45.866Z</time></trkpt><trkpt lat="45.0208357" lon="6.8688984"><ele>1745.8000000000002</ele><time>2026-04-03T12:10:46.864Z</time></trkpt><trkpt lat="45.0209367" lon="6.8689069"><ele>1742.6000000000001</ele><time>2026-04-03T12:10:47.848Z</time></trkpt><trkpt lat="45.0210341" lon="6.8689564"><ele>1739.4</ele><time>2026-04-03T12:10:48.86Z</time></trkpt><trkpt lat="45.0211254" lon="6.8689881"><ele>1736.2</ele><time>2026-04-03T12:10:49.86Z</time></trkpt><trkpt lat="45.0212169" lon="6.8689298"><ele>1733.0</ele><time>2026-04-03T12:10:50.862Z</time></trkpt><trkpt lat="45.0212909" lon="6.868904"><ele>1733.0000000000002</ele><time>2026-04-03T12:10:51.865Z</time></trkpt><trkpt lat="45.0213676" lon="6.8688848"><ele>1733.0</ele><time>2026-04-03T12:10:52.85Z</time></trkpt><trkpt lat="45.0214409" lon="6.8688525"><ele>1733.0</ele><time>2026-04-03T12:10:53.852Z</time></trkpt><trkpt lat="45.0215025" lon="6.8688154"><ele>1733.0</ele><time>2026-04-03T12:10:54.861Z</time></trkpt><trkpt lat="45.0215667" lon="6.8687765"><ele>1733.0</ele><time>2026-04-03T12:10:55.857Z</time></trkpt><trkpt lat="45.0215127" lon="6.8687143"><ele>1733.0000000000002</ele><time>2026-04-03T12:11:06.858Z</time></trkpt><trkpt lat="45.0214481" lon="6.8687161"><ele>1733.0</ele><time>2026-04-03T12:11:22.86Z</time></trkpt><trkpt lat="45.0212868" lon="6.8687673"><ele>1732.9999999999998</ele><time>2026-04-03T12:11:35.86Z</time></trkpt><trkpt lat="45.0212015" lon="6.8688043"><ele>1733.0</ele><time>2026-04-03T12:11:37.849Z</time></trkpt><trkpt lat="45.0211202" lon="6.8688366"><ele>1733.0</ele><time>2026-04-03T12:11:39.865Z</time></trkpt><trkpt lat="45.0210484" lon="6.8688611"><ele>1733.0</ele><time>2026-04-03T12:11:41.866Z</time></trkpt><trkpt lat="45.0209754" lon="6.8688897"><ele>1732.9999999999998</ele><time>2026-04-03T12:11:43.865Z</time></trkpt><trkpt lat="45.0209011" lon="6.8689192"><ele>1733.0</ele><time>2026-04-03T12:11:45.851Z</time></trkpt><trkpt lat="45.0208313" lon="6.8689437"><ele>1735.6666666666665</ele><time>2026-04-03T12:11:47.86Z</time></trkpt><trkpt lat="45.0207573" lon="6.8689678"><ele>1738.3333333333333</ele><time>2026-04-03T12:11:49.864Z</time></trkpt><trkpt lat="45.020687" lon="6.8689929"><ele>1741.0</ele><time>2026-04-03T12:11:51.86Z</time></trkpt><trkpt lat="45.0206204" lon="6.8690202"><ele>1743.6666666666665</ele><time>2026-04-03T12:11:53.862Z</time></trkpt><trkpt lat="45.0205385" lon="6.869046"><ele>1746.3333333333333</ele><time>2026-04-03T12:11:55.856Z</time></trkpt><trkpt lat="45.0204648" lon="6.8690698"><ele>1749.0</ele><time>2026-04-03T12:11:57.871Z</time></trkpt><trkpt lat="45.0203835" lon="6.8691052"><ele>1749.0</ele><time>2026-04-03T12:11:59.857Z</time></trkpt><trkpt lat="45.0203076" lon="6.8691236"><ele>1749.0</ele><time>2026-04-03T12:12:01.849Z</time></trkpt><trkpt lat="45.0202283" lon="6.8691466"><ele>1749.0</ele><time>2026-04-03T12:12:03.857Z</time></trkpt><trkpt lat="45.0201536" lon="6.8691734"><ele>1749.0</ele><time>2026-04-03T12:12:05.86Z</time></trkpt><trkpt lat="45.0200828" lon="6.8692057"><ele>1749.0</ele><time>2026-04-03T12:12:07.858Z</time></trkpt><trkpt lat="45.0200057" lon="6.8692358"><ele>1749.0</ele><time>2026-04-03T12:12:09.857Z</time></trkpt><trkpt lat="45.0199298" lon="6.8692637"><ele>1752.8333333333333</ele><time>2026-04-03T12:12:11.85Z</time></trkpt><trkpt lat="45.0198536" lon="6.869292"><ele>1756.6666666666665</ele><time>2026-04-03T12:12:13.849Z</time></trkpt><trkpt lat="45.0197727" lon="6.8693151"><ele>1760.5</ele><time>2026-04-03T12:12:15.856Z</time></trkpt><trkpt lat="45.0196956" lon="6.8693402"><ele>1764.3333333333333</ele><time>2026-04-03T12:12:17.868Z</time></trkpt><trkpt lat="45.0196181" lon="6.8693656"><ele>1768.1666666666665</ele><time>2026-04-03T12:12:19.856Z</time></trkpt><trkpt lat="45.0195402" lon="6.8693922"><ele>1772.0</ele><time>2026-04-03T12:12:21.854Z</time></trkpt><trkpt lat="45.019464" lon="6.8694173"><ele>1771.9999999999998</ele><time>2026-04-03T12:12:23.866Z</time></trkpt><trkpt lat="45.0193868" lon="6.869442"><ele>1772.0</ele><time>2026-04-03T12:12:25.863Z</time></trkpt><trkpt lat="45.0193093" lon="6.8694681"><ele>1772.0</ele><time>2026-04-03T12:12:27.852Z</time></trkpt><trkpt lat="45.0192311" lon="6.8694924"><ele>1772.0</ele><time>2026-04-03T12:12:29.859Z</time></trkpt><trkpt lat="45.0191546" lon="6.8695099"><ele>1771.9999999999998</ele><time>2026-04-03T12:12:31.854Z</time></trkpt><trkpt lat="45.0190794" lon="6.869531"><ele>1772.0</ele><time>2026-04-03T12:12:33.856Z</time></trkpt><trkpt lat="45.0190096" lon="6.869553"><ele>1776.1666666666665</ele><time>2026-04-03T12:12:35.849Z</time></trkpt><trkpt lat="45.0189349" lon="6.8695849"><ele>1780.3333333333333</ele><time>2026-04-03T12:12:37.854Z</time></trkpt><trkpt lat="45.0188498" lon="6.8696254"><ele>1784.5</ele><time>2026-04-03T12:12:39.865Z</time></trkpt><trkpt lat="45.0187692" lon="6.869655"><ele>1788.6666666666665</ele><time>2026-04-03T12:12:41.858Z</time></trkpt><trkpt lat="45.0186889" lon="6.869683"><ele>1792.8333333333333</ele><time>2026-04-03T12:12:43.856Z</time></trkpt><trkpt lat="45.0186102" lon="6.8697082"><ele>1797.0</ele><time>2026-04-03T12:12:45.855Z</time></trkpt><trkpt lat="45.018536" lon="6.8697347"><ele>1797.0</ele><time>2026-04-03T12:12:47.857Z</time></trkpt><trkpt lat="45.0184554" lon="6.8697589"><ele>1797.0</ele><time>2026-04-03T12:12:49.866Z</time></trkpt><trkpt lat="45.0183772" lon="6.8697813"><ele>1797.0</ele><time>2026-04-03T12:12:51.86Z</time></trkpt><trkpt lat="45.0182999" lon="6.8697939"><ele>1797.0</ele><time>2026-04-03T12:12:53.853Z</time></trkpt><trkpt lat="45.0182227" lon="6.869835"><ele>1797.0</ele><time>2026-04-03T12:12:55.858Z</time></trkpt><trkpt lat="45.0181529" lon="6.8698664"><ele>1797.0</ele><time>2026-04-03T12:12:57.857Z</time></trkpt><trkpt lat="45.018078" lon="6.8698985"><ele>1800.8333333333333</ele><time>2026-04-03T12:12:59.851Z</time></trkpt><trkpt lat="45.0180039" lon="6.8699315"><ele>1804.6666666666665</ele><time>2026-04-03T12:13:01.857Z</time></trkpt><trkpt lat="45.0179287" lon="6.869961"><ele>1808.5</ele><time>2026-04-03T12:13:03.853Z</time></trkpt><trkpt lat="45.017854" lon="6.8699879"><ele>1812.3333333333333</ele><time>2026-04-03T12:13:05.864Z</time></trkpt><trkpt lat="45.0177781" lon="6.8700145"><ele>1816.1666666666665</ele><time>2026-04-03T12:13:07.865Z</time></trkpt><trkpt lat="45.017702" lon="6.8700402"><ele>1820.0</ele><time>2026-04-03T12:13:09.858Z</time></trkpt><trkpt lat="45.0176293" lon="6.8700592"><ele>1819.9999999999998</ele><time>2026-04-03T12:13:11.851Z</time></trkpt><trkpt lat="45.0175596" lon="6.8700764"><ele>1820.0</ele><time>2026-04-03T12:13:13.868Z</time></trkpt><trkpt lat="45.0174815" lon="6.8701017"><ele>1820.0</ele><time>2026-04-03T12:13:15.853Z</time></trkpt><trkpt lat="45.0174044" lon="6.8701291"><ele>1820.0</ele><time>2026-04-03T12:13:17.858Z</time></trkpt><trkpt lat="45.0173298" lon="6.8701553"><ele>1819.9999999999998</ele><time>2026-04-03T12:13:19.86Z</time></trkpt><trkpt lat="45.017253" lon="6.8701826"><ele>1820.0</ele><time>2026-04-03T12:13:21.85Z</time></trkpt><trkpt lat="45.0171769" lon="6.8702113"><ele>1824.8333333333333</ele><time>2026-04-03T12:13:23.857Z</time></trkpt><trkpt lat="45.0171026" lon="6.8702358"><ele>1829.6666666666665</ele><time>2026-04-03T12:13:25.861Z</time></trkpt><trkpt lat="45.0170286" lon="6.870258"><ele>1834.5</ele><time>2026-04-03T12:13:27.852Z</time></trkpt><trkpt lat="45.0169531" lon="6.8702808"><ele>1839.3333333333335</ele><time>2026-04-03T12:13:29.856Z</time></trkpt><trkpt lat="45.0168767" lon="6.8703076"><ele>1844.1666666666667</ele><time>2026-04-03T12:13:31.854Z</time></trkpt><trkpt lat="45.0168028" lon="6.8703347"><ele>1849.0</ele><time>2026-04-03T12:13:33.859Z</time></trkpt><trkpt lat="45.0167323" lon="6.8703571"><ele>1855.1666666666667</ele><time>2026-04-03T12:13:35.867Z</time></trkpt><trkpt lat="45.0166526" lon="6.8703835"><ele>1861.3333333333335</ele><time>2026-04-03T12:13:37.865Z</time></trkpt><trkpt lat="45.016576" lon="6.8704107"><ele>1867.5</ele><time>2026-04-03T12:13:39.861Z</time></trkpt><trkpt lat="45.0165008" lon="6.8704358"><ele>1873.6666666666665</ele><time>2026-04-03T12:13:41.86Z</time></trkpt><trkpt lat="45.0164266" lon="6.8704626"><ele>1879.8333333333333</ele><time>2026-04-03T12:13:43.86Z</time></trkpt><trkpt lat="45.016352" lon="6.870492"><ele>1886.0</ele><time>2026-04-03T12:13:45.846Z</time></trkpt><trkpt lat="45.0162794" lon="6.870521"><ele>1885.9999999999998</ele><time>2026-04-03T12:13:47.859Z</time></trkpt><trkpt lat="45.0162057" lon="6.870552"><ele>1886.0</ele><time>2026-04-03T12:13:49.854Z</time></trkpt><trkpt lat="45.0161278" lon="6.8705771"><ele>1886.0</ele><time>2026-04-03T12:13:51.863Z</time></trkpt><trkpt lat="45.0160563" lon="6.8706012"><ele>1886.0</ele><time>2026-04-03T12:13:53.866Z</time></trkpt><trkpt lat="45.0159831" lon="6.8706228"><ele>1885.9999999999998</ele><time>2026-04-03T12:13:55.853Z</time></trkpt><trkpt lat="45.0159034" lon="6.8706521"><ele>1886.0</ele><time>2026-04-03T12:13:57.849Z</time></trkpt><trkpt lat="45.0158317" lon="6.8706792"><ele>1889.6666666666665</ele><time>2026-04-03T12:13:59.845Z</time></trkpt><trkpt lat="45.0157544" lon="6.870712"><ele>1893.3333333333333</ele><time>2026-04-03T12:14:01.862Z</time></trkpt><trkpt lat="45.0156782" lon="6.870743"><ele>1897.0</ele><time>2026-04-03T12:14:03.858Z</time></trkpt><trkpt lat="45.015602" lon="6.8707734"><ele>1900.6666666666665</ele><time>2026-04-03T12:14:05.863Z</time></trkpt><trkpt lat="45.0155273" lon="6.8708028"><ele>1904.3333333333333</ele><time>2026-04-03T12:14:07.867Z</time></trkpt><trkpt lat="45.0154539" lon="6.8708311"><ele>1908.0</ele><time>2026-04-03T12:14:09.844Z</time></trkpt><trkpt lat="45.0153787" lon="6.8708594"><ele>1908.0</ele><time>2026-04-03T12:14:11.851Z</time></trkpt><trkpt lat="45.0153016" lon="6.8708907"><ele>1908.0</ele><time>2026-04-03T12:14:13.851Z</time></trkpt><trkpt lat="45.0152227" lon="6.8709196"><ele>1908.0</ele><time>2026-04-03T12:14:15.847Z</time></trkpt><trkpt lat="45.0151442" lon="6.8709469"><ele>1908.0</ele><time>2026-04-03T12:14:17.86Z</time></trkpt><trkpt lat="45.0150687" lon="6.8709736"><ele>1908.0</ele><time>2026-04-03T12:14:19.856Z</time></trkpt><trkpt lat="45.0149908" lon="6.8709989"><ele>1908.0</ele><time>2026-04-03T12:14:21.852Z</time></trkpt><trkpt lat="45.0149147" lon="6.871026"><ele>1910.1666666666667</ele><time>2026-04-03T12:14:23.864Z</time></trkpt><trkpt lat="45.0148372" lon="6.8710549"><ele>1912.3333333333335</ele><time>2026-04-03T12:14:25.865Z</time></trkpt><trkpt lat="45.0147601" lon="6.8710834"><ele>1914.5</ele><time>2026-04-03T12:14:27.861Z</time></trkpt><trkpt lat="45.0146814" lon="6.8711144"><ele>1916.6666666666667</ele><time>2026-04-03T12:14:29.852Z</time></trkpt><trkpt lat="45.0146021" lon="6.871142"><ele>1918.8333333333335</ele><time>2026-04-03T12:14:31.864Z</time></trkpt><trkpt lat="45.0145247" lon="6.8711708"><ele>1921.0</ele><time>2026-04-03T12:14:33.851Z</time></trkpt><trkpt lat="45.0144463" lon="6.8711984"><ele>1921.0000000000002</ele><time>2026-04-03T12:14:35.857Z</time></trkpt><trkpt lat="45.0143707" lon="6.871225"><ele>1921.0</ele><time>2026-04-03T12:14:37.869Z</time></trkpt><trkpt lat="45.0142959" lon="6.8712526"><ele>1921.0</ele><time>2026-04-03T12:14:39.856Z</time></trkpt><trkpt lat="45.0142186" lon="6.8712783"><ele>1921.0</ele><time>2026-04-03T12:14:41.858Z</time></trkpt><trkpt lat="45.0141426" lon="6.8713029"><ele>1921.0000000000002</ele><time>2026-04-03T12:14:43.852Z</time></trkpt><trkpt lat="45.0140656" lon="6.871327"><ele>1921.0</ele><time>2026-04-03T12:14:45.864Z</time></trkpt><trkpt lat="45.0139865" lon="6.8713528"><ele>1925.6666666666667</ele><time>2026-04-03T12:14:47.865Z</time></trkpt><trkpt lat="45.0139107" lon="6.8713791"><ele>1930.3333333333335</ele><time>2026-04-03T12:14:49.855Z</time></trkpt><trkpt lat="45.0138317" lon="6.8714061"><ele>1935.0</ele><time>2026-04-03T12:14:51.854Z</time></trkpt><trkpt lat="45.0137574" lon="6.8714323"><ele>1939.6666666666665</ele><time>2026-04-03T12:14:53.851Z</time></trkpt><trkpt lat="45.0136811" lon="6.8714603"><ele>1944.3333333333333</ele><time>2026-04-03T12:14:55.866Z</time></trkpt><trkpt lat="45.0136051" lon="6.8714899"><ele>1949.0</ele><time>2026-04-03T12:14:57.863Z</time></trkpt><trkpt lat="45.0135278" lon="6.8715192"><ele>1948.9999999999998</ele><time>2026-04-03T12:14:59.854Z</time></trkpt><trkpt lat="45.0134496" lon="6.871549"><ele>1949.0</ele><time>2026-04-03T12:15:01.869Z</time></trkpt><trkpt lat="45.0133713" lon="6.8715776"><ele>1949.0</ele><time>2026-04-03T12:15:03.865Z</time></trkpt><trkpt lat="45.0132957" lon="6.871603"><ele>1949.0</ele><time>2026-04-03T12:15:05.856Z</time></trkpt><trkpt lat="45.01322" lon="6.8716285"><ele>1948.9999999999998</ele><time>2026-04-03T12:15:07.856Z</time></trkpt><trkpt lat="45.0131454" lon="6.8716545"><ele>1949.0</ele><time>2026-04-03T12:15:09.858Z</time></trkpt><trkpt lat="45.0130704" lon="6.8716785"><ele>1952.1666666666665</ele><time>2026-04-03T12:15:11.85Z</time></trkpt><trkpt lat="45.0129951" lon="6.8717044"><ele>1955.3333333333333</ele><time>2026-04-03T12:15:13.86Z</time></trkpt><trkpt lat="45.0129196" lon="6.8717323"><ele>1958.5</ele><time>2026-04-03T12:15:15.864Z</time></trkpt><trkpt lat="45.0128413" lon="6.8717607"><ele>1961.6666666666665</ele><time>2026-04-03T12:15:17.864Z</time></trkpt><trkpt lat="45.0127612" lon="6.8717876"><ele>1964.8333333333333</ele><time>2026-04-03T12:15:19.868Z</time></trkpt><trkpt lat="45.0126846" lon="6.871813"><ele>1968.0</ele><time>2026-04-03T12:15:21.85Z</time></trkpt><trkpt lat="45.0126057" lon="6.8718405"><ele>1968.3333333333333</ele><time>2026-04-03T12:15:23.87Z</time></trkpt><trkpt lat="45.0125289" lon="6.8718682"><ele>1968.6666666666665</ele><time>2026-04-03T12:15:25.861Z</time></trkpt><trkpt lat="45.0124525" lon="6.8718961"><ele>1969.0</ele><time>2026-04-03T12:15:27.845Z</time></trkpt><trkpt lat="45.0123749" lon="6.8719248"><ele>1969.3333333333333</ele><time>2026-04-03T12:15:29.868Z</time></trkpt><trkpt lat="45.0122979" lon="6.8719538"><ele>1969.6666666666665</ele><time>2026-04-03T12:15:31.86Z</time></trkpt><trkpt lat="45.0122221" lon="6.8719759"><ele>1970.0</ele><time>2026-04-03T12:15:33.846Z</time></trkpt><trkpt lat="45.0121423" lon="6.8720017"><ele>1971.4999999999998</ele><time>2026-04-03T12:15:35.848Z</time></trkpt><trkpt lat="45.0120655" lon="6.8720224"><ele>1973.0</ele><time>2026-04-03T12:15:37.856Z</time></trkpt><trkpt lat="45.0119812" lon="6.8720422"><ele>1974.5</ele><time>2026-04-03T12:15:39.856Z</time></trkpt><trkpt lat="45.0119013" lon="6.8720706"><ele>1976.0</ele><time>2026-04-03T12:15:41.85Z</time></trkpt><trkpt lat="45.0118252" lon="6.8720972"><ele>1977.4999999999998</ele><time>2026-04-03T12:15:43.85Z</time></trkpt><trkpt lat="45.0117482" lon="6.8721228"><ele>1979.0</ele><time>2026-04-03T12:15:45.85Z</time></trkpt><trkpt lat="45.0116723" lon="6.8721442"><ele>1980.4999999999998</ele><time>2026-04-03T12:15:47.848Z</time></trkpt><trkpt lat="45.0115974" lon="6.8721705"><ele>1982.0</ele><time>2026-04-03T12:15:49.858Z</time></trkpt><trkpt lat="45.0115206" lon="6.8722007"><ele>1983.5</ele><time>2026-04-03T12:15:51.862Z</time></trkpt><trkpt lat="45.0114436" lon="6.87223"><ele>1985.0</ele><time>2026-04-03T12:15:53.853Z</time></trkpt><trkpt lat="45.0113659" lon="6.8722594"><ele>1986.4999999999998</ele><time>2026-04-03T12:15:55.86Z</time></trkpt><trkpt lat="45.0112876" lon="6.8722883"><ele>1988.0</ele><time>2026-04-03T12:15:57.854Z</time></trkpt><trkpt lat="45.0112075" lon="6.8723165"><ele>1987.9999999999998</ele><time>2026-04-03T12:15:59.862Z</time></trkpt><trkpt lat="45.0111277" lon="6.8723432"><ele>1988.0</ele><time>2026-04-03T12:16:01.866Z</time></trkpt><trkpt lat="45.0110503" lon="6.872369"><ele>1988.0</ele><time>2026-04-03T12:16:03.853Z</time></trkpt><trkpt lat="45.0109727" lon="6.8723962"><ele>1988.0</ele><time>2026-04-03T12:16:05.856Z</time></trkpt><trkpt lat="45.0108938" lon="6.872427"><ele>1987.9999999999998</ele><time>2026-04-03T12:16:07.851Z</time></trkpt><trkpt lat="45.010814" lon="6.8724584"><ele>1988.0</ele><time>2026-04-03T12:16:09.867Z</time></trkpt><trkpt lat="45.0107321" lon="6.8724861"><ele>1993.142857142857</ele><time>2026-04-03T12:16:11.86Z</time></trkpt><trkpt lat="45.0106611" lon="6.8725096"><ele>1998.2857142857142</ele><time>2026-04-03T12:16:13.855Z</time></trkpt><trkpt lat="45.0105963" lon="6.872533"><ele>2003.4285714285716</ele><time>2026-04-03T12:16:15.856Z</time></trkpt><trkpt lat="45.0105238" lon="6.8725558"><ele>2008.5714285714287</ele><time>2026-04-03T12:16:17.861Z</time></trkpt><trkpt lat="45.0104521" lon="6.8725734"><ele>2013.7142857142858</ele><time>2026-04-03T12:16:19.854Z</time></trkpt><trkpt lat="45.0103797" lon="6.872601"><ele>2018.8571428571431</ele><time>2026-04-03T12:16:21.866Z</time></trkpt><trkpt lat="45.010314" lon="6.8726231"><ele>2024.0000000000002</ele><time>2026-04-03T12:16:23.866Z</time></trkpt><trkpt lat="45.01025" lon="6.8726445"><ele>2023.9999999999998</ele><time>2026-04-03T12:16:25.863Z</time></trkpt><trkpt lat="45.0101764" lon="6.8726653"><ele>2024.0</ele><time>2026-04-03T12:16:27.858Z</time></trkpt><trkpt lat="45.010099" lon="6.8726897"><ele>2024.0</ele><time>2026-04-03T12:16:29.847Z</time></trkpt><trkpt lat="45.0100266" lon="6.8727121"><ele>2024.0</ele><time>2026-04-03T12:16:31.86Z</time></trkpt><trkpt lat="45.0099595" lon="6.8727312"><ele>2023.9999999999998</ele><time>2026-04-03T12:16:33.86Z</time></trkpt><trkpt lat="45.0098949" lon="6.8727468"><ele>2024.0</ele><time>2026-04-03T12:16:35.869Z</time></trkpt><trkpt lat="45.0098018" lon="6.8727744"><ele>2030.6666666666665</ele><time>2026-04-03T12:16:38.85Z</time></trkpt><trkpt lat="45.0097225" lon="6.8728112"><ele>2037.3333333333333</ele><time>2026-04-03T12:16:40.859Z</time></trkpt><trkpt lat="45.0096416" lon="6.87285"><ele>2044.0</ele><time>2026-04-03T12:16:42.852Z</time></trkpt><trkpt lat="45.0095705" lon="6.8728731"><ele>2050.6666666666665</ele><time>2026-04-03T12:16:44.854Z</time></trkpt><trkpt lat="45.0094797" lon="6.8728917"><ele>2057.3333333333335</ele><time>2026-04-03T12:16:47.852Z</time></trkpt><trkpt lat="45.0094161" lon="6.872904"><ele>2064.0</ele><time>2026-04-03T12:16:49.86Z</time></trkpt><trkpt lat="45.0093508" lon="6.8729172"><ele>2064.0</ele><time>2026-04-03T12:16:51.857Z</time></trkpt><trkpt lat="45.0092756" lon="6.8729478"><ele>2064.0</ele><time>2026-04-03T12:16:53.858Z</time></trkpt><trkpt lat="45.009199" lon="6.8729639"><ele>2064.0</ele><time>2026-04-03T12:16:55.859Z</time></trkpt><trkpt lat="45.0091305" lon="6.8729891"><ele>2064.0</ele><time>2026-04-03T12:16:57.854Z</time></trkpt><trkpt lat="45.0090567" lon="6.8730149"><ele>2064.0</ele><time>2026-04-03T12:16:59.858Z</time></trkpt><trkpt lat="45.0089835" lon="6.8730464"><ele>2064.0</ele><time>2026-04-03T12:17:01.861Z</time></trkpt><trkpt lat="45.0089124" lon="6.8730761"><ele>2071.1666666666665</ele><time>2026-04-03T12:17:03.847Z</time></trkpt><trkpt lat="45.0088402" lon="6.8730992"><ele>2078.3333333333335</ele><time>2026-04-03T12:17:05.865Z</time></trkpt><trkpt lat="45.0087643" lon="6.8731282"><ele>2085.5</ele><time>2026-04-03T12:17:07.86Z</time></trkpt><trkpt lat="45.0086905" lon="6.8731588"><ele>2092.666666666667</ele><time>2026-04-03T12:17:09.855Z</time></trkpt><trkpt lat="45.0086214" lon="6.8731854"><ele>2099.8333333333335</ele><time>2026-04-03T12:17:11.847Z</time></trkpt><trkpt lat="45.0085449" lon="6.873215"><ele>2107.0</ele><time>2026-04-03T12:17:13.857Z</time></trkpt><trkpt lat="45.0084765" lon="6.8732415"><ele>2107.0</ele><time>2026-04-03T12:17:15.853Z</time></trkpt><trkpt lat="45.0084151" lon="6.8732616"><ele>2107.0</ele><time>2026-04-03T12:17:17.848Z</time></trkpt><trkpt lat="45.0083323" lon="6.8732911"><ele>2107.0</ele><time>2026-04-03T12:17:19.866Z</time></trkpt><trkpt lat="45.0082514" lon="6.873324"><ele>2107.0</ele><time>2026-04-03T12:17:21.863Z</time></trkpt><trkpt lat="45.008171" lon="6.8733597"><ele>2107.0</ele><time>2026-04-03T12:17:23.854Z</time></trkpt><trkpt lat="45.0080937" lon="6.8733883"><ele>2107.0</ele><time>2026-04-03T12:17:25.855Z</time></trkpt><trkpt lat="45.0080149" lon="6.8734174"><ele>2110.666666666667</ele><time>2026-04-03T12:17:27.86Z</time></trkpt><trkpt lat="45.0079364" lon="6.8734482"><ele>2114.3333333333335</ele><time>2026-04-03T12:17:29.864Z</time></trkpt><trkpt lat="45.007859" lon="6.873479"><ele>2118.0</ele><time>2026-04-03T12:17:31.848Z</time></trkpt><trkpt lat="45.0077787" lon="6.873509"><ele>2121.6666666666665</ele><time>2026-04-03T12:17:33.858Z</time></trkpt><trkpt lat="45.0076994" lon="6.873539"><ele>2125.333333333333</ele><time>2026-04-03T12:17:35.853Z</time></trkpt><trkpt lat="45.0076222" lon="6.8735665"><ele>2129.0</ele><time>2026-04-03T12:17:37.86Z</time></trkpt><trkpt lat="45.0075412" lon="6.8735957"><ele>2131.833333333333</ele><time>2026-04-03T12:17:39.86Z</time></trkpt><trkpt lat="45.0074625" lon="6.8736233"><ele>2134.6666666666665</ele><time>2026-04-03T12:17:41.852Z</time></trkpt><trkpt lat="45.0073847" lon="6.8736504"><ele>2137.5</ele><time>2026-04-03T12:17:43.854Z</time></trkpt><trkpt lat="45.0073078" lon="6.8736776"><ele>2140.3333333333335</ele><time>2026-04-03T12:17:45.857Z</time></trkpt><trkpt lat="45.0072301" lon="6.8737055"><ele>2143.166666666667</ele><time>2026-04-03T12:17:47.866Z</time></trkpt><trkpt lat="45.0071531" lon="6.8737331"><ele>2146.0</ele><time>2026-04-03T12:17:49.858Z</time></trkpt><trkpt lat="45.0070753" lon="6.8737605"><ele>2146.0</ele><time>2026-04-03T12:17:51.855Z</time></trkpt><trkpt lat="45.0069965" lon="6.8737895"><ele>2146.0</ele><time>2026-04-03T12:17:53.859Z</time></trkpt><trkpt lat="45.0069184" lon="6.8738205"><ele>2146.0</ele><time>2026-04-03T12:17:55.864Z</time></trkpt><trkpt lat="45.0068416" lon="6.8738503"><ele>2146.0</ele><time>2026-04-03T12:17:57.858Z</time></trkpt><trkpt lat="45.006764" lon="6.8738774"><ele>2146.0</ele><time>2026-04-03T12:17:59.85Z</time></trkpt><trkpt lat="45.006687" lon="6.8739039"><ele>2146.0</ele><time>2026-04-03T12:18:01.863Z</time></trkpt><trkpt lat="45.0066084" lon="6.8739311"><ele>2151.166666666667</ele><time>2026-04-03T12:18:03.853Z</time></trkpt><trkpt lat="45.0065321" lon="6.8739579"><ele>2156.3333333333335</ele><time>2026-04-03T12:18:05.86Z</time></trkpt><trkpt lat="45.0064553" lon="6.8739852"><ele>2161.5</ele><time>2026-04-03T12:18:07.861Z</time></trkpt><trkpt lat="45.0063787" lon="6.8740125"><ele>2166.6666666666665</ele><time>2026-04-03T12:18:09.861Z</time></trkpt><trkpt lat="45.0063094" lon="6.8740393"><ele>2171.833333333333</ele><time>2026-04-03T12:18:11.855Z</time></trkpt><trkpt lat="45.0062359" lon="6.8740658"><ele>2177.0</ele><time>2026-04-03T12:18:13.856Z</time></trkpt><trkpt lat="45.0061622" lon="6.874091"><ele>2177.0</ele><time>2026-04-03T12:18:15.858Z</time></trkpt><trkpt lat="45.0060908" lon="6.8741177"><ele>2177.0</ele><time>2026-04-03T12:18:17.853Z</time></trkpt><trkpt lat="45.0060195" lon="6.8741409"><ele>2177.0</ele><time>2026-04-03T12:18:19.86Z</time></trkpt><trkpt lat="45.0059479" lon="6.8741648"><ele>2177.0</ele><time>2026-04-03T12:18:21.846Z</time></trkpt><trkpt lat="45.005876" lon="6.8741896"><ele>2177.0</ele><time>2026-04-03T12:18:23.855Z</time></trkpt><trkpt lat="45.0058078" lon="6.8742131"><ele>2177.0</ele><time>2026-04-03T12:18:25.857Z</time></trkpt><trkpt lat="45.0057334" lon="6.8742392"><ele>2177.0</ele><time>2026-04-03T12:18:27.849Z</time></trkpt><trkpt lat="45.0056615" lon="6.8742617"><ele>2182.714285714286</ele><time>2026-04-03T12:18:29.858Z</time></trkpt><trkpt lat="45.0055894" lon="6.8742866"><ele>2188.4285714285716</ele><time>2026-04-03T12:18:31.864Z</time></trkpt><trkpt lat="45.0055161" lon="6.8743125"><ele>2194.142857142857</ele><time>2026-04-03T12:18:33.855Z</time></trkpt><trkpt lat="45.0054443" lon="6.8743384"><ele>2199.857142857143</ele><time>2026-04-03T12:18:35.855Z</time></trkpt><trkpt lat="45.0053711" lon="6.8743618"><ele>2205.5714285714284</ele><time>2026-04-03T12:18:37.857Z</time></trkpt><trkpt lat="45.0053001" lon="6.8743846"><ele>2211.285714285714</ele><time>2026-04-03T12:18:39.863Z</time></trkpt><trkpt lat="45.0052307" lon="6.8744117"><ele>2217.0</ele><time>2026-04-03T12:18:41.855Z</time></trkpt><trkpt lat="45.0051612" lon="6.8744394"><ele>2217.0</ele><time>2026-04-03T12:18:43.854Z</time></trkpt><trkpt lat="45.005092" lon="6.8744636"><ele>2217.0</ele><time>2026-04-03T12:18:45.857Z</time></trkpt><trkpt lat="45.0050199" lon="6.8744874"><ele>2217.0</ele><time>2026-04-03T12:18:47.856Z</time></trkpt><trkpt lat="45.0049518" lon="6.8745097"><ele>2217.0</ele><time>2026-04-03T12:18:49.851Z</time></trkpt><trkpt lat="45.0048756" lon="6.8745327"><ele>2217.0</ele><time>2026-04-03T12:18:51.866Z</time></trkpt><trkpt lat="45.0048012" lon="6.8745555"><ele>2217.0</ele><time>2026-04-03T12:18:53.863Z</time></trkpt><trkpt lat="45.0047226" lon="6.874581"><ele>2221.3333333333335</ele><time>2026-04-03T12:18:55.864Z</time></trkpt><trkpt lat="45.0046478" lon="6.8746069"><ele>2225.6666666666665</ele><time>2026-04-03T12:18:57.854Z</time></trkpt><trkpt lat="45.0045725" lon="6.8746326"><ele>2230.0</ele><time>2026-04-03T12:18:59.858Z</time></trkpt><trkpt lat="45.0044992" lon="6.8746586"><ele>2234.333333333333</ele><time>2026-04-03T12:19:01.862Z</time></trkpt><trkpt lat="45.0044272" lon="6.874685"><ele>2238.6666666666665</ele><time>2026-04-03T12:19:03.861Z</time></trkpt><trkpt lat="45.0043547" lon="6.8747138"><ele>2243.0</ele><time>2026-04-03T12:19:05.855Z</time></trkpt><trkpt lat="45.0042841" lon="6.8747414"><ele>2243.0</ele><time>2026-04-03T12:19:07.863Z</time></trkpt><trkpt lat="45.0042111" lon="6.8747673"><ele>2243.0</ele><time>2026-04-03T12:19:09.855Z</time></trkpt><trkpt lat="45.0041377" lon="6.8747892"><ele>2243.0</ele><time>2026-04-03T12:19:11.854Z</time></trkpt><trkpt lat="45.004067" lon="6.8748088"><ele>2243.0</ele><time>2026-04-03T12:19:13.868Z</time></trkpt><trkpt lat="45.0039953" lon="6.8748324"><ele>2243.0</ele><time>2026-04-03T12:19:15.851Z</time></trkpt><trkpt lat="45.0039239" lon="6.8748584"><ele>2243.0</ele><time>2026-04-03T12:19:17.862Z</time></trkpt><trkpt lat="45.0038515" lon="6.8748842"><ele>2243.0</ele><time>2026-04-03T12:19:19.857Z</time></trkpt><trkpt lat="45.0037796" lon="6.8749107"><ele>2246.1666666666665</ele><time>2026-04-03T12:19:21.853Z</time></trkpt><trkpt lat="45.003705" lon="6.8749393"><ele>2249.333333333333</ele><time>2026-04-03T12:19:23.859Z</time></trkpt><trkpt lat="45.0036272" lon="6.8749691"><ele>2252.5</ele><time>2026-04-03T12:19:25.863Z</time></trkpt><trkpt lat="45.0035483" lon="6.8749971"><ele>2255.6666666666665</ele><time>2026-04-03T12:19:27.854Z</time></trkpt><trkpt lat="45.003473" lon="6.8750245"><ele>2258.8333333333335</ele><time>2026-04-03T12:19:29.86Z</time></trkpt><trkpt lat="45.0034018" lon="6.8750611"><ele>2262.0</ele><time>2026-04-03T12:19:32.855Z</time></trkpt><trkpt lat="45.0033312" lon="6.875073"><ele>2263.8333333333335</ele><time>2026-04-03T12:19:37.853Z</time></trkpt><trkpt lat="45.0032349" lon="6.8750487"><ele>2265.6666666666665</ele><time>2026-04-03T12:19:39.861Z</time></trkpt><trkpt lat="45.0031588" lon="6.8750028"><ele>2267.5</ele><time>2026-04-03T12:19:42.855Z</time></trkpt><trkpt lat="45.0031133" lon="6.8749404"><ele>2269.333333333333</ele><time>2026-04-03T12:19:45.856Z</time></trkpt><trkpt lat="45.0030489" lon="6.874903"><ele>2271.1666666666665</ele><time>2026-04-03T12:19:48.858Z</time></trkpt><trkpt lat="45.0029786" lon="6.8748418"><ele>2273.0</ele><time>2026-04-03T12:19:51.854Z</time></trkpt><trkpt lat="45.0029045" lon="6.8747856"><ele>2273.0</ele><time>2026-04-03T12:19:54.852Z</time></trkpt><trkpt lat="45.0028782" lon="6.8747031"><ele>2273.0</ele><time>2026-04-03T12:20:07.858Z</time></trkpt><trkpt lat="45.0029653" lon="6.8745734"><ele>2273.0</ele><time>2026-04-03T12:20:10.858Z</time></trkpt><trkpt lat="45.003059" lon="6.8744523"><ele>2273.0</ele><time>2026-04-03T12:20:12.846Z</time></trkpt><trkpt lat="45.0031138" lon="6.8743734"><ele>2273.0</ele><time>2026-04-03T12:20:13.854Z</time></trkpt><trkpt lat="45.0031633" lon="6.8742783"><ele>2272.6</ele><time>2026-04-03T12:20:14.856Z</time></trkpt><trkpt lat="45.0031952" lon="6.874162"><ele>2272.2000000000003</ele><time>2026-04-03T12:20:15.859Z</time></trkpt><trkpt lat="45.003241" lon="6.8740481"><ele>2271.8</ele><time>2026-04-03T12:20:16.859Z</time></trkpt><trkpt lat="45.0032666" lon="6.8739142"><ele>2271.4</ele><time>2026-04-03T12:20:17.861Z</time></trkpt><trkpt lat="45.0033302" lon="6.8737965"><ele>2271.0</ele><time>2026-04-03T12:20:18.86Z</time></trkpt><trkpt lat="45.0034263" lon="6.873733"><ele>2267.5</ele><time>2026-04-03T12:20:19.862Z</time></trkpt><trkpt lat="45.0035096" lon="6.8736592"><ele>2264.0</ele><time>2026-04-03T12:20:20.86Z</time></trkpt><trkpt lat="45.0036031" lon="6.8736216"><ele>2260.5</ele><time>2026-04-03T12:20:21.861Z</time></trkpt><trkpt lat="45.0037375" lon="6.8737815"><ele>2257.0</ele><time>2026-04-03T12:20:22.864Z</time></trkpt><trkpt lat="45.0038123" lon="6.8738848"><ele>2257.0</ele><time>2026-04-03T12:20:23.864Z</time></trkpt><trkpt lat="45.0039521" lon="6.8738944"><ele>2257.0</ele><time>2026-04-03T12:20:24.864Z</time></trkpt><trkpt lat="45.0040538" lon="6.8739338"><ele>2257.0</ele><time>2026-04-03T12:20:25.862Z</time></trkpt><trkpt lat="45.0041344" lon="6.8740325"><ele>2257.0</ele><time>2026-04-03T12:20:26.855Z</time></trkpt><trkpt lat="45.0041955" lon="6.8741762"><ele>2253.5</ele><time>2026-04-03T12:20:27.855Z</time></trkpt><trkpt lat="45.0042091" lon="6.8743392"><ele>2250.0</ele><time>2026-04-03T12:20:28.857Z</time></trkpt><trkpt lat="45.0041864" lon="6.8744975"><ele>2246.5</ele><time>2026-04-03T12:20:29.861Z</time></trkpt><trkpt lat="45.0042192" lon="6.8746633"><ele>2243.0</ele><time>2026-04-03T12:20:30.864Z</time></trkpt><trkpt lat="45.0043036" lon="6.8747532"><ele>2243.0</ele><time>2026-04-03T12:20:31.862Z</time></trkpt><trkpt lat="45.0043617" lon="6.8748539"><ele>2243.0</ele><time>2026-04-03T12:20:32.847Z</time></trkpt><trkpt lat="45.0044261" lon="6.8748719"><ele>2243.0</ele><time>2026-04-03T12:20:33.853Z</time></trkpt><trkpt lat="45.0045755" lon="6.8746413"><ele>2243.0</ele><time>2026-04-03T12:20:34.846Z</time></trkpt><trkpt lat="45.0046781" lon="6.8746175"><ele>2243.0</ele><time>2026-04-03T12:20:35.847Z</time></trkpt><trkpt lat="45.0047927" lon="6.8745281"><ele>2243.0</ele><time>2026-04-03T12:20:36.853Z</time></trkpt><trkpt lat="45.0048728" lon="6.8744273"><ele>2243.0</ele><time>2026-04-03T12:20:37.847Z</time></trkpt><trkpt lat="45.004907" lon="6.8742843"><ele>2243.0</ele><time>2026-04-03T12:20:38.869Z</time></trkpt><trkpt lat="45.0049445" lon="6.8741443"><ele>2243.0</ele><time>2026-04-03T12:20:39.858Z</time></trkpt><trkpt lat="45.004979" lon="6.873993"><ele>2243.0</ele><time>2026-04-03T12:20:40.856Z</time></trkpt><trkpt lat="45.0049988" lon="6.8737924"><ele>2243.0</ele><time>2026-04-03T12:20:41.859Z</time></trkpt><trkpt lat="45.0049688" lon="6.8736146"><ele>2243.0</ele><time>2026-04-03T12:20:42.863Z</time></trkpt><trkpt lat="45.0050052" lon="6.8734745"><ele>2237.2000000000003</ele><time>2026-04-03T12:20:43.855Z</time></trkpt><trkpt lat="45.0050788" lon="6.8733499"><ele>2231.4</ele><time>2026-04-03T12:20:44.854Z</time></trkpt><trkpt lat="45.0050694" lon="6.8732596"><ele>2225.6000000000004</ele><time>2026-04-03T12:20:45.856Z</time></trkpt><trkpt lat="45.005083" lon="6.8731255"><ele>2219.8</ele><time>2026-04-03T12:20:46.856Z</time></trkpt><trkpt lat="45.0051311" lon="6.8730101"><ele>2214.0</ele><time>2026-04-03T12:20:47.861Z</time></trkpt><trkpt lat="45.0051373" lon="6.872886"><ele>2214.0</ele><time>2026-04-03T12:20:48.86Z</time></trkpt><trkpt lat="45.0051499" lon="6.8727482"><ele>2214.0</ele><time>2026-04-03T12:20:49.85Z</time></trkpt><trkpt lat="45.0051329" lon="6.8726267"><ele>2214.0</ele><time>2026-04-03T12:20:50.866Z</time></trkpt><trkpt lat="45.0050958" lon="6.8725421"><ele>2214.0</ele><time>2026-04-03T12:20:51.859Z</time></trkpt><trkpt lat="45.0050513" lon="6.8724404"><ele>2214.0</ele><time>2026-04-03T12:20:52.849Z</time></trkpt><trkpt lat="45.0050066" lon="6.8723535"><ele>2214.0</ele><time>2026-04-03T12:20:53.86Z</time></trkpt><trkpt lat="45.0049658" lon="6.8722422"><ele>2215.2</ele><time>2026-04-03T12:20:54.86Z</time></trkpt><trkpt lat="45.0049269" lon="6.8721244"><ele>2216.4</ele><time>2026-04-03T12:20:55.858Z</time></trkpt><trkpt lat="45.0048946" lon="6.871998"><ele>2217.6</ele><time>2026-04-03T12:20:56.862Z</time></trkpt><trkpt lat="45.004884" lon="6.8718685"><ele>2218.8</ele><time>2026-04-03T12:20:57.857Z</time></trkpt><trkpt lat="45.0048937" lon="6.8717325"><ele>2220.0</ele><time>2026-04-03T12:20:58.854Z</time></trkpt><trkpt lat="45.0049214" lon="6.8716053"><ele>2220.0</ele><time>2026-04-03T12:20:59.856Z</time></trkpt><trkpt lat="45.0049539" lon="6.8714797"><ele>2220.0</ele><time>2026-04-03T12:21:00.86Z</time></trkpt><trkpt lat="45.0049906" lon="6.8713491"><ele>2220.0</ele><time>2026-04-03T12:21:01.863Z</time></trkpt><trkpt lat="45.0050298" lon="6.8712232"><ele>2220.0</ele><time>2026-04-03T12:21:02.866Z</time></trkpt><trkpt lat="45.0050683" lon="6.8710898"><ele>2220.0</ele><time>2026-04-03T12:21:03.861Z</time></trkpt><trkpt lat="45.0050861" lon="6.870953"><ele>2218.0</ele><time>2026-04-03T12:21:04.849Z</time></trkpt><trkpt lat="45.0050543" lon="6.8708344"><ele>2216.0</ele><time>2026-04-03T12:21:05.847Z</time></trkpt><trkpt lat="45.0050056" lon="6.8707386"><ele>2214.0</ele><time>2026-04-03T12:21:06.856Z</time></trkpt><trkpt lat="45.0049544" lon="6.8706403"><ele>2212.0</ele><time>2026-04-03T12:21:07.851Z</time></trkpt><trkpt lat="45.0049209" lon="6.8705272"><ele>2210.0</ele><time>2026-04-03T12:21:08.86Z</time></trkpt><trkpt lat="45.004941" lon="6.8704103"><ele>2208.0</ele><time>2026-04-03T12:21:09.863Z</time></trkpt><trkpt lat="45.0049923" lon="6.8703284"><ele>2203.3333333333335</ele><time>2026-04-03T12:21:10.863Z</time></trkpt><trkpt lat="45.005033" lon="6.8702228"><ele>2198.6666666666665</ele><time>2026-04-03T12:21:11.865Z</time></trkpt><trkpt lat="45.0050351" lon="6.8701023"><ele>2194.0</ele><time>2026-04-03T12:21:12.849Z</time></trkpt><trkpt lat="45.0050599" lon="6.8699804"><ele>2189.333333333333</ele><time>2026-04-03T12:21:13.851Z</time></trkpt><trkpt lat="45.0051105" lon="6.8698763"><ele>2184.6666666666665</ele><time>2026-04-03T12:21:14.864Z</time></trkpt><trkpt lat="45.0051781" lon="6.8697886"><ele>2180.0</ele><time>2026-04-03T12:21:15.853Z</time></trkpt><trkpt lat="45.0052438" lon="6.8696862"><ele>2177.0</ele><time>2026-04-03T12:21:16.849Z</time></trkpt><trkpt lat="45.0053051" lon="6.8695718"><ele>2174.0</ele><time>2026-04-03T12:21:17.85Z</time></trkpt><trkpt lat="45.0053611" lon="6.8694445"><ele>2171.0</ele><time>2026-04-03T12:21:18.856Z</time></trkpt><trkpt lat="45.005402" lon="6.8693043"><ele>2168.0</ele><time>2026-04-03T12:21:19.857Z</time></trkpt><trkpt lat="45.0054373" lon="6.8691761"><ele>2165.0</ele><time>2026-04-03T12:21:20.86Z</time></trkpt><trkpt lat="45.0054793" lon="6.8690547"><ele>2163.333333333333</ele><time>2026-04-03T12:21:21.859Z</time></trkpt><trkpt lat="45.0055301" lon="6.868942"><ele>2161.6666666666665</ele><time>2026-04-03T12:21:22.863Z</time></trkpt><trkpt lat="45.0055831" lon="6.8688428"><ele>2160.0</ele><time>2026-04-03T12:21:23.854Z</time></trkpt><trkpt lat="45.0056219" lon="6.8687341"><ele>2158.3333333333335</ele><time>2026-04-03T12:21:24.856Z</time></trkpt><trkpt lat="45.0056696" lon="6.8686526"><ele>2156.666666666667</ele><time>2026-04-03T12:21:25.861Z</time></trkpt><trkpt lat="45.0057267" lon="6.8686005"><ele>2155.0</ele><time>2026-04-03T12:21:27.857Z</time></trkpt><trkpt lat="45.0057935" lon="6.8686045"><ele>2154.666666666667</ele><time>2026-04-03T12:21:45.863Z</time></trkpt><trkpt lat="45.0058559" lon="6.8685854"><ele>2154.3333333333335</ele><time>2026-04-03T12:21:48.86Z</time></trkpt><trkpt lat="45.0059264" lon="6.8685607"><ele>2154.0</ele><time>2026-04-03T12:21:51.86Z</time></trkpt><trkpt lat="45.0059965" lon="6.8685427"><ele>2153.6666666666665</ele><time>2026-04-03T12:21:53.853Z</time></trkpt><trkpt lat="45.006106" lon="6.8685505"><ele>2153.333333333333</ele><time>2026-04-03T12:21:55.854Z</time></trkpt><trkpt lat="45.0061849" lon="6.8685403"><ele>2153.0</ele><time>2026-04-03T12:21:56.864Z</time></trkpt><trkpt lat="45.0062729" lon="6.8685363"><ele>2153.0</ele><time>2026-04-03T12:21:57.859Z</time></trkpt><trkpt lat="45.006365" lon="6.8685965"><ele>2153.0</ele><time>2026-04-03T12:21:58.854Z</time></trkpt><trkpt lat="45.0064614" lon="6.8686288"><ele>2153.0</ele><time>2026-04-03T12:21:59.854Z</time></trkpt><trkpt lat="45.0065693" lon="6.8686386"><ele>2153.0</ele><time>2026-04-03T12:22:00.859Z</time></trkpt><trkpt lat="45.0066734" lon="6.8686462"><ele>2153.0</ele><time>2026-04-03T12:22:01.847Z</time></trkpt><trkpt lat="45.0067951" lon="6.868584"><ele>2148.25</ele><time>2026-04-03T12:22:02.855Z</time></trkpt><trkpt lat="45.0069592" lon="6.8685888"><ele>2143.5</ele><time>2026-04-03T12:22:03.858Z</time></trkpt><trkpt lat="45.0070464" lon="6.8686136"><ele>2138.75</ele><time>2026-04-03T12:22:04.848Z</time></trkpt><trkpt lat="45.0071706" lon="6.8686286"><ele>2134.0</ele><time>2026-04-03T12:22:05.865Z</time></trkpt><trkpt lat="45.0072488" lon="6.8686078"><ele>2134.0</ele><time>2026-04-03T12:22:06.85Z</time></trkpt><trkpt lat="45.0073295" lon="6.8685414"><ele>2134.0</ele><time>2026-04-03T12:22:07.851Z</time></trkpt><trkpt lat="45.0074135" lon="6.8683193"><ele>2134.0</ele><time>2026-04-03T12:22:08.863Z</time></trkpt><trkpt lat="45.0075155" lon="6.8682058"><ele>2134.0</ele><time>2026-04-03T12:22:09.847Z</time></trkpt><trkpt lat="45.0076197" lon="6.8680254"><ele>2127.75</ele><time>2026-04-03T12:22:10.847Z</time></trkpt><trkpt lat="45.0077759" lon="6.8679518"><ele>2121.5</ele><time>2026-04-03T12:22:11.849Z</time></trkpt><trkpt lat="45.0079052" lon="6.8679084"><ele>2115.25</ele><time>2026-04-03T12:22:12.857Z</time></trkpt><trkpt lat="45.008041" lon="6.8678767"><ele>2109.0</ele><time>2026-04-03T12:22:13.859Z</time></trkpt><trkpt lat="45.0081502" lon="6.8677451"><ele>2109.0</ele><time>2026-04-03T12:22:14.854Z</time></trkpt><trkpt lat="45.0082472" lon="6.8676537"><ele>2109.0</ele><time>2026-04-03T12:22:15.855Z</time></trkpt><trkpt lat="45.0082709" lon="6.8675273"><ele>2109.0</ele><time>2026-04-03T12:22:16.851Z</time></trkpt><trkpt lat="45.0083709" lon="6.8675518"><ele>2109.0</ele><time>2026-04-03T12:22:17.852Z</time></trkpt><trkpt lat="45.0084565" lon="6.8675476"><ele>2109.0</ele><time>2026-04-03T12:22:18.847Z</time></trkpt><trkpt lat="45.0085497" lon="6.8675438"><ele>2105.0</ele><time>2026-04-03T12:22:19.862Z</time></trkpt><trkpt lat="45.0086407" lon="6.8675179"><ele>2101.0</ele><time>2026-04-03T12:22:20.856Z</time></trkpt><trkpt lat="45.0087275" lon="6.867462"><ele>2097.0</ele><time>2026-04-03T12:22:21.867Z</time></trkpt><trkpt lat="45.008816" lon="6.8674759"><ele>2093.0</ele><time>2026-04-03T12:22:22.859Z</time></trkpt><trkpt lat="45.008923" lon="6.8676283"><ele>2089.0</ele><time>2026-04-03T12:22:23.87Z</time></trkpt><trkpt lat="45.0090005" lon="6.8677731"><ele>2088.5</ele><time>2026-04-03T12:22:24.858Z</time></trkpt><trkpt lat="45.0090558" lon="6.8679359"><ele>2088.0</ele><time>2026-04-03T12:22:25.862Z</time></trkpt><trkpt lat="45.0091212" lon="6.8680988"><ele>2087.5</ele><time>2026-04-03T12:22:26.849Z</time></trkpt><trkpt lat="45.0092364" lon="6.8681065"><ele>2087.0</ele><time>2026-04-03T12:22:27.864Z</time></trkpt><trkpt lat="45.0093072" lon="6.868152"><ele>2081.6</ele><time>2026-04-03T12:22:28.86Z</time></trkpt><trkpt lat="45.0094053" lon="6.8681563"><ele>2076.2</ele><time>2026-04-03T12:22:29.856Z</time></trkpt><trkpt lat="45.0095069" lon="6.8681336"><ele>2070.8</ele><time>2026-04-03T12:22:30.856Z</time></trkpt><trkpt lat="45.0095759" lon="6.8682126"><ele>2065.4</ele><time>2026-04-03T12:22:31.845Z</time></trkpt><trkpt lat="45.0096364" lon="6.8682882"><ele>2060.0</ele><time>2026-04-03T12:22:32.858Z</time></trkpt><trkpt lat="45.0097061" lon="6.8683651"><ele>2060.0</ele><time>2026-04-03T12:22:33.853Z</time></trkpt><trkpt lat="45.0097692" lon="6.8684084"><ele>2060.0</ele><time>2026-04-03T12:22:34.861Z</time></trkpt><trkpt lat="45.0098608" lon="6.8684133"><ele>2060.0</ele><time>2026-04-03T12:22:35.854Z</time></trkpt><trkpt lat="45.0100546" lon="6.868307"><ele>2060.0</ele><time>2026-04-03T12:22:36.866Z</time></trkpt><trkpt lat="45.0101979" lon="6.8683068"><ele>2053.6</ele><time>2026-04-03T12:22:37.856Z</time></trkpt><trkpt lat="45.010236" lon="6.8684392"><ele>2047.2</ele><time>2026-04-03T12:22:38.861Z</time></trkpt><trkpt lat="45.0103409" lon="6.8684952"><ele>2040.8000000000002</ele><time>2026-04-03T12:22:39.854Z</time></trkpt><trkpt lat="45.0104484" lon="6.8685236"><ele>2034.4</ele><time>2026-04-03T12:22:40.859Z</time></trkpt><trkpt lat="45.0105668" lon="6.8685018"><ele>2028.0</ele><time>2026-04-03T12:22:41.868Z</time></trkpt><trkpt lat="45.0107414" lon="6.8684998"><ele>2020.0</ele><time>2026-04-03T12:22:42.862Z</time></trkpt><trkpt lat="45.0108835" lon="6.8685636"><ele>2012.0</ele><time>2026-04-03T12:22:43.849Z</time></trkpt><trkpt lat="45.0109755" lon="6.8686926"><ele>2004.0</ele><time>2026-04-03T12:22:44.849Z</time></trkpt><trkpt lat="45.0110744" lon="6.8688112"><ele>1996.0</ele><time>2026-04-03T12:22:45.852Z</time></trkpt><trkpt lat="45.0112101" lon="6.8688713"><ele>1996.0</ele><time>2026-04-03T12:22:46.851Z</time></trkpt><trkpt lat="45.0113486" lon="6.8689155"><ele>1996.0</ele><time>2026-04-03T12:22:47.846Z</time></trkpt><trkpt lat="45.0114814" lon="6.8689461"><ele>1996.0</ele><time>2026-04-03T12:22:48.858Z</time></trkpt><trkpt lat="45.0115699" lon="6.8688941"><ele>1996.0</ele><time>2026-04-03T12:22:49.857Z</time></trkpt><trkpt lat="45.0117008" lon="6.8688832"><ele>1993.0</ele><time>2026-04-03T12:22:50.863Z</time></trkpt><trkpt lat="45.0117748" lon="6.868989"><ele>1990.0</ele><time>2026-04-03T12:22:51.859Z</time></trkpt><trkpt lat="45.0118437" lon="6.8690867"><ele>1987.0</ele><time>2026-04-03T12:22:52.853Z</time></trkpt><trkpt lat="45.0119045" lon="6.8692163"><ele>1984.0</ele><time>2026-04-03T12:22:53.856Z</time></trkpt><trkpt lat="45.0120105" lon="6.8693218"><ele>1981.0</ele><time>2026-04-03T12:22:54.861Z</time></trkpt><trkpt lat="45.0120851" lon="6.8693814"><ele>1980.0</ele><time>2026-04-03T12:22:55.848Z</time></trkpt><trkpt lat="45.0121748" lon="6.86943"><ele>1979.0</ele><time>2026-04-03T12:22:56.867Z</time></trkpt><trkpt lat="45.0122758" lon="6.8693302"><ele>1978.0</ele><time>2026-04-03T12:22:57.863Z</time></trkpt><trkpt lat="45.0123707" lon="6.8693791"><ele>1977.0</ele><time>2026-04-03T12:22:58.856Z</time></trkpt><trkpt lat="45.0124909" lon="6.8694406"><ele>1976.0</ele><time>2026-04-03T12:22:59.86Z</time></trkpt><trkpt lat="45.0125522" lon="6.8696016"><ele>1970.5</ele><time>2026-04-03T12:23:00.854Z</time></trkpt><trkpt lat="45.0126676" lon="6.8697058"><ele>1965.0</ele><time>2026-04-03T12:23:01.855Z</time></trkpt><trkpt lat="45.0128022" lon="6.8697389"><ele>1959.5</ele><time>2026-04-03T12:23:02.856Z</time></trkpt><trkpt lat="45.0129247" lon="6.8697451"><ele>1954.0</ele><time>2026-04-03T12:23:03.85Z</time></trkpt><trkpt lat="45.0130741" lon="6.8697503"><ele>1954.0</ele><time>2026-04-03T12:23:04.858Z</time></trkpt><trkpt lat="45.0132069" lon="6.8698107"><ele>1954.0</ele><time>2026-04-03T12:23:05.858Z</time></trkpt><trkpt lat="45.0133524" lon="6.8698689"><ele>1954.0</ele><time>2026-04-03T12:23:06.854Z</time></trkpt><trkpt lat="45.0134562" lon="6.8700061"><ele>1954.0</ele><time>2026-04-03T12:23:07.857Z</time></trkpt><trkpt lat="45.0135836" lon="6.8700385"><ele>1949.25</ele><time>2026-04-03T12:23:08.863Z</time></trkpt><trkpt lat="45.0136989" lon="6.8700332"><ele>1944.5</ele><time>2026-04-03T12:23:09.854Z</time></trkpt><trkpt lat="45.0138227" lon="6.8700427"><ele>1939.75</ele><time>2026-04-03T12:23:10.861Z</time></trkpt><trkpt lat="45.0139426" lon="6.8700717"><ele>1935.0</ele><time>2026-04-03T12:23:11.864Z</time></trkpt><trkpt lat="45.0140525" lon="6.8700967"><ele>1935.0</ele><time>2026-04-03T12:23:12.859Z</time></trkpt><trkpt lat="45.0141307" lon="6.8700764"><ele>1935.0</ele><time>2026-04-03T12:23:13.86Z</time></trkpt><trkpt lat="45.0142257" lon="6.8700058"><ele>1935.0</ele><time>2026-04-03T12:23:15.859Z</time></trkpt><trkpt lat="45.0142849" lon="6.8698986"><ele>1935.0</ele><time>2026-04-03T12:23:46.853Z</time></trkpt><trkpt lat="45.0143736" lon="6.8698068"><ele>1935.0</ele><time>2026-04-03T12:23:48.862Z</time></trkpt><trkpt lat="45.0144332" lon="6.8697537"><ele>1932.2</ele><time>2026-04-03T12:23:49.868Z</time></trkpt><trkpt lat="45.0145041" lon="6.8696978"><ele>1929.4</ele><time>2026-04-03T12:23:50.86Z</time></trkpt><trkpt lat="45.0145987" lon="6.8696762"><ele>1926.6</ele><time>2026-04-03T12:23:51.852Z</time></trkpt><trkpt lat="45.0146982" lon="6.8696551"><ele>1923.8</ele><time>2026-04-03T12:23:52.856Z</time></trkpt><trkpt lat="45.0147997" lon="6.8696026"><ele>1921.0</ele><time>2026-04-03T12:23:53.858Z</time></trkpt><trkpt lat="45.0148805" lon="6.8694788"><ele>1921.0</ele><time>2026-04-03T12:23:54.856Z</time></trkpt><trkpt lat="45.0149397" lon="6.8693784"><ele>1921.0</ele><time>2026-04-03T12:23:55.855Z</time></trkpt><trkpt lat="45.0150462" lon="6.8693213"><ele>1921.0</ele><time>2026-04-03T12:23:56.858Z</time></trkpt><trkpt lat="45.0151386" lon="6.8692538"><ele>1921.0</ele><time>2026-04-03T12:23:57.858Z</time></trkpt><trkpt lat="45.0152666" lon="6.8691965"><ele>1921.0</ele><time>2026-04-03T12:23:58.854Z</time></trkpt><trkpt lat="45.0153568" lon="6.8690725"><ele>1916.75</ele><time>2026-04-03T12:23:59.855Z</time></trkpt><trkpt lat="45.0154481" lon="6.8689379"><ele>1912.5</ele><time>2026-04-03T12:24:00.864Z</time></trkpt><trkpt lat="45.015544" lon="6.8688073"><ele>1908.25</ele><time>2026-04-03T12:24:01.851Z</time></trkpt><trkpt lat="45.0156594" lon="6.8687447"><ele>1904.0</ele><time>2026-04-03T12:24:02.848Z</time></trkpt><trkpt lat="45.015768" lon="6.8686658"><ele>1900.25</ele><time>2026-04-03T12:24:03.862Z</time></trkpt><trkpt lat="45.0158847" lon="6.8685705"><ele>1896.5</ele><time>2026-04-03T12:24:04.857Z</time></trkpt><trkpt lat="45.015948" lon="6.8684626"><ele>1892.75</ele><time>2026-04-03T12:24:05.856Z</time></trkpt><trkpt lat="45.0160919" lon="6.8684179"><ele>1889.0</ele><time>2026-04-03T12:24:06.861Z</time></trkpt><trkpt lat="45.01621" lon="6.8684972"><ele>1889.0</ele><time>2026-04-03T12:24:07.86Z</time></trkpt><trkpt lat="45.0162706" lon="6.8687374"><ele>1889.0</ele><time>2026-04-03T12:24:08.859Z</time></trkpt><trkpt lat="45.0163679" lon="6.8688516"><ele>1889.0</ele><time>2026-04-03T12:24:09.863Z</time></trkpt><trkpt lat="45.016474" lon="6.8689377"><ele>1889.0</ele><time>2026-04-03T12:24:10.852Z</time></trkpt><trkpt lat="45.0165704" lon="6.8690212"><ele>1881.5</ele><time>2026-04-03T12:24:11.862Z</time></trkpt><trkpt lat="45.0167511" lon="6.8689545"><ele>1874.0</ele><time>2026-04-03T12:24:12.854Z</time></trkpt><trkpt lat="45.0168048" lon="6.8690786"><ele>1866.5</ele><time>2026-04-03T12:24:13.857Z</time></trkpt><trkpt lat="45.0168591" lon="6.86923"><ele>1859.0</ele><time>2026-04-03T12:24:14.866Z</time></trkpt><trkpt lat="45.0168897" lon="6.8693822"><ele>1858.75</ele><time>2026-04-03T12:24:15.859Z</time></trkpt><trkpt lat="45.0169551" lon="6.8695351"><ele>1858.5</ele><time>2026-04-03T12:24:16.865Z</time></trkpt><trkpt lat="45.0170104" lon="6.8696855"><ele>1858.25</ele><time>2026-04-03T12:24:17.857Z</time></trkpt><trkpt lat="45.0171404" lon="6.8697498"><ele>1858.0</ele><time>2026-04-03T12:24:18.852Z</time></trkpt><trkpt lat="45.0172134" lon="6.8698657"><ele>1858.0</ele><time>2026-04-03T12:24:19.859Z</time></trkpt><trkpt lat="45.0173186" lon="6.8699012"><ele>1858.0000000000002</ele><time>2026-04-03T12:24:20.851Z</time></trkpt><trkpt lat="45.0174" lon="6.8698949"><ele>1858.0000000000002</ele><time>2026-04-03T12:24:21.852Z</time></trkpt><trkpt lat="45.017488" lon="6.8698646"><ele>1858.0</ele><time>2026-04-03T12:24:22.864Z</time></trkpt><trkpt lat="45.0175944" lon="6.8698264"><ele>1858.0</ele><time>2026-04-03T12:24:23.848Z</time></trkpt><trkpt lat="45.0176976" lon="6.8698212"><ele>1848.5</ele><time>2026-04-03T12:24:24.861Z</time></trkpt><trkpt lat="45.0178268" lon="6.8699365"><ele>1839.0</ele><time>2026-04-03T12:24:25.853Z</time></trkpt><trkpt lat="45.0179468" lon="6.8699767"><ele>1829.5</ele><time>2026-04-03T12:24:26.86Z</time></trkpt><trkpt lat="45.0180626" lon="6.8699888"><ele>1820.0</ele><time>2026-04-03T12:24:27.853Z</time></trkpt><trkpt lat="45.0181988" lon="6.8699668"><ele>1814.25</ele><time>2026-04-03T12:24:28.867Z</time></trkpt><trkpt lat="45.0183664" lon="6.8699109"><ele>1808.5</ele><time>2026-04-03T12:24:29.867Z</time></trkpt><trkpt lat="45.0185286" lon="6.8699673"><ele>1802.75</ele><time>2026-04-03T12:24:30.86Z</time></trkpt><trkpt lat="45.0186306" lon="6.8700249"><ele>1797.0</ele><time>2026-04-03T12:24:31.86Z</time></trkpt><trkpt lat="45.0187523" lon="6.8700279"><ele>1797.0</ele><time>2026-04-03T12:24:32.855Z</time></trkpt><trkpt lat="45.0188638" lon="6.8699919"><ele>1797.0</ele><time>2026-04-03T12:24:33.852Z</time></trkpt><trkpt lat="45.0190538" lon="6.8699413"><ele>1797.0</ele><time>2026-04-03T12:24:34.86Z</time></trkpt><trkpt lat="45.0191933" lon="6.8699276"><ele>1797.0</ele><time>2026-04-03T12:24:35.855Z</time></trkpt><trkpt lat="45.0193191" lon="6.8698472"><ele>1792.8333333333333</ele><time>2026-04-03T12:24:36.853Z</time></trkpt><trkpt lat="45.0193618" lon="6.8697634"><ele>1788.6666666666665</ele><time>2026-04-03T12:24:37.856Z</time></trkpt><trkpt lat="45.0194017" lon="6.8696406"><ele>1784.5</ele><time>2026-04-03T12:24:38.864Z</time></trkpt><trkpt lat="45.0194379" lon="6.8695339"><ele>1780.3333333333333</ele><time>2026-04-03T12:24:39.865Z</time></trkpt><trkpt lat="45.0195158" lon="6.8694551"><ele>1776.1666666666665</ele><time>2026-04-03T12:24:40.85Z</time></trkpt><trkpt lat="45.0195896" lon="6.8693755"><ele>1772.0</ele><time>2026-04-03T12:24:41.855Z</time></trkpt><trkpt lat="45.0196771" lon="6.8692772"><ele>1770.5</ele><time>2026-04-03T12:24:42.86Z</time></trkpt><trkpt lat="45.0197643" lon="6.8691879"><ele>1769.0</ele><time>2026-04-03T12:24:43.854Z</time></trkpt><trkpt lat="45.0198596" lon="6.8690914"><ele>1767.5</ele><time>2026-04-03T12:24:44.858Z</time></trkpt><trkpt lat="45.0199564" lon="6.8689864"><ele>1766.0</ele><time>2026-04-03T12:24:45.855Z</time></trkpt><trkpt lat="45.0200434" lon="6.8688926"><ele>1761.75</ele><time>2026-04-03T12:24:46.862Z</time></trkpt><trkpt lat="45.0201421" lon="6.8688236"><ele>1757.5</ele><time>2026-04-03T12:24:47.857Z</time></trkpt><trkpt lat="45.0202428" lon="6.8687676"><ele>1753.25</ele><time>2026-04-03T12:24:48.856Z</time></trkpt><trkpt lat="45.0203616" lon="6.8687983"><ele>1749.0</ele><time>2026-04-03T12:24:49.856Z</time></trkpt><trkpt lat="45.0204731" lon="6.8688439"><ele>1749.0</ele><time>2026-04-03T12:24:50.859Z</time></trkpt><trkpt lat="45.0205801" lon="6.8688396"><ele>1749.0</ele><time>2026-04-03T12:24:51.867Z</time></trkpt><trkpt lat="45.0206979" lon="6.8687845"><ele>1749.0</ele><time>2026-04-03T12:24:52.859Z</time></trkpt><trkpt lat="45.0207932" lon="6.8688278"><ele>1749.0</ele><time>2026-04-03T12:24:53.852Z</time></trkpt><trkpt lat="45.0208863" lon="6.8689066"><ele>1749.0</ele><time>2026-04-03T12:24:54.845Z</time></trkpt><trkpt lat="45.0209831" lon="6.8689618"><ele>1745.8000000000002</ele><time>2026-04-03T12:24:55.863Z</time></trkpt><trkpt lat="45.0210825" lon="6.8689663"><ele>1742.6000000000001</ele><time>2026-04-03T12:24:56.85Z</time></trkpt><trkpt lat="45.0212188" lon="6.8689354"><ele>1739.4</ele><time>2026-04-03T12:24:57.854Z</time></trkpt><trkpt lat="45.0213112" lon="6.8688818"><ele>1736.2</ele><time>2026-04-03T12:24:58.864Z</time></trkpt><trkpt lat="45.0213792" lon="6.8688388"><ele>1733.0</ele><time>2026-04-03T12:24:59.855Z</time></trkpt><trkpt lat="45.021443" lon="6.8688164"><ele>1732.9999999999998</ele><time>2026-04-03T12:25:00.855Z</time></trkpt><trkpt lat="45.0215246" lon="6.8687635"><ele>1733.0</ele><time>2026-04-03T12:25:02.862Z</time></trkpt><trkpt lat="45.0214858" lon="6.8686891"><ele>1733.0</ele><time>2026-04-03T12:25:20.863Z</time></trkpt><trkpt lat="45.0214261" lon="6.8687185"><ele>1733.0</ele><time>2026-04-03T12:25:53.859Z</time></trkpt><trkpt lat="45.0213278" lon="6.8687566"><ele>1732.9999999999998</ele><time>2026-04-03T12:26:04.863Z</time></trkpt><trkpt lat="45.0212439" lon="6.868779"><ele>1733.0</ele><time>2026-04-03T12:26:06.869Z</time></trkpt><trkpt lat="45.0211525" lon="6.8688146"><ele>1732.9999999999998</ele><time>2026-04-03T12:26:08.868Z</time></trkpt><trkpt lat="45.0210759" lon="6.8688429"><ele>1733.0</ele><time>2026-04-03T12:26:10.859Z</time></trkpt><trkpt lat="45.0209984" lon="6.8688719"><ele>1733.0</ele><time>2026-04-03T12:26:12.866Z</time></trkpt><trkpt lat="45.0209226" lon="6.8688987"><ele>1733.0</ele><time>2026-04-03T12:26:14.865Z</time></trkpt><trkpt lat="45.0208498" lon="6.8689251"><ele>1732.9999999999998</ele><time>2026-04-03T12:26:16.854Z</time></trkpt><trkpt lat="45.0207732" lon="6.8689528"><ele>1733.0</ele><time>2026-04-03T12:26:18.859Z</time></trkpt><trkpt lat="45.0207005" lon="6.8689791"><ele>1735.6666666666665</ele><time>2026-04-03T12:26:20.854Z</time></trkpt><trkpt lat="45.0206275" lon="6.8690067"><ele>1738.3333333333333</ele><time>2026-04-03T12:26:22.862Z</time></trkpt><trkpt lat="45.0205473" lon="6.8690386"><ele>1741.0</ele><time>2026-04-03T12:26:24.844Z</time></trkpt><trkpt lat="45.0204714" lon="6.869068"><ele>1743.6666666666665</ele><time>2026-04-03T12:26:26.848Z</time></trkpt><trkpt lat="45.0203897" lon="6.8690964"><ele>1746.3333333333333</ele><time>2026-04-03T12:26:28.852Z</time></trkpt><trkpt lat="45.020314" lon="6.8691229"><ele>1749.0</ele><time>2026-04-03T12:26:30.857Z</time></trkpt><trkpt lat="45.0202336" lon="6.8691508"><ele>1749.0</ele><time>2026-04-03T12:26:32.859Z</time></trkpt><trkpt lat="45.0201569" lon="6.8691795"><ele>1749.0</ele><time>2026-04-03T12:26:34.85Z</time></trkpt><trkpt lat="45.02008" lon="6.8692105"><ele>1749.0</ele><time>2026-04-03T12:26:36.861Z</time></trkpt><trkpt lat="45.0200007" lon="6.8692408"><ele>1749.0</ele><time>2026-04-03T12:26:38.851Z</time></trkpt><trkpt lat="45.0199234" lon="6.8692684"><ele>1749.0</ele><time>2026-04-03T12:26:40.856Z</time></trkpt><trkpt lat="45.0198423" lon="6.8692994"><ele>1749.0</ele><time>2026-04-03T12:26:42.856Z</time></trkpt><trkpt lat="45.0197642" lon="6.8693294"><ele>1752.8333333333333</ele><time>2026-04-03T12:26:44.859Z</time></trkpt><trkpt lat="45.0196834" lon="6.8693603"><ele>1756.6666666666665</ele><time>2026-04-03T12:26:46.857Z</time></trkpt><trkpt lat="45.0196075" lon="6.8693902"><ele>1760.5</ele><time>2026-04-03T12:26:48.855Z</time></trkpt><trkpt lat="45.0195333" lon="6.8694161"><ele>1764.3333333333333</ele><time>2026-04-03T12:26:50.851Z</time></trkpt><trkpt lat="45.0194562" lon="6.869443"><ele>1768.1666666666665</ele><time>2026-04-03T12:26:52.856Z</time></trkpt><trkpt lat="45.0193794" lon="6.8694668"><ele>1772.0</ele><time>2026-04-03T12:26:54.847Z</time></trkpt><trkpt lat="45.0193017" lon="6.8694921"><ele>1771.9999999999998</ele><time>2026-04-03T12:26:56.859Z</time></trkpt><trkpt lat="45.0192224" lon="6.8695203"><ele>1772.0</ele><time>2026-04-03T12:26:58.857Z</time></trkpt><trkpt lat="45.0191427" lon="6.8695469"><ele>1772.0</ele><time>2026-04-03T12:27:00.868Z</time></trkpt><trkpt lat="45.019065" lon="6.8695742"><ele>1772.0</ele><time>2026-04-03T12:27:02.849Z</time></trkpt><trkpt lat="45.0189872" lon="6.8696002"><ele>1771.9999999999998</ele><time>2026-04-03T12:27:04.86Z</time></trkpt><trkpt lat="45.0189075" lon="6.8696269"><ele>1772.0</ele><time>2026-04-03T12:27:06.851Z</time></trkpt><trkpt lat="45.0188306" lon="6.8696537"><ele>1776.1666666666665</ele><time>2026-04-03T12:27:08.865Z</time></trkpt><trkpt lat="45.0187527" lon="6.8696796"><ele>1780.3333333333333</ele><time>2026-04-03T12:27:10.858Z</time></trkpt><trkpt lat="45.0186733" lon="6.8697077"><ele>1784.5</ele><time>2026-04-03T12:27:12.859Z</time></trkpt><trkpt lat="45.0185946" lon="6.8697369"><ele>1788.6666666666665</ele><time>2026-04-03T12:27:14.862Z</time></trkpt><trkpt lat="45.0185156" lon="6.8697659"><ele>1792.8333333333333</ele><time>2026-04-03T12:27:16.845Z</time></trkpt><trkpt lat="45.0184374" lon="6.8697925"><ele>1797.0</ele><time>2026-04-03T12:27:18.858Z</time></trkpt><trkpt lat="45.0183585" lon="6.869819"><ele>1800.8333333333333</ele><time>2026-04-03T12:27:20.851Z</time></trkpt><trkpt lat="45.0182812" lon="6.8698426"><ele>1804.6666666666665</ele><time>2026-04-03T12:27:22.857Z</time></trkpt><trkpt lat="45.0182014" lon="6.8698695"><ele>1808.5</ele><time>2026-04-03T12:27:24.858Z</time></trkpt><trkpt lat="45.0181244" lon="6.8698959"><ele>1812.3333333333333</ele><time>2026-04-03T12:27:26.854Z</time></trkpt><trkpt lat="45.0180506" lon="6.8699225"><ele>1816.1666666666665</ele><time>2026-04-03T12:27:28.859Z</time></trkpt><trkpt lat="45.0179745" lon="6.8699494"><ele>1820.0</ele><time>2026-04-03T12:27:30.854Z</time></trkpt><trkpt lat="45.0179004" lon="6.8699756"><ele>1819.9999999999998</ele><time>2026-04-03T12:27:32.865Z</time></trkpt><trkpt lat="45.0178266" lon="6.8700014"><ele>1820.0</ele><time>2026-04-03T12:27:34.847Z</time></trkpt><trkpt lat="45.0177525" lon="6.8700255"><ele>1820.0</ele><time>2026-04-03T12:27:36.859Z</time></trkpt><trkpt lat="45.0176784" lon="6.8700516"><ele>1820.0</ele><time>2026-04-03T12:27:38.867Z</time></trkpt><trkpt lat="45.0176034" lon="6.870077"><ele>1819.9999999999998</ele><time>2026-04-03T12:27:40.847Z</time></trkpt><trkpt lat="45.0175283" lon="6.8701034"><ele>1820.0</ele><time>2026-04-03T12:27:42.856Z</time></trkpt><trkpt lat="45.0174486" lon="6.8701284"><ele>1824.8333333333333</ele><time>2026-04-03T12:27:44.861Z</time></trkpt><trkpt lat="45.0173722" lon="6.8701549"><ele>1829.6666666666665</ele><time>2026-04-03T12:27:46.865Z</time></trkpt><trkpt lat="45.0172949" lon="6.8701827"><ele>1834.5</ele><time>2026-04-03T12:27:48.848Z</time></trkpt><trkpt lat="45.0172166" lon="6.8702091"><ele>1839.3333333333335</ele><time>2026-04-03T12:27:50.866Z</time></trkpt><trkpt lat="45.0171386" lon="6.8702361"><ele>1844.1666666666667</ele><time>2026-04-03T12:27:52.852Z</time></trkpt><trkpt lat="45.0170615" lon="6.870264"><ele>1849.0</ele><time>2026-04-03T12:27:54.857Z</time></trkpt><trkpt lat="45.0169837" lon="6.8702922"><ele>1849.0000000000002</ele><time>2026-04-03T12:27:56.865Z</time></trkpt><trkpt lat="45.0169063" lon="6.8703205"><ele>1849.0</ele><time>2026-04-03T12:27:58.857Z</time></trkpt><trkpt lat="45.0168304" lon="6.87035"><ele>1849.0</ele><time>2026-04-03T12:28:00.859Z</time></trkpt><trkpt lat="45.0167568" lon="6.8703805"><ele>1849.0</ele><time>2026-04-03T12:28:02.864Z</time></trkpt><trkpt lat="45.0166841" lon="6.8704076"><ele>1849.0000000000002</ele><time>2026-04-03T12:28:04.854Z</time></trkpt><trkpt lat="45.016607" lon="6.8704333"><ele>1849.0</ele><time>2026-04-03T12:28:06.852Z</time></trkpt><trkpt lat="45.0165306" lon="6.8704583"><ele>1855.1666666666667</ele><time>2026-04-03T12:28:08.854Z</time></trkpt><trkpt lat="45.0164538" lon="6.8704837"><ele>1861.3333333333335</ele><time>2026-04-03T12:28:10.854Z</time></trkpt><trkpt lat="45.0163784" lon="6.8705094"><ele>1867.5</ele><time>2026-04-03T12:28:12.866Z</time></trkpt><trkpt lat="45.0163036" lon="6.8705351"><ele>1873.6666666666665</ele><time>2026-04-03T12:28:14.863Z</time></trkpt><trkpt lat="45.0162286" lon="6.8705612"><ele>1879.8333333333333</ele><time>2026-04-03T12:28:16.853Z</time></trkpt><trkpt lat="45.0161546" lon="6.8705875"><ele>1886.0</ele><time>2026-04-03T12:28:18.856Z</time></trkpt><trkpt lat="45.0160821" lon="6.8706144"><ele>1885.9999999999998</ele><time>2026-04-03T12:28:20.862Z</time></trkpt><trkpt lat="45.0160093" lon="6.8706423"><ele>1886.0</ele><time>2026-04-03T12:28:22.86Z</time></trkpt><trkpt lat="45.0159376" lon="6.8706687"><ele>1886.0</ele><time>2026-04-03T12:28:24.849Z</time></trkpt><trkpt lat="45.0158594" lon="6.8706988"><ele>1886.0</ele><time>2026-04-03T12:28:26.856Z</time></trkpt><trkpt lat="45.0157868" lon="6.8707247"><ele>1885.9999999999998</ele><time>2026-04-03T12:28:28.859Z</time></trkpt><trkpt lat="45.0157106" lon="6.8707514"><ele>1886.0</ele><time>2026-04-03T12:28:30.854Z</time></trkpt><trkpt lat="45.0156347" lon="6.870776"><ele>1889.6666666666665</ele><time>2026-04-03T12:28:32.848Z</time></trkpt><trkpt lat="45.015561" lon="6.8708008"><ele>1893.3333333333333</ele><time>2026-04-03T12:28:34.856Z</time></trkpt><trkpt lat="45.0154837" lon="6.8708282"><ele>1897.0</ele><time>2026-04-03T12:28:36.851Z</time></trkpt><trkpt lat="45.0154086" lon="6.8708561"><ele>1900.6666666666665</ele><time>2026-04-03T12:28:38.858Z</time></trkpt><trkpt lat="45.0153348" lon="6.8708828"><ele>1904.3333333333333</ele><time>2026-04-03T12:28:40.859Z</time></trkpt><trkpt lat="45.0152559" lon="6.8709115"><ele>1908.0</ele><time>2026-04-03T12:28:42.858Z</time></trkpt><trkpt lat="45.0151755" lon="6.8709407"><ele>1907.1666666666667</ele><time>2026-04-03T12:28:44.867Z</time></trkpt><trkpt lat="45.0150991" lon="6.8709698"><ele>1906.3333333333335</ele><time>2026-04-03T12:28:46.856Z</time></trkpt><trkpt lat="45.0150244" lon="6.8709968"><ele>1905.5</ele><time>2026-04-03T12:28:48.852Z</time></trkpt><trkpt lat="45.0149466" lon="6.8710256"><ele>1904.6666666666667</ele><time>2026-04-03T12:28:50.85Z</time></trkpt><trkpt lat="45.0148713" lon="6.8710516"><ele>1903.8333333333335</ele><time>2026-04-03T12:28:52.867Z</time></trkpt><trkpt lat="45.0147951" lon="6.8710786"><ele>1903.0</ele><time>2026-04-03T12:28:54.846Z</time></trkpt><trkpt lat="45.0147193" lon="6.8711047"><ele>1906.0000000000002</ele><time>2026-04-03T12:28:56.852Z</time></trkpt><trkpt lat="45.0146429" lon="6.8711314"><ele>1909.0</ele><time>2026-04-03T12:28:58.847Z</time></trkpt><trkpt lat="45.0145677" lon="6.8711571"><ele>1912.0</ele><time>2026-04-03T12:29:00.856Z</time></trkpt><trkpt lat="45.014492" lon="6.8711841"><ele>1915.0</ele><time>2026-04-03T12:29:02.855Z</time></trkpt><trkpt lat="45.0144144" lon="6.8712115"><ele>1918.0000000000002</ele><time>2026-04-03T12:29:04.848Z</time></trkpt><trkpt lat="45.0143391" lon="6.8712363"><ele>1921.0</ele><time>2026-04-03T12:29:06.852Z</time></trkpt><trkpt lat="45.0142617" lon="6.8712635"><ele>1921.0000000000002</ele><time>2026-04-03T12:29:08.861Z</time></trkpt><trkpt lat="45.0141848" lon="6.8712903"><ele>1921.0</ele><time>2026-04-03T12:29:10.857Z</time></trkpt><trkpt lat="45.0141107" lon="6.8713174"><ele>1921.0</ele><time>2026-04-03T12:29:12.865Z</time></trkpt><trkpt lat="45.014036" lon="6.8713434"><ele>1921.0</ele><time>2026-04-03T12:29:14.856Z</time></trkpt><trkpt lat="45.013957" lon="6.8713726"><ele>1921.0000000000002</ele><time>2026-04-03T12:29:16.856Z</time></trkpt><trkpt lat="45.0138805" lon="6.8714003"><ele>1921.0</ele><time>2026-04-03T12:29:18.868Z</time></trkpt><trkpt lat="45.0138013" lon="6.8714283"><ele>1925.6666666666667</ele><time>2026-04-03T12:29:20.862Z</time></trkpt><trkpt lat="45.0137259" lon="6.8714553"><ele>1930.3333333333335</ele><time>2026-04-03T12:29:22.858Z</time></trkpt><trkpt lat="45.0136474" lon="6.8714806"><ele>1935.0</ele><time>2026-04-03T12:29:24.854Z</time></trkpt><trkpt lat="45.0135725" lon="6.8715083"><ele>1939.6666666666665</ele><time>2026-04-03T12:29:26.859Z</time></trkpt><trkpt lat="45.0134945" lon="6.8715335"><ele>1944.3333333333333</ele><time>2026-04-03T12:29:28.847Z</time></trkpt><trkpt lat="45.0134166" lon="6.8715583"><ele>1949.0</ele><time>2026-04-03T12:29:30.86Z</time></trkpt><trkpt lat="45.0133372" lon="6.8715856"><ele>1952.1666666666665</ele><time>2026-04-03T12:29:32.864Z</time></trkpt><trkpt lat="45.0132584" lon="6.8716116"><ele>1955.3333333333333</ele><time>2026-04-03T12:29:34.845Z</time></trkpt><trkpt lat="45.013182" lon="6.8716361"><ele>1958.5</ele><time>2026-04-03T12:29:36.858Z</time></trkpt><trkpt lat="45.0131053" lon="6.8716619"><ele>1961.6666666666665</ele><time>2026-04-03T12:29:38.853Z</time></trkpt><trkpt lat="45.0130294" lon="6.8716871"><ele>1964.8333333333333</ele><time>2026-04-03T12:29:40.865Z</time></trkpt><trkpt lat="45.0129538" lon="6.8717146"><ele>1968.0</ele><time>2026-04-03T12:29:42.863Z</time></trkpt><trkpt lat="45.0128764" lon="6.8717477"><ele>1968.3333333333333</ele><time>2026-04-03T12:29:44.852Z</time></trkpt><trkpt lat="45.0127971" lon="6.871779"><ele>1968.6666666666665</ele><time>2026-04-03T12:29:46.855Z</time></trkpt><trkpt lat="45.0127204" lon="6.8718073"><ele>1969.0</ele><time>2026-04-03T12:29:48.868Z</time></trkpt><trkpt lat="45.0126443" lon="6.8718309"><ele>1969.3333333333333</ele><time>2026-04-03T12:29:50.857Z</time></trkpt><trkpt lat="45.0125674" lon="6.8718542"><ele>1969.6666666666665</ele><time>2026-04-03T12:29:52.863Z</time></trkpt><trkpt lat="45.0124885" lon="6.8718753"><ele>1970.0</ele><time>2026-04-03T12:29:54.865Z</time></trkpt><trkpt lat="45.0124105" lon="6.8718986"><ele>1971.4999999999998</ele><time>2026-04-03T12:29:56.864Z</time></trkpt><trkpt lat="45.0123331" lon="6.8719256"><ele>1973.0</ele><time>2026-04-03T12:29:58.855Z</time></trkpt><trkpt lat="45.0122567" lon="6.8719511"><ele>1974.5</ele><time>2026-04-03T12:30:00.856Z</time></trkpt><trkpt lat="45.0121785" lon="6.871981"><ele>1976.0</ele><time>2026-04-03T12:30:02.843Z</time></trkpt><trkpt lat="45.0120993" lon="6.8720152"><ele>1977.4999999999998</ele><time>2026-04-03T12:30:04.857Z</time></trkpt><trkpt lat="45.0120228" lon="6.8720457"><ele>1979.0</ele><time>2026-04-03T12:30:06.858Z</time></trkpt><trkpt lat="45.0119444" lon="6.8720753"><ele>1978.9999999999998</ele><time>2026-04-03T12:30:08.861Z</time></trkpt><trkpt lat="45.0118673" lon="6.8721035"><ele>1979.0</ele><time>2026-04-03T12:30:10.846Z</time></trkpt><trkpt lat="45.0117917" lon="6.8721314"><ele>1979.0</ele><time>2026-04-03T12:30:12.851Z</time></trkpt><trkpt lat="45.0117135" lon="6.8721595"><ele>1979.0</ele><time>2026-04-03T12:30:14.857Z</time></trkpt><trkpt lat="45.0116358" lon="6.8721868"><ele>1978.9999999999998</ele><time>2026-04-03T12:30:16.855Z</time></trkpt><trkpt lat="45.0115572" lon="6.8722115"><ele>1979.0</ele><time>2026-04-03T12:30:18.852Z</time></trkpt><trkpt lat="45.0114782" lon="6.872238"><ele>1980.4999999999998</ele><time>2026-04-03T12:30:20.85Z</time></trkpt><trkpt lat="45.0114003" lon="6.8722646"><ele>1982.0</ele><time>2026-04-03T12:30:22.854Z</time></trkpt><trkpt lat="45.0113195" lon="6.8722906"><ele>1983.5</ele><time>2026-04-03T12:30:24.851Z</time></trkpt><trkpt lat="45.0112414" lon="6.8723184"><ele>1985.0</ele><time>2026-04-03T12:30:26.854Z</time></trkpt><trkpt lat="45.0111622" lon="6.8723486"><ele>1986.4999999999998</ele><time>2026-04-03T12:30:28.845Z</time></trkpt><trkpt lat="45.0110832" lon="6.8723777"><ele>1988.0</ele><time>2026-04-03T12:30:30.866Z</time></trkpt><trkpt lat="45.011002" lon="6.872407"><ele>1987.9999999999998</ele><time>2026-04-03T12:30:32.859Z</time></trkpt><trkpt lat="45.0109205" lon="6.8724386"><ele>1988.0</ele><time>2026-04-03T12:30:34.848Z</time></trkpt><trkpt lat="45.0108408" lon="6.8724673"><ele>1988.0</ele><time>2026-04-03T12:30:36.862Z</time></trkpt><trkpt lat="45.0107626" lon="6.8724961"><ele>1988.0</ele><time>2026-04-03T12:30:38.865Z</time></trkpt><trkpt lat="45.0106886" lon="6.8725228"><ele>1987.9999999999998</ele><time>2026-04-03T12:30:40.853Z</time></trkpt><trkpt lat="45.0106248" lon="6.8725428"><ele>1988.0</ele><time>2026-04-03T12:30:42.861Z</time></trkpt><trkpt lat="45.0105582" lon="6.8725596"><ele>1993.142857142857</ele><time>2026-04-03T12:30:44.851Z</time></trkpt><trkpt lat="45.0104855" lon="6.8725811"><ele>1998.2857142857142</ele><time>2026-04-03T12:30:46.862Z</time></trkpt><trkpt lat="45.0104162" lon="6.8726023"><ele>2003.4285714285716</ele><time>2026-04-03T12:30:48.857Z</time></trkpt><trkpt lat="45.0103441" lon="6.8726283"><ele>2008.5714285714287</ele><time>2026-04-03T12:30:50.851Z</time></trkpt><trkpt lat="45.0102744" lon="6.8726544"><ele>2013.7142857142858</ele><time>2026-04-03T12:30:52.851Z</time></trkpt><trkpt lat="45.0102039" lon="6.8726788"><ele>2018.8571428571431</ele><time>2026-04-03T12:30:54.857Z</time></trkpt><trkpt lat="45.0101328" lon="6.8727019"><ele>2024.0000000000002</ele><time>2026-04-03T12:30:56.845Z</time></trkpt><trkpt lat="45.0100603" lon="6.8727268"><ele>2029.714285714286</ele><time>2026-04-03T12:30:58.853Z</time></trkpt><trkpt lat="45.009991" lon="6.8727497"><ele>2035.4285714285716</ele><time>2026-04-03T12:31:00.855Z</time></trkpt><trkpt lat="45.0099207" lon="6.8727739"><ele>2041.142857142857</ele><time>2026-04-03T12:31:02.864Z</time></trkpt><trkpt lat="45.0098504" lon="6.8727978"><ele>2046.857142857143</ele><time>2026-04-03T12:31:04.858Z</time></trkpt><trkpt lat="45.0097816" lon="6.8728234"><ele>2052.5714285714284</ele><time>2026-04-03T12:31:06.848Z</time></trkpt><trkpt lat="45.0096938" lon="6.8728429"><ele>2058.285714285714</ele><time>2026-04-03T12:31:09.853Z</time></trkpt><trkpt lat="45.0096221" lon="6.8728666"><ele>2064.0</ele><time>2026-04-03T12:31:11.856Z</time></trkpt><trkpt lat="45.0095495" lon="6.8728929"><ele>2063.9999999999995</ele><time>2026-04-03T12:31:13.848Z</time></trkpt><trkpt lat="45.0094816" lon="6.8729125"><ele>2064.0</ele><time>2026-04-03T12:31:15.846Z</time></trkpt><trkpt lat="45.0094084" lon="6.8729355"><ele>2064.0</ele><time>2026-04-03T12:31:17.861Z</time></trkpt><trkpt lat="45.0093439" lon="6.8729531"><ele>2064.0</ele><time>2026-04-03T12:31:19.854Z</time></trkpt><trkpt lat="45.009257" lon="6.8729759"><ele>2064.0</ele><time>2026-04-03T12:31:22.845Z</time></trkpt><trkpt lat="45.009193" lon="6.8729931"><ele>2063.9999999999995</ele><time>2026-04-03T12:31:24.855Z</time></trkpt><trkpt lat="45.0091258" lon="6.8730035"><ele>2064.0</ele><time>2026-04-03T12:31:26.866Z</time></trkpt><trkpt lat="45.0090403" lon="6.8730178"><ele>2070.142857142857</ele><time>2026-04-03T12:31:28.845Z</time></trkpt><trkpt lat="45.008967" lon="6.8730323"><ele>2076.285714285714</ele><time>2026-04-03T12:31:30.86Z</time></trkpt><trkpt lat="45.0089007" lon="6.8730528"><ele>2082.4285714285716</ele><time>2026-04-03T12:31:32.869Z</time></trkpt><trkpt lat="45.008829" lon="6.8730756"><ele>2088.5714285714284</ele><time>2026-04-03T12:31:34.858Z</time></trkpt><trkpt lat="45.0087528" lon="6.8730916"><ele>2094.714285714286</ele><time>2026-04-03T12:31:36.856Z</time></trkpt><trkpt lat="45.0086811" lon="6.8731104"><ele>2100.8571428571427</ele><time>2026-04-03T12:31:38.856Z</time></trkpt><trkpt lat="45.0086143" lon="6.8731189"><ele>2107.0</ele><time>2026-04-03T12:31:40.845Z</time></trkpt><trkpt lat="45.0085454" lon="6.8731289"><ele>2107.0</ele><time>2026-04-03T12:31:42.854Z</time></trkpt><trkpt lat="45.0084684" lon="6.87315"><ele>2107.0</ele><time>2026-04-03T12:31:45.855Z</time></trkpt><trkpt lat="45.0083746" lon="6.8732161"><ele>2107.0</ele><time>2026-04-03T12:31:48.855Z</time></trkpt><trkpt lat="45.008294" lon="6.8732625"><ele>2107.0</ele><time>2026-04-03T12:31:50.856Z</time></trkpt><trkpt lat="45.0082097" lon="6.8732987"><ele>2107.0</ele><time>2026-04-03T12:31:52.857Z</time></trkpt><trkpt lat="45.0081271" lon="6.873334"><ele>2107.0</ele><time>2026-04-03T12:31:54.846Z</time></trkpt><trkpt lat="45.0080552" lon="6.8733606"><ele>2109.8333333333335</ele><time>2026-04-03T12:31:56.857Z</time></trkpt><trkpt lat="45.0079787" lon="6.8733888"><ele>2112.666666666667</ele><time>2026-04-03T12:31:58.854Z</time></trkpt><trkpt lat="45.0078955" lon="6.873432"><ele>2115.5</ele><time>2026-04-03T12:32:00.862Z</time></trkpt><trkpt lat="45.0078062" lon="6.8734788"><ele>2118.3333333333335</ele><time>2026-04-03T12:32:02.857Z</time></trkpt><trkpt lat="45.0077234" lon="6.8735181"><ele>2121.1666666666665</ele><time>2026-04-03T12:32:04.862Z</time></trkpt><trkpt lat="45.0076592" lon="6.8735528"><ele>2124.0</ele><time>2026-04-03T12:32:06.846Z</time></trkpt><trkpt lat="45.0075997" lon="6.8735838"><ele>2124.714285714286</ele><time>2026-04-03T12:32:08.864Z</time></trkpt><trkpt lat="45.0075363" lon="6.873611"><ele>2125.4285714285716</ele><time>2026-04-03T12:32:10.855Z</time></trkpt><trkpt lat="45.007472" lon="6.8736417"><ele>2126.1428571428573</ele><time>2026-04-03T12:32:12.859Z</time></trkpt><trkpt lat="45.0074023" lon="6.8736661"><ele>2126.857142857143</ele><time>2026-04-03T12:32:14.85Z</time></trkpt><trkpt lat="45.007321" lon="6.8736935"><ele>2127.5714285714284</ele><time>2026-04-03T12:32:16.856Z</time></trkpt><trkpt lat="45.0072426" lon="6.8737196"><ele>2128.2857142857147</ele><time>2026-04-03T12:32:18.859Z</time></trkpt><trkpt lat="45.00718" lon="6.8737438"><ele>2129.0</ele><time>2026-04-03T12:32:20.858Z</time></trkpt><trkpt lat="45.0071008" lon="6.8737724"><ele>2131.833333333333</ele><time>2026-04-03T12:32:22.863Z</time></trkpt><trkpt lat="45.0070223" lon="6.8737995"><ele>2134.6666666666665</ele><time>2026-04-03T12:32:24.861Z</time></trkpt><trkpt lat="45.006941" lon="6.8738286"><ele>2137.5</ele><time>2026-04-03T12:32:26.852Z</time></trkpt><trkpt lat="45.0068622" lon="6.8738587"><ele>2140.3333333333335</ele><time>2026-04-03T12:32:28.852Z</time></trkpt><trkpt lat="45.0067891" lon="6.8738896"><ele>2143.166666666667</ele><time>2026-04-03T12:32:30.861Z</time></trkpt><trkpt lat="45.0067144" lon="6.8739216"><ele>2146.0</ele><time>2026-04-03T12:32:32.859Z</time></trkpt><trkpt lat="45.0066339" lon="6.8739531"><ele>2151.166666666667</ele><time>2026-04-03T12:32:34.856Z</time></trkpt><trkpt lat="45.0065534" lon="6.8739869"><ele>2156.3333333333335</ele><time>2026-04-03T12:32:36.845Z</time></trkpt><trkpt lat="45.0064752" lon="6.8740103"><ele>2161.5</ele><time>2026-04-03T12:32:38.849Z</time></trkpt><trkpt lat="45.0063989" lon="6.8740267"><ele>2166.6666666666665</ele><time>2026-04-03T12:32:40.863Z</time></trkpt><trkpt lat="45.0063161" lon="6.8740493"><ele>2171.833333333333</ele><time>2026-04-03T12:32:43.852Z</time></trkpt><trkpt lat="45.0062314" lon="6.8740669"><ele>2177.0</ele><time>2026-04-03T12:32:45.859Z</time></trkpt><trkpt lat="45.0061489" lon="6.8740851"><ele>2177.0</ele><time>2026-04-03T12:32:47.86Z</time></trkpt><trkpt lat="45.0060694" lon="6.8741046"><ele>2177.0</ele><time>2026-04-03T12:32:49.856Z</time></trkpt><trkpt lat="45.0059939" lon="6.8741312"><ele>2177.0</ele><time>2026-04-03T12:32:51.851Z</time></trkpt><trkpt lat="45.0059153" lon="6.8741472"><ele>2177.0</ele><time>2026-04-03T12:32:53.843Z</time></trkpt><trkpt lat="45.0058459" lon="6.8741614"><ele>2177.0</ele><time>2026-04-03T12:32:55.855Z</time></trkpt><trkpt lat="45.0057762" lon="6.8741882"><ele>2177.0</ele><time>2026-04-03T12:32:57.861Z</time></trkpt><trkpt lat="45.0057031" lon="6.8742125"><ele>2182.714285714286</ele><time>2026-04-03T12:32:59.855Z</time></trkpt><trkpt lat="45.0056332" lon="6.8742422"><ele>2188.4285714285716</ele><time>2026-04-03T12:33:01.862Z</time></trkpt><trkpt lat="45.0055713" lon="6.8742695"><ele>2194.142857142857</ele><time>2026-04-03T12:33:03.86Z</time></trkpt><trkpt lat="45.0054852" lon="6.8743061"><ele>2199.857142857143</ele><time>2026-04-03T12:33:06.857Z</time></trkpt><trkpt lat="45.0054138" lon="6.8743371"><ele>2205.5714285714284</ele><time>2026-04-03T12:33:08.856Z</time></trkpt><trkpt lat="45.0053476" lon="6.8743655"><ele>2211.285714285714</ele><time>2026-04-03T12:33:10.852Z</time></trkpt><trkpt lat="45.0052832" lon="6.8743853"><ele>2217.0</ele><time>2026-04-03T12:33:12.849Z</time></trkpt><trkpt lat="45.0052036" lon="6.8744091"><ele>2217.0</ele><time>2026-04-03T12:33:14.861Z</time></trkpt><trkpt lat="45.0051265" lon="6.8744418"><ele>2217.0</ele><time>2026-04-03T12:33:16.853Z</time></trkpt><trkpt lat="45.0050455" lon="6.8744705"><ele>2217.0</ele><time>2026-04-03T12:33:18.858Z</time></trkpt><trkpt lat="45.0049767" lon="6.8744981"><ele>2217.0</ele><time>2026-04-03T12:33:20.869Z</time></trkpt><trkpt lat="45.0049017" lon="6.8745291"><ele>2217.0</ele><time>2026-04-03T12:33:22.843Z</time></trkpt><trkpt lat="45.0048231" lon="6.8745563"><ele>2217.0</ele><time>2026-04-03T12:33:24.852Z</time></trkpt><trkpt lat="45.0047429" lon="6.8745796"><ele>2221.3333333333335</ele><time>2026-04-03T12:33:26.859Z</time></trkpt><trkpt lat="45.0046667" lon="6.8745984"><ele>2225.6666666666665</ele><time>2026-04-03T12:33:28.855Z</time></trkpt><trkpt lat="45.0045892" lon="6.8746222"><ele>2230.0</ele><time>2026-04-03T12:33:30.856Z</time></trkpt><trkpt lat="45.0045128" lon="6.874647"><ele>2234.333333333333</ele><time>2026-04-03T12:33:32.851Z</time></trkpt><trkpt lat="45.0044383" lon="6.8746709"><ele>2238.6666666666665</ele><time>2026-04-03T12:33:34.86Z</time></trkpt><trkpt lat="45.0043615" lon="6.874695"><ele>2243.0</ele><time>2026-04-03T12:33:36.854Z</time></trkpt><trkpt lat="45.004287" lon="6.8747217"><ele>2243.0</ele><time>2026-04-03T12:33:38.858Z</time></trkpt><trkpt lat="45.004216" lon="6.8747468"><ele>2243.0</ele><time>2026-04-03T12:33:40.858Z</time></trkpt><trkpt lat="45.0041439" lon="6.8747713"><ele>2243.0</ele><time>2026-04-03T12:33:42.864Z</time></trkpt><trkpt lat="45.00407" lon="6.8747952"><ele>2243.0</ele><time>2026-04-03T12:33:44.852Z</time></trkpt><trkpt lat="45.0039952" lon="6.8748223"><ele>2243.0</ele><time>2026-04-03T12:33:46.859Z</time></trkpt><trkpt lat="45.0039238" lon="6.874844"><ele>2243.0</ele><time>2026-04-03T12:33:48.852Z</time></trkpt><trkpt lat="45.0038532" lon="6.8748699"><ele>2243.0</ele><time>2026-04-03T12:33:50.864Z</time></trkpt><trkpt lat="45.0037852" lon="6.8748977"><ele>2246.1666666666665</ele><time>2026-04-03T12:33:52.857Z</time></trkpt><trkpt lat="45.0037091" lon="6.8749279"><ele>2249.333333333333</ele><time>2026-04-03T12:33:54.855Z</time></trkpt><trkpt lat="45.0036333" lon="6.8749577"><ele>2252.5</ele><time>2026-04-03T12:33:56.859Z</time></trkpt><trkpt lat="45.0035483" lon="6.8749871"><ele>2255.6666666666665</ele><time>2026-04-03T12:33:58.848Z</time></trkpt><trkpt lat="45.0034731" lon="6.8750145"><ele>2258.8333333333335</ele><time>2026-04-03T12:34:00.854Z</time></trkpt><trkpt lat="45.0034047" lon="6.8750436"><ele>2262.0</ele><time>2026-04-03T12:34:02.865Z</time></trkpt><trkpt lat="45.0033275" lon="6.8750632"><ele>2264.6666666666665</ele><time>2026-04-03T12:34:07.856Z</time></trkpt><trkpt lat="45.0032511" lon="6.8751053"><ele>2267.3333333333335</ele><time>2026-04-03T12:34:09.858Z</time></trkpt><trkpt lat="45.0031962" lon="6.8751922"><ele>2270.0</ele><time>2026-04-03T12:34:12.86Z</time></trkpt><trkpt lat="45.0031484" lon="6.8752822"><ele>2272.666666666667</ele><time>2026-04-03T12:34:16.851Z</time></trkpt><trkpt lat="45.0031106" lon="6.875367"><ele>2275.3333333333335</ele><time>2026-04-03T12:35:16.859Z</time></trkpt><trkpt lat="45.0030952" lon="6.8754557"><ele>2278.0</ele><time>2026-04-03T12:35:20.849Z</time></trkpt><trkpt lat="45.0030626" lon="6.8755553"><ele>2278.0</ele><time>2026-04-03T12:35:23.86Z</time></trkpt><trkpt lat="45.0030674" lon="6.8756716"><ele>2278.0</ele><time>2026-04-03T12:35:33.861Z</time></trkpt><trkpt lat="45.0031238" lon="6.8757677"><ele>2278.0</ele><time>2026-04-03T12:35:35.857Z</time></trkpt><trkpt lat="45.0031557" lon="6.875845"><ele>2278.0</ele><time>2026-04-03T12:35:36.848Z</time></trkpt><trkpt lat="45.0032396" lon="6.8759087"><ele>2278.0</ele><time>2026-04-03T12:35:37.846Z</time></trkpt><trkpt lat="45.0033" lon="6.8759966"><ele>2278.0</ele><time>2026-04-03T12:35:38.853Z</time></trkpt><trkpt lat="45.0033933" lon="6.8760772"><ele>2272.4</ele><time>2026-04-03T12:35:39.86Z</time></trkpt><trkpt lat="45.0034767" lon="6.8761934"><ele>2266.8</ele><time>2026-04-03T12:35:40.865Z</time></trkpt><trkpt lat="45.0035715" lon="6.8762868"><ele>2261.2</ele><time>2026-04-03T12:35:41.852Z</time></trkpt><trkpt lat="45.0036773" lon="6.8763246"><ele>2255.6</ele><time>2026-04-03T12:35:42.857Z</time></trkpt><trkpt lat="45.0037666" lon="6.8763353"><ele>2250.0</ele><time>2026-04-03T12:35:43.847Z</time></trkpt><trkpt lat="45.003869" lon="6.8763327"><ele>2250.0</ele><time>2026-04-03T12:35:44.854Z</time></trkpt><trkpt lat="45.003973" lon="6.8762978"><ele>2250.0</ele><time>2026-04-03T12:35:45.862Z</time></trkpt><trkpt lat="45.0041105" lon="6.8763145"><ele>2250.0</ele><time>2026-04-03T12:35:46.853Z</time></trkpt><trkpt lat="45.0042222" lon="6.876463"><ele>2250.0</ele><time>2026-04-03T12:35:47.845Z</time></trkpt><trkpt lat="45.004355" lon="6.8764646"><ele>2246.25</ele><time>2026-04-03T12:35:48.852Z</time></trkpt><trkpt lat="45.0044746" lon="6.8764917"><ele>2242.5</ele><time>2026-04-03T12:35:49.854Z</time></trkpt><trkpt lat="45.0046029" lon="6.8765343"><ele>2238.75</ele><time>2026-04-03T12:35:50.861Z</time></trkpt><trkpt lat="45.004703" lon="6.8766803"><ele>2235.0</ele><time>2026-04-03T12:35:51.853Z</time></trkpt><trkpt lat="45.0047667" lon="6.8768011"><ele>2234.5</ele><time>2026-04-03T12:35:52.862Z</time></trkpt><trkpt lat="45.004893" lon="6.8768605"><ele>2234.0</ele><time>2026-04-03T12:35:54.862Z</time></trkpt><trkpt lat="45.0049584" lon="6.8769103"><ele>2233.5</ele><time>2026-04-03T12:35:55.853Z</time></trkpt><trkpt lat="45.0050556" lon="6.87694"><ele>2233.0</ele><time>2026-04-03T12:35:56.857Z</time></trkpt><trkpt lat="45.0051169" lon="6.8769759"><ele>2232.5</ele><time>2026-04-03T12:35:57.856Z</time></trkpt><trkpt lat="45.0051879" lon="6.8769772"><ele>2232.0</ele><time>2026-04-03T12:35:58.857Z</time></trkpt><trkpt lat="45.0052497" lon="6.8770201"><ele>2228.6</ele><time>2026-04-03T12:35:59.856Z</time></trkpt><trkpt lat="45.0053233" lon="6.8770908"><ele>2225.2</ele><time>2026-04-03T12:36:00.857Z</time></trkpt><trkpt lat="45.0053907" lon="6.8771203"><ele>2221.8</ele><time>2026-04-03T12:36:01.857Z</time></trkpt><trkpt lat="45.0054807" lon="6.8772138"><ele>2218.4</ele><time>2026-04-03T12:36:02.847Z</time></trkpt><trkpt lat="45.0056072" lon="6.877225"><ele>2215.0</ele><time>2026-04-03T12:36:03.862Z</time></trkpt><trkpt lat="45.0056911" lon="6.8772"><ele>2215.0</ele><time>2026-04-03T12:36:04.844Z</time></trkpt><trkpt lat="45.0058104" lon="6.8772109"><ele>2215.0</ele><time>2026-04-03T12:36:05.852Z</time></trkpt><trkpt lat="45.0059127" lon="6.8773442"><ele>2215.0</ele><time>2026-04-03T12:36:06.855Z</time></trkpt><trkpt lat="45.0059865" lon="6.8774855"><ele>2215.0</ele><time>2026-04-03T12:36:07.864Z</time></trkpt><trkpt lat="45.0061406" lon="6.877521"><ele>2208.0</ele><time>2026-04-03T12:36:08.854Z</time></trkpt><trkpt lat="45.0062123" lon="6.8775745"><ele>2201.0</ele><time>2026-04-03T12:36:09.855Z</time></trkpt><trkpt lat="45.0063663" lon="6.8776095"><ele>2194.0</ele><time>2026-04-03T12:36:10.854Z</time></trkpt><trkpt lat="45.0065376" lon="6.8777579"><ele>2187.0</ele><time>2026-04-03T12:36:11.868Z</time></trkpt><trkpt lat="45.0066516" lon="6.8778163"><ele>2180.0</ele><time>2026-04-03T12:36:12.856Z</time></trkpt><trkpt lat="45.0068012" lon="6.8778324"><ele>2173.0</ele><time>2026-04-03T12:36:13.865Z</time></trkpt><trkpt lat="45.006909" lon="6.8778841"><ele>2166.0</ele><time>2026-04-03T12:36:14.848Z</time></trkpt><trkpt lat="45.0070192" lon="6.877981"><ele>2159.0</ele><time>2026-04-03T12:36:15.858Z</time></trkpt><trkpt lat="45.0071409" lon="6.8779574"><ele>2159.0</ele><time>2026-04-03T12:36:16.867Z</time></trkpt><trkpt lat="45.0072738" lon="6.8780125"><ele>2159.0</ele><time>2026-04-03T12:36:17.858Z</time></trkpt><trkpt lat="45.0073179" lon="6.8781204"><ele>2159.0</ele><time>2026-04-03T12:36:18.856Z</time></trkpt><trkpt lat="45.0073922" lon="6.8781924"><ele>2159.0</ele><time>2026-04-03T12:36:19.861Z</time></trkpt><trkpt lat="45.0074643" lon="6.8781541"><ele>2159.0</ele><time>2026-04-03T12:36:20.845Z</time></trkpt><trkpt lat="45.0075456" lon="6.8781478"><ele>2152.6</ele><time>2026-04-03T12:36:21.854Z</time></trkpt><trkpt lat="45.0076708" lon="6.8781911"><ele>2146.2</ele><time>2026-04-03T12:36:22.859Z</time></trkpt><trkpt lat="45.0077609" lon="6.8782264"><ele>2139.7999999999997</ele><time>2026-04-03T12:36:23.864Z</time></trkpt><trkpt lat="45.0078478" lon="6.8782098"><ele>2133.4</ele><time>2026-04-03T12:36:24.849Z</time></trkpt><trkpt lat="45.0079389" lon="6.8781772"><ele>2127.0</ele><time>2026-04-03T12:36:25.855Z</time></trkpt><trkpt lat="45.0080445" lon="6.8781316"><ele>2127.0</ele><time>2026-04-03T12:36:26.848Z</time></trkpt><trkpt lat="45.0081533" lon="6.8781015"><ele>2127.0</ele><time>2026-04-03T12:36:27.854Z</time></trkpt><trkpt lat="45.0082528" lon="6.8780824"><ele>2127.0</ele><time>2026-04-03T12:36:28.859Z</time></trkpt><trkpt lat="45.0083292" lon="6.878059"><ele>2127.0</ele><time>2026-04-03T12:36:29.855Z</time></trkpt><trkpt lat="45.0084456" lon="6.8780543"><ele>2127.0</ele><time>2026-04-03T12:36:31.853Z</time></trkpt><trkpt lat="45.0085189" lon="6.8780286"><ele>2122.7999999999997</ele><time>2026-04-03T12:36:32.856Z</time></trkpt><trkpt lat="45.0085999" lon="6.8779927"><ele>2118.6</ele><time>2026-04-03T12:36:33.856Z</time></trkpt><trkpt lat="45.0086707" lon="6.877991"><ele>2114.3999999999996</ele><time>2026-04-03T12:36:34.851Z</time></trkpt><trkpt lat="45.0087648" lon="6.8779699"><ele>2110.2</ele><time>2026-04-03T12:36:35.859Z</time></trkpt><trkpt lat="45.0088664" lon="6.8779525"><ele>2106.0</ele><time>2026-04-03T12:36:36.858Z</time></trkpt><trkpt lat="45.0089592" lon="6.8779147"><ele>2106.0</ele><time>2026-04-03T12:36:37.86Z</time></trkpt><trkpt lat="45.009061" lon="6.8779085"><ele>2106.0</ele><time>2026-04-03T12:36:38.847Z</time></trkpt><trkpt lat="45.0091523" lon="6.8778996"><ele>2106.0</ele><time>2026-04-03T12:36:39.856Z</time></trkpt><trkpt lat="45.0092721" lon="6.8778811"><ele>2106.0</ele><time>2026-04-03T12:36:41.863Z</time></trkpt><trkpt lat="45.009261" lon="6.8777685"><ele>2106.0</ele><time>2026-04-03T12:37:00.861Z</time></trkpt><trkpt lat="45.0093322" lon="6.8776417"><ele>2102.0</ele><time>2026-04-03T12:37:02.857Z</time></trkpt><trkpt lat="45.009518" lon="6.8775859"><ele>2098.0</ele><time>2026-04-03T12:37:04.855Z</time></trkpt><trkpt lat="45.0095872" lon="6.8774945"><ele>2094.0</ele><time>2026-04-03T12:37:05.862Z</time></trkpt><trkpt lat="45.0096657" lon="6.8773126"><ele>2090.0</ele><time>2026-04-03T12:37:06.857Z</time></trkpt><trkpt lat="45.0097649" lon="6.8771566"><ele>2090.0</ele><time>2026-04-03T12:37:07.856Z</time></trkpt><trkpt lat="45.0098554" lon="6.8770651"><ele>2090.0</ele><time>2026-04-03T12:37:08.849Z</time></trkpt><trkpt lat="45.0100135" lon="6.8770857"><ele>2090.0</ele><time>2026-04-03T12:37:09.843Z</time></trkpt><trkpt lat="45.010117" lon="6.877023"><ele>2090.0</ele><time>2026-04-03T12:37:10.856Z</time></trkpt><trkpt lat="45.0102162" lon="6.876905"><ele>2081.6666666666665</ele><time>2026-04-03T12:37:11.853Z</time></trkpt><trkpt lat="45.010338" lon="6.8767611"><ele>2073.3333333333335</ele><time>2026-04-03T12:37:12.848Z</time></trkpt><trkpt lat="45.0104427" lon="6.8766345"><ele>2065.0</ele><time>2026-04-03T12:37:13.853Z</time></trkpt><trkpt lat="45.0106011" lon="6.8766084"><ele>2065.0</ele><time>2026-04-03T12:37:14.855Z</time></trkpt><trkpt lat="45.0107261" lon="6.8765161"><ele>2065.0</ele><time>2026-04-03T12:37:15.857Z</time></trkpt><trkpt lat="45.0108269" lon="6.8763408"><ele>2065.0</ele><time>2026-04-03T12:37:16.849Z</time></trkpt><trkpt lat="45.0109262" lon="6.8761883"><ele>2065.0</ele><time>2026-04-03T12:37:17.857Z</time></trkpt><trkpt lat="45.0110495" lon="6.8761229"><ele>2059.0</ele><time>2026-04-03T12:37:18.852Z</time></trkpt><trkpt lat="45.0111615" lon="6.8760638"><ele>2053.0</ele><time>2026-04-03T12:37:19.863Z</time></trkpt><trkpt lat="45.0112783" lon="6.8760077"><ele>2047.0</ele><time>2026-04-03T12:37:20.845Z</time></trkpt><trkpt lat="45.0113667" lon="6.8759143"><ele>2041.0</ele><time>2026-04-03T12:37:21.856Z</time></trkpt><trkpt lat="45.0114499" lon="6.8758012"><ele>2039.75</ele><time>2026-04-03T12:37:22.853Z</time></trkpt><trkpt lat="45.0115479" lon="6.8757584"><ele>2038.5</ele><time>2026-04-03T12:37:23.861Z</time></trkpt><trkpt lat="45.0116606" lon="6.8758017"><ele>2037.25</ele><time>2026-04-03T12:37:24.854Z</time></trkpt><trkpt lat="45.0118302" lon="6.8758499"><ele>2036.0</ele><time>2026-04-03T12:37:25.852Z</time></trkpt><trkpt lat="45.0119667" lon="6.8758092"><ele>2032.0</ele><time>2026-04-03T12:37:26.859Z</time></trkpt><trkpt lat="45.0120993" lon="6.8757621"><ele>2028.0</ele><time>2026-04-03T12:37:27.851Z</time></trkpt><trkpt lat="45.0122198" lon="6.875662"><ele>2024.0</ele><time>2026-04-03T12:37:28.845Z</time></trkpt><trkpt lat="45.0123429" lon="6.8756381"><ele>2020.0</ele><time>2026-04-03T12:37:29.863Z</time></trkpt><trkpt lat="45.0124884" lon="6.8757166"><ele>2017.25</ele><time>2026-04-03T12:37:30.866Z</time></trkpt><trkpt lat="45.0126274" lon="6.8756945"><ele>2014.5</ele><time>2026-04-03T12:37:31.858Z</time></trkpt><trkpt lat="45.0127358" lon="6.8756203"><ele>2011.75</ele><time>2026-04-03T12:37:32.862Z</time></trkpt><trkpt lat="45.0128416" lon="6.875516"><ele>2009.0</ele><time>2026-04-03T12:37:33.858Z</time></trkpt><trkpt lat="45.0129629" lon="6.8754924"><ele>2009.0</ele><time>2026-04-03T12:37:34.857Z</time></trkpt><trkpt lat="45.0131083" lon="6.8755"><ele>2009.0</ele><time>2026-04-03T12:37:35.856Z</time></trkpt><trkpt lat="45.0132285" lon="6.8755225"><ele>2009.0</ele><time>2026-04-03T12:37:36.854Z</time></trkpt><trkpt lat="45.0133251" lon="6.8754735"><ele>2009.0</ele><time>2026-04-03T12:37:37.866Z</time></trkpt><trkpt lat="45.013429" lon="6.8754245"><ele>2006.3333333333333</ele><time>2026-04-03T12:37:38.862Z</time></trkpt><trkpt lat="45.0135416" lon="6.8754377"><ele>2003.6666666666665</ele><time>2026-04-03T12:37:39.848Z</time></trkpt><trkpt lat="45.0136108" lon="6.8754396"><ele>2001.0</ele><time>2026-04-03T12:37:40.855Z</time></trkpt><trkpt lat="45.0136872" lon="6.8753861"><ele>1998.3333333333335</ele><time>2026-04-03T12:37:41.863Z</time></trkpt><trkpt lat="45.0137535" lon="6.8753415"><ele>1995.6666666666667</ele><time>2026-04-03T12:37:42.867Z</time></trkpt><trkpt lat="45.013846" lon="6.8753263"><ele>1993.0</ele><time>2026-04-03T12:37:43.849Z</time></trkpt><trkpt lat="45.0139021" lon="6.8754485"><ele>1993.0</ele><time>2026-04-03T12:37:44.855Z</time></trkpt><trkpt lat="45.0139725" lon="6.8754775"><ele>1993.0000000000002</ele><time>2026-04-03T12:37:45.85Z</time></trkpt><trkpt lat="45.0140877" lon="6.8754394"><ele>1993.0000000000002</ele><time>2026-04-03T12:37:47.865Z</time></trkpt><trkpt lat="45.0141521" lon="6.8754192"><ele>1993.0</ele><time>2026-04-03T12:37:48.849Z</time></trkpt><trkpt lat="45.0142561" lon="6.8754454"><ele>1993.0</ele><time>2026-04-03T12:37:49.857Z</time></trkpt><trkpt lat="45.014336" lon="6.8753964"><ele>1988.0</ele><time>2026-04-03T12:37:50.846Z</time></trkpt><trkpt lat="45.0144137" lon="6.8753568"><ele>1983.0000000000002</ele><time>2026-04-03T12:37:51.859Z</time></trkpt><trkpt lat="45.0144934" lon="6.8752676"><ele>1978.0000000000002</ele><time>2026-04-03T12:37:52.86Z</time></trkpt><trkpt lat="45.0145845" lon="6.8752006"><ele>1973.0</ele><time>2026-04-03T12:37:53.859Z</time></trkpt><trkpt lat="45.0146879" lon="6.8751188"><ele>1968.0</ele><time>2026-04-03T12:37:54.85Z</time></trkpt><trkpt lat="45.0148119" lon="6.8751686"><ele>1968.0</ele><time>2026-04-03T12:37:55.862Z</time></trkpt><trkpt lat="45.0148935" lon="6.8751002"><ele>1968.0000000000002</ele><time>2026-04-03T12:37:56.854Z</time></trkpt><trkpt lat="45.0147999" lon="6.8751405"><ele>1968.0000000000002</ele><time>2026-04-03T12:37:57.855Z</time></trkpt><trkpt lat="45.0148001" lon="6.8750328"><ele>1968.0</ele><time>2026-04-03T12:38:46.852Z</time></trkpt><trkpt lat="45.014916" lon="6.8748998"><ele>1968.0</ele><time>2026-04-03T12:38:48.859Z</time></trkpt><trkpt lat="45.0149891" lon="6.8748791"><ele>1961.6000000000001</ele><time>2026-04-03T12:38:49.859Z</time></trkpt><trkpt lat="45.0150487" lon="6.8747792"><ele>1955.2000000000003</ele><time>2026-04-03T12:38:50.855Z</time></trkpt><trkpt lat="45.015073" lon="6.8746422"><ele>1948.8</ele><time>2026-04-03T12:38:51.846Z</time></trkpt><trkpt lat="45.0150763" lon="6.8745115"><ele>1942.4</ele><time>2026-04-03T12:38:52.857Z</time></trkpt><trkpt lat="45.0150789" lon="6.8743935"><ele>1936.0</ele><time>2026-04-03T12:38:53.858Z</time></trkpt><trkpt lat="45.0151186" lon="6.8742713"><ele>1934.0</ele><time>2026-04-03T12:38:54.853Z</time></trkpt><trkpt lat="45.0151741" lon="6.8741772"><ele>1932.0</ele><time>2026-04-03T12:38:55.847Z</time></trkpt><trkpt lat="45.0151967" lon="6.8740352"><ele>1930.0</ele><time>2026-04-03T12:38:56.859Z</time></trkpt><trkpt lat="45.0151754" lon="6.8739123"><ele>1928.0</ele><time>2026-04-03T12:38:57.854Z</time></trkpt><trkpt lat="45.0151678" lon="6.8737673"><ele>1926.0</ele><time>2026-04-03T12:38:58.848Z</time></trkpt><trkpt lat="45.0151874" lon="6.8736194"><ele>1926.0</ele><time>2026-04-03T12:38:59.854Z</time></trkpt><trkpt lat="45.0151975" lon="6.8734538"><ele>1926.0</ele><time>2026-04-03T12:39:00.847Z</time></trkpt><trkpt lat="45.0152347" lon="6.8732378"><ele>1926.0</ele><time>2026-04-03T12:39:01.857Z</time></trkpt><trkpt lat="45.0152877" lon="6.8730445"><ele>1926.0</ele><time>2026-04-03T12:39:02.856Z</time></trkpt><trkpt lat="45.0153406" lon="6.872857"><ele>1921.25</ele><time>2026-04-03T12:39:03.854Z</time></trkpt><trkpt lat="45.0153979" lon="6.8726746"><ele>1916.5</ele><time>2026-04-03T12:39:04.851Z</time></trkpt><trkpt lat="45.0154518" lon="6.8724956"><ele>1911.75</ele><time>2026-04-03T12:39:05.862Z</time></trkpt><trkpt lat="45.0155516" lon="6.872499"><ele>1907.0</ele><time>2026-04-03T12:39:06.846Z</time></trkpt><trkpt lat="45.0156139" lon="6.8723807"><ele>1906.1999999999998</ele><time>2026-04-03T12:39:07.861Z</time></trkpt><trkpt lat="45.0157155" lon="6.8722825"><ele>1905.3999999999999</ele><time>2026-04-03T12:39:08.856Z</time></trkpt><trkpt lat="45.0158028" lon="6.8722343"><ele>1904.6000000000001</ele><time>2026-04-03T12:39:09.858Z</time></trkpt><trkpt lat="45.0158821" lon="6.8722538"><ele>1903.8000000000002</ele><time>2026-04-03T12:39:10.848Z</time></trkpt><trkpt lat="45.0159824" lon="6.8723707"><ele>1903.0</ele><time>2026-04-03T12:39:11.861Z</time></trkpt><trkpt lat="45.0161006" lon="6.8723019"><ele>1898.8000000000002</ele><time>2026-04-03T12:39:13.858Z</time></trkpt><trkpt lat="45.0162115" lon="6.8723377"><ele>1894.6000000000001</ele><time>2026-04-03T12:39:14.862Z</time></trkpt><trkpt lat="45.0162858" lon="6.8724003"><ele>1890.3999999999999</ele><time>2026-04-03T12:39:15.858Z</time></trkpt><trkpt lat="45.0163694" lon="6.8723578"><ele>1886.1999999999998</ele><time>2026-04-03T12:39:16.853Z</time></trkpt><trkpt lat="45.0164628" lon="6.872326"><ele>1882.0</ele><time>2026-04-03T12:39:17.859Z</time></trkpt><trkpt lat="45.01653" lon="6.8723676"><ele>1882.0</ele><time>2026-04-03T12:39:18.863Z</time></trkpt><trkpt lat="45.0166446" lon="6.8723952"><ele>1881.9999999999998</ele><time>2026-04-03T12:39:19.845Z</time></trkpt><trkpt lat="45.0167502" lon="6.872352"><ele>1881.9999999999998</ele><time>2026-04-03T12:39:20.861Z</time></trkpt><trkpt lat="45.01684" lon="6.8723406"><ele>1882.0</ele><time>2026-04-03T12:39:21.852Z</time></trkpt><trkpt lat="45.0169418" lon="6.8722564"><ele>1882.0</ele><time>2026-04-03T12:39:22.859Z</time></trkpt><trkpt lat="45.0170341" lon="6.8721983"><ele>1876.6</ele><time>2026-04-03T12:39:23.855Z</time></trkpt><trkpt lat="45.017121" lon="6.8721176"><ele>1871.1999999999998</ele><time>2026-04-03T12:39:24.854Z</time></trkpt><trkpt lat="45.0172023" lon="6.8720113"><ele>1865.8</ele><time>2026-04-03T12:39:25.856Z</time></trkpt><trkpt lat="45.0172961" lon="6.8719191"><ele>1860.4</ele><time>2026-04-03T12:39:26.85Z</time></trkpt><trkpt lat="45.0173168" lon="6.8718064"><ele>1855.0</ele><time>2026-04-03T12:39:27.86Z</time></trkpt><trkpt lat="45.0173607" lon="6.8717207"><ele>1854.0</ele><time>2026-04-03T12:39:28.85Z</time></trkpt><trkpt lat="45.0174235" lon="6.871628"><ele>1853.0</ele><time>2026-04-03T12:39:29.843Z</time></trkpt><trkpt lat="45.0175194" lon="6.871592"><ele>1852.0</ele><time>2026-04-03T12:39:30.865Z</time></trkpt><trkpt lat="45.0175939" lon="6.87146"><ele>1851.0</ele><time>2026-04-03T12:39:31.848Z</time></trkpt><trkpt lat="45.0176509" lon="6.8713449"><ele>1850.0</ele><time>2026-04-03T12:39:32.848Z</time></trkpt><trkpt lat="45.0176892" lon="6.8712288"><ele>1845.0</ele><time>2026-04-03T12:39:33.862Z</time></trkpt><trkpt lat="45.0177354" lon="6.8712908"><ele>1840.0</ele><time>2026-04-03T12:39:34.851Z</time></trkpt><trkpt lat="45.0178069" lon="6.8711866"><ele>1835.0</ele><time>2026-04-03T12:39:36.85Z</time></trkpt><trkpt lat="45.0179155" lon="6.8710771"><ele>1830.0</ele><time>2026-04-03T12:39:38.853Z</time></trkpt><trkpt lat="45.0179566" lon="6.8709873"><ele>1825.0</ele><time>2026-04-03T12:39:39.851Z</time></trkpt><trkpt lat="45.0180124" lon="6.8708808"><ele>1824.3333333333335</ele><time>2026-04-03T12:39:40.85Z</time></trkpt><trkpt lat="45.0180718" lon="6.8708227"><ele>1823.6666666666667</ele><time>2026-04-03T12:39:41.852Z</time></trkpt><trkpt lat="45.0181354" lon="6.8707502"><ele>1823.0</ele><time>2026-04-03T12:39:42.854Z</time></trkpt><trkpt lat="45.0181943" lon="6.8706825"><ele>1822.3333333333335</ele><time>2026-04-03T12:39:43.844Z</time></trkpt><trkpt lat="45.0182585" lon="6.8706023"><ele>1821.6666666666667</ele><time>2026-04-03T12:39:44.855Z</time></trkpt><trkpt lat="45.0182657" lon="6.8704805"><ele>1821.0</ele><time>2026-04-03T12:39:45.855Z</time></trkpt><trkpt lat="45.0183167" lon="6.870389"><ele>1816.8333333333333</ele><time>2026-04-03T12:39:46.853Z</time></trkpt><trkpt lat="45.0184045" lon="6.8703437"><ele>1812.6666666666665</ele><time>2026-04-03T12:39:47.855Z</time></trkpt><trkpt lat="45.0185009" lon="6.8703758"><ele>1808.5</ele><time>2026-04-03T12:39:48.851Z</time></trkpt><trkpt lat="45.0185629" lon="6.8703416"><ele>1804.3333333333333</ele><time>2026-04-03T12:39:49.853Z</time></trkpt><trkpt lat="45.0186373" lon="6.8702999"><ele>1800.1666666666665</ele><time>2026-04-03T12:39:50.864Z</time></trkpt><trkpt lat="45.0187125" lon="6.8702374"><ele>1796.0</ele><time>2026-04-03T12:39:51.855Z</time></trkpt><trkpt lat="45.0188061" lon="6.87018"><ele>1796.1999999999998</ele><time>2026-04-03T12:39:52.854Z</time></trkpt><trkpt lat="45.0188943" lon="6.8701023"><ele>1796.3999999999999</ele><time>2026-04-03T12:39:53.855Z</time></trkpt><trkpt lat="45.0190264" lon="6.8700704"><ele>1796.6</ele><time>2026-04-03T12:39:54.855Z</time></trkpt><trkpt lat="45.0190908" lon="6.8699809"><ele>1796.8</ele><time>2026-04-03T12:39:55.857Z</time></trkpt><trkpt lat="45.0191337" lon="6.8699001"><ele>1797.0</ele><time>2026-04-03T12:39:56.859Z</time></trkpt><trkpt lat="45.0192001" lon="6.8698211"><ele>1792.8333333333333</ele><time>2026-04-03T12:39:57.855Z</time></trkpt><trkpt lat="45.01925" lon="6.8697541"><ele>1788.6666666666665</ele><time>2026-04-03T12:39:58.858Z</time></trkpt><trkpt lat="45.0193057" lon="6.869677"><ele>1784.5</ele><time>2026-04-03T12:39:59.857Z</time></trkpt><trkpt lat="45.0193569" lon="6.8695872"><ele>1780.3333333333333</ele><time>2026-04-03T12:40:00.861Z</time></trkpt><trkpt lat="45.0194217" lon="6.8695073"><ele>1776.1666666666665</ele><time>2026-04-03T12:40:01.845Z</time></trkpt><trkpt lat="45.0194945" lon="6.8694156"><ele>1772.0</ele><time>2026-04-03T12:40:02.857Z</time></trkpt><trkpt lat="45.0195818" lon="6.8693283"><ele>1770.8</ele><time>2026-04-03T12:40:03.847Z</time></trkpt><trkpt lat="45.0196752" lon="6.8692469"><ele>1769.6</ele><time>2026-04-03T12:40:04.866Z</time></trkpt><trkpt lat="45.0197726" lon="6.8691643"><ele>1768.3999999999999</ele><time>2026-04-03T12:40:05.863Z</time></trkpt><trkpt lat="45.0198735" lon="6.8690898"><ele>1767.1999999999998</ele><time>2026-04-03T12:40:06.85Z</time></trkpt><trkpt lat="45.0199668" lon="6.869005"><ele>1766.0</ele><time>2026-04-03T12:40:07.846Z</time></trkpt><trkpt lat="45.0200418" lon="6.8689143"><ele>1763.1666666666665</ele><time>2026-04-03T12:40:08.859Z</time></trkpt><trkpt lat="45.0201256" lon="6.868843"><ele>1760.3333333333333</ele><time>2026-04-03T12:40:09.855Z</time></trkpt><trkpt lat="45.0202115" lon="6.8688168"><ele>1757.5</ele><time>2026-04-03T12:40:10.845Z</time></trkpt><trkpt lat="45.0203009" lon="6.868811"><ele>1754.6666666666665</ele><time>2026-04-03T12:40:11.853Z</time></trkpt><trkpt lat="45.0203762" lon="6.8687729"><ele>1751.8333333333333</ele><time>2026-04-03T12:40:12.86Z</time></trkpt><trkpt lat="45.0204612" lon="6.8687199"><ele>1749.0</ele><time>2026-04-03T12:40:13.864Z</time></trkpt><trkpt lat="45.0205357" lon="6.8686931"><ele>1749.0</ele><time>2026-04-03T12:40:14.856Z</time></trkpt><trkpt lat="45.020615" lon="6.8686797"><ele>1749.0</ele><time>2026-04-03T12:40:15.846Z</time></trkpt><trkpt lat="45.020693" lon="6.8686595"><ele>1749.0</ele><time>2026-04-03T12:40:16.853Z</time></trkpt><trkpt lat="45.0207515" lon="6.8687291"><ele>1749.0</ele><time>2026-04-03T12:40:17.857Z</time></trkpt><trkpt lat="45.0207923" lon="6.8687974"><ele>1749.0</ele><time>2026-04-03T12:40:18.858Z</time></trkpt><trkpt lat="45.0208517" lon="6.868849"><ele>1749.0</ele><time>2026-04-03T12:40:19.856Z</time></trkpt><trkpt lat="45.0209467" lon="6.8689447"><ele>1745.8000000000002</ele><time>2026-04-03T12:40:20.857Z</time></trkpt><trkpt lat="45.0210036" lon="6.8689864"><ele>1742.6000000000001</ele><time>2026-04-03T12:40:21.857Z</time></trkpt><trkpt lat="45.0211411" lon="6.8690083"><ele>1739.4</ele><time>2026-04-03T12:40:23.864Z</time></trkpt><trkpt lat="45.0212487" lon="6.8689462"><ele>1736.2</ele><time>2026-04-03T12:40:24.853Z</time></trkpt><trkpt lat="45.0213149" lon="6.8689223"><ele>1733.0</ele><time>2026-04-03T12:40:25.858Z</time></trkpt><trkpt lat="45.0214198" lon="6.8688617"><ele>1732.9999999999998</ele><time>2026-04-03T12:40:27.864Z</time></trkpt><trkpt lat="45.0215085" lon="6.8688179"><ele>1733.0</ele><time>2026-04-03T12:40:29.86Z</time></trkpt><trkpt lat="45.0215527" lon="6.8687527"><ele>1733.0</ele><time>2026-04-03T12:40:31.854Z</time></trkpt><trkpt lat="45.0214985" lon="6.8687049"><ele>1733.0</ele><time>2026-04-03T12:40:47.854Z</time></trkpt><trkpt lat="45.0214182" lon="6.8687143"><ele>1732.9999999999998</ele><time>2026-04-03T12:41:12.855Z</time></trkpt><trkpt lat="45.0213585" lon="6.8687687"><ele>1733.0</ele><time>2026-04-03T12:41:15.853Z</time></trkpt><trkpt lat="45.0212623" lon="6.8687865"><ele>1732.9999999999998</ele><time>2026-04-03T12:41:17.856Z</time></trkpt><trkpt lat="45.0211732" lon="6.8688028"><ele>1733.0</ele><time>2026-04-03T12:41:19.858Z</time></trkpt><trkpt lat="45.0210915" lon="6.8688286"><ele>1733.0</ele><time>2026-04-03T12:41:21.861Z</time></trkpt><trkpt lat="45.0210106" lon="6.8688535"><ele>1733.0</ele><time>2026-04-03T12:41:23.857Z</time></trkpt><trkpt lat="45.0209343" lon="6.8688829"><ele>1732.9999999999998</ele><time>2026-04-03T12:41:25.861Z</time></trkpt><trkpt lat="45.0208628" lon="6.8689082"><ele>1733.0</ele><time>2026-04-03T12:41:27.86Z</time></trkpt><trkpt lat="45.0207895" lon="6.8689308"><ele>1735.6666666666665</ele><time>2026-04-03T12:41:29.854Z</time></trkpt><trkpt lat="45.0207129" lon="6.8689542"><ele>1738.3333333333333</ele><time>2026-04-03T12:41:31.851Z</time></trkpt><trkpt lat="45.0206428" lon="6.8689777"><ele>1741.0</ele><time>2026-04-03T12:41:33.851Z</time></trkpt><trkpt lat="45.0205673" lon="6.869003"><ele>1743.6666666666665</ele><time>2026-04-03T12:41:35.864Z</time></trkpt><trkpt lat="45.0204874" lon="6.8690305"><ele>1746.3333333333333</ele><time>2026-04-03T12:41:37.858Z</time></trkpt><trkpt lat="45.0204101" lon="6.8690562"><ele>1749.0</ele><time>2026-04-03T12:41:39.853Z</time></trkpt><trkpt lat="45.0203371" lon="6.8690792"><ele>1749.0</ele><time>2026-04-03T12:41:41.853Z</time></trkpt><trkpt lat="45.0202583" lon="6.8691041"><ele>1749.0</ele><time>2026-04-03T12:41:43.862Z</time></trkpt><trkpt lat="45.0201825" lon="6.8691327"><ele>1749.0</ele><time>2026-04-03T12:41:45.852Z</time></trkpt><trkpt lat="45.0201065" lon="6.8691613"><ele>1749.0</ele><time>2026-04-03T12:41:47.858Z</time></trkpt><trkpt lat="45.020032" lon="6.8691912"><ele>1749.0</ele><time>2026-04-03T12:41:49.853Z</time></trkpt><trkpt lat="45.0199524" lon="6.8692194"><ele>1749.0</ele><time>2026-04-03T12:41:51.853Z</time></trkpt><trkpt lat="45.0198716" lon="6.869245"><ele>1751.8333333333333</ele><time>2026-04-03T12:41:53.857Z</time></trkpt><trkpt lat="45.0197904" lon="6.869271"><ele>1754.6666666666665</ele><time>2026-04-03T12:41:55.866Z</time></trkpt><trkpt lat="45.0197114" lon="6.8693001"><ele>1757.5</ele><time>2026-04-03T12:41:57.849Z</time></trkpt><trkpt lat="45.0196337" lon="6.8693266"><ele>1760.3333333333333</ele><time>2026-04-03T12:41:59.854Z</time></trkpt><trkpt lat="45.0195579" lon="6.8693522"><ele>1763.1666666666665</ele><time>2026-04-03T12:42:01.851Z</time></trkpt><trkpt lat="45.0194836" lon="6.869379"><ele>1766.0</ele><time>2026-04-03T12:42:03.858Z</time></trkpt><trkpt lat="45.0194066" lon="6.8694077"><ele>1766.9999999999998</ele><time>2026-04-03T12:42:05.856Z</time></trkpt><trkpt lat="45.0193288" lon="6.8694373"><ele>1768.0</ele><time>2026-04-03T12:42:07.858Z</time></trkpt><trkpt lat="45.0192494" lon="6.8694632"><ele>1769.0</ele><time>2026-04-03T12:42:09.842Z</time></trkpt><trkpt lat="45.0191744" lon="6.8694885"><ele>1770.0</ele><time>2026-04-03T12:42:11.85Z</time></trkpt><trkpt lat="45.0190974" lon="6.8695128"><ele>1770.9999999999998</ele><time>2026-04-03T12:42:13.857Z</time></trkpt><trkpt lat="45.0190212" lon="6.8695394"><ele>1772.0</ele><time>2026-04-03T12:42:15.864Z</time></trkpt><trkpt lat="45.0189444" lon="6.8695673"><ele>1776.1666666666665</ele><time>2026-04-03T12:42:17.858Z</time></trkpt><trkpt lat="45.0188678" lon="6.8695938"><ele>1780.3333333333333</ele><time>2026-04-03T12:42:19.865Z</time></trkpt><trkpt lat="45.0187925" lon="6.8696188"><ele>1784.5</ele><time>2026-04-03T12:42:21.859Z</time></trkpt><trkpt lat="45.0187166" lon="6.8696425"><ele>1788.6666666666665</ele><time>2026-04-03T12:42:23.855Z</time></trkpt><trkpt lat="45.018639" lon="6.8696722"><ele>1792.8333333333333</ele><time>2026-04-03T12:42:25.859Z</time></trkpt><trkpt lat="45.0185643" lon="6.8697026"><ele>1797.0</ele><time>2026-04-03T12:42:27.861Z</time></trkpt><trkpt lat="45.0184884" lon="6.8697337"><ele>1797.0</ele><time>2026-04-03T12:42:29.858Z</time></trkpt><trkpt lat="45.0184126" lon="6.8697606"><ele>1797.0</ele><time>2026-04-03T12:42:31.847Z</time></trkpt><trkpt lat="45.0183375" lon="6.8697876"><ele>1797.0</ele><time>2026-04-03T12:42:33.854Z</time></trkpt><trkpt lat="45.0182599" lon="6.8698165"><ele>1797.0</ele><time>2026-04-03T12:42:35.857Z</time></trkpt><trkpt lat="45.0181824" lon="6.8698442"><ele>1797.0</ele><time>2026-04-03T12:42:37.863Z</time></trkpt><trkpt lat="45.0181076" lon="6.8698703"><ele>1797.0</ele><time>2026-04-03T12:42:39.859Z</time></trkpt><trkpt lat="45.0180319" lon="6.869898"><ele>1800.8333333333333</ele><time>2026-04-03T12:42:41.854Z</time></trkpt><trkpt lat="45.0179574" lon="6.8699269"><ele>1804.6666666666665</ele><time>2026-04-03T12:42:43.856Z</time></trkpt><trkpt lat="45.0178824" lon="6.8699539"><ele>1808.5</ele><time>2026-04-03T12:42:45.847Z</time></trkpt><trkpt lat="45.0178063" lon="6.8699801"><ele>1812.3333333333333</ele><time>2026-04-03T12:42:47.857Z</time></trkpt><trkpt lat="45.0177314" lon="6.8700047"><ele>1816.1666666666665</ele><time>2026-04-03T12:42:49.853Z</time></trkpt><trkpt lat="45.0176587" lon="6.8700288"><ele>1820.0</ele><time>2026-04-03T12:42:51.854Z</time></trkpt><trkpt lat="45.0175846" lon="6.8700559"><ele>1819.9999999999998</ele><time>2026-04-03T12:42:53.852Z</time></trkpt><trkpt lat="45.0175045" lon="6.8700877"><ele>1820.0</ele><time>2026-04-03T12:42:55.855Z</time></trkpt><trkpt lat="45.0174286" lon="6.8701171"><ele>1820.0</ele><time>2026-04-03T12:42:57.852Z</time></trkpt><trkpt lat="45.0173501" lon="6.8701461"><ele>1820.0</ele><time>2026-04-03T12:42:59.864Z</time></trkpt><trkpt lat="45.017273" lon="6.8701764"><ele>1819.9999999999998</ele><time>2026-04-03T12:43:01.849Z</time></trkpt><trkpt lat="45.0171945" lon="6.8702064"><ele>1820.0</ele><time>2026-04-03T12:43:03.847Z</time></trkpt><trkpt lat="45.0171207" lon="6.8702326"><ele>1824.8333333333333</ele><time>2026-04-03T12:43:05.855Z</time></trkpt><trkpt lat="45.0170467" lon="6.8702581"><ele>1829.6666666666665</ele><time>2026-04-03T12:43:07.845Z</time></trkpt><trkpt lat="45.0169719" lon="6.8702816"><ele>1834.5</ele><time>2026-04-03T12:43:09.852Z</time></trkpt><trkpt lat="45.0168974" lon="6.8703063"><ele>1839.3333333333335</ele><time>2026-04-03T12:43:11.854Z</time></trkpt><trkpt lat="45.016823" lon="6.8703319"><ele>1844.1666666666667</ele><time>2026-04-03T12:43:13.849Z</time></trkpt><trkpt lat="45.016749" lon="6.8703588"><ele>1849.0</ele><time>2026-04-03T12:43:15.852Z</time></trkpt><trkpt lat="45.0166738" lon="6.8703859"><ele>1855.1666666666667</ele><time>2026-04-03T12:43:17.849Z</time></trkpt><trkpt lat="45.0165976" lon="6.8704115"><ele>1861.3333333333335</ele><time>2026-04-03T12:43:19.856Z</time></trkpt><trkpt lat="45.0165213" lon="6.8704353"><ele>1867.5</ele><time>2026-04-03T12:43:21.851Z</time></trkpt><trkpt lat="45.0164459" lon="6.8704614"><ele>1873.6666666666665</ele><time>2026-04-03T12:43:23.859Z</time></trkpt><trkpt lat="45.016368" lon="6.8704907"><ele>1879.8333333333333</ele><time>2026-04-03T12:43:25.863Z</time></trkpt><trkpt lat="45.0162936" lon="6.8705177"><ele>1886.0</ele><time>2026-04-03T12:43:27.854Z</time></trkpt><trkpt lat="45.0162202" lon="6.8705435"><ele>1885.9999999999998</ele><time>2026-04-03T12:43:29.853Z</time></trkpt><trkpt lat="45.0161484" lon="6.8705697"><ele>1886.0</ele><time>2026-04-03T12:43:31.856Z</time></trkpt><trkpt lat="45.0160745" lon="6.8705959"><ele>1886.0</ele><time>2026-04-03T12:43:33.855Z</time></trkpt><trkpt lat="45.0160039" lon="6.8706217"><ele>1886.0</ele><time>2026-04-03T12:43:35.856Z</time></trkpt><trkpt lat="45.0159253" lon="6.8706498"><ele>1885.9999999999998</ele><time>2026-04-03T12:43:37.852Z</time></trkpt><trkpt lat="45.0158516" lon="6.8706724"><ele>1886.0</ele><time>2026-04-03T12:43:39.85Z</time></trkpt><trkpt lat="45.0157747" lon="6.8706995"><ele>1889.6666666666665</ele><time>2026-04-03T12:43:41.859Z</time></trkpt><trkpt lat="45.0156983" lon="6.8707282"><ele>1893.3333333333333</ele><time>2026-04-03T12:43:43.856Z</time></trkpt><trkpt lat="45.0156252" lon="6.8707555"><ele>1897.0</ele><time>2026-04-03T12:43:45.858Z</time></trkpt><trkpt lat="45.0155505" lon="6.8707852"><ele>1900.6666666666665</ele><time>2026-04-03T12:43:47.852Z</time></trkpt><trkpt lat="45.0154751" lon="6.8708135"><ele>1904.3333333333333</ele><time>2026-04-03T12:43:49.867Z</time></trkpt><trkpt lat="45.0154013" lon="6.8708399"><ele>1908.0</ele><time>2026-04-03T12:43:51.851Z</time></trkpt><trkpt lat="45.0153282" lon="6.8708684"><ele>1908.0</ele><time>2026-04-03T12:43:53.856Z</time></trkpt><trkpt lat="45.0152474" lon="6.8709006"><ele>1908.0</ele><time>2026-04-03T12:43:55.844Z</time></trkpt><trkpt lat="45.0151687" lon="6.8709313"><ele>1908.0</ele><time>2026-04-03T12:43:57.858Z</time></trkpt><trkpt lat="45.01509" lon="6.8709588"><ele>1908.0</ele><time>2026-04-03T12:43:59.854Z</time></trkpt><trkpt lat="45.0150147" lon="6.8709877"><ele>1908.0</ele><time>2026-04-03T12:44:01.86Z</time></trkpt><trkpt lat="45.0149364" lon="6.871021"><ele>1908.0</ele><time>2026-04-03T12:44:03.849Z</time></trkpt><trkpt lat="45.0148615" lon="6.8710513"><ele>1910.1666666666667</ele><time>2026-04-03T12:44:05.854Z</time></trkpt><trkpt lat="45.0147857" lon="6.8710781"><ele>1912.3333333333335</ele><time>2026-04-03T12:44:07.865Z</time></trkpt><trkpt lat="45.0147097" lon="6.8711024"><ele>1914.5</ele><time>2026-04-03T12:44:09.855Z</time></trkpt><trkpt lat="45.0146346" lon="6.8711244"><ele>1916.6666666666667</ele><time>2026-04-03T12:44:11.848Z</time></trkpt><trkpt lat="45.014554" lon="6.8711506"><ele>1918.8333333333335</ele><time>2026-04-03T12:44:13.848Z</time></trkpt><trkpt lat="45.0144767" lon="6.8711763"><ele>1921.0</ele><time>2026-04-03T12:44:15.86Z</time></trkpt><trkpt lat="45.0144" lon="6.8711972"><ele>1921.0000000000002</ele><time>2026-04-03T12:44:17.866Z</time></trkpt><trkpt lat="45.0143237" lon="6.8712227"><ele>1921.0</ele><time>2026-04-03T12:44:19.846Z</time></trkpt><trkpt lat="45.014248" lon="6.8712496"><ele>1921.0</ele><time>2026-04-03T12:44:21.858Z</time></trkpt><trkpt lat="45.0141738" lon="6.8712774"><ele>1921.0</ele><time>2026-04-03T12:44:23.844Z</time></trkpt><trkpt lat="45.0141012" lon="6.8713043"><ele>1921.0000000000002</ele><time>2026-04-03T12:44:25.855Z</time></trkpt><trkpt lat="45.0140258" lon="6.8713347"><ele>1921.0</ele><time>2026-04-03T12:44:27.858Z</time></trkpt><trkpt lat="45.0139471" lon="6.8713642"><ele>1925.6666666666667</ele><time>2026-04-03T12:44:29.852Z</time></trkpt><trkpt lat="45.0138674" lon="6.871392"><ele>1930.3333333333335</ele><time>2026-04-03T12:44:31.861Z</time></trkpt><trkpt lat="45.0137901" lon="6.8714194"><ele>1935.0</ele><time>2026-04-03T12:44:33.848Z</time></trkpt><trkpt lat="45.0137117" lon="6.8714466"><ele>1939.6666666666665</ele><time>2026-04-03T12:44:35.852Z</time></trkpt><trkpt lat="45.0136349" lon="6.8714718"><ele>1944.3333333333333</ele><time>2026-04-03T12:44:37.852Z</time></trkpt><trkpt lat="45.0135556" lon="6.871494"><ele>1949.0</ele><time>2026-04-03T12:44:39.846Z</time></trkpt><trkpt lat="45.0134761" lon="6.8715193"><ele>1948.9999999999998</ele><time>2026-04-03T12:44:41.852Z</time></trkpt><trkpt lat="45.0133996" lon="6.8715494"><ele>1949.0</ele><time>2026-04-03T12:44:43.861Z</time></trkpt><trkpt lat="45.0133238" lon="6.8715786"><ele>1949.0</ele><time>2026-04-03T12:44:45.855Z</time></trkpt><trkpt lat="45.0132476" lon="6.8716053"><ele>1949.0</ele><time>2026-04-03T12:44:47.855Z</time></trkpt><trkpt lat="45.0131718" lon="6.871632"><ele>1948.9999999999998</ele><time>2026-04-03T12:44:49.855Z</time></trkpt><trkpt lat="45.0130972" lon="6.8716606"><ele>1949.0</ele><time>2026-04-03T12:44:51.85Z</time></trkpt><trkpt lat="45.0130228" lon="6.8716904"><ele>1952.1666666666665</ele><time>2026-04-03T12:44:53.865Z</time></trkpt><trkpt lat="45.0129537" lon="6.8717144"><ele>1955.3333333333333</ele><time>2026-04-03T12:44:55.863Z</time></trkpt><trkpt lat="45.0128772" lon="6.8717417"><ele>1958.5</ele><time>2026-04-03T12:44:57.854Z</time></trkpt><trkpt lat="45.012797" lon="6.8717703"><ele>1961.6666666666665</ele><time>2026-04-03T12:44:59.852Z</time></trkpt><trkpt lat="45.0127171" lon="6.8717978"><ele>1964.8333333333333</ele><time>2026-04-03T12:45:01.861Z</time></trkpt><trkpt lat="45.0126381" lon="6.8718233"><ele>1968.0</ele><time>2026-04-03T12:45:03.859Z</time></trkpt><trkpt lat="45.0125608" lon="6.8718497"><ele>1969.8333333333333</ele><time>2026-04-03T12:45:05.858Z</time></trkpt><trkpt lat="45.0124841" lon="6.8718757"><ele>1971.6666666666665</ele><time>2026-04-03T12:45:07.857Z</time></trkpt><trkpt lat="45.0124062" lon="6.8719034"><ele>1973.5</ele><time>2026-04-03T12:45:09.86Z</time></trkpt><trkpt lat="45.0123293" lon="6.8719322"><ele>1975.3333333333333</ele><time>2026-04-03T12:45:11.858Z</time></trkpt><trkpt lat="45.0122578" lon="6.871956"><ele>1977.1666666666665</ele><time>2026-04-03T12:45:13.848Z</time></trkpt><trkpt lat="45.0121863" lon="6.8719805"><ele>1979.0</ele><time>2026-04-03T12:45:15.868Z</time></trkpt><trkpt lat="45.0121067" lon="6.8720087"><ele>1978.9999999999998</ele><time>2026-04-03T12:45:17.854Z</time></trkpt><trkpt lat="45.0120265" lon="6.8720388"><ele>1979.0</ele><time>2026-04-03T12:45:19.863Z</time></trkpt><trkpt lat="45.0119471" lon="6.8720692"><ele>1979.0</ele><time>2026-04-03T12:45:21.842Z</time></trkpt><trkpt lat="45.0118668" lon="6.8720985"><ele>1979.0</ele><time>2026-04-03T12:45:23.844Z</time></trkpt><trkpt lat="45.0117858" lon="6.8721235"><ele>1978.9999999999998</ele><time>2026-04-03T12:45:25.855Z</time></trkpt><trkpt lat="45.0117045" lon="6.8721476"><ele>1979.0</ele><time>2026-04-03T12:45:27.855Z</time></trkpt><trkpt lat="45.0116248" lon="6.8721733"><ele>1980.4999999999998</ele><time>2026-04-03T12:45:29.864Z</time></trkpt><trkpt lat="45.0115464" lon="6.8721981"><ele>1982.0</ele><time>2026-04-03T12:45:31.861Z</time></trkpt><trkpt lat="45.0114678" lon="6.8722228"><ele>1983.5</ele><time>2026-04-03T12:45:33.858Z</time></trkpt><trkpt lat="45.0113882" lon="6.8722522"><ele>1985.0</ele><time>2026-04-03T12:45:35.865Z</time></trkpt><trkpt lat="45.011309" lon="6.8722828"><ele>1986.4999999999998</ele><time>2026-04-03T12:45:37.848Z</time></trkpt><trkpt lat="45.0112283" lon="6.8723124"><ele>1988.0</ele><time>2026-04-03T12:45:39.849Z</time></trkpt><trkpt lat="45.0111479" lon="6.8723392"><ele>1987.9999999999998</ele><time>2026-04-03T12:45:41.85Z</time></trkpt><trkpt lat="45.0110689" lon="6.8723654"><ele>1988.0</ele><time>2026-04-03T12:45:43.855Z</time></trkpt><trkpt lat="45.0109908" lon="6.8723915"><ele>1988.0</ele><time>2026-04-03T12:45:45.861Z</time></trkpt><trkpt lat="45.0109115" lon="6.8724206"><ele>1988.0</ele><time>2026-04-03T12:45:47.85Z</time></trkpt><trkpt lat="45.010833" lon="6.8724486"><ele>1987.9999999999998</ele><time>2026-04-03T12:45:49.853Z</time></trkpt><trkpt lat="45.0107508" lon="6.872479"><ele>1988.0</ele><time>2026-04-03T12:45:51.863Z</time></trkpt><trkpt lat="45.0106726" lon="6.8725086"><ele>1993.142857142857</ele><time>2026-04-03T12:45:53.863Z</time></trkpt><trkpt lat="45.0105986" lon="6.8725371"><ele>1998.2857142857142</ele><time>2026-04-03T12:45:55.854Z</time></trkpt><trkpt lat="45.0105269" lon="6.8725626"><ele>2003.4285714285716</ele><time>2026-04-03T12:45:57.865Z</time></trkpt><trkpt lat="45.0104542" lon="6.872586"><ele>2008.5714285714287</ele><time>2026-04-03T12:45:59.851Z</time></trkpt><trkpt lat="45.0103866" lon="6.8726132"><ele>2013.7142857142858</ele><time>2026-04-03T12:46:01.858Z</time></trkpt><trkpt lat="45.0103198" lon="6.8726399"><ele>2018.8571428571431</ele><time>2026-04-03T12:46:03.847Z</time></trkpt><trkpt lat="45.0102532" lon="6.872662"><ele>2024.0000000000002</ele><time>2026-04-03T12:46:05.855Z</time></trkpt><trkpt lat="45.0101886" lon="6.8726816"><ele>2023.9999999999998</ele><time>2026-04-03T12:46:07.852Z</time></trkpt><trkpt lat="45.0101203" lon="6.872701"><ele>2024.0</ele><time>2026-04-03T12:46:09.851Z</time></trkpt><trkpt lat="45.0100434" lon="6.8727294"><ele>2024.0</ele><time>2026-04-03T12:46:11.857Z</time></trkpt><trkpt lat="45.0099686" lon="6.8727575"><ele>2024.0</ele><time>2026-04-03T12:46:13.853Z</time></trkpt><trkpt lat="45.0098985" lon="6.872785"><ele>2023.9999999999998</ele><time>2026-04-03T12:46:15.863Z</time></trkpt><trkpt lat="45.0098295" lon="6.8728095"><ele>2024.0</ele><time>2026-04-03T12:46:17.857Z</time></trkpt><trkpt lat="45.0097514" lon="6.8728348"><ele>2029.714285714286</ele><time>2026-04-03T12:46:19.85Z</time></trkpt><trkpt lat="45.0096778" lon="6.8728546"><ele>2035.4285714285716</ele><time>2026-04-03T12:46:21.86Z</time></trkpt><trkpt lat="45.0096062" lon="6.8728808"><ele>2041.142857142857</ele><time>2026-04-03T12:46:23.858Z</time></trkpt><trkpt lat="45.0095351" lon="6.8729066"><ele>2046.857142857143</ele><time>2026-04-03T12:46:25.847Z</time></trkpt><trkpt lat="45.009465" lon="6.8729299"><ele>2052.5714285714284</ele><time>2026-04-03T12:46:27.855Z</time></trkpt><trkpt lat="45.0093975" lon="6.872953"><ele>2058.285714285714</ele><time>2026-04-03T12:46:29.864Z</time></trkpt><trkpt lat="45.0093265" lon="6.8729791"><ele>2064.0</ele><time>2026-04-03T12:46:31.863Z</time></trkpt><trkpt lat="45.0092552" lon="6.8730036"><ele>2063.9999999999995</ele><time>2026-04-03T12:46:33.86Z</time></trkpt><trkpt lat="45.0091867" lon="6.8730291"><ele>2064.0</ele><time>2026-04-03T12:46:35.844Z</time></trkpt><trkpt lat="45.009118" lon="6.8730557"><ele>2064.0</ele><time>2026-04-03T12:46:37.859Z</time></trkpt><trkpt lat="45.009048" lon="6.8730811"><ele>2064.0</ele><time>2026-04-03T12:46:39.856Z</time></trkpt><trkpt lat="45.0089788" lon="6.8731034"><ele>2064.0</ele><time>2026-04-03T12:46:41.854Z</time></trkpt><trkpt lat="45.0089081" lon="6.8731278"><ele>2063.9999999999995</ele><time>2026-04-03T12:46:43.862Z</time></trkpt><trkpt lat="45.008838" lon="6.8731498"><ele>2064.0</ele><time>2026-04-03T12:46:45.859Z</time></trkpt><trkpt lat="45.0087642" lon="6.8731766"><ele>2070.142857142857</ele><time>2026-04-03T12:46:47.846Z</time></trkpt><trkpt lat="45.0086921" lon="6.8732005"><ele>2076.285714285714</ele><time>2026-04-03T12:46:49.849Z</time></trkpt><trkpt lat="45.0086225" lon="6.8732251"><ele>2082.4285714285716</ele><time>2026-04-03T12:46:51.845Z</time></trkpt><trkpt lat="45.0085495" lon="6.8732527"><ele>2088.5714285714284</ele><time>2026-04-03T12:46:53.859Z</time></trkpt><trkpt lat="45.0084785" lon="6.8732778"><ele>2094.714285714286</ele><time>2026-04-03T12:46:55.846Z</time></trkpt><trkpt lat="45.0084161" lon="6.8732969"><ele>2100.8571428571427</ele><time>2026-04-03T12:46:57.865Z</time></trkpt><trkpt lat="45.0083408" lon="6.8733244"><ele>2107.0</ele><time>2026-04-03T12:46:59.856Z</time></trkpt><trkpt lat="45.0082641" lon="6.8733533"><ele>2109.8333333333335</ele><time>2026-04-03T12:47:01.856Z</time></trkpt><trkpt lat="45.008186" lon="6.8733822"><ele>2112.666666666667</ele><time>2026-04-03T12:47:03.854Z</time></trkpt><trkpt lat="45.0081091" lon="6.8734101"><ele>2115.5</ele><time>2026-04-03T12:47:05.853Z</time></trkpt><trkpt lat="45.0080318" lon="6.8734382"><ele>2118.3333333333335</ele><time>2026-04-03T12:47:07.862Z</time></trkpt><trkpt lat="45.0079542" lon="6.8734661"><ele>2121.1666666666665</ele><time>2026-04-03T12:47:09.852Z</time></trkpt><trkpt lat="45.0078824" lon="6.87349"><ele>2124.0</ele><time>2026-04-03T12:47:11.855Z</time></trkpt><trkpt lat="45.0078004" lon="6.8735181"><ele>2124.8333333333335</ele><time>2026-04-03T12:47:13.856Z</time></trkpt><trkpt lat="45.0077216" lon="6.8735441"><ele>2125.6666666666665</ele><time>2026-04-03T12:47:15.849Z</time></trkpt><trkpt lat="45.0076431" lon="6.8735716"><ele>2126.5</ele><time>2026-04-03T12:47:17.859Z</time></trkpt><trkpt lat="45.0075647" lon="6.8736008"><ele>2127.333333333333</ele><time>2026-04-03T12:47:19.85Z</time></trkpt><trkpt lat="45.0074867" lon="6.8736295"><ele>2128.1666666666665</ele><time>2026-04-03T12:47:21.851Z</time></trkpt><trkpt lat="45.0074091" lon="6.8736579"><ele>2129.0</ele><time>2026-04-03T12:47:23.846Z</time></trkpt><trkpt lat="45.0073316" lon="6.8736853"><ele>2131.833333333333</ele><time>2026-04-03T12:47:25.854Z</time></trkpt><trkpt lat="45.0072546" lon="6.8737129"><ele>2134.6666666666665</ele><time>2026-04-03T12:47:27.857Z</time></trkpt><trkpt lat="45.0071765" lon="6.8737392"><ele>2137.5</ele><time>2026-04-03T12:47:29.858Z</time></trkpt><trkpt lat="45.007097" lon="6.8737657"><ele>2140.3333333333335</ele><time>2026-04-03T12:47:31.861Z</time></trkpt><trkpt lat="45.007019" lon="6.8737917"><ele>2143.166666666667</ele><time>2026-04-03T12:47:33.852Z</time></trkpt><trkpt lat="45.0069412" lon="6.8738198"><ele>2146.0</ele><time>2026-04-03T12:47:35.85Z</time></trkpt><trkpt lat="45.0068635" lon="6.8738456"><ele>2146.0</ele><time>2026-04-03T12:47:37.852Z</time></trkpt><trkpt lat="45.0067869" lon="6.8738704"><ele>2146.0</ele><time>2026-04-03T12:47:39.858Z</time></trkpt><trkpt lat="45.0067092" lon="6.8738978"><ele>2146.0</ele><time>2026-04-03T12:47:41.866Z</time></trkpt><trkpt lat="45.0066317" lon="6.8739235"><ele>2146.0</ele><time>2026-04-03T12:47:43.864Z</time></trkpt><trkpt lat="45.0065527" lon="6.8739499"><ele>2146.0</ele><time>2026-04-03T12:47:45.847Z</time></trkpt><trkpt lat="45.0064738" lon="6.87398"><ele>2146.0</ele><time>2026-04-03T12:47:47.861Z</time></trkpt><trkpt lat="45.0063964" lon="6.8740101"><ele>2150.4285714285716</ele><time>2026-04-03T12:47:49.861Z</time></trkpt><trkpt lat="45.0063208" lon="6.8740404"><ele>2154.8571428571427</ele><time>2026-04-03T12:47:51.85Z</time></trkpt><trkpt lat="45.006249" lon="6.8740675"><ele>2159.285714285714</ele><time>2026-04-03T12:47:53.857Z</time></trkpt><trkpt lat="45.0061789" lon="6.8740939"><ele>2163.714285714286</ele><time>2026-04-03T12:47:55.85Z</time></trkpt><trkpt lat="45.0061095" lon="6.8741182"><ele>2168.142857142857</ele><time>2026-04-03T12:47:57.854Z</time></trkpt><trkpt lat="45.0060377" lon="6.8741414"><ele>2172.5714285714284</ele><time>2026-04-03T12:47:59.857Z</time></trkpt><trkpt lat="45.0059682" lon="6.8741654"><ele>2177.0</ele><time>2026-04-03T12:48:01.859Z</time></trkpt><trkpt lat="45.0058986" lon="6.8741896"><ele>2177.0</ele><time>2026-04-03T12:48:03.864Z</time></trkpt><trkpt lat="45.0058293" lon="6.8742111"><ele>2177.0</ele><time>2026-04-03T12:48:05.856Z</time></trkpt><trkpt lat="45.0057565" lon="6.8742363"><ele>2177.0</ele><time>2026-04-03T12:48:07.86Z</time></trkpt><trkpt lat="45.0056838" lon="6.8742597"><ele>2177.0</ele><time>2026-04-03T12:48:09.844Z</time></trkpt><trkpt lat="45.0056102" lon="6.8742846"><ele>2177.0</ele><time>2026-04-03T12:48:11.849Z</time></trkpt><trkpt lat="45.005538" lon="6.8743097"><ele>2177.0</ele><time>2026-04-03T12:48:13.854Z</time></trkpt><trkpt lat="45.0054673" lon="6.8743371"><ele>2177.0</ele><time>2026-04-03T12:48:15.855Z</time></trkpt><trkpt lat="45.0053985" lon="6.8743649"><ele>2182.714285714286</ele><time>2026-04-03T12:48:17.852Z</time></trkpt><trkpt lat="45.005329" lon="6.8743913"><ele>2188.4285714285716</ele><time>2026-04-03T12:48:19.852Z</time></trkpt><trkpt lat="45.0052586" lon="6.8744168"><ele>2194.142857142857</ele><time>2026-04-03T12:48:21.847Z</time></trkpt><trkpt lat="45.005189" lon="6.87444"><ele>2199.857142857143</ele><time>2026-04-03T12:48:23.852Z</time></trkpt><trkpt lat="45.0051194" lon="6.8744633"><ele>2205.5714285714284</ele><time>2026-04-03T12:48:25.85Z</time></trkpt><trkpt lat="45.0050496" lon="6.8744857"><ele>2211.285714285714</ele><time>2026-04-03T12:48:27.865Z</time></trkpt><trkpt lat="45.0049807" lon="6.8745089"><ele>2217.0</ele><time>2026-04-03T12:48:29.863Z</time></trkpt><trkpt lat="45.0049069" lon="6.8745359"><ele>2221.3333333333335</ele><time>2026-04-03T12:48:31.859Z</time></trkpt><trkpt lat="45.0048311" lon="6.8745643"><ele>2225.6666666666665</ele><time>2026-04-03T12:48:33.855Z</time></trkpt><trkpt lat="45.0047557" lon="6.8745921"><ele>2230.0</ele><time>2026-04-03T12:48:35.85Z</time></trkpt><trkpt lat="45.0046829" lon="6.8746193"><ele>2234.333333333333</ele><time>2026-04-03T12:48:37.855Z</time></trkpt><trkpt lat="45.0046078" lon="6.8746469"><ele>2238.6666666666665</ele><time>2026-04-03T12:48:39.862Z</time></trkpt><trkpt lat="45.0045351" lon="6.874673"><ele>2243.0</ele><time>2026-04-03T12:48:41.862Z</time></trkpt><trkpt lat="45.0044622" lon="6.8746985"><ele>2243.0</ele><time>2026-04-03T12:48:43.846Z</time></trkpt><trkpt lat="45.0043865" lon="6.8747224"><ele>2243.0</ele><time>2026-04-03T12:48:45.849Z</time></trkpt><trkpt lat="45.0043128" lon="6.8747494"><ele>2243.0</ele><time>2026-04-03T12:48:47.862Z</time></trkpt><trkpt lat="45.0042374" lon="6.8747761"><ele>2243.0</ele><time>2026-04-03T12:48:49.847Z</time></trkpt><trkpt lat="45.0041608" lon="6.8748014"><ele>2243.0</ele><time>2026-04-03T12:48:51.857Z</time></trkpt><trkpt lat="45.004088" lon="6.8748247"><ele>2243.0</ele><time>2026-04-03T12:48:53.859Z</time></trkpt><trkpt lat="45.0040152" lon="6.8748513"><ele>2246.1666666666665</ele><time>2026-04-03T12:48:55.858Z</time></trkpt><trkpt lat="45.0039425" lon="6.8748782"><ele>2249.333333333333</ele><time>2026-04-03T12:48:57.859Z</time></trkpt><trkpt lat="45.0038706" lon="6.8749033"><ele>2252.5</ele><time>2026-04-03T12:48:59.856Z</time></trkpt><trkpt lat="45.0037991" lon="6.8749279"><ele>2255.6666666666665</ele><time>2026-04-03T12:49:01.861Z</time></trkpt><trkpt lat="45.0037236" lon="6.8749536"><ele>2258.8333333333335</ele><time>2026-04-03T12:49:03.855Z</time></trkpt><trkpt lat="45.0036497" lon="6.8749791"><ele>2262.0</ele><time>2026-04-03T12:49:05.851Z</time></trkpt><trkpt lat="45.0035707" lon="6.8750062"><ele>2262.0</ele><time>2026-04-03T12:49:07.853Z</time></trkpt><trkpt lat="45.0034892" lon="6.8750383"><ele>2262.0</ele><time>2026-04-03T12:49:09.855Z</time></trkpt><trkpt lat="45.0034064" lon="6.8750653"><ele>2262.0</ele><time>2026-04-03T12:49:12.849Z</time></trkpt><trkpt lat="45.0033392" lon="6.8750788"><ele>2262.0</ele><time>2026-04-03T12:49:17.852Z</time></trkpt><trkpt lat="45.0032426" lon="6.8751099"><ele>2262.0</ele><time>2026-04-03T12:49:20.856Z</time></trkpt><trkpt lat="45.0031726" lon="6.8751751"><ele>2262.0</ele><time>2026-04-03T12:49:23.857Z</time></trkpt><trkpt lat="45.0031049" lon="6.8751898"><ele>2263.571428571429</ele><time>2026-04-03T12:50:12.854Z</time></trkpt><trkpt lat="45.0030366" lon="6.8751625"><ele>2265.1428571428573</ele><time>2026-04-03T12:50:46.853Z</time></trkpt><trkpt lat="45.0029876" lon="6.8750687"><ele>2266.714285714286</ele><time>2026-04-03T12:51:08.859Z</time></trkpt><trkpt lat="45.0029231" lon="6.8750828"><ele>2268.2857142857147</ele><time>2026-04-03T12:51:17.861Z</time></trkpt><trkpt lat="45.0029181" lon="6.8751737"><ele>2269.857142857143</ele><time>2026-04-03T12:52:03.857Z</time></trkpt><trkpt lat="45.0029094" lon="6.8752623"><ele>2271.4285714285716</ele><time>2026-04-03T12:52:09.854Z</time></trkpt><trkpt lat="45.0029577" lon="6.8752012"><ele>2273.0</ele><time>2026-04-03T12:55:04.845Z</time></trkpt><trkpt lat="45.0029444" lon="6.875106"><ele>2273.0</ele><time>2026-04-03T12:55:08.863Z</time></trkpt><trkpt lat="45.0029086" lon="6.8750237"><ele>2273.0</ele><time>2026-04-03T12:55:23.858Z</time></trkpt><trkpt lat="45.0029584" lon="6.875092"><ele>2273.0</ele><time>2026-04-03T13:10:37.861Z</time></trkpt><trkpt lat="45.0028929" lon="6.875145"><ele>2273.0</ele><time>2026-04-03T13:10:42.847Z</time></trkpt><trkpt lat="45.0029586" lon="6.87518"><ele>2273.0</ele><time>2026-04-03T13:10:44.852Z</time></trkpt><trkpt lat="45.0029329" lon="6.8750974"><ele>2273.0</ele><time>2026-04-03T13:11:16.855Z</time></trkpt><trkpt lat="45.0029279" lon="6.8751876"><ele>2273.0</ele><time>2026-04-03T13:11:43.858Z</time></trkpt><trkpt lat="45.0029076" lon="6.8752779"><ele>2274.6666666666665</ele><time>2026-04-03T13:11:55.852Z</time></trkpt><trkpt lat="45.0028445" lon="6.8752804"><ele>2276.3333333333335</ele><time>2026-04-03T13:12:02.853Z</time></trkpt><trkpt lat="45.0029687" lon="6.8752476"><ele>2278.0</ele><time>2026-04-03T13:13:05.394Z</time></trkpt><trkpt lat="45.0032306" lon="6.8757909"><ele>2278.0</ele><time>2026-04-03T13:14:08.855Z</time></trkpt><trkpt lat="45.0030299" lon="6.8753583"><ele>2278.0</ele><time>2026-04-03T13:14:09.851Z</time></trkpt><trkpt lat="45.0029896" lon="6.8752272"><ele>2278.0</ele><time>2026-04-03T13:14:10.852Z</time></trkpt><trkpt lat="45.0029599" lon="6.8751371"><ele>2278.0</ele><time>2026-04-03T13:14:13.842Z</time></trkpt><trkpt lat="45.0029801" lon="6.87505"><ele>2278.0</ele><time>2026-04-03T13:15:02.853Z</time></trkpt><trkpt lat="45.0030474" lon="6.8750596"><ele>2278.0</ele><time>2026-04-03T13:15:14.863Z</time></trkpt><trkpt lat="45.0030577" lon="6.8751485"><ele>2278.0</ele><time>2026-04-03T13:15:35.854Z</time></trkpt><trkpt lat="45.0031128" lon="6.8751051"><ele>2278.0</ele><time>2026-04-03T13:16:06.857Z</time></trkpt><trkpt lat="45.0031284" lon="6.8750136"><ele>2278.0</ele><time>2026-04-03T13:16:49.86Z</time></trkpt><trkpt lat="45.0030816" lon="6.8749334"><ele>2277.0</ele><time>2026-04-03T13:16:55.847Z</time></trkpt><trkpt lat="45.0031011" lon="6.8748207"><ele>2276.0</ele><time>2026-04-03T13:16:59.859Z</time></trkpt><trkpt lat="45.0031161" lon="6.8746611"><ele>2275.0</ele><time>2026-04-03T13:17:01.858Z</time></trkpt><trkpt lat="45.003152" lon="6.8744993"><ele>2274.0</ele><time>2026-04-03T13:17:03.86Z</time></trkpt><trkpt lat="45.0031789" lon="6.8743316"><ele>2273.0</ele><time>2026-04-03T13:17:05.853Z</time></trkpt><trkpt lat="45.0032026" lon="6.8742469"><ele>2272.6</ele><time>2026-04-03T13:17:06.862Z</time></trkpt><trkpt lat="45.0032584" lon="6.8741316"><ele>2272.2000000000003</ele><time>2026-04-03T13:17:08.852Z</time></trkpt><trkpt lat="45.0032566" lon="6.8739794"><ele>2271.8</ele><time>2026-04-03T13:17:10.864Z</time></trkpt><trkpt lat="45.0033148" lon="6.8738777"><ele>2271.4</ele><time>2026-04-03T13:17:12.859Z</time></trkpt><trkpt lat="45.0034037" lon="6.8737568"><ele>2271.0</ele><time>2026-04-03T13:17:14.858Z</time></trkpt><trkpt lat="45.0034704" lon="6.8737113"><ele>2268.2</ele><time>2026-04-03T13:17:15.853Z</time></trkpt><trkpt lat="45.0035539" lon="6.8737028"><ele>2265.3999999999996</ele><time>2026-04-03T13:17:16.849Z</time></trkpt><trkpt lat="45.0036393" lon="6.8737506"><ele>2262.6</ele><time>2026-04-03T13:17:17.857Z</time></trkpt><trkpt lat="45.0037146" lon="6.8738068"><ele>2259.7999999999997</ele><time>2026-04-03T13:17:18.851Z</time></trkpt><trkpt lat="45.003797" lon="6.8738618"><ele>2257.0</ele><time>2026-04-03T13:17:19.868Z</time></trkpt><trkpt lat="45.003892" lon="6.8738992"><ele>2257.0</ele><time>2026-04-03T13:17:20.856Z</time></trkpt><trkpt lat="45.00397" lon="6.8739788"><ele>2257.0</ele><time>2026-04-03T13:17:21.86Z</time></trkpt><trkpt lat="45.0040682" lon="6.8740404"><ele>2257.0</ele><time>2026-04-03T13:17:22.857Z</time></trkpt><trkpt lat="45.0041476" lon="6.8741257"><ele>2257.0</ele><time>2026-04-03T13:17:23.847Z</time></trkpt><trkpt lat="45.0041937" lon="6.8742723"><ele>2257.0</ele><time>2026-04-03T13:17:24.855Z</time></trkpt><trkpt lat="45.0041838" lon="6.8744231"><ele>2254.2</ele><time>2026-04-03T13:17:25.862Z</time></trkpt><trkpt lat="45.0041788" lon="6.8745818"><ele>2251.3999999999996</ele><time>2026-04-03T13:17:26.857Z</time></trkpt><trkpt lat="45.0042489" lon="6.8746913"><ele>2248.6000000000004</ele><time>2026-04-03T13:17:27.849Z</time></trkpt><trkpt lat="45.0042939" lon="6.8748234"><ele>2245.8</ele><time>2026-04-03T13:17:28.861Z</time></trkpt><trkpt lat="45.0043751" lon="6.8748249"><ele>2243.0</ele><time>2026-04-03T13:17:29.857Z</time></trkpt><trkpt lat="45.0044533" lon="6.8748148"><ele>2243.0</ele><time>2026-04-03T13:17:30.846Z</time></trkpt><trkpt lat="45.004576" lon="6.8747109"><ele>2243.0</ele><time>2026-04-03T13:17:31.857Z</time></trkpt><trkpt lat="45.0047278" lon="6.8746401"><ele>2243.0</ele><time>2026-04-03T13:17:32.858Z</time></trkpt><trkpt lat="45.004829" lon="6.8745286"><ele>2243.0</ele><time>2026-04-03T13:17:33.851Z</time></trkpt><trkpt lat="45.0049007" lon="6.8744049"><ele>2243.0</ele><time>2026-04-03T13:17:34.858Z</time></trkpt><trkpt lat="45.0049298" lon="6.874267"><ele>2243.0</ele><time>2026-04-03T13:17:35.854Z</time></trkpt><trkpt lat="45.0049845" lon="6.8741238"><ele>2243.0</ele><time>2026-04-03T13:17:36.843Z</time></trkpt><trkpt lat="45.0049517" lon="6.8739472"><ele>2243.0</ele><time>2026-04-03T13:17:37.85Z</time></trkpt><trkpt lat="45.004971" lon="6.8737728"><ele>2243.0</ele><time>2026-04-03T13:17:38.846Z</time></trkpt><trkpt lat="45.0049866" lon="6.8736063"><ele>2243.0</ele><time>2026-04-03T13:17:39.864Z</time></trkpt><trkpt lat="45.0050818" lon="6.8734906"><ele>2243.0</ele><time>2026-04-03T13:17:40.867Z</time></trkpt><trkpt lat="45.005087" lon="6.8733098"><ele>2243.0</ele><time>2026-04-03T13:17:41.854Z</time></trkpt><trkpt lat="45.0051106" lon="6.8731413"><ele>2235.75</ele><time>2026-04-03T13:17:42.855Z</time></trkpt><trkpt lat="45.0051572" lon="6.8729654"><ele>2228.5</ele><time>2026-04-03T13:17:43.853Z</time></trkpt><trkpt lat="45.0051848" lon="6.8727542"><ele>2221.25</ele><time>2026-04-03T13:17:44.844Z</time></trkpt><trkpt lat="45.0052065" lon="6.8725804"><ele>2214.0</ele><time>2026-04-03T13:17:45.847Z</time></trkpt><trkpt lat="45.0051715" lon="6.8724623"><ele>2211.25</ele><time>2026-04-03T13:17:46.85Z</time></trkpt><trkpt lat="45.0051067" lon="6.8722854"><ele>2208.5</ele><time>2026-04-03T13:17:47.854Z</time></trkpt><trkpt lat="45.0050087" lon="6.8721176"><ele>2205.75</ele><time>2026-04-03T13:17:48.847Z</time></trkpt><trkpt lat="45.0049556" lon="6.8719601"><ele>2203.0</ele><time>2026-04-03T13:17:49.855Z</time></trkpt><trkpt lat="45.0049594" lon="6.8718018"><ele>2200.0</ele><time>2026-04-03T13:17:50.853Z</time></trkpt><trkpt lat="45.0049931" lon="6.8716655"><ele>2197.0</ele><time>2026-04-03T13:17:51.852Z</time></trkpt><trkpt lat="45.0050333" lon="6.8715174"><ele>2194.0</ele><time>2026-04-03T13:17:52.863Z</time></trkpt><trkpt lat="45.0050743" lon="6.8713727"><ele>2191.0</ele><time>2026-04-03T13:17:53.853Z</time></trkpt><trkpt lat="45.0050983" lon="6.8712303"><ele>2188.0</ele><time>2026-04-03T13:17:54.857Z</time></trkpt><trkpt lat="45.005125" lon="6.8710871"><ele>2188.0</ele><time>2026-04-03T13:17:55.849Z</time></trkpt><trkpt lat="45.0051243" lon="6.8709549"><ele>2188.0</ele><time>2026-04-03T13:17:56.852Z</time></trkpt><trkpt lat="45.0051116" lon="6.870818"><ele>2188.0</ele><time>2026-04-03T13:17:57.855Z</time></trkpt><trkpt lat="45.0050245" lon="6.8707217"><ele>2188.0</ele><time>2026-04-03T13:17:58.866Z</time></trkpt><trkpt lat="45.0049712" lon="6.8706165"><ele>2188.0</ele><time>2026-04-03T13:17:59.852Z</time></trkpt><trkpt lat="45.0049337" lon="6.8705068"><ele>2186.4</ele><time>2026-04-03T13:18:00.85Z</time></trkpt><trkpt lat="45.0049406" lon="6.8703714"><ele>2184.8</ele><time>2026-04-03T13:18:01.853Z</time></trkpt><trkpt lat="45.004956" lon="6.8702577"><ele>2183.2</ele><time>2026-04-03T13:18:02.849Z</time></trkpt><trkpt lat="45.0050541" lon="6.8701395"><ele>2181.6</ele><time>2026-04-03T13:18:04.858Z</time></trkpt><trkpt lat="45.0051422" lon="6.8700126"><ele>2180.0</ele><time>2026-04-03T13:18:05.856Z</time></trkpt><trkpt lat="45.0052198" lon="6.8699306"><ele>2177.0</ele><time>2026-04-03T13:18:06.851Z</time></trkpt><trkpt lat="45.0052468" lon="6.8697762"><ele>2174.0</ele><time>2026-04-03T13:18:07.858Z</time></trkpt><trkpt lat="45.0052883" lon="6.8696265"><ele>2171.0</ele><time>2026-04-03T13:18:08.864Z</time></trkpt><trkpt lat="45.0053328" lon="6.8694833"><ele>2168.0</ele><time>2026-04-03T13:18:09.854Z</time></trkpt><trkpt lat="45.0053685" lon="6.8693392"><ele>2165.0</ele><time>2026-04-03T13:18:10.852Z</time></trkpt><trkpt lat="45.0054064" lon="6.8692026"><ele>2163.0</ele><time>2026-04-03T13:18:11.851Z</time></trkpt><trkpt lat="45.0054497" lon="6.86908"><ele>2161.0</ele><time>2026-04-03T13:18:12.854Z</time></trkpt><trkpt lat="45.00553" lon="6.8689945"><ele>2159.0</ele><time>2026-04-03T13:18:13.864Z</time></trkpt><trkpt lat="45.0055994" lon="6.8689331"><ele>2157.0</ele><time>2026-04-03T13:18:14.85Z</time></trkpt><trkpt lat="45.0056671" lon="6.8688544"><ele>2155.0</ele><time>2026-04-03T13:18:15.86Z</time></trkpt><trkpt lat="45.0057279" lon="6.8687665"><ele>2155.0</ele><time>2026-04-03T13:18:16.866Z</time></trkpt><trkpt lat="45.0057859" lon="6.8686789"><ele>2155.0</ele><time>2026-04-03T13:18:17.86Z</time></trkpt><trkpt lat="45.0058398" lon="6.8685871"><ele>2155.0</ele><time>2026-04-03T13:18:18.855Z</time></trkpt><trkpt lat="45.0058649" lon="6.868482"><ele>2155.0</ele><time>2026-04-03T13:18:19.854Z</time></trkpt><trkpt lat="45.0058831" lon="6.8683589"><ele>2155.0</ele><time>2026-04-03T13:18:20.852Z</time></trkpt><trkpt lat="45.0059236" lon="6.8682245"><ele>2155.0</ele><time>2026-04-03T13:18:21.85Z</time></trkpt><trkpt lat="45.0059944" lon="6.8681261"><ele>2152.8333333333335</ele><time>2026-04-03T13:18:22.863Z</time></trkpt><trkpt lat="45.0060809" lon="6.8681012"><ele>2150.666666666667</ele><time>2026-04-03T13:18:23.852Z</time></trkpt><trkpt lat="45.0061634" lon="6.8680712"><ele>2148.5</ele><time>2026-04-03T13:18:24.865Z</time></trkpt><trkpt lat="45.006224" lon="6.8680421"><ele>2146.3333333333335</ele><time>2026-04-03T13:18:25.851Z</time></trkpt><trkpt lat="45.0063134" lon="6.8679881"><ele>2144.1666666666665</ele><time>2026-04-03T13:18:27.843Z</time></trkpt><trkpt lat="45.0063783" lon="6.8679647"><ele>2142.0</ele><time>2026-04-03T13:18:30.856Z</time></trkpt><trkpt lat="45.0064509" lon="6.8679603"><ele>2142.0</ele><time>2026-04-03T13:18:35.861Z</time></trkpt><trkpt lat="45.0065133" lon="6.8679762"><ele>2142.0</ele><time>2026-04-03T13:18:44.846Z</time></trkpt><trkpt lat="45.0065622" lon="6.8680327"><ele>2142.0</ele><time>2026-04-03T13:18:53.859Z</time></trkpt><trkpt lat="45.006574" lon="6.8681373"><ele>2142.0</ele><time>2026-04-03T13:19:18.846Z</time></trkpt><trkpt lat="45.0065338" lon="6.8682147"><ele>2142.0</ele><time>2026-04-03T13:20:26.855Z</time></trkpt><trkpt lat="45.006451" lon="6.8682033"><ele>2142.0</ele><time>2026-04-03T13:20:42.854Z</time></trkpt><trkpt lat="45.0063538" lon="6.8681978"><ele>2142.0</ele><time>2026-04-03T13:20:45.864Z</time></trkpt><trkpt lat="45.0062833" lon="6.8681917"><ele>2142.0</ele><time>2026-04-03T13:20:47.849Z</time></trkpt><trkpt lat="45.0062099" lon="6.8681885"><ele>2142.0</ele><time>2026-04-03T13:20:49.852Z</time></trkpt><trkpt lat="45.0061417" lon="6.8681861"><ele>2142.0</ele><time>2026-04-03T13:20:51.85Z</time></trkpt><trkpt lat="45.0060439" lon="6.8681915"><ele>2142.0</ele><time>2026-04-03T13:20:54.856Z</time></trkpt><trkpt lat="45.0059718" lon="6.8681942"><ele>2142.0</ele><time>2026-04-03T13:20:56.859Z</time></trkpt><trkpt lat="45.0059004" lon="6.8681919"><ele>2142.0</ele><time>2026-04-03T13:20:58.86Z</time></trkpt><trkpt lat="45.0058295" lon="6.8681872"><ele>2142.0</ele><time>2026-04-03T13:21:00.847Z</time></trkpt><trkpt lat="45.0057563" lon="6.8681851"><ele>2142.0</ele><time>2026-04-03T13:21:02.854Z</time></trkpt><trkpt lat="45.0056879" lon="6.8681852"><ele>2142.0</ele><time>2026-04-03T13:21:04.862Z</time></trkpt><trkpt lat="45.0056156" lon="6.8681814"><ele>2142.0</ele><time>2026-04-03T13:21:06.855Z</time></trkpt><trkpt lat="45.0055418" lon="6.8681731"><ele>2142.0</ele><time>2026-04-03T13:21:08.859Z</time></trkpt><trkpt lat="45.0054744" lon="6.8681664"><ele>2142.0</ele><time>2026-04-03T13:21:10.856Z</time></trkpt><trkpt lat="45.0054044" lon="6.8681581"><ele>2142.8571428571427</ele><time>2026-04-03T13:21:12.857Z</time></trkpt><trkpt lat="45.0053338" lon="6.8681515"><ele>2143.714285714286</ele><time>2026-04-03T13:21:14.851Z</time></trkpt><trkpt lat="45.0052659" lon="6.8681476"><ele>2144.5714285714284</ele><time>2026-04-03T13:21:16.854Z</time></trkpt><trkpt lat="45.0051955" lon="6.8681435"><ele>2145.4285714285716</ele><time>2026-04-03T13:21:18.846Z</time></trkpt><trkpt lat="45.0051227" lon="6.8681401"><ele>2146.285714285714</ele><time>2026-04-03T13:21:20.862Z</time></trkpt><trkpt lat="45.0050535" lon="6.8681338"><ele>2147.142857142857</ele><time>2026-04-03T13:21:22.856Z</time></trkpt><trkpt lat="45.0049814" lon="6.8681319"><ele>2148.0</ele><time>2026-04-03T13:21:24.851Z</time></trkpt><trkpt lat="45.0049076" lon="6.8681263"><ele>2152.285714285714</ele><time>2026-04-03T13:21:26.849Z</time></trkpt><trkpt lat="45.0048407" lon="6.8681225"><ele>2156.5714285714284</ele><time>2026-04-03T13:21:28.859Z</time></trkpt><trkpt lat="45.0047696" lon="6.8681206"><ele>2160.857142857143</ele><time>2026-04-03T13:21:30.854Z</time></trkpt><trkpt lat="45.0046955" lon="6.8681179"><ele>2165.142857142857</ele><time>2026-04-03T13:21:32.851Z</time></trkpt><trkpt lat="45.0046266" lon="6.8681138"><ele>2169.4285714285716</ele><time>2026-04-03T13:21:34.855Z</time></trkpt><trkpt lat="45.004559" lon="6.8681072"><ele>2173.714285714286</ele><time>2026-04-03T13:21:36.855Z</time></trkpt><trkpt lat="45.0044917" lon="6.8681033"><ele>2178.0</ele><time>2026-04-03T13:21:38.849Z</time></trkpt><trkpt lat="45.0044276" lon="6.8680988"><ele>2178.0000000000005</ele><time>2026-04-03T13:21:40.856Z</time></trkpt><trkpt lat="45.0043597" lon="6.8680939"><ele>2178.0</ele><time>2026-04-03T13:21:42.855Z</time></trkpt><trkpt lat="45.0042929" lon="6.8680867"><ele>2178.0</ele><time>2026-04-03T13:21:44.86Z</time></trkpt><trkpt lat="45.0042002" lon="6.8680788"><ele>2178.0</ele><time>2026-04-03T13:21:47.856Z</time></trkpt><trkpt lat="45.0041344" lon="6.868075"><ele>2178.0</ele><time>2026-04-03T13:21:49.857Z</time></trkpt><trkpt lat="45.0040616" lon="6.8680718"><ele>2178.0000000000005</ele><time>2026-04-03T13:21:51.856Z</time></trkpt><trkpt lat="45.0039976" lon="6.8680676"><ele>2178.0</ele><time>2026-04-03T13:21:53.861Z</time></trkpt><trkpt lat="45.0039296" lon="6.8680651"><ele>2182.714285714286</ele><time>2026-04-03T13:21:55.852Z</time></trkpt><trkpt lat="45.0038593" lon="6.8680707"><ele>2187.4285714285716</ele><time>2026-04-03T13:21:57.846Z</time></trkpt><trkpt lat="45.0037945" lon="6.8680646"><ele>2192.142857142857</ele><time>2026-04-03T13:21:59.851Z</time></trkpt><trkpt lat="45.0037237" lon="6.868058"><ele>2196.857142857143</ele><time>2026-04-03T13:22:01.859Z</time></trkpt><trkpt lat="45.0036546" lon="6.8680528"><ele>2201.5714285714284</ele><time>2026-04-03T13:22:03.858Z</time></trkpt><trkpt lat="45.0035906" lon="6.8680493"><ele>2206.285714285714</ele><time>2026-04-03T13:22:05.853Z</time></trkpt><trkpt lat="45.0035202" lon="6.8680485"><ele>2211.0</ele><time>2026-04-03T13:22:07.844Z</time></trkpt><trkpt lat="45.0034515" lon="6.8680494"><ele>2210.9999999999995</ele><time>2026-04-03T13:22:09.857Z</time></trkpt><trkpt lat="45.0033883" lon="6.8680491"><ele>2211.0</ele><time>2026-04-03T13:22:11.853Z</time></trkpt><trkpt lat="45.00332" lon="6.8680462"><ele>2211.0</ele><time>2026-04-03T13:22:13.858Z</time></trkpt><trkpt lat="45.0032551" lon="6.8680439"><ele>2211.0</ele><time>2026-04-03T13:22:15.864Z</time></trkpt><trkpt lat="45.0031633" lon="6.868043"><ele>2211.0</ele><time>2026-04-03T13:22:18.866Z</time></trkpt><trkpt lat="45.0030912" lon="6.8680464"><ele>2210.9999999999995</ele><time>2026-04-03T13:22:20.853Z</time></trkpt><trkpt lat="45.0030257" lon="6.8680473"><ele>2211.0</ele><time>2026-04-03T13:22:22.85Z</time></trkpt><trkpt lat="45.0029541" lon="6.8680471"><ele>2215.9999999999995</ele><time>2026-04-03T13:22:24.854Z</time></trkpt><trkpt lat="45.0028848" lon="6.8680423"><ele>2221.0</ele><time>2026-04-03T13:22:26.846Z</time></trkpt><trkpt lat="45.0028215" lon="6.868041"><ele>2226.0</ele><time>2026-04-03T13:22:28.848Z</time></trkpt><trkpt lat="45.0027552" lon="6.8680392"><ele>2231.0</ele><time>2026-04-03T13:22:30.857Z</time></trkpt><trkpt lat="45.0026818" lon="6.8680372"><ele>2236.0</ele><time>2026-04-03T13:22:32.863Z</time></trkpt><trkpt lat="45.0026183" lon="6.8680325"><ele>2240.9999999999995</ele><time>2026-04-03T13:22:34.859Z</time></trkpt><trkpt lat="45.0025536" lon="6.8680283"><ele>2246.0</ele><time>2026-04-03T13:22:36.859Z</time></trkpt><trkpt lat="45.0024846" lon="6.868022"><ele>2249.428571428571</ele><time>2026-04-03T13:22:38.854Z</time></trkpt><trkpt lat="45.0024197" lon="6.8680163"><ele>2252.8571428571427</ele><time>2026-04-03T13:22:40.853Z</time></trkpt><trkpt lat="45.0023542" lon="6.8680116"><ele>2256.285714285714</ele><time>2026-04-03T13:22:42.856Z</time></trkpt><trkpt lat="45.0022881" lon="6.8680074"><ele>2259.7142857142853</ele><time>2026-04-03T13:22:44.854Z</time></trkpt><trkpt lat="45.0022212" lon="6.8680038"><ele>2263.142857142857</ele><time>2026-04-03T13:22:46.858Z</time></trkpt><trkpt lat="45.002151" lon="6.8679993"><ele>2266.5714285714284</ele><time>2026-04-03T13:22:48.85Z</time></trkpt><trkpt lat="45.002078" lon="6.8679946"><ele>2270.0</ele><time>2026-04-03T13:22:50.866Z</time></trkpt><trkpt lat="45.0020113" lon="6.8679916"><ele>2270.0</ele><time>2026-04-03T13:22:52.848Z</time></trkpt><trkpt lat="45.0019414" lon="6.8679871"><ele>2270.0</ele><time>2026-04-03T13:22:54.846Z</time></trkpt><trkpt lat="45.0018716" lon="6.8679816"><ele>2270.0</ele><time>2026-04-03T13:22:56.848Z</time></trkpt><trkpt lat="45.0018054" lon="6.8679753"><ele>2270.0</ele><time>2026-04-03T13:22:58.859Z</time></trkpt><trkpt lat="45.0017384" lon="6.8679705"><ele>2270.0</ele><time>2026-04-03T13:23:00.856Z</time></trkpt><trkpt lat="45.00167" lon="6.8679655"><ele>2270.0</ele><time>2026-04-03T13:23:02.853Z</time></trkpt><trkpt lat="45.0016032" lon="6.867962"><ele>2270.0</ele><time>2026-04-03T13:23:04.854Z</time></trkpt><trkpt lat="45.0015376" lon="6.8679581"><ele>2272.714285714286</ele><time>2026-04-03T13:23:06.86Z</time></trkpt><trkpt lat="45.0014641" lon="6.8679544"><ele>2275.4285714285716</ele><time>2026-04-03T13:23:08.859Z</time></trkpt><trkpt lat="45.0013965" lon="6.8679462"><ele>2278.142857142857</ele><time>2026-04-03T13:23:10.852Z</time></trkpt><trkpt lat="45.0013262" lon="6.8679396"><ele>2280.857142857143</ele><time>2026-04-03T13:23:12.856Z</time></trkpt><trkpt lat="45.0012541" lon="6.8679381"><ele>2283.5714285714284</ele><time>2026-04-03T13:23:14.855Z</time></trkpt><trkpt lat="45.0011863" lon="6.8679363"><ele>2286.285714285714</ele><time>2026-04-03T13:23:16.847Z</time></trkpt><trkpt lat="45.0011177" lon="6.8679336"><ele>2289.0</ele><time>2026-04-03T13:23:18.857Z</time></trkpt><trkpt lat="45.0010491" lon="6.86793"><ele>2289.0</ele><time>2026-04-03T13:23:20.854Z</time></trkpt><trkpt lat="45.0009825" lon="6.867927"><ele>2289.0</ele><time>2026-04-03T13:23:22.851Z</time></trkpt><trkpt lat="45.000914" lon="6.8679228"><ele>2289.0</ele><time>2026-04-03T13:23:24.845Z</time></trkpt><trkpt lat="45.000845" lon="6.8679158"><ele>2289.0</ele><time>2026-04-03T13:23:26.846Z</time></trkpt><trkpt lat="45.0007782" lon="6.8679108"><ele>2289.0</ele><time>2026-04-03T13:23:28.854Z</time></trkpt><trkpt lat="45.0007065" lon="6.8679062"><ele>2289.0</ele><time>2026-04-03T13:23:30.853Z</time></trkpt><trkpt lat="45.000636" lon="6.8679032"><ele>2289.0</ele><time>2026-04-03T13:23:32.86Z</time></trkpt><trkpt lat="45.000565" lon="6.867901"><ele>2289.8571428571427</ele><time>2026-04-03T13:23:34.854Z</time></trkpt><trkpt lat="45.000493" lon="6.8678987"><ele>2290.714285714286</ele><time>2026-04-03T13:23:36.849Z</time></trkpt><trkpt lat="45.0004203" lon="6.8678952"><ele>2291.5714285714284</ele><time>2026-04-03T13:23:38.851Z</time></trkpt><trkpt lat="45.0003489" lon="6.8678917"><ele>2292.4285714285716</ele><time>2026-04-03T13:23:40.857Z</time></trkpt><trkpt lat="45.0002782" lon="6.867887"><ele>2293.285714285714</ele><time>2026-04-03T13:23:42.864Z</time></trkpt><trkpt lat="45.0002055" lon="6.867881"><ele>2294.142857142857</ele><time>2026-04-03T13:23:44.863Z</time></trkpt><trkpt lat="45.0001355" lon="6.8678761"><ele>2295.0</ele><time>2026-04-03T13:23:46.848Z</time></trkpt><trkpt lat="45.0000669" lon="6.8678725"><ele>2294.9999999999995</ele><time>2026-04-03T13:23:48.857Z</time></trkpt><trkpt lat="44.9999946" lon="6.86787"><ele>2295.0</ele><time>2026-04-03T13:23:50.849Z</time></trkpt><trkpt lat="44.9999235" lon="6.8678662"><ele>2295.0</ele><time>2026-04-03T13:23:52.854Z</time></trkpt><trkpt lat="44.9998531" lon="6.8678607"><ele>2295.0</ele><time>2026-04-03T13:23:54.859Z</time></trkpt><trkpt lat="44.9997804" lon="6.8678552"><ele>2295.0</ele><time>2026-04-03T13:23:56.844Z</time></trkpt><trkpt lat="44.9997104" lon="6.8678519"><ele>2294.9999999999995</ele><time>2026-04-03T13:23:58.847Z</time></trkpt><trkpt lat="44.9996404" lon="6.8678481"><ele>2295.0</ele><time>2026-04-03T13:24:00.864Z</time></trkpt><trkpt lat="44.9995692" lon="6.8678441"><ele>2294.9999999999995</ele><time>2026-04-03T13:24:02.844Z</time></trkpt><trkpt lat="44.9994988" lon="6.8678399"><ele>2295.0</ele><time>2026-04-03T13:24:04.859Z</time></trkpt><trkpt lat="44.9994287" lon="6.867835"><ele>2295.0</ele><time>2026-04-03T13:24:06.848Z</time></trkpt><trkpt lat="44.9993571" lon="6.8678304"><ele>2295.0</ele><time>2026-04-03T13:24:08.853Z</time></trkpt><trkpt lat="44.9992846" lon="6.8678249"><ele>2295.0</ele><time>2026-04-03T13:24:10.852Z</time></trkpt><trkpt lat="44.9992174" lon="6.8678232"><ele>2294.9999999999995</ele><time>2026-04-03T13:24:12.86Z</time></trkpt><trkpt lat="44.9991472" lon="6.8678216"><ele>2295.0</ele><time>2026-04-03T13:24:14.852Z</time></trkpt><trkpt lat="44.999079" lon="6.8678168"><ele>2295.8571428571427</ele><time>2026-04-03T13:24:16.854Z</time></trkpt><trkpt lat="44.9990101" lon="6.867812"><ele>2296.714285714286</ele><time>2026-04-03T13:24:18.847Z</time></trkpt><trkpt lat="44.9989381" lon="6.867808"><ele>2297.5714285714284</ele><time>2026-04-03T13:24:20.85Z</time></trkpt><trkpt lat="44.9988652" lon="6.8678018"><ele>2298.4285714285716</ele><time>2026-04-03T13:24:22.865Z</time></trkpt><trkpt lat="44.998796" lon="6.8677931"><ele>2299.285714285714</ele><time>2026-04-03T13:24:24.85Z</time></trkpt><trkpt lat="44.998728" lon="6.8677899"><ele>2300.142857142857</ele><time>2026-04-03T13:24:26.864Z</time></trkpt><trkpt lat="44.9986608" lon="6.8677779"><ele>2301.0</ele><time>2026-04-03T13:24:28.865Z</time></trkpt><trkpt lat="44.9985963" lon="6.8677456"><ele>2301.0</ele><time>2026-04-03T13:24:30.857Z</time></trkpt><trkpt lat="44.9985169" lon="6.8677585"><ele>2301.0</ele><time>2026-04-03T13:24:32.864Z</time></trkpt><trkpt lat="44.9984419" lon="6.8677593"><ele>2301.0</ele><time>2026-04-03T13:24:34.852Z</time></trkpt><trkpt lat="44.9983712" lon="6.8677587"><ele>2301.0</ele><time>2026-04-03T13:24:36.86Z</time></trkpt><trkpt lat="44.9982973" lon="6.8677582"><ele>2301.0</ele><time>2026-04-03T13:24:38.855Z</time></trkpt><trkpt lat="44.9982262" lon="6.8677589"><ele>2301.0</ele><time>2026-04-03T13:24:40.848Z</time></trkpt><trkpt lat="44.998156" lon="6.8677586"><ele>2301.0</ele><time>2026-04-03T13:24:42.865Z</time></trkpt><trkpt lat="44.9980829" lon="6.8677568"><ele>2302.0</ele><time>2026-04-03T13:24:44.863Z</time></trkpt><trkpt lat="44.9980118" lon="6.8677528"><ele>2303.0</ele><time>2026-04-03T13:24:46.858Z</time></trkpt><trkpt lat="44.997944" lon="6.8677503"><ele>2304.0</ele><time>2026-04-03T13:24:48.858Z</time></trkpt><trkpt lat="44.9978779" lon="6.8677465"><ele>2305.0</ele><time>2026-04-03T13:24:50.853Z</time></trkpt><trkpt lat="44.9978085" lon="6.8677425"><ele>2306.0</ele><time>2026-04-03T13:24:52.847Z</time></trkpt><trkpt lat="44.9977423" lon="6.8677397"><ele>2307.0</ele><time>2026-04-03T13:24:54.845Z</time></trkpt><trkpt lat="44.997676" lon="6.8677352"><ele>2308.0</ele><time>2026-04-03T13:24:56.855Z</time></trkpt><trkpt lat="44.9976102" lon="6.8677321"><ele>2308.0</ele><time>2026-04-03T13:24:58.858Z</time></trkpt><trkpt lat="44.9975437" lon="6.8677288"><ele>2308.0</ele><time>2026-04-03T13:25:00.851Z</time></trkpt><trkpt lat="44.9974764" lon="6.867725"><ele>2308.0</ele><time>2026-04-03T13:25:02.858Z</time></trkpt><trkpt lat="44.9974127" lon="6.867721"><ele>2308.0</ele><time>2026-04-03T13:25:04.844Z</time></trkpt><trkpt lat="44.9973178" lon="6.8677161"><ele>2308.0</ele><time>2026-04-03T13:25:07.849Z</time></trkpt><trkpt lat="44.9972467" lon="6.8677153"><ele>2308.0</ele><time>2026-04-03T13:25:09.862Z</time></trkpt><trkpt lat="44.9971773" lon="6.8677134"><ele>2308.0</ele><time>2026-04-03T13:25:11.855Z</time></trkpt><trkpt lat="44.9971093" lon="6.8677108"><ele>2311.4285714285716</ele><time>2026-04-03T13:25:13.857Z</time></trkpt><trkpt lat="44.9970376" lon="6.8677067"><ele>2314.857142857143</ele><time>2026-04-03T13:25:15.862Z</time></trkpt><trkpt lat="44.9969714" lon="6.8677023"><ele>2318.2857142857147</ele><time>2026-04-03T13:25:17.852Z</time></trkpt><trkpt lat="44.9969023" lon="6.8676981"><ele>2321.714285714286</ele><time>2026-04-03T13:25:19.852Z</time></trkpt><trkpt lat="44.9968303" lon="6.8676944"><ele>2325.1428571428573</ele><time>2026-04-03T13:25:21.851Z</time></trkpt><trkpt lat="44.9967654" lon="6.8676916"><ele>2328.571428571429</ele><time>2026-04-03T13:25:23.848Z</time></trkpt><trkpt lat="44.9966996" lon="6.8676889"><ele>2332.0</ele><time>2026-04-03T13:25:25.86Z</time></trkpt><trkpt lat="44.9966294" lon="6.867685"><ele>2335.857142857143</ele><time>2026-04-03T13:25:27.847Z</time></trkpt><trkpt lat="44.9965655" lon="6.8676803"><ele>2339.714285714286</ele><time>2026-04-03T13:25:29.857Z</time></trkpt><trkpt lat="44.9965021" lon="6.8676722"><ele>2343.5714285714284</ele><time>2026-04-03T13:25:31.862Z</time></trkpt><trkpt lat="44.9964307" lon="6.8676691"><ele>2347.4285714285716</ele><time>2026-04-03T13:25:33.855Z</time></trkpt><trkpt lat="44.9963385" lon="6.8676642"><ele>2351.285714285714</ele><time>2026-04-03T13:25:36.866Z</time></trkpt><trkpt lat="44.9962694" lon="6.86766"><ele>2355.1428571428573</ele><time>2026-04-03T13:25:38.856Z</time></trkpt><trkpt lat="44.9962045" lon="6.8676507"><ele>2359.0</ele><time>2026-04-03T13:25:40.846Z</time></trkpt><trkpt lat="44.996113" lon="6.8676405"><ele>2359.0</ele><time>2026-04-03T13:25:43.847Z</time></trkpt><trkpt lat="44.9960443" lon="6.8676387"><ele>2359.0</ele><time>2026-04-03T13:25:45.864Z</time></trkpt><trkpt lat="44.9959515" lon="6.8676345"><ele>2359.0</ele><time>2026-04-03T13:25:48.85Z</time></trkpt><trkpt lat="44.9958863" lon="6.8676326"><ele>2359.0</ele><time>2026-04-03T13:25:50.846Z</time></trkpt><trkpt lat="44.995793" lon="6.8676277"><ele>2359.0</ele><time>2026-04-03T13:25:53.861Z</time></trkpt><trkpt lat="44.9957224" lon="6.8676252"><ele>2359.0</ele><time>2026-04-03T13:25:55.85Z</time></trkpt><trkpt lat="44.9956577" lon="6.8676215"><ele>2363.714285714286</ele><time>2026-04-03T13:25:57.863Z</time></trkpt><trkpt lat="44.9955867" lon="6.8676144"><ele>2368.4285714285716</ele><time>2026-04-03T13:25:59.845Z</time></trkpt><trkpt lat="44.9955151" lon="6.86761"><ele>2373.142857142857</ele><time>2026-04-03T13:26:01.855Z</time></trkpt><trkpt lat="44.9954426" lon="6.8676082"><ele>2377.857142857143</ele><time>2026-04-03T13:26:03.867Z</time></trkpt><trkpt lat="44.9953624" lon="6.8676026"><ele>2382.5714285714284</ele><time>2026-04-03T13:26:06.861Z</time></trkpt><trkpt lat="44.9952941" lon="6.8676138"><ele>2387.285714285714</ele><time>2026-04-03T13:26:11.864Z</time></trkpt><trkpt lat="44.9952287" lon="6.8676503"><ele>2392.0</ele><time>2026-04-03T13:26:13.854Z</time></trkpt><trkpt lat="44.9951615" lon="6.8676341"><ele>2392.142857142857</ele><time>2026-04-03T13:26:17.851Z</time></trkpt><trkpt lat="44.9951743" lon="6.8675373"><ele>2392.285714285714</ele><time>2026-04-03T13:26:23.851Z</time></trkpt><trkpt lat="44.9952063" lon="6.8674444"><ele>2392.4285714285716</ele><time>2026-04-03T13:26:29.86Z</time></trkpt><trkpt lat="44.9952623" lon="6.8673764"><ele>2392.5714285714284</ele><time>2026-04-03T13:26:33.853Z</time></trkpt><trkpt lat="44.9953342" lon="6.8673661"><ele>2392.714285714286</ele><time>2026-04-03T13:26:36.865Z</time></trkpt><trkpt lat="44.9954073" lon="6.8673716"><ele>2392.8571428571427</ele><time>2026-04-03T13:26:41.858Z</time></trkpt><trkpt lat="44.9954658" lon="6.8673328"><ele>2393.0</ele><time>2026-04-03T13:26:51.864Z</time></trkpt><trkpt lat="44.9955052" lon="6.8672234"><ele>2393.0</ele><time>2026-04-03T13:26:53.854Z</time></trkpt><trkpt lat="44.9955231" lon="6.8670998"><ele>2393.0</ele><time>2026-04-03T13:26:55.861Z</time></trkpt><trkpt lat="44.9956209" lon="6.8671069"><ele>2393.0</ele><time>2026-04-03T13:26:57.859Z</time></trkpt><trkpt lat="44.9956899" lon="6.8670789"><ele>2393.0</ele><time>2026-04-03T13:26:58.856Z</time></trkpt><trkpt lat="44.9957612" lon="6.8671366"><ele>2393.0</ele><time>2026-04-03T13:27:00.843Z</time></trkpt><trkpt lat="44.9958864" lon="6.8671702"><ele>2387.333333333333</ele><time>2026-04-03T13:27:02.86Z</time></trkpt><trkpt lat="44.9959179" lon="6.867307"><ele>2381.6666666666665</ele><time>2026-04-03T13:27:04.86Z</time></trkpt><trkpt lat="44.9960145" lon="6.8673343"><ele>2376.0</ele><time>2026-04-03T13:27:06.862Z</time></trkpt><trkpt lat="44.9960895" lon="6.8673885"><ele>2370.3333333333335</ele><time>2026-04-03T13:27:08.845Z</time></trkpt><trkpt lat="44.9960994" lon="6.8675054"><ele>2364.666666666667</ele><time>2026-04-03T13:27:09.865Z</time></trkpt><trkpt lat="44.9961158" lon="6.8676103"><ele>2359.0</ele><time>2026-04-03T13:27:10.861Z</time></trkpt><trkpt lat="44.9961467" lon="6.8676951"><ele>2359.0</ele><time>2026-04-03T13:27:13.855Z</time></trkpt><trkpt lat="44.9962255" lon="6.867749"><ele>2359.0</ele><time>2026-04-03T13:27:16.861Z</time></trkpt><trkpt lat="44.9962876" lon="6.8676921"><ele>2359.0</ele><time>2026-04-03T13:27:18.856Z</time></trkpt><trkpt lat="44.9963774" lon="6.8676818"><ele>2359.0</ele><time>2026-04-03T13:27:21.862Z</time></trkpt><trkpt lat="44.9964143" lon="6.8678105"><ele>2359.0</ele><time>2026-04-03T13:27:24.858Z</time></trkpt><trkpt lat="44.9964258" lon="6.8679001"><ele>2359.0</ele><time>2026-04-03T13:27:25.849Z</time></trkpt><trkpt lat="44.9964431" lon="6.8680362"><ele>2359.0</ele><time>2026-04-03T13:27:27.854Z</time></trkpt><trkpt lat="44.996522" lon="6.868098"><ele>2359.0</ele><time>2026-04-03T13:27:45.847Z</time></trkpt><trkpt lat="44.9966452" lon="6.8680876"><ele>2359.0</ele><time>2026-04-03T13:27:47.848Z</time></trkpt><trkpt lat="44.99671" lon="6.8680731"><ele>2359.0</ele><time>2026-04-03T13:27:48.853Z</time></trkpt><trkpt lat="44.9967824" lon="6.8680373"><ele>2359.0</ele><time>2026-04-03T13:27:49.848Z</time></trkpt><trkpt lat="44.9968639" lon="6.8679923"><ele>2359.0</ele><time>2026-04-03T13:27:50.857Z</time></trkpt><trkpt lat="44.9968552" lon="6.8678474"><ele>2353.6</ele><time>2026-04-03T13:27:51.854Z</time></trkpt><trkpt lat="44.99693" lon="6.8677082"><ele>2348.2</ele><time>2026-04-03T13:27:52.851Z</time></trkpt><trkpt lat="44.99694" lon="6.8675998"><ele>2342.7999999999997</ele><time>2026-04-03T13:27:53.858Z</time></trkpt><trkpt lat="44.9969496" lon="6.8674479"><ele>2337.4</ele><time>2026-04-03T13:27:54.85Z</time></trkpt><trkpt lat="44.9970339" lon="6.8673765"><ele>2332.0</ele><time>2026-04-03T13:27:55.861Z</time></trkpt><trkpt lat="44.9970836" lon="6.8672461"><ele>2330.0</ele><time>2026-04-03T13:27:56.854Z</time></trkpt><trkpt lat="44.9971075" lon="6.8670158"><ele>2328.0</ele><time>2026-04-03T13:27:57.846Z</time></trkpt><trkpt lat="44.9971464" lon="6.866887"><ele>2326.0</ele><time>2026-04-03T13:27:58.855Z</time></trkpt><trkpt lat="44.9971821" lon="6.8667322"><ele>2324.0</ele><time>2026-04-03T13:27:59.86Z</time></trkpt><trkpt lat="44.9972524" lon="6.8666181"><ele>2321.5</ele><time>2026-04-03T13:28:00.859Z</time></trkpt><trkpt lat="44.9974029" lon="6.866626"><ele>2319.0</ele><time>2026-04-03T13:28:01.851Z</time></trkpt><trkpt lat="44.9974999" lon="6.8666015"><ele>2316.5</ele><time>2026-04-03T13:28:02.857Z</time></trkpt><trkpt lat="44.9975932" lon="6.8664717"><ele>2314.0</ele><time>2026-04-03T13:28:03.853Z</time></trkpt><trkpt lat="44.9976859" lon="6.8663372"><ele>2309.5</ele><time>2026-04-03T13:28:04.847Z</time></trkpt><trkpt lat="44.9977711" lon="6.8662036"><ele>2305.0</ele><time>2026-04-03T13:28:05.849Z</time></trkpt><trkpt lat="44.9978474" lon="6.8660185"><ele>2300.5</ele><time>2026-04-03T13:28:06.85Z</time></trkpt><trkpt lat="44.9979778" lon="6.8659291"><ele>2296.0</ele><time>2026-04-03T13:28:07.847Z</time></trkpt><trkpt lat="44.9981194" lon="6.8660856"><ele>2296.0</ele><time>2026-04-03T13:28:08.865Z</time></trkpt><trkpt lat="44.9982148" lon="6.8660188"><ele>2296.0</ele><time>2026-04-03T13:28:09.862Z</time></trkpt><trkpt lat="44.998351" lon="6.8659567"><ele>2296.0</ele><time>2026-04-03T13:28:10.851Z</time></trkpt><trkpt lat="44.9984792" lon="6.8658795"><ele>2296.0</ele><time>2026-04-03T13:28:11.849Z</time></trkpt><trkpt lat="44.9986224" lon="6.8657842"><ele>2293.25</ele><time>2026-04-03T13:28:12.854Z</time></trkpt><trkpt lat="44.9987597" lon="6.865661"><ele>2290.5</ele><time>2026-04-03T13:28:13.854Z</time></trkpt><trkpt lat="44.9988517" lon="6.8655642"><ele>2287.75</ele><time>2026-04-03T13:28:14.851Z</time></trkpt><trkpt lat="44.998943" lon="6.8654723"><ele>2285.0</ele><time>2026-04-03T13:28:15.862Z</time></trkpt><trkpt lat="44.9989773" lon="6.8652996"><ele>2285.0</ele><time>2026-04-03T13:28:16.856Z</time></trkpt><trkpt lat="44.9990815" lon="6.8652139"><ele>2285.0</ele><time>2026-04-03T13:28:17.86Z</time></trkpt><trkpt lat="44.9991632" lon="6.8650736"><ele>2285.0</ele><time>2026-04-03T13:28:18.846Z</time></trkpt><trkpt lat="44.9992518" lon="6.8649155"><ele>2285.0</ele><time>2026-04-03T13:28:19.854Z</time></trkpt><trkpt lat="44.999279" lon="6.8647454"><ele>2277.25</ele><time>2026-04-03T13:28:20.86Z</time></trkpt><trkpt lat="44.9993392" lon="6.8645792"><ele>2269.5</ele><time>2026-04-03T13:28:21.861Z</time></trkpt><trkpt lat="44.9994025" lon="6.8644387"><ele>2261.75</ele><time>2026-04-03T13:28:22.853Z</time></trkpt><trkpt lat="44.9994421" lon="6.8642494"><ele>2254.0</ele><time>2026-04-03T13:28:23.855Z</time></trkpt><trkpt lat="44.9994299" lon="6.8645118"><ele>2254.0</ele><time>2026-04-03T13:28:25.857Z</time></trkpt><trkpt lat="44.9995433" lon="6.8645324"><ele>2254.0</ele><time>2026-04-03T13:28:35.859Z</time></trkpt><trkpt lat="44.9996748" lon="6.8644446"><ele>2254.0</ele><time>2026-04-03T13:28:37.856Z</time></trkpt><trkpt lat="44.9997951" lon="6.8643794"><ele>2254.0</ele><time>2026-04-03T13:28:38.852Z</time></trkpt><trkpt lat="44.9999168" lon="6.8643852"><ele>2254.0</ele><time>2026-04-03T13:28:39.856Z</time></trkpt><trkpt lat="45.0000305" lon="6.8643756"><ele>2254.0</ele><time>2026-04-03T13:28:40.854Z</time></trkpt><trkpt lat="45.000133" lon="6.8642953"><ele>2254.0</ele><time>2026-04-03T13:28:41.848Z</time></trkpt><trkpt lat="45.0002455" lon="6.8642264"><ele>2254.0</ele><time>2026-04-03T13:28:42.859Z</time></trkpt><trkpt lat="45.0003475" lon="6.8641447"><ele>2250.666666666667</ele><time>2026-04-03T13:28:43.846Z</time></trkpt><trkpt lat="45.0004964" lon="6.8639473"><ele>2247.3333333333335</ele><time>2026-04-03T13:28:44.859Z</time></trkpt><trkpt lat="45.0006107" lon="6.8638642"><ele>2244.0</ele><time>2026-04-03T13:28:45.866Z</time></trkpt><trkpt lat="45.0007508" lon="6.8640111"><ele>2241.0</ele><time>2026-04-03T13:28:46.859Z</time></trkpt><trkpt lat="45.0008745" lon="6.8639656"><ele>2238.0</ele><time>2026-04-03T13:28:47.852Z</time></trkpt><trkpt lat="45.0009646" lon="6.8639036"><ele>2235.0</ele><time>2026-04-03T13:28:48.858Z</time></trkpt><trkpt lat="45.0010926" lon="6.8638657"><ele>2232.0</ele><time>2026-04-03T13:28:49.855Z</time></trkpt><trkpt lat="45.0012103" lon="6.8638585"><ele>2232.0</ele><time>2026-04-03T13:28:50.855Z</time></trkpt><trkpt lat="45.0012474" lon="6.8639664"><ele>2232.0</ele><time>2026-04-03T13:28:51.856Z</time></trkpt><trkpt lat="45.0013964" lon="6.8639803"><ele>2232.0</ele><time>2026-04-03T13:28:53.852Z</time></trkpt><trkpt lat="45.0014805" lon="6.8640913"><ele>2232.0</ele><time>2026-04-03T13:28:54.861Z</time></trkpt><trkpt lat="45.0015754" lon="6.8641427"><ele>2229.2</ele><time>2026-04-03T13:28:55.857Z</time></trkpt><trkpt lat="45.0016665" lon="6.8641451"><ele>2226.3999999999996</ele><time>2026-04-03T13:28:56.853Z</time></trkpt><trkpt lat="45.0017735" lon="6.8641672"><ele>2223.6000000000004</ele><time>2026-04-03T13:28:57.852Z</time></trkpt><trkpt lat="45.0018714" lon="6.8642335"><ele>2220.8</ele><time>2026-04-03T13:28:58.857Z</time></trkpt><trkpt lat="45.0019841" lon="6.8642547"><ele>2218.0</ele><time>2026-04-03T13:28:59.858Z</time></trkpt><trkpt lat="45.0020857" lon="6.8642508"><ele>2218.0</ele><time>2026-04-03T13:29:00.855Z</time></trkpt><trkpt lat="45.0021969" lon="6.8642325"><ele>2218.0</ele><time>2026-04-03T13:29:01.847Z</time></trkpt><trkpt lat="45.0023461" lon="6.8641826"><ele>2218.0</ele><time>2026-04-03T13:29:02.856Z</time></trkpt><trkpt lat="45.002471" lon="6.8641897"><ele>2218.0</ele><time>2026-04-03T13:29:03.863Z</time></trkpt><trkpt lat="45.0025735" lon="6.8641657"><ele>2214.0</ele><time>2026-04-03T13:29:04.857Z</time></trkpt><trkpt lat="45.0026794" lon="6.8641013"><ele>2210.0</ele><time>2026-04-03T13:29:05.851Z</time></trkpt><trkpt lat="45.0027993" lon="6.864044"><ele>2206.0</ele><time>2026-04-03T13:29:06.86Z</time></trkpt><trkpt lat="45.0028599" lon="6.8639809"><ele>2202.0</ele><time>2026-04-03T13:29:07.854Z</time></trkpt><trkpt lat="45.0029569" lon="6.8639254"><ele>2198.0</ele><time>2026-04-03T13:29:08.861Z</time></trkpt><trkpt lat="45.0031006" lon="6.8639164"><ele>2198.0</ele><time>2026-04-03T13:29:09.861Z</time></trkpt><trkpt lat="45.0031688" lon="6.8641032"><ele>2198.0</ele><time>2026-04-03T13:29:10.852Z</time></trkpt><trkpt lat="45.0033109" lon="6.8642129"><ele>2198.0</ele><time>2026-04-03T13:29:11.849Z</time></trkpt><trkpt lat="45.0034009" lon="6.8643055"><ele>2198.0</ele><time>2026-04-03T13:29:12.848Z</time></trkpt><trkpt lat="45.0034773" lon="6.8644007"><ele>2196.0</ele><time>2026-04-03T13:29:13.866Z</time></trkpt><trkpt lat="45.0035431" lon="6.8645197"><ele>2194.0</ele><time>2026-04-03T13:29:14.863Z</time></trkpt><trkpt lat="45.0036502" lon="6.8645927"><ele>2192.0</ele><time>2026-04-03T13:29:15.86Z</time></trkpt><trkpt lat="45.0037481" lon="6.864692"><ele>2190.0</ele><time>2026-04-03T13:29:16.856Z</time></trkpt><trkpt lat="45.0038101" lon="6.8648188"><ele>2190.0</ele><time>2026-04-03T13:29:17.858Z</time></trkpt><trkpt lat="45.0038643" lon="6.8649743"><ele>2190.0</ele><time>2026-04-03T13:29:18.853Z</time></trkpt><trkpt lat="45.0038413" lon="6.8651789"><ele>2190.0</ele><time>2026-04-03T13:29:19.861Z</time></trkpt><trkpt lat="45.0038861" lon="6.8653474"><ele>2190.0</ele><time>2026-04-03T13:29:20.859Z</time></trkpt><trkpt lat="45.003921" lon="6.8655012"><ele>2190.2</ele><time>2026-04-03T13:29:21.864Z</time></trkpt><trkpt lat="45.0039576" lon="6.8656227"><ele>2190.4</ele><time>2026-04-03T13:29:22.848Z</time></trkpt><trkpt lat="45.0040019" lon="6.8657449"><ele>2190.6</ele><time>2026-04-03T13:29:23.852Z</time></trkpt><trkpt lat="45.0040504" lon="6.8658487"><ele>2190.8</ele><time>2026-04-03T13:29:24.849Z</time></trkpt><trkpt lat="45.0041135" lon="6.865948"><ele>2191.0</ele><time>2026-04-03T13:29:25.857Z</time></trkpt><trkpt lat="45.0041666" lon="6.866053"><ele>2186.4</ele><time>2026-04-03T13:29:26.855Z</time></trkpt><trkpt lat="45.0041886" lon="6.8661872"><ele>2181.8</ele><time>2026-04-03T13:29:27.858Z</time></trkpt><trkpt lat="45.004256" lon="6.8663128"><ele>2177.2000000000003</ele><time>2026-04-03T13:29:28.851Z</time></trkpt><trkpt lat="45.0043108" lon="6.8664269"><ele>2172.6</ele><time>2026-04-03T13:29:29.862Z</time></trkpt><trkpt lat="45.0043691" lon="6.8665546"><ele>2168.0</ele><time>2026-04-03T13:29:30.856Z</time></trkpt><trkpt lat="45.0044956" lon="6.8666474"><ele>2168.0</ele><time>2026-04-03T13:29:31.854Z</time></trkpt><trkpt lat="45.0045789" lon="6.8667703"><ele>2168.0</ele><time>2026-04-03T13:29:32.862Z</time></trkpt><trkpt lat="45.0046199" lon="6.8669196"><ele>2168.0</ele><time>2026-04-03T13:29:33.86Z</time></trkpt><trkpt lat="45.0046819" lon="6.8670559"><ele>2168.0</ele><time>2026-04-03T13:29:34.851Z</time></trkpt><trkpt lat="45.0047526" lon="6.8671813"><ele>2169.0</ele><time>2026-04-03T13:29:35.857Z</time></trkpt><trkpt lat="45.0048839" lon="6.8672106"><ele>2170.0</ele><time>2026-04-03T13:29:36.866Z</time></trkpt><trkpt lat="45.0049749" lon="6.8673067"><ele>2171.0</ele><time>2026-04-03T13:29:37.85Z</time></trkpt><trkpt lat="45.0050323" lon="6.8674696"><ele>2172.0</ele><time>2026-04-03T13:29:38.854Z</time></trkpt><trkpt lat="45.0051047" lon="6.8675862"><ele>2167.2</ele><time>2026-04-03T13:29:39.86Z</time></trkpt><trkpt lat="45.0051762" lon="6.8676998"><ele>2162.3999999999996</ele><time>2026-04-03T13:29:40.856Z</time></trkpt><trkpt lat="45.0052519" lon="6.8678014"><ele>2157.6000000000004</ele><time>2026-04-03T13:29:41.843Z</time></trkpt><trkpt lat="45.0053227" lon="6.8678929"><ele>2152.8</ele><time>2026-04-03T13:29:42.843Z</time></trkpt><trkpt lat="45.0053827" lon="6.8679754"><ele>2148.0</ele><time>2026-04-03T13:29:43.847Z</time></trkpt><trkpt lat="45.0054485" lon="6.8680519"><ele>2148.0</ele><time>2026-04-03T13:29:44.853Z</time></trkpt><trkpt lat="45.0055176" lon="6.8681103"><ele>2148.0</ele><time>2026-04-03T13:29:45.847Z</time></trkpt><trkpt lat="45.0055837" lon="6.8681476"><ele>2148.0</ele><time>2026-04-03T13:29:46.867Z</time></trkpt><trkpt lat="45.0056996" lon="6.8681622"><ele>2148.0</ele><time>2026-04-03T13:29:48.843Z</time></trkpt><trkpt lat="45.0058061" lon="6.8681499"><ele>2148.0</ele><time>2026-04-03T13:29:50.85Z</time></trkpt><trkpt lat="45.0059108" lon="6.86813"><ele>2147.0</ele><time>2026-04-03T13:29:52.849Z</time></trkpt><trkpt lat="45.0060159" lon="6.8680913"><ele>2146.0</ele><time>2026-04-03T13:29:54.844Z</time></trkpt><trkpt lat="45.0060841" lon="6.8680686"><ele>2145.0</ele><time>2026-04-03T13:29:55.846Z</time></trkpt><trkpt lat="45.0061577" lon="6.8680435"><ele>2144.0</ele><time>2026-04-03T13:29:56.847Z</time></trkpt><trkpt lat="45.0062305" lon="6.868017"><ele>2143.0</ele><time>2026-04-03T13:29:57.854Z</time></trkpt><trkpt lat="45.0063335" lon="6.8679863"><ele>2142.0</ele><time>2026-04-03T13:29:59.857Z</time></trkpt><trkpt lat="45.0064092" lon="6.8679587"><ele>2142.0</ele><time>2026-04-03T13:30:01.858Z</time></trkpt><trkpt lat="45.0064876" lon="6.8679475"><ele>2142.0</ele><time>2026-04-03T13:30:03.86Z</time></trkpt><trkpt lat="45.0065488" lon="6.867983"><ele>2142.0</ele><time>2026-04-03T13:30:05.856Z</time></trkpt><trkpt lat="45.0065729" lon="6.8680719"><ele>2142.0</ele><time>2026-04-03T13:30:11.86Z</time></trkpt><trkpt lat="45.0065627" lon="6.8681619"><ele>2142.0</ele><time>2026-04-03T13:30:23.865Z</time></trkpt><trkpt lat="45.0064964" lon="6.8681933"><ele>2142.0</ele><time>2026-04-03T13:30:40.842Z</time></trkpt><trkpt lat="45.0064202" lon="6.8682261"><ele>2142.0</ele><time>2026-04-03T13:30:50.856Z</time></trkpt><trkpt lat="45.0063435" lon="6.8682211"><ele>2142.0</ele><time>2026-04-03T13:30:52.846Z</time></trkpt><trkpt lat="45.0062596" lon="6.8682096"><ele>2142.0</ele><time>2026-04-03T13:30:54.859Z</time></trkpt><trkpt lat="45.0061858" lon="6.8681956"><ele>2142.0</ele><time>2026-04-03T13:30:56.859Z</time></trkpt><trkpt lat="45.006115" lon="6.8681928"><ele>2142.0</ele><time>2026-04-03T13:30:58.844Z</time></trkpt><trkpt lat="45.0060435" lon="6.8681858"><ele>2142.0</ele><time>2026-04-03T13:31:00.858Z</time></trkpt><trkpt lat="45.0059656" lon="6.8681789"><ele>2142.0</ele><time>2026-04-03T13:31:02.854Z</time></trkpt><trkpt lat="45.0058934" lon="6.8681799"><ele>2142.8571428571427</ele><time>2026-04-03T13:31:04.852Z</time></trkpt><trkpt lat="45.0058219" lon="6.8681716"><ele>2143.714285714286</ele><time>2026-04-03T13:31:06.85Z</time></trkpt><trkpt lat="45.0057464" lon="6.8681619"><ele>2144.5714285714284</ele><time>2026-04-03T13:31:08.848Z</time></trkpt><trkpt lat="45.005678" lon="6.8681565"><ele>2145.4285714285716</ele><time>2026-04-03T13:31:10.856Z</time></trkpt><trkpt lat="45.0056089" lon="6.8681535"><ele>2146.285714285714</ele><time>2026-04-03T13:31:12.85Z</time></trkpt><trkpt lat="45.0055355" lon="6.8681489"><ele>2147.142857142857</ele><time>2026-04-03T13:31:14.862Z</time></trkpt><trkpt lat="45.0054671" lon="6.8681483"><ele>2148.0</ele><time>2026-04-03T13:31:16.854Z</time></trkpt><trkpt lat="45.0054004" lon="6.868147"><ele>2147.9999999999995</ele><time>2026-04-03T13:31:18.858Z</time></trkpt><trkpt lat="45.005324" lon="6.8681451"><ele>2148.0</ele><time>2026-04-03T13:31:20.842Z</time></trkpt><trkpt lat="45.0052539" lon="6.8681422"><ele>2148.0</ele><time>2026-04-03T13:31:22.86Z</time></trkpt><trkpt lat="45.005181" lon="6.8681385"><ele>2148.0</ele><time>2026-04-03T13:31:24.859Z</time></trkpt><trkpt lat="45.0051027" lon="6.8681385"><ele>2148.0</ele><time>2026-04-03T13:31:26.851Z</time></trkpt><trkpt lat="45.0050309" lon="6.8681352"><ele>2147.9999999999995</ele><time>2026-04-03T13:31:28.852Z</time></trkpt><trkpt lat="45.0049598" lon="6.8681319"><ele>2148.0</ele><time>2026-04-03T13:31:30.843Z</time></trkpt><trkpt lat="45.0048831" lon="6.8681259"><ele>2152.285714285714</ele><time>2026-04-03T13:31:32.859Z</time></trkpt><trkpt lat="45.0048146" lon="6.8681224"><ele>2156.5714285714284</ele><time>2026-04-03T13:31:34.854Z</time></trkpt><trkpt lat="45.0047438" lon="6.8681186"><ele>2160.857142857143</ele><time>2026-04-03T13:31:36.861Z</time></trkpt><trkpt lat="45.0046682" lon="6.8681146"><ele>2165.142857142857</ele><time>2026-04-03T13:31:38.854Z</time></trkpt><trkpt lat="45.0045987" lon="6.8681095"><ele>2169.4285714285716</ele><time>2026-04-03T13:31:40.849Z</time></trkpt><trkpt lat="45.0045299" lon="6.8681048"><ele>2173.714285714286</ele><time>2026-04-03T13:31:42.854Z</time></trkpt><trkpt lat="45.0044589" lon="6.8681031"><ele>2178.0</ele><time>2026-04-03T13:31:44.859Z</time></trkpt><trkpt lat="45.0043931" lon="6.8681019"><ele>2178.0000000000005</ele><time>2026-04-03T13:31:46.85Z</time></trkpt><trkpt lat="45.0043242" lon="6.8681027"><ele>2178.0</ele><time>2026-04-03T13:31:48.853Z</time></trkpt><trkpt lat="45.0042582" lon="6.8681"><ele>2178.0</ele><time>2026-04-03T13:31:50.854Z</time></trkpt><trkpt lat="45.0041637" lon="6.8680986"><ele>2178.0</ele><time>2026-04-03T13:31:53.847Z</time></trkpt><trkpt lat="45.0040995" lon="6.8680943"><ele>2178.0</ele><time>2026-04-03T13:31:55.852Z</time></trkpt><trkpt lat="45.0040304" lon="6.8680884"><ele>2178.0000000000005</ele><time>2026-04-03T13:31:57.864Z</time></trkpt><trkpt lat="45.0039604" lon="6.868085"><ele>2178.0</ele><time>2026-04-03T13:31:59.85Z</time></trkpt><trkpt lat="45.0038887" lon="6.8680813"><ele>2182.714285714286</ele><time>2026-04-03T13:32:01.847Z</time></trkpt><trkpt lat="45.0038187" lon="6.8680777"><ele>2187.4285714285716</ele><time>2026-04-03T13:32:03.855Z</time></trkpt><trkpt lat="45.0037514" lon="6.868075"><ele>2192.142857142857</ele><time>2026-04-03T13:32:05.865Z</time></trkpt><trkpt lat="45.0036842" lon="6.8680708"><ele>2196.857142857143</ele><time>2026-04-03T13:32:07.846Z</time></trkpt><trkpt lat="45.0036167" lon="6.8680659"><ele>2201.5714285714284</ele><time>2026-04-03T13:32:09.847Z</time></trkpt><trkpt lat="45.0035222" lon="6.8680578"><ele>2206.285714285714</ele><time>2026-04-03T13:32:12.859Z</time></trkpt><trkpt lat="45.0034563" lon="6.8680541"><ele>2211.0</ele><time>2026-04-03T13:32:14.848Z</time></trkpt><trkpt lat="45.0033923" lon="6.8680498"><ele>2215.9999999999995</ele><time>2026-04-03T13:32:16.86Z</time></trkpt><trkpt lat="45.0033274" lon="6.8680461"><ele>2221.0</ele><time>2026-04-03T13:32:18.859Z</time></trkpt><trkpt lat="45.0032609" lon="6.8680426"><ele>2226.0</ele><time>2026-04-03T13:32:20.86Z</time></trkpt><trkpt lat="45.0031953" lon="6.8680397"><ele>2231.0</ele><time>2026-04-03T13:32:22.855Z</time></trkpt><trkpt lat="45.0031302" lon="6.8680364"><ele>2236.0</ele><time>2026-04-03T13:32:24.861Z</time></trkpt><trkpt lat="45.0030591" lon="6.8680347"><ele>2240.9999999999995</ele><time>2026-04-03T13:32:26.859Z</time></trkpt><trkpt lat="45.0029938" lon="6.8680311"><ele>2246.0</ele><time>2026-04-03T13:32:28.854Z</time></trkpt><trkpt lat="45.0029279" lon="6.868027"><ele>2245.9999999999995</ele><time>2026-04-03T13:32:30.851Z</time></trkpt><trkpt lat="45.0028584" lon="6.8680234"><ele>2246.0</ele><time>2026-04-03T13:32:32.864Z</time></trkpt><trkpt lat="45.002792" lon="6.8680217"><ele>2246.0</ele><time>2026-04-03T13:32:34.857Z</time></trkpt><trkpt lat="45.0027245" lon="6.8680211"><ele>2246.0</ele><time>2026-04-03T13:32:36.864Z</time></trkpt><trkpt lat="45.0026555" lon="6.8680192"><ele>2246.0</ele><time>2026-04-03T13:32:38.845Z</time></trkpt><trkpt lat="45.0025905" lon="6.8680135"><ele>2245.9999999999995</ele><time>2026-04-03T13:32:40.861Z</time></trkpt><trkpt lat="45.0025251" lon="6.8680035"><ele>2246.0</ele><time>2026-04-03T13:32:42.858Z</time></trkpt><trkpt lat="45.0024565" lon="6.8680041"><ele>2249.428571428571</ele><time>2026-04-03T13:32:44.853Z</time></trkpt><trkpt lat="45.0023878" lon="6.8680072"><ele>2252.8571428571427</ele><time>2026-04-03T13:32:46.853Z</time></trkpt><trkpt lat="45.002322" lon="6.8680043"><ele>2256.285714285714</ele><time>2026-04-03T13:32:48.855Z</time></trkpt><trkpt lat="45.0022243" lon="6.8679949"><ele>2259.7142857142853</ele><time>2026-04-03T13:32:51.851Z</time></trkpt><trkpt lat="45.0021553" lon="6.8679917"><ele>2263.142857142857</ele><time>2026-04-03T13:32:53.85Z</time></trkpt><trkpt lat="45.0020863" lon="6.8679891"><ele>2266.5714285714284</ele><time>2026-04-03T13:32:55.857Z</time></trkpt><trkpt lat="45.0020186" lon="6.8679857"><ele>2270.0</ele><time>2026-04-03T13:32:57.867Z</time></trkpt><trkpt lat="45.001951" lon="6.8679816"><ele>2270.0</ele><time>2026-04-03T13:32:59.864Z</time></trkpt><trkpt lat="45.0018853" lon="6.8679774"><ele>2270.0</ele><time>2026-04-03T13:33:01.841Z</time></trkpt><trkpt lat="45.0018153" lon="6.8679731"><ele>2270.0</ele><time>2026-04-03T13:33:03.866Z</time></trkpt><trkpt lat="45.0017485" lon="6.8679684"><ele>2270.0</ele><time>2026-04-03T13:33:05.856Z</time></trkpt><trkpt lat="45.0016793" lon="6.8679648"><ele>2270.0</ele><time>2026-04-03T13:33:07.845Z</time></trkpt><trkpt lat="45.0016102" lon="6.8679618"><ele>2270.0</ele><time>2026-04-03T13:33:09.854Z</time></trkpt><trkpt lat="45.0015432" lon="6.8679593"><ele>2270.0</ele><time>2026-04-03T13:33:11.848Z</time></trkpt><trkpt lat="45.0014716" lon="6.8679557"><ele>2272.714285714286</ele><time>2026-04-03T13:33:13.856Z</time></trkpt><trkpt lat="45.0014007" lon="6.8679515"><ele>2275.4285714285716</ele><time>2026-04-03T13:33:15.852Z</time></trkpt><trkpt lat="45.0013327" lon="6.8679468"><ele>2278.142857142857</ele><time>2026-04-03T13:33:17.854Z</time></trkpt><trkpt lat="45.0012623" lon="6.8679417"><ele>2280.857142857143</ele><time>2026-04-03T13:33:19.85Z</time></trkpt><trkpt lat="45.0011904" lon="6.8679362"><ele>2283.5714285714284</ele><time>2026-04-03T13:33:21.857Z</time></trkpt><trkpt lat="45.0011208" lon="6.8679315"><ele>2286.285714285714</ele><time>2026-04-03T13:33:23.857Z</time></trkpt><trkpt lat="45.0010513" lon="6.8679274"><ele>2289.0</ele><time>2026-04-03T13:33:25.851Z</time></trkpt><trkpt lat="45.0009814" lon="6.8679235"><ele>2289.0</ele><time>2026-04-03T13:33:27.862Z</time></trkpt><trkpt lat="45.0009148" lon="6.8679195"><ele>2289.0</ele><time>2026-04-03T13:33:29.85Z</time></trkpt><trkpt lat="45.0008433" lon="6.8679173"><ele>2289.0</ele><time>2026-04-03T13:33:31.849Z</time></trkpt><trkpt lat="45.0007716" lon="6.8679142"><ele>2289.0</ele><time>2026-04-03T13:33:33.845Z</time></trkpt><trkpt lat="45.0006992" lon="6.8679108"><ele>2289.0</ele><time>2026-04-03T13:33:35.856Z</time></trkpt><trkpt lat="45.0006289" lon="6.867907"><ele>2289.0</ele><time>2026-04-03T13:33:37.861Z</time></trkpt><trkpt lat="45.0005571" lon="6.8679032"><ele>2289.0</ele><time>2026-04-03T13:33:39.852Z</time></trkpt><trkpt lat="45.0004886" lon="6.8678983"><ele>2289.8571428571427</ele><time>2026-04-03T13:33:41.859Z</time></trkpt><trkpt lat="45.0004184" lon="6.8678937"><ele>2290.714285714286</ele><time>2026-04-03T13:33:43.855Z</time></trkpt><trkpt lat="45.0003456" lon="6.8678891"><ele>2291.5714285714284</ele><time>2026-04-03T13:33:45.859Z</time></trkpt><trkpt lat="45.0002771" lon="6.8678855"><ele>2292.4285714285716</ele><time>2026-04-03T13:33:47.855Z</time></trkpt><trkpt lat="45.0002066" lon="6.8678817"><ele>2293.285714285714</ele><time>2026-04-03T13:33:49.847Z</time></trkpt><trkpt lat="45.0001348" lon="6.8678774"><ele>2294.142857142857</ele><time>2026-04-03T13:33:51.849Z</time></trkpt><trkpt lat="45.0000676" lon="6.8678716"><ele>2295.0</ele><time>2026-04-03T13:33:53.855Z</time></trkpt><trkpt lat="44.999998" lon="6.8678661"><ele>2294.9999999999995</ele><time>2026-04-03T13:33:55.853Z</time></trkpt><trkpt lat="44.9999255" lon="6.8678609"><ele>2295.0</ele><time>2026-04-03T13:33:57.849Z</time></trkpt><trkpt lat="44.999854" lon="6.8678547"><ele>2295.0</ele><time>2026-04-03T13:33:59.853Z</time></trkpt><trkpt lat="44.999782" lon="6.8678497"><ele>2295.0</ele><time>2026-04-03T13:34:01.857Z</time></trkpt><trkpt lat="44.9997082" lon="6.8678448"><ele>2295.0</ele><time>2026-04-03T13:34:03.846Z</time></trkpt><trkpt lat="44.9996389" lon="6.8678404"><ele>2294.9999999999995</ele><time>2026-04-03T13:34:05.853Z</time></trkpt><trkpt lat="44.999569" lon="6.8678364"><ele>2295.0</ele><time>2026-04-03T13:34:07.857Z</time></trkpt><trkpt lat="44.9994978" lon="6.8678326"><ele>2294.9999999999995</ele><time>2026-04-03T13:34:09.858Z</time></trkpt><trkpt lat="44.9994268" lon="6.8678283"><ele>2295.0</ele><time>2026-04-03T13:34:11.852Z</time></trkpt><trkpt lat="44.9993572" lon="6.8678242"><ele>2295.0</ele><time>2026-04-03T13:34:13.866Z</time></trkpt><trkpt lat="44.9992862" lon="6.86782"><ele>2295.0</ele><time>2026-04-03T13:34:15.855Z</time></trkpt><trkpt lat="44.9992167" lon="6.8678162"><ele>2295.0</ele><time>2026-04-03T13:34:17.854Z</time></trkpt><trkpt lat="44.9991478" lon="6.8678117"><ele>2294.9999999999995</ele><time>2026-04-03T13:34:19.864Z</time></trkpt><trkpt lat="44.9990766" lon="6.8678069"><ele>2295.0</ele><time>2026-04-03T13:34:21.851Z</time></trkpt><trkpt lat="44.9990056" lon="6.8678018"><ele>2295.8571428571427</ele><time>2026-04-03T13:34:23.861Z</time></trkpt><trkpt lat="44.9989343" lon="6.8678077"><ele>2296.714285714286</ele><time>2026-04-03T13:34:25.848Z</time></trkpt><trkpt lat="44.9988593" lon="6.8678078"><ele>2297.5714285714284</ele><time>2026-04-03T13:34:27.853Z</time></trkpt><trkpt lat="44.9987895" lon="6.8678062"><ele>2298.4285714285716</ele><time>2026-04-03T13:34:29.846Z</time></trkpt><trkpt lat="44.998719" lon="6.8678029"><ele>2299.285714285714</ele><time>2026-04-03T13:34:31.856Z</time></trkpt><trkpt lat="44.9986468" lon="6.8677991"><ele>2300.142857142857</ele><time>2026-04-03T13:34:33.854Z</time></trkpt><trkpt lat="44.9985757" lon="6.8677942"><ele>2301.0</ele><time>2026-04-03T13:34:35.845Z</time></trkpt><trkpt lat="44.9985039" lon="6.8677903"><ele>2301.0</ele><time>2026-04-03T13:34:37.857Z</time></trkpt><trkpt lat="44.9984296" lon="6.867786"><ele>2301.0</ele><time>2026-04-03T13:34:39.861Z</time></trkpt><trkpt lat="44.9983598" lon="6.8677818"><ele>2301.0</ele><time>2026-04-03T13:34:41.857Z</time></trkpt><trkpt lat="44.9982896" lon="6.8677773"><ele>2301.0</ele><time>2026-04-03T13:34:43.852Z</time></trkpt><trkpt lat="44.9982172" lon="6.8677722"><ele>2301.0</ele><time>2026-04-03T13:34:45.858Z</time></trkpt><trkpt lat="44.9981471" lon="6.8677698"><ele>2301.0</ele><time>2026-04-03T13:34:47.853Z</time></trkpt><trkpt lat="44.9980745" lon="6.8677692"><ele>2301.0</ele><time>2026-04-03T13:34:49.841Z</time></trkpt><trkpt lat="44.998002" lon="6.8677651"><ele>2302.0</ele><time>2026-04-03T13:34:51.852Z</time></trkpt><trkpt lat="44.9979297" lon="6.8677598"><ele>2303.0</ele><time>2026-04-03T13:34:53.843Z</time></trkpt><trkpt lat="44.9978623" lon="6.8677571"><ele>2304.0</ele><time>2026-04-03T13:34:55.847Z</time></trkpt><trkpt lat="44.9977949" lon="6.8677534"><ele>2305.0</ele><time>2026-04-03T13:34:57.859Z</time></trkpt><trkpt lat="44.9977298" lon="6.8677494"><ele>2306.0</ele><time>2026-04-03T13:34:59.845Z</time></trkpt><trkpt lat="44.9976636" lon="6.8677475"><ele>2307.0</ele><time>2026-04-03T13:35:01.848Z</time></trkpt><trkpt lat="44.9975962" lon="6.8677435"><ele>2308.0</ele><time>2026-04-03T13:35:03.842Z</time></trkpt><trkpt lat="44.9975328" lon="6.8677411"><ele>2311.4285714285716</ele><time>2026-04-03T13:35:05.867Z</time></trkpt><trkpt lat="44.9974686" lon="6.867738"><ele>2314.857142857143</ele><time>2026-04-03T13:35:07.856Z</time></trkpt><trkpt lat="44.9974036" lon="6.867732"><ele>2318.2857142857147</ele><time>2026-04-03T13:35:09.851Z</time></trkpt><trkpt lat="44.9973096" lon="6.867727"><ele>2321.714285714286</ele><time>2026-04-03T13:35:12.858Z</time></trkpt><trkpt lat="44.9972375" lon="6.867722"><ele>2325.1428571428573</ele><time>2026-04-03T13:35:14.856Z</time></trkpt><trkpt lat="44.9971687" lon="6.8677164"><ele>2328.571428571429</ele><time>2026-04-03T13:35:16.855Z</time></trkpt><trkpt lat="44.9971011" lon="6.8677104"><ele>2332.0</ele><time>2026-04-03T13:35:18.848Z</time></trkpt><trkpt lat="44.9970321" lon="6.867708"><ele>2332.0</ele><time>2026-04-03T13:35:20.859Z</time></trkpt><trkpt lat="44.9969648" lon="6.8677064"><ele>2332.0</ele><time>2026-04-03T13:35:22.856Z</time></trkpt><trkpt lat="44.9968747" lon="6.8677043"><ele>2332.0</ele><time>2026-04-03T13:35:25.858Z</time></trkpt><trkpt lat="44.9967942" lon="6.8677007"><ele>2332.0</ele><time>2026-04-03T13:35:28.845Z</time></trkpt><trkpt lat="44.9967224" lon="6.867697"><ele>2332.0</ele><time>2026-04-03T13:35:30.846Z</time></trkpt><trkpt lat="44.9966265" lon="6.8676898"><ele>2332.0</ele><time>2026-04-03T13:35:33.854Z</time></trkpt><trkpt lat="44.9965573" lon="6.8676849"><ele>2336.5</ele><time>2026-04-03T13:35:35.854Z</time></trkpt><trkpt lat="44.996492" lon="6.8676799"><ele>2341.0</ele><time>2026-04-03T13:35:37.862Z</time></trkpt><trkpt lat="44.9964274" lon="6.8676763"><ele>2345.5</ele><time>2026-04-03T13:35:39.852Z</time></trkpt><trkpt lat="44.9963577" lon="6.8676729"><ele>2350.0</ele><time>2026-04-03T13:35:41.854Z</time></trkpt><trkpt lat="44.9962649" lon="6.8676692"><ele>2354.5</ele><time>2026-04-03T13:35:44.855Z</time></trkpt><trkpt lat="44.9961972" lon="6.8676658"><ele>2359.0</ele><time>2026-04-03T13:35:46.852Z</time></trkpt><trkpt lat="44.9961035" lon="6.8676587"><ele>2359.0</ele><time>2026-04-03T13:35:49.848Z</time></trkpt><trkpt lat="44.9960373" lon="6.8676541"><ele>2359.0</ele><time>2026-04-03T13:35:51.852Z</time></trkpt><trkpt lat="44.9959739" lon="6.8676508"><ele>2359.0</ele><time>2026-04-03T13:35:53.847Z</time></trkpt><trkpt lat="44.9959092" lon="6.8676435"><ele>2359.0</ele><time>2026-04-03T13:35:55.848Z</time></trkpt><trkpt lat="44.9958449" lon="6.8676359"><ele>2359.0</ele><time>2026-04-03T13:35:57.86Z</time></trkpt><trkpt lat="44.9957796" lon="6.8676389"><ele>2359.0</ele><time>2026-04-03T13:35:59.855Z</time></trkpt><trkpt lat="44.9957137" lon="6.8676539"><ele>2359.0</ele><time>2026-04-03T13:36:01.852Z</time></trkpt><trkpt lat="44.9956449" lon="6.8676427"><ele>2364.5</ele><time>2026-04-03T13:36:03.853Z</time></trkpt><trkpt lat="44.9955732" lon="6.8676297"><ele>2370.0</ele><time>2026-04-03T13:36:05.857Z</time></trkpt><trkpt lat="44.9955006" lon="6.8676249"><ele>2375.5</ele><time>2026-04-03T13:36:07.858Z</time></trkpt><trkpt lat="44.9954314" lon="6.8676205"><ele>2381.0</ele><time>2026-04-03T13:36:09.85Z</time></trkpt><trkpt lat="44.9953659" lon="6.8676285"><ele>2386.5</ele><time>2026-04-03T13:36:12.855Z</time></trkpt><trkpt lat="44.9952779" lon="6.8676315"><ele>2392.0</ele><time>2026-04-03T13:36:17.851Z</time></trkpt><trkpt lat="44.9951933" lon="6.8676661"><ele>2392.0</ele><time>2026-04-03T13:36:19.862Z</time></trkpt><trkpt lat="44.9951092" lon="6.8676511"><ele>2392.0</ele><time>2026-04-03T13:36:21.861Z</time></trkpt><trkpt lat="44.9950273" lon="6.8676287"><ele>2392.0</ele><time>2026-04-03T13:36:23.851Z</time></trkpt><trkpt lat="44.9949506" lon="6.867622"><ele>2392.0</ele><time>2026-04-03T13:36:25.853Z</time></trkpt><trkpt lat="44.9948682" lon="6.8676256"><ele>2392.0</ele><time>2026-04-03T13:36:27.854Z</time></trkpt><trkpt lat="44.9947861" lon="6.8676438"><ele>2392.0</ele><time>2026-04-03T13:36:29.86Z</time></trkpt><trkpt lat="44.9947048" lon="6.8676851"><ele>2397.2</ele><time>2026-04-03T13:36:31.85Z</time></trkpt><trkpt lat="44.9946276" lon="6.8677267"><ele>2402.3999999999996</ele><time>2026-04-03T13:36:33.848Z</time></trkpt><trkpt lat="44.9945421" lon="6.8677535"><ele>2407.6000000000004</ele><time>2026-04-03T13:36:35.856Z</time></trkpt><trkpt lat="44.9944427" lon="6.8677542"><ele>2412.8</ele><time>2026-04-03T13:36:37.855Z</time></trkpt><trkpt lat="44.9943432" lon="6.8677289"><ele>2418.0</ele><time>2026-04-03T13:36:39.857Z</time></trkpt><trkpt lat="44.9942316" lon="6.8676642"><ele>2416.142857142857</ele><time>2026-04-03T13:36:41.851Z</time></trkpt><trkpt lat="44.9941217" lon="6.8676089"><ele>2414.2857142857147</ele><time>2026-04-03T13:36:43.861Z</time></trkpt><trkpt lat="44.9940596" lon="6.8675853"><ele>2412.4285714285716</ele><time>2026-04-03T13:36:44.846Z</time></trkpt><trkpt lat="44.9939963" lon="6.8675651"><ele>2410.5714285714284</ele><time>2026-04-03T13:36:45.845Z</time></trkpt><trkpt lat="44.9939337" lon="6.8675364"><ele>2408.7142857142853</ele><time>2026-04-03T13:36:46.861Z</time></trkpt><trkpt lat="44.993871" lon="6.8675095"><ele>2406.857142857143</ele><time>2026-04-03T13:36:47.86Z</time></trkpt><trkpt lat="44.993808" lon="6.8674835"><ele>2405.0</ele><time>2026-04-03T13:36:48.866Z</time></trkpt><trkpt lat="44.9936872" lon="6.8674586"><ele>2405.0</ele><time>2026-04-03T13:36:50.852Z</time></trkpt><trkpt lat="44.9935762" lon="6.8674552"><ele>2405.0</ele><time>2026-04-03T13:36:52.855Z</time></trkpt><trkpt lat="44.9934709" lon="6.8674672"><ele>2405.0</ele><time>2026-04-03T13:36:54.854Z</time></trkpt><trkpt lat="44.9933599" lon="6.8674922"><ele>2405.0</ele><time>2026-04-03T13:36:56.854Z</time></trkpt><trkpt lat="44.9932504" lon="6.8675087"><ele>2405.0</ele><time>2026-04-03T13:36:58.856Z</time></trkpt><trkpt lat="44.9931521" lon="6.8675155"><ele>2404.833333333333</ele><time>2026-04-03T13:37:00.861Z</time></trkpt><trkpt lat="44.9930646" lon="6.8675316"><ele>2404.6666666666665</ele><time>2026-04-03T13:37:02.854Z</time></trkpt><trkpt lat="44.9929828" lon="6.8675519"><ele>2404.5</ele><time>2026-04-03T13:37:04.856Z</time></trkpt><trkpt lat="44.9929077" lon="6.8675687"><ele>2404.3333333333335</ele><time>2026-04-03T13:37:06.861Z</time></trkpt><trkpt lat="44.992832" lon="6.8675899"><ele>2404.166666666667</ele><time>2026-04-03T13:37:08.862Z</time></trkpt><trkpt lat="44.9927673" lon="6.8676197"><ele>2404.0</ele><time>2026-04-03T13:37:10.861Z</time></trkpt><trkpt lat="44.9926764" lon="6.8676627"><ele>2405.2</ele><time>2026-04-03T13:37:13.856Z</time></trkpt><trkpt lat="44.9925839" lon="6.8676727"><ele>2406.4</ele><time>2026-04-03T13:37:15.845Z</time></trkpt><trkpt lat="44.992485" lon="6.8677066"><ele>2407.6</ele><time>2026-04-03T13:37:17.853Z</time></trkpt><trkpt lat="44.99239" lon="6.8677466"><ele>2408.8</ele><time>2026-04-03T13:37:19.86Z</time></trkpt><trkpt lat="44.9922782" lon="6.8678016"><ele>2410.0</ele><time>2026-04-03T13:37:21.86Z</time></trkpt><trkpt lat="44.9921597" lon="6.8678507"><ele>2410.0</ele><time>2026-04-03T13:37:23.86Z</time></trkpt><trkpt lat="44.9920958" lon="6.8678746"><ele>2410.0</ele><time>2026-04-03T13:37:24.856Z</time></trkpt><trkpt lat="44.99203" lon="6.867897"><ele>2410.0</ele><time>2026-04-03T13:37:25.856Z</time></trkpt><trkpt lat="44.9919629" lon="6.8679197"><ele>2410.0</ele><time>2026-04-03T13:37:26.858Z</time></trkpt><trkpt lat="44.9918942" lon="6.8679401"><ele>2410.0</ele><time>2026-04-03T13:37:27.854Z</time></trkpt><trkpt lat="44.9918248" lon="6.8679601"><ele>2410.0</ele><time>2026-04-03T13:37:28.863Z</time></trkpt><trkpt lat="44.9917241" lon="6.8679946"><ele>2410.0</ele><time>2026-04-03T13:37:30.859Z</time></trkpt><trkpt lat="44.9916555" lon="6.8680117"><ele>2408.666666666667</ele><time>2026-04-03T13:37:37.857Z</time></trkpt><trkpt lat="44.9915829" lon="6.8679451"><ele>2407.3333333333335</ele><time>2026-04-03T13:37:39.86Z</time></trkpt><trkpt lat="44.9915251" lon="6.867899"><ele>2406.0</ele><time>2026-04-03T13:37:40.847Z</time></trkpt><trkpt lat="44.991464" lon="6.8678312"><ele>2404.6666666666665</ele><time>2026-04-03T13:37:41.853Z</time></trkpt><trkpt lat="44.9913998" lon="6.8677563"><ele>2403.333333333333</ele><time>2026-04-03T13:37:42.858Z</time></trkpt><trkpt lat="44.9913269" lon="6.8676896"><ele>2402.0</ele><time>2026-04-03T13:37:43.856Z</time></trkpt><trkpt lat="44.9912493" lon="6.8676283"><ele>2398.7999999999997</ele><time>2026-04-03T13:37:44.857Z</time></trkpt><trkpt lat="44.991147" lon="6.8675748"><ele>2395.6</ele><time>2026-04-03T13:37:45.86Z</time></trkpt><trkpt lat="44.9910402" lon="6.867538"><ele>2392.3999999999996</ele><time>2026-04-03T13:37:46.859Z</time></trkpt><trkpt lat="44.9909502" lon="6.8674917"><ele>2389.2</ele><time>2026-04-03T13:37:47.861Z</time></trkpt><trkpt lat="44.9908641" lon="6.8674394"><ele>2386.0</ele><time>2026-04-03T13:37:48.851Z</time></trkpt><trkpt lat="44.9907773" lon="6.8673876"><ele>2385.166666666667</ele><time>2026-04-03T13:37:49.855Z</time></trkpt><trkpt lat="44.9906997" lon="6.8673388"><ele>2384.3333333333335</ele><time>2026-04-03T13:37:50.859Z</time></trkpt><trkpt lat="44.990617" lon="6.8672813"><ele>2383.5</ele><time>2026-04-03T13:37:51.854Z</time></trkpt><trkpt lat="44.9905331" lon="6.867219"><ele>2382.6666666666665</ele><time>2026-04-03T13:37:52.851Z</time></trkpt><trkpt lat="44.9904587" lon="6.8671556"><ele>2381.833333333333</ele><time>2026-04-03T13:37:53.849Z</time></trkpt><trkpt lat="44.9903847" lon="6.8670886"><ele>2381.0</ele><time>2026-04-03T13:37:54.861Z</time></trkpt><trkpt lat="44.9903132" lon="6.8670162"><ele>2381.0</ele><time>2026-04-03T13:37:55.848Z</time></trkpt><trkpt lat="44.9902539" lon="6.8669469"><ele>2381.0</ele><time>2026-04-03T13:37:56.857Z</time></trkpt><trkpt lat="44.9901666" lon="6.8668677"><ele>2381.0</ele><time>2026-04-03T13:37:58.86Z</time></trkpt><trkpt lat="44.9900923" lon="6.8667922"><ele>2381.0</ele><time>2026-04-03T13:38:00.859Z</time></trkpt><trkpt lat="44.9899955" lon="6.8666612"><ele>2381.0</ele><time>2026-04-03T13:38:02.854Z</time></trkpt><trkpt lat="44.9899418" lon="6.866585"><ele>2379.1666666666665</ele><time>2026-04-03T13:38:03.846Z</time></trkpt><trkpt lat="44.9898833" lon="6.8664831"><ele>2377.333333333333</ele><time>2026-04-03T13:38:04.848Z</time></trkpt><trkpt lat="44.9898276" lon="6.866394"><ele>2375.5</ele><time>2026-04-03T13:38:05.853Z</time></trkpt><trkpt lat="44.9897781" lon="6.8662926"><ele>2373.6666666666665</ele><time>2026-04-03T13:38:06.849Z</time></trkpt><trkpt lat="44.9897432" lon="6.866177"><ele>2371.8333333333335</ele><time>2026-04-03T13:38:07.858Z</time></trkpt><trkpt lat="44.9897251" lon="6.8660556"><ele>2370.0</ele><time>2026-04-03T13:38:08.866Z</time></trkpt><trkpt lat="44.9897081" lon="6.8659272"><ele>2366.0</ele><time>2026-04-03T13:38:09.85Z</time></trkpt><trkpt lat="44.9896777" lon="6.8657936"><ele>2362.0</ele><time>2026-04-03T13:38:10.854Z</time></trkpt><trkpt lat="44.9896386" lon="6.865667"><ele>2358.0</ele><time>2026-04-03T13:38:11.86Z</time></trkpt><trkpt lat="44.9895937" lon="6.8655483"><ele>2354.0</ele><time>2026-04-03T13:38:12.852Z</time></trkpt><trkpt lat="44.9895307" lon="6.8653091"><ele>2354.0</ele><time>2026-04-03T13:38:13.846Z</time></trkpt><trkpt lat="44.9894644" lon="6.8651447"><ele>2354.0</ele><time>2026-04-03T13:38:14.854Z</time></trkpt><trkpt lat="44.9894126" lon="6.8649677"><ele>2354.0</ele><time>2026-04-03T13:38:15.857Z</time></trkpt><trkpt lat="44.9893676" lon="6.8648154"><ele>2354.0</ele><time>2026-04-03T13:38:16.856Z</time></trkpt><trkpt lat="44.9892825" lon="6.864752"><ele>2352.0</ele><time>2026-04-03T13:38:17.853Z</time></trkpt><trkpt lat="44.9892004" lon="6.8646419"><ele>2350.0</ele><time>2026-04-03T13:38:18.856Z</time></trkpt><trkpt lat="44.9891328" lon="6.8645105"><ele>2348.0</ele><time>2026-04-03T13:38:19.843Z</time></trkpt><trkpt lat="44.9890766" lon="6.8644476"><ele>2346.0</ele><time>2026-04-03T13:38:20.854Z</time></trkpt><trkpt lat="44.9889941" lon="6.8643603"><ele>2344.0</ele><time>2026-04-03T13:38:21.85Z</time></trkpt><trkpt lat="44.9889297" lon="6.8642685"><ele>2341.25</ele><time>2026-04-03T13:38:22.851Z</time></trkpt><trkpt lat="44.9888886" lon="6.8641169"><ele>2338.5</ele><time>2026-04-03T13:38:23.845Z</time></trkpt><trkpt lat="44.9888591" lon="6.8639824"><ele>2335.75</ele><time>2026-04-03T13:38:24.843Z</time></trkpt><trkpt lat="44.9889691" lon="6.8638821"><ele>2333.0</ele><time>2026-04-03T13:38:25.859Z</time></trkpt><trkpt lat="44.9889683" lon="6.8637026"><ele>2333.0</ele><time>2026-04-03T13:38:26.852Z</time></trkpt><trkpt lat="44.9889681" lon="6.8635981"><ele>2333.0</ele><time>2026-04-03T13:38:27.865Z</time></trkpt><trkpt lat="44.9889806" lon="6.8634909"><ele>2333.0</ele><time>2026-04-03T13:38:28.853Z</time></trkpt><trkpt lat="44.9890313" lon="6.8633347"><ele>2333.0</ele><time>2026-04-03T13:38:29.848Z</time></trkpt><trkpt lat="44.9890648" lon="6.8631173"><ele>2333.0</ele><time>2026-04-03T13:38:30.855Z</time></trkpt><trkpt lat="44.989081" lon="6.8629913"><ele>2330.0</ele><time>2026-04-03T13:38:31.857Z</time></trkpt><trkpt lat="44.989098" lon="6.8628334"><ele>2327.0</ele><time>2026-04-03T13:38:32.85Z</time></trkpt><trkpt lat="44.9891066" lon="6.8626745"><ele>2324.0</ele><time>2026-04-03T13:38:33.848Z</time></trkpt><trkpt lat="44.9891934" lon="6.862598"><ele>2321.0</ele><time>2026-04-03T13:38:34.851Z</time></trkpt><trkpt lat="44.9892731" lon="6.8625369"><ele>2318.0</ele><time>2026-04-03T13:38:35.849Z</time></trkpt><trkpt lat="44.989354" lon="6.8624759"><ele>2314.6</ele><time>2026-04-03T13:38:36.851Z</time></trkpt><trkpt lat="44.9894583" lon="6.8625343"><ele>2311.2000000000003</ele><time>2026-04-03T13:38:37.858Z</time></trkpt><trkpt lat="44.9895649" lon="6.8625899"><ele>2307.8</ele><time>2026-04-03T13:38:38.859Z</time></trkpt><trkpt lat="44.9896241" lon="6.8626257"><ele>2304.4</ele><time>2026-04-03T13:38:39.853Z</time></trkpt><trkpt lat="44.9897034" lon="6.862614"><ele>2301.0</ele><time>2026-04-03T13:38:40.867Z</time></trkpt><trkpt lat="44.9898005" lon="6.8625927"><ele>2298.5</ele><time>2026-04-03T13:38:41.858Z</time></trkpt><trkpt lat="44.9899609" lon="6.8624391"><ele>2296.0</ele><time>2026-04-03T13:38:42.848Z</time></trkpt><trkpt lat="44.9900601" lon="6.8624689"><ele>2293.5</ele><time>2026-04-03T13:38:43.86Z</time></trkpt><trkpt lat="44.9901802" lon="6.8624278"><ele>2291.0</ele><time>2026-04-03T13:38:44.844Z</time></trkpt><trkpt lat="44.9903063" lon="6.8623965"><ele>2289.0</ele><time>2026-04-03T13:38:45.864Z</time></trkpt><trkpt lat="44.9902891" lon="6.8622493"><ele>2287.0</ele><time>2026-04-03T13:38:46.851Z</time></trkpt><trkpt lat="44.9902382" lon="6.8620636"><ele>2285.0</ele><time>2026-04-03T13:38:47.863Z</time></trkpt><trkpt lat="44.9902182" lon="6.8618971"><ele>2283.0</ele><time>2026-04-03T13:38:48.858Z</time></trkpt><trkpt lat="44.9902283" lon="6.8617293"><ele>2279.0</ele><time>2026-04-03T13:38:49.849Z</time></trkpt><trkpt lat="44.9902195" lon="6.8615511"><ele>2275.0</ele><time>2026-04-03T13:38:50.859Z</time></trkpt><trkpt lat="44.9902677" lon="6.8613743"><ele>2271.0</ele><time>2026-04-03T13:38:51.849Z</time></trkpt><trkpt lat="44.9902894" lon="6.861208"><ele>2267.0</ele><time>2026-04-03T13:38:52.855Z</time></trkpt><trkpt lat="44.9903222" lon="6.8610085"><ele>2261.333333333333</ele><time>2026-04-03T13:38:53.864Z</time></trkpt><trkpt lat="44.9903626" lon="6.8608284"><ele>2255.6666666666665</ele><time>2026-04-03T13:38:54.85Z</time></trkpt><trkpt lat="44.9904202" lon="6.8606028"><ele>2250.0</ele><time>2026-04-03T13:38:55.843Z</time></trkpt><trkpt lat="44.9905457" lon="6.8604188"><ele>2250.0</ele><time>2026-04-03T13:38:56.852Z</time></trkpt><trkpt lat="44.9906674" lon="6.8602344"><ele>2250.0</ele><time>2026-04-03T13:38:57.861Z</time></trkpt><trkpt lat="44.990833" lon="6.8602861"><ele>2250.0</ele><time>2026-04-03T13:38:58.859Z</time></trkpt><trkpt lat="44.9909638" lon="6.8601854"><ele>2244.75</ele><time>2026-04-03T13:38:59.841Z</time></trkpt><trkpt lat="44.991109" lon="6.8600921"><ele>2239.5</ele><time>2026-04-03T13:39:00.86Z</time></trkpt><trkpt lat="44.9911776" lon="6.8600223"><ele>2234.25</ele><time>2026-04-03T13:39:01.862Z</time></trkpt><trkpt lat="44.9912882" lon="6.8598972"><ele>2229.0</ele><time>2026-04-03T13:39:02.852Z</time></trkpt><trkpt lat="44.9914062" lon="6.8597852"><ele>2229.0</ele><time>2026-04-03T13:39:03.856Z</time></trkpt><trkpt lat="44.9915255" lon="6.8597476"><ele>2229.0</ele><time>2026-04-03T13:39:04.857Z</time></trkpt><trkpt lat="44.9916439" lon="6.8596552"><ele>2229.0</ele><time>2026-04-03T13:39:05.853Z</time></trkpt><trkpt lat="44.9917361" lon="6.8595618"><ele>2229.0</ele><time>2026-04-03T13:39:06.86Z</time></trkpt><trkpt lat="44.9918509" lon="6.8596032"><ele>2228.75</ele><time>2026-04-03T13:39:07.847Z</time></trkpt><trkpt lat="44.9919552" lon="6.8595875"><ele>2228.5</ele><time>2026-04-03T13:39:08.856Z</time></trkpt><trkpt lat="44.9920644" lon="6.8595746"><ele>2228.25</ele><time>2026-04-03T13:39:09.849Z</time></trkpt><trkpt lat="44.9921254" lon="6.8595368"><ele>2228.0</ele><time>2026-04-03T13:39:10.856Z</time></trkpt><trkpt lat="44.9922082" lon="6.859323"><ele>2226.0</ele><time>2026-04-03T13:39:12.86Z</time></trkpt><trkpt lat="44.9922182" lon="6.8591321"><ele>2224.0</ele><time>2026-04-03T13:39:13.852Z</time></trkpt><trkpt lat="44.9922353" lon="6.8590015"><ele>2222.0</ele><time>2026-04-03T13:39:14.853Z</time></trkpt><trkpt lat="44.9922018" lon="6.8588582"><ele>2220.0</ele><time>2026-04-03T13:39:15.86Z</time></trkpt><trkpt lat="44.9921529" lon="6.8587242"><ele>2218.0</ele><time>2026-04-03T13:39:16.854Z</time></trkpt><trkpt lat="44.9919924" lon="6.8587257"><ele>2218.0</ele><time>2026-04-03T13:39:17.852Z</time></trkpt><trkpt lat="44.9918743" lon="6.8587329"><ele>2218.0</ele><time>2026-04-03T13:39:18.854Z</time></trkpt><trkpt lat="44.9917733" lon="6.858677"><ele>2218.0</ele><time>2026-04-03T13:39:19.859Z</time></trkpt><trkpt lat="44.9916549" lon="6.8586513"><ele>2218.0</ele><time>2026-04-03T13:39:20.858Z</time></trkpt><trkpt lat="44.9915267" lon="6.8585413"><ele>2218.4</ele><time>2026-04-03T13:39:21.856Z</time></trkpt><trkpt lat="44.9914297" lon="6.8584808"><ele>2218.8</ele><time>2026-04-03T13:39:22.866Z</time></trkpt><trkpt lat="44.9913705" lon="6.8584499"><ele>2219.2</ele><time>2026-04-03T13:39:23.856Z</time></trkpt><trkpt lat="44.991276" lon="6.8584087"><ele>2219.6</ele><time>2026-04-03T13:39:24.848Z</time></trkpt><trkpt lat="44.9912037" lon="6.858342"><ele>2220.0</ele><time>2026-04-03T13:39:25.855Z</time></trkpt><trkpt lat="44.9911768" lon="6.8582124"><ele>2216.2</ele><time>2026-04-03T13:39:26.851Z</time></trkpt><trkpt lat="44.9911159" lon="6.858124"><ele>2212.4</ele><time>2026-04-03T13:39:27.854Z</time></trkpt><trkpt lat="44.9910637" lon="6.8580724"><ele>2208.6</ele><time>2026-04-03T13:39:28.85Z</time></trkpt><trkpt lat="44.9909932" lon="6.8579836"><ele>2204.8</ele><time>2026-04-03T13:39:29.86Z</time></trkpt><trkpt lat="44.9909336" lon="6.8579058"><ele>2201.0</ele><time>2026-04-03T13:39:30.855Z</time></trkpt><trkpt lat="44.9910136" lon="6.857732"><ele>2196.2</ele><time>2026-04-03T13:39:31.846Z</time></trkpt><trkpt lat="44.991017" lon="6.8575681"><ele>2191.3999999999996</ele><time>2026-04-03T13:39:32.859Z</time></trkpt><trkpt lat="44.9909838" lon="6.8574074"><ele>2186.6</ele><time>2026-04-03T13:39:33.864Z</time></trkpt><trkpt lat="44.9910327" lon="6.8572837"><ele>2181.7999999999997</ele><time>2026-04-03T13:39:34.865Z</time></trkpt><trkpt lat="44.991031" lon="6.8571607"><ele>2177.0</ele><time>2026-04-03T13:39:35.857Z</time></trkpt><trkpt lat="44.9910727" lon="6.8570308"><ele>2177.0</ele><time>2026-04-03T13:39:36.855Z</time></trkpt><trkpt lat="44.9912001" lon="6.8568755"><ele>2177.0</ele><time>2026-04-03T13:39:37.842Z</time></trkpt><trkpt lat="44.9912414" lon="6.8567649"><ele>2177.0</ele><time>2026-04-03T13:39:38.844Z</time></trkpt><trkpt lat="44.9912907" lon="6.8568325"><ele>2177.0</ele><time>2026-04-03T13:39:39.86Z</time></trkpt><trkpt lat="44.9913464" lon="6.8567504"><ele>2177.0</ele><time>2026-04-03T13:39:41.849Z</time></trkpt><trkpt lat="44.9912933" lon="6.8566948"><ele>2177.0</ele><time>2026-04-03T13:40:46.846Z</time></trkpt><trkpt lat="44.9912259" lon="6.8567333"><ele>2177.0</ele><time>2026-04-03T13:40:54.863Z</time></trkpt><trkpt lat="44.9911604" lon="6.8567398"><ele>2177.0</ele><time>2026-04-03T13:40:57.851Z</time></trkpt><trkpt lat="44.9910891" lon="6.856745"><ele>2177.0</ele><time>2026-04-03T13:41:01.852Z</time></trkpt><trkpt lat="44.9910005" lon="6.856767"><ele>2177.0</ele><time>2026-04-03T13:41:05.854Z</time></trkpt><trkpt lat="44.9909364" lon="6.856788"><ele>2177.0</ele><time>2026-04-03T13:41:08.859Z</time></trkpt><trkpt lat="44.9908735" lon="6.8568056"><ele>2177.0</ele><time>2026-04-03T13:41:11.858Z</time></trkpt><trkpt lat="44.99081" lon="6.8568219"><ele>2178.333333333333</ele><time>2026-04-03T13:41:14.848Z</time></trkpt><trkpt lat="44.9907481" lon="6.8568468"><ele>2179.6666666666665</ele><time>2026-04-03T13:41:17.855Z</time></trkpt><trkpt lat="44.9906656" lon="6.8568649"><ele>2181.0</ele><time>2026-04-03T13:41:21.858Z</time></trkpt><trkpt lat="44.9905838" lon="6.8568776"><ele>2182.3333333333335</ele><time>2026-04-03T13:41:25.856Z</time></trkpt><trkpt lat="44.990503" lon="6.8568964"><ele>2183.666666666667</ele><time>2026-04-03T13:41:29.856Z</time></trkpt><trkpt lat="44.9904222" lon="6.8569143"><ele>2185.0</ele><time>2026-04-03T13:41:33.852Z</time></trkpt><trkpt lat="44.9903419" lon="6.8569288"><ele>2185.0</ele><time>2026-04-03T13:41:37.858Z</time></trkpt><trkpt lat="44.9902613" lon="6.856941"><ele>2185.0</ele><time>2026-04-03T13:41:41.862Z</time></trkpt><trkpt lat="44.9901843" lon="6.8569568"><ele>2185.0</ele><time>2026-04-03T13:41:45.854Z</time></trkpt><trkpt lat="44.9901064" lon="6.8569723"><ele>2185.0</ele><time>2026-04-03T13:41:49.855Z</time></trkpt><trkpt lat="44.9900258" lon="6.8569874"><ele>2185.0</ele><time>2026-04-03T13:41:53.852Z</time></trkpt><trkpt lat="44.9899498" lon="6.8570048"><ele>2185.0</ele><time>2026-04-03T13:41:57.854Z</time></trkpt><trkpt lat="44.9898694" lon="6.8570231"><ele>2186.571428571429</ele><time>2026-04-03T13:42:01.852Z</time></trkpt><trkpt lat="44.9898044" lon="6.8570406"><ele>2188.1428571428573</ele><time>2026-04-03T13:42:54.861Z</time></trkpt><trkpt lat="44.9897394" lon="6.8570548"><ele>2189.714285714286</ele><time>2026-04-03T13:43:01.855Z</time></trkpt><trkpt lat="44.9896586" lon="6.8570725"><ele>2191.2857142857147</ele><time>2026-04-03T13:43:06.855Z</time></trkpt><trkpt lat="44.9895773" lon="6.8570962"><ele>2192.857142857143</ele><time>2026-04-03T13:43:10.852Z</time></trkpt><trkpt lat="44.9894998" lon="6.8571185"><ele>2194.4285714285716</ele><time>2026-04-03T13:43:14.845Z</time></trkpt><trkpt lat="44.9894363" lon="6.8571315"><ele>2196.0</ele><time>2026-04-03T13:43:17.854Z</time></trkpt><trkpt lat="44.9893551" lon="6.8571496"><ele>2196.0</ele><time>2026-04-03T13:43:21.847Z</time></trkpt><trkpt lat="44.9892761" lon="6.8571731"><ele>2196.0</ele><time>2026-04-03T13:43:25.852Z</time></trkpt><trkpt lat="44.9891984" lon="6.8571987"><ele>2196.0</ele><time>2026-04-03T13:43:29.849Z</time></trkpt><trkpt lat="44.9891159" lon="6.8572222"><ele>2196.0</ele><time>2026-04-03T13:43:33.853Z</time></trkpt><trkpt lat="44.9890326" lon="6.8572422"><ele>2196.0</ele><time>2026-04-03T13:43:37.855Z</time></trkpt><trkpt lat="44.988954" lon="6.8572634"><ele>2196.0</ele><time>2026-04-03T13:43:41.842Z</time></trkpt><trkpt lat="44.9888745" lon="6.8572851"><ele>2199.5</ele><time>2026-04-03T13:43:45.845Z</time></trkpt><trkpt lat="44.9887989" lon="6.8573004"><ele>2203.0</ele><time>2026-04-03T13:43:49.854Z</time></trkpt><trkpt lat="44.9887226" lon="6.8573108"><ele>2206.5</ele><time>2026-04-03T13:43:53.852Z</time></trkpt><trkpt lat="44.9886503" lon="6.8573264"><ele>2210.0</ele><time>2026-04-03T13:43:57.846Z</time></trkpt><trkpt lat="44.9885676" lon="6.8573511"><ele>2213.5</ele><time>2026-04-03T13:44:01.861Z</time></trkpt><trkpt lat="44.9884855" lon="6.8573704"><ele>2217.0</ele><time>2026-04-03T13:44:05.851Z</time></trkpt><trkpt lat="44.988404" lon="6.8573869"><ele>2220.5</ele><time>2026-04-03T13:44:09.853Z</time></trkpt><trkpt lat="44.988327" lon="6.8574025"><ele>2224.0</ele><time>2026-04-03T13:44:13.859Z</time></trkpt><trkpt lat="44.988247" lon="6.8574175"><ele>2227.5</ele><time>2026-04-03T13:44:17.854Z</time></trkpt><trkpt lat="44.9881662" lon="6.8574341"><ele>2231.0</ele><time>2026-04-03T13:44:21.856Z</time></trkpt><trkpt lat="44.9880872" lon="6.8574566"><ele>2234.5</ele><time>2026-04-03T13:44:25.861Z</time></trkpt><trkpt lat="44.9880086" lon="6.8574741"><ele>2238.0</ele><time>2026-04-03T13:44:29.849Z</time></trkpt><trkpt lat="44.987929" lon="6.8574917"><ele>2238.0</ele><time>2026-04-03T13:44:33.858Z</time></trkpt><trkpt lat="44.9878499" lon="6.8575098"><ele>2238.0</ele><time>2026-04-03T13:44:37.856Z</time></trkpt><trkpt lat="44.9877761" lon="6.857525"><ele>2238.0</ele><time>2026-04-03T13:44:41.856Z</time></trkpt><trkpt lat="44.9876949" lon="6.8575408"><ele>2238.0</ele><time>2026-04-03T13:44:45.848Z</time></trkpt><trkpt lat="44.9876324" lon="6.8575553"><ele>2238.0</ele><time>2026-04-03T13:44:48.851Z</time></trkpt><trkpt lat="44.9875537" lon="6.857569"><ele>2238.0</ele><time>2026-04-03T13:44:52.859Z</time></trkpt><trkpt lat="44.9874728" lon="6.8575865"><ele>2241.5</ele><time>2026-04-03T13:44:56.865Z</time></trkpt><trkpt lat="44.9873928" lon="6.8576079"><ele>2245.0</ele><time>2026-04-03T13:45:00.851Z</time></trkpt><trkpt lat="44.9873152" lon="6.8576239"><ele>2248.5</ele><time>2026-04-03T13:45:04.858Z</time></trkpt><trkpt lat="44.9872373" lon="6.8576405"><ele>2252.0</ele><time>2026-04-03T13:45:08.848Z</time></trkpt><trkpt lat="44.9871584" lon="6.8576568"><ele>2255.5</ele><time>2026-04-03T13:45:12.85Z</time></trkpt><trkpt lat="44.9870805" lon="6.8576749"><ele>2259.0</ele><time>2026-04-03T13:45:16.857Z</time></trkpt><trkpt lat="44.9870161" lon="6.8576903"><ele>2259.0</ele><time>2026-04-03T13:45:19.852Z</time></trkpt><trkpt lat="44.9869339" lon="6.8577079"><ele>2259.0</ele><time>2026-04-03T13:45:23.867Z</time></trkpt><trkpt lat="44.9868703" lon="6.8577219"><ele>2259.0</ele><time>2026-04-03T13:45:26.856Z</time></trkpt><trkpt lat="44.9867881" lon="6.857741"><ele>2259.0</ele><time>2026-04-03T13:45:30.849Z</time></trkpt><trkpt lat="44.9867066" lon="6.8577602"><ele>2259.0</ele><time>2026-04-03T13:45:34.853Z</time></trkpt><trkpt lat="44.9866241" lon="6.857778"><ele>2259.0</ele><time>2026-04-03T13:45:38.853Z</time></trkpt><trkpt lat="44.9865477" lon="6.8577959"><ele>2264.5</ele><time>2026-04-03T13:45:42.844Z</time></trkpt><trkpt lat="44.9864703" lon="6.8578141"><ele>2270.0</ele><time>2026-04-03T13:45:46.846Z</time></trkpt><trkpt lat="44.9863938" lon="6.8578308"><ele>2275.5</ele><time>2026-04-03T13:45:50.855Z</time></trkpt><trkpt lat="44.9863169" lon="6.8578434"><ele>2281.0</ele><time>2026-04-03T13:45:54.847Z</time></trkpt><trkpt lat="44.9862383" lon="6.8578573"><ele>2286.5</ele><time>2026-04-03T13:45:58.856Z</time></trkpt><trkpt lat="44.9861657" lon="6.8578742"><ele>2292.0</ele><time>2026-04-03T13:46:02.854Z</time></trkpt><trkpt lat="44.9860837" lon="6.8578948"><ele>2292.0</ele><time>2026-04-03T13:46:06.855Z</time></trkpt><trkpt lat="44.9860215" lon="6.8579096"><ele>2292.0</ele><time>2026-04-03T13:46:09.847Z</time></trkpt><trkpt lat="44.9859407" lon="6.8579254"><ele>2292.0</ele><time>2026-04-03T13:46:13.85Z</time></trkpt><trkpt lat="44.9858614" lon="6.8579391"><ele>2292.0</ele><time>2026-04-03T13:46:17.846Z</time></trkpt><trkpt lat="44.9857826" lon="6.8579552"><ele>2292.0</ele><time>2026-04-03T13:46:21.848Z</time></trkpt><trkpt lat="44.9857017" lon="6.857972"><ele>2292.0</ele><time>2026-04-03T13:46:25.846Z</time></trkpt><trkpt lat="44.9856197" lon="6.8579911"><ele>2295.3333333333335</ele><time>2026-04-03T13:46:29.856Z</time></trkpt><trkpt lat="44.9855376" lon="6.8580104"><ele>2298.6666666666665</ele><time>2026-04-03T13:46:33.853Z</time></trkpt><trkpt lat="44.9854737" lon="6.858022"><ele>2302.0</ele><time>2026-04-03T13:46:36.853Z</time></trkpt><trkpt lat="44.9853919" lon="6.8580408"><ele>2305.333333333333</ele><time>2026-04-03T13:46:40.85Z</time></trkpt><trkpt lat="44.9853149" lon="6.8580615"><ele>2308.6666666666665</ele><time>2026-04-03T13:46:44.857Z</time></trkpt><trkpt lat="44.9852358" lon="6.8580797"><ele>2312.0</ele><time>2026-04-03T13:46:48.855Z</time></trkpt><trkpt lat="44.9851537" lon="6.8580974"><ele>2312.0</ele><time>2026-04-03T13:46:52.854Z</time></trkpt><trkpt lat="44.985075" lon="6.8581105"><ele>2312.0</ele><time>2026-04-03T13:46:56.854Z</time></trkpt><trkpt lat="44.9849942" lon="6.8581266"><ele>2312.0</ele><time>2026-04-03T13:47:00.855Z</time></trkpt><trkpt lat="44.9849122" lon="6.8581486"><ele>2312.0</ele><time>2026-04-03T13:47:04.866Z</time></trkpt><trkpt lat="44.984849" lon="6.8581638"><ele>2312.0</ele><time>2026-04-03T13:47:07.863Z</time></trkpt><trkpt lat="44.984786" lon="6.8581772"><ele>2312.0</ele><time>2026-04-03T13:47:10.853Z</time></trkpt><trkpt lat="44.9847026" lon="6.8581926"><ele>2314.6666666666665</ele><time>2026-04-03T13:47:14.851Z</time></trkpt><trkpt lat="44.9846253" lon="6.8582061"><ele>2317.333333333333</ele><time>2026-04-03T13:47:18.859Z</time></trkpt><trkpt lat="44.9845619" lon="6.8582185"><ele>2320.0</ele><time>2026-04-03T13:47:21.866Z</time></trkpt><trkpt lat="44.9844776" lon="6.8582393"><ele>2322.6666666666665</ele><time>2026-04-03T13:47:24.841Z</time></trkpt><trkpt lat="44.9844016" lon="6.8582408"><ele>2325.3333333333335</ele><time>2026-04-03T13:47:28.858Z</time></trkpt><trkpt lat="44.9843241" lon="6.8582496"><ele>2328.0</ele><time>2026-04-03T13:47:32.853Z</time></trkpt><trkpt lat="44.9842447" lon="6.8582726"><ele>2330.3333333333335</ele><time>2026-04-03T13:47:36.85Z</time></trkpt><trkpt lat="44.9841622" lon="6.8582891"><ele>2332.6666666666665</ele><time>2026-04-03T13:47:40.846Z</time></trkpt><trkpt lat="44.9840815" lon="6.8583003"><ele>2335.0</ele><time>2026-04-03T13:47:44.846Z</time></trkpt><trkpt lat="44.9840065" lon="6.8583124"><ele>2337.333333333333</ele><time>2026-04-03T13:47:48.84Z</time></trkpt><trkpt lat="44.9839321" lon="6.8583309"><ele>2339.6666666666665</ele><time>2026-04-03T13:47:52.851Z</time></trkpt><trkpt lat="44.9838551" lon="6.8583483"><ele>2342.0</ele><time>2026-04-03T13:47:56.843Z</time></trkpt><trkpt lat="44.9837824" lon="6.8583672"><ele>2342.0</ele><time>2026-04-03T13:48:00.852Z</time></trkpt><trkpt lat="44.9837184" lon="6.8583865"><ele>2342.0</ele><time>2026-04-03T13:48:04.859Z</time></trkpt><trkpt lat="44.9836504" lon="6.8584072"><ele>2342.0</ele><time>2026-04-03T13:48:11.852Z</time></trkpt><trkpt lat="44.9835749" lon="6.8584243"><ele>2342.0</ele><time>2026-04-03T13:48:17.854Z</time></trkpt><trkpt lat="44.9835086" lon="6.8584398"><ele>2342.0</ele><time>2026-04-03T13:48:21.844Z</time></trkpt><trkpt lat="44.9834309" lon="6.858453"><ele>2342.0</ele><time>2026-04-03T13:48:25.847Z</time></trkpt><trkpt lat="44.9833459" lon="6.8584653"><ele>2342.0</ele><time>2026-04-03T13:48:29.861Z</time></trkpt><trkpt lat="44.9832676" lon="6.8584883"><ele>2346.833333333333</ele><time>2026-04-03T13:48:33.849Z</time></trkpt><trkpt lat="44.98319" lon="6.8585097"><ele>2351.6666666666665</ele><time>2026-04-03T13:48:37.856Z</time></trkpt><trkpt lat="44.9831105" lon="6.8585168"><ele>2356.5</ele><time>2026-04-03T13:48:41.848Z</time></trkpt><trkpt lat="44.9830333" lon="6.8585291"><ele>2361.3333333333335</ele><time>2026-04-03T13:48:45.857Z</time></trkpt><trkpt lat="44.9829529" lon="6.8585522"><ele>2366.166666666667</ele><time>2026-04-03T13:48:49.844Z</time></trkpt><trkpt lat="44.9828746" lon="6.8585723"><ele>2371.0</ele><time>2026-04-03T13:48:53.854Z</time></trkpt><trkpt lat="44.9827976" lon="6.8585916"><ele>2371.0</ele><time>2026-04-03T13:48:57.856Z</time></trkpt><trkpt lat="44.9827334" lon="6.8586057"><ele>2371.0</ele><time>2026-04-03T13:49:00.859Z</time></trkpt><trkpt lat="44.9826504" lon="6.8586247"><ele>2371.0</ele><time>2026-04-03T13:49:04.853Z</time></trkpt><trkpt lat="44.9825709" lon="6.8586425"><ele>2371.0</ele><time>2026-04-03T13:49:08.85Z</time></trkpt><trkpt lat="44.9824909" lon="6.8586628"><ele>2371.0</ele><time>2026-04-03T13:49:12.855Z</time></trkpt><trkpt lat="44.9824122" lon="6.858671"><ele>2371.0</ele><time>2026-04-03T13:49:16.853Z</time></trkpt><trkpt lat="44.9823326" lon="6.8586856"><ele>2375.3333333333335</ele><time>2026-04-03T13:49:20.847Z</time></trkpt><trkpt lat="44.9822555" lon="6.8587118"><ele>2379.666666666667</ele><time>2026-04-03T13:49:24.844Z</time></trkpt><trkpt lat="44.9821731" lon="6.8587332"><ele>2384.0</ele><time>2026-04-03T13:49:28.861Z</time></trkpt><trkpt lat="44.9820928" lon="6.85875"><ele>2388.3333333333335</ele><time>2026-04-03T13:49:32.864Z</time></trkpt><trkpt lat="44.9820109" lon="6.8587657"><ele>2392.6666666666665</ele><time>2026-04-03T13:49:36.855Z</time></trkpt><trkpt lat="44.9819286" lon="6.8587814"><ele>2397.0</ele><time>2026-04-03T13:49:40.855Z</time></trkpt><trkpt lat="44.981847" lon="6.8587989"><ele>2397.0</ele><time>2026-04-03T13:49:44.846Z</time></trkpt><trkpt lat="44.9817843" lon="6.8588105"><ele>2397.0</ele><time>2026-04-03T13:49:47.863Z</time></trkpt><trkpt lat="44.9817019" lon="6.8588281"><ele>2397.0</ele><time>2026-04-03T13:49:51.849Z</time></trkpt><trkpt lat="44.981639" lon="6.8588399"><ele>2397.0</ele><time>2026-04-03T13:49:54.853Z</time></trkpt><trkpt lat="44.9815763" lon="6.8588508"><ele>2397.0</ele><time>2026-04-03T13:49:57.853Z</time></trkpt><trkpt lat="44.9814945" lon="6.8588654"><ele>2397.0</ele><time>2026-04-03T13:50:01.851Z</time></trkpt><trkpt lat="44.9814117" lon="6.8588839"><ele>2397.0</ele><time>2026-04-03T13:50:05.857Z</time></trkpt><trkpt lat="44.981331" lon="6.8589055"><ele>2401.3333333333335</ele><time>2026-04-03T13:50:09.85Z</time></trkpt><trkpt lat="44.9812688" lon="6.8589207"><ele>2405.6666666666665</ele><time>2026-04-03T13:50:12.854Z</time></trkpt><trkpt lat="44.981187" lon="6.8589391"><ele>2410.0</ele><time>2026-04-03T13:50:16.86Z</time></trkpt><trkpt lat="44.9811061" lon="6.858957"><ele>2414.333333333333</ele><time>2026-04-03T13:50:20.859Z</time></trkpt><trkpt lat="44.9810312" lon="6.8589719"><ele>2418.6666666666665</ele><time>2026-04-03T13:50:24.852Z</time></trkpt><trkpt lat="44.980957" lon="6.8589852"><ele>2423.0</ele><time>2026-04-03T13:50:28.851Z</time></trkpt><trkpt lat="44.9808845" lon="6.8590009"><ele>2428.714285714286</ele><time>2026-04-03T13:50:32.851Z</time></trkpt><trkpt lat="44.980814" lon="6.8590185"><ele>2434.4285714285716</ele><time>2026-04-03T13:50:36.858Z</time></trkpt><trkpt lat="44.9807439" lon="6.859035"><ele>2440.142857142857</ele><time>2026-04-03T13:50:40.855Z</time></trkpt><trkpt lat="44.9806757" lon="6.8590516"><ele>2445.857142857143</ele><time>2026-04-03T13:50:44.862Z</time></trkpt><trkpt lat="44.9806075" lon="6.8590667"><ele>2451.5714285714284</ele><time>2026-04-03T13:50:48.86Z</time></trkpt><trkpt lat="44.9805394" lon="6.8590813"><ele>2457.285714285714</ele><time>2026-04-03T13:50:52.853Z</time></trkpt><trkpt lat="44.9804739" lon="6.8590988"><ele>2463.0</ele><time>2026-04-03T13:50:56.848Z</time></trkpt><trkpt lat="44.9804095" lon="6.8591112"><ele>2462.9999999999995</ele><time>2026-04-03T13:51:00.856Z</time></trkpt><trkpt lat="44.9803441" lon="6.8591282"><ele>2463.0</ele><time>2026-04-03T13:51:04.853Z</time></trkpt><trkpt lat="44.9802783" lon="6.8591413"><ele>2463.0</ele><time>2026-04-03T13:51:08.85Z</time></trkpt><trkpt lat="44.9802149" lon="6.8591574"><ele>2463.0</ele><time>2026-04-03T13:51:12.848Z</time></trkpt><trkpt lat="44.9801523" lon="6.859173"><ele>2463.0</ele><time>2026-04-03T13:51:16.846Z</time></trkpt><trkpt lat="44.9800883" lon="6.8591881"><ele>2462.9999999999995</ele><time>2026-04-03T13:51:20.858Z</time></trkpt><trkpt lat="44.9800201" lon="6.8592056"><ele>2463.0</ele><time>2026-04-03T13:51:24.853Z</time></trkpt><trkpt lat="44.9799478" lon="6.8592239"><ele>2471.285714285714</ele><time>2026-04-03T13:51:28.854Z</time></trkpt><trkpt lat="44.9798762" lon="6.8592455"><ele>2479.5714285714284</ele><time>2026-04-03T13:51:32.862Z</time></trkpt><trkpt lat="44.9798053" lon="6.8592627"><ele>2487.857142857143</ele><time>2026-04-03T13:51:36.853Z</time></trkpt><trkpt lat="44.979736" lon="6.85928"><ele>2496.142857142857</ele><time>2026-04-03T13:51:40.857Z</time></trkpt><trkpt lat="44.9796673" lon="6.859292"><ele>2504.4285714285716</ele><time>2026-04-03T13:51:44.852Z</time></trkpt><trkpt lat="44.9795999" lon="6.8593026"><ele>2512.714285714286</ele><time>2026-04-03T13:51:48.856Z</time></trkpt><trkpt lat="44.9795325" lon="6.8593105"><ele>2521.0</ele><time>2026-04-03T13:51:52.856Z</time></trkpt><trkpt lat="44.979465" lon="6.8593221"><ele>2525.0</ele><time>2026-04-03T13:51:56.86Z</time></trkpt><trkpt lat="44.9793902" lon="6.8593377"><ele>2529.0</ele><time>2026-04-03T13:52:00.849Z</time></trkpt><trkpt lat="44.9793146" lon="6.8593559"><ele>2533.0</ele><time>2026-04-03T13:52:04.849Z</time></trkpt><trkpt lat="44.9792405" lon="6.8593735"><ele>2537.0</ele><time>2026-04-03T13:52:08.853Z</time></trkpt><trkpt lat="44.9791659" lon="6.8593854"><ele>2541.0</ele><time>2026-04-03T13:52:12.853Z</time></trkpt><trkpt lat="44.9790908" lon="6.8593986"><ele>2545.0</ele><time>2026-04-03T13:52:16.848Z</time></trkpt><trkpt lat="44.9790114" lon="6.8594139"><ele>2552.5</ele><time>2026-04-03T13:52:20.854Z</time></trkpt><trkpt lat="44.9789286" lon="6.8594303"><ele>2560.0</ele><time>2026-04-03T13:52:24.847Z</time></trkpt><trkpt lat="44.9788471" lon="6.8594484"><ele>2567.5</ele><time>2026-04-03T13:52:28.859Z</time></trkpt><trkpt lat="44.9787668" lon="6.859464"><ele>2575.0</ele><time>2026-04-03T13:52:32.852Z</time></trkpt><trkpt lat="44.9786863" lon="6.8594814"><ele>2582.5</ele><time>2026-04-03T13:52:36.85Z</time></trkpt><trkpt lat="44.9786059" lon="6.8594996"><ele>2590.0</ele><time>2026-04-03T13:52:40.856Z</time></trkpt><trkpt lat="44.9785254" lon="6.8595175"><ele>2590.0</ele><time>2026-04-03T13:52:44.855Z</time></trkpt><trkpt lat="44.9784446" lon="6.8595396"><ele>2590.0</ele><time>2026-04-03T13:52:48.854Z</time></trkpt><trkpt lat="44.9783653" lon="6.8595554"><ele>2590.0</ele><time>2026-04-03T13:52:52.849Z</time></trkpt><trkpt lat="44.9782856" lon="6.8595767"><ele>2590.0</ele><time>2026-04-03T13:52:56.852Z</time></trkpt><trkpt lat="44.9782059" lon="6.8595961"><ele>2590.0</ele><time>2026-04-03T13:53:00.854Z</time></trkpt><trkpt lat="44.9781249" lon="6.859615"><ele>2590.0</ele><time>2026-04-03T13:53:04.85Z</time></trkpt><trkpt lat="44.9780471" lon="6.8596327"><ele>2594.0</ele><time>2026-04-03T13:53:08.847Z</time></trkpt><trkpt lat="44.9779733" lon="6.8596486"><ele>2598.0</ele><time>2026-04-03T13:53:12.864Z</time></trkpt><trkpt lat="44.9778992" lon="6.8596684"><ele>2602.0</ele><time>2026-04-03T13:53:16.854Z</time></trkpt><trkpt lat="44.9778245" lon="6.859686"><ele>2606.0</ele><time>2026-04-03T13:53:20.851Z</time></trkpt><trkpt lat="44.9777472" lon="6.8596981"><ele>2610.0</ele><time>2026-04-03T13:53:24.842Z</time></trkpt><trkpt lat="44.9776762" lon="6.8597133"><ele>2614.0</ele><time>2026-04-03T13:53:28.852Z</time></trkpt><trkpt lat="44.9776016" lon="6.8597312"><ele>2614.0</ele><time>2026-04-03T13:53:32.843Z</time></trkpt><trkpt lat="44.9775293" lon="6.8597419"><ele>2614.0</ele><time>2026-04-03T13:53:37.848Z</time></trkpt><trkpt lat="44.9774681" lon="6.8597738"><ele>2614.0</ele><time>2026-04-03T13:53:41.852Z</time></trkpt><trkpt lat="44.9774046" lon="6.8597957"><ele>2614.0</ele><time>2026-04-03T13:53:44.858Z</time></trkpt><trkpt lat="44.9773311" lon="6.8598056"><ele>2614.0</ele><time>2026-04-03T13:53:48.851Z</time></trkpt><trkpt lat="44.9772591" lon="6.8598094"><ele>2614.0</ele><time>2026-04-03T13:53:52.857Z</time></trkpt><trkpt lat="44.9771814" lon="6.8598162"><ele>2614.0</ele><time>2026-04-03T13:53:56.846Z</time></trkpt><trkpt lat="44.9771073" lon="6.8598326"><ele>2619.8333333333335</ele><time>2026-04-03T13:54:00.857Z</time></trkpt><trkpt lat="44.9770461" lon="6.8598627"><ele>2625.666666666667</ele><time>2026-04-03T13:54:04.851Z</time></trkpt><trkpt lat="44.9769677" lon="6.8598832"><ele>2631.5</ele><time>2026-04-03T13:54:08.844Z</time></trkpt><trkpt lat="44.9768922" lon="6.8599072"><ele>2637.3333333333335</ele><time>2026-04-03T13:54:12.844Z</time></trkpt><trkpt lat="44.9768014" lon="6.8599164"><ele>2643.1666666666665</ele><time>2026-04-03T13:54:16.846Z</time></trkpt><trkpt lat="44.9767533" lon="6.8598316"><ele>2649.0</ele><time>2026-04-03T13:54:19.847Z</time></trkpt><trkpt lat="44.9766883" lon="6.859818"><ele>2653.8571428571427</ele><time>2026-04-03T13:54:30.845Z</time></trkpt><trkpt lat="44.9766163" lon="6.8598346"><ele>2658.714285714286</ele><time>2026-04-03T13:54:37.852Z</time></trkpt><trkpt lat="44.9765425" lon="6.8598129"><ele>2663.5714285714284</ele><time>2026-04-03T13:54:43.856Z</time></trkpt><trkpt lat="44.9764817" lon="6.8597538"><ele>2668.4285714285716</ele><time>2026-04-03T13:54:49.858Z</time></trkpt><trkpt lat="44.976433" lon="6.8596856"><ele>2673.285714285714</ele><time>2026-04-03T13:54:55.853Z</time></trkpt><trkpt lat="44.9764884" lon="6.8597617"><ele>2678.1428571428573</ele><time>2026-04-03T13:55:11.87Z</time></trkpt><trkpt lat="44.9765565" lon="6.8597863"><ele>2683.0</ele><time>2026-04-03T13:55:16.867Z</time></trkpt><trkpt lat="44.9766287" lon="6.859801"><ele>2683.0</ele><time>2026-04-03T13:55:22.844Z</time></trkpt><trkpt lat="44.9766922" lon="6.859762"><ele>2683.0</ele><time>2026-04-03T13:55:29.856Z</time></trkpt><trkpt lat="44.9766559" lon="6.8598375"><ele>2683.0</ele><time>2026-04-03T13:55:47.768Z</time></trkpt><trkpt lat="44.9765532" lon="6.8599217"><ele>2683.0</ele><time>2026-04-03T13:57:15.854Z</time></trkpt><trkpt lat="44.9764673" lon="6.8599593"><ele>2683.0</ele><time>2026-04-03T13:57:25.848Z</time></trkpt><trkpt lat="44.9763591" lon="6.8599987"><ele>2683.0</ele><time>2026-04-03T13:57:27.854Z</time></trkpt><trkpt lat="44.9762856" lon="6.860029"><ele>2683.0</ele><time>2026-04-03T13:57:28.841Z</time></trkpt><trkpt lat="44.9761927" lon="6.8600508"><ele>2683.0</ele><time>2026-04-03T13:57:30.85Z</time></trkpt><trkpt lat="44.9761058" lon="6.8600729"><ele>2683.0</ele><time>2026-04-03T13:57:32.846Z</time></trkpt><trkpt lat="44.9760124" lon="6.8600954"><ele>2683.0</ele><time>2026-04-03T13:57:34.845Z</time></trkpt><trkpt lat="44.9759285" lon="6.8601181"><ele>2683.0</ele><time>2026-04-03T13:57:36.857Z</time></trkpt><trkpt lat="44.9758418" lon="6.8601406"><ele>2679.666666666667</ele><time>2026-04-03T13:57:38.862Z</time></trkpt><trkpt lat="44.9757545" lon="6.8601633"><ele>2676.3333333333335</ele><time>2026-04-03T13:57:40.851Z</time></trkpt><trkpt lat="44.9756668" lon="6.8601856"><ele>2673.0</ele><time>2026-04-03T13:57:42.849Z</time></trkpt><trkpt lat="44.9755805" lon="6.8602068"><ele>2669.6666666666665</ele><time>2026-04-03T13:57:44.844Z</time></trkpt><trkpt lat="44.9754964" lon="6.8602295"><ele>2666.333333333333</ele><time>2026-04-03T13:57:46.855Z</time></trkpt><trkpt lat="44.9754134" lon="6.8602521"><ele>2663.0</ele><time>2026-04-03T13:57:48.843Z</time></trkpt><trkpt lat="44.9753306" lon="6.860277"><ele>2663.0</ele><time>2026-04-03T13:57:50.846Z</time></trkpt><trkpt lat="44.9752442" lon="6.8603021"><ele>2663.0</ele><time>2026-04-03T13:57:52.846Z</time></trkpt><trkpt lat="44.9751587" lon="6.8603244"><ele>2663.0</ele><time>2026-04-03T13:57:54.859Z</time></trkpt><trkpt lat="44.9750731" lon="6.8603442"><ele>2663.0</ele><time>2026-04-03T13:57:56.854Z</time></trkpt><trkpt lat="44.9749873" lon="6.8603661"><ele>2663.0</ele><time>2026-04-03T13:57:58.859Z</time></trkpt><trkpt lat="44.9749" lon="6.8603889"><ele>2663.0</ele><time>2026-04-03T13:58:00.843Z</time></trkpt><trkpt lat="44.9748132" lon="6.8604078"><ele>2657.5</ele><time>2026-04-03T13:58:02.848Z</time></trkpt><trkpt lat="44.974726" lon="6.8604283"><ele>2652.0</ele><time>2026-04-03T13:58:04.856Z</time></trkpt><trkpt lat="44.9746381" lon="6.8604465"><ele>2646.5</ele><time>2026-04-03T13:58:06.847Z</time></trkpt><trkpt lat="44.9745513" lon="6.8604691"><ele>2641.0</ele><time>2026-04-03T13:58:08.855Z</time></trkpt><trkpt lat="44.9744651" lon="6.8604903"><ele>2635.5</ele><time>2026-04-03T13:58:10.856Z</time></trkpt><trkpt lat="44.9743802" lon="6.8605123"><ele>2630.0</ele><time>2026-04-03T13:58:12.848Z</time></trkpt><trkpt lat="44.974295" lon="6.8605355"><ele>2630.0</ele><time>2026-04-03T13:58:14.845Z</time></trkpt><trkpt lat="44.9742086" lon="6.860558"><ele>2630.0</ele><time>2026-04-03T13:58:16.861Z</time></trkpt><trkpt lat="44.9741216" lon="6.8605764"><ele>2630.0</ele><time>2026-04-03T13:58:18.847Z</time></trkpt><trkpt lat="44.9740347" lon="6.8605948"><ele>2630.0</ele><time>2026-04-03T13:58:20.854Z</time></trkpt><trkpt lat="44.9739503" lon="6.8606151"><ele>2630.0</ele><time>2026-04-03T13:58:22.853Z</time></trkpt><trkpt lat="44.9738665" lon="6.8606359"><ele>2630.0</ele><time>2026-04-03T13:58:24.858Z</time></trkpt><trkpt lat="44.9737823" lon="6.8606581"><ele>2625.0</ele><time>2026-04-03T13:58:26.858Z</time></trkpt><trkpt lat="44.9737008" lon="6.860678"><ele>2620.0</ele><time>2026-04-03T13:58:28.854Z</time></trkpt><trkpt lat="44.973615" lon="6.8607118"><ele>2615.0</ele><time>2026-04-03T13:58:30.853Z</time></trkpt><trkpt lat="44.9735325" lon="6.8607417"><ele>2610.0</ele><time>2026-04-03T13:58:32.851Z</time></trkpt><trkpt lat="44.9734471" lon="6.8607646"><ele>2605.0</ele><time>2026-04-03T13:58:34.85Z</time></trkpt><trkpt lat="44.9733628" lon="6.8607873"><ele>2600.0</ele><time>2026-04-03T13:58:36.855Z</time></trkpt><trkpt lat="44.9732769" lon="6.8608099"><ele>2596.0</ele><time>2026-04-03T13:58:38.847Z</time></trkpt><trkpt lat="44.9731915" lon="6.8608328"><ele>2592.0</ele><time>2026-04-03T13:58:40.861Z</time></trkpt><trkpt lat="44.9731062" lon="6.8608561"><ele>2588.0</ele><time>2026-04-03T13:58:42.851Z</time></trkpt><trkpt lat="44.9730207" lon="6.8608803"><ele>2584.0</ele><time>2026-04-03T13:58:44.854Z</time></trkpt><trkpt lat="44.972936" lon="6.8609015"><ele>2580.0</ele><time>2026-04-03T13:58:46.856Z</time></trkpt><trkpt lat="44.9728511" lon="6.8609238"><ele>2576.0</ele><time>2026-04-03T13:58:48.851Z</time></trkpt><trkpt lat="44.9727651" lon="6.8609472"><ele>2574.1666666666665</ele><time>2026-04-03T13:58:50.847Z</time></trkpt><trkpt lat="44.9726793" lon="6.8609699"><ele>2572.333333333333</ele><time>2026-04-03T13:58:52.845Z</time></trkpt><trkpt lat="44.9725931" lon="6.8609942"><ele>2570.5</ele><time>2026-04-03T13:58:54.858Z</time></trkpt><trkpt lat="44.9725067" lon="6.8610185"><ele>2568.6666666666665</ele><time>2026-04-03T13:58:56.856Z</time></trkpt><trkpt lat="44.9724199" lon="6.8610428"><ele>2566.8333333333335</ele><time>2026-04-03T13:58:58.846Z</time></trkpt><trkpt lat="44.972334" lon="6.8610668"><ele>2565.0</ele><time>2026-04-03T13:59:00.855Z</time></trkpt><trkpt lat="44.972247" lon="6.8610896"><ele>2565.0</ele><time>2026-04-03T13:59:02.85Z</time></trkpt><trkpt lat="44.9721627" lon="6.8611123"><ele>2565.0</ele><time>2026-04-03T13:59:04.852Z</time></trkpt><trkpt lat="44.9720821" lon="6.8611341"><ele>2565.0</ele><time>2026-04-03T13:59:06.855Z</time></trkpt><trkpt lat="44.9719995" lon="6.8611575"><ele>2565.0</ele><time>2026-04-03T13:59:08.853Z</time></trkpt><trkpt lat="44.9719161" lon="6.8611825"><ele>2565.0</ele><time>2026-04-03T13:59:10.842Z</time></trkpt><trkpt lat="44.9718332" lon="6.8612091"><ele>2565.0</ele><time>2026-04-03T13:59:12.853Z</time></trkpt><trkpt lat="44.9717513" lon="6.8612352"><ele>2559.1666666666665</ele><time>2026-04-03T13:59:14.845Z</time></trkpt><trkpt lat="44.9716676" lon="6.8612599"><ele>2553.3333333333335</ele><time>2026-04-03T13:59:16.855Z</time></trkpt><trkpt lat="44.9715839" lon="6.8612835"><ele>2547.5</ele><time>2026-04-03T13:59:18.853Z</time></trkpt><trkpt lat="44.9714998" lon="6.8613063"><ele>2541.666666666667</ele><time>2026-04-03T13:59:20.847Z</time></trkpt><trkpt lat="44.9714161" lon="6.8613367"><ele>2535.8333333333335</ele><time>2026-04-03T13:59:22.859Z</time></trkpt><trkpt lat="44.9713239" lon="6.861333"><ele>2530.0</ele><time>2026-04-03T13:59:24.853Z</time></trkpt><trkpt lat="44.971239" lon="6.8613547"><ele>2530.0</ele><time>2026-04-03T13:59:26.849Z</time></trkpt><trkpt lat="44.9711592" lon="6.8613707"><ele>2530.0</ele><time>2026-04-03T13:59:28.847Z</time></trkpt><trkpt lat="44.9710729" lon="6.8613988"><ele>2530.0</ele><time>2026-04-03T13:59:30.857Z</time></trkpt><trkpt lat="44.9709904" lon="6.8614181"><ele>2530.0</ele><time>2026-04-03T13:59:32.859Z</time></trkpt><trkpt lat="44.9709054" lon="6.8614384"><ele>2530.0</ele><time>2026-04-03T13:59:34.851Z</time></trkpt><trkpt lat="44.9708236" lon="6.8614587"><ele>2530.0</ele><time>2026-04-03T13:59:36.85Z</time></trkpt><trkpt lat="44.9707392" lon="6.8614872"><ele>2525.3333333333335</ele><time>2026-04-03T13:59:38.853Z</time></trkpt><trkpt lat="44.9706545" lon="6.8615076"><ele>2520.666666666667</ele><time>2026-04-03T13:59:40.857Z</time></trkpt><trkpt lat="44.9705684" lon="6.8615262"><ele>2516.0</ele><time>2026-04-03T13:59:42.853Z</time></trkpt><trkpt lat="44.9704816" lon="6.8615494"><ele>2511.3333333333335</ele><time>2026-04-03T13:59:44.853Z</time></trkpt><trkpt lat="44.9703943" lon="6.8615747"><ele>2506.6666666666665</ele><time>2026-04-03T13:59:46.855Z</time></trkpt><trkpt lat="44.9703045" lon="6.8615956"><ele>2502.0</ele><time>2026-04-03T13:59:48.85Z</time></trkpt><trkpt lat="44.9702168" lon="6.8616217"><ele>2502.0</ele><time>2026-04-03T13:59:50.846Z</time></trkpt><trkpt lat="44.9701294" lon="6.8616463"><ele>2502.0</ele><time>2026-04-03T13:59:52.85Z</time></trkpt><trkpt lat="44.9700452" lon="6.861668"><ele>2502.0</ele><time>2026-04-03T13:59:54.854Z</time></trkpt><trkpt lat="44.9699634" lon="6.8616918"><ele>2502.0</ele><time>2026-04-03T13:59:56.861Z</time></trkpt><trkpt lat="44.9698802" lon="6.8617169"><ele>2502.0</ele><time>2026-04-03T13:59:58.847Z</time></trkpt><trkpt lat="44.9697991" lon="6.8617416"><ele>2502.0</ele><time>2026-04-03T14:00:00.857Z</time></trkpt><trkpt lat="44.9697177" lon="6.8617623"><ele>2499.5</ele><time>2026-04-03T14:00:02.858Z</time></trkpt><trkpt lat="44.9696342" lon="6.8617844"><ele>2497.0</ele><time>2026-04-03T14:00:04.853Z</time></trkpt><trkpt lat="44.9695534" lon="6.8618163"><ele>2494.5</ele><time>2026-04-03T14:00:06.864Z</time></trkpt><trkpt lat="44.9694717" lon="6.8618472"><ele>2492.0</ele><time>2026-04-03T14:00:08.859Z</time></trkpt><trkpt lat="44.9693873" lon="6.8618627"><ele>2489.5</ele><time>2026-04-03T14:00:10.854Z</time></trkpt><trkpt lat="44.9693042" lon="6.8618811"><ele>2487.0</ele><time>2026-04-03T14:00:12.859Z</time></trkpt><trkpt lat="44.9692211" lon="6.8619044"><ele>2480.1666666666665</ele><time>2026-04-03T14:00:14.856Z</time></trkpt><trkpt lat="44.9691375" lon="6.8619263"><ele>2473.3333333333335</ele><time>2026-04-03T14:00:16.846Z</time></trkpt><trkpt lat="44.9690551" lon="6.8619536"><ele>2466.5</ele><time>2026-04-03T14:00:18.853Z</time></trkpt><trkpt lat="44.9689725" lon="6.8619755"><ele>2459.666666666667</ele><time>2026-04-03T14:00:20.848Z</time></trkpt><trkpt lat="44.9688895" lon="6.8619966"><ele>2452.8333333333335</ele><time>2026-04-03T14:00:22.841Z</time></trkpt><trkpt lat="44.9688073" lon="6.862016"><ele>2446.0</ele><time>2026-04-03T14:00:24.863Z</time></trkpt><trkpt lat="44.9687243" lon="6.862033"><ele>2446.0</ele><time>2026-04-03T14:00:26.851Z</time></trkpt><trkpt lat="44.9686406" lon="6.8620526"><ele>2446.0</ele><time>2026-04-03T14:00:28.849Z</time></trkpt><trkpt lat="44.9685553" lon="6.8620742"><ele>2446.0</ele><time>2026-04-03T14:00:30.857Z</time></trkpt><trkpt lat="44.9684682" lon="6.8620963"><ele>2446.0</ele><time>2026-04-03T14:00:32.851Z</time></trkpt><trkpt lat="44.9683821" lon="6.8621197"><ele>2446.0</ele><time>2026-04-03T14:00:34.842Z</time></trkpt><trkpt lat="44.9683027" lon="6.8621429"><ele>2446.0</ele><time>2026-04-03T14:00:36.863Z</time></trkpt><trkpt lat="44.9682202" lon="6.8621644"><ele>2439.5</ele><time>2026-04-03T14:00:38.853Z</time></trkpt><trkpt lat="44.9681386" lon="6.8621844"><ele>2433.0</ele><time>2026-04-03T14:00:40.849Z</time></trkpt><trkpt lat="44.9680571" lon="6.8621973"><ele>2426.5</ele><time>2026-04-03T14:00:42.847Z</time></trkpt><trkpt lat="44.9679769" lon="6.8622207"><ele>2420.0</ele><time>2026-04-03T14:00:44.847Z</time></trkpt><trkpt lat="44.9678945" lon="6.8622489"><ele>2413.5</ele><time>2026-04-03T14:00:46.859Z</time></trkpt><trkpt lat="44.9678118" lon="6.8622721"><ele>2407.0</ele><time>2026-04-03T14:00:48.853Z</time></trkpt><trkpt lat="44.9677286" lon="6.8622964"><ele>2407.0</ele><time>2026-04-03T14:00:50.85Z</time></trkpt><trkpt lat="44.9676455" lon="6.8623196"><ele>2407.0</ele><time>2026-04-03T14:00:52.85Z</time></trkpt><trkpt lat="44.9675623" lon="6.8623421"><ele>2407.0</ele><time>2026-04-03T14:00:54.842Z</time></trkpt><trkpt lat="44.9674815" lon="6.8623655"><ele>2407.0</ele><time>2026-04-03T14:00:56.847Z</time></trkpt><trkpt lat="44.9674011" lon="6.8623875"><ele>2407.0</ele><time>2026-04-03T14:00:58.855Z</time></trkpt><trkpt lat="44.9673212" lon="6.8624046"><ele>2407.0</ele><time>2026-04-03T14:01:00.856Z</time></trkpt><trkpt lat="44.9672414" lon="6.8624216"><ele>2401.3333333333335</ele><time>2026-04-03T14:01:02.853Z</time></trkpt><trkpt lat="44.9671622" lon="6.8624393"><ele>2395.666666666667</ele><time>2026-04-03T14:01:04.842Z</time></trkpt><trkpt lat="44.9670811" lon="6.8624603"><ele>2390.0</ele><time>2026-04-03T14:01:06.857Z</time></trkpt><trkpt lat="44.9669988" lon="6.8624833"><ele>2384.3333333333335</ele><time>2026-04-03T14:01:08.851Z</time></trkpt><trkpt lat="44.9669159" lon="6.8625074"><ele>2378.6666666666665</ele><time>2026-04-03T14:01:10.853Z</time></trkpt><trkpt lat="44.966832" lon="6.862531"><ele>2373.0</ele><time>2026-04-03T14:01:12.857Z</time></trkpt><trkpt lat="44.9667495" lon="6.8625534"><ele>2367.0</ele><time>2026-04-03T14:01:14.849Z</time></trkpt><trkpt lat="44.9666656" lon="6.8625739"><ele>2361.0</ele><time>2026-04-03T14:01:16.859Z</time></trkpt><trkpt lat="44.9665866" lon="6.8625928"><ele>2355.0</ele><time>2026-04-03T14:01:18.85Z</time></trkpt><trkpt lat="44.9665075" lon="6.8626208"><ele>2349.0</ele><time>2026-04-03T14:01:20.86Z</time></trkpt><trkpt lat="44.9664267" lon="6.8626432"><ele>2343.0</ele><time>2026-04-03T14:01:22.859Z</time></trkpt><trkpt lat="44.9663452" lon="6.8626647"><ele>2337.0</ele><time>2026-04-03T14:01:24.848Z</time></trkpt><trkpt lat="44.9662641" lon="6.8626859"><ele>2337.0</ele><time>2026-04-03T14:01:26.858Z</time></trkpt><trkpt lat="44.9661834" lon="6.862709"><ele>2337.0</ele><time>2026-04-03T14:01:28.859Z</time></trkpt><trkpt lat="44.9661027" lon="6.8627313"><ele>2337.0</ele><time>2026-04-03T14:01:30.863Z</time></trkpt><trkpt lat="44.966022" lon="6.8627537"><ele>2337.0</ele><time>2026-04-03T14:01:32.863Z</time></trkpt><trkpt lat="44.9659427" lon="6.8627753"><ele>2337.0</ele><time>2026-04-03T14:01:34.846Z</time></trkpt><trkpt lat="44.965863" lon="6.8627962"><ele>2337.0</ele><time>2026-04-03T14:01:36.858Z</time></trkpt><trkpt lat="44.9657822" lon="6.8628176"><ele>2331.3333333333335</ele><time>2026-04-03T14:01:38.858Z</time></trkpt><trkpt lat="44.9656991" lon="6.8628357"><ele>2325.6666666666665</ele><time>2026-04-03T14:01:40.853Z</time></trkpt><trkpt lat="44.965605" lon="6.8628676"><ele>2320.0</ele><time>2026-04-03T14:01:42.861Z</time></trkpt><trkpt lat="44.9655155" lon="6.8628899"><ele>2314.333333333333</ele><time>2026-04-03T14:01:44.853Z</time></trkpt><trkpt lat="44.9654502" lon="6.8629118"><ele>2308.6666666666665</ele><time>2026-04-03T14:01:48.844Z</time></trkpt><trkpt lat="44.9653933" lon="6.8629554"><ele>2303.0</ele><time>2026-04-03T14:02:20.864Z</time></trkpt><trkpt lat="44.9653316" lon="6.8629833"><ele>2303.0</ele><time>2026-04-03T14:02:52.847Z</time></trkpt><trkpt lat="44.965261" lon="6.8630513"><ele>2303.0</ele><time>2026-04-03T14:02:56.855Z</time></trkpt><trkpt lat="44.9651783" lon="6.8631346"><ele>2303.0</ele><time>2026-04-03T14:02:58.856Z</time></trkpt><trkpt lat="44.9651059" lon="6.863218"><ele>2303.0</ele><time>2026-04-03T14:03:00.855Z</time></trkpt><trkpt lat="44.9650281" lon="6.8632941"><ele>2303.0</ele><time>2026-04-03T14:03:02.861Z</time></trkpt><trkpt lat="44.9649553" lon="6.8633665"><ele>2299.1666666666665</ele><time>2026-04-03T14:03:04.852Z</time></trkpt><trkpt lat="44.9648855" lon="6.8634303"><ele>2295.333333333333</ele><time>2026-04-03T14:03:06.846Z</time></trkpt><trkpt lat="44.9648183" lon="6.8634902"><ele>2291.5</ele><time>2026-04-03T14:03:08.856Z</time></trkpt><trkpt lat="44.9647479" lon="6.8635611"><ele>2287.6666666666665</ele><time>2026-04-03T14:03:10.847Z</time></trkpt><trkpt lat="44.9646771" lon="6.8636327"><ele>2283.8333333333335</ele><time>2026-04-03T14:03:12.845Z</time></trkpt><trkpt lat="44.9646066" lon="6.8637039"><ele>2280.0</ele><time>2026-04-03T14:03:14.854Z</time></trkpt><trkpt lat="44.9645404" lon="6.8637845"><ele>2280.0</ele><time>2026-04-03T14:03:16.843Z</time></trkpt><trkpt lat="44.9644693" lon="6.8638594"><ele>2280.0</ele><time>2026-04-03T14:03:18.841Z</time></trkpt><trkpt lat="44.9643963" lon="6.8639293"><ele>2280.0</ele><time>2026-04-03T14:03:20.861Z</time></trkpt><trkpt lat="44.9643222" lon="6.8639967"><ele>2280.0</ele><time>2026-04-03T14:03:22.847Z</time></trkpt><trkpt lat="44.9642487" lon="6.8640633"><ele>2280.0</ele><time>2026-04-03T14:03:24.851Z</time></trkpt><trkpt lat="44.9641741" lon="6.8641308"><ele>2280.0</ele><time>2026-04-03T14:03:26.85Z</time></trkpt><trkpt lat="44.9640963" lon="6.8641878"><ele>2275.5</ele><time>2026-04-03T14:03:28.858Z</time></trkpt><trkpt lat="44.9640301" lon="6.8642727"><ele>2271.0</ele><time>2026-04-03T14:03:30.849Z</time></trkpt><trkpt lat="44.9639603" lon="6.8643469"><ele>2266.5</ele><time>2026-04-03T14:03:32.852Z</time></trkpt><trkpt lat="44.9638896" lon="6.8644197"><ele>2262.0</ele><time>2026-04-03T14:03:34.845Z</time></trkpt><trkpt lat="44.9638183" lon="6.8644905"><ele>2257.5</ele><time>2026-04-03T14:03:36.857Z</time></trkpt><trkpt lat="44.9637452" lon="6.8645621"><ele>2253.0</ele><time>2026-04-03T14:03:38.853Z</time></trkpt><trkpt lat="44.9636741" lon="6.8646312"><ele>2253.0</ele><time>2026-04-03T14:03:40.847Z</time></trkpt><trkpt lat="44.9636023" lon="6.8647004"><ele>2253.0</ele><time>2026-04-03T14:03:42.861Z</time></trkpt><trkpt lat="44.963531" lon="6.8647683"><ele>2253.0</ele><time>2026-04-03T14:03:44.849Z</time></trkpt><trkpt lat="44.9634606" lon="6.8648386"><ele>2253.0</ele><time>2026-04-03T14:03:46.855Z</time></trkpt><trkpt lat="44.9633908" lon="6.8649099"><ele>2253.0</ele><time>2026-04-03T14:03:48.853Z</time></trkpt><trkpt lat="44.9633193" lon="6.8649822"><ele>2253.0</ele><time>2026-04-03T14:03:50.853Z</time></trkpt><trkpt lat="44.9632474" lon="6.8650521"><ele>2248.5</ele><time>2026-04-03T14:03:52.86Z</time></trkpt><trkpt lat="44.9631764" lon="6.8651225"><ele>2244.0</ele><time>2026-04-03T14:03:54.852Z</time></trkpt><trkpt lat="44.963106" lon="6.8651938"><ele>2239.5</ele><time>2026-04-03T14:03:56.853Z</time></trkpt><trkpt lat="44.9630331" lon="6.8652639"><ele>2235.0</ele><time>2026-04-03T14:03:58.841Z</time></trkpt><trkpt lat="44.9629624" lon="6.8653361"><ele>2230.5</ele><time>2026-04-03T14:04:00.852Z</time></trkpt><trkpt lat="44.9628913" lon="6.8654062"><ele>2226.0</ele><time>2026-04-03T14:04:02.857Z</time></trkpt><trkpt lat="44.9628208" lon="6.8654767"><ele>2226.0</ele><time>2026-04-03T14:04:04.852Z</time></trkpt><trkpt lat="44.9627507" lon="6.8655448"><ele>2226.0</ele><time>2026-04-03T14:04:06.859Z</time></trkpt><trkpt lat="44.9626791" lon="6.8656157"><ele>2226.0</ele><time>2026-04-03T14:04:08.846Z</time></trkpt><trkpt lat="44.9626064" lon="6.8656868"><ele>2226.0</ele><time>2026-04-03T14:04:10.847Z</time></trkpt><trkpt lat="44.962535" lon="6.8657603"><ele>2226.0</ele><time>2026-04-03T14:04:12.856Z</time></trkpt><trkpt lat="44.9624574" lon="6.8658341"><ele>2226.0</ele><time>2026-04-03T14:04:14.855Z</time></trkpt><trkpt lat="44.962385" lon="6.8659079"><ele>2222.4</ele><time>2026-04-03T14:04:16.849Z</time></trkpt><trkpt lat="44.9623104" lon="6.8659785"><ele>2218.8</ele><time>2026-04-03T14:04:18.852Z</time></trkpt><trkpt lat="44.9622364" lon="6.8660536"><ele>2215.2000000000003</ele><time>2026-04-03T14:04:20.851Z</time></trkpt><trkpt lat="44.962162" lon="6.8661247"><ele>2211.6</ele><time>2026-04-03T14:04:22.847Z</time></trkpt><trkpt lat="44.9620892" lon="6.8661988"><ele>2208.0</ele><time>2026-04-03T14:04:24.843Z</time></trkpt><trkpt lat="44.9620146" lon="6.8662707"><ele>2208.0</ele><time>2026-04-03T14:04:26.848Z</time></trkpt><trkpt lat="44.9619417" lon="6.8663436"><ele>2208.0</ele><time>2026-04-03T14:04:28.851Z</time></trkpt><trkpt lat="44.9618659" lon="6.8664167"><ele>2208.0</ele><time>2026-04-03T14:04:30.84Z</time></trkpt><trkpt lat="44.9617935" lon="6.8664902"><ele>2208.0</ele><time>2026-04-03T14:04:32.855Z</time></trkpt><trkpt lat="44.9617206" lon="6.8665667"><ele>2208.0</ele><time>2026-04-03T14:04:34.848Z</time></trkpt><trkpt lat="44.9616466" lon="6.8666378"><ele>2206.5</ele><time>2026-04-03T14:04:36.848Z</time></trkpt><trkpt lat="44.961572" lon="6.8667125"><ele>2205.0</ele><time>2026-04-03T14:04:38.847Z</time></trkpt><trkpt lat="44.9614985" lon="6.8667825"><ele>2203.5</ele><time>2026-04-03T14:04:40.857Z</time></trkpt><trkpt lat="44.9614247" lon="6.8668555"><ele>2202.0</ele><time>2026-04-03T14:04:42.848Z</time></trkpt><trkpt lat="44.9613502" lon="6.8669243"><ele>2200.5</ele><time>2026-04-03T14:04:44.857Z</time></trkpt><trkpt lat="44.961279" lon="6.8669969"><ele>2199.0</ele><time>2026-04-03T14:04:46.849Z</time></trkpt><trkpt lat="44.9612062" lon="6.8670686"><ele>2199.0</ele><time>2026-04-03T14:04:48.861Z</time></trkpt><trkpt lat="44.9611331" lon="6.867141"><ele>2199.0</ele><time>2026-04-03T14:04:50.854Z</time></trkpt><trkpt lat="44.9610604" lon="6.8672125"><ele>2199.0</ele><time>2026-04-03T14:04:52.858Z</time></trkpt><trkpt lat="44.9609875" lon="6.8672843"><ele>2199.0</ele><time>2026-04-03T14:04:54.847Z</time></trkpt><trkpt lat="44.9609142" lon="6.8673563"><ele>2199.0</ele><time>2026-04-03T14:04:56.848Z</time></trkpt><trkpt lat="44.960841" lon="6.8674292"><ele>2199.0</ele><time>2026-04-03T14:04:58.85Z</time></trkpt><trkpt lat="44.9607686" lon="6.8674982"><ele>2196.6666666666665</ele><time>2026-04-03T14:05:00.85Z</time></trkpt><trkpt lat="44.960695" lon="6.8675666"><ele>2194.3333333333335</ele><time>2026-04-03T14:05:02.852Z</time></trkpt><trkpt lat="44.9606232" lon="6.8676326"><ele>2192.0</ele><time>2026-04-03T14:05:04.848Z</time></trkpt><trkpt lat="44.9605513" lon="6.8676983"><ele>2189.666666666667</ele><time>2026-04-03T14:05:06.855Z</time></trkpt><trkpt lat="44.9604814" lon="6.8677749"><ele>2187.3333333333335</ele><time>2026-04-03T14:05:08.863Z</time></trkpt><trkpt lat="44.9604068" lon="6.8678463"><ele>2185.0</ele><time>2026-04-03T14:05:10.858Z</time></trkpt><trkpt lat="44.9603334" lon="6.8679167"><ele>2185.0</ele><time>2026-04-03T14:05:12.857Z</time></trkpt><trkpt lat="44.9602606" lon="6.867991"><ele>2185.0</ele><time>2026-04-03T14:05:14.854Z</time></trkpt><trkpt lat="44.960189" lon="6.8680633"><ele>2185.0</ele><time>2026-04-03T14:05:16.852Z</time></trkpt><trkpt lat="44.960118" lon="6.8681321"><ele>2185.0</ele><time>2026-04-03T14:05:18.85Z</time></trkpt><trkpt lat="44.9600448" lon="6.8682041"><ele>2185.0</ele><time>2026-04-03T14:05:20.856Z</time></trkpt><trkpt lat="44.9599714" lon="6.8682763"><ele>2185.0</ele><time>2026-04-03T14:05:22.853Z</time></trkpt><trkpt lat="44.9599003" lon="6.8683473"><ele>2181.5</ele><time>2026-04-03T14:05:24.843Z</time></trkpt><trkpt lat="44.9598295" lon="6.868418"><ele>2178.0</ele><time>2026-04-03T14:05:26.861Z</time></trkpt><trkpt lat="44.9597581" lon="6.8684883"><ele>2174.5</ele><time>2026-04-03T14:05:28.853Z</time></trkpt><trkpt lat="44.9596861" lon="6.8685611"><ele>2171.0</ele><time>2026-04-03T14:05:30.851Z</time></trkpt><trkpt lat="44.959615" lon="6.8686329"><ele>2167.5</ele><time>2026-04-03T14:05:32.864Z</time></trkpt><trkpt lat="44.9595407" lon="6.8687059"><ele>2164.0</ele><time>2026-04-03T14:05:34.849Z</time></trkpt><trkpt lat="44.9594888" lon="6.8687599"><ele>2163.666666666667</ele><time>2026-04-03T14:05:36.853Z</time></trkpt><trkpt lat="44.9594161" lon="6.8688319"><ele>2163.3333333333335</ele><time>2026-04-03T14:05:38.858Z</time></trkpt><trkpt lat="44.959346" lon="6.8689092"><ele>2163.0</ele><time>2026-04-03T14:05:40.855Z</time></trkpt><trkpt lat="44.9592724" lon="6.8689809"><ele>2162.6666666666665</ele><time>2026-04-03T14:05:42.847Z</time></trkpt><trkpt lat="44.9591976" lon="6.8690523"><ele>2162.333333333333</ele><time>2026-04-03T14:05:44.857Z</time></trkpt><trkpt lat="44.9591231" lon="6.8691239"><ele>2162.0</ele><time>2026-04-03T14:05:46.852Z</time></trkpt><trkpt lat="44.9590546" lon="6.8691914"><ele>2157.833333333333</ele><time>2026-04-03T14:05:48.849Z</time></trkpt><trkpt lat="44.9589836" lon="6.8692612"><ele>2153.6666666666665</ele><time>2026-04-03T14:05:50.849Z</time></trkpt><trkpt lat="44.958915" lon="6.8693279"><ele>2149.5</ele><time>2026-04-03T14:05:52.854Z</time></trkpt><trkpt lat="44.958845" lon="6.8693964"><ele>2145.3333333333335</ele><time>2026-04-03T14:05:54.846Z</time></trkpt><trkpt lat="44.9587754" lon="6.8694639"><ele>2141.166666666667</ele><time>2026-04-03T14:05:56.862Z</time></trkpt><trkpt lat="44.9587053" lon="6.8695336"><ele>2137.0</ele><time>2026-04-03T14:05:58.842Z</time></trkpt><trkpt lat="44.9586346" lon="6.8696028"><ele>2135.166666666667</ele><time>2026-04-03T14:06:00.848Z</time></trkpt><trkpt lat="44.9585635" lon="6.8696723"><ele>2133.3333333333335</ele><time>2026-04-03T14:06:02.854Z</time></trkpt><trkpt lat="44.9584925" lon="6.8697404"><ele>2131.5</ele><time>2026-04-03T14:06:04.846Z</time></trkpt><trkpt lat="44.9584213" lon="6.8698096"><ele>2129.6666666666665</ele><time>2026-04-03T14:06:06.856Z</time></trkpt><trkpt lat="44.9583517" lon="6.8698781"><ele>2127.833333333333</ele><time>2026-04-03T14:06:08.86Z</time></trkpt><trkpt lat="44.9582815" lon="6.8699469"><ele>2126.0</ele><time>2026-04-03T14:06:10.859Z</time></trkpt><trkpt lat="44.9582106" lon="6.8700158"><ele>2121.5</ele><time>2026-04-03T14:06:12.846Z</time></trkpt><trkpt lat="44.9581389" lon="6.8700847"><ele>2117.0</ele><time>2026-04-03T14:06:14.853Z</time></trkpt><trkpt lat="44.9580669" lon="6.870155"><ele>2112.5</ele><time>2026-04-03T14:06:16.849Z</time></trkpt><trkpt lat="44.9579962" lon="6.8702237"><ele>2108.0</ele><time>2026-04-03T14:06:18.855Z</time></trkpt><trkpt lat="44.9579241" lon="6.870294"><ele>2103.5</ele><time>2026-04-03T14:06:20.849Z</time></trkpt><trkpt lat="44.9578597" lon="6.8703574"><ele>2099.0</ele><time>2026-04-03T14:06:22.858Z</time></trkpt><trkpt lat="44.9577917" lon="6.8704254"><ele>2094.6666666666665</ele><time>2026-04-03T14:06:24.846Z</time></trkpt><trkpt lat="44.9577235" lon="6.8704929"><ele>2090.333333333333</ele><time>2026-04-03T14:06:26.849Z</time></trkpt><trkpt lat="44.957655" lon="6.8705615"><ele>2086.0</ele><time>2026-04-03T14:06:28.846Z</time></trkpt><trkpt lat="44.9575873" lon="6.8706308"><ele>2081.6666666666665</ele><time>2026-04-03T14:06:30.854Z</time></trkpt><trkpt lat="44.9575181" lon="6.8706962"><ele>2077.3333333333335</ele><time>2026-04-03T14:06:32.849Z</time></trkpt><trkpt lat="44.95745" lon="6.8707635"><ele>2073.0</ele><time>2026-04-03T14:06:34.848Z</time></trkpt><trkpt lat="44.9573806" lon="6.8708309"><ele>2070.3333333333335</ele><time>2026-04-03T14:06:36.856Z</time></trkpt><trkpt lat="44.9573111" lon="6.8708987"><ele>2067.6666666666665</ele><time>2026-04-03T14:06:38.846Z</time></trkpt><trkpt lat="44.9572407" lon="6.8709678"><ele>2065.0</ele><time>2026-04-03T14:06:40.853Z</time></trkpt><trkpt lat="44.9571707" lon="6.8710369"><ele>2062.333333333333</ele><time>2026-04-03T14:06:42.86Z</time></trkpt><trkpt lat="44.9571008" lon="6.871106"><ele>2059.6666666666665</ele><time>2026-04-03T14:06:44.852Z</time></trkpt><trkpt lat="44.9570306" lon="6.871177"><ele>2057.0</ele><time>2026-04-03T14:06:46.849Z</time></trkpt><trkpt lat="44.9569591" lon="6.8712484"><ele>2054.6666666666665</ele><time>2026-04-03T14:06:48.854Z</time></trkpt><trkpt lat="44.9568886" lon="6.8713187"><ele>2052.333333333333</ele><time>2026-04-03T14:06:50.843Z</time></trkpt><trkpt lat="44.956816" lon="6.8713911"><ele>2050.0</ele><time>2026-04-03T14:06:52.852Z</time></trkpt><trkpt lat="44.9567432" lon="6.871463"><ele>2047.6666666666665</ele><time>2026-04-03T14:06:54.853Z</time></trkpt><trkpt lat="44.9566721" lon="6.871534"><ele>2045.3333333333333</ele><time>2026-04-03T14:06:56.858Z</time></trkpt><trkpt lat="44.9566029" lon="6.8716062"><ele>2043.0</ele><time>2026-04-03T14:06:58.858Z</time></trkpt><trkpt lat="44.9565292" lon="6.8716777"><ele>2039.5</ele><time>2026-04-03T14:07:00.858Z</time></trkpt><trkpt lat="44.9564625" lon="6.8717435"><ele>2036.0</ele><time>2026-04-03T14:07:02.849Z</time></trkpt><trkpt lat="44.9563864" lon="6.8718095"><ele>2032.5</ele><time>2026-04-03T14:07:04.85Z</time></trkpt><trkpt lat="44.9563164" lon="6.8718696"><ele>2029.0</ele><time>2026-04-03T14:07:06.844Z</time></trkpt><trkpt lat="44.9562394" lon="6.8719338"><ele>2025.5</ele><time>2026-04-03T14:07:08.848Z</time></trkpt><trkpt lat="44.9561676" lon="6.8720024"><ele>2022.0</ele><time>2026-04-03T14:07:10.859Z</time></trkpt><trkpt lat="44.9560932" lon="6.8720726"><ele>2019.8333333333333</ele><time>2026-04-03T14:07:12.846Z</time></trkpt><trkpt lat="44.9560196" lon="6.872141"><ele>2017.6666666666665</ele><time>2026-04-03T14:07:14.843Z</time></trkpt><trkpt lat="44.9559472" lon="6.8722109"><ele>2015.5</ele><time>2026-04-03T14:07:16.848Z</time></trkpt><trkpt lat="44.9558741" lon="6.8722839"><ele>2013.3333333333333</ele><time>2026-04-03T14:07:18.852Z</time></trkpt><trkpt lat="44.9558021" lon="6.8723576"><ele>2011.1666666666665</ele><time>2026-04-03T14:07:20.843Z</time></trkpt><trkpt lat="44.955729" lon="6.8724325"><ele>2009.0</ele><time>2026-04-03T14:07:22.857Z</time></trkpt><trkpt lat="44.9556572" lon="6.872507"><ele>2005.6</ele><time>2026-04-03T14:07:24.853Z</time></trkpt><trkpt lat="44.9555836" lon="6.8725826"><ele>2002.2</ele><time>2026-04-03T14:07:26.85Z</time></trkpt><trkpt lat="44.9555112" lon="6.8726586"><ele>1998.7999999999997</ele><time>2026-04-03T14:07:28.85Z</time></trkpt><trkpt lat="44.9554377" lon="6.872733"><ele>1995.3999999999999</ele><time>2026-04-03T14:07:30.864Z</time></trkpt><trkpt lat="44.9553656" lon="6.8728074"><ele>1992.0</ele><time>2026-04-03T14:07:32.862Z</time></trkpt><trkpt lat="44.9552932" lon="6.8728819"><ele>1991.5</ele><time>2026-04-03T14:07:34.846Z</time></trkpt><trkpt lat="44.9552213" lon="6.8729542"><ele>1991.0</ele><time>2026-04-03T14:07:36.856Z</time></trkpt><trkpt lat="44.9551484" lon="6.8730297"><ele>1990.5</ele><time>2026-04-03T14:07:38.846Z</time></trkpt><trkpt lat="44.9550759" lon="6.8730997"><ele>1990.0</ele><time>2026-04-03T14:07:40.854Z</time></trkpt><trkpt lat="44.9550059" lon="6.8731701"><ele>1989.5</ele><time>2026-04-03T14:07:42.853Z</time></trkpt><trkpt lat="44.9549309" lon="6.8732396"><ele>1989.0</ele><time>2026-04-03T14:07:44.848Z</time></trkpt><trkpt lat="44.954857" lon="6.8733116"><ele>1989.0</ele><time>2026-04-03T14:07:46.847Z</time></trkpt><trkpt lat="44.9547827" lon="6.8733837"><ele>1989.0</ele><time>2026-04-03T14:07:48.851Z</time></trkpt><trkpt lat="44.9547101" lon="6.8734545"><ele>1989.0</ele><time>2026-04-03T14:07:50.855Z</time></trkpt><trkpt lat="44.9546373" lon="6.8735258"><ele>1989.0</ele><time>2026-04-03T14:07:52.854Z</time></trkpt><trkpt lat="44.9545613" lon="6.8735948"><ele>1989.0</ele><time>2026-04-03T14:07:54.855Z</time></trkpt><trkpt lat="44.9544877" lon="6.8736633"><ele>1989.0</ele><time>2026-04-03T14:07:56.844Z</time></trkpt><trkpt lat="44.9544141" lon="6.8737354"><ele>1989.0</ele><time>2026-04-03T14:07:58.859Z</time></trkpt><trkpt lat="44.9543402" lon="6.8738084"><ele>1989.0</ele><time>2026-04-03T14:08:00.858Z</time></trkpt><trkpt lat="44.9542663" lon="6.8738798"><ele>1989.0</ele><time>2026-04-03T14:08:02.856Z</time></trkpt><trkpt lat="44.9541965" lon="6.8739567"><ele>1989.0</ele><time>2026-04-03T14:08:04.855Z</time></trkpt><trkpt lat="44.9541218" lon="6.8740343"><ele>1989.0</ele><time>2026-04-03T14:08:06.86Z</time></trkpt><trkpt lat="44.9540474" lon="6.8741065"><ele>1988.8571428571431</ele><time>2026-04-03T14:08:08.852Z</time></trkpt><trkpt lat="44.9539763" lon="6.8741744"><ele>1988.7142857142858</ele><time>2026-04-03T14:08:10.851Z</time></trkpt><trkpt lat="44.9539233" lon="6.8742234"><ele>1988.5714285714287</ele><time>2026-04-03T14:08:14.847Z</time></trkpt><trkpt lat="44.9538768" lon="6.8742839"><ele>1988.4285714285716</ele><time>2026-04-03T14:08:25.849Z</time></trkpt><trkpt lat="44.9538254" lon="6.8743369"><ele>1988.2857142857142</ele><time>2026-04-03T14:08:31.857Z</time></trkpt><trkpt lat="44.9537874" lon="6.8744089"><ele>1988.142857142857</ele><time>2026-04-03T14:08:38.857Z</time></trkpt><trkpt lat="44.953754" lon="6.8744857"><ele>1988.0</ele><time>2026-04-03T14:08:45.858Z</time></trkpt><trkpt lat="44.9537069" lon="6.8745641"><ele>1988.0</ele><time>2026-04-03T14:08:53.851Z</time></trkpt><trkpt lat="44.9537524" lon="6.8746343"><ele>1988.0</ele><time>2026-04-03T14:10:57.849Z</time></trkpt><trkpt lat="44.9537878" lon="6.8747119"><ele>1988.0</ele><time>2026-04-03T14:13:05.855Z</time></trkpt><trkpt lat="44.9537613" lon="6.8748012"><ele>1988.0</ele><time>2026-04-03T14:13:13.845Z</time></trkpt><trkpt lat="44.9537318" lon="6.8748866"><ele>1988.0</ele><time>2026-04-03T14:13:16.842Z</time></trkpt><trkpt lat="44.953702" lon="6.8749788"><ele>1988.0</ele><time>2026-04-03T14:13:20.852Z</time></trkpt><trkpt lat="44.9536695" lon="6.8750766"><ele>1988.0</ele><time>2026-04-03T14:13:24.86Z</time></trkpt><trkpt lat="44.9536305" lon="6.8751694"><ele>1989.142857142857</ele><time>2026-04-03T14:13:28.858Z</time></trkpt><trkpt lat="44.9535956" lon="6.8752547"><ele>1990.2857142857142</ele><time>2026-04-03T14:13:32.85Z</time></trkpt><trkpt lat="44.9535645" lon="6.8753353"><ele>1991.4285714285716</ele><time>2026-04-03T14:13:36.85Z</time></trkpt><trkpt lat="44.9535328" lon="6.8754188"><ele>1992.5714285714287</ele><time>2026-04-03T14:13:40.854Z</time></trkpt><trkpt lat="44.9534985" lon="6.8755092"><ele>1993.7142857142858</ele><time>2026-04-03T14:13:44.849Z</time></trkpt><trkpt lat="44.9534667" lon="6.8755955"><ele>1994.8571428571431</ele><time>2026-04-03T14:13:48.842Z</time></trkpt><trkpt lat="44.9534326" lon="6.8756823"><ele>1996.0000000000002</ele><time>2026-04-03T14:13:52.86Z</time></trkpt><trkpt lat="44.9533985" lon="6.8757697"><ele>1996.571428571429</ele><time>2026-04-03T14:13:56.844Z</time></trkpt><trkpt lat="44.9533634" lon="6.8758586"><ele>1997.1428571428573</ele><time>2026-04-03T14:14:00.851Z</time></trkpt><trkpt lat="44.953329" lon="6.8759474"><ele>1997.7142857142858</ele><time>2026-04-03T14:14:04.858Z</time></trkpt><trkpt lat="44.953325" lon="6.8760373"><ele>1998.2857142857144</ele><time>2026-04-03T14:14:07.853Z</time></trkpt><trkpt lat="44.9532875" lon="6.8761175"><ele>1998.8571428571431</ele><time>2026-04-03T14:14:11.853Z</time></trkpt><trkpt lat="44.9532506" lon="6.8761968"><ele>1999.4285714285713</ele><time>2026-04-03T14:14:17.855Z</time></trkpt><trkpt lat="44.9532143" lon="6.8762767"><ele>2000.0</ele><time>2026-04-03T14:14:23.848Z</time></trkpt><trkpt lat="44.9531805" lon="6.8763569"><ele>2001.2857142857142</ele><time>2026-04-03T14:14:27.842Z</time></trkpt><trkpt lat="44.9531433" lon="6.8764482"><ele>2002.5714285714287</ele><time>2026-04-03T14:14:31.852Z</time></trkpt><trkpt lat="44.9531088" lon="6.8765348"><ele>2003.857142857143</ele><time>2026-04-03T14:14:35.844Z</time></trkpt><trkpt lat="44.953073" lon="6.8766204"><ele>2005.142857142857</ele><time>2026-04-03T14:14:39.852Z</time></trkpt><trkpt lat="44.9530381" lon="6.8767068"><ele>2006.4285714285716</ele><time>2026-04-03T14:14:43.855Z</time></trkpt><trkpt lat="44.9530009" lon="6.8767902"><ele>2007.7142857142858</ele><time>2026-04-03T14:14:47.852Z</time></trkpt><trkpt lat="44.9529667" lon="6.8768753"><ele>2009.0</ele><time>2026-04-03T14:14:51.845Z</time></trkpt><trkpt lat="44.952937" lon="6.8769604"><ele>2009.4285714285716</ele><time>2026-04-03T14:14:55.852Z</time></trkpt><trkpt lat="44.9529002" lon="6.8770429"><ele>2009.857142857143</ele><time>2026-04-03T14:14:59.855Z</time></trkpt><trkpt lat="44.9528654" lon="6.8771299"><ele>2010.2857142857142</ele><time>2026-04-03T14:15:03.858Z</time></trkpt><trkpt lat="44.9528315" lon="6.8772201"><ele>2010.7142857142858</ele><time>2026-04-03T14:15:07.856Z</time></trkpt><trkpt lat="44.9527989" lon="6.8773126"><ele>2011.1428571428573</ele><time>2026-04-03T14:15:11.86Z</time></trkpt><trkpt lat="44.952764" lon="6.8774024"><ele>2011.5714285714287</ele><time>2026-04-03T14:15:15.846Z</time></trkpt><trkpt lat="44.952725" lon="6.8774885"><ele>2012.0</ele><time>2026-04-03T14:15:19.847Z</time></trkpt><trkpt lat="44.9526891" lon="6.8775763"><ele>2012.7142857142858</ele><time>2026-04-03T14:15:23.846Z</time></trkpt><trkpt lat="44.9526514" lon="6.8776682"><ele>2013.4285714285716</ele><time>2026-04-03T14:15:27.848Z</time></trkpt><trkpt lat="44.9526143" lon="6.8777587"><ele>2014.1428571428573</ele><time>2026-04-03T14:15:31.854Z</time></trkpt><trkpt lat="44.9525813" lon="6.8778467"><ele>2014.8571428571431</ele><time>2026-04-03T14:15:35.846Z</time></trkpt><trkpt lat="44.9525474" lon="6.8779354"><ele>2015.5714285714287</ele><time>2026-04-03T14:15:39.847Z</time></trkpt><trkpt lat="44.9525118" lon="6.8780236"><ele>2016.2857142857147</ele><time>2026-04-03T14:15:43.857Z</time></trkpt><trkpt lat="44.9524782" lon="6.878115"><ele>2017.0000000000002</ele><time>2026-04-03T14:15:47.855Z</time></trkpt><trkpt lat="44.9524458" lon="6.8782066"><ele>2019.2857142857147</ele><time>2026-04-03T14:15:51.846Z</time></trkpt><trkpt lat="44.9524116" lon="6.8782963"><ele>2021.5714285714287</ele><time>2026-04-03T14:15:55.847Z</time></trkpt><trkpt lat="44.9523773" lon="6.8783848"><ele>2023.8571428571431</ele><time>2026-04-03T14:15:59.854Z</time></trkpt><trkpt lat="44.9523426" lon="6.8784713"><ele>2026.1428571428573</ele><time>2026-04-03T14:16:03.843Z</time></trkpt><trkpt lat="44.9523073" lon="6.8785515"><ele>2028.4285714285716</ele><time>2026-04-03T14:16:07.853Z</time></trkpt><trkpt lat="44.9522739" lon="6.8786381"><ele>2030.7142857142858</ele><time>2026-04-03T14:16:11.855Z</time></trkpt><trkpt lat="44.9522404" lon="6.8787253"><ele>2033.0</ele><time>2026-04-03T14:16:15.847Z</time></trkpt><trkpt lat="44.9522046" lon="6.8788102"><ele>2035.0</ele><time>2026-04-03T14:16:19.856Z</time></trkpt><trkpt lat="44.9521667" lon="6.8788929"><ele>2037.0000000000002</ele><time>2026-04-03T14:16:23.85Z</time></trkpt><trkpt lat="44.9521311" lon="6.8789746"><ele>2039.0</ele><time>2026-04-03T14:16:27.852Z</time></trkpt><trkpt lat="44.952095" lon="6.8790594"><ele>2041.0</ele><time>2026-04-03T14:16:31.85Z</time></trkpt><trkpt lat="44.9520583" lon="6.879149"><ele>2043.0000000000002</ele><time>2026-04-03T14:16:35.842Z</time></trkpt><trkpt lat="44.9520279" lon="6.879242"><ele>2045.0</ele><time>2026-04-03T14:16:39.857Z</time></trkpt><trkpt lat="44.9519977" lon="6.8793282"><ele>2047.0</ele><time>2026-04-03T14:16:43.846Z</time></trkpt><trkpt lat="44.9519669" lon="6.8794098"><ele>2048.857142857143</ele><time>2026-04-03T14:16:47.859Z</time></trkpt><trkpt lat="44.951935" lon="6.8794953"><ele>2050.714285714286</ele><time>2026-04-03T14:16:51.856Z</time></trkpt><trkpt lat="44.9519049" lon="6.8795759"><ele>2052.5714285714284</ele><time>2026-04-03T14:16:55.857Z</time></trkpt><trkpt lat="44.9518704" lon="6.8796611"><ele>2054.4285714285716</ele><time>2026-04-03T14:16:59.85Z</time></trkpt><trkpt lat="44.9518351" lon="6.8797442"><ele>2056.285714285714</ele><time>2026-04-03T14:17:03.847Z</time></trkpt><trkpt lat="44.9518006" lon="6.8798248"><ele>2058.1428571428573</ele><time>2026-04-03T14:17:07.854Z</time></trkpt><trkpt lat="44.9517666" lon="6.8799082"><ele>2060.0</ele><time>2026-04-03T14:17:11.843Z</time></trkpt><trkpt lat="44.9517357" lon="6.8799965"><ele>2064.714285714286</ele><time>2026-04-03T14:17:15.854Z</time></trkpt><trkpt lat="44.9517002" lon="6.880087"><ele>2069.4285714285716</ele><time>2026-04-03T14:17:20.858Z</time></trkpt><trkpt lat="44.9516701" lon="6.8801724"><ele>2074.142857142857</ele><time>2026-04-03T14:17:27.861Z</time></trkpt><trkpt lat="44.9516387" lon="6.8802513"><ele>2078.857142857143</ele><time>2026-04-03T14:17:32.849Z</time></trkpt><trkpt lat="44.951604" lon="6.8803359"><ele>2083.5714285714284</ele><time>2026-04-03T14:17:40.85Z</time></trkpt><trkpt lat="44.9515669" lon="6.8804239"><ele>2088.285714285714</ele><time>2026-04-03T14:17:47.85Z</time></trkpt><trkpt lat="44.9515272" lon="6.8805112"><ele>2093.0</ele><time>2026-04-03T14:17:54.851Z</time></trkpt><trkpt lat="44.9514894" lon="6.8805996"><ele>2095.4285714285716</ele><time>2026-04-03T14:18:01.841Z</time></trkpt><trkpt lat="44.9514526" lon="6.8806815"><ele>2097.857142857143</ele><time>2026-04-03T14:18:08.849Z</time></trkpt><trkpt lat="44.9514217" lon="6.8807709"><ele>2100.285714285714</ele><time>2026-04-03T14:18:15.853Z</time></trkpt><trkpt lat="44.9513896" lon="6.8808638"><ele>2102.714285714286</ele><time>2026-04-03T14:18:22.852Z</time></trkpt><trkpt lat="44.951356" lon="6.8809555"><ele>2105.1428571428573</ele><time>2026-04-03T14:18:29.858Z</time></trkpt><trkpt lat="44.9513221" lon="6.8810467"><ele>2107.5714285714284</ele><time>2026-04-03T14:18:36.847Z</time></trkpt><trkpt lat="44.9512887" lon="6.8811386"><ele>2110.0</ele><time>2026-04-03T14:18:42.843Z</time></trkpt><trkpt lat="44.9512556" lon="6.8812222"><ele>2111.5714285714284</ele><time>2026-04-03T14:18:46.843Z</time></trkpt><trkpt lat="44.9512209" lon="6.8813036"><ele>2113.1428571428573</ele><time>2026-04-03T14:18:50.849Z</time></trkpt><trkpt lat="44.9511864" lon="6.8813843"><ele>2114.714285714286</ele><time>2026-04-03T14:18:54.843Z</time></trkpt><trkpt lat="44.9511512" lon="6.8814644"><ele>2116.285714285714</ele><time>2026-04-03T14:18:58.856Z</time></trkpt><trkpt lat="44.9511175" lon="6.8815478"><ele>2117.857142857143</ele><time>2026-04-03T14:19:02.851Z</time></trkpt><trkpt lat="44.9510841" lon="6.8816298"><ele>2119.4285714285716</ele><time>2026-04-03T14:19:06.86Z</time></trkpt><trkpt lat="44.9510486" lon="6.8817118"><ele>2121.0</ele><time>2026-04-03T14:19:10.86Z</time></trkpt><trkpt lat="44.9510142" lon="6.8817942"><ele>2122.285714285714</ele><time>2026-04-03T14:19:14.851Z</time></trkpt><trkpt lat="44.9509821" lon="6.8818797"><ele>2123.5714285714284</ele><time>2026-04-03T14:19:18.853Z</time></trkpt><trkpt lat="44.950951" lon="6.8819659"><ele>2124.857142857143</ele><time>2026-04-03T14:19:22.851Z</time></trkpt><trkpt lat="44.9509196" lon="6.8820498"><ele>2126.142857142857</ele><time>2026-04-03T14:19:26.849Z</time></trkpt><trkpt lat="44.9509132" lon="6.8821511"><ele>2127.4285714285716</ele><time>2026-04-03T14:19:30.85Z</time></trkpt><trkpt lat="44.9508786" lon="6.8822323"><ele>2128.714285714286</ele><time>2026-04-03T14:19:34.858Z</time></trkpt><trkpt lat="44.9508441" lon="6.8823096"><ele>2130.0</ele><time>2026-04-03T14:19:38.862Z</time></trkpt><trkpt lat="44.9508089" lon="6.882387"><ele>2134.714285714286</ele><time>2026-04-03T14:19:42.858Z</time></trkpt><trkpt lat="44.9507746" lon="6.8824641"><ele>2139.4285714285716</ele><time>2026-04-03T14:19:46.86Z</time></trkpt><trkpt lat="44.9507384" lon="6.8825431"><ele>2144.142857142857</ele><time>2026-04-03T14:19:50.852Z</time></trkpt><trkpt lat="44.9507026" lon="6.8826264"><ele>2148.857142857143</ele><time>2026-04-03T14:19:54.852Z</time></trkpt><trkpt lat="44.950666" lon="6.882712"><ele>2153.5714285714284</ele><time>2026-04-03T14:19:58.861Z</time></trkpt><trkpt lat="44.9506301" lon="6.882799"><ele>2158.285714285714</ele><time>2026-04-03T14:20:02.853Z</time></trkpt><trkpt lat="44.9505945" lon="6.8828869"><ele>2163.0</ele><time>2026-04-03T14:20:06.855Z</time></trkpt><trkpt lat="44.9505602" lon="6.8829716"><ele>2165.1428571428573</ele><time>2026-04-03T14:20:10.861Z</time></trkpt><trkpt lat="44.9505243" lon="6.8830571"><ele>2167.285714285714</ele><time>2026-04-03T14:20:14.853Z</time></trkpt><trkpt lat="44.9504905" lon="6.8831445"><ele>2169.4285714285716</ele><time>2026-04-03T14:20:18.844Z</time></trkpt><trkpt lat="44.950457" lon="6.88323"><ele>2171.5714285714284</ele><time>2026-04-03T14:20:22.853Z</time></trkpt><trkpt lat="44.9504219" lon="6.8833132"><ele>2173.714285714286</ele><time>2026-04-03T14:20:26.841Z</time></trkpt><trkpt lat="44.9503887" lon="6.8833964"><ele>2175.857142857143</ele><time>2026-04-03T14:20:30.851Z</time></trkpt><trkpt lat="44.9503547" lon="6.8834824"><ele>2178.0</ele><time>2026-04-03T14:20:34.844Z</time></trkpt><trkpt lat="44.9503219" lon="6.8835647"><ele>2180.8333333333335</ele><time>2026-04-03T14:20:38.859Z</time></trkpt><trkpt lat="44.9502827" lon="6.8836577"><ele>2183.6666666666665</ele><time>2026-04-03T14:20:43.847Z</time></trkpt><trkpt lat="44.9502449" lon="6.8837484"><ele>2186.5</ele><time>2026-04-03T14:20:48.848Z</time></trkpt><trkpt lat="44.9502053" lon="6.8838449"><ele>2189.333333333333</ele><time>2026-04-03T14:20:53.853Z</time></trkpt><trkpt lat="44.9501679" lon="6.8839424"><ele>2192.1666666666665</ele><time>2026-04-03T14:20:58.854Z</time></trkpt><trkpt lat="44.9501305" lon="6.884038"><ele>2195.0</ele><time>2026-04-03T14:21:03.853Z</time></trkpt><trkpt lat="44.9500917" lon="6.8841318"><ele>2195.0</ele><time>2026-04-03T14:21:08.841Z</time></trkpt><trkpt lat="44.9500555" lon="6.8842254"><ele>2195.0</ele><time>2026-04-03T14:21:13.851Z</time></trkpt><trkpt lat="44.9500171" lon="6.8843242"><ele>2195.0</ele><time>2026-04-03T14:21:18.841Z</time></trkpt><trkpt lat="44.949985" lon="6.8844032"><ele>2195.0</ele><time>2026-04-03T14:21:22.848Z</time></trkpt><trkpt lat="44.9499537" lon="6.8844834"><ele>2195.0</ele><time>2026-04-03T14:21:26.851Z</time></trkpt><trkpt lat="44.9499213" lon="6.8845664"><ele>2195.0</ele><time>2026-04-03T14:21:30.846Z</time></trkpt><trkpt lat="44.9498879" lon="6.8846511"><ele>2195.0</ele><time>2026-04-03T14:21:34.847Z</time></trkpt><trkpt lat="44.9498556" lon="6.8847325"><ele>2202.4285714285716</ele><time>2026-04-03T14:21:38.853Z</time></trkpt><trkpt lat="44.9498241" lon="6.884816"><ele>2209.8571428571427</ele><time>2026-04-03T14:21:42.846Z</time></trkpt><trkpt lat="44.9497927" lon="6.8848993"><ele>2217.285714285714</ele><time>2026-04-03T14:21:46.858Z</time></trkpt><trkpt lat="44.9497593" lon="6.8849819"><ele>2224.714285714286</ele><time>2026-04-03T14:21:50.846Z</time></trkpt><trkpt lat="44.9497272" lon="6.8850636"><ele>2232.142857142857</ele><time>2026-04-03T14:21:54.861Z</time></trkpt><trkpt lat="44.9496925" lon="6.8851508"><ele>2239.5714285714284</ele><time>2026-04-03T14:21:58.855Z</time></trkpt><trkpt lat="44.9496589" lon="6.8852379"><ele>2247.0</ele><time>2026-04-03T14:22:02.858Z</time></trkpt><trkpt lat="44.9496259" lon="6.8853247"><ele>2249.0</ele><time>2026-04-03T14:22:06.844Z</time></trkpt><trkpt lat="44.9495915" lon="6.8854094"><ele>2251.0</ele><time>2026-04-03T14:22:10.847Z</time></trkpt><trkpt lat="44.9495589" lon="6.8854946"><ele>2253.0</ele><time>2026-04-03T14:22:14.852Z</time></trkpt><trkpt lat="44.9495229" lon="6.8855824"><ele>2255.0</ele><time>2026-04-03T14:22:18.845Z</time></trkpt><trkpt lat="44.9494896" lon="6.8856715"><ele>2257.0</ele><time>2026-04-03T14:22:22.844Z</time></trkpt><trkpt lat="44.9494563" lon="6.8857606"><ele>2259.0</ele><time>2026-04-03T14:22:26.852Z</time></trkpt><trkpt lat="44.9494226" lon="6.8858499"><ele>2261.0</ele><time>2026-04-03T14:22:30.852Z</time></trkpt><trkpt lat="44.9493898" lon="6.8859403"><ele>2261.5714285714284</ele><time>2026-04-03T14:22:34.848Z</time></trkpt><trkpt lat="44.9493564" lon="6.8860302"><ele>2262.142857142857</ele><time>2026-04-03T14:22:38.847Z</time></trkpt><trkpt lat="44.9493213" lon="6.886118"><ele>2262.714285714286</ele><time>2026-04-03T14:22:42.849Z</time></trkpt><trkpt lat="44.9492881" lon="6.8862063"><ele>2263.285714285714</ele><time>2026-04-03T14:22:46.85Z</time></trkpt><trkpt lat="44.9492576" lon="6.8862959"><ele>2263.8571428571427</ele><time>2026-04-03T14:22:50.86Z</time></trkpt><trkpt lat="44.9492249" lon="6.8863883"><ele>2264.4285714285716</ele><time>2026-04-03T14:22:54.857Z</time></trkpt><trkpt lat="44.9491896" lon="6.8864804"><ele>2265.0</ele><time>2026-04-03T14:22:58.852Z</time></trkpt><trkpt lat="44.9491544" lon="6.8865697"><ele>2267.285714285714</ele><time>2026-04-03T14:23:02.851Z</time></trkpt><trkpt lat="44.9491158" lon="6.8866574"><ele>2269.5714285714284</ele><time>2026-04-03T14:23:06.847Z</time></trkpt><trkpt lat="44.9490794" lon="6.8867499"><ele>2271.8571428571427</ele><time>2026-04-03T14:23:10.839Z</time></trkpt><trkpt lat="44.9490439" lon="6.8868391"><ele>2274.142857142857</ele><time>2026-04-03T14:23:14.846Z</time></trkpt><trkpt lat="44.9490071" lon="6.8869397"><ele>2276.4285714285716</ele><time>2026-04-03T14:23:19.845Z</time></trkpt><trkpt lat="44.9489723" lon="6.8870406"><ele>2278.7142857142853</ele><time>2026-04-03T14:23:23.849Z</time></trkpt><trkpt lat="44.9489111" lon="6.8870726"><ele>2281.0</ele><time>2026-04-03T14:23:25.852Z</time></trkpt><trkpt lat="44.9488412" lon="6.8870831"><ele>2281.0</ele><time>2026-04-03T14:23:28.848Z</time></trkpt><trkpt lat="44.9487772" lon="6.8870808"><ele>2281.0</ele><time>2026-04-03T14:23:32.844Z</time></trkpt><trkpt lat="44.9486905" lon="6.8870907"><ele>2281.0</ele><time>2026-04-03T14:23:35.856Z</time></trkpt><trkpt lat="44.9486017" lon="6.8870912"><ele>2281.0</ele><time>2026-04-03T14:23:37.851Z</time></trkpt><trkpt lat="44.948548" lon="6.8869415"><ele>2281.0</ele><time>2026-04-03T14:23:39.847Z</time></trkpt><trkpt lat="44.9485618" lon="6.8868545"><ele>2281.0</ele><time>2026-04-03T14:23:40.856Z</time></trkpt><trkpt lat="44.9485566" lon="6.8867477"><ele>2281.0</ele><time>2026-04-03T14:23:41.854Z</time></trkpt><trkpt lat="44.9485101" lon="6.8866474"><ele>2281.0</ele><time>2026-04-03T14:23:42.851Z</time></trkpt><trkpt lat="44.9484914" lon="6.8865269"><ele>2281.0</ele><time>2026-04-03T14:23:43.853Z</time></trkpt><trkpt lat="44.9485221" lon="6.8864061"><ele>2281.0</ele><time>2026-04-03T14:23:44.849Z</time></trkpt><trkpt lat="44.9485763" lon="6.8863043"><ele>2281.0</ele><time>2026-04-03T14:23:45.847Z</time></trkpt><trkpt lat="44.9486084" lon="6.8861689"><ele>2281.0</ele><time>2026-04-03T14:23:46.857Z</time></trkpt><trkpt lat="44.9486125" lon="6.8860182"><ele>2281.0</ele><time>2026-04-03T14:23:47.852Z</time></trkpt><trkpt lat="44.9486658" lon="6.8858803"><ele>2281.0</ele><time>2026-04-03T14:23:48.858Z</time></trkpt><trkpt lat="44.9486845" lon="6.8857207"><ele>2281.0</ele><time>2026-04-03T14:23:49.843Z</time></trkpt><trkpt lat="44.9487385" lon="6.8855697"><ele>2277.5</ele><time>2026-04-03T14:23:50.852Z</time></trkpt><trkpt lat="44.9488039" lon="6.8854205"><ele>2274.0</ele><time>2026-04-03T14:23:51.849Z</time></trkpt><trkpt lat="44.9487963" lon="6.8852432"><ele>2270.5</ele><time>2026-04-03T14:23:52.857Z</time></trkpt><trkpt lat="44.948806" lon="6.8850616"><ele>2267.0</ele><time>2026-04-03T14:23:53.85Z</time></trkpt><trkpt lat="44.9488598" lon="6.8848936"><ele>2263.5</ele><time>2026-04-03T14:23:54.849Z</time></trkpt><trkpt lat="44.9489353" lon="6.8847517"><ele>2260.0</ele><time>2026-04-03T14:23:55.86Z</time></trkpt><trkpt lat="44.9489821" lon="6.884585"><ele>2256.5</ele><time>2026-04-03T14:23:56.854Z</time></trkpt><trkpt lat="44.9489779" lon="6.8844162"><ele>2253.0</ele><time>2026-04-03T14:23:57.845Z</time></trkpt><trkpt lat="44.9489633" lon="6.8842452"><ele>2249.8</ele><time>2026-04-03T14:23:58.848Z</time></trkpt><trkpt lat="44.9490031" lon="6.8841203"><ele>2246.6000000000004</ele><time>2026-04-03T14:23:59.851Z</time></trkpt><trkpt lat="44.9491042" lon="6.8840193"><ele>2243.3999999999996</ele><time>2026-04-03T14:24:01.848Z</time></trkpt><trkpt lat="44.949142" lon="6.8838752"><ele>2240.2</ele><time>2026-04-03T14:24:03.848Z</time></trkpt><trkpt lat="44.9491084" lon="6.8837996"><ele>2237.0</ele><time>2026-04-03T14:24:04.851Z</time></trkpt><trkpt lat="44.9490967" lon="6.8836858"><ele>2237.0</ele><time>2026-04-03T14:24:05.839Z</time></trkpt><trkpt lat="44.9491416" lon="6.883576"><ele>2237.0</ele><time>2026-04-03T14:24:06.852Z</time></trkpt><trkpt lat="44.9492269" lon="6.8835094"><ele>2237.0</ele><time>2026-04-03T14:24:07.854Z</time></trkpt><trkpt lat="44.9493297" lon="6.8834977"><ele>2237.0</ele><time>2026-04-03T14:24:08.861Z</time></trkpt><trkpt lat="44.9494285" lon="6.8834633"><ele>2237.0</ele><time>2026-04-03T14:24:09.855Z</time></trkpt><trkpt lat="44.9495338" lon="6.8834292"><ele>2228.25</ele><time>2026-04-03T14:24:10.85Z</time></trkpt><trkpt lat="44.9496378" lon="6.8833473"><ele>2219.5</ele><time>2026-04-03T14:24:11.856Z</time></trkpt><trkpt lat="44.9497261" lon="6.8832702"><ele>2210.75</ele><time>2026-04-03T14:24:12.859Z</time></trkpt><trkpt lat="44.949744" lon="6.883172"><ele>2202.0</ele><time>2026-04-03T14:24:13.854Z</time></trkpt><trkpt lat="44.9496349" lon="6.8828607"><ele>2202.0</ele><time>2026-04-03T14:24:14.841Z</time></trkpt><trkpt lat="44.9497427" lon="6.882784"><ele>2202.0</ele><time>2026-04-03T14:24:15.847Z</time></trkpt><trkpt lat="44.9498262" lon="6.8827467"><ele>2202.0</ele><time>2026-04-03T14:24:16.853Z</time></trkpt><trkpt lat="44.9499096" lon="6.8826516"><ele>2202.0</ele><time>2026-04-03T14:24:17.848Z</time></trkpt><trkpt lat="44.9499675" lon="6.8825041"><ele>2202.0</ele><time>2026-04-03T14:24:18.858Z</time></trkpt><trkpt lat="44.949952" lon="6.8823285"><ele>2197.75</ele><time>2026-04-03T14:24:19.851Z</time></trkpt><trkpt lat="44.9499045" lon="6.8821681"><ele>2193.5</ele><time>2026-04-03T14:24:20.848Z</time></trkpt><trkpt lat="44.9498312" lon="6.8820415"><ele>2189.25</ele><time>2026-04-03T14:24:21.846Z</time></trkpt><trkpt lat="44.9497992" lon="6.8818869"><ele>2185.0</ele><time>2026-04-03T14:24:22.851Z</time></trkpt><trkpt lat="44.949829" lon="6.8817443"><ele>2181.4</ele><time>2026-04-03T14:24:23.84Z</time></trkpt><trkpt lat="44.9498896" lon="6.8816359"><ele>2177.8</ele><time>2026-04-03T14:24:24.841Z</time></trkpt><trkpt lat="44.9499724" lon="6.8815771"><ele>2174.2</ele><time>2026-04-03T14:24:25.85Z</time></trkpt><trkpt lat="44.9500483" lon="6.8814744"><ele>2170.6</ele><time>2026-04-03T14:24:26.856Z</time></trkpt><trkpt lat="44.9501304" lon="6.8813678"><ele>2167.0</ele><time>2026-04-03T14:24:27.844Z</time></trkpt><trkpt lat="44.9502236" lon="6.8813384"><ele>2161.7999999999997</ele><time>2026-04-03T14:24:28.842Z</time></trkpt><trkpt lat="44.950309" lon="6.8813904"><ele>2156.6</ele><time>2026-04-03T14:24:30.853Z</time></trkpt><trkpt lat="44.95037" lon="6.8814858"><ele>2151.3999999999996</ele><time>2026-04-03T14:24:33.857Z</time></trkpt><trkpt lat="44.9504943" lon="6.8815688"><ele>2146.2</ele><time>2026-04-03T14:24:35.847Z</time></trkpt><trkpt lat="44.9505782" lon="6.8815959"><ele>2141.0</ele><time>2026-04-03T14:24:36.855Z</time></trkpt><trkpt lat="44.9506744" lon="6.8816063"><ele>2141.0</ele><time>2026-04-03T14:24:37.848Z</time></trkpt><trkpt lat="44.9507747" lon="6.8816353"><ele>2141.0</ele><time>2026-04-03T14:24:38.84Z</time></trkpt><trkpt lat="44.9508559" lon="6.8816954"><ele>2141.0</ele><time>2026-04-03T14:24:39.848Z</time></trkpt><trkpt lat="44.9509354" lon="6.8817608"><ele>2141.0</ele><time>2026-04-03T14:24:40.852Z</time></trkpt><trkpt lat="44.9510292" lon="6.8817841"><ele>2141.0</ele><time>2026-04-03T14:24:41.846Z</time></trkpt><trkpt lat="44.9511138" lon="6.8818338"><ele>2139.1666666666665</ele><time>2026-04-03T14:24:42.843Z</time></trkpt><trkpt lat="44.9511923" lon="6.8819075"><ele>2137.333333333333</ele><time>2026-04-03T14:24:43.845Z</time></trkpt><trkpt lat="44.951254" lon="6.8819946"><ele>2135.5</ele><time>2026-04-03T14:24:44.846Z</time></trkpt><trkpt lat="44.9513152" lon="6.8820755"><ele>2133.6666666666665</ele><time>2026-04-03T14:24:45.84Z</time></trkpt><trkpt lat="44.9513671" lon="6.8821557"><ele>2131.8333333333335</ele><time>2026-04-03T14:24:46.845Z</time></trkpt><trkpt lat="44.9514343" lon="6.8821909"><ele>2130.0</ele><time>2026-04-03T14:24:47.849Z</time></trkpt><trkpt lat="44.9515026" lon="6.8821776"><ele>2130.0</ele><time>2026-04-03T14:24:48.847Z</time></trkpt><trkpt lat="44.9515722" lon="6.8822149"><ele>2130.0</ele><time>2026-04-03T14:24:49.849Z</time></trkpt><trkpt lat="44.9516398" lon="6.8822589"><ele>2130.0</ele><time>2026-04-03T14:24:50.85Z</time></trkpt><trkpt lat="44.9517165" lon="6.882304"><ele>2130.0</ele><time>2026-04-03T14:24:51.849Z</time></trkpt><trkpt lat="44.9517906" lon="6.8823754"><ele>2130.0</ele><time>2026-04-03T14:24:52.846Z</time></trkpt><trkpt lat="44.9518768" lon="6.8824354"><ele>2130.0</ele><time>2026-04-03T14:24:53.857Z</time></trkpt><trkpt lat="44.9519813" lon="6.8824524"><ele>2126.0</ele><time>2026-04-03T14:24:54.844Z</time></trkpt><trkpt lat="44.9520852" lon="6.8825031"><ele>2122.0</ele><time>2026-04-03T14:24:55.853Z</time></trkpt><trkpt lat="44.9521877" lon="6.8825941"><ele>2118.0</ele><time>2026-04-03T14:24:56.848Z</time></trkpt><trkpt lat="44.9522967" lon="6.8826759"><ele>2114.0</ele><time>2026-04-03T14:24:57.852Z</time></trkpt><trkpt lat="44.9524125" lon="6.8827556"><ele>2114.0</ele><time>2026-04-03T14:24:58.85Z</time></trkpt><trkpt lat="44.9525291" lon="6.8828438"><ele>2114.0</ele><time>2026-04-03T14:24:59.847Z</time></trkpt><trkpt lat="44.9526395" lon="6.8829488"><ele>2114.0</ele><time>2026-04-03T14:25:00.84Z</time></trkpt><trkpt lat="44.9527503" lon="6.8830343"><ele>2114.0</ele><time>2026-04-03T14:25:01.848Z</time></trkpt><trkpt lat="44.9528488" lon="6.8831062"><ele>2111.1666666666665</ele><time>2026-04-03T14:25:02.842Z</time></trkpt><trkpt lat="44.9529215" lon="6.8831884"><ele>2108.333333333333</ele><time>2026-04-03T14:25:03.857Z</time></trkpt><trkpt lat="44.9529456" lon="6.8832786"><ele>2105.5</ele><time>2026-04-03T14:25:04.85Z</time></trkpt><trkpt lat="44.9529624" lon="6.8833719"><ele>2102.6666666666665</ele><time>2026-04-03T14:25:05.845Z</time></trkpt><trkpt lat="44.9530618" lon="6.8834463"><ele>2099.8333333333335</ele><time>2026-04-03T14:25:07.853Z</time></trkpt><trkpt lat="44.9531444" lon="6.8834339"><ele>2097.0</ele><time>2026-04-03T14:25:08.847Z</time></trkpt><trkpt lat="44.9532386" lon="6.8834638"><ele>2097.0</ele><time>2026-04-03T14:25:09.849Z</time></trkpt><trkpt lat="44.9533458" lon="6.8835051"><ele>2097.0</ele><time>2026-04-03T14:25:10.852Z</time></trkpt><trkpt lat="44.9534563" lon="6.8835262"><ele>2097.0</ele><time>2026-04-03T14:25:11.846Z</time></trkpt><trkpt lat="44.9535658" lon="6.8835458"><ele>2097.0</ele><time>2026-04-03T14:25:12.854Z</time></trkpt><trkpt lat="44.9536851" lon="6.8835073"><ele>2085.6666666666665</ele><time>2026-04-03T14:25:13.851Z</time></trkpt><trkpt lat="44.9537852" lon="6.8833621"><ele>2074.333333333333</ele><time>2026-04-03T14:25:14.852Z</time></trkpt><trkpt lat="44.9539525" lon="6.8832306"><ele>2063.0</ele><time>2026-04-03T14:25:15.848Z</time></trkpt><trkpt lat="44.9540228" lon="6.8830921"><ele>2063.0</ele><time>2026-04-03T14:25:16.851Z</time></trkpt><trkpt lat="44.9541472" lon="6.8829902"><ele>2063.0</ele><time>2026-04-03T14:25:17.845Z</time></trkpt><trkpt lat="44.9542711" lon="6.8828805"><ele>2063.0</ele><time>2026-04-03T14:25:18.856Z</time></trkpt><trkpt lat="44.9544165" lon="6.8827135"><ele>2056.0</ele><time>2026-04-03T14:25:19.857Z</time></trkpt><trkpt lat="44.9544846" lon="6.8825194"><ele>2049.0</ele><time>2026-04-03T14:25:20.859Z</time></trkpt><trkpt lat="44.9545993" lon="6.8823906"><ele>2042.0</ele><time>2026-04-03T14:25:21.856Z</time></trkpt><trkpt lat="44.95473" lon="6.8823524"><ele>2035.0</ele><time>2026-04-03T14:25:22.853Z</time></trkpt><trkpt lat="44.9548592" lon="6.8822088"><ele>2035.0</ele><time>2026-04-03T14:25:23.844Z</time></trkpt><trkpt lat="44.9549557" lon="6.8820693"><ele>2035.0</ele><time>2026-04-03T14:25:24.838Z</time></trkpt><trkpt lat="44.9550958" lon="6.8820175"><ele>2035.0</ele><time>2026-04-03T14:25:25.837Z</time></trkpt><trkpt lat="44.9552178" lon="6.8820069"><ele>2035.0</ele><time>2026-04-03T14:25:26.847Z</time></trkpt><trkpt lat="44.9553463" lon="6.8819839"><ele>2033.4</ele><time>2026-04-03T14:25:27.847Z</time></trkpt><trkpt lat="44.9554586" lon="6.8819427"><ele>2031.8</ele><time>2026-04-03T14:25:28.857Z</time></trkpt><trkpt lat="44.9555633" lon="6.8818805"><ele>2030.1999999999998</ele><time>2026-04-03T14:25:29.859Z</time></trkpt><trkpt lat="44.9556621" lon="6.8818157"><ele>2028.6</ele><time>2026-04-03T14:25:30.857Z</time></trkpt><trkpt lat="44.9557558" lon="6.881752"><ele>2027.0</ele><time>2026-04-03T14:25:31.844Z</time></trkpt><trkpt lat="44.9558469" lon="6.8816889"><ele>2026.9999999999998</ele><time>2026-04-03T14:25:32.851Z</time></trkpt><trkpt lat="44.9559237" lon="6.8816324"><ele>2027.0</ele><time>2026-04-03T14:25:33.863Z</time></trkpt><trkpt lat="44.9559847" lon="6.8815817"><ele>2027.0</ele><time>2026-04-03T14:25:34.855Z</time></trkpt><trkpt lat="44.9560466" lon="6.8815261"><ele>2027.0</ele><time>2026-04-03T14:25:35.846Z</time></trkpt><trkpt lat="44.9560909" lon="6.8814107"><ele>2026.9999999999998</ele><time>2026-04-03T14:25:37.856Z</time></trkpt><trkpt lat="44.956063" lon="6.8813252"><ele>2027.0</ele><time>2026-04-03T14:25:40.843Z</time></trkpt><trkpt lat="44.956002" lon="6.8811709"><ele>2027.0</ele><time>2026-04-03T14:26:57.852Z</time></trkpt><trkpt lat="44.9559636" lon="6.881084"><ele>2026.9999999999998</ele><time>2026-04-03T14:27:33.838Z</time></trkpt><trkpt lat="44.9558608" lon="6.881151"><ele>2026.9999999999998</ele><time>2026-04-03T14:27:36.843Z</time></trkpt><trkpt lat="44.9557812" lon="6.8812431"><ele>2027.0</ele><time>2026-04-03T14:27:38.844Z</time></trkpt><trkpt lat="44.9557009" lon="6.8813174"><ele>2027.0</ele><time>2026-04-03T14:27:40.848Z</time></trkpt><trkpt lat="44.9556275" lon="6.8813733"><ele>2026.8333333333333</ele><time>2026-04-03T14:27:42.86Z</time></trkpt><trkpt lat="44.9555479" lon="6.881433"><ele>2026.6666666666665</ele><time>2026-04-03T14:27:44.846Z</time></trkpt><trkpt lat="44.9554814" lon="6.8814878"><ele>2026.5</ele><time>2026-04-03T14:27:46.85Z</time></trkpt><trkpt lat="44.9554148" lon="6.8815402"><ele>2026.3333333333335</ele><time>2026-04-03T14:27:48.848Z</time></trkpt><trkpt lat="44.9553462" lon="6.881588"><ele>2026.1666666666667</ele><time>2026-04-03T14:27:50.855Z</time></trkpt><trkpt lat="44.9552759" lon="6.8816338"><ele>2026.0</ele><time>2026-04-03T14:27:52.848Z</time></trkpt><trkpt lat="44.9552191" lon="6.8816731"><ele>2026.0</ele><time>2026-04-03T14:27:54.855Z</time></trkpt><trkpt lat="44.9551553" lon="6.8817326"><ele>2026.0000000000002</ele><time>2026-04-03T14:27:56.854Z</time></trkpt><trkpt lat="44.9550934" lon="6.8817849"><ele>2026.0</ele><time>2026-04-03T14:27:58.842Z</time></trkpt><trkpt lat="44.9550301" lon="6.8818371"><ele>2026.0</ele><time>2026-04-03T14:28:00.842Z</time></trkpt><trkpt lat="44.9549636" lon="6.8818921"><ele>2026.0000000000002</ele><time>2026-04-03T14:28:02.849Z</time></trkpt><trkpt lat="44.9549023" lon="6.8819447"><ele>2026.0</ele><time>2026-04-03T14:28:04.847Z</time></trkpt><trkpt lat="44.954839" lon="6.8819961"><ele>2026.0</ele><time>2026-04-03T14:28:06.855Z</time></trkpt><trkpt lat="44.9547789" lon="6.8820447"><ele>2027.2857142857144</ele><time>2026-04-03T14:28:08.855Z</time></trkpt><trkpt lat="44.9547159" lon="6.8820916"><ele>2028.571428571429</ele><time>2026-04-03T14:28:10.861Z</time></trkpt><trkpt lat="44.9546537" lon="6.8821421"><ele>2029.857142857143</ele><time>2026-04-03T14:28:12.848Z</time></trkpt><trkpt lat="44.9545894" lon="6.8821896"><ele>2031.1428571428573</ele><time>2026-04-03T14:28:14.846Z</time></trkpt><trkpt lat="44.9545259" lon="6.8822395"><ele>2032.4285714285716</ele><time>2026-04-03T14:28:16.841Z</time></trkpt><trkpt lat="44.9544623" lon="6.8822872"><ele>2033.7142857142858</ele><time>2026-04-03T14:28:18.846Z</time></trkpt><trkpt lat="44.9543988" lon="6.8823371"><ele>2035.0</ele><time>2026-04-03T14:28:20.857Z</time></trkpt><trkpt lat="44.9543377" lon="6.8823861"><ele>2035.0</ele><time>2026-04-03T14:28:22.855Z</time></trkpt><trkpt lat="44.9542748" lon="6.8824339"><ele>2035.0</ele><time>2026-04-03T14:28:24.852Z</time></trkpt><trkpt lat="44.9542118" lon="6.8824852"><ele>2035.0</ele><time>2026-04-03T14:28:26.841Z</time></trkpt><trkpt lat="44.9541471" lon="6.8825354"><ele>2035.0</ele><time>2026-04-03T14:28:28.852Z</time></trkpt><trkpt lat="44.9540836" lon="6.882588"><ele>2035.0</ele><time>2026-04-03T14:28:30.858Z</time></trkpt><trkpt lat="44.9540197" lon="6.8826447"><ele>2035.0</ele><time>2026-04-03T14:28:32.857Z</time></trkpt><trkpt lat="44.953958" lon="6.8826912"><ele>2035.0</ele><time>2026-04-03T14:28:34.843Z</time></trkpt><trkpt lat="44.9538927" lon="6.8827359"><ele>2039.0</ele><time>2026-04-03T14:28:36.845Z</time></trkpt><trkpt lat="44.9538318" lon="6.8827845"><ele>2043.0</ele><time>2026-04-03T14:28:38.85Z</time></trkpt><trkpt lat="44.9537693" lon="6.8828328"><ele>2047.0</ele><time>2026-04-03T14:28:40.856Z</time></trkpt><trkpt lat="44.9537082" lon="6.8828893"><ele>2051.0</ele><time>2026-04-03T14:28:42.859Z</time></trkpt><trkpt lat="44.9536484" lon="6.8829385"><ele>2055.0</ele><time>2026-04-03T14:28:44.849Z</time></trkpt><trkpt lat="44.9535891" lon="6.8829885"><ele>2059.0</ele><time>2026-04-03T14:28:46.859Z</time></trkpt><trkpt lat="44.953529" lon="6.8830364"><ele>2063.0</ele><time>2026-04-03T14:28:48.859Z</time></trkpt><trkpt lat="44.9534699" lon="6.8830853"><ele>2063.0</ele><time>2026-04-03T14:28:50.847Z</time></trkpt><trkpt lat="44.9534095" lon="6.8831366"><ele>2063.0</ele><time>2026-04-03T14:28:52.851Z</time></trkpt><trkpt lat="44.9533488" lon="6.883186"><ele>2063.0</ele><time>2026-04-03T14:28:54.852Z</time></trkpt><trkpt lat="44.9532896" lon="6.8832389"><ele>2063.0</ele><time>2026-04-03T14:28:56.841Z</time></trkpt><trkpt lat="44.9532282" lon="6.883289"><ele>2063.0</ele><time>2026-04-03T14:28:58.847Z</time></trkpt><trkpt lat="44.9531689" lon="6.883338"><ele>2063.0</ele><time>2026-04-03T14:29:00.852Z</time></trkpt><trkpt lat="44.9531047" lon="6.8833862"><ele>2063.0</ele><time>2026-04-03T14:29:02.859Z</time></trkpt><trkpt lat="44.953045" lon="6.8834331"><ele>2067.8571428571427</ele><time>2026-04-03T14:29:04.849Z</time></trkpt><trkpt lat="44.9529855" lon="6.8834805"><ele>2072.714285714286</ele><time>2026-04-03T14:29:06.858Z</time></trkpt><trkpt lat="44.9529286" lon="6.8835283"><ele>2077.5714285714284</ele><time>2026-04-03T14:29:08.848Z</time></trkpt><trkpt lat="44.9528739" lon="6.8835746"><ele>2082.4285714285716</ele><time>2026-04-03T14:29:10.843Z</time></trkpt><trkpt lat="44.9528197" lon="6.8836224"><ele>2087.285714285714</ele><time>2026-04-03T14:29:12.849Z</time></trkpt><trkpt lat="44.9527568" lon="6.8836746"><ele>2092.142857142857</ele><time>2026-04-03T14:29:14.846Z</time></trkpt><trkpt lat="44.9526955" lon="6.8837203"><ele>2097.0</ele><time>2026-04-03T14:29:16.854Z</time></trkpt><trkpt lat="44.9526361" lon="6.8837676"><ele>2097.0</ele><time>2026-04-03T14:29:18.863Z</time></trkpt><trkpt lat="44.9525741" lon="6.8838173"><ele>2097.0</ele><time>2026-04-03T14:29:20.853Z</time></trkpt><trkpt lat="44.9525123" lon="6.8838692"><ele>2097.0</ele><time>2026-04-03T14:29:22.853Z</time></trkpt><trkpt lat="44.9524494" lon="6.8839203"><ele>2097.0</ele><time>2026-04-03T14:29:24.841Z</time></trkpt><trkpt lat="44.9523884" lon="6.8839714"><ele>2097.0</ele><time>2026-04-03T14:29:26.859Z</time></trkpt><trkpt lat="44.9523248" lon="6.8840208"><ele>2097.0</ele><time>2026-04-03T14:29:28.845Z</time></trkpt><trkpt lat="44.9522649" lon="6.8840771"><ele>2097.0</ele><time>2026-04-03T14:29:30.85Z</time></trkpt><trkpt lat="44.9522031" lon="6.884129"><ele>2100.714285714286</ele><time>2026-04-03T14:29:32.852Z</time></trkpt><trkpt lat="44.9521427" lon="6.8841792"><ele>2104.428571428571</ele><time>2026-04-03T14:29:34.855Z</time></trkpt><trkpt lat="44.9520807" lon="6.8842278"><ele>2108.142857142857</ele><time>2026-04-03T14:29:36.845Z</time></trkpt><trkpt lat="44.9520202" lon="6.8842768"><ele>2111.8571428571427</ele><time>2026-04-03T14:29:38.843Z</time></trkpt><trkpt lat="44.9519623" lon="6.8843234"><ele>2115.5714285714284</ele><time>2026-04-03T14:29:40.854Z</time></trkpt><trkpt lat="44.9519036" lon="6.8843725"><ele>2119.285714285714</ele><time>2026-04-03T14:29:42.847Z</time></trkpt><trkpt lat="44.9518432" lon="6.8844203"><ele>2123.0</ele><time>2026-04-03T14:29:44.853Z</time></trkpt><trkpt lat="44.951782" lon="6.8844681"><ele>2123.714285714286</ele><time>2026-04-03T14:29:46.856Z</time></trkpt><trkpt lat="44.951724" lon="6.884517"><ele>2124.4285714285716</ele><time>2026-04-03T14:29:48.856Z</time></trkpt><trkpt lat="44.9516655" lon="6.8845641"><ele>2125.142857142857</ele><time>2026-04-03T14:29:50.856Z</time></trkpt><trkpt lat="44.9516079" lon="6.8846116"><ele>2125.857142857143</ele><time>2026-04-03T14:29:52.857Z</time></trkpt><trkpt lat="44.9515485" lon="6.8846578"><ele>2126.5714285714284</ele><time>2026-04-03T14:29:54.851Z</time></trkpt><trkpt lat="44.9514923" lon="6.884702"><ele>2127.285714285714</ele><time>2026-04-03T14:29:56.847Z</time></trkpt><trkpt lat="44.9514335" lon="6.8847469"><ele>2128.0</ele><time>2026-04-03T14:29:58.849Z</time></trkpt><trkpt lat="44.9513765" lon="6.884793"><ele>2133.5714285714284</ele><time>2026-04-03T14:30:00.845Z</time></trkpt><trkpt lat="44.9513206" lon="6.884838"><ele>2139.142857142857</ele><time>2026-04-03T14:30:02.851Z</time></trkpt><trkpt lat="44.951264" lon="6.8848838"><ele>2144.714285714286</ele><time>2026-04-03T14:30:04.856Z</time></trkpt><trkpt lat="44.9512095" lon="6.8849298"><ele>2150.285714285714</ele><time>2026-04-03T14:30:06.85Z</time></trkpt><trkpt lat="44.9511525" lon="6.8849769"><ele>2155.8571428571427</ele><time>2026-04-03T14:30:08.856Z</time></trkpt><trkpt lat="44.9510966" lon="6.8850219"><ele>2161.4285714285716</ele><time>2026-04-03T14:30:10.856Z</time></trkpt><trkpt lat="44.9510406" lon="6.8850664"><ele>2167.0</ele><time>2026-04-03T14:30:12.848Z</time></trkpt><trkpt lat="44.9509834" lon="6.8851117"><ele>2167.8571428571427</ele><time>2026-04-03T14:30:14.846Z</time></trkpt><trkpt lat="44.9509281" lon="6.8851559"><ele>2168.7142857142853</ele><time>2026-04-03T14:30:16.842Z</time></trkpt><trkpt lat="44.9508694" lon="6.8852008"><ele>2169.5714285714284</ele><time>2026-04-03T14:30:18.847Z</time></trkpt><trkpt lat="44.950814" lon="6.885245"><ele>2170.4285714285716</ele><time>2026-04-03T14:30:20.857Z</time></trkpt><trkpt lat="44.9507584" lon="6.8852912"><ele>2171.2857142857147</ele><time>2026-04-03T14:30:22.84Z</time></trkpt><trkpt lat="44.9506991" lon="6.8853369"><ele>2172.1428571428573</ele><time>2026-04-03T14:30:24.851Z</time></trkpt><trkpt lat="44.9506416" lon="6.8853822"><ele>2173.0</ele><time>2026-04-03T14:30:26.842Z</time></trkpt><trkpt lat="44.9505848" lon="6.8854268"><ele>2179.666666666667</ele><time>2026-04-03T14:30:28.842Z</time></trkpt><trkpt lat="44.9505296" lon="6.885471"><ele>2186.3333333333335</ele><time>2026-04-03T14:30:30.846Z</time></trkpt><trkpt lat="44.9504487" lon="6.8855356"><ele>2193.0</ele><time>2026-04-03T14:30:33.854Z</time></trkpt><trkpt lat="44.9503735" lon="6.8855947"><ele>2199.6666666666665</ele><time>2026-04-03T14:30:36.852Z</time></trkpt><trkpt lat="44.9502897" lon="6.8856633"><ele>2206.333333333333</ele><time>2026-04-03T14:30:39.843Z</time></trkpt><trkpt lat="44.9502297" lon="6.8857117"><ele>2213.0</ele><time>2026-04-03T14:30:41.849Z</time></trkpt><trkpt lat="44.9501718" lon="6.8857597"><ele>2213.0000000000005</ele><time>2026-04-03T14:30:43.849Z</time></trkpt><trkpt lat="44.9501128" lon="6.8858085"><ele>2213.0</ele><time>2026-04-03T14:30:45.841Z</time></trkpt><trkpt lat="44.9500576" lon="6.8858532"><ele>2213.0</ele><time>2026-04-03T14:30:47.841Z</time></trkpt><trkpt lat="44.9499992" lon="6.8859002"><ele>2213.0</ele><time>2026-04-03T14:30:49.848Z</time></trkpt><trkpt lat="44.9499397" lon="6.8859501"><ele>2213.0</ele><time>2026-04-03T14:30:51.842Z</time></trkpt><trkpt lat="44.9498814" lon="6.8859996"><ele>2213.0000000000005</ele><time>2026-04-03T14:30:53.854Z</time></trkpt><trkpt lat="44.949822" lon="6.8860477"><ele>2213.0</ele><time>2026-04-03T14:30:55.857Z</time></trkpt><trkpt lat="44.9497477" lon="6.8861136"><ele>2220.4285714285716</ele><time>2026-04-03T14:30:58.852Z</time></trkpt><trkpt lat="44.9496836" lon="6.8861653"><ele>2227.857142857143</ele><time>2026-04-03T14:31:00.848Z</time></trkpt><trkpt lat="44.9496211" lon="6.8862179"><ele>2235.285714285714</ele><time>2026-04-03T14:31:02.847Z</time></trkpt><trkpt lat="44.9495599" lon="6.8862718"><ele>2242.714285714286</ele><time>2026-04-03T14:31:04.847Z</time></trkpt><trkpt lat="44.9495019" lon="6.8863203"><ele>2250.142857142857</ele><time>2026-04-03T14:31:06.847Z</time></trkpt><trkpt lat="44.9494414" lon="6.8863699"><ele>2257.5714285714284</ele><time>2026-04-03T14:31:08.847Z</time></trkpt><trkpt lat="44.9493791" lon="6.8864206"><ele>2265.0</ele><time>2026-04-03T14:31:10.842Z</time></trkpt><trkpt lat="44.9493177" lon="6.8864716"><ele>2265.0</ele><time>2026-04-03T14:31:12.847Z</time></trkpt><trkpt lat="44.9492573" lon="6.8865222"><ele>2265.0</ele><time>2026-04-03T14:31:14.842Z</time></trkpt><trkpt lat="44.9491965" lon="6.8865795"><ele>2265.0</ele><time>2026-04-03T14:31:16.846Z</time></trkpt><trkpt lat="44.9491354" lon="6.886635"><ele>2265.0</ele><time>2026-04-03T14:31:18.859Z</time></trkpt><trkpt lat="44.9490741" lon="6.8866894"><ele>2265.0</ele><time>2026-04-03T14:31:20.856Z</time></trkpt><trkpt lat="44.9490118" lon="6.886745"><ele>2265.0</ele><time>2026-04-03T14:31:22.849Z</time></trkpt><trkpt lat="44.948951" lon="6.886799"><ele>2265.0</ele><time>2026-04-03T14:31:24.849Z</time></trkpt><trkpt lat="44.9488853" lon="6.8868347"><ele>2268.0</ele><time>2026-04-03T14:31:26.841Z</time></trkpt><trkpt lat="44.9488204" lon="6.8868753"><ele>2271.0</ele><time>2026-04-03T14:31:28.852Z</time></trkpt><trkpt lat="44.9487612" lon="6.8869203"><ele>2274.0</ele><time>2026-04-03T14:31:30.853Z</time></trkpt><trkpt lat="44.9487005" lon="6.8869704"><ele>2277.0</ele><time>2026-04-03T14:31:32.841Z</time></trkpt><trkpt lat="44.9486389" lon="6.8870208"><ele>2280.0</ele><time>2026-04-03T14:31:34.849Z</time></trkpt><trkpt lat="44.948576" lon="6.8870733"><ele>2283.0</ele><time>2026-04-03T14:31:36.853Z</time></trkpt><trkpt lat="44.9485146" lon="6.8871265"><ele>2286.0</ele><time>2026-04-03T14:31:38.851Z</time></trkpt><trkpt lat="44.9484532" lon="6.8871869"><ele>2286.0</ele><time>2026-04-03T14:31:40.848Z</time></trkpt><trkpt lat="44.9483907" lon="6.8872413"><ele>2286.0</ele><time>2026-04-03T14:31:42.842Z</time></trkpt><trkpt lat="44.9483293" lon="6.8872916"><ele>2286.0</ele><time>2026-04-03T14:31:44.847Z</time></trkpt><trkpt lat="44.9482672" lon="6.8873418"><ele>2286.0</ele><time>2026-04-03T14:31:46.855Z</time></trkpt><trkpt lat="44.9482045" lon="6.8873929"><ele>2286.0</ele><time>2026-04-03T14:31:48.857Z</time></trkpt><trkpt lat="44.948142" lon="6.8874449"><ele>2286.0</ele><time>2026-04-03T14:31:50.838Z</time></trkpt><trkpt lat="44.9480785" lon="6.8874984"><ele>2286.0</ele><time>2026-04-03T14:31:52.848Z</time></trkpt><trkpt lat="44.9480158" lon="6.8875523"><ele>2287.0</ele><time>2026-04-03T14:31:54.86Z</time></trkpt><trkpt lat="44.94794" lon="6.8876184"><ele>2288.0</ele><time>2026-04-03T14:31:56.845Z</time></trkpt><trkpt lat="44.9478803" lon="6.8876676"><ele>2289.0</ele><time>2026-04-03T14:31:58.851Z</time></trkpt><trkpt lat="44.9478128" lon="6.887725"><ele>2290.0</ele><time>2026-04-03T14:32:01.852Z</time></trkpt><trkpt lat="44.9477449" lon="6.887782"><ele>2291.0</ele><time>2026-04-03T14:32:04.851Z</time></trkpt><trkpt lat="44.9476668" lon="6.8878388"><ele>2292.0</ele><time>2026-04-03T14:32:07.847Z</time></trkpt><trkpt lat="44.9476097" lon="6.8878805"><ele>2292.0</ele><time>2026-04-03T14:32:09.851Z</time></trkpt><trkpt lat="44.9475519" lon="6.8879274"><ele>2292.0</ele><time>2026-04-03T14:32:11.846Z</time></trkpt><trkpt lat="44.9474898" lon="6.8879754"><ele>2292.0</ele><time>2026-04-03T14:32:13.849Z</time></trkpt><trkpt lat="44.9474335" lon="6.8880215"><ele>2292.0</ele><time>2026-04-03T14:32:15.839Z</time></trkpt><trkpt lat="44.9473767" lon="6.8880654"><ele>2292.0</ele><time>2026-04-03T14:32:17.843Z</time></trkpt><trkpt lat="44.9473202" lon="6.8881111"><ele>2292.0</ele><time>2026-04-03T14:32:19.851Z</time></trkpt><trkpt lat="44.9472625" lon="6.8881561"><ele>2292.0</ele><time>2026-04-03T14:32:21.85Z</time></trkpt><trkpt lat="44.9472037" lon="6.8882035"><ele>2295.0</ele><time>2026-04-03T14:32:23.849Z</time></trkpt><trkpt lat="44.9471432" lon="6.8882481"><ele>2298.0</ele><time>2026-04-03T14:32:25.842Z</time></trkpt><trkpt lat="44.9470838" lon="6.888294"><ele>2301.0</ele><time>2026-04-03T14:32:27.853Z</time></trkpt><trkpt lat="44.9470263" lon="6.8883393"><ele>2304.0</ele><time>2026-04-03T14:32:29.848Z</time></trkpt><trkpt lat="44.9469441" lon="6.8884047"><ele>2307.0</ele><time>2026-04-03T14:32:32.844Z</time></trkpt><trkpt lat="44.9468847" lon="6.8884552"><ele>2310.0</ele><time>2026-04-03T14:32:34.847Z</time></trkpt><trkpt lat="44.9468263" lon="6.888511"><ele>2313.0</ele><time>2026-04-03T14:32:36.849Z</time></trkpt><trkpt lat="44.9467479" lon="6.8885549"><ele>2318.0</ele><time>2026-04-03T14:32:43.858Z</time></trkpt><trkpt lat="44.9466632" lon="6.8885404"><ele>2323.0</ele><time>2026-04-03T14:32:45.839Z</time></trkpt><trkpt lat="44.9465957" lon="6.8884368"><ele>2328.0</ele><time>2026-04-03T14:32:47.847Z</time></trkpt><trkpt lat="44.946642" lon="6.8883622"><ele>2333.0</ele><time>2026-04-03T14:32:49.858Z</time></trkpt><trkpt lat="44.9466527" lon="6.8882717"><ele>2338.0</ele><time>2026-04-03T14:32:51.853Z</time></trkpt><trkpt lat="44.9466234" lon="6.8881705"><ele>2343.0</ele><time>2026-04-03T14:32:53.851Z</time></trkpt><trkpt lat="44.9465243" lon="6.8881036"><ele>2343.0</ele><time>2026-04-03T14:32:55.843Z</time></trkpt><trkpt lat="44.946517" lon="6.8880013"><ele>2343.0</ele><time>2026-04-03T14:32:56.845Z</time></trkpt><trkpt lat="44.9464868" lon="6.8879202"><ele>2343.0</ele><time>2026-04-03T14:32:57.854Z</time></trkpt><trkpt lat="44.9465288" lon="6.8877577"><ele>2343.0</ele><time>2026-04-03T14:32:59.858Z</time></trkpt><trkpt lat="44.946628" lon="6.8876608"><ele>2343.0</ele><time>2026-04-03T14:33:01.851Z</time></trkpt><trkpt lat="44.9467146" lon="6.8876335"><ele>2337.0</ele><time>2026-04-03T14:33:02.854Z</time></trkpt><trkpt lat="44.9468017" lon="6.8877608"><ele>2331.0</ele><time>2026-04-03T14:33:03.857Z</time></trkpt><trkpt lat="44.9468897" lon="6.8877648"><ele>2325.0</ele><time>2026-04-03T14:33:04.847Z</time></trkpt><trkpt lat="44.9469869" lon="6.8877791"><ele>2319.0</ele><time>2026-04-03T14:33:05.843Z</time></trkpt><trkpt lat="44.9470756" lon="6.8878222"><ele>2313.0</ele><time>2026-04-03T14:33:06.851Z</time></trkpt><trkpt lat="44.9471599" lon="6.8878985"><ele>2313.0</ele><time>2026-04-03T14:33:07.844Z</time></trkpt><trkpt lat="44.9472392" lon="6.887969"><ele>2313.0</ele><time>2026-04-03T14:33:08.844Z</time></trkpt><trkpt lat="44.9473185" lon="6.8880302"><ele>2313.0</ele><time>2026-04-03T14:33:09.851Z</time></trkpt><trkpt lat="44.9473997" lon="6.8881049"><ele>2313.0</ele><time>2026-04-03T14:33:10.849Z</time></trkpt><trkpt lat="44.9475129" lon="6.888159"><ele>2313.0</ele><time>2026-04-03T14:33:11.84Z</time></trkpt><trkpt lat="44.9476484" lon="6.8881689"><ele>2307.75</ele><time>2026-04-03T14:33:12.851Z</time></trkpt><trkpt lat="44.9477731" lon="6.8881812"><ele>2302.5</ele><time>2026-04-03T14:33:13.84Z</time></trkpt><trkpt lat="44.9479029" lon="6.8881689"><ele>2297.25</ele><time>2026-04-03T14:33:14.841Z</time></trkpt><trkpt lat="44.9480312" lon="6.8881659"><ele>2292.0</ele><time>2026-04-03T14:33:15.843Z</time></trkpt><trkpt lat="44.9481143" lon="6.8882054"><ele>2292.0</ele><time>2026-04-03T14:33:16.843Z</time></trkpt><trkpt lat="44.9481777" lon="6.8882555"><ele>2292.0</ele><time>2026-04-03T14:33:17.852Z</time></trkpt><trkpt lat="44.9482" lon="6.888344"><ele>2292.0</ele><time>2026-04-03T14:33:20.853Z</time></trkpt><trkpt lat="44.9482549" lon="6.8884066"><ele>2292.0</ele><time>2026-04-03T14:33:28.858Z</time></trkpt><trkpt lat="44.9483432" lon="6.8884924"><ele>2292.0</ele><time>2026-04-03T14:33:30.843Z</time></trkpt><trkpt lat="44.9483865" lon="6.8885932"><ele>2292.0</ele><time>2026-04-03T14:33:31.847Z</time></trkpt><trkpt lat="44.9484302" lon="6.8886721"><ele>2284.6</ele><time>2026-04-03T14:33:32.844Z</time></trkpt><trkpt lat="44.9484657" lon="6.8888925"><ele>2277.2</ele><time>2026-04-03T14:33:33.851Z</time></trkpt><trkpt lat="44.9485304" lon="6.8889279"><ele>2269.8</ele><time>2026-04-03T14:33:34.85Z</time></trkpt><trkpt lat="44.9485915" lon="6.8889802"><ele>2262.4</ele><time>2026-04-03T14:33:35.853Z</time></trkpt><trkpt lat="44.9486223" lon="6.8891533"><ele>2255.0</ele><time>2026-04-03T14:33:36.847Z</time></trkpt><trkpt lat="44.9486159" lon="6.8892786"><ele>2251.6</ele><time>2026-04-03T14:33:37.846Z</time></trkpt><trkpt lat="44.9486241" lon="6.8894192"><ele>2248.2</ele><time>2026-04-03T14:33:38.847Z</time></trkpt><trkpt lat="44.9486497" lon="6.8895515"><ele>2244.8</ele><time>2026-04-03T14:33:39.858Z</time></trkpt><trkpt lat="44.9487722" lon="6.8896277"><ele>2241.4</ele><time>2026-04-03T14:33:40.848Z</time></trkpt><trkpt lat="44.9488411" lon="6.8897213"><ele>2238.0</ele><time>2026-04-03T14:33:41.853Z</time></trkpt><trkpt lat="44.9490061" lon="6.8896958"><ele>2238.0</ele><time>2026-04-03T14:33:42.839Z</time></trkpt><trkpt lat="44.9491244" lon="6.8897316"><ele>2238.0</ele><time>2026-04-03T14:33:43.858Z</time></trkpt><trkpt lat="44.949203" lon="6.88988"><ele>2238.0</ele><time>2026-04-03T14:33:44.84Z</time></trkpt><trkpt lat="44.9492612" lon="6.890099"><ele>2238.0</ele><time>2026-04-03T14:33:45.852Z</time></trkpt><trkpt lat="44.949292" lon="6.890287"><ele>2230.5</ele><time>2026-04-03T14:33:46.844Z</time></trkpt><trkpt lat="44.9493245" lon="6.8904824"><ele>2223.0</ele><time>2026-04-03T14:33:47.836Z</time></trkpt><trkpt lat="44.949371" lon="6.8906821"><ele>2215.5</ele><time>2026-04-03T14:33:48.85Z</time></trkpt><trkpt lat="44.94941" lon="6.8908265"><ele>2208.0</ele><time>2026-04-03T14:33:49.846Z</time></trkpt><trkpt lat="44.9494767" lon="6.8909403"><ele>2206.0</ele><time>2026-04-03T14:33:50.853Z</time></trkpt><trkpt lat="44.9496696" lon="6.8909334"><ele>2204.0</ele><time>2026-04-03T14:33:51.85Z</time></trkpt><trkpt lat="44.9498013" lon="6.8910221"><ele>2202.0</ele><time>2026-04-03T14:33:52.859Z</time></trkpt><trkpt lat="44.9498984" lon="6.8911846"><ele>2202.0</ele><time>2026-04-03T14:33:53.842Z</time></trkpt><trkpt lat="44.9500306" lon="6.8912673"><ele>2202.0</ele><time>2026-04-03T14:33:54.854Z</time></trkpt><trkpt lat="44.9501552" lon="6.8913232"><ele>2202.0</ele><time>2026-04-03T14:33:55.862Z</time></trkpt><trkpt lat="44.9502966" lon="6.8912934"><ele>2202.0</ele><time>2026-04-03T14:33:56.856Z</time></trkpt><trkpt lat="44.9504269" lon="6.8911782"><ele>2196.6666666666665</ele><time>2026-04-03T14:33:57.856Z</time></trkpt><trkpt lat="44.9505717" lon="6.8909455"><ele>2191.333333333333</ele><time>2026-04-03T14:33:58.846Z</time></trkpt><trkpt lat="44.9507272" lon="6.8908128"><ele>2186.0</ele><time>2026-04-03T14:33:59.85Z</time></trkpt><trkpt lat="44.95086" lon="6.8906877"><ele>2183.5</ele><time>2026-04-03T14:34:00.853Z</time></trkpt><trkpt lat="44.9510095" lon="6.8906776"><ele>2181.0</ele><time>2026-04-03T14:34:01.847Z</time></trkpt><trkpt lat="44.9510941" lon="6.8905633"><ele>2178.5</ele><time>2026-04-03T14:34:02.856Z</time></trkpt><trkpt lat="44.951177" lon="6.8904968"><ele>2176.0</ele><time>2026-04-03T14:34:03.853Z</time></trkpt><trkpt lat="44.9512996" lon="6.8904329"><ele>2176.0</ele><time>2026-04-03T14:34:04.849Z</time></trkpt><trkpt lat="44.9514372" lon="6.8904041"><ele>2176.0</ele><time>2026-04-03T14:34:05.842Z</time></trkpt><trkpt lat="44.9515787" lon="6.8904057"><ele>2176.0</ele><time>2026-04-03T14:34:06.854Z</time></trkpt><trkpt lat="44.9517" lon="6.8904837"><ele>2176.0</ele><time>2026-04-03T14:34:07.843Z</time></trkpt><trkpt lat="44.9518611" lon="6.8904955"><ele>2176.0</ele><time>2026-04-03T14:34:08.844Z</time></trkpt><trkpt lat="44.9517469" lon="6.8905208"><ele>2176.0</ele><time>2026-04-03T14:34:10.843Z</time></trkpt><trkpt lat="44.9516623" lon="6.8904431"><ele>2176.0</ele><time>2026-04-03T14:34:11.846Z</time></trkpt><trkpt lat="44.9517276" lon="6.89042"><ele>2176.0</ele><time>2026-04-03T14:34:16.845Z</time></trkpt><trkpt lat="44.9517968" lon="6.8904411"><ele>2176.0</ele><time>2026-04-03T14:34:18.85Z</time></trkpt><trkpt lat="44.9518784" lon="6.8904284"><ele>2176.0</ele><time>2026-04-03T14:34:20.852Z</time></trkpt><trkpt lat="44.9519351" lon="6.8903849"><ele>2172.0</ele><time>2026-04-03T14:34:24.858Z</time></trkpt><trkpt lat="44.952025" lon="6.8903904"><ele>2168.0</ele><time>2026-04-03T14:34:41.856Z</time></trkpt><trkpt lat="44.9521212" lon="6.8903763"><ele>2164.0</ele><time>2026-04-03T14:34:43.853Z</time></trkpt><trkpt lat="44.9522336" lon="6.8903597"><ele>2160.0</ele><time>2026-04-03T14:34:45.854Z</time></trkpt><trkpt lat="44.9523509" lon="6.890409"><ele>2156.0</ele><time>2026-04-03T14:34:46.86Z</time></trkpt><trkpt lat="44.9524616" lon="6.8903924"><ele>2156.0</ele><time>2026-04-03T14:34:47.84Z</time></trkpt><trkpt lat="44.9525392" lon="6.8902775"><ele>2156.0</ele><time>2026-04-03T14:34:48.856Z</time></trkpt><trkpt lat="44.9526138" lon="6.8901709"><ele>2156.0</ele><time>2026-04-03T14:34:49.852Z</time></trkpt><trkpt lat="44.9526974" lon="6.8900827"><ele>2156.0</ele><time>2026-04-03T14:34:50.844Z</time></trkpt><trkpt lat="44.9528116" lon="6.8899622"><ele>2146.0</ele><time>2026-04-03T14:34:51.856Z</time></trkpt><trkpt lat="44.952923" lon="6.8898509"><ele>2136.0</ele><time>2026-04-03T14:34:52.843Z</time></trkpt><trkpt lat="44.9530591" lon="6.8896649"><ele>2126.0</ele><time>2026-04-03T14:34:53.854Z</time></trkpt><trkpt lat="44.95317" lon="6.8895008"><ele>2126.0</ele><time>2026-04-03T14:34:54.857Z</time></trkpt><trkpt lat="44.9532443" lon="6.8893407"><ele>2126.0</ele><time>2026-04-03T14:34:55.854Z</time></trkpt><trkpt lat="44.9533227" lon="6.889164"><ele>2126.0</ele><time>2026-04-03T14:34:56.843Z</time></trkpt><trkpt lat="44.9534008" lon="6.8889869"><ele>2126.0</ele><time>2026-04-03T14:34:57.851Z</time></trkpt><trkpt lat="44.953475" lon="6.888814"><ele>2123.5</ele><time>2026-04-03T14:34:58.853Z</time></trkpt><trkpt lat="44.9535588" lon="6.8886564"><ele>2121.0</ele><time>2026-04-03T14:34:59.846Z</time></trkpt><trkpt lat="44.953651" lon="6.888492"><ele>2118.5</ele><time>2026-04-03T14:35:00.853Z</time></trkpt><trkpt lat="44.9537316" lon="6.8883819"><ele>2116.0</ele><time>2026-04-03T14:35:01.851Z</time></trkpt><trkpt lat="44.9537784" lon="6.8882377"><ele>2116.0</ele><time>2026-04-03T14:35:02.849Z</time></trkpt><trkpt lat="44.9538379" lon="6.8880929"><ele>2116.0</ele><time>2026-04-03T14:35:03.848Z</time></trkpt><trkpt lat="44.9539461" lon="6.887998"><ele>2116.0</ele><time>2026-04-03T14:35:04.842Z</time></trkpt><trkpt lat="44.9540413" lon="6.8878971"><ele>2116.0</ele><time>2026-04-03T14:35:05.86Z</time></trkpt><trkpt lat="44.9540731" lon="6.8881246"><ele>2116.0</ele><time>2026-04-03T14:35:06.837Z</time></trkpt><trkpt lat="44.9541578" lon="6.8881583"><ele>2116.0</ele><time>2026-04-03T14:35:07.856Z</time></trkpt><trkpt lat="44.9542265" lon="6.8882398"><ele>2116.0</ele><time>2026-04-03T14:35:08.847Z</time></trkpt><trkpt lat="44.9543183" lon="6.8883052"><ele>2116.0</ele><time>2026-04-03T14:35:09.842Z</time></trkpt><trkpt lat="44.9544476" lon="6.8883547"><ele>2116.0</ele><time>2026-04-03T14:35:11.848Z</time></trkpt><trkpt lat="44.9545262" lon="6.8884239"><ele>2113.2</ele><time>2026-04-03T14:35:12.863Z</time></trkpt><trkpt lat="44.9546145" lon="6.8884572"><ele>2110.3999999999996</ele><time>2026-04-03T14:35:13.843Z</time></trkpt><trkpt lat="44.9547145" lon="6.8884576"><ele>2107.6</ele><time>2026-04-03T14:35:14.85Z</time></trkpt><trkpt lat="44.9548314" lon="6.88843"><ele>2104.7999999999997</ele><time>2026-04-03T14:35:15.849Z</time></trkpt><trkpt lat="44.9549132" lon="6.8884991"><ele>2102.0</ele><time>2026-04-03T14:35:16.842Z</time></trkpt><trkpt lat="44.9550061" lon="6.888546"><ele>2099.2</ele><time>2026-04-03T14:35:17.848Z</time></trkpt><trkpt lat="44.9551001" lon="6.8885487"><ele>2096.3999999999996</ele><time>2026-04-03T14:35:18.845Z</time></trkpt><trkpt lat="44.9551941" lon="6.8885654"><ele>2093.6000000000004</ele><time>2026-04-03T14:35:19.849Z</time></trkpt><trkpt lat="44.9552683" lon="6.8886864"><ele>2090.8</ele><time>2026-04-03T14:35:20.855Z</time></trkpt><trkpt lat="44.9553933" lon="6.8886838"><ele>2088.0</ele><time>2026-04-03T14:35:21.841Z</time></trkpt><trkpt lat="44.9554872" lon="6.8886927"><ele>2088.0</ele><time>2026-04-03T14:35:22.843Z</time></trkpt><trkpt lat="44.9555984" lon="6.8886978"><ele>2088.0</ele><time>2026-04-03T14:35:23.843Z</time></trkpt><trkpt lat="44.9556989" lon="6.8886988"><ele>2088.0</ele><time>2026-04-03T14:35:24.855Z</time></trkpt><trkpt lat="44.9558356" lon="6.8887231"><ele>2088.0</ele><time>2026-04-03T14:35:25.845Z</time></trkpt><trkpt lat="44.9559772" lon="6.8886738"><ele>2084.2000000000003</ele><time>2026-04-03T14:35:27.848Z</time></trkpt><trkpt lat="44.9560558" lon="6.8886581"><ele>2080.4</ele><time>2026-04-03T14:35:28.855Z</time></trkpt><trkpt lat="44.9561572" lon="6.888592"><ele>2076.6000000000004</ele><time>2026-04-03T14:35:29.855Z</time></trkpt><trkpt lat="44.9562299" lon="6.8885067"><ele>2072.8</ele><time>2026-04-03T14:35:30.854Z</time></trkpt><trkpt lat="44.9563628" lon="6.8884985"><ele>2069.0</ele><time>2026-04-03T14:35:31.848Z</time></trkpt><trkpt lat="44.9564419" lon="6.8884652"><ele>2069.0</ele><time>2026-04-03T14:35:32.839Z</time></trkpt><trkpt lat="44.9565449" lon="6.8884337"><ele>2069.0</ele><time>2026-04-03T14:35:33.847Z</time></trkpt><trkpt lat="44.9566437" lon="6.8883388"><ele>2069.0</ele><time>2026-04-03T14:35:34.851Z</time></trkpt><trkpt lat="44.9567314" lon="6.8882414"><ele>2069.0</ele><time>2026-04-03T14:35:35.85Z</time></trkpt><trkpt lat="44.9568001" lon="6.8880874"><ele>2065.0</ele><time>2026-04-03T14:35:36.841Z</time></trkpt><trkpt lat="44.9569142" lon="6.8880096"><ele>2061.0</ele><time>2026-04-03T14:35:37.844Z</time></trkpt><trkpt lat="44.9570165" lon="6.8879001"><ele>2057.0</ele><time>2026-04-03T14:35:38.841Z</time></trkpt><trkpt lat="44.9571143" lon="6.8878009"><ele>2053.0</ele><time>2026-04-03T14:35:39.843Z</time></trkpt><trkpt lat="44.957211" lon="6.8876951"><ele>2052.75</ele><time>2026-04-03T14:35:40.854Z</time></trkpt><trkpt lat="44.9573078" lon="6.8875886"><ele>2052.5</ele><time>2026-04-03T14:35:41.839Z</time></trkpt><trkpt lat="44.9574037" lon="6.8874805"><ele>2052.25</ele><time>2026-04-03T14:35:42.843Z</time></trkpt><trkpt lat="44.9575174" lon="6.8873346"><ele>2052.0</ele><time>2026-04-03T14:35:43.848Z</time></trkpt><trkpt lat="44.9574977" lon="6.8871814"><ele>2049.0</ele><time>2026-04-03T14:35:44.853Z</time></trkpt><trkpt lat="44.9575535" lon="6.8870511"><ele>2045.9999999999998</ele><time>2026-04-03T14:35:45.855Z</time></trkpt><trkpt lat="44.957637" lon="6.8869865"><ele>2042.9999999999998</ele><time>2026-04-03T14:35:46.846Z</time></trkpt><trkpt lat="44.9576955" lon="6.8870292"><ele>2040.0</ele><time>2026-04-03T14:35:47.855Z</time></trkpt><trkpt lat="44.957761" lon="6.8869308"><ele>2037.0</ele><time>2026-04-03T14:35:48.851Z</time></trkpt><trkpt lat="44.9578458" lon="6.8868609"><ele>2037.0</ele><time>2026-04-03T14:35:49.853Z</time></trkpt><trkpt lat="44.957931" lon="6.8868076"><ele>2036.9999999999998</ele><time>2026-04-03T14:35:50.861Z</time></trkpt><trkpt lat="44.9580373" lon="6.886805"><ele>2036.9999999999998</ele><time>2026-04-03T14:35:51.847Z</time></trkpt><trkpt lat="44.9581226" lon="6.8867464"><ele>2037.0</ele><time>2026-04-03T14:35:52.841Z</time></trkpt><trkpt lat="44.9582075" lon="6.8866577"><ele>2037.0</ele><time>2026-04-03T14:35:53.861Z</time></trkpt><trkpt lat="44.9582924" lon="6.8865779"><ele>2035.0</ele><time>2026-04-03T14:35:54.853Z</time></trkpt><trkpt lat="44.9583742" lon="6.8865026"><ele>2032.9999999999998</ele><time>2026-04-03T14:35:55.853Z</time></trkpt><trkpt lat="44.9584609" lon="6.886422"><ele>2030.9999999999998</ele><time>2026-04-03T14:35:56.846Z</time></trkpt><trkpt lat="44.9585359" lon="6.8863516"><ele>2029.0</ele><time>2026-04-03T14:35:57.85Z</time></trkpt><trkpt lat="44.9586146" lon="6.8862736"><ele>2027.0</ele><time>2026-04-03T14:35:58.849Z</time></trkpt><trkpt lat="44.9586919" lon="6.8862336"><ele>2027.0</ele><time>2026-04-03T14:35:59.852Z</time></trkpt><trkpt lat="44.9587689" lon="6.8861615"><ele>2026.9999999999998</ele><time>2026-04-03T14:36:00.85Z</time></trkpt><trkpt lat="44.9588488" lon="6.8860682"><ele>2026.9999999999998</ele><time>2026-04-03T14:36:01.843Z</time></trkpt><trkpt lat="44.9589304" lon="6.8859876"><ele>2027.0</ele><time>2026-04-03T14:36:02.852Z</time></trkpt><trkpt lat="44.9590087" lon="6.8859063"><ele>2027.0</ele><time>2026-04-03T14:36:03.84Z</time></trkpt><trkpt lat="44.9590869" lon="6.8858246"><ele>2027.8333333333333</ele><time>2026-04-03T14:36:04.846Z</time></trkpt><trkpt lat="44.959161" lon="6.885744"><ele>2028.6666666666665</ele><time>2026-04-03T14:36:05.854Z</time></trkpt><trkpt lat="44.9592342" lon="6.8856641"><ele>2029.5</ele><time>2026-04-03T14:36:06.844Z</time></trkpt><trkpt lat="44.9593051" lon="6.8855781"><ele>2030.3333333333335</ele><time>2026-04-03T14:36:07.853Z</time></trkpt><trkpt lat="44.9593552" lon="6.8854961"><ele>2031.1666666666667</ele><time>2026-04-03T14:36:08.861Z</time></trkpt><trkpt lat="44.9594139" lon="6.8854138"><ele>2032.0</ele><time>2026-04-03T14:36:09.844Z</time></trkpt><trkpt lat="44.9594584" lon="6.8853389"><ele>2029.0000000000002</ele><time>2026-04-03T14:36:10.85Z</time></trkpt><trkpt lat="44.9594967" lon="6.8852586"><ele>2026.0</ele><time>2026-04-03T14:36:11.847Z</time></trkpt><trkpt lat="44.9595355" lon="6.885176"><ele>2023.0</ele><time>2026-04-03T14:36:12.855Z</time></trkpt><trkpt lat="44.9596459" lon="6.8851322"><ele>2020.0</ele><time>2026-04-03T14:36:14.857Z</time></trkpt><trkpt lat="44.9597026" lon="6.8851762"><ele>2017.0000000000002</ele><time>2026-04-03T14:36:15.849Z</time></trkpt><trkpt lat="44.9597867" lon="6.8851209"><ele>2014.0</ele><time>2026-04-03T14:36:16.849Z</time></trkpt><trkpt lat="44.9598564" lon="6.8851282"><ele>2014.0</ele><time>2026-04-03T14:36:17.843Z</time></trkpt><trkpt lat="44.9599833" lon="6.8852281"><ele>2014.0</ele><time>2026-04-03T14:36:19.853Z</time></trkpt><trkpt lat="44.9600909" lon="6.8852189"><ele>2014.0</ele><time>2026-04-03T14:36:21.85Z</time></trkpt><trkpt lat="44.960147" lon="6.8852843"><ele>2014.0</ele><time>2026-04-03T14:36:22.845Z</time></trkpt><trkpt lat="44.9602117" lon="6.8853362"><ele>2014.0</ele><time>2026-04-03T14:36:23.856Z</time></trkpt><trkpt lat="44.9602847" lon="6.8853077"><ele>2012.5000000000002</ele><time>2026-04-03T14:36:25.856Z</time></trkpt><trkpt lat="44.9602384" lon="6.885227"><ele>2011.0</ele><time>2026-04-03T14:36:27.846Z</time></trkpt><trkpt lat="44.9602452" lon="6.88512"><ele>2009.5</ele><time>2026-04-03T14:36:29.842Z</time></trkpt><trkpt lat="44.9603525" lon="6.8849936"><ele>2008.0</ele><time>2026-04-03T14:36:33.844Z</time></trkpt><trkpt lat="44.9604119" lon="6.8849537"><ele>2006.5000000000002</ele><time>2026-04-03T14:36:35.849Z</time></trkpt><trkpt lat="44.9604791" lon="6.8849228"><ele>2005.0</ele><time>2026-04-03T14:36:37.857Z</time></trkpt><trkpt lat="44.9605407" lon="6.8848852"><ele>2005.0</ele><time>2026-04-03T14:36:45.852Z</time></trkpt><trkpt lat="44.9605933" lon="6.8848341"><ele>2005.0000000000002</ele><time>2026-04-03T14:37:01.84Z</time></trkpt><trkpt lat="44.9606526" lon="6.8847816"><ele>2005.0</ele><time>2026-04-03T14:37:11.839Z</time></trkpt><trkpt lat="44.9607138" lon="6.8848194"><ele>2005.0</ele><time>2026-04-03T14:37:55.852Z</time></trkpt><trkpt lat="44.960785" lon="6.8848335"><ele>2005.0000000000002</ele><time>2026-04-03T14:38:02.856Z</time></trkpt><trkpt lat="44.9608552" lon="6.8848067"><ele>2005.0</ele><time>2026-04-03T14:38:09.849Z</time></trkpt><trkpt lat="44.9609194" lon="6.8848179"><ele>2005.0</ele><time>2026-04-03T14:38:13.869Z</time></trkpt><trkpt lat="44.9609887" lon="6.8848053"><ele>1992.0</ele><time>2026-04-03T14:38:19.851Z</time></trkpt></trkseg></trk></gpx>